<?xml version="1.0" encoding="UTF-8" standalone="no" ?>
<gpx xmlns="http://www.topografix.com/GPX/1/1" xmlns:xsi="http://www.w3.org/2001/XMLSchema-instance" xsi:schemaLocation="http://www.topografix.com/GPX/1/1 http://www.topografix.com/GPX/1/1/gpx.xsd" version="1.1" creator="VisuGPX - https://www.visugpx.com">
  <metadata>
    <name>Baltic States</name>
  </metadata>
  <trk>
    <name><![CDATA[1_Tallinn à Riga: 861km]]></name>
    <trkseg>
      <trkpt lat="59.4371" lon="24.7453">
        <ele>30.781457</ele>
        <time>2020-10-06T11:03:19.036Z</time>
      </trkpt>
      <trkpt lat="59.43715" lon="24.74502">
        <ele>30.781457</ele>
        <time>2020-10-06T11:03:29.342Z</time>
      </trkpt>
      <trkpt lat="59.43721" lon="24.74485">
        <ele>30.781457</ele>
        <time>2020-10-06T11:03:36.768Z</time>
      </trkpt>
      <trkpt lat="59.43736" lon="24.74449">
        <ele>30.781457</ele>
        <time>2020-10-06T11:03:53.043Z</time>
      </trkpt>
      <trkpt lat="59.43736" lon="24.7443">
        <ele>30.781457</ele>
        <time>2020-10-06T11:03:59.910Z</time>
      </trkpt>
      <trkpt lat="59.43743" lon="24.74417">
        <ele>30.781457</ele>
        <time>2020-10-06T11:04:06.621Z</time>
      </trkpt>
      <trkpt lat="59.43754" lon="24.74396">
        <ele>30.781457</ele>
        <time>2020-10-06T11:04:17.570Z</time>
      </trkpt>
      <trkpt lat="59.43758" lon="24.7439">
        <ele>30.781457</ele>
        <time>2020-10-06T11:04:20.889Z</time>
      </trkpt>
      <trkpt lat="59.43766" lon="24.74366">
        <ele>30.775704</ele>
        <time>2020-10-06T11:04:31.083Z</time>
      </trkpt>
      <trkpt lat="59.43769" lon="24.74357">
        <ele>30.773366</ele>
        <time>2020-10-06T11:04:34.901Z</time>
      </trkpt>
      <trkpt lat="59.43772" lon="24.7434">
        <ele>30.769311</ele>
        <time>2020-10-06T11:04:41.521Z</time>
      </trkpt>
      <trkpt lat="59.43772" lon="24.74312">
        <ele>30.763374</ele>
        <time>2020-10-06T11:04:51.195Z</time>
      </trkpt>
      <trkpt lat="59.43774" lon="24.74298">
        <ele>30.760141</ele>
        <time>2020-10-06T11:04:53.235Z</time>
      </trkpt>
      <trkpt lat="59.43812" lon="24.74301">
        <ele>30.743764</ele>
        <time>2020-10-06T11:05:02.666Z</time>
      </trkpt>
      <trkpt lat="59.43813" lon="24.74324">
        <ele>30.738647</ele>
        <time>2020-10-06T11:05:05.217Z</time>
      </trkpt>
      <trkpt lat="59.43839" lon="24.74376">
        <ele>30.722787</ele>
        <time>2020-10-06T11:05:14.087Z</time>
      </trkpt>
      <trkpt lat="59.43854" lon="24.74406">
        <ele>30.713478</ele>
        <time>2020-10-06T11:05:19.151Z</time>
      </trkpt>
      <trkpt lat="59.43862" lon="24.74422">
        <ele>30.708786</ele>
        <time>2020-10-06T11:05:21.230Z</time>
      </trkpt>
      <trkpt lat="59.43865" lon="24.74426">
        <ele>30.707354</ele>
        <time>2020-10-06T11:05:21.905Z</time>
      </trkpt>
      <trkpt lat="59.43871" lon="24.74438">
        <ele>30.702625</ele>
        <time>2020-10-06T11:05:23.843Z</time>
      </trkpt>
      <trkpt lat="59.43883" lon="24.74461">
        <ele>30.689095</ele>
        <time>2020-10-06T11:05:27.019Z</time>
      </trkpt>
      <trkpt lat="59.43927" lon="24.74509">
        <ele>30.648411</ele>
        <time>2020-10-06T11:05:36.489Z</time>
      </trkpt>
      <trkpt lat="59.43933" lon="24.74514">
        <ele>30.643248</ele>
        <time>2020-10-06T11:05:37.894Z</time>
      </trkpt>
      <trkpt lat="59.43936" lon="24.74482">
        <ele>30.629729</ele>
        <time>2020-10-06T11:05:41.293Z</time>
      </trkpt>
      <trkpt lat="59.4394" lon="24.74441">
        <ele>30.612424</ele>
        <time>2020-10-06T11:05:46.892Z</time>
      </trkpt>
      <trkpt lat="59.43942" lon="24.74417">
        <ele>30.602393</ele>
        <time>2020-10-06T11:05:50.061Z</time>
      </trkpt>
      <trkpt lat="59.43942" lon="24.74376">
        <ele>30.585535</ele>
        <time>2020-10-06T11:05:56.690Z</time>
      </trkpt>
      <trkpt lat="59.43941" lon="24.74361">
        <ele>30.579401</ele>
        <time>2020-10-06T11:05:58.906Z</time>
      </trkpt>
      <trkpt lat="59.43939" lon="24.74307">
        <ele>30.542254</ele>
        <time>2020-10-06T11:06:07.752Z</time>
      </trkpt>
      <trkpt lat="59.43937" lon="24.74257">
        <ele>30.30666</ele>
        <time>2020-10-06T11:06:14.265Z</time>
      </trkpt>
      <trkpt lat="59.43936" lon="24.74246">
        <ele>30.2565</ele>
        <time>2020-10-06T11:06:15.619Z</time>
      </trkpt>
      <trkpt lat="59.43936" lon="24.74229">
        <ele>30.17701</ele>
        <time>2020-10-06T11:06:17.324Z</time>
      </trkpt>
      <trkpt lat="59.43935" lon="24.7422">
        <ele>30.135485</ele>
        <time>2020-10-06T11:06:18.151Z</time>
      </trkpt>
      <trkpt lat="59.43935" lon="24.74215">
        <ele>30.111215</ele>
        <time>2020-10-06T11:06:18.664Z</time>
      </trkpt>
      <trkpt lat="59.43934" lon="24.74201">
        <ele>30.047822</ele>
        <time>2020-10-06T11:06:20.029Z</time>
      </trkpt>
      <trkpt lat="59.43931" lon="24.74156">
        <ele>29.83848</ele>
        <time>2020-10-06T11:06:24.406Z</time>
      </trkpt>
      <trkpt lat="59.43928" lon="24.74113">
        <ele>29.636739</ele>
        <time>2020-10-06T11:06:28.723Z</time>
      </trkpt>
      <trkpt lat="59.43925" lon="24.74067">
        <ele>29.422699</ele>
        <time>2020-10-06T11:06:33.074Z</time>
      </trkpt>
      <trkpt lat="59.43923" lon="24.74041">
        <ele>29.296989</ele>
        <time>2020-10-06T11:06:36.013Z</time>
      </trkpt>
      <trkpt lat="59.43983" lon="24.7394">
        <ele>28.040506</ele>
        <time>2020-10-06T11:06:50.645Z</time>
      </trkpt>
      <trkpt lat="59.43981" lon="24.73924">
        <ele>27.83725</ele>
        <time>2020-10-06T11:06:52.248Z</time>
      </trkpt>
      <trkpt lat="59.4398" lon="24.73917">
        <ele>27.743087</ele>
        <time>2020-10-06T11:06:52.942Z</time>
      </trkpt>
      <trkpt lat="59.43974" lon="24.73894">
        <ele>27.445817</ele>
        <time>2020-10-06T11:06:55.200Z</time>
      </trkpt>
      <trkpt lat="59.4397" lon="24.73869">
        <ele>27.128938</ele>
        <time>2020-10-06T11:06:57.432Z</time>
      </trkpt>
      <trkpt lat="59.43957" lon="24.73812">
        <ele>26.379329</ele>
        <time>2020-10-06T11:07:02.677Z</time>
      </trkpt>
      <trkpt lat="59.43948" lon="24.7378">
        <ele>25.940289</ele>
        <time>2020-10-06T11:07:05.657Z</time>
      </trkpt>
      <trkpt lat="59.43936" lon="24.73733">
        <ele>25.30253</ele>
        <time>2020-10-06T11:07:10.303Z</time>
      </trkpt>
      <trkpt lat="59.43923" lon="24.73685">
        <ele>24.683707</ele>
        <time>2020-10-06T11:07:15.350Z</time>
      </trkpt>
      <trkpt lat="59.439" lon="24.73624">
        <ele>24.969257</ele>
        <time>2020-10-06T11:07:25.479Z</time>
      </trkpt>
      <trkpt lat="59.43864" lon="24.73552">
        <ele>25.344037</ele>
        <time>2020-10-06T11:07:40.596Z</time>
      </trkpt>
      <trkpt lat="59.43824" lon="24.73541">
        <ele>25.646382</ele>
        <time>2020-10-06T11:07:52.301Z</time>
      </trkpt>
      <trkpt lat="59.43804" lon="24.73535">
        <ele>25.796347</ele>
        <time>2020-10-06T11:07:57.968Z</time>
      </trkpt>
      <trkpt lat="59.43785" lon="24.73523">
        <ele>25.942282</ele>
        <time>2020-10-06T11:08:03.580Z</time>
      </trkpt>
      <trkpt lat="59.43771" lon="24.73511">
        <ele>25.99839</ele>
        <time>2020-10-06T11:08:07.698Z</time>
      </trkpt>
      <trkpt lat="59.43727" lon="24.73508">
        <ele>25.957818</ele>
        <time>2020-10-06T11:08:19.995Z</time>
      </trkpt>
      <trkpt lat="59.43717" lon="24.73506">
        <ele>25.949199</ele>
        <time>2020-10-06T11:08:22.362Z</time>
      </trkpt>
      <trkpt lat="59.43677" lon="24.73477">
        <ele>25.910136</ele>
        <time>2020-10-06T11:08:33.195Z</time>
      </trkpt>
      <trkpt lat="59.43648" lon="24.73435">
        <ele>25.877167</ele>
        <time>2020-10-06T11:08:41.031Z</time>
      </trkpt>
      <trkpt lat="59.43635" lon="24.73414">
        <ele>25.861893</ele>
        <time>2020-10-06T11:08:44.434Z</time>
      </trkpt>
      <trkpt lat="59.43637" lon="24.73405">
        <ele>25.857083</ele>
        <time>2020-10-06T11:08:45.333Z</time>
      </trkpt>
      <trkpt lat="59.43659" lon="24.73351">
        <ele>25.501088</ele>
        <time>2020-10-06T11:08:51.853Z</time>
      </trkpt>
      <trkpt lat="59.43661" lon="24.73339">
        <ele>25.371953</ele>
        <time>2020-10-06T11:08:52.979Z</time>
      </trkpt>
      <trkpt lat="59.4366" lon="24.73328">
        <ele>25.262568</ele>
        <time>2020-10-06T11:08:54.016Z</time>
      </trkpt>
      <trkpt lat="59.43657" lon="24.73314">
        <ele>25.107736</ele>
        <time>2020-10-06T11:08:55.412Z</time>
      </trkpt>
      <trkpt lat="59.4366" lon="24.73298">
        <ele>24.932874</ele>
        <time>2020-10-06T11:08:56.962Z</time>
      </trkpt>
      <trkpt lat="59.43661" lon="24.73283">
        <ele>24.77862</ele>
        <time>2020-10-06T11:08:58.159Z</time>
      </trkpt>
      <trkpt lat="59.43656" lon="24.73263">
        <ele>24.54194</ele>
        <time>2020-10-06T11:09:00.269Z</time>
      </trkpt>
      <trkpt lat="59.43658" lon="24.73119">
        <ele>23.052793</ele>
        <time>2020-10-06T11:09:12.813Z</time>
      </trkpt>
      <trkpt lat="59.43659" lon="24.73009">
        <ele>21.994408</ele>
        <time>2020-10-06T11:09:22.799Z</time>
      </trkpt>
      <trkpt lat="59.43658" lon="24.7291">
        <ele>21.284501</ele>
        <time>2020-10-06T11:09:32.208Z</time>
      </trkpt>
      <trkpt lat="59.43585" lon="24.72679">
        <ele>19.352816</ele>
        <time>2020-10-06T11:09:58.348Z</time>
      </trkpt>
      <trkpt lat="59.43585" lon="24.72667">
        <ele>19.264584</ele>
        <time>2020-10-06T11:09:59.440Z</time>
      </trkpt>
      <trkpt lat="59.43579" lon="24.72657">
        <ele>19.150916</ele>
        <time>2020-10-06T11:10:01.060Z</time>
      </trkpt>
      <trkpt lat="59.43574" lon="24.72649">
        <ele>19.069199</ele>
        <time>2020-10-06T11:10:02.210Z</time>
      </trkpt>
      <trkpt lat="59.43597" lon="24.72607">
        <ele>18.639665</ele>
        <time>2020-10-06T11:10:07.864Z</time>
      </trkpt>
      <trkpt lat="59.43614" lon="24.7258">
        <ele>18.333363</ele>
        <time>2020-10-06T11:10:11.855Z</time>
      </trkpt>
      <trkpt lat="59.43633" lon="24.72543">
        <ele>17.95642</ele>
        <time>2020-10-06T11:10:17.043Z</time>
      </trkpt>
      <trkpt lat="59.43639" lon="24.72529">
        <ele>17.83438</ele>
        <time>2020-10-06T11:10:18.600Z</time>
      </trkpt>
      <trkpt lat="59.43643" lon="24.72509">
        <ele>17.683554</ele>
        <time>2020-10-06T11:10:20.748Z</time>
      </trkpt>
      <trkpt lat="59.43671" lon="24.72454">
        <ele>17.136089</ele>
        <time>2020-10-06T11:10:28.463Z</time>
      </trkpt>
      <trkpt lat="59.43729" lon="24.72344">
        <ele>16.155174</ele>
        <time>2020-10-06T11:10:44.430Z</time>
      </trkpt>
      <trkpt lat="59.43593" lon="24.7206">
        <ele>13.671182</ele>
        <time>2020-10-06T11:11:23.953Z</time>
      </trkpt>
      <trkpt lat="59.43592" lon="24.72057">
        <ele>13.647344</ele>
        <time>2020-10-06T11:11:24.289Z</time>
      </trkpt>
      <trkpt lat="59.43583" lon="24.72043">
        <ele>13.506623</ele>
        <time>2020-10-06T11:11:26.299Z</time>
      </trkpt>
      <trkpt lat="59.43549" lon="24.71973">
        <ele>12.865964</ele>
        <time>2020-10-06T11:11:36.033Z</time>
      </trkpt>
      <trkpt lat="59.43537" lon="24.71963">
        <ele>12.706269</ele>
        <time>2020-10-06T11:11:38.553Z</time>
      </trkpt>
      <trkpt lat="59.43537" lon="24.7195">
        <ele>12.636108</ele>
        <time>2020-10-06T11:11:39.765Z</time>
      </trkpt>
      <trkpt lat="59.43536" lon="24.71921">
        <ele>12.528101</ele>
        <time>2020-10-06T11:11:42.712Z</time>
      </trkpt>
      <trkpt lat="59.43546" lon="24.71901">
        <ele>12.418262</ele>
        <time>2020-10-06T11:11:45.734Z</time>
      </trkpt>
      <trkpt lat="59.43545" lon="24.71896">
        <ele>12.39734</ele>
        <time>2020-10-06T11:11:46.216Z</time>
      </trkpt>
      <trkpt lat="59.43536" lon="24.71828">
        <ele>12.130335</ele>
        <time>2020-10-06T11:11:53.393Z</time>
      </trkpt>
      <trkpt lat="59.43535" lon="24.71814">
        <ele>12.075563</ele>
        <time>2020-10-06T11:11:54.806Z</time>
      </trkpt>
      <trkpt lat="59.43533" lon="24.71791">
        <ele>11.987028</ele>
        <time>2020-10-06T11:11:57.292Z</time>
      </trkpt>
      <trkpt lat="59.43533" lon="24.71785">
        <ele>11.964551</ele>
        <time>2020-10-06T11:11:57.876Z</time>
      </trkpt>
      <trkpt lat="59.43519" lon="24.71708">
        <ele>11.653238</ele>
        <time>2020-10-06T11:12:06.660Z</time>
      </trkpt>
      <trkpt lat="59.43503" lon="24.71614">
        <ele>11.313895</ele>
        <time>2020-10-06T11:12:17.932Z</time>
      </trkpt>
      <trkpt lat="59.43499" lon="24.71589">
        <ele>11.326644</ele>
        <time>2020-10-06T11:12:21.130Z</time>
      </trkpt>
      <trkpt lat="59.43452" lon="24.71435">
        <ele>11.415106</ele>
        <time>2020-10-06T11:12:43.231Z</time>
      </trkpt>
      <trkpt lat="59.4344" lon="24.71438">
        <ele>11.427294</ele>
        <time>2020-10-06T11:12:46.297Z</time>
      </trkpt>
      <trkpt lat="59.43427" lon="24.71397">
        <ele>11.450824</ele>
        <time>2020-10-06T11:12:52.115Z</time>
      </trkpt>
      <trkpt lat="59.43444" lon="24.71376">
        <ele>11.470109</ele>
        <time>2020-10-06T11:12:56.814Z</time>
      </trkpt>
      <trkpt lat="59.4344" lon="24.71362">
        <ele>11.477821</ele>
        <time>2020-10-06T11:12:59.112Z</time>
      </trkpt>
      <trkpt lat="59.43435" lon="24.71346">
        <ele>11.47939</ele>
        <time>2020-10-06T11:13:01.771Z</time>
      </trkpt>
      <trkpt lat="59.4343" lon="24.71332">
        <ele>11.469632</ele>
        <time>2020-10-06T11:13:04.297Z</time>
      </trkpt>
      <trkpt lat="59.43319" lon="24.7147">
        <ele>11.323973</ele>
        <time>2020-10-06T11:13:42.845Z</time>
      </trkpt>
      <trkpt lat="59.4331" lon="24.71479">
        <ele>11.313314</ele>
        <time>2020-10-06T11:13:45.467Z</time>
      </trkpt>
      <trkpt lat="59.43279" lon="24.7152">
        <ele>11.253171</ele>
        <time>2020-10-06T11:13:55.832Z</time>
      </trkpt>
      <trkpt lat="59.43275" lon="24.71528">
        <ele>11.23693</ele>
        <time>2020-10-06T11:13:57.552Z</time>
      </trkpt>
      <trkpt lat="59.43272" lon="24.71527">
        <ele>11.228904</ele>
        <time>2020-10-06T11:13:58.338Z</time>
      </trkpt>
      <trkpt lat="59.43268" lon="24.7152">
        <ele>11.214307</ele>
        <time>2020-10-06T11:13:59.805Z</time>
      </trkpt>
      <trkpt lat="59.43238" lon="24.71426">
        <ele>11.059499</ele>
        <time>2020-10-06T11:14:15.714Z</time>
      </trkpt>
      <trkpt lat="59.43219" lon="24.71368">
        <ele>10.964297</ele>
        <time>2020-10-06T11:14:25.707Z</time>
      </trkpt>
      <trkpt lat="59.4319" lon="24.71281">
        <ele>10.819839</ele>
        <time>2020-10-06T11:14:41.058Z</time>
      </trkpt>
      <trkpt lat="59.4318" lon="24.71249">
        <ele>10.781861</ele>
        <time>2020-10-06T11:14:46.494Z</time>
      </trkpt>
      <trkpt lat="59.43177" lon="24.71239">
        <ele>10.774609</ele>
        <time>2020-10-06T11:14:48.075Z</time>
      </trkpt>
      <trkpt lat="59.43168" lon="24.71217">
        <ele>10.756037</ele>
        <time>2020-10-06T11:14:52.200Z</time>
      </trkpt>
      <trkpt lat="59.43164" lon="24.71207">
        <ele>10.747615</ele>
        <time>2020-10-06T11:14:54.124Z</time>
      </trkpt>
      <trkpt lat="59.43158" lon="24.71192">
        <ele>10.735089</ele>
        <time>2020-10-06T11:14:56.933Z</time>
      </trkpt>
      <trkpt lat="59.43095" lon="24.70991">
        <ele>10.581271</ele>
        <time>2020-10-06T11:15:31.720Z</time>
      </trkpt>
      <trkpt lat="59.43091" lon="24.70968">
        <ele>10.565372</ele>
        <time>2020-10-06T11:15:35.398Z</time>
      </trkpt>
      <trkpt lat="59.43091" lon="24.70964">
        <ele>10.562952</ele>
        <time>2020-10-06T11:15:35.894Z</time>
      </trkpt>
      <trkpt lat="59.43089" lon="24.70957">
        <ele>10.555595</ele>
        <time>2020-10-06T11:15:37.193Z</time>
      </trkpt>
      <trkpt lat="59.43085" lon="24.70945">
        <ele>10.543744</ele>
        <time>2020-10-06T11:15:39.231Z</time>
      </trkpt>
      <trkpt lat="59.43066" lon="24.70882">
        <ele>10.480614</ele>
        <time>2020-10-06T11:15:49.854Z</time>
      </trkpt>
      <trkpt lat="59.43053" lon="24.70842">
        <ele>10.440089</ele>
        <time>2020-10-06T11:15:56.624Z</time>
      </trkpt>
      <trkpt lat="59.43004" lon="24.70691">
        <ele>10.286958</ele>
        <time>2020-10-06T11:16:22.741Z</time>
      </trkpt>
      <trkpt lat="59.43001" lon="24.70674">
        <ele>10.271102</ele>
        <time>2020-10-06T11:16:25.358Z</time>
      </trkpt>
      <trkpt lat="59.42987" lon="24.7063">
        <ele>10.238688</ele>
        <time>2020-10-06T11:16:33.005Z</time>
      </trkpt>
      <trkpt lat="59.42971" lon="24.70581">
        <ele>10.205279</ele>
        <time>2020-10-06T11:16:41.807Z</time>
      </trkpt>
      <trkpt lat="59.42966" lon="24.70569">
        <ele>10.196783</ele>
        <time>2020-10-06T11:16:44.079Z</time>
      </trkpt>
      <trkpt lat="59.42957" lon="24.70526">
        <ele>10.17056</ele>
        <time>2020-10-06T11:16:50.925Z</time>
      </trkpt>
      <trkpt lat="59.42951" lon="24.70496">
        <ele>10.152349</ele>
        <time>2020-10-06T11:16:55.826Z</time>
      </trkpt>
      <trkpt lat="59.4294" lon="24.70444">
        <ele>10.120189</ele>
        <time>2020-10-06T11:17:04.444Z</time>
      </trkpt>
      <trkpt lat="59.42935" lon="24.70409">
        <ele>10.099693</ele>
        <time>2020-10-06T11:17:08.585Z</time>
      </trkpt>
      <trkpt lat="59.42933" lon="24.70325">
        <ele>10.038947</ele>
        <time>2020-10-06T11:17:18.017Z</time>
      </trkpt>
      <trkpt lat="59.42933" lon="24.70307">
        <ele>10.012026</ele>
        <time>2020-10-06T11:17:20.159Z</time>
      </trkpt>
      <trkpt lat="59.42934" lon="24.70261">
        <ele>9.94618</ele>
        <time>2020-10-06T11:17:25.028Z</time>
      </trkpt>
      <trkpt lat="59.42933" lon="24.7016">
        <ele>9.800392</ele>
        <time>2020-10-06T11:17:36.241Z</time>
      </trkpt>
      <trkpt lat="59.42939" lon="24.70136">
        <ele>9.760919</ele>
        <time>2020-10-06T11:17:39.343Z</time>
      </trkpt>
      <trkpt lat="59.42943" lon="24.70132">
        <ele>9.748412</ele>
        <time>2020-10-06T11:17:40.278Z</time>
      </trkpt>
      <trkpt lat="59.42943" lon="24.70114">
        <ele>9.722055</ele>
        <time>2020-10-06T11:17:42.404Z</time>
      </trkpt>
      <trkpt lat="59.4294" lon="24.70107">
        <ele>9.709402</ele>
        <time>2020-10-06T11:17:43.429Z</time>
      </trkpt>
      <trkpt lat="59.42936" lon="24.70095">
        <ele>9.687893</ele>
        <time>2020-10-06T11:17:44.969Z</time>
      </trkpt>
      <trkpt lat="59.42944" lon="24.69985">
        <ele>9.556582</ele>
        <time>2020-10-06T11:17:57.648Z</time>
      </trkpt>
      <trkpt lat="59.42946" lon="24.69951">
        <ele>9.573883</ele>
        <time>2020-10-06T11:18:01.571Z</time>
      </trkpt>
      <trkpt lat="59.42948" lon="24.69914">
        <ele>9.592555</ele>
        <time>2020-10-06T11:18:06.130Z</time>
      </trkpt>
      <trkpt lat="59.42953" lon="24.69851">
        <ele>9.62469</ele>
        <time>2020-10-06T11:18:13.636Z</time>
      </trkpt>
      <trkpt lat="59.4296" lon="24.69751">
        <ele>9.675561</ele>
        <time>2020-10-06T11:18:25.737Z</time>
      </trkpt>
      <trkpt lat="59.42964" lon="24.69695">
        <ele>9.703782</ele>
        <time>2020-10-06T11:18:32.866Z</time>
      </trkpt>
      <trkpt lat="59.42967" lon="24.69647">
        <ele>9.727311</ele>
        <time>2020-10-06T11:18:39.093Z</time>
      </trkpt>
      <trkpt lat="59.4297" lon="24.69588">
        <ele>9.738327</ele>
        <time>2020-10-06T11:18:46.541Z</time>
      </trkpt>
      <trkpt lat="59.42975" lon="24.6951">
        <ele>9.752892</ele>
        <time>2020-10-06T11:18:56.194Z</time>
      </trkpt>
      <trkpt lat="59.42979" lon="24.69437">
        <ele>9.766507</ele>
        <time>2020-10-06T11:19:05.086Z</time>
      </trkpt>
      <trkpt lat="59.42988" lon="24.69296">
        <ele>9.788073</ele>
        <time>2020-10-06T11:19:21.341Z</time>
      </trkpt>
      <trkpt lat="59.42989" lon="24.69278">
        <ele>9.744378</ele>
        <time>2020-10-06T11:19:23.404Z</time>
      </trkpt>
      <trkpt lat="59.42992" lon="24.69195">
        <ele>9.55399</ele>
        <time>2020-10-06T11:19:32.364Z</time>
      </trkpt>
      <trkpt lat="59.42993" lon="24.69132">
        <ele>9.407259</ele>
        <time>2020-10-06T11:19:39.334Z</time>
      </trkpt>
      <trkpt lat="59.42992" lon="24.69088">
        <ele>9.306678</ele>
        <time>2020-10-06T11:19:44.149Z</time>
      </trkpt>
      <trkpt lat="59.42993" lon="24.6902">
        <ele>9.148948</ele>
        <time>2020-10-06T11:19:51.729Z</time>
      </trkpt>
      <trkpt lat="59.42991" lon="24.68942">
        <ele>8.969101</ele>
        <time>2020-10-06T11:20:00.276Z</time>
      </trkpt>
      <trkpt lat="59.42988" lon="24.68863">
        <ele>8.764867</ele>
        <time>2020-10-06T11:20:08.955Z</time>
      </trkpt>
      <trkpt lat="59.42982" lon="24.68763">
        <ele>8.504699</ele>
        <time>2020-10-06T11:20:19.605Z</time>
      </trkpt>
      <trkpt lat="59.42968" lon="24.68593">
        <ele>8.06527</ele>
        <time>2020-10-06T11:20:38.653Z</time>
      </trkpt>
      <trkpt lat="59.42958" lon="24.68493">
        <ele>7.989173</ele>
        <time>2020-10-06T11:20:50.280Z</time>
      </trkpt>
      <trkpt lat="59.42954" lon="24.68459">
        <ele>7.962795</ele>
        <time>2020-10-06T11:20:54.401Z</time>
      </trkpt>
      <trkpt lat="59.42947" lon="24.68395">
        <ele>7.913993</ele>
        <time>2020-10-06T11:21:01.943Z</time>
      </trkpt>
      <trkpt lat="59.42913" lon="24.68089">
        <ele>7.81653</ele>
        <time>2020-10-06T11:21:39.019Z</time>
      </trkpt>
      <trkpt lat="59.42902" lon="24.67996">
        <ele>7.825245</ele>
        <time>2020-10-06T11:21:50.252Z</time>
      </trkpt>
      <trkpt lat="59.429" lon="24.6798">
        <ele>7.826786</ele>
        <time>2020-10-06T11:21:52.216Z</time>
      </trkpt>
      <trkpt lat="59.42897" lon="24.67957">
        <ele>7.828962</ele>
        <time>2020-10-06T11:21:55.129Z</time>
      </trkpt>
      <trkpt lat="59.42894" lon="24.67935">
        <ele>7.830995</ele>
        <time>2020-10-06T11:21:57.716Z</time>
      </trkpt>
      <trkpt lat="59.42891" lon="24.6791">
        <ele>7.833391</ele>
        <time>2020-10-06T11:22:00.770Z</time>
      </trkpt>
      <trkpt lat="59.42886" lon="24.6788">
        <ele>7.847608</ele>
        <time>2020-10-06T11:22:04.578Z</time>
      </trkpt>
      <trkpt lat="59.4287" lon="24.67767">
        <ele>7.911276</ele>
        <time>2020-10-06T11:22:18.461Z</time>
      </trkpt>
      <trkpt lat="59.42867" lon="24.67744">
        <ele>7.923703</ele>
        <time>2020-10-06T11:22:21.292Z</time>
      </trkpt>
      <trkpt lat="59.42849" lon="24.67597">
        <ele>8.005779</ele>
        <time>2020-10-06T11:22:39.904Z</time>
      </trkpt>
      <trkpt lat="59.42836" lon="24.67482">
        <ele>8.070027</ele>
        <time>2020-10-06T11:22:54.029Z</time>
      </trkpt>
      <trkpt lat="59.42831" lon="24.67433">
        <ele>8.098196</ele>
        <time>2020-10-06T11:23:00.153Z</time>
      </trkpt>
      <trkpt lat="59.42828" lon="24.67358">
        <ele>8.139491</ele>
        <time>2020-10-06T11:23:08.979Z</time>
      </trkpt>
      <trkpt lat="59.42824" lon="24.67314">
        <ele>8.164319</ele>
        <time>2020-10-06T11:23:14.305Z</time>
      </trkpt>
      <trkpt lat="59.42814" lon="24.67242">
        <ele>8.205776</ele>
        <time>2020-10-06T11:23:23.253Z</time>
      </trkpt>
      <trkpt lat="59.42805" lon="24.67087">
        <ele>8.316659</ele>
        <time>2020-10-06T11:23:42.257Z</time>
      </trkpt>
      <trkpt lat="59.42805" lon="24.67078">
        <ele>8.323627</ele>
        <time>2020-10-06T11:23:43.303Z</time>
      </trkpt>
      <trkpt lat="59.42802" lon="24.67045">
        <ele>8.348124</ele>
        <time>2020-10-06T11:23:47.393Z</time>
      </trkpt>
      <trkpt lat="59.4278" lon="24.66754">
        <ele>8.610734</ele>
        <time>2020-10-06T11:24:23.300Z</time>
      </trkpt>
      <trkpt lat="59.42768" lon="24.66606">
        <ele>8.780435</ele>
        <time>2020-10-06T11:24:41.422Z</time>
      </trkpt>
      <trkpt lat="59.42764" lon="24.66578">
        <ele>8.812893</ele>
        <time>2020-10-06T11:24:44.858Z</time>
      </trkpt>
      <trkpt lat="59.42752" lon="24.66487">
        <ele>9.021907</ele>
        <time>2020-10-06T11:24:56.606Z</time>
      </trkpt>
      <trkpt lat="59.42744" lon="24.66413">
        <ele>9.354919</ele>
        <time>2020-10-06T11:25:06.448Z</time>
      </trkpt>
      <trkpt lat="59.42742" lon="24.66393">
        <ele>9.440558</ele>
        <time>2020-10-06T11:25:08.893Z</time>
      </trkpt>
      <trkpt lat="59.42741" lon="24.66363">
        <ele>9.573247</ele>
        <time>2020-10-06T11:25:13.170Z</time>
      </trkpt>
      <trkpt lat="59.42744" lon="24.66335">
        <ele>9.698978</ele>
        <time>2020-10-06T11:25:17.019Z</time>
      </trkpt>
      <trkpt lat="59.42742" lon="24.66334">
        <ele>9.722574</ele>
        <time>2020-10-06T11:25:17.664Z</time>
      </trkpt>
      <trkpt lat="59.4274" lon="24.66333">
        <ele>9.739769</ele>
        <time>2020-10-06T11:25:18.200Z</time>
      </trkpt>
      <trkpt lat="59.42733" lon="24.66296">
        <ele>9.914611</ele>
        <time>2020-10-06T11:25:23.763Z</time>
      </trkpt>
      <trkpt lat="59.42733" lon="24.66289">
        <ele>9.947087</ele>
        <time>2020-10-06T11:25:24.693Z</time>
      </trkpt>
      <trkpt lat="59.42733" lon="24.66282">
        <ele>9.975148</ele>
        <time>2020-10-06T11:25:25.884Z</time>
      </trkpt>
      <trkpt lat="59.4271" lon="24.66132">
        <ele>10.71943</ele>
        <time>2020-10-06T11:25:48.251Z</time>
      </trkpt>
      <trkpt lat="59.42708" lon="24.66123">
        <ele>10.767878</ele>
        <time>2020-10-06T11:25:49.758Z</time>
      </trkpt>
      <trkpt lat="59.42707" lon="24.66114">
        <ele>10.817629</ele>
        <time>2020-10-06T11:25:51.211Z</time>
      </trkpt>
      <trkpt lat="59.42702" lon="24.66071">
        <ele>11.062069</ele>
        <time>2020-10-06T11:25:57.560Z</time>
      </trkpt>
      <trkpt lat="59.42702" lon="24.66016">
        <ele>11.359553</ele>
        <time>2020-10-06T11:26:05.529Z</time>
      </trkpt>
      <trkpt lat="59.42692" lon="24.65979">
        <ele>11.587256</ele>
        <time>2020-10-06T11:26:11.854Z</time>
      </trkpt>
      <trkpt lat="59.42691" lon="24.65967">
        <ele>11.654442</ele>
        <time>2020-10-06T11:26:13.695Z</time>
      </trkpt>
      <trkpt lat="59.42689" lon="24.65957">
        <ele>11.711583</ele>
        <time>2020-10-06T11:26:15.077Z</time>
      </trkpt>
      <trkpt lat="59.42687" lon="24.65947">
        <ele>11.770636</ele>
        <time>2020-10-06T11:26:16.400Z</time>
      </trkpt>
      <trkpt lat="59.42675" lon="24.65942">
        <ele>11.906699</ele>
        <time>2020-10-06T11:26:19.748Z</time>
      </trkpt>
      <trkpt lat="59.42656" lon="24.6586">
        <ele>12.369815</ele>
        <time>2020-10-06T11:26:31.852Z</time>
      </trkpt>
      <trkpt lat="59.42652" lon="24.65842">
        <ele>12.386428</ele>
        <time>2020-10-06T11:26:34.358Z</time>
      </trkpt>
      <trkpt lat="59.42641" lon="24.65791">
        <ele>12.43426</ele>
        <time>2020-10-06T11:26:40.981Z</time>
      </trkpt>
      <trkpt lat="59.42615" lon="24.65669">
        <ele>12.547655</ele>
        <time>2020-10-06T11:26:56.743Z</time>
      </trkpt>
      <trkpt lat="59.42613" lon="24.65669">
        <ele>12.551872</ele>
        <time>2020-10-06T11:26:57.211Z</time>
      </trkpt>
      <trkpt lat="59.42611" lon="24.65666">
        <ele>12.556022</ele>
        <time>2020-10-06T11:26:57.743Z</time>
      </trkpt>
      <trkpt lat="59.42609" lon="24.65658">
        <ele>12.563526</ele>
        <time>2020-10-06T11:26:58.768Z</time>
      </trkpt>
      <trkpt lat="59.42608" lon="24.65652">
        <ele>12.569188</ele>
        <time>2020-10-06T11:26:59.506Z</time>
      </trkpt>
      <trkpt lat="59.42607" lon="24.65646">
        <ele>12.57482</ele>
        <time>2020-10-06T11:27:00.242Z</time>
      </trkpt>
      <trkpt lat="59.42606" lon="24.65642">
        <ele>12.578507</ele>
        <time>2020-10-06T11:27:00.742Z</time>
      </trkpt>
      <trkpt lat="59.42604" lon="24.65636">
        <ele>12.584091</ele>
        <time>2020-10-06T11:27:01.485Z</time>
      </trkpt>
      <trkpt lat="59.42603" lon="24.65629">
        <ele>12.590208</ele>
        <time>2020-10-06T11:27:02.287Z</time>
      </trkpt>
      <trkpt lat="59.426" lon="24.65618">
        <ele>12.60053</ele>
        <time>2020-10-06T11:27:03.685Z</time>
      </trkpt>
      <trkpt lat="59.426" lon="24.65616">
        <ele>12.602853</ele>
        <time>2020-10-06T11:27:03.973Z</time>
      </trkpt>
      <trkpt lat="59.42601" lon="24.6561">
        <ele>12.607716</ele>
        <time>2020-10-06T11:27:04.611Z</time>
      </trkpt>
      <trkpt lat="59.42601" lon="24.65606">
        <ele>12.611166</ele>
        <time>2020-10-06T11:27:04.972Z</time>
      </trkpt>
      <trkpt lat="59.42555" lon="24.65381">
        <ele>13.32385</ele>
        <time>2020-10-06T11:27:34.034Z</time>
      </trkpt>
      <trkpt lat="59.42499" lon="24.65143">
        <ele>14.390449</ele>
        <time>2020-10-06T11:28:10.174Z</time>
      </trkpt>
      <trkpt lat="59.42468" lon="24.6501">
        <ele>15.096212</ele>
        <time>2020-10-06T11:28:30.490Z</time>
      </trkpt>
      <trkpt lat="59.42464" lon="24.64992">
        <ele>15.18906</ele>
        <time>2020-10-06T11:28:33.026Z</time>
      </trkpt>
      <trkpt lat="59.42452" lon="24.64962">
        <ele>15.370291</ele>
        <time>2020-10-06T11:28:37.852Z</time>
      </trkpt>
      <trkpt lat="59.42451" lon="24.64955">
        <ele>15.404403</ele>
        <time>2020-10-06T11:28:38.799Z</time>
      </trkpt>
      <trkpt lat="59.4245" lon="24.64952">
        <ele>15.424138</ele>
        <time>2020-10-06T11:28:39.349Z</time>
      </trkpt>
      <trkpt lat="59.42448" lon="24.64947">
        <ele>15.455568</ele>
        <time>2020-10-06T11:28:40.186Z</time>
      </trkpt>
      <trkpt lat="59.42445" lon="24.64943">
        <ele>15.486651</ele>
        <time>2020-10-06T11:28:41.013Z</time>
      </trkpt>
      <trkpt lat="59.42443" lon="24.64935">
        <ele>15.52618</ele>
        <time>2020-10-06T11:28:42.073Z</time>
      </trkpt>
      <trkpt lat="59.42443" lon="24.64932">
        <ele>15.545944</ele>
        <time>2020-10-06T11:28:42.555Z</time>
      </trkpt>
      <trkpt lat="59.42442" lon="24.64927">
        <ele>15.569168</ele>
        <time>2020-10-06T11:28:43.120Z</time>
      </trkpt>
      <trkpt lat="59.42441" lon="24.64923">
        <ele>15.589554</ele>
        <time>2020-10-06T11:28:43.620Z</time>
      </trkpt>
      <trkpt lat="59.42436" lon="24.64889">
        <ele>15.651036</ele>
        <time>2020-10-06T11:28:48.039Z</time>
      </trkpt>
      <trkpt lat="59.42417" lon="24.64811">
        <ele>15.499838</ele>
        <time>2020-10-06T11:28:57.649Z</time>
      </trkpt>
      <trkpt lat="59.42408" lon="24.64778">
        <ele>15.433949</ele>
        <time>2020-10-06T11:29:01.574Z</time>
      </trkpt>
      <trkpt lat="59.42407" lon="24.64772">
        <ele>15.423228</ele>
        <time>2020-10-06T11:29:02.218Z</time>
      </trkpt>
      <trkpt lat="59.42405" lon="24.64764">
        <ele>15.406715</ele>
        <time>2020-10-06T11:29:03.227Z</time>
      </trkpt>
      <trkpt lat="59.42404" lon="24.64757">
        <ele>15.392661</ele>
        <time>2020-10-06T11:29:04.066Z</time>
      </trkpt>
      <trkpt lat="59.424" lon="24.64743">
        <ele>15.365609</ele>
        <time>2020-10-06T11:29:05.715Z</time>
      </trkpt>
      <trkpt lat="59.42396" lon="24.64722">
        <ele>15.325732</ele>
        <time>2020-10-06T11:29:07.961Z</time>
      </trkpt>
      <trkpt lat="59.42392" lon="24.64662">
        <ele>15.218693</ele>
        <time>2020-10-06T11:29:14.201Z</time>
      </trkpt>
      <trkpt lat="59.42388" lon="24.64606">
        <ele>15.119098</ele>
        <time>2020-10-06T11:29:19.967Z</time>
      </trkpt>
      <trkpt lat="59.42385" lon="24.64551">
        <ele>15.026306</ele>
        <time>2020-10-06T11:29:25.536Z</time>
      </trkpt>
      <trkpt lat="59.42384" lon="24.64533">
        <ele>14.999797</ele>
        <time>2020-10-06T11:29:27.386Z</time>
      </trkpt>
      <trkpt lat="59.42395" lon="24.64454">
        <ele>14.873995</ele>
        <time>2020-10-06T11:29:35.818Z</time>
      </trkpt>
      <trkpt lat="59.42396" lon="24.64447">
        <ele>14.863122</ele>
        <time>2020-10-06T11:29:36.513Z</time>
      </trkpt>
      <trkpt lat="59.42398" lon="24.64438">
        <ele>14.847497</ele>
        <time>2020-10-06T11:29:37.555Z</time>
      </trkpt>
      <trkpt lat="59.42417" lon="24.64335">
        <ele>14.680751</ele>
        <time>2020-10-06T11:29:49.677Z</time>
      </trkpt>
      <trkpt lat="59.42445" lon="24.64185">
        <ele>14.549732</ele>
        <time>2020-10-06T11:30:07.985Z</time>
      </trkpt>
      <trkpt lat="59.42446" lon="24.6417">
        <ele>14.559383</ele>
        <time>2020-10-06T11:30:09.498Z</time>
      </trkpt>
      <trkpt lat="59.42446" lon="24.64167">
        <ele>14.56206</ele>
        <time>2020-10-06T11:30:10.122Z</time>
      </trkpt>
      <trkpt lat="59.42445" lon="24.64162">
        <ele>14.56492</ele>
        <time>2020-10-06T11:30:10.644Z</time>
      </trkpt>
      <trkpt lat="59.42446" lon="24.64156">
        <ele>14.569176</ele>
        <time>2020-10-06T11:30:11.362Z</time>
      </trkpt>
      <trkpt lat="59.42448" lon="24.64146">
        <ele>14.575574</ele>
        <time>2020-10-06T11:30:12.487Z</time>
      </trkpt>
      <trkpt lat="59.42449" lon="24.64138">
        <ele>14.58142</ele>
        <time>2020-10-06T11:30:13.558Z</time>
      </trkpt>
      <trkpt lat="59.4245" lon="24.64132">
        <ele>14.585533</ele>
        <time>2020-10-06T11:30:14.332Z</time>
      </trkpt>
      <trkpt lat="59.42452" lon="24.64129">
        <ele>14.588454</ele>
        <time>2020-10-06T11:30:14.920Z</time>
      </trkpt>
      <trkpt lat="59.42454" lon="24.64126">
        <ele>14.591799</ele>
        <time>2020-10-06T11:30:15.574Z</time>
      </trkpt>
      <trkpt lat="59.42456" lon="24.64124">
        <ele>14.594639</ele>
        <time>2020-10-06T11:30:16.090Z</time>
      </trkpt>
      <trkpt lat="59.42457" lon="24.64121">
        <ele>14.596894</ele>
        <time>2020-10-06T11:30:16.491Z</time>
      </trkpt>
      <trkpt lat="59.42458" lon="24.64109">
        <ele>14.604768</ele>
        <time>2020-10-06T11:30:17.686Z</time>
      </trkpt>
      <trkpt lat="59.42468" lon="24.64051">
        <ele>14.644398</ele>
        <time>2020-10-06T11:30:25.057Z</time>
      </trkpt>
      <trkpt lat="59.42471" lon="24.64039">
        <ele>14.653154</ele>
        <time>2020-10-06T11:30:26.523Z</time>
      </trkpt>
      <trkpt lat="59.42487" lon="24.63951">
        <ele>14.713692</ele>
        <time>2020-10-06T11:30:37.496Z</time>
      </trkpt>
      <trkpt lat="59.42495" lon="24.63908">
        <ele>14.743484</ele>
        <time>2020-10-06T11:30:42.952Z</time>
      </trkpt>
      <trkpt lat="59.42503" lon="24.63863">
        <ele>14.796111</ele>
        <time>2020-10-06T11:30:48.812Z</time>
      </trkpt>
      <trkpt lat="59.42508" lon="24.63839">
        <ele>14.825393</ele>
        <time>2020-10-06T11:30:51.532Z</time>
      </trkpt>
      <trkpt lat="59.42529" lon="24.63757">
        <ele>14.927309</ele>
        <time>2020-10-06T11:31:01.833Z</time>
      </trkpt>
      <trkpt lat="59.42527" lon="24.63739">
        <ele>14.948223</ele>
        <time>2020-10-06T11:31:04.205Z</time>
      </trkpt>
      <trkpt lat="59.42524" lon="24.63731">
        <ele>14.958772</ele>
        <time>2020-10-06T11:31:05.279Z</time>
      </trkpt>
      <trkpt lat="59.42523" lon="24.63727">
        <ele>14.964584</ele>
        <time>2020-10-06T11:31:05.860Z</time>
      </trkpt>
      <trkpt lat="59.42526" lon="24.63714">
        <ele>14.980717</ele>
        <time>2020-10-06T11:31:07.517Z</time>
      </trkpt>
      <trkpt lat="59.42529" lon="24.63706">
        <ele>14.991541</ele>
        <time>2020-10-06T11:31:08.649Z</time>
      </trkpt>
      <trkpt lat="59.4253" lon="24.63698">
        <ele>15.001376</ele>
        <time>2020-10-06T11:31:09.658Z</time>
      </trkpt>
      <trkpt lat="59.42532" lon="24.63692">
        <ele>15.008634</ele>
        <time>2020-10-06T11:31:10.391Z</time>
      </trkpt>
      <trkpt lat="59.42534" lon="24.63689">
        <ele>15.014179</ele>
        <time>2020-10-06T11:31:10.986Z</time>
      </trkpt>
      <trkpt lat="59.42536" lon="24.63685">
        <ele>15.020415</ele>
        <time>2020-10-06T11:31:11.823Z</time>
      </trkpt>
      <trkpt lat="59.4257" lon="24.63565">
        <ele>15.17458</ele>
        <time>2020-10-06T11:31:28.634Z</time>
      </trkpt>
      <trkpt lat="59.42572" lon="24.63558">
        <ele>15.182954</ele>
        <time>2020-10-06T11:31:29.726Z</time>
      </trkpt>
      <trkpt lat="59.42574" lon="24.6355">
        <ele>15.191925</ele>
        <time>2020-10-06T11:31:30.705Z</time>
      </trkpt>
      <trkpt lat="59.42672" lon="24.63203">
        <ele>15.538459</ele>
        <time>2020-10-06T11:32:17.131Z</time>
      </trkpt>
      <trkpt lat="59.42678" lon="24.63185">
        <ele>15.540925</ele>
        <time>2020-10-06T11:32:19.763Z</time>
      </trkpt>
      <trkpt lat="59.42678" lon="24.63174">
        <ele>15.542065</ele>
        <time>2020-10-06T11:32:20.844Z</time>
      </trkpt>
      <trkpt lat="59.42676" lon="24.6317">
        <ele>15.542628</ele>
        <time>2020-10-06T11:32:21.331Z</time>
      </trkpt>
      <trkpt lat="59.42675" lon="24.63165">
        <ele>15.543189</ele>
        <time>2020-10-06T11:32:21.864Z</time>
      </trkpt>
      <trkpt lat="59.42676" lon="24.63162">
        <ele>15.543612</ele>
        <time>2020-10-06T11:32:22.257Z</time>
      </trkpt>
      <trkpt lat="59.42678" lon="24.63156">
        <ele>15.544447</ele>
        <time>2020-10-06T11:32:23.117Z</time>
      </trkpt>
      <trkpt lat="59.42681" lon="24.63148">
        <ele>15.54552</ele>
        <time>2020-10-06T11:32:24.217Z</time>
      </trkpt>
      <trkpt lat="59.42684" lon="24.63137">
        <ele>15.546884</ele>
        <time>2020-10-06T11:32:25.640Z</time>
      </trkpt>
      <trkpt lat="59.42702" lon="24.63117">
        <ele>15.551303</ele>
        <time>2020-10-06T11:32:29.990Z</time>
      </trkpt>
      <trkpt lat="59.42719" lon="24.63075">
        <ele>15.557362</ele>
        <time>2020-10-06T11:32:36.294Z</time>
      </trkpt>
      <trkpt lat="59.42725" lon="24.63061">
        <ele>15.559265</ele>
        <time>2020-10-06T11:32:38.074Z</time>
      </trkpt>
      <trkpt lat="59.4274" lon="24.63024">
        <ele>15.56454</ele>
        <time>2020-10-06T11:32:43.719Z</time>
      </trkpt>
      <trkpt lat="59.42765" lon="24.62963">
        <ele>15.593716</ele>
        <time>2020-10-06T11:32:52.691Z</time>
      </trkpt>
      <trkpt lat="59.42783" lon="24.62916">
        <ele>15.625044</ele>
        <time>2020-10-06T11:32:59.465Z</time>
      </trkpt>
      <trkpt lat="59.42805" lon="24.62861">
        <ele>15.661285</ele>
        <time>2020-10-06T11:33:07.462Z</time>
      </trkpt>
      <trkpt lat="59.42822" lon="24.62818">
        <ele>15.690402</ele>
        <time>2020-10-06T11:33:13.823Z</time>
      </trkpt>
      <trkpt lat="59.42843" lon="24.62769">
        <ele>15.723746</ele>
        <time>2020-10-06T11:33:21.190Z</time>
      </trkpt>
      <trkpt lat="59.42859" lon="24.62728">
        <ele>15.751144</ele>
        <time>2020-10-06T11:33:27.255Z</time>
      </trkpt>
      <trkpt lat="59.42908" lon="24.62612">
        <ele>15.890777</ele>
        <time>2020-10-06T11:33:44.963Z</time>
      </trkpt>
      <trkpt lat="59.42934" lon="24.62549">
        <ele>15.967127</ele>
        <time>2020-10-06T11:33:54.541Z</time>
      </trkpt>
      <trkpt lat="59.42959" lon="24.62492">
        <ele>16.038659</ele>
        <time>2020-10-06T11:34:03.404Z</time>
      </trkpt>
      <trkpt lat="59.42972" lon="24.62466">
        <ele>16.072827</ele>
        <time>2020-10-06T11:34:07.614Z</time>
      </trkpt>
      <trkpt lat="59.42999" lon="24.62423">
        <ele>16.105615</ele>
        <time>2020-10-06T11:34:15.616Z</time>
      </trkpt>
      <trkpt lat="59.43009" lon="24.62409">
        <ele>16.114059</ele>
        <time>2020-10-06T11:34:18.413Z</time>
      </trkpt>
      <trkpt lat="59.43056" lon="24.62344">
        <ele>16.155237</ele>
        <time>2020-10-06T11:34:31.506Z</time>
      </trkpt>
      <trkpt lat="59.43073" lon="24.62325">
        <ele>16.168455</ele>
        <time>2020-10-06T11:34:35.620Z</time>
      </trkpt>
      <trkpt lat="59.43095" lon="24.623">
        <ele>16.186741</ele>
        <time>2020-10-06T11:34:41.601Z</time>
      </trkpt>
      <trkpt lat="59.43117" lon="24.62275">
        <ele>16.204242</ele>
        <time>2020-10-06T11:34:47.017Z</time>
      </trkpt>
      <trkpt lat="59.43157" lon="24.62225">
        <ele>16.292365</ele>
        <time>2020-10-06T11:34:57.639Z</time>
      </trkpt>
      <trkpt lat="59.43161" lon="24.6222">
        <ele>16.304172</ele>
        <time>2020-10-06T11:34:58.661Z</time>
      </trkpt>
      <trkpt lat="59.43206" lon="24.62167">
        <ele>16.422308</ele>
        <time>2020-10-06T11:35:10.585Z</time>
      </trkpt>
      <trkpt lat="59.43266" lon="24.62095">
        <ele>16.583278</ele>
        <time>2020-10-06T11:35:26.974Z</time>
      </trkpt>
      <trkpt lat="59.43312" lon="24.62039">
        <ele>16.83708</ele>
        <time>2020-10-06T11:35:40.492Z</time>
      </trkpt>
      <trkpt lat="59.43402" lon="24.61969">
        <ele>17.399677</ele>
        <time>2020-10-06T11:36:05.185Z</time>
      </trkpt>
      <trkpt lat="59.43445" lon="24.61926">
        <ele>17.66876</ele>
        <time>2020-10-06T11:36:16.686Z</time>
      </trkpt>
      <trkpt lat="59.43462" lon="24.61883">
        <ele>17.626493</ele>
        <time>2020-10-06T11:36:23.188Z</time>
      </trkpt>
      <trkpt lat="59.43472" lon="24.61851">
        <ele>17.596892</ele>
        <time>2020-10-06T11:36:27.311Z</time>
      </trkpt>
      <trkpt lat="59.43512" lon="24.61701">
        <ele>17.467096</ele>
        <time>2020-10-06T11:36:45.827Z</time>
      </trkpt>
      <trkpt lat="59.43534" lon="24.61593">
        <ele>17.381867</ele>
        <time>2020-10-06T11:36:57.968Z</time>
      </trkpt>
      <trkpt lat="59.43547" lon="24.61432">
        <ele>17.283707</ele>
        <time>2020-10-06T11:37:15.957Z</time>
      </trkpt>
      <trkpt lat="59.43555" lon="24.61374">
        <ele>17.247482</ele>
        <time>2020-10-06T11:37:22.877Z</time>
      </trkpt>
      <trkpt lat="59.43572" lon="24.61262">
        <ele>17.164511</ele>
        <time>2020-10-06T11:37:36.389Z</time>
      </trkpt>
      <trkpt lat="59.43581" lon="24.61229">
        <ele>17.109673</ele>
        <time>2020-10-06T11:37:40.675Z</time>
      </trkpt>
      <trkpt lat="59.43576" lon="24.61224">
        <ele>17.092332</ele>
        <time>2020-10-06T11:37:44.889Z</time>
      </trkpt>
      <trkpt lat="59.43581" lon="24.61229">
        <ele>17.074992</ele>
        <time>2020-10-06T11:37:49.101Z</time>
      </trkpt>
      <trkpt lat="59.43599" lon="24.61179">
        <ele>16.986862</ele>
        <time>2020-10-06T11:37:55.804Z</time>
      </trkpt>
      <trkpt lat="59.43631" lon="24.61099">
        <ele>16.838326</ele>
        <time>2020-10-06T11:38:07.144Z</time>
      </trkpt>
      <trkpt lat="59.4364" lon="24.6107">
        <ele>16.788664</ele>
        <time>2020-10-06T11:38:10.621Z</time>
      </trkpt>
      <trkpt lat="59.43666" lon="24.60976">
        <ele>16.593317</ele>
        <time>2020-10-06T11:38:21.426Z</time>
      </trkpt>
      <trkpt lat="59.43668" lon="24.60932">
        <ele>16.459208</ele>
        <time>2020-10-06T11:38:25.894Z</time>
      </trkpt>
      <trkpt lat="59.43653" lon="24.60812">
        <ele>16.084505</ele>
        <time>2020-10-06T11:38:38.526Z</time>
      </trkpt>
      <trkpt lat="59.43645" lon="24.60778">
        <ele>15.971082</ele>
        <time>2020-10-06T11:38:42.286Z</time>
      </trkpt>
      <trkpt lat="59.43641" lon="24.60755">
        <ele>15.900639</ele>
        <time>2020-10-06T11:38:44.935Z</time>
      </trkpt>
      <trkpt lat="59.4364" lon="24.60689">
        <ele>15.700317</ele>
        <time>2020-10-06T11:38:52.052Z</time>
      </trkpt>
      <trkpt lat="59.43659" lon="24.60575">
        <ele>15.251506</ele>
        <time>2020-10-06T11:39:04.701Z</time>
      </trkpt>
      <trkpt lat="59.43664" lon="24.60538">
        <ele>15.098756</ele>
        <time>2020-10-06T11:39:08.780Z</time>
      </trkpt>
      <trkpt lat="59.43665" lon="24.60526">
        <ele>15.049706</ele>
        <time>2020-10-06T11:39:10.049Z</time>
      </trkpt>
      <trkpt lat="59.4366" lon="24.60454">
        <ele>14.7582</ele>
        <time>2020-10-06T11:39:17.628Z</time>
      </trkpt>
      <trkpt lat="59.43641" lon="24.60375">
        <ele>14.412536</ele>
        <time>2020-10-06T11:39:26.027Z</time>
      </trkpt>
      <trkpt lat="59.43625" lon="24.60311">
        <ele>14.080294</ele>
        <time>2020-10-06T11:39:32.968Z</time>
      </trkpt>
      <trkpt lat="59.43603" lon="24.60183">
        <ele>13.161728</ele>
        <time>2020-10-06T11:39:45.775Z</time>
      </trkpt>
      <trkpt lat="59.43599" lon="24.60149">
        <ele>12.923275</ele>
        <time>2020-10-06T11:39:48.958Z</time>
      </trkpt>
      <trkpt lat="59.43594" lon="24.60144">
        <ele>12.8462</ele>
        <time>2020-10-06T11:39:50.073Z</time>
      </trkpt>
      <trkpt lat="59.4359" lon="24.60115">
        <ele>12.64104</ele>
        <time>2020-10-06T11:39:52.958Z</time>
      </trkpt>
      <trkpt lat="59.43565" lon="24.59995">
        <ele>11.763279</ele>
        <time>2020-10-06T11:40:05.178Z</time>
      </trkpt>
      <trkpt lat="59.43545" lon="24.5993">
        <ele>11.416411</ele>
        <time>2020-10-06T11:40:12.562Z</time>
      </trkpt>
      <trkpt lat="59.43535" lon="24.59901">
        <ele>11.252446</ele>
        <time>2020-10-06T11:40:15.905Z</time>
      </trkpt>
      <trkpt lat="59.43525" lon="24.5988">
        <ele>11.124802</ele>
        <time>2020-10-06T11:40:18.732Z</time>
      </trkpt>
      <trkpt lat="59.43512" lon="24.5986">
        <ele>10.977524</ele>
        <time>2020-10-06T11:40:22.162Z</time>
      </trkpt>
      <trkpt lat="59.43474" lon="24.59814">
        <ele>10.579814</ele>
        <time>2020-10-06T11:40:31.238Z</time>
      </trkpt>
      <trkpt lat="59.43463" lon="24.59798">
        <ele>10.457743</ele>
        <time>2020-10-06T11:40:33.987Z</time>
      </trkpt>
      <trkpt lat="59.43448" lon="24.59771">
        <ele>10.271189</ele>
        <time>2020-10-06T11:40:38.202Z</time>
      </trkpt>
      <trkpt lat="59.43431" lon="24.59732">
        <ele>10.044649</ele>
        <time>2020-10-06T11:40:43.332Z</time>
      </trkpt>
      <trkpt lat="59.43419" lon="24.59684">
        <ele>9.808515</ele>
        <time>2020-10-06T11:40:48.681Z</time>
      </trkpt>
      <trkpt lat="59.43402" lon="24.59574">
        <ele>9.308352</ele>
        <time>2020-10-06T11:40:59.714Z</time>
      </trkpt>
      <trkpt lat="59.43387" lon="24.59471">
        <ele>8.838907</ele>
        <time>2020-10-06T11:41:10.543Z</time>
      </trkpt>
      <trkpt lat="59.43379" lon="24.59439">
        <ele>8.683384</ele>
        <time>2020-10-06T11:41:14.339Z</time>
      </trkpt>
      <trkpt lat="59.43366" lon="24.59413">
        <ele>8.55562</ele>
        <time>2020-10-06T11:41:17.992Z</time>
      </trkpt>
      <trkpt lat="59.43355" lon="24.594">
        <ele>8.481825</ele>
        <time>2020-10-06T11:41:20.758Z</time>
      </trkpt>
      <trkpt lat="59.43311" lon="24.59349">
        <ele>8.197206</ele>
        <time>2020-10-06T11:41:30.867Z</time>
      </trkpt>
      <trkpt lat="59.43303" lon="24.59375">
        <ele>8.110619</ele>
        <time>2020-10-06T11:41:34.287Z</time>
      </trkpt>
      <trkpt lat="59.43294" lon="24.59385">
        <ele>8.053214</ele>
        <time>2020-10-06T11:41:36.407Z</time>
      </trkpt>
      <trkpt lat="59.43283" lon="24.59385">
        <ele>7.988495</ele>
        <time>2020-10-06T11:41:38.527Z</time>
      </trkpt>
      <trkpt lat="59.43277" lon="24.5938">
        <ele>7.954917</ele>
        <time>2020-10-06T11:41:39.946Z</time>
      </trkpt>
      <trkpt lat="59.4327" lon="24.59373">
        <ele>7.911369</ele>
        <time>2020-10-06T11:41:41.592Z</time>
      </trkpt>
      <trkpt lat="59.43257" lon="24.59361">
        <ele>7.830068</ele>
        <time>2020-10-06T11:41:44.629Z</time>
      </trkpt>
      <trkpt lat="59.43258" lon="24.59348">
        <ele>7.792888</ele>
        <time>2020-10-06T11:41:45.755Z</time>
      </trkpt>
      <trkpt lat="59.43256" lon="24.59321">
        <ele>7.716158</ele>
        <time>2020-10-06T11:41:48.827Z</time>
      </trkpt>
      <trkpt lat="59.4326" lon="24.59292">
        <ele>7.628535</ele>
        <time>2020-10-06T11:41:52.147Z</time>
      </trkpt>
      <trkpt lat="59.43282" lon="24.59258">
        <ele>7.480323</ele>
        <time>2020-10-06T11:41:57.822Z</time>
      </trkpt>
      <trkpt lat="59.43322" lon="24.59092">
        <ele>6.990655</ele>
        <time>2020-10-06T11:42:16.976Z</time>
      </trkpt>
      <trkpt lat="59.43325" lon="24.59">
        <ele>6.74423</ele>
        <time>2020-10-06T11:42:26.502Z</time>
      </trkpt>
      <trkpt lat="59.43332" lon="24.5898">
        <ele>6.681462</ele>
        <time>2020-10-06T11:42:28.968Z</time>
      </trkpt>
      <trkpt lat="59.43365" lon="24.58928">
        <ele>6.637099</ele>
        <time>2020-10-06T11:42:37.850Z</time>
      </trkpt>
      <trkpt lat="59.43375" lon="24.58886">
        <ele>6.623466</ele>
        <time>2020-10-06T11:42:42.886Z</time>
      </trkpt>
      <trkpt lat="59.43431" lon="24.5867">
        <ele>6.566028</ele>
        <time>2020-10-06T11:43:10.710Z</time>
      </trkpt>
      <trkpt lat="59.43468" lon="24.58531">
        <ele>6.735867</ele>
        <time>2020-10-06T11:43:29.757Z</time>
      </trkpt>
      <trkpt lat="59.43489" lon="24.58468">
        <ele>6.818219</ele>
        <time>2020-10-06T11:43:38.801Z</time>
      </trkpt>
      <trkpt lat="59.43499" lon="24.58428">
        <ele>6.867371</ele>
        <time>2020-10-06T11:43:44.080Z</time>
      </trkpt>
      <trkpt lat="59.43515" lon="24.58365">
        <ele>6.936013</ele>
        <time>2020-10-06T11:43:52.117Z</time>
      </trkpt>
      <trkpt lat="59.43517" lon="24.58342">
        <ele>6.906747</ele>
        <time>2020-10-06T11:43:54.907Z</time>
      </trkpt>
      <trkpt lat="59.43525" lon="24.58311">
        <ele>6.864478</ele>
        <time>2020-10-06T11:43:58.718Z</time>
      </trkpt>
      <trkpt lat="59.43563" lon="24.58161">
        <ele>6.658402</ele>
        <time>2020-10-06T11:44:17.239Z</time>
      </trkpt>
      <trkpt lat="59.43606" lon="24.57985">
        <ele>6.299599</ele>
        <time>2020-10-06T11:44:37.544Z</time>
      </trkpt>
      <trkpt lat="59.43659" lon="24.57753">
        <ele>5.552363</ele>
        <time>2020-10-06T11:45:03.814Z</time>
      </trkpt>
      <trkpt lat="59.43675" lon="24.57638">
        <ele>5.416005</ele>
        <time>2020-10-06T11:45:16.250Z</time>
      </trkpt>
      <trkpt lat="59.43685" lon="24.57463">
        <ele>5.317705</ele>
        <time>2020-10-06T11:45:36.053Z</time>
      </trkpt>
      <trkpt lat="59.43685" lon="24.57432">
        <ele>5.300204</ele>
        <time>2020-10-06T11:45:39.593Z</time>
      </trkpt>
      <trkpt lat="59.43685" lon="24.57419">
        <ele>5.292826</ele>
        <time>2020-10-06T11:45:41.248Z</time>
      </trkpt>
      <trkpt lat="59.43671" lon="24.57334">
        <ele>5.388487</ele>
        <time>2020-10-06T11:45:51.816Z</time>
      </trkpt>
      <trkpt lat="59.4367" lon="24.57319">
        <ele>5.426826</ele>
        <time>2020-10-06T11:45:53.662Z</time>
      </trkpt>
      <trkpt lat="59.43668" lon="24.57302">
        <ele>5.471985</ele>
        <time>2020-10-06T11:45:55.680Z</time>
      </trkpt>
      <trkpt lat="59.43667" lon="24.57294">
        <ele>5.493459</ele>
        <time>2020-10-06T11:45:56.691Z</time>
      </trkpt>
      <trkpt lat="59.43681" lon="24.57248">
        <ele>5.631625</ele>
        <time>2020-10-06T11:46:03.255Z</time>
      </trkpt>
      <trkpt lat="59.43681" lon="24.57234">
        <ele>5.666498</ele>
        <time>2020-10-06T11:46:04.868Z</time>
      </trkpt>
      <trkpt lat="59.43675" lon="24.57191">
        <ele>5.783161</ele>
        <time>2020-10-06T11:46:10.566Z</time>
      </trkpt>
      <trkpt lat="59.4365" lon="24.57079">
        <ele>6.100264</ele>
        <time>2020-10-06T11:46:26.062Z</time>
      </trkpt>
      <trkpt lat="59.43636" lon="24.56959">
        <ele>6.350171</ele>
        <time>2020-10-06T11:46:41.825Z</time>
      </trkpt>
      <trkpt lat="59.43563" lon="24.56728">
        <ele>6.815782</ele>
        <time>2020-10-06T11:47:14.104Z</time>
      </trkpt>
      <trkpt lat="59.43541" lon="24.56683">
        <ele>6.745049</ele>
        <time>2020-10-06T11:47:21.252Z</time>
      </trkpt>
      <trkpt lat="59.43531" lon="24.56658">
        <ele>6.709817</ele>
        <time>2020-10-06T11:47:24.796Z</time>
      </trkpt>
      <trkpt lat="59.43521" lon="24.5663">
        <ele>6.670867</ele>
        <time>2020-10-06T11:47:28.570Z</time>
      </trkpt>
      <trkpt lat="59.43479" lon="24.56541">
        <ele>6.533557</ele>
        <time>2020-10-06T11:47:41.670Z</time>
      </trkpt>
      <trkpt lat="59.43442" lon="24.56491">
        <ele>6.435324</ele>
        <time>2020-10-06T11:47:50.819Z</time>
      </trkpt>
      <trkpt lat="59.43427" lon="24.56469">
        <ele>6.495446</ele>
        <time>2020-10-06T11:47:54.802Z</time>
      </trkpt>
      <trkpt lat="59.43399" lon="24.56428">
        <ele>6.658623</ele>
        <time>2020-10-06T11:48:01.997Z</time>
      </trkpt>
      <trkpt lat="59.43365" lon="24.56391">
        <ele>6.839875</ele>
        <time>2020-10-06T11:48:11.025Z</time>
      </trkpt>
      <trkpt lat="59.43355" lon="24.5638">
        <ele>6.890886</ele>
        <time>2020-10-06T11:48:13.546Z</time>
      </trkpt>
      <trkpt lat="59.43339" lon="24.56374">
        <ele>6.96667</ele>
        <time>2020-10-06T11:48:17.768Z</time>
      </trkpt>
      <trkpt lat="59.43283" lon="24.5632">
        <ele>7.262613</ele>
        <time>2020-10-06T11:48:34.523Z</time>
      </trkpt>
      <trkpt lat="59.43272" lon="24.56317">
        <ele>7.567389</ele>
        <time>2020-10-06T11:48:37.478Z</time>
      </trkpt>
      <trkpt lat="59.43257" lon="24.56316">
        <ele>8.030337</ele>
        <time>2020-10-06T11:48:41.566Z</time>
      </trkpt>
      <trkpt lat="59.43245" lon="24.56312">
        <ele>8.382629</ele>
        <time>2020-10-06T11:48:45.406Z</time>
      </trkpt>
      <trkpt lat="59.43235" lon="24.56301">
        <ele>8.742088</ele>
        <time>2020-10-06T11:48:48.746Z</time>
      </trkpt>
      <trkpt lat="59.4323" lon="24.56271">
        <ele>9.234385</ele>
        <time>2020-10-06T11:48:53.623Z</time>
      </trkpt>
      <trkpt lat="59.43219" lon="24.56252">
        <ele>9.682902</ele>
        <time>2020-10-06T11:48:58.459Z</time>
      </trkpt>
      <trkpt lat="59.43039" lon="24.56066">
        <ele>17.555217</ele>
        <time>2020-10-06T11:50:17.077Z</time>
      </trkpt>
      <trkpt lat="59.43034" lon="24.56043">
        <ele>18.146434</ele>
        <time>2020-10-06T11:50:21.390Z</time>
      </trkpt>
      <trkpt lat="59.43036" lon="24.56025">
        <ele>18.577407</ele>
        <time>2020-10-06T11:50:25.039Z</time>
      </trkpt>
      <trkpt lat="59.43041" lon="24.56007">
        <ele>19.05697</ele>
        <time>2020-10-06T11:50:31.125Z</time>
      </trkpt>
      <trkpt lat="59.43047" lon="24.55989">
        <ele>19.585144</ele>
        <time>2020-10-06T11:50:35.272Z</time>
      </trkpt>
      <trkpt lat="59.43056" lon="24.55957">
        <ele>20.449556</ele>
        <time>2020-10-06T11:50:43.204Z</time>
      </trkpt>
      <trkpt lat="59.43057" lon="24.55937">
        <ele>20.927352</ele>
        <time>2020-10-06T11:50:48.964Z</time>
      </trkpt>
      <trkpt lat="59.4305" lon="24.55909">
        <ele>21.744493</ele>
        <time>2020-10-06T11:50:55.075Z</time>
      </trkpt>
      <trkpt lat="59.43046" lon="24.55902">
        <ele>22.052509</ele>
        <time>2020-10-06T11:50:57.436Z</time>
      </trkpt>
      <trkpt lat="59.43038" lon="24.55905">
        <ele>22.460823</ele>
        <time>2020-10-06T11:51:02.180Z</time>
      </trkpt>
      <trkpt lat="59.4301" lon="24.55939">
        <ele>24.279983</ele>
        <time>2020-10-06T11:51:16.836Z</time>
      </trkpt>
      <trkpt lat="59.42994" lon="24.55913">
        <ele>25.411782</ele>
        <time>2020-10-06T11:51:26.806Z</time>
      </trkpt>
      <trkpt lat="59.42984" lon="24.55884">
        <ele>26.409535</ele>
        <time>2020-10-06T11:51:35.749Z</time>
      </trkpt>
      <trkpt lat="59.4298" lon="24.55816">
        <ele>28.318276</ele>
        <time>2020-10-06T11:51:51.016Z</time>
      </trkpt>
      <trkpt lat="59.42987" lon="24.5578">
        <ele>29.389928</ele>
        <time>2020-10-06T11:51:59.579Z</time>
      </trkpt>
      <trkpt lat="59.42996" lon="24.55739">
        <ele>30.650212</ele>
        <time>2020-10-06T11:52:09.468Z</time>
      </trkpt>
      <trkpt lat="59.43006" lon="24.55694">
        <ele>31.619744</ele>
        <time>2020-10-06T11:52:18.490Z</time>
      </trkpt>
      <trkpt lat="59.43021" lon="24.55608">
        <ele>33.109659</ele>
        <time>2020-10-06T11:52:35.805Z</time>
      </trkpt>
      <trkpt lat="59.43023" lon="24.55547">
        <ele>34.109141</ele>
        <time>2020-10-06T11:52:46.958Z</time>
      </trkpt>
      <trkpt lat="59.43015" lon="24.55451">
        <ele>35.685367</ele>
        <time>2020-10-06T11:53:03.955Z</time>
      </trkpt>
      <trkpt lat="59.42993" lon="24.55322">
        <ele>37.147309</ele>
        <time>2020-10-06T11:53:25.065Z</time>
      </trkpt>
      <trkpt lat="59.42986" lon="24.55282">
        <ele>37.336657</ele>
        <time>2020-10-06T11:53:30.864Z</time>
      </trkpt>
      <trkpt lat="59.4298" lon="24.55242">
        <ele>37.522128</ele>
        <time>2020-10-06T11:53:36.330Z</time>
      </trkpt>
      <trkpt lat="59.42974" lon="24.55171">
        <ele>37.847274</ele>
        <time>2020-10-06T11:53:45.672Z</time>
      </trkpt>
      <trkpt lat="59.42973" lon="24.55154">
        <ele>37.924831</ele>
        <time>2020-10-06T11:53:47.945Z</time>
      </trkpt>
      <trkpt lat="59.42971" lon="24.55125">
        <ele>38.055551</ele>
        <time>2020-10-06T11:53:51.432Z</time>
      </trkpt>
      <trkpt lat="59.42968" lon="24.55098">
        <ele>38.179357</ele>
        <time>2020-10-06T11:53:54.767Z</time>
      </trkpt>
      <trkpt lat="59.42961" lon="24.54997">
        <ele>38.296422</ele>
        <time>2020-10-06T11:54:06.261Z</time>
      </trkpt>
      <trkpt lat="59.42957" lon="24.54915">
        <ele>38.006573</ele>
        <time>2020-10-06T11:54:14.767Z</time>
      </trkpt>
      <trkpt lat="59.42955" lon="24.54753">
        <ele>37.442291</ele>
        <time>2020-10-06T11:54:30.530Z</time>
      </trkpt>
      <trkpt lat="59.42955" lon="24.54739">
        <ele>37.393043</ele>
        <time>2020-10-06T11:54:31.894Z</time>
      </trkpt>
      <trkpt lat="59.42951" lon="24.54735">
        <ele>37.360447</ele>
        <time>2020-10-06T11:54:32.859Z</time>
      </trkpt>
      <trkpt lat="59.42951" lon="24.5472">
        <ele>37.307545</ele>
        <time>2020-10-06T11:54:34.408Z</time>
      </trkpt>
      <trkpt lat="59.42955" lon="24.54625">
        <ele>37.159798</ele>
        <time>2020-10-06T11:54:44.105Z</time>
      </trkpt>
      <trkpt lat="59.4296" lon="24.54495">
        <ele>37.062309</ele>
        <time>2020-10-06T11:54:58.269Z</time>
      </trkpt>
      <trkpt lat="59.42965" lon="24.54479">
        <ele>37.048611</ele>
        <time>2020-10-06T11:55:00.389Z</time>
      </trkpt>
      <trkpt lat="59.42966" lon="24.54463">
        <ele>37.036574</ele>
        <time>2020-10-06T11:55:02.195Z</time>
      </trkpt>
      <trkpt lat="59.42966" lon="24.54444">
        <ele>37.022599</ele>
        <time>2020-10-06T11:55:04.485Z</time>
      </trkpt>
      <trkpt lat="59.42974" lon="24.54293">
        <ele>37.07301</ele>
        <time>2020-10-06T11:55:22.909Z</time>
      </trkpt>
      <trkpt lat="59.4298" lon="24.54261">
        <ele>37.160478</ele>
        <time>2020-10-06T11:55:27.263Z</time>
      </trkpt>
      <trkpt lat="59.42982" lon="24.54239">
        <ele>37.218419</ele>
        <time>2020-10-06T11:55:30.184Z</time>
      </trkpt>
      <trkpt lat="59.42986" lon="24.542">
        <ele>37.318908</ele>
        <time>2020-10-06T11:55:35.173Z</time>
      </trkpt>
      <trkpt lat="59.42998" lon="24.54127">
        <ele>37.514062</ele>
        <time>2020-10-06T11:55:44.877Z</time>
      </trkpt>
      <trkpt lat="59.43023" lon="24.54019">
        <ele>37.817062</ele>
        <time>2020-10-06T11:55:59.564Z</time>
      </trkpt>
      <trkpt lat="59.43072" lon="24.53832">
        <ele>38.133455</ele>
        <time>2020-10-06T11:56:24.381Z</time>
      </trkpt>
      <trkpt lat="59.43074" lon="24.53824">
        <ele>38.146894</ele>
        <time>2020-10-06T11:56:25.453Z</time>
      </trkpt>
      <trkpt lat="59.43082" lon="24.53798">
        <ele>38.190338</ele>
        <time>2020-10-06T11:56:28.930Z</time>
      </trkpt>
      <trkpt lat="59.43091" lon="24.53763">
        <ele>38.24806</ele>
        <time>2020-10-06T11:56:33.568Z</time>
      </trkpt>
      <trkpt lat="59.43165" lon="24.53425">
        <ele>38.968265</ele>
        <time>2020-10-06T11:57:18.395Z</time>
      </trkpt>
      <trkpt lat="59.43187" lon="24.53317">
        <ele>39.156312</ele>
        <time>2020-10-06T11:57:32.798Z</time>
      </trkpt>
      <trkpt lat="59.43218" lon="24.53179">
        <ele>39.322584</ele>
        <time>2020-10-06T11:57:51.000Z</time>
      </trkpt>
      <trkpt lat="59.43227" lon="24.53122">
        <ele>39.388111</ele>
        <time>2020-10-06T11:57:57.969Z</time>
      </trkpt>
      <trkpt lat="59.43255" lon="24.52921">
        <ele>39.381357</ele>
        <time>2020-10-06T11:58:20.957Z</time>
      </trkpt>
      <trkpt lat="59.43273" lon="24.52819">
        <ele>39.285937</ele>
        <time>2020-10-06T11:58:32.697Z</time>
      </trkpt>
      <trkpt lat="59.43283" lon="24.52778">
        <ele>39.246536</ele>
        <time>2020-10-06T11:58:37.587Z</time>
      </trkpt>
      <trkpt lat="59.43314" lon="24.52621">
        <ele>39.203311</ele>
        <time>2020-10-06T11:58:56.170Z</time>
      </trkpt>
      <trkpt lat="59.43328" lon="24.52579">
        <ele>39.219904</ele>
        <time>2020-10-06T11:59:01.949Z</time>
      </trkpt>
      <trkpt lat="59.4335" lon="24.52514">
        <ele>39.245122</ele>
        <time>2020-10-06T11:59:10.931Z</time>
      </trkpt>
      <trkpt lat="59.4337" lon="24.52468">
        <ele>39.264655</ele>
        <time>2020-10-06T11:59:18.026Z</time>
      </trkpt>
      <trkpt lat="59.43425" lon="24.52335">
        <ele>39.38774</ele>
        <time>2020-10-06T11:59:38.601Z</time>
      </trkpt>
      <trkpt lat="59.43486" lon="24.52175">
        <ele>39.593871</ele>
        <time>2020-10-06T12:00:02.415Z</time>
      </trkpt>
      <trkpt lat="59.43539" lon="24.52022">
        <ele>39.332135</ele>
        <time>2020-10-06T12:00:23.379Z</time>
      </trkpt>
      <trkpt lat="59.43666" lon="24.51642">
        <ele>37.80405</ele>
        <time>2020-10-06T12:01:08.953Z</time>
      </trkpt>
      <trkpt lat="59.43676" lon="24.51604">
        <ele>37.625514</ele>
        <time>2020-10-06T12:01:13.067Z</time>
      </trkpt>
      <trkpt lat="59.43692" lon="24.51531">
        <ele>37.292911</ele>
        <time>2020-10-06T12:01:21.069Z</time>
      </trkpt>
      <trkpt lat="59.43708" lon="24.5144">
        <ele>37.282473</ele>
        <time>2020-10-06T12:01:31.447Z</time>
      </trkpt>
      <trkpt lat="59.43717" lon="24.51395">
        <ele>37.286765</ele>
        <time>2020-10-06T12:01:36.681Z</time>
      </trkpt>
      <trkpt lat="59.43724" lon="24.51358">
        <ele>37.290259</ele>
        <time>2020-10-06T12:01:41.303Z</time>
      </trkpt>
      <trkpt lat="59.43731" lon="24.51325">
        <ele>37.293428</ele>
        <time>2020-10-06T12:01:45.310Z</time>
      </trkpt>
      <trkpt lat="59.43734" lon="24.51312">
        <ele>37.294615</ele>
        <time>2020-10-06T12:01:47.018Z</time>
      </trkpt>
      <trkpt lat="59.43738" lon="24.51278">
        <ele>37.297739</ele>
        <time>2020-10-06T12:01:51.216Z</time>
      </trkpt>
      <trkpt lat="59.43742" lon="24.5124">
        <ele>37.301135</ele>
        <time>2020-10-06T12:01:56.002Z</time>
      </trkpt>
      <trkpt lat="59.43745" lon="24.5122">
        <ele>37.302944</ele>
        <time>2020-10-06T12:01:58.570Z</time>
      </trkpt>
      <trkpt lat="59.43773" lon="24.51019">
        <ele>37.684481</ele>
        <time>2020-10-06T12:02:24.838Z</time>
      </trkpt>
      <trkpt lat="59.43789" lon="24.50911">
        <ele>37.922918</ele>
        <time>2020-10-06T12:02:38.571Z</time>
      </trkpt>
      <trkpt lat="59.43805" lon="24.50766">
        <ele>38.095726</ele>
        <time>2020-10-06T12:02:55.478Z</time>
      </trkpt>
      <trkpt lat="59.43828" lon="24.50322">
        <ele>38.370468</ele>
        <time>2020-10-06T12:03:46.922Z</time>
      </trkpt>
      <trkpt lat="59.43831" lon="24.50209">
        <ele>38.465618</ele>
        <time>2020-10-06T12:04:00.369Z</time>
      </trkpt>
      <trkpt lat="59.43833" lon="24.5017">
        <ele>38.498067</ele>
        <time>2020-10-06T12:04:05.068Z</time>
      </trkpt>
      <trkpt lat="59.43844" lon="24.50027">
        <ele>38.584315</ele>
        <time>2020-10-06T12:04:22.394Z</time>
      </trkpt>
      <trkpt lat="59.43933" lon="24.4983">
        <ele>38.726652</ele>
        <time>2020-10-06T12:04:52.225Z</time>
      </trkpt>
      <trkpt lat="59.44027" lon="24.49629">
        <ele>38.862444</ele>
        <time>2020-10-06T12:05:23.261Z</time>
      </trkpt>
      <trkpt lat="59.44081" lon="24.49515">
        <ele>39.039767</ele>
        <time>2020-10-06T12:05:41.777Z</time>
      </trkpt>
      <trkpt lat="59.44159" lon="24.49333">
        <ele>39.37987</ele>
        <time>2020-10-06T12:06:10.533Z</time>
      </trkpt>
      <trkpt lat="59.44204" lon="24.49199">
        <ele>39.454212</ele>
        <time>2020-10-06T12:06:29.360Z</time>
      </trkpt>
      <trkpt lat="59.44231" lon="24.49092">
        <ele>39.502703</ele>
        <time>2020-10-06T12:06:43.070Z</time>
      </trkpt>
      <trkpt lat="59.4436" lon="24.48553">
        <ele>39.442265</ele>
        <time>2020-10-06T12:07:48.896Z</time>
      </trkpt>
      <trkpt lat="59.44669" lon="24.47852">
        <ele>40.354595</ele>
        <time>2020-10-06T12:09:39.287Z</time>
      </trkpt>
      <trkpt lat="59.44786" lon="24.47224">
        <ele>40.702044</ele>
        <time>2020-10-06T12:10:56.182Z</time>
      </trkpt>
      <trkpt lat="59.44785" lon="24.47174">
        <ele>40.722812</ele>
        <time>2020-10-06T12:11:02.056Z</time>
      </trkpt>
      <trkpt lat="59.44795" lon="24.47071">
        <ele>40.764201</ele>
        <time>2020-10-06T12:11:14.291Z</time>
      </trkpt>
      <trkpt lat="59.44838" lon="24.46637">
        <ele>40.804049</ele>
        <time>2020-10-06T12:12:04.688Z</time>
      </trkpt>
      <trkpt lat="59.44857" lon="24.46514">
        <ele>40.775311</ele>
        <time>2020-10-06T12:12:18.806Z</time>
      </trkpt>
      <trkpt lat="59.4504" lon="24.46074">
        <ele>40.149352</ele>
        <time>2020-10-06T12:13:20.891Z</time>
      </trkpt>
      <trkpt lat="59.45188" lon="24.45718">
        <ele>39.85972</ele>
        <time>2020-10-06T12:14:11.773Z</time>
      </trkpt>
      <trkpt lat="59.45262" lon="24.4554">
        <ele>40.203461</ele>
        <time>2020-10-06T12:14:38.328Z</time>
      </trkpt>
      <trkpt lat="59.45266" lon="24.4553">
        <ele>40.227419</ele>
        <time>2020-10-06T12:14:40.040Z</time>
      </trkpt>
      <trkpt lat="59.45342" lon="24.4534">
        <ele>40.811311</ele>
        <time>2020-10-06T12:15:10.917Z</time>
      </trkpt>
      <trkpt lat="59.45364" lon="24.45235">
        <ele>41.182035</ele>
        <time>2020-10-06T12:15:25.859Z</time>
      </trkpt>
      <trkpt lat="59.45384" lon="24.45137">
        <ele>41.52977</ele>
        <time>2020-10-06T12:15:39.295Z</time>
      </trkpt>
      <trkpt lat="59.45433" lon="24.4446">
        <ele>42.07676</ele>
        <time>2020-10-06T12:16:58.018Z</time>
      </trkpt>
      <trkpt lat="59.45435" lon="24.44437">
        <ele>42.093363</ele>
        <time>2020-10-06T12:17:00.826Z</time>
      </trkpt>
      <trkpt lat="59.45436" lon="24.44415">
        <ele>42.108323</ele>
        <time>2020-10-06T12:17:03.360Z</time>
      </trkpt>
      <trkpt lat="59.45447" lon="24.44256">
        <ele>42.289285</ele>
        <time>2020-10-06T12:17:22.280Z</time>
      </trkpt>
      <trkpt lat="59.45465" lon="24.43992">
        <ele>42.619276</ele>
        <time>2020-10-06T12:17:53.704Z</time>
      </trkpt>
      <trkpt lat="59.45482" lon="24.4379">
        <ele>42.922844</ele>
        <time>2020-10-06T12:18:17.801Z</time>
      </trkpt>
      <trkpt lat="59.45484" lon="24.43774">
        <ele>42.947979</ele>
        <time>2020-10-06T12:18:19.791Z</time>
      </trkpt>
      <trkpt lat="59.45486" lon="24.43755">
        <ele>42.97643</ele>
        <time>2020-10-06T12:18:22.049Z</time>
      </trkpt>
      <trkpt lat="59.45514" lon="24.43452">
        <ele>43.886147</ele>
        <time>2020-10-06T12:19:01.320Z</time>
      </trkpt>
      <trkpt lat="59.45535" lon="24.43203">
        <ele>44.370742</ele>
        <time>2020-10-06T12:19:33.226Z</time>
      </trkpt>
      <trkpt lat="59.45567" lon="24.42852">
        <ele>44.178139</ele>
        <time>2020-10-06T12:20:12.846Z</time>
      </trkpt>
      <trkpt lat="59.45566" lon="24.42802">
        <ele>44.048082</ele>
        <time>2020-10-06T12:20:18.008Z</time>
      </trkpt>
      <trkpt lat="59.45575" lon="24.4271">
        <ele>43.805984</ele>
        <time>2020-10-06T12:20:27.478Z</time>
      </trkpt>
      <trkpt lat="59.45581" lon="24.4264">
        <ele>43.561215</ele>
        <time>2020-10-06T12:20:34.588Z</time>
      </trkpt>
      <trkpt lat="59.45585" lon="24.42597">
        <ele>43.311765</ele>
        <time>2020-10-06T12:20:38.857Z</time>
      </trkpt>
      <trkpt lat="59.45587" lon="24.42582">
        <ele>43.219922</ele>
        <time>2020-10-06T12:20:40.385Z</time>
      </trkpt>
      <trkpt lat="59.45597" lon="24.42471">
        <ele>42.569942</ele>
        <time>2020-10-06T12:20:51.263Z</time>
      </trkpt>
      <trkpt lat="59.45612" lon="24.42402">
        <ele>42.132422</ele>
        <time>2020-10-06T12:20:58.525Z</time>
      </trkpt>
      <trkpt lat="59.45618" lon="24.42359">
        <ele>41.875054</ele>
        <time>2020-10-06T12:21:02.695Z</time>
      </trkpt>
      <trkpt lat="59.45618" lon="24.4221">
        <ele>41.199117</ele>
        <time>2020-10-06T12:21:16.997Z</time>
      </trkpt>
      <trkpt lat="59.45612" lon="24.42083">
        <ele>40.695549</ele>
        <time>2020-10-06T12:21:29.622Z</time>
      </trkpt>
      <trkpt lat="59.45603" lon="24.41993">
        <ele>40.328753</ele>
        <time>2020-10-06T12:21:39.441Z</time>
      </trkpt>
      <trkpt lat="59.45583" lon="24.41879">
        <ele>40.177119</ele>
        <time>2020-10-06T12:21:52.998Z</time>
      </trkpt>
      <trkpt lat="59.45521" lon="24.41619">
        <ele>40.012674</ele>
        <time>2020-10-06T12:22:25.943Z</time>
      </trkpt>
      <trkpt lat="59.45321" lon="24.40761">
        <ele>37.443198</ele>
        <time>2020-10-06T12:24:03.487Z</time>
      </trkpt>
      <trkpt lat="59.45318" lon="24.40747">
        <ele>37.405157</ele>
        <time>2020-10-06T12:24:05.127Z</time>
      </trkpt>
      <trkpt lat="59.45315" lon="24.40729">
        <ele>37.358234</ele>
        <time>2020-10-06T12:24:07.093Z</time>
      </trkpt>
      <trkpt lat="59.4531" lon="24.40709">
        <ele>37.301396</ele>
        <time>2020-10-06T12:24:09.529Z</time>
      </trkpt>
      <trkpt lat="59.45304" lon="24.40682">
        <ele>37.227654</ele>
        <time>2020-10-06T12:24:12.678Z</time>
      </trkpt>
      <trkpt lat="59.45303" lon="24.40675">
        <ele>37.210063</ele>
        <time>2020-10-06T12:24:13.416Z</time>
      </trkpt>
      <trkpt lat="59.45298" lon="24.40658">
        <ele>37.205402</ele>
        <time>2020-10-06T12:24:15.469Z</time>
      </trkpt>
      <trkpt lat="59.45293" lon="24.40637">
        <ele>37.201123</ele>
        <time>2020-10-06T12:24:18.051Z</time>
      </trkpt>
      <trkpt lat="59.45285" lon="24.40609">
        <ele>37.19532</ele>
        <time>2020-10-06T12:24:21.581Z</time>
      </trkpt>
      <trkpt lat="59.45029" lon="24.39518">
        <ele>37.158838</ele>
        <time>2020-10-06T12:26:37.471Z</time>
      </trkpt>
      <trkpt lat="59.44873" lon="24.3885">
        <ele>38.059078</ele>
        <time>2020-10-06T12:28:06.297Z</time>
      </trkpt>
      <trkpt lat="59.4483" lon="24.38667">
        <ele>37.976071</ele>
        <time>2020-10-06T12:28:28.234Z</time>
      </trkpt>
      <trkpt lat="59.44823" lon="24.38614">
        <ele>37.872839</ele>
        <time>2020-10-06T12:28:33.954Z</time>
      </trkpt>
      <trkpt lat="59.44749" lon="24.38362">
        <ele>37.343278</ele>
        <time>2020-10-06T12:29:04.556Z</time>
      </trkpt>
      <trkpt lat="59.44671" lon="24.38139">
        <ele>36.903013</ele>
        <time>2020-10-06T12:29:34.061Z</time>
      </trkpt>
      <trkpt lat="59.44602" lon="24.37976">
        <ele>36.486222</ele>
        <time>2020-10-06T12:29:57.099Z</time>
      </trkpt>
      <trkpt lat="59.44476" lon="24.3771">
        <ele>35.421593</ele>
        <time>2020-10-06T12:30:34.782Z</time>
      </trkpt>
      <trkpt lat="59.44468" lon="24.37695">
        <ele>35.347201</ele>
        <time>2020-10-06T12:30:36.826Z</time>
      </trkpt>
      <trkpt lat="59.44461" lon="24.37677">
        <ele>35.265124</ele>
        <time>2020-10-06T12:30:39.230Z</time>
      </trkpt>
      <trkpt lat="59.44424" lon="24.37615">
        <ele>34.908727</ele>
        <time>2020-10-06T12:30:48.911Z</time>
      </trkpt>
      <trkpt lat="59.44349" lon="24.37471">
        <ele>33.349894</ele>
        <time>2020-10-06T12:31:08.912Z</time>
      </trkpt>
      <trkpt lat="59.44344" lon="24.37454">
        <ele>33.203431</ele>
        <time>2020-10-06T12:31:10.565Z</time>
      </trkpt>
      <trkpt lat="59.44308" lon="24.3738">
        <ele>32.418992</ele>
        <time>2020-10-06T12:31:20.152Z</time>
      </trkpt>
      <trkpt lat="59.44276" lon="24.37331">
        <ele>31.461153</ele>
        <time>2020-10-06T12:31:27.033Z</time>
      </trkpt>
      <trkpt lat="59.44265" lon="24.37326">
        <ele>31.148332</ele>
        <time>2020-10-06T12:31:28.996Z</time>
      </trkpt>
      <trkpt lat="59.4426" lon="24.37323">
        <ele>31.01153</ele>
        <time>2020-10-06T12:31:29.753Z</time>
      </trkpt>
      <trkpt lat="59.44222" lon="24.37272">
        <ele>29.794835</ele>
        <time>2020-10-06T12:31:37.465Z</time>
      </trkpt>
      <trkpt lat="59.4418" lon="24.37229">
        <ele>28.527459</ele>
        <time>2020-10-06T12:31:45.414Z</time>
      </trkpt>
      <trkpt lat="59.44157" lon="24.37208">
        <ele>27.834759</ele>
        <time>2020-10-06T12:31:49.622Z</time>
      </trkpt>
      <trkpt lat="59.44098" lon="24.37168">
        <ele>26.456573</ele>
        <time>2020-10-06T12:31:59.886Z</time>
      </trkpt>
      <trkpt lat="59.43976" lon="24.37122">
        <ele>23.854247</ele>
        <time>2020-10-06T12:32:21.892Z</time>
      </trkpt>
      <trkpt lat="59.43964" lon="24.37116">
        <ele>23.669588</ele>
        <time>2020-10-06T12:32:24.251Z</time>
      </trkpt>
      <trkpt lat="59.43937" lon="24.3711">
        <ele>23.525009</ele>
        <time>2020-10-06T12:32:29.541Z</time>
      </trkpt>
      <trkpt lat="59.43922" lon="24.37103">
        <ele>23.443688</ele>
        <time>2020-10-06T12:32:32.457Z</time>
      </trkpt>
      <trkpt lat="59.4392" lon="24.3713">
        <ele>23.369212</ele>
        <time>2020-10-06T12:32:35.329Z</time>
      </trkpt>
      <trkpt lat="59.43917" lon="24.37162">
        <ele>23.281936</ele>
        <time>2020-10-06T12:32:38.579Z</time>
      </trkpt>
      <trkpt lat="59.43869" lon="24.37146">
        <ele>23.021886</ele>
        <time>2020-10-06T12:32:48.873Z</time>
      </trkpt>
      <trkpt lat="59.4385" lon="24.37146">
        <ele>22.92184</ele>
        <time>2020-10-06T12:32:53.023Z</time>
      </trkpt>
      <trkpt lat="59.43752" lon="24.37083">
        <ele>22.886735</ele>
        <time>2020-10-06T12:33:17.293Z</time>
      </trkpt>
      <trkpt lat="59.43699" lon="24.37037">
        <ele>23.009776</ele>
        <time>2020-10-06T12:33:31.217Z</time>
      </trkpt>
      <trkpt lat="59.43628" lon="24.36982">
        <ele>23.044611</ele>
        <time>2020-10-06T12:33:48.405Z</time>
      </trkpt>
      <trkpt lat="59.43585" lon="24.36949">
        <ele>22.895403</ele>
        <time>2020-10-06T12:33:58.519Z</time>
      </trkpt>
      <trkpt lat="59.43565" lon="24.36934">
        <ele>22.829327</ele>
        <time>2020-10-06T12:34:03.008Z</time>
      </trkpt>
      <trkpt lat="59.43506" lon="24.36888">
        <ele>22.625295</ele>
        <time>2020-10-06T12:34:16.555Z</time>
      </trkpt>
      <trkpt lat="59.43468" lon="24.36857">
        <ele>22.315432</ele>
        <time>2020-10-06T12:34:24.633Z</time>
      </trkpt>
      <trkpt lat="59.43408" lon="24.36807">
        <ele>21.38117</ele>
        <time>2020-10-06T12:34:36.680Z</time>
      </trkpt>
      <trkpt lat="59.43395" lon="24.36796">
        <ele>21.177585</ele>
        <time>2020-10-06T12:34:39.290Z</time>
      </trkpt>
      <trkpt lat="59.43384" lon="24.36787">
        <ele>21.00769</ele>
        <time>2020-10-06T12:34:41.472Z</time>
      </trkpt>
      <trkpt lat="59.43374" lon="24.36776">
        <ele>20.833545</ele>
        <time>2020-10-06T12:34:43.584Z</time>
      </trkpt>
      <trkpt lat="59.43381" lon="24.36755">
        <ele>20.651979</ele>
        <time>2020-10-06T12:34:45.887Z</time>
      </trkpt>
      <trkpt lat="59.43369" lon="24.36742">
        <ele>20.450624</ele>
        <time>2020-10-06T12:34:48.453Z</time>
      </trkpt>
      <trkpt lat="59.43353" lon="24.36721">
        <ele>20.178527</ele>
        <time>2020-10-06T12:34:51.822Z</time>
      </trkpt>
      <trkpt lat="59.43325" lon="24.36685">
        <ele>19.81669</ele>
        <time>2020-10-06T12:34:57.764Z</time>
      </trkpt>
      <trkpt lat="59.43298" lon="24.36645">
        <ele>19.554508</ele>
        <time>2020-10-06T12:35:03.770Z</time>
      </trkpt>
      <trkpt lat="59.43286" lon="24.36625">
        <ele>19.427105</ele>
        <time>2020-10-06T12:35:06.792Z</time>
      </trkpt>
      <trkpt lat="59.43273" lon="24.36602">
        <ele>19.291361</ele>
        <time>2020-10-06T12:35:09.759Z</time>
      </trkpt>
      <trkpt lat="59.43163" lon="24.36404">
        <ele>19.015671</ele>
        <time>2020-10-06T12:35:43.805Z</time>
      </trkpt>
      <trkpt lat="59.43158" lon="24.36396">
        <ele>19.068868</ele>
        <time>2020-10-06T12:35:45.227Z</time>
      </trkpt>
      <trkpt lat="59.43131" lon="24.3635">
        <ele>19.38036</ele>
        <time>2020-10-06T12:35:54.865Z</time>
      </trkpt>
      <trkpt lat="59.43108" lon="24.3631">
        <ele>19.645557</ele>
        <time>2020-10-06T12:36:03.382Z</time>
      </trkpt>
      <trkpt lat="59.43084" lon="24.3627">
        <ele>19.914514</ele>
        <time>2020-10-06T12:36:11.882Z</time>
      </trkpt>
      <trkpt lat="59.43081" lon="24.36264">
        <ele>19.958281</ele>
        <time>2020-10-06T12:36:13.357Z</time>
      </trkpt>
      <trkpt lat="59.43073" lon="24.3625">
        <ele>20.049283</ele>
        <time>2020-10-06T12:36:16.120Z</time>
      </trkpt>
      <trkpt lat="59.43031" lon="24.36195">
        <ele>20.407717</ele>
        <time>2020-10-06T12:36:31.095Z</time>
      </trkpt>
      <trkpt lat="59.43004" lon="24.36172">
        <ele>20.610149</ele>
        <time>2020-10-06T12:36:39.202Z</time>
      </trkpt>
      <trkpt lat="59.42942" lon="24.36149">
        <ele>21.043021</ele>
        <time>2020-10-06T12:36:54.375Z</time>
      </trkpt>
      <trkpt lat="59.42904" lon="24.36148">
        <ele>21.310323</ele>
        <time>2020-10-06T12:37:03.622Z</time>
      </trkpt>
      <trkpt lat="59.42655" lon="24.36153">
        <ele>22.205138</ele>
        <time>2020-10-06T12:38:04.654Z</time>
      </trkpt>
      <trkpt lat="59.42612" lon="24.36151">
        <ele>22.365863</ele>
        <time>2020-10-06T12:38:15.580Z</time>
      </trkpt>
      <trkpt lat="59.42555" lon="24.36135">
        <ele>22.575763</ele>
        <time>2020-10-06T12:38:29.774Z</time>
      </trkpt>
      <trkpt lat="59.42528" lon="24.36118">
        <ele>22.638048</ele>
        <time>2020-10-06T12:38:36.706Z</time>
      </trkpt>
      <trkpt lat="59.42504" lon="24.36091">
        <ele>22.647813</ele>
        <time>2020-10-06T12:38:43.488Z</time>
      </trkpt>
      <trkpt lat="59.42478" lon="24.36049">
        <ele>22.659641</ele>
        <time>2020-10-06T12:38:51.603Z</time>
      </trkpt>
      <trkpt lat="59.42455" lon="24.35996">
        <ele>22.672016</ele>
        <time>2020-10-06T12:38:59.903Z</time>
      </trkpt>
      <trkpt lat="59.42375" lon="24.3576">
        <ele>22.277676</ele>
        <time>2020-10-06T12:39:32.005Z</time>
      </trkpt>
      <trkpt lat="59.42152" lon="24.35062">
        <ele>19.876603</ele>
        <time>2020-10-06T12:41:00.847Z</time>
      </trkpt>
      <trkpt lat="59.42057" lon="24.3476">
        <ele>19.115387</ele>
        <time>2020-10-06T12:41:39.973Z</time>
      </trkpt>
      <trkpt lat="59.42033" lon="24.34683">
        <ele>18.947155</ele>
        <time>2020-10-06T12:41:50.329Z</time>
      </trkpt>
      <trkpt lat="59.41996" lon="24.34593">
        <ele>18.668151</ele>
        <time>2020-10-06T12:42:03.409Z</time>
      </trkpt>
      <trkpt lat="59.41945" lon="24.34519">
        <ele>18.364116</ele>
        <time>2020-10-06T12:42:17.611Z</time>
      </trkpt>
      <trkpt lat="59.41857" lon="24.34434">
        <ele>17.771416</ele>
        <time>2020-10-06T12:42:37.794Z</time>
      </trkpt>
      <trkpt lat="59.41826" lon="24.34419">
        <ele>17.521847</ele>
        <time>2020-10-06T12:42:44.211Z</time>
      </trkpt>
      <trkpt lat="59.4179" lon="24.34415">
        <ele>17.244503</ele>
        <time>2020-10-06T12:42:51.305Z</time>
      </trkpt>
      <trkpt lat="59.41741" lon="24.34413">
        <ele>16.860887</ele>
        <time>2020-10-06T12:43:01.125Z</time>
      </trkpt>
      <trkpt lat="59.41621" lon="24.34408">
        <ele>17.642395</ele>
        <time>2020-10-06T12:43:29.699Z</time>
      </trkpt>
      <trkpt lat="59.41592" lon="24.34404">
        <ele>17.922268</ele>
        <time>2020-10-06T12:43:37.926Z</time>
      </trkpt>
      <trkpt lat="59.41572" lon="24.34394">
        <ele>18.130704</ele>
        <time>2020-10-06T12:43:44.472Z</time>
      </trkpt>
      <trkpt lat="59.41553" lon="24.34378">
        <ele>18.325355</ele>
        <time>2020-10-06T12:43:51.286Z</time>
      </trkpt>
      <trkpt lat="59.41527" lon="24.34333">
        <ele>19.097604</ele>
        <time>2020-10-06T12:44:03.121Z</time>
      </trkpt>
      <trkpt lat="59.41512" lon="24.34275">
        <ele>20.038164</ele>
        <time>2020-10-06T12:44:14.657Z</time>
      </trkpt>
      <trkpt lat="59.41508" lon="24.34212">
        <ele>20.962804</ele>
        <time>2020-10-06T12:44:26.328Z</time>
      </trkpt>
      <trkpt lat="59.41516" lon="24.3416">
        <ele>21.744992</ele>
        <time>2020-10-06T12:44:36.309Z</time>
      </trkpt>
      <trkpt lat="59.41541" lon="24.3409">
        <ele>22.985272</ele>
        <time>2020-10-06T12:44:52.337Z</time>
      </trkpt>
      <trkpt lat="59.41696" lon="24.33768">
        <ele>27.712259</ele>
        <time>2020-10-06T12:46:04.225Z</time>
      </trkpt>
      <trkpt lat="59.41718" lon="24.33727">
        <ele>28.031295</ele>
        <time>2020-10-06T12:46:12.550Z</time>
      </trkpt>
      <trkpt lat="59.41762" lon="24.3367">
        <ele>28.594524</ele>
        <time>2020-10-06T12:46:26.735Z</time>
      </trkpt>
      <trkpt lat="59.41946" lon="24.33564">
        <ele>30.299135</ele>
        <time>2020-10-06T12:47:16.084Z</time>
      </trkpt>
      <trkpt lat="59.42034" lon="24.33468">
        <ele>31.215726</ele>
        <time>2020-10-06T12:47:43.765Z</time>
      </trkpt>
      <trkpt lat="59.42123" lon="24.33353">
        <ele>32.380526</ele>
        <time>2020-10-06T12:48:13.494Z</time>
      </trkpt>
      <trkpt lat="59.42148" lon="24.33314">
        <ele>32.721363</ele>
        <time>2020-10-06T12:48:22.092Z</time>
      </trkpt>
      <trkpt lat="59.42174" lon="24.33249">
        <ele>32.91711</ele>
        <time>2020-10-06T12:48:33.313Z</time>
      </trkpt>
      <trkpt lat="59.42189" lon="24.33175">
        <ele>33.103296</ele>
        <time>2020-10-06T12:48:43.669Z</time>
      </trkpt>
      <trkpt lat="59.42191" lon="24.33112">
        <ele>33.253934</ele>
        <time>2020-10-06T12:48:51.764Z</time>
      </trkpt>
      <trkpt lat="59.42188" lon="24.33087">
        <ele>33.312458</ele>
        <time>2020-10-06T12:48:54.920Z</time>
      </trkpt>
      <trkpt lat="59.42181" lon="24.33037">
        <ele>33.435215</ele>
        <time>2020-10-06T12:49:01.239Z</time>
      </trkpt>
      <trkpt lat="59.42169" lon="24.32982">
        <ele>33.548239</ele>
        <time>2020-10-06T12:49:08.417Z</time>
      </trkpt>
      <trkpt lat="59.42003" lon="24.32233">
        <ele>33.266444</ele>
        <time>2020-10-06T12:50:42.960Z</time>
      </trkpt>
      <trkpt lat="59.41972" lon="24.3209">
        <ele>33.375427</ele>
        <time>2020-10-06T12:51:02.157Z</time>
      </trkpt>
      <trkpt lat="59.41945" lon="24.31994">
        <ele>33.440979</ele>
        <time>2020-10-06T12:51:15.896Z</time>
      </trkpt>
      <trkpt lat="59.41928" lon="24.31952">
        <ele>33.459112</ele>
        <time>2020-10-06T12:51:22.754Z</time>
      </trkpt>
      <trkpt lat="59.41591" lon="24.31315">
        <ele>33.35014</ele>
        <time>2020-10-06T12:53:11.809Z</time>
      </trkpt>
      <trkpt lat="59.41563" lon="24.31272">
        <ele>33.202929</ele>
        <time>2020-10-06T12:53:19.024Z</time>
      </trkpt>
      <trkpt lat="59.41522" lon="24.31215">
        <ele>32.565146</ele>
        <time>2020-10-06T12:53:29.064Z</time>
      </trkpt>
      <trkpt lat="59.41506" lon="24.31194">
        <ele>32.322307</ele>
        <time>2020-10-06T12:53:32.791Z</time>
      </trkpt>
      <trkpt lat="59.41447" lon="24.31117">
        <ele>31.424243</ele>
        <time>2020-10-06T12:53:46.409Z</time>
      </trkpt>
      <trkpt lat="59.41285" lon="24.30902">
        <ele>28.786693</ele>
        <time>2020-10-06T12:54:24.249Z</time>
      </trkpt>
      <trkpt lat="59.41232" lon="24.30817">
        <ele>28.30391</ele>
        <time>2020-10-06T12:54:38.280Z</time>
      </trkpt>
      <trkpt lat="59.41205" lon="24.3076">
        <ele>28.110739</ele>
        <time>2020-10-06T12:54:46.713Z</time>
      </trkpt>
      <trkpt lat="59.41192" lon="24.30724">
        <ele>27.999641</ele>
        <time>2020-10-06T12:54:51.701Z</time>
      </trkpt>
      <trkpt lat="59.41186" lon="24.30706">
        <ele>27.945319</ele>
        <time>2020-10-06T12:54:54.098Z</time>
      </trkpt>
      <trkpt lat="59.4117" lon="24.30654">
        <ele>27.794071</ele>
        <time>2020-10-06T12:55:01.092Z</time>
      </trkpt>
      <trkpt lat="59.41132" lon="24.30473">
        <ele>27.902793</ele>
        <time>2020-10-06T12:55:24.513Z</time>
      </trkpt>
      <trkpt lat="59.4108" lon="24.30173">
        <ele>28.662266</ele>
        <time>2020-10-06T12:56:05.167Z</time>
      </trkpt>
      <trkpt lat="59.41074" lon="24.30136">
        <ele>28.816536</ele>
        <time>2020-10-06T12:56:10.307Z</time>
      </trkpt>
      <trkpt lat="59.41064" lon="24.30078">
        <ele>29.060441</ele>
        <time>2020-10-06T12:56:18.521Z</time>
      </trkpt>
      <trkpt lat="59.41029" lon="24.29939">
        <ele>29.721336</ele>
        <time>2020-10-06T12:56:39.872Z</time>
      </trkpt>
      <trkpt lat="59.41001" lon="24.29879">
        <ele>30.346994</ele>
        <time>2020-10-06T12:56:51.468Z</time>
      </trkpt>
      <trkpt lat="59.40884" lon="24.29717">
        <ele>32.578457</ele>
        <time>2020-10-06T12:57:33.904Z</time>
      </trkpt>
      <trkpt lat="59.40837" lon="24.29672">
        <ele>33.73687</ele>
        <time>2020-10-06T12:57:50.573Z</time>
      </trkpt>
      <trkpt lat="59.40814" lon="24.29659">
        <ele>34.285514</ele>
        <time>2020-10-06T12:57:58.242Z</time>
      </trkpt>
      <trkpt lat="59.4081" lon="24.29658">
        <ele>34.35708</ele>
        <time>2020-10-06T12:57:59.517Z</time>
      </trkpt>
      <trkpt lat="59.40786" lon="24.29652">
        <ele>34.893272</ele>
        <time>2020-10-06T12:58:07.580Z</time>
      </trkpt>
      <trkpt lat="59.40731" lon="24.29655">
        <ele>36.124888</ele>
        <time>2020-10-06T12:58:26.062Z</time>
      </trkpt>
      <trkpt lat="59.40673" lon="24.29687">
        <ele>37.052719</ele>
        <time>2020-10-06T12:58:45.409Z</time>
      </trkpt>
      <trkpt lat="59.40632" lon="24.29715">
        <ele>37.654071</ele>
        <time>2020-10-06T12:58:58.804Z</time>
      </trkpt>
      <trkpt lat="59.40579" lon="24.29757">
        <ele>38.459783</ele>
        <time>2020-10-06T12:59:14.064Z</time>
      </trkpt>
      <trkpt lat="59.40512" lon="24.29819">
        <ele>38.617578</ele>
        <time>2020-10-06T12:59:32.125Z</time>
      </trkpt>
      <trkpt lat="59.40456" lon="24.29871">
        <ele>38.285284</ele>
        <time>2020-10-06T12:59:45.111Z</time>
      </trkpt>
      <trkpt lat="59.40259" lon="24.3009">
        <ele>36.23646</ele>
        <time>2020-10-06T13:00:30.518Z</time>
      </trkpt>
      <trkpt lat="59.40213" lon="24.30132">
        <ele>35.677157</ele>
        <time>2020-10-06T13:00:40.911Z</time>
      </trkpt>
      <trkpt lat="59.40191" lon="24.30147">
        <ele>35.422369</ele>
        <time>2020-10-06T13:00:45.429Z</time>
      </trkpt>
      <trkpt lat="59.40186" lon="24.30189">
        <ele>35.177145</ele>
        <time>2020-10-06T13:00:49.791Z</time>
      </trkpt>
      <trkpt lat="59.40153" lon="24.30199">
        <ele>34.815944</ele>
        <time>2020-10-06T13:00:56.004Z</time>
      </trkpt>
      <trkpt lat="59.4013" lon="24.30201">
        <ele>34.556801</ele>
        <time>2020-10-06T13:01:00.401Z</time>
      </trkpt>
      <trkpt lat="59.39998" lon="24.30251">
        <ele>33.206951</ele>
        <time>2020-10-06T13:01:25.766Z</time>
      </trkpt>
      <trkpt lat="59.39856" lon="24.30312">
        <ele>32.137601</ele>
        <time>2020-10-06T13:01:54.761Z</time>
      </trkpt>
      <trkpt lat="59.39829" lon="24.30322">
        <ele>32.056409</ele>
        <time>2020-10-06T13:02:00.746Z</time>
      </trkpt>
      <trkpt lat="59.39746" lon="24.30356">
        <ele>31.81209</ele>
        <time>2020-10-06T13:02:19.308Z</time>
      </trkpt>
      <trkpt lat="59.39731" lon="24.30362">
        <ele>31.766942</ele>
        <time>2020-10-06T13:02:22.784Z</time>
      </trkpt>
      <trkpt lat="59.39732" lon="24.30318">
        <ele>31.719828</ele>
        <time>2020-10-06T13:02:27.871Z</time>
      </trkpt>
      <trkpt lat="59.3971" lon="24.3031">
        <ele>31.679507</ele>
        <time>2020-10-06T13:02:33.091Z</time>
      </trkpt>
      <trkpt lat="59.39656" lon="24.30266">
        <ele>31.571952</ele>
        <time>2020-10-06T13:02:46.673Z</time>
      </trkpt>
      <trkpt lat="59.39643" lon="24.30249">
        <ele>31.544677</ele>
        <time>2020-10-06T13:02:50.040Z</time>
      </trkpt>
      <trkpt lat="59.39618" lon="24.30207">
        <ele>31.483336</ele>
        <time>2020-10-06T13:02:57.537Z</time>
      </trkpt>
      <trkpt lat="59.39546" lon="24.3006">
        <ele>31.408933</ele>
        <time>2020-10-06T13:03:19.726Z</time>
      </trkpt>
      <trkpt lat="59.39478" lon="24.29919">
        <ele>31.38984</ele>
        <time>2020-10-06T13:03:42.173Z</time>
      </trkpt>
      <trkpt lat="59.39464" lon="24.29888">
        <ele>31.536722</ele>
        <time>2020-10-06T13:03:48.348Z</time>
      </trkpt>
      <trkpt lat="59.39455" lon="24.29869">
        <ele>31.734041</ele>
        <time>2020-10-06T13:03:51.839Z</time>
      </trkpt>
      <trkpt lat="59.39449" lon="24.29882">
        <ele>31.863896</ele>
        <time>2020-10-06T13:03:54.966Z</time>
      </trkpt>
      <trkpt lat="59.39429" lon="24.29846">
        <ele>32.260888</ele>
        <time>2020-10-06T13:04:02.091Z</time>
      </trkpt>
      <trkpt lat="59.39423" lon="24.29839">
        <ele>32.362404</ele>
        <time>2020-10-06T13:04:04.747Z</time>
      </trkpt>
      <trkpt lat="59.39416" lon="24.29838">
        <ele>32.4627</ele>
        <time>2020-10-06T13:04:06.589Z</time>
      </trkpt>
      <trkpt lat="59.39418" lon="24.29803">
        <ele>32.728223</ele>
        <time>2020-10-06T13:04:11.249Z</time>
      </trkpt>
      <trkpt lat="59.39387" lon="24.2974">
        <ele>33.383906</ele>
        <time>2020-10-06T13:04:24.262Z</time>
      </trkpt>
      <trkpt lat="59.39386" lon="24.29738">
        <ele>33.406469</ele>
        <time>2020-10-06T13:04:25.364Z</time>
      </trkpt>
      <trkpt lat="59.39381" lon="24.29746">
        <ele>33.497336</ele>
        <time>2020-10-06T13:04:27.089Z</time>
      </trkpt>
      <trkpt lat="59.3935" lon="24.29682">
        <ele>34.105567</ele>
        <time>2020-10-06T13:04:40.566Z</time>
      </trkpt>
      <trkpt lat="59.3931" lon="24.2958">
        <ele>34.63815</ele>
        <time>2020-10-06T13:05:00.129Z</time>
      </trkpt>
      <trkpt lat="59.39288" lon="24.29489">
        <ele>35.059414</ele>
        <time>2020-10-06T13:05:13.145Z</time>
      </trkpt>
      <trkpt lat="59.39282" lon="24.29389">
        <ele>35.477403</ele>
        <time>2020-10-06T13:05:23.950Z</time>
      </trkpt>
      <trkpt lat="59.39283" lon="24.29364">
        <ele>35.378056</ele>
        <time>2020-10-06T13:05:26.552Z</time>
      </trkpt>
      <trkpt lat="59.3929" lon="24.29295">
        <ele>34.918054</ele>
        <time>2020-10-06T13:05:33.641Z</time>
      </trkpt>
      <trkpt lat="59.39342" lon="24.28906">
        <ele>32.190715</ele>
        <time>2020-10-06T13:06:11.025Z</time>
      </trkpt>
      <trkpt lat="59.39375" lon="24.28649">
        <ele>30.381067</ele>
        <time>2020-10-06T13:06:36.129Z</time>
      </trkpt>
      <trkpt lat="59.39406" lon="24.28424">
        <ele>29.293087</ele>
        <time>2020-10-06T13:06:59.374Z</time>
      </trkpt>
      <trkpt lat="59.39428" lon="24.28276">
        <ele>28.820204</ele>
        <time>2020-10-06T13:07:15.558Z</time>
      </trkpt>
      <trkpt lat="59.39485" lon="24.27997">
        <ele>28.310671</ele>
        <time>2020-10-06T13:07:48.381Z</time>
      </trkpt>
      <trkpt lat="59.39587" lon="24.27608">
        <ele>27.910614</ele>
        <time>2020-10-06T13:08:36.006Z</time>
      </trkpt>
      <trkpt lat="59.3962" lon="24.27476">
        <ele>27.880298</ele>
        <time>2020-10-06T13:08:52.380Z</time>
      </trkpt>
      <trkpt lat="59.39673" lon="24.27285">
        <ele>28.498025</ele>
        <time>2020-10-06T13:09:18.413Z</time>
      </trkpt>
      <trkpt lat="59.39698" lon="24.2719">
        <ele>29.039856</ele>
        <time>2020-10-06T13:09:33.000Z</time>
      </trkpt>
      <trkpt lat="59.39723" lon="24.27073">
        <ele>29.722514</ele>
        <time>2020-10-06T13:09:51.341Z</time>
      </trkpt>
      <trkpt lat="59.39736" lon="24.26954">
        <ele>31.05475</ele>
        <time>2020-10-06T13:10:09.687Z</time>
      </trkpt>
      <trkpt lat="59.39741" lon="24.26542">
        <ele>35.891398</ele>
        <time>2020-10-06T13:11:16.660Z</time>
      </trkpt>
      <trkpt lat="59.39753" lon="24.2624">
        <ele>39.265375</ele>
        <time>2020-10-06T13:12:07.257Z</time>
      </trkpt>
      <trkpt lat="59.39764" lon="24.26084">
        <ele>40.742189</ele>
        <time>2020-10-06T13:12:31.073Z</time>
      </trkpt>
      <trkpt lat="59.39805" lon="24.25786">
        <ele>41.530834</ele>
        <time>2020-10-06T13:13:09.044Z</time>
      </trkpt>
      <trkpt lat="59.39816" lon="24.25636">
        <ele>41.422158</ele>
        <time>2020-10-06T13:13:24.705Z</time>
      </trkpt>
      <trkpt lat="59.39806" lon="24.25445">
        <ele>40.598254</ele>
        <time>2020-10-06T13:13:43.734Z</time>
      </trkpt>
      <trkpt lat="59.39776" lon="24.25152">
        <ele>39.590689</ele>
        <time>2020-10-06T13:14:13.637Z</time>
      </trkpt>
      <trkpt lat="59.39731" lon="24.24916">
        <ele>39.106827</ele>
        <time>2020-10-06T13:14:41.128Z</time>
      </trkpt>
      <trkpt lat="59.3965" lon="24.24628">
        <ele>39.039329</ele>
        <time>2020-10-06T13:15:19.150Z</time>
      </trkpt>
      <trkpt lat="59.3957" lon="24.24449">
        <ele>38.927946</ele>
        <time>2020-10-06T13:15:45.790Z</time>
      </trkpt>
      <trkpt lat="59.39483" lon="24.2432">
        <ele>38.707409</ele>
        <time>2020-10-06T13:16:08.726Z</time>
      </trkpt>
      <trkpt lat="59.39419" lon="24.24259">
        <ele>38.534814</ele>
        <time>2020-10-06T13:16:23.844Z</time>
      </trkpt>
      <trkpt lat="59.39051" lon="24.24189">
        <ele>37.894309</ele>
        <time>2020-10-06T13:17:44.029Z</time>
      </trkpt>
      <trkpt lat="59.3898" lon="24.24156">
        <ele>37.448201</ele>
        <time>2020-10-06T13:17:59.987Z</time>
      </trkpt>
      <trkpt lat="59.38895" lon="24.24106">
        <ele>36.780305</ele>
        <time>2020-10-06T13:18:17.989Z</time>
      </trkpt>
      <trkpt lat="59.38826" lon="24.24025">
        <ele>35.584088</ele>
        <time>2020-10-06T13:18:32.449Z</time>
      </trkpt>
      <trkpt lat="59.3875" lon="24.23936">
        <ele>33.754599</ele>
        <time>2020-10-06T13:18:47.737Z</time>
      </trkpt>
      <trkpt lat="59.38732" lon="24.23918">
        <ele>33.332014</ele>
        <time>2020-10-06T13:18:51.136Z</time>
      </trkpt>
      <trkpt lat="59.38644" lon="24.23797">
        <ele>31.540508</ele>
        <time>2020-10-06T13:19:09.833Z</time>
      </trkpt>
      <trkpt lat="59.38616" lon="24.23769">
        <ele>31.055802</ele>
        <time>2020-10-06T13:19:15.636Z</time>
      </trkpt>
      <trkpt lat="59.38611" lon="24.23765">
        <ele>30.971113</ele>
        <time>2020-10-06T13:19:16.671Z</time>
      </trkpt>
      <trkpt lat="59.38605" lon="24.2377">
        <ele>30.874902</ele>
        <time>2020-10-06T13:19:17.907Z</time>
      </trkpt>
      <trkpt lat="59.38596" lon="24.23774">
        <ele>30.73909</ele>
        <time>2020-10-06T13:19:19.627Z</time>
      </trkpt>
      <trkpt lat="59.3859" lon="24.23768">
        <ele>30.631577</ele>
        <time>2020-10-06T13:19:21.111Z</time>
      </trkpt>
      <trkpt lat="59.38557" lon="24.23735">
        <ele>30.069597</ele>
        <time>2020-10-06T13:19:28.758Z</time>
      </trkpt>
      <trkpt lat="59.3855" lon="24.23722">
        <ele>29.993384</ele>
        <time>2020-10-06T13:19:30.968Z</time>
      </trkpt>
      <trkpt lat="59.38549" lon="24.23715">
        <ele>29.980109</ele>
        <time>2020-10-06T13:19:31.734Z</time>
      </trkpt>
      <trkpt lat="59.38549" lon="24.23704">
        <ele>29.959378</ele>
        <time>2020-10-06T13:19:32.903Z</time>
      </trkpt>
      <trkpt lat="59.3855" lon="24.23681">
        <ele>29.916216</ele>
        <time>2020-10-06T13:19:35.359Z</time>
      </trkpt>
      <trkpt lat="59.38551" lon="24.23668">
        <ele>29.892987</ele>
        <time>2020-10-06T13:19:36.710Z</time>
      </trkpt>
      <trkpt lat="59.38551" lon="24.23668">
        <ele>29.892987</ele>
        <time>2020-10-06T13:19:36.716Z</time>
      </trkpt>
      <trkpt lat="59.38551" lon="24.23668">
        <ele>29.892987</ele>
        <time>2020-10-06T13:19:36.762Z</time>
      </trkpt>
      <trkpt lat="59.3855" lon="24.23681">
        <ele>29.869759</ele>
        <time>2020-10-06T13:19:38.095Z</time>
      </trkpt>
      <trkpt lat="59.38549" lon="24.23704">
        <ele>29.826597</ele>
        <time>2020-10-06T13:19:40.658Z</time>
      </trkpt>
      <trkpt lat="59.38532" lon="24.23674">
        <ele>29.742412</ele>
        <time>2020-10-06T13:19:45.387Z</time>
      </trkpt>
      <trkpt lat="59.38437" lon="24.23585">
        <ele>29.352719</ele>
        <time>2020-10-06T13:20:08.258Z</time>
      </trkpt>
      <trkpt lat="59.38396" lon="24.23562">
        <ele>29.188597</ele>
        <time>2020-10-06T13:20:17.218Z</time>
      </trkpt>
      <trkpt lat="59.38349" lon="24.23557">
        <ele>29.00829</ele>
        <time>2020-10-06T13:20:27.102Z</time>
      </trkpt>
      <trkpt lat="59.38307" lon="24.23581">
        <ele>28.837874</ele>
        <time>2020-10-06T13:20:36.402Z</time>
      </trkpt>
      <trkpt lat="59.38081" lon="24.23702">
        <ele>27.583812</ele>
        <time>2020-10-06T13:21:24.326Z</time>
      </trkpt>
      <trkpt lat="59.37931" lon="24.23777">
        <ele>26.207999</ele>
        <time>2020-10-06T13:21:54.498Z</time>
      </trkpt>
      <trkpt lat="59.37909" lon="24.23789">
        <ele>25.98534</ele>
        <time>2020-10-06T13:21:59.055Z</time>
      </trkpt>
      <trkpt lat="59.37886" lon="24.2381">
        <ele>25.722256</ele>
        <time>2020-10-06T13:22:03.845Z</time>
      </trkpt>
      <trkpt lat="59.3788" lon="24.23813">
        <ele>25.655574</ele>
        <time>2020-10-06T13:22:05.014Z</time>
      </trkpt>
      <trkpt lat="59.37838" lon="24.23836">
        <ele>25.183769</ele>
        <time>2020-10-06T13:22:13.514Z</time>
      </trkpt>
      <trkpt lat="59.37786" lon="24.23863">
        <ele>24.603088</ele>
        <time>2020-10-06T13:22:23.653Z</time>
      </trkpt>
      <trkpt lat="59.3775" lon="24.23883">
        <ele>24.2036</ele>
        <time>2020-10-06T13:22:30.674Z</time>
      </trkpt>
      <trkpt lat="59.37748" lon="24.23891">
        <ele>24.152482</ele>
        <time>2020-10-06T13:22:31.597Z</time>
      </trkpt>
      <trkpt lat="59.3772" lon="24.23914">
        <ele>23.984402</ele>
        <time>2020-10-06T13:22:37.442Z</time>
      </trkpt>
      <trkpt lat="59.37709" lon="24.23923">
        <ele>23.920957</ele>
        <time>2020-10-06T13:22:39.918Z</time>
      </trkpt>
      <trkpt lat="59.37696" lon="24.23939">
        <ele>23.837783</ele>
        <time>2020-10-06T13:22:43.191Z</time>
      </trkpt>
      <trkpt lat="59.37688" lon="24.23947">
        <ele>23.791648</ele>
        <time>2020-10-06T13:22:44.897Z</time>
      </trkpt>
      <trkpt lat="59.37641" lon="24.24011">
        <ele>23.490566</ele>
        <time>2020-10-06T13:22:57.020Z</time>
      </trkpt>
      <trkpt lat="59.3761" lon="24.2406">
        <ele>23.280906</ele>
        <time>2020-10-06T13:23:05.317Z</time>
      </trkpt>
      <trkpt lat="59.37571" lon="24.2412">
        <ele>23.129551</ele>
        <time>2020-10-06T13:23:15.631Z</time>
      </trkpt>
      <trkpt lat="59.37558" lon="24.24141">
        <ele>23.099729</ele>
        <time>2020-10-06T13:23:19.601Z</time>
      </trkpt>
      <trkpt lat="59.37547" lon="24.24163">
        <ele>23.072661</ele>
        <time>2020-10-06T13:23:22.885Z</time>
      </trkpt>
      <trkpt lat="59.37491" lon="24.24255">
        <ele>22.946345</ele>
        <time>2020-10-06T13:23:38.986Z</time>
      </trkpt>
      <trkpt lat="59.37476" lon="24.24275">
        <ele>22.914663</ele>
        <time>2020-10-06T13:23:43.272Z</time>
      </trkpt>
      <trkpt lat="59.37458" lon="24.24295">
        <ele>22.87855</ele>
        <time>2020-10-06T13:23:47.687Z</time>
      </trkpt>
      <trkpt lat="59.37302" lon="24.24451">
        <ele>22.319576</ele>
        <time>2020-10-06T13:24:24.488Z</time>
      </trkpt>
      <trkpt lat="59.37239" lon="24.24504">
        <ele>21.841255</ele>
        <time>2020-10-06T13:24:38.665Z</time>
      </trkpt>
      <trkpt lat="59.37183" lon="24.24527">
        <ele>21.407351</ele>
        <time>2020-10-06T13:24:50.168Z</time>
      </trkpt>
      <trkpt lat="59.37084" lon="24.24535">
        <ele>20.494497</ele>
        <time>2020-10-06T13:25:09.196Z</time>
      </trkpt>
      <trkpt lat="59.37" lon="24.24544">
        <ele>19.470312</ele>
        <time>2020-10-06T13:25:24.842Z</time>
      </trkpt>
      <trkpt lat="59.36844" lon="24.2458">
        <ele>17.759401</ele>
        <time>2020-10-06T13:25:54.535Z</time>
      </trkpt>
      <trkpt lat="59.3678" lon="24.24629">
        <ele>17.07006</ele>
        <time>2020-10-06T13:26:08.168Z</time>
      </trkpt>
      <trkpt lat="59.3671" lon="24.24699">
        <ele>16.548814</ele>
        <time>2020-10-06T13:26:24.107Z</time>
      </trkpt>
      <trkpt lat="59.36659" lon="24.24766">
        <ele>16.18447</ele>
        <time>2020-10-06T13:26:36.824Z</time>
      </trkpt>
      <trkpt lat="59.36582" lon="24.24897">
        <ele>15.512419</ele>
        <time>2020-10-06T13:26:57.447Z</time>
      </trkpt>
      <trkpt lat="59.36425" lon="24.25168">
        <ele>14.064931</ele>
        <time>2020-10-06T13:27:38.896Z</time>
      </trkpt>
      <trkpt lat="59.36229" lon="24.25473">
        <ele>12.953159</ele>
        <time>2020-10-06T13:28:30.881Z</time>
      </trkpt>
      <trkpt lat="59.36153" lon="24.2558">
        <ele>12.829271</ele>
        <time>2020-10-06T13:28:51.711Z</time>
      </trkpt>
      <trkpt lat="59.36102" lon="24.25655">
        <ele>12.81402</ele>
        <time>2020-10-06T13:29:06.014Z</time>
      </trkpt>
      <trkpt lat="59.35986" lon="24.25737">
        <ele>12.730723</ele>
        <time>2020-10-06T13:29:33.120Z</time>
      </trkpt>
      <trkpt lat="59.35888" lon="24.2571">
        <ele>12.630122</ele>
        <time>2020-10-06T13:29:54.484Z</time>
      </trkpt>
      <trkpt lat="59.3579" lon="24.25684">
        <ele>12.723519</ele>
        <time>2020-10-06T13:30:16.525Z</time>
      </trkpt>
      <trkpt lat="59.35746" lon="24.25688">
        <ele>12.778451</ele>
        <time>2020-10-06T13:30:26.716Z</time>
      </trkpt>
      <trkpt lat="59.35638" lon="24.2572">
        <ele>13.029447</ele>
        <time>2020-10-06T13:30:52.421Z</time>
      </trkpt>
      <trkpt lat="59.3535" lon="24.25818">
        <ele>14.028772</ele>
        <time>2020-10-06T13:32:01.504Z</time>
      </trkpt>
      <trkpt lat="59.35156" lon="24.26021">
        <ele>15.12794</ele>
        <time>2020-10-06T13:32:54.590Z</time>
      </trkpt>
      <trkpt lat="59.35138" lon="24.26051">
        <ele>15.31131</ele>
        <time>2020-10-06T13:33:00.418Z</time>
      </trkpt>
      <trkpt lat="59.35119" lon="24.26151">
        <ele>15.731044</ele>
        <time>2020-10-06T13:33:13.762Z</time>
      </trkpt>
      <trkpt lat="59.35105" lon="24.26306">
        <ele>16.475436</ele>
        <time>2020-10-06T13:33:34.541Z</time>
      </trkpt>
      <trkpt lat="59.35096" lon="24.26366">
        <ele>17.112797</ele>
        <time>2020-10-06T13:33:43.827Z</time>
      </trkpt>
      <trkpt lat="59.35085" lon="24.26407">
        <ele>17.578751</ele>
        <time>2020-10-06T13:33:50.844Z</time>
      </trkpt>
      <trkpt lat="59.35065" lon="24.26451">
        <ele>18.176146</ele>
        <time>2020-10-06T13:34:00.159Z</time>
      </trkpt>
      <trkpt lat="59.35045" lon="24.26475">
        <ele>18.653335</ele>
        <time>2020-10-06T13:34:07.885Z</time>
      </trkpt>
      <trkpt lat="59.35023" lon="24.26489">
        <ele>19.109677</ele>
        <time>2020-10-06T13:34:15.152Z</time>
      </trkpt>
      <trkpt lat="59.35008" lon="24.26504">
        <ele>19.447086</ele>
        <time>2020-10-06T13:34:23.167Z</time>
      </trkpt>
      <trkpt lat="59.3491" lon="24.26588">
        <ele>21.40753</ele>
        <time>2020-10-06T13:34:57.176Z</time>
      </trkpt>
      <trkpt lat="59.34857" lon="24.26616">
        <ele>22.373128</ele>
        <time>2020-10-06T13:35:13.179Z</time>
      </trkpt>
      <trkpt lat="59.34824" lon="24.26656">
        <ele>23.070777</ele>
        <time>2020-10-06T13:35:23.626Z</time>
      </trkpt>
      <trkpt lat="59.34735" lon="24.26788">
        <ele>22.984492</ele>
        <time>2020-10-06T13:35:48.622Z</time>
      </trkpt>
      <trkpt lat="59.34674" lon="24.26824">
        <ele>22.935612</ele>
        <time>2020-10-06T13:36:01.364Z</time>
      </trkpt>
      <trkpt lat="59.34611" lon="24.26853">
        <ele>22.570756</ele>
        <time>2020-10-06T13:36:14.374Z</time>
      </trkpt>
      <trkpt lat="59.34531" lon="24.26857">
        <ele>22.094749</ele>
        <time>2020-10-06T13:36:30.515Z</time>
      </trkpt>
      <trkpt lat="59.34501" lon="24.26847">
        <ele>21.911687</ele>
        <time>2020-10-06T13:36:36.788Z</time>
      </trkpt>
      <trkpt lat="59.34455" lon="24.2683">
        <ele>21.740856</ele>
        <time>2020-10-06T13:36:46.504Z</time>
      </trkpt>
      <trkpt lat="59.34369" lon="24.26767">
        <ele>21.451483</ele>
        <time>2020-10-06T13:37:06.515Z</time>
      </trkpt>
      <trkpt lat="59.34316" lon="24.26743">
        <ele>21.283677</ele>
        <time>2020-10-06T13:37:18.019Z</time>
      </trkpt>
      <trkpt lat="59.34252" lon="24.26726">
        <ele>21.131053</ele>
        <time>2020-10-06T13:37:31.147Z</time>
      </trkpt>
      <trkpt lat="59.34198" lon="24.26712">
        <ele>21.005068</ele>
        <time>2020-10-06T13:37:42.427Z</time>
      </trkpt>
      <trkpt lat="59.34199" lon="24.26687">
        <ele>20.974466</ele>
        <time>2020-10-06T13:37:45.429Z</time>
      </trkpt>
      <trkpt lat="59.34135" lon="24.26669">
        <ele>21.003382</ele>
        <time>2020-10-06T13:38:00.315Z</time>
      </trkpt>
      <trkpt lat="59.34123" lon="24.26666">
        <ele>21.08286</ele>
        <time>2020-10-06T13:38:03.234Z</time>
      </trkpt>
      <trkpt lat="59.34142" lon="24.2649">
        <ele>21.671099</ele>
        <time>2020-10-06T13:38:26.827Z</time>
      </trkpt>
      <trkpt lat="59.34146" lon="24.26421">
        <ele>21.895514</ele>
        <time>2020-10-06T13:38:35.984Z</time>
      </trkpt>
      <trkpt lat="59.34144" lon="24.26378">
        <ele>22.019024</ele>
        <time>2020-10-06T13:38:41.430Z</time>
      </trkpt>
      <trkpt lat="59.3414" lon="24.26353">
        <ele>21.998249</ele>
        <time>2020-10-06T13:38:45.044Z</time>
      </trkpt>
      <trkpt lat="59.34136" lon="24.26331">
        <ele>21.979584</ele>
        <time>2020-10-06T13:38:47.779Z</time>
      </trkpt>
      <trkpt lat="59.34126" lon="24.26279">
        <ele>21.934898</ele>
        <time>2020-10-06T13:38:54.634Z</time>
      </trkpt>
      <trkpt lat="59.34107" lon="24.2619">
        <ele>21.857565</ele>
        <time>2020-10-06T13:39:05.216Z</time>
      </trkpt>
      <trkpt lat="59.34084" lon="24.26086">
        <ele>21.766733</ele>
        <time>2020-10-06T13:39:17.090Z</time>
      </trkpt>
      <trkpt lat="59.34079" lon="24.26065">
        <ele>21.747998</ele>
        <time>2020-10-06T13:39:19.339Z</time>
      </trkpt>
      <trkpt lat="59.34016" lon="24.2579">
        <ele>20.43023</ele>
        <time>2020-10-06T13:39:48.915Z</time>
      </trkpt>
      <trkpt lat="59.33959" lon="24.25552">
        <ele>19.76898</ele>
        <time>2020-10-06T13:40:17.001Z</time>
      </trkpt>
      <trkpt lat="59.3392" lon="24.25427">
        <ele>19.489859</ele>
        <time>2020-10-06T13:40:32.963Z</time>
      </trkpt>
      <trkpt lat="59.33903" lon="24.25389">
        <ele>19.413038</ele>
        <time>2020-10-06T13:40:38.486Z</time>
      </trkpt>
      <trkpt lat="59.33767" lon="24.25132">
        <ele>18.742682</ele>
        <time>2020-10-06T13:41:18.527Z</time>
      </trkpt>
      <trkpt lat="59.33764" lon="24.25125">
        <ele>18.707139</ele>
        <time>2020-10-06T13:41:19.629Z</time>
      </trkpt>
      <trkpt lat="59.3375" lon="24.251">
        <ele>18.583109</ele>
        <time>2020-10-06T13:41:23.385Z</time>
      </trkpt>
      <trkpt lat="59.33733" lon="24.25061">
        <ele>18.404181</ele>
        <time>2020-10-06T13:41:28.739Z</time>
      </trkpt>
      <trkpt lat="59.33716" lon="24.24996">
        <ele>18.152472</ele>
        <time>2020-10-06T13:41:36.178Z</time>
      </trkpt>
      <trkpt lat="59.33647" lon="24.24659">
        <ele>16.256356</ele>
        <time>2020-10-06T13:42:12.454Z</time>
      </trkpt>
      <trkpt lat="59.33641" lon="24.24611">
        <ele>15.958236</ele>
        <time>2020-10-06T13:42:17.032Z</time>
      </trkpt>
      <trkpt lat="59.33638" lon="24.24563">
        <ele>15.665839</ele>
        <time>2020-10-06T13:42:21.335Z</time>
      </trkpt>
      <trkpt lat="59.33636" lon="24.24517">
        <ele>15.451562</ele>
        <time>2020-10-06T13:42:25.368Z</time>
      </trkpt>
      <trkpt lat="59.33637" lon="24.24452">
        <ele>15.175173</ele>
        <time>2020-10-06T13:42:31.489Z</time>
      </trkpt>
      <trkpt lat="59.33639" lon="24.24331">
        <ele>14.660409</ele>
        <time>2020-10-06T13:42:44.150Z</time>
      </trkpt>
      <trkpt lat="59.33641" lon="24.2424">
        <ele>14.275747</ele>
        <time>2020-10-06T13:42:53.870Z</time>
      </trkpt>
      <trkpt lat="59.33642" lon="24.24159">
        <ele>14.159533</ele>
        <time>2020-10-06T13:43:02.310Z</time>
      </trkpt>
      <trkpt lat="59.33646" lon="24.23955">
        <ele>14.400938</ele>
        <time>2020-10-06T13:43:27.207Z</time>
      </trkpt>
      <trkpt lat="59.3365" lon="24.23875">
        <ele>14.495549</ele>
        <time>2020-10-06T13:43:38.083Z</time>
      </trkpt>
      <trkpt lat="59.3366" lon="24.23697">
        <ele>14.294288</ele>
        <time>2020-10-06T13:43:57.949Z</time>
      </trkpt>
      <trkpt lat="59.33666" lon="24.23628">
        <ele>14.188182</ele>
        <time>2020-10-06T13:44:04.978Z</time>
      </trkpt>
      <trkpt lat="59.33675" lon="24.23521">
        <ele>14.024662</ele>
        <time>2020-10-06T13:44:15.943Z</time>
      </trkpt>
      <trkpt lat="59.33769" lon="24.22606">
        <ele>13.450208</ele>
        <time>2020-10-06T13:45:59.817Z</time>
      </trkpt>
      <trkpt lat="59.33781" lon="24.2251">
        <ele>13.458716</ele>
        <time>2020-10-06T13:46:11.706Z</time>
      </trkpt>
      <trkpt lat="59.33799" lon="24.22346">
        <ele>13.480973</ele>
        <time>2020-10-06T13:46:31.629Z</time>
      </trkpt>
      <trkpt lat="59.33811" lon="24.22261">
        <ele>13.49441</ele>
        <time>2020-10-06T13:46:42.084Z</time>
      </trkpt>
      <trkpt lat="59.33827" lon="24.22149">
        <ele>13.512053</ele>
        <time>2020-10-06T13:46:55.311Z</time>
      </trkpt>
      <trkpt lat="59.33857" lon="24.21963">
        <ele>12.789393</ele>
        <time>2020-10-06T13:47:15.495Z</time>
      </trkpt>
      <trkpt lat="59.33884" lon="24.21783">
        <ele>11.965304</ele>
        <time>2020-10-06T13:47:33.875Z</time>
      </trkpt>
      <trkpt lat="59.33886" lon="24.21767">
        <ele>11.862749</ele>
        <time>2020-10-06T13:47:35.291Z</time>
      </trkpt>
      <trkpt lat="59.33916" lon="24.21482">
        <ele>10.028684</ele>
        <time>2020-10-06T13:48:02.838Z</time>
      </trkpt>
      <trkpt lat="59.33924" lon="24.21387">
        <ele>9.74767</ele>
        <time>2020-10-06T13:48:12.687Z</time>
      </trkpt>
      <trkpt lat="59.33939" lon="24.21058">
        <ele>9.801939</ele>
        <time>2020-10-06T13:48:50.917Z</time>
      </trkpt>
      <trkpt lat="59.33944" lon="24.20893">
        <ele>10.399148</ele>
        <time>2020-10-06T13:49:12.638Z</time>
      </trkpt>
      <trkpt lat="59.33948" lon="24.20745">
        <ele>10.933874</ele>
        <time>2020-10-06T13:49:32.142Z</time>
      </trkpt>
      <trkpt lat="59.33949" lon="24.20738">
        <ele>10.962801</ele>
        <time>2020-10-06T13:49:33.159Z</time>
      </trkpt>
      <trkpt lat="59.33954" lon="24.20564">
        <ele>11.631993</ele>
        <time>2020-10-06T13:49:55.547Z</time>
      </trkpt>
      <trkpt lat="59.33957" lon="24.20483">
        <ele>11.94495</ele>
        <time>2020-10-06T13:50:05.896Z</time>
      </trkpt>
      <trkpt lat="59.33968" lon="24.20359">
        <ele>12.43748</ele>
        <time>2020-10-06T13:50:22.273Z</time>
      </trkpt>
      <trkpt lat="59.33981" lon="24.20281">
        <ele>12.778295</ele>
        <time>2020-10-06T13:50:33.214Z</time>
      </trkpt>
      <trkpt lat="59.33994" lon="24.20232">
        <ele>13.011421</ele>
        <time>2020-10-06T13:50:40.562Z</time>
      </trkpt>
      <trkpt lat="59.34015" lon="24.20174">
        <ele>13.301924</ele>
        <time>2020-10-06T13:50:49.776Z</time>
      </trkpt>
      <trkpt lat="59.34026" lon="24.20147">
        <ele>13.447643</ele>
        <time>2020-10-06T13:50:54.446Z</time>
      </trkpt>
      <trkpt lat="59.34047" lon="24.20097">
        <ele>13.713745</ele>
        <time>2020-10-06T13:51:02.920Z</time>
      </trkpt>
      <trkpt lat="59.3421" lon="24.19707">
        <ele>15.036016</ele>
        <time>2020-10-06T13:52:05.343Z</time>
      </trkpt>
      <trkpt lat="59.34252" lon="24.1958">
        <ele>15.357735</ele>
        <time>2020-10-06T13:52:23.390Z</time>
      </trkpt>
      <trkpt lat="59.34264" lon="24.19535">
        <ele>15.465546</ele>
        <time>2020-10-06T13:52:29.530Z</time>
      </trkpt>
      <trkpt lat="59.34286" lon="24.1945">
        <ele>15.780906</ele>
        <time>2020-10-06T13:52:41.398Z</time>
      </trkpt>
      <trkpt lat="59.34291" lon="24.1943">
        <ele>15.864098</ele>
        <time>2020-10-06T13:52:44.292Z</time>
      </trkpt>
      <trkpt lat="59.34295" lon="24.19412">
        <ele>15.933267</ele>
        <time>2020-10-06T13:52:46.707Z</time>
      </trkpt>
      <trkpt lat="59.34432" lon="24.18822">
        <ele>18.130262</ele>
        <time>2020-10-06T13:54:11.462Z</time>
      </trkpt>
      <trkpt lat="59.34456" lon="24.18718">
        <ele>18.104028</ele>
        <time>2020-10-06T13:54:23.904Z</time>
      </trkpt>
      <trkpt lat="59.3446" lon="24.18701">
        <ele>18.099802</ele>
        <time>2020-10-06T13:54:25.883Z</time>
      </trkpt>
      <trkpt lat="59.34489" lon="24.18542">
        <ele>18.08902</ele>
        <time>2020-10-06T13:54:43.943Z</time>
      </trkpt>
      <trkpt lat="59.34499" lon="24.18462">
        <ele>18.247029</ele>
        <time>2020-10-06T13:54:52.940Z</time>
      </trkpt>
      <trkpt lat="59.34501" lon="24.18429">
        <ele>18.309618</ele>
        <time>2020-10-06T13:54:56.736Z</time>
      </trkpt>
      <trkpt lat="59.34502" lon="24.18378">
        <ele>18.408179</ele>
        <time>2020-10-06T13:55:02.957Z</time>
      </trkpt>
      <trkpt lat="59.34498" lon="24.18303">
        <ele>18.554074</ele>
        <time>2020-10-06T13:55:12.490Z</time>
      </trkpt>
      <trkpt lat="59.3448" lon="24.18128">
        <ele>19.247809</ele>
        <time>2020-10-06T13:55:36.369Z</time>
      </trkpt>
      <trkpt lat="59.34433" lon="24.17865">
        <ele>20.979371</ele>
        <time>2020-10-06T13:56:15.869Z</time>
      </trkpt>
      <trkpt lat="59.3437" lon="24.17522">
        <ele>22.491333</ele>
        <time>2020-10-06T13:57:04.074Z</time>
      </trkpt>
      <trkpt lat="59.34298" lon="24.17128">
        <ele>22.217177</ele>
        <time>2020-10-06T13:57:49.594Z</time>
      </trkpt>
      <trkpt lat="59.34183" lon="24.165">
        <ele>21.442618</ele>
        <time>2020-10-06T13:59:02.701Z</time>
      </trkpt>
      <trkpt lat="59.34044" lon="24.15744">
        <ele>20.916328</ele>
        <time>2020-10-06T14:00:32.670Z</time>
      </trkpt>
      <trkpt lat="59.34014" lon="24.15543">
        <ele>20.6928</ele>
        <time>2020-10-06T14:00:55.205Z</time>
      </trkpt>
      <trkpt lat="59.34008" lon="24.15479">
        <ele>20.648362</ele>
        <time>2020-10-06T14:01:02.195Z</time>
      </trkpt>
      <trkpt lat="59.34001" lon="24.15363">
        <ele>20.56823</ele>
        <time>2020-10-06T14:01:14.848Z</time>
      </trkpt>
      <trkpt lat="59.34002" lon="24.14371">
        <ele>20.887904</ele>
        <time>2020-10-06T14:03:09.018Z</time>
      </trkpt>
      <trkpt lat="59.33998" lon="24.14065">
        <ele>21.501218</ele>
        <time>2020-10-06T14:03:47.008Z</time>
      </trkpt>
      <trkpt lat="59.33953" lon="24.12813">
        <ele>24.484287</ele>
        <time>2020-10-06T14:06:23.033Z</time>
      </trkpt>
      <trkpt lat="59.33928" lon="24.12086">
        <ele>23.859518</ele>
        <time>2020-10-06T14:07:41.766Z</time>
      </trkpt>
      <trkpt lat="59.33927" lon="24.11998">
        <ele>23.849614</ele>
        <time>2020-10-06T14:07:52.342Z</time>
      </trkpt>
      <trkpt lat="59.33939" lon="24.11727">
        <ele>24.254888</ele>
        <time>2020-10-06T14:08:25.998Z</time>
      </trkpt>
      <trkpt lat="59.33996" lon="24.10835">
        <ele>23.731338</ele>
        <time>2020-10-06T14:10:07.427Z</time>
      </trkpt>
      <trkpt lat="59.34021" lon="24.10436">
        <ele>22.235013</ele>
        <time>2020-10-06T14:10:46.545Z</time>
      </trkpt>
      <trkpt lat="59.33984" lon="24.10424">
        <ele>21.952117</ele>
        <time>2020-10-06T14:10:54.084Z</time>
      </trkpt>
      <trkpt lat="59.33971" lon="24.1042">
        <ele>21.849723</ele>
        <time>2020-10-06T14:10:56.963Z</time>
      </trkpt>
      <trkpt lat="59.33901" lon="24.10397">
        <ele>21.399217</ele>
        <time>2020-10-06T14:11:12.204Z</time>
      </trkpt>
      <trkpt lat="59.33659" lon="24.10313">
        <ele>19.868746</ele>
        <time>2020-10-06T14:12:02.237Z</time>
      </trkpt>
      <trkpt lat="59.33505" lon="24.10269">
        <ele>18.244241</ele>
        <time>2020-10-06T14:12:32.134Z</time>
      </trkpt>
      <trkpt lat="59.33425" lon="24.10269">
        <ele>17.215329</ele>
        <time>2020-10-06T14:12:47.208Z</time>
      </trkpt>
      <trkpt lat="59.33281" lon="24.1027">
        <ele>14.739723</ele>
        <time>2020-10-06T14:13:12.956Z</time>
      </trkpt>
      <trkpt lat="59.33209" lon="24.10248">
        <ele>13.476812</ele>
        <time>2020-10-06T14:13:25.812Z</time>
      </trkpt>
      <trkpt lat="59.33115" lon="24.10194">
        <ele>12.031401</ele>
        <time>2020-10-06T14:13:43.372Z</time>
      </trkpt>
      <trkpt lat="59.33112" lon="24.10209">
        <ele>11.907652</ele>
        <time>2020-10-06T14:13:44.915Z</time>
      </trkpt>
      <trkpt lat="59.33062" lon="24.10418">
        <ele>10.817179</ele>
        <time>2020-10-06T14:14:07.959Z</time>
      </trkpt>
      <trkpt lat="59.33031" lon="24.10533">
        <ele>10.561176</ele>
        <time>2020-10-06T14:14:22.741Z</time>
      </trkpt>
      <trkpt lat="59.32965" lon="24.1072">
        <ele>10.125998</ele>
        <time>2020-10-06T14:14:47.775Z</time>
      </trkpt>
      <trkpt lat="59.32936" lon="24.10806">
        <ele>9.932627</ele>
        <time>2020-10-06T14:14:58.893Z</time>
      </trkpt>
      <trkpt lat="59.32911" lon="24.1089">
        <ele>9.75137</ele>
        <time>2020-10-06T14:15:09.139Z</time>
      </trkpt>
      <trkpt lat="59.32899" lon="24.1094">
        <ele>9.639167</ele>
        <time>2020-10-06T14:15:14.873Z</time>
      </trkpt>
      <trkpt lat="59.32862" lon="24.11145">
        <ele>9.159319</ele>
        <time>2020-10-06T14:15:37.489Z</time>
      </trkpt>
      <trkpt lat="59.32846" lon="24.11234">
        <ele>8.950187</ele>
        <time>2020-10-06T14:15:47.951Z</time>
      </trkpt>
      <trkpt lat="59.32794" lon="24.11521">
        <ele>8.665932</ele>
        <time>2020-10-06T14:16:21.908Z</time>
      </trkpt>
      <trkpt lat="59.32776" lon="24.11609">
        <ele>8.527802</ele>
        <time>2020-10-06T14:16:32.295Z</time>
      </trkpt>
      <trkpt lat="59.32756" lon="24.11682">
        <ele>8.305268</ele>
        <time>2020-10-06T14:16:41.129Z</time>
      </trkpt>
      <trkpt lat="59.32716" lon="24.1179">
        <ele>7.945667</ele>
        <time>2020-10-06T14:16:55.041Z</time>
      </trkpt>
      <trkpt lat="59.32702" lon="24.11817">
        <ele>7.844637</ele>
        <time>2020-10-06T14:16:58.846Z</time>
      </trkpt>
      <trkpt lat="59.32688" lon="24.11844">
        <ele>7.74024</ele>
        <time>2020-10-06T14:17:02.845Z</time>
      </trkpt>
      <trkpt lat="59.32661" lon="24.11887">
        <ele>7.515349</ele>
        <time>2020-10-06T14:17:09.744Z</time>
      </trkpt>
      <trkpt lat="59.32463" lon="24.1212">
        <ele>5.962448</ele>
        <time>2020-10-06T14:17:55.838Z</time>
      </trkpt>
      <trkpt lat="59.32416" lon="24.12192">
        <ele>5.658169</ele>
        <time>2020-10-06T14:18:08.209Z</time>
      </trkpt>
      <trkpt lat="59.3238" lon="24.12264">
        <ele>5.410464</ele>
        <time>2020-10-06T14:18:18.981Z</time>
      </trkpt>
      <trkpt lat="59.32265" lon="24.12533">
        <ele>5.48374</ele>
        <time>2020-10-06T14:18:59.235Z</time>
      </trkpt>
      <trkpt lat="59.322" lon="24.12674">
        <ele>5.91439</ele>
        <time>2020-10-06T14:19:22.351Z</time>
      </trkpt>
      <trkpt lat="59.32139" lon="24.1277">
        <ele>6.26155</ele>
        <time>2020-10-06T14:19:41.645Z</time>
      </trkpt>
      <trkpt lat="59.32018" lon="24.12876">
        <ele>7.179733</ele>
        <time>2020-10-06T14:20:14.936Z</time>
      </trkpt>
      <trkpt lat="59.31943" lon="24.12933">
        <ele>7.657247</ele>
        <time>2020-10-06T14:20:35.177Z</time>
      </trkpt>
      <trkpt lat="59.31783" lon="24.13055">
        <ele>8.234689</ele>
        <time>2020-10-06T14:21:15.754Z</time>
      </trkpt>
      <trkpt lat="59.31588" lon="24.13186">
        <ele>8.06047</ele>
        <time>2020-10-06T14:22:00.327Z</time>
      </trkpt>
      <trkpt lat="59.31535" lon="24.1321">
        <ele>8.023163</ele>
        <time>2020-10-06T14:22:12.183Z</time>
      </trkpt>
      <trkpt lat="59.31467" lon="24.13221">
        <ele>7.976445</ele>
        <time>2020-10-06T14:22:27.399Z</time>
      </trkpt>
      <trkpt lat="59.31388" lon="24.13218">
        <ele>8.152915</ele>
        <time>2020-10-06T14:22:45.640Z</time>
      </trkpt>
      <trkpt lat="59.31039" lon="24.13071">
        <ele>9.000002</ele>
        <time>2020-10-06T14:24:09.711Z</time>
      </trkpt>
      <trkpt lat="59.30729" lon="24.12924">
        <ele>8.745537</ele>
        <time>2020-10-06T14:25:18.821Z</time>
      </trkpt>
      <trkpt lat="59.30705" lon="24.12908">
        <ele>8.759161</ele>
        <time>2020-10-06T14:25:24.187Z</time>
      </trkpt>
      <trkpt lat="59.30661" lon="24.1288">
        <ele>8.784424</ele>
        <time>2020-10-06T14:25:34.429Z</time>
      </trkpt>
      <trkpt lat="59.30595" lon="24.12832">
        <ele>8.822493</ele>
        <time>2020-10-06T14:25:50.854Z</time>
      </trkpt>
      <trkpt lat="59.30535" lon="24.12782">
        <ele>8.904986</ele>
        <time>2020-10-06T14:26:06.183Z</time>
      </trkpt>
      <trkpt lat="59.30503" lon="24.12752">
        <ele>8.955635</ele>
        <time>2020-10-06T14:26:14.227Z</time>
      </trkpt>
      <trkpt lat="59.30471" lon="24.12721">
        <ele>9.006763</ele>
        <time>2020-10-06T14:26:22.295Z</time>
      </trkpt>
      <trkpt lat="59.30468" lon="24.12718">
        <ele>9.011696</ele>
        <time>2020-10-06T14:26:23.097Z</time>
      </trkpt>
      <trkpt lat="59.30372" lon="24.1262">
        <ele>9.069573</ele>
        <time>2020-10-06T14:26:47.584Z</time>
      </trkpt>
      <trkpt lat="59.30319" lon="24.12565">
        <ele>9.052606</ele>
        <time>2020-10-06T14:27:00.554Z</time>
      </trkpt>
      <trkpt lat="59.30237" lon="24.1248">
        <ele>9.111166</ele>
        <time>2020-10-06T14:27:20.898Z</time>
      </trkpt>
      <trkpt lat="59.30122" lon="24.1236">
        <ele>9.452968</ele>
        <time>2020-10-06T14:27:51.642Z</time>
      </trkpt>
      <trkpt lat="59.29858" lon="24.1209">
        <ele>10.497454</ele>
        <time>2020-10-06T14:29:03.171Z</time>
      </trkpt>
      <trkpt lat="59.29774" lon="24.12025">
        <ele>10.689478</ele>
        <time>2020-10-06T14:29:23.355Z</time>
      </trkpt>
      <trkpt lat="59.29641" lon="24.11948">
        <ele>10.744537</ele>
        <time>2020-10-06T14:29:53.900Z</time>
      </trkpt>
      <trkpt lat="59.29596" lon="24.11929">
        <ele>10.859512</ele>
        <time>2020-10-06T14:30:04.578Z</time>
      </trkpt>
      <trkpt lat="59.29588" lon="24.12009">
        <ele>11.18149</ele>
        <time>2020-10-06T14:30:14.533Z</time>
      </trkpt>
      <trkpt lat="59.29541" lon="24.12261">
        <ele>12.308083</ele>
        <time>2020-10-06T14:30:50.221Z</time>
      </trkpt>
      <trkpt lat="59.29528" lon="24.12294">
        <ele>12.58607</ele>
        <time>2020-10-06T14:30:56.298Z</time>
      </trkpt>
      <trkpt lat="59.29501" lon="24.1232">
        <ele>12.978914</ele>
        <time>2020-10-06T14:31:04.608Z</time>
      </trkpt>
      <trkpt lat="59.29475" lon="24.12332">
        <ele>13.324939</ele>
        <time>2020-10-06T14:31:11.638Z</time>
      </trkpt>
      <trkpt lat="59.29465" lon="24.12337">
        <ele>13.460436</ele>
        <time>2020-10-06T14:31:14.876Z</time>
      </trkpt>
      <trkpt lat="59.29307" lon="24.12355">
        <ele>15.258436</ele>
        <time>2020-10-06T14:31:58.986Z</time>
      </trkpt>
      <trkpt lat="59.29246" lon="24.12307">
        <ele>15.88637</ele>
        <time>2020-10-06T14:32:15.681Z</time>
      </trkpt>
      <trkpt lat="59.29205" lon="24.12256">
        <ele>16.189794</ele>
        <time>2020-10-06T14:32:27.824Z</time>
      </trkpt>
      <trkpt lat="59.29173" lon="24.12232">
        <ele>16.107795</ele>
        <time>2020-10-06T14:32:35.676Z</time>
      </trkpt>
      <trkpt lat="59.29108" lon="24.12207">
        <ele>15.95041</ele>
        <time>2020-10-06T14:32:49.713Z</time>
      </trkpt>
      <trkpt lat="59.29082" lon="24.12202">
        <ele>15.886494</ele>
        <time>2020-10-06T14:32:55.127Z</time>
      </trkpt>
      <trkpt lat="59.29062" lon="24.12203">
        <ele>15.839673</ele>
        <time>2020-10-06T14:32:59.233Z</time>
      </trkpt>
      <trkpt lat="59.29045" lon="24.12208">
        <ele>15.796845</ele>
        <time>2020-10-06T14:33:02.601Z</time>
      </trkpt>
      <trkpt lat="59.28984" lon="24.12252">
        <ele>15.273438</ele>
        <time>2020-10-06T14:33:15.080Z</time>
      </trkpt>
      <trkpt lat="59.28927" lon="24.12334">
        <ele>14.685686</ele>
        <time>2020-10-06T14:33:28.827Z</time>
      </trkpt>
      <trkpt lat="59.28892" lon="24.12393">
        <ele>14.304625</ele>
        <time>2020-10-06T14:33:37.955Z</time>
      </trkpt>
      <trkpt lat="59.28874" lon="24.12437">
        <ele>14.303109</ele>
        <time>2020-10-06T14:33:44.213Z</time>
      </trkpt>
      <trkpt lat="59.28831" lon="24.12583">
        <ele>14.316433</ele>
        <time>2020-10-06T14:34:03.662Z</time>
      </trkpt>
      <trkpt lat="59.28822" lon="24.12616">
        <ele>14.319367</ele>
        <time>2020-10-06T14:34:08.205Z</time>
      </trkpt>
      <trkpt lat="59.28782" lon="24.12793">
        <ele>14.310023</ele>
        <time>2020-10-06T14:34:31.451Z</time>
      </trkpt>
      <trkpt lat="59.28752" lon="24.12944">
        <ele>14.283668</ele>
        <time>2020-10-06T14:34:49.718Z</time>
      </trkpt>
      <trkpt lat="59.28743" lon="24.12972">
        <ele>14.278357</ele>
        <time>2020-10-06T14:34:53.269Z</time>
      </trkpt>
      <trkpt lat="59.28717" lon="24.13015">
        <ele>14.272374</ele>
        <time>2020-10-06T14:35:00.356Z</time>
      </trkpt>
      <trkpt lat="59.28642" lon="24.13075">
        <ele>14.309406</ele>
        <time>2020-10-06T14:35:17.353Z</time>
      </trkpt>
      <trkpt lat="59.28605" lon="24.13087">
        <ele>14.326979</ele>
        <time>2020-10-06T14:35:26.106Z</time>
      </trkpt>
      <trkpt lat="59.28579" lon="24.13073">
        <ele>14.339048</ele>
        <time>2020-10-06T14:35:32.345Z</time>
      </trkpt>
      <trkpt lat="59.28567" lon="24.13057">
        <ele>14.345968</ele>
        <time>2020-10-06T14:35:35.968Z</time>
      </trkpt>
      <trkpt lat="59.28557" lon="24.13039">
        <ele>14.352052</ele>
        <time>2020-10-06T14:35:39.238Z</time>
      </trkpt>
      <trkpt lat="59.28532" lon="24.13086">
        <ele>14.648214</ele>
        <time>2020-10-06T14:35:47.857Z</time>
      </trkpt>
      <trkpt lat="59.2849" lon="24.13148">
        <ele>15.10351</ele>
        <time>2020-10-06T14:36:01.357Z</time>
      </trkpt>
      <trkpt lat="59.28444" lon="24.13195">
        <ele>15.55166</ele>
        <time>2020-10-06T14:36:15.264Z</time>
      </trkpt>
      <trkpt lat="59.28413" lon="24.13222">
        <ele>15.848074</ele>
        <time>2020-10-06T14:36:24.364Z</time>
      </trkpt>
      <trkpt lat="59.28348" lon="24.1325">
        <ele>16.246783</ele>
        <time>2020-10-06T14:36:41.337Z</time>
      </trkpt>
      <trkpt lat="59.28319" lon="24.13256">
        <ele>16.408737</ele>
        <time>2020-10-06T14:36:48.457Z</time>
      </trkpt>
      <trkpt lat="59.28282" lon="24.13257">
        <ele>16.618009</ele>
        <time>2020-10-06T14:36:57.397Z</time>
      </trkpt>
      <trkpt lat="59.28163" lon="24.13237">
        <ele>17.168648</ele>
        <time>2020-10-06T14:37:25.258Z</time>
      </trkpt>
      <trkpt lat="59.28072" lon="24.13219">
        <ele>17.506941</ele>
        <time>2020-10-06T14:37:46.685Z</time>
      </trkpt>
      <trkpt lat="59.28064" lon="24.13217">
        <ele>17.539283</ele>
        <time>2020-10-06T14:37:48.799Z</time>
      </trkpt>
      <trkpt lat="59.27985" lon="24.13195">
        <ele>18.166381</ele>
        <time>2020-10-06T14:38:08.829Z</time>
      </trkpt>
      <trkpt lat="59.27716" lon="24.13102">
        <ele>20.619835</ele>
        <time>2020-10-06T14:39:20.769Z</time>
      </trkpt>
      <trkpt lat="59.27671" lon="24.13101">
        <ele>20.869224</ele>
        <time>2020-10-06T14:39:31.751Z</time>
      </trkpt>
      <trkpt lat="59.27626" lon="24.1311">
        <ele>20.965381</ele>
        <time>2020-10-06T14:39:42.411Z</time>
      </trkpt>
      <trkpt lat="59.27585" lon="24.1313">
        <ele>21.056538</ele>
        <time>2020-10-06T14:39:52.301Z</time>
      </trkpt>
      <trkpt lat="59.27523" lon="24.13175">
        <ele>21.196883</ele>
        <time>2020-10-06T14:40:06.948Z</time>
      </trkpt>
      <trkpt lat="59.27494" lon="24.13205">
        <ele>21.135052</ele>
        <time>2020-10-06T14:40:13.907Z</time>
      </trkpt>
      <trkpt lat="59.27391" lon="24.13362">
        <ele>20.826284</ele>
        <time>2020-10-06T14:40:42.082Z</time>
      </trkpt>
      <trkpt lat="59.27128" lon="24.13823">
        <ele>19.762842</ele>
        <time>2020-10-06T14:41:55.281Z</time>
      </trkpt>
      <trkpt lat="59.27051" lon="24.13981">
        <ele>20.257252</ele>
        <time>2020-10-06T14:42:24.523Z</time>
      </trkpt>
      <trkpt lat="59.26989" lon="24.14141">
        <ele>20.808777</ele>
        <time>2020-10-06T14:42:50.705Z</time>
      </trkpt>
      <trkpt lat="59.26858" lon="24.14501">
        <ele>19.118325</ele>
        <time>2020-10-06T14:43:35.523Z</time>
      </trkpt>
      <trkpt lat="59.26773" lon="24.14678">
        <ele>17.382267</ele>
        <time>2020-10-06T14:43:57.976Z</time>
      </trkpt>
      <trkpt lat="59.26737" lon="24.14741">
        <ele>16.923126</ele>
        <time>2020-10-06T14:44:06.795Z</time>
      </trkpt>
      <trkpt lat="59.26693" lon="24.14825">
        <ele>16.343897</ele>
        <time>2020-10-06T14:44:18.553Z</time>
      </trkpt>
      <trkpt lat="59.26624" lon="24.14944">
        <ele>15.752686</ele>
        <time>2020-10-06T14:44:37.529Z</time>
      </trkpt>
      <trkpt lat="59.26593" lon="24.14983">
        <ele>15.919435</ele>
        <time>2020-10-06T14:44:46.008Z</time>
      </trkpt>
      <trkpt lat="59.26568" lon="24.15006">
        <ele>16.040826</ele>
        <time>2020-10-06T14:44:52.470Z</time>
      </trkpt>
      <trkpt lat="59.26506" lon="24.15049">
        <ele>16.338351</ele>
        <time>2020-10-06T14:45:08.889Z</time>
      </trkpt>
      <trkpt lat="59.26457" lon="24.15067">
        <ele>16.696905</ele>
        <time>2020-10-06T14:45:21.906Z</time>
      </trkpt>
      <trkpt lat="59.2639" lon="24.15076">
        <ele>17.471956</ele>
        <time>2020-10-06T14:45:40.523Z</time>
      </trkpt>
      <trkpt lat="59.26212" lon="24.15092">
        <ele>18.957733</ele>
        <time>2020-10-06T14:46:28.464Z</time>
      </trkpt>
      <trkpt lat="59.26204" lon="24.15091">
        <ele>18.996719</ele>
        <time>2020-10-06T14:46:30.432Z</time>
      </trkpt>
      <trkpt lat="59.26154" lon="24.15087">
        <ele>19.239444</ele>
        <time>2020-10-06T14:46:42.029Z</time>
      </trkpt>
      <trkpt lat="59.2596" lon="24.15054">
        <ele>18.718059</ele>
        <time>2020-10-06T14:47:21.870Z</time>
      </trkpt>
      <trkpt lat="59.25919" lon="24.1506">
        <ele>18.659227</ele>
        <time>2020-10-06T14:47:30.413Z</time>
      </trkpt>
      <trkpt lat="59.25854" lon="24.15087">
        <ele>18.787342</ele>
        <time>2020-10-06T14:47:45.652Z</time>
      </trkpt>
      <trkpt lat="59.25833" lon="24.15103">
        <ele>18.829962</ele>
        <time>2020-10-06T14:47:50.854Z</time>
      </trkpt>
      <trkpt lat="59.25803" lon="24.15128">
        <ele>18.891582</ele>
        <time>2020-10-06T14:47:58.724Z</time>
      </trkpt>
      <trkpt lat="59.25773" lon="24.15159">
        <ele>18.955952</ele>
        <time>2020-10-06T14:48:07.036Z</time>
      </trkpt>
      <trkpt lat="59.25746" lon="24.1519">
        <ele>19.049428</ele>
        <time>2020-10-06T14:48:14.857Z</time>
      </trkpt>
      <trkpt lat="59.25684" lon="24.15262">
        <ele>19.277151</ele>
        <time>2020-10-06T14:48:32.717Z</time>
      </trkpt>
      <trkpt lat="59.25618" lon="24.15327">
        <ele>19.511168</ele>
        <time>2020-10-06T14:48:49.753Z</time>
      </trkpt>
      <trkpt lat="59.25588" lon="24.15348">
        <ele>19.310839</ele>
        <time>2020-10-06T14:48:56.531Z</time>
      </trkpt>
      <trkpt lat="59.25526" lon="24.15374">
        <ele>18.751308</ele>
        <time>2020-10-06T14:49:08.967Z</time>
      </trkpt>
      <trkpt lat="59.25455" lon="24.15376">
        <ele>18.110397</ele>
        <time>2020-10-06T14:49:22.530Z</time>
      </trkpt>
      <trkpt lat="59.25317" lon="24.15345">
        <ele>16.921074</ele>
        <time>2020-10-06T14:49:48.330Z</time>
      </trkpt>
      <trkpt lat="59.25252" lon="24.15351">
        <ele>16.418281</ele>
        <time>2020-10-06T14:50:02.228Z</time>
      </trkpt>
      <trkpt lat="59.25189" lon="24.15379">
        <ele>16.973469</ele>
        <time>2020-10-06T14:50:17.734Z</time>
      </trkpt>
      <trkpt lat="59.25169" lon="24.15396">
        <ele>17.156165</ele>
        <time>2020-10-06T14:50:23.114Z</time>
      </trkpt>
      <trkpt lat="59.25148" lon="24.15413">
        <ele>17.351883</ele>
        <time>2020-10-06T14:50:29.522Z</time>
      </trkpt>
      <trkpt lat="59.25107" lon="24.15457">
        <ele>17.751293</ele>
        <time>2020-10-06T14:50:42.310Z</time>
      </trkpt>
      <trkpt lat="59.2507" lon="24.15512">
        <ele>18.297517</ele>
        <time>2020-10-06T14:50:55.759Z</time>
      </trkpt>
      <trkpt lat="59.25027" lon="24.15592">
        <ele>19.149418</ele>
        <time>2020-10-06T14:51:13.480Z</time>
      </trkpt>
      <trkpt lat="59.24903" lon="24.15913">
        <ele>21.631026</ele>
        <time>2020-10-06T14:52:08.932Z</time>
      </trkpt>
      <trkpt lat="59.24894" lon="24.15942">
        <ele>21.807462</ele>
        <time>2020-10-06T14:52:13.523Z</time>
      </trkpt>
      <trkpt lat="59.24848" lon="24.16088">
        <ele>22.568315</ele>
        <time>2020-10-06T14:52:35.447Z</time>
      </trkpt>
      <trkpt lat="59.24828" lon="24.16167">
        <ele>22.858441</ele>
        <time>2020-10-06T14:52:46.593Z</time>
      </trkpt>
      <trkpt lat="59.24754" lon="24.16558">
        <ele>24.027215</ele>
        <time>2020-10-06T14:53:39.702Z</time>
      </trkpt>
      <trkpt lat="59.24737" lon="24.16623">
        <ele>24.19741</ele>
        <time>2020-10-06T14:53:48.744Z</time>
      </trkpt>
      <trkpt lat="59.24688" lon="24.16753">
        <ele>24.090651</ele>
        <time>2020-10-06T14:54:07.116Z</time>
      </trkpt>
      <trkpt lat="59.24638" lon="24.16838">
        <ele>23.805639</ele>
        <time>2020-10-06T14:54:20.739Z</time>
      </trkpt>
      <trkpt lat="59.24611" lon="24.16872">
        <ele>23.668701</ele>
        <time>2020-10-06T14:54:27.042Z</time>
      </trkpt>
      <trkpt lat="59.24581" lon="24.16905">
        <ele>23.496682</ele>
        <time>2020-10-06T14:54:33.877Z</time>
      </trkpt>
      <trkpt lat="59.24567" lon="24.16918">
        <ele>23.387986</ele>
        <time>2020-10-06T14:54:36.769Z</time>
      </trkpt>
      <trkpt lat="59.24484" lon="24.16962">
        <ele>22.7626</ele>
        <time>2020-10-06T14:54:53.653Z</time>
      </trkpt>
      <trkpt lat="59.24446" lon="24.16971">
        <ele>22.489394</ele>
        <time>2020-10-06T14:55:01.284Z</time>
      </trkpt>
      <trkpt lat="59.24399" lon="24.1697">
        <ele>22.284111</ele>
        <time>2020-10-06T14:55:11.118Z</time>
      </trkpt>
      <trkpt lat="59.24359" lon="24.1696">
        <ele>22.364731</ele>
        <time>2020-10-06T14:55:19.827Z</time>
      </trkpt>
      <trkpt lat="59.24262" lon="24.16907">
        <ele>22.571091</ele>
        <time>2020-10-06T14:55:43.783Z</time>
      </trkpt>
      <trkpt lat="59.24045" lon="24.16776">
        <ele>23.799935</ele>
        <time>2020-10-06T14:56:40.517Z</time>
      </trkpt>
      <trkpt lat="59.24033" lon="24.16769">
        <ele>23.826884</ele>
        <time>2020-10-06T14:56:43.491Z</time>
      </trkpt>
      <trkpt lat="59.2398" lon="24.16737">
        <ele>23.944899</ele>
        <time>2020-10-06T14:56:55.658Z</time>
      </trkpt>
      <trkpt lat="59.23887" lon="24.16708">
        <ele>24.174921</ele>
        <time>2020-10-06T14:57:16.880Z</time>
      </trkpt>
      <trkpt lat="59.23856" lon="24.16705">
        <ele>24.450454</ele>
        <time>2020-10-06T14:57:24.501Z</time>
      </trkpt>
      <trkpt lat="59.238" lon="24.16699">
        <ele>24.941814</ele>
        <time>2020-10-06T14:57:38.673Z</time>
      </trkpt>
      <trkpt lat="59.23748" lon="24.16693">
        <ele>25.402411</ele>
        <time>2020-10-06T14:57:52.991Z</time>
      </trkpt>
      <trkpt lat="59.23698" lon="24.16681">
        <ele>25.81369</ele>
        <time>2020-10-06T14:58:06.537Z</time>
      </trkpt>
      <trkpt lat="59.23621" lon="24.16639">
        <ele>26.373507</ele>
        <time>2020-10-06T14:58:28.954Z</time>
      </trkpt>
      <trkpt lat="59.2337" lon="24.16442">
        <ele>26.861789</ele>
        <time>2020-10-06T14:59:28.873Z</time>
      </trkpt>
      <trkpt lat="59.23294" lon="24.16394">
        <ele>26.884445</ele>
        <time>2020-10-06T14:59:45.843Z</time>
      </trkpt>
      <trkpt lat="59.23237" lon="24.16377">
        <ele>26.900539</ele>
        <time>2020-10-06T14:59:58.637Z</time>
      </trkpt>
      <trkpt lat="59.23149" lon="24.1639">
        <ele>27.214064</ele>
        <time>2020-10-06T15:00:19.804Z</time>
      </trkpt>
      <trkpt lat="59.23117" lon="24.16401">
        <ele>27.405798</ele>
        <time>2020-10-06T15:00:28.130Z</time>
      </trkpt>
      <trkpt lat="59.23084" lon="24.16415">
        <ele>27.605689</ele>
        <time>2020-10-06T15:00:36.983Z</time>
      </trkpt>
      <trkpt lat="59.23022" lon="24.16439">
        <ele>27.976294</ele>
        <time>2020-10-06T15:00:52.815Z</time>
      </trkpt>
      <trkpt lat="59.22961" lon="24.16445">
        <ele>27.891914</ele>
        <time>2020-10-06T15:01:07.003Z</time>
      </trkpt>
      <trkpt lat="59.22958" lon="24.16445">
        <ele>27.888052</ele>
        <time>2020-10-06T15:01:07.610Z</time>
      </trkpt>
      <trkpt lat="59.22935" lon="24.16441">
        <ele>27.855306</ele>
        <time>2020-10-06T15:01:12.726Z</time>
      </trkpt>
      <trkpt lat="59.22822" lon="24.16426">
        <ele>27.519587</ele>
        <time>2020-10-06T15:01:36.213Z</time>
      </trkpt>
      <trkpt lat="59.2277" lon="24.16416">
        <ele>27.018722</ele>
        <time>2020-10-06T15:01:46.246Z</time>
      </trkpt>
      <trkpt lat="59.22748" lon="24.16404">
        <ele>26.800314</ele>
        <time>2020-10-06T15:01:50.816Z</time>
      </trkpt>
      <trkpt lat="59.22738" lon="24.16407">
        <ele>26.70473</ele>
        <time>2020-10-06T15:01:52.447Z</time>
      </trkpt>
      <trkpt lat="59.22731" lon="24.16411">
        <ele>26.628022</ele>
        <time>2020-10-06T15:01:54.298Z</time>
      </trkpt>
      <trkpt lat="59.22717" lon="24.1633">
        <ele>26.208666</ele>
        <time>2020-10-06T15:02:02.651Z</time>
      </trkpt>
      <trkpt lat="59.22711" lon="24.16301">
        <ele>26.053766</ele>
        <time>2020-10-06T15:02:05.448Z</time>
      </trkpt>
      <trkpt lat="59.22685" lon="24.16328">
        <ele>25.743294</ele>
        <time>2020-10-06T15:02:11.920Z</time>
      </trkpt>
      <trkpt lat="59.22687" lon="24.16318">
        <ele>25.686081</ele>
        <time>2020-10-06T15:02:12.720Z</time>
      </trkpt>
      <trkpt lat="59.22699" lon="24.16296">
        <ele>25.502329</ele>
        <time>2020-10-06T15:02:16.367Z</time>
      </trkpt>
      <trkpt lat="59.22701" lon="24.16283">
        <ele>25.428648</ele>
        <time>2020-10-06T15:02:17.793Z</time>
      </trkpt>
      <trkpt lat="59.22692" lon="24.16225">
        <ele>25.094499</ele>
        <time>2020-10-06T15:02:23.646Z</time>
      </trkpt>
      <trkpt lat="59.22684" lon="24.1621">
        <ele>24.977746</ele>
        <time>2020-10-06T15:02:25.804Z</time>
      </trkpt>
      <trkpt lat="59.2266" lon="24.16101">
        <ele>24.320583</ele>
        <time>2020-10-06T15:02:36.999Z</time>
      </trkpt>
      <trkpt lat="59.22618" lon="24.15823">
        <ele>23.737961</ele>
        <time>2020-10-06T15:03:07.140Z</time>
      </trkpt>
      <trkpt lat="59.22602" lon="24.15602">
        <ele>24.069788</ele>
        <time>2020-10-06T15:03:35.112Z</time>
      </trkpt>
      <trkpt lat="59.22595" lon="24.15259">
        <ele>25.465981</ele>
        <time>2020-10-06T15:04:21.475Z</time>
      </trkpt>
      <trkpt lat="59.22604" lon="24.15146">
        <ele>25.887812</ele>
        <time>2020-10-06T15:04:36.309Z</time>
      </trkpt>
      <trkpt lat="59.22621" lon="24.15021">
        <ele>26.36764</ele>
        <time>2020-10-06T15:04:52.783Z</time>
      </trkpt>
      <trkpt lat="59.22695" lon="24.14753">
        <ele>26.121772</ele>
        <time>2020-10-06T15:05:27.742Z</time>
      </trkpt>
      <trkpt lat="59.22709" lon="24.14687">
        <ele>25.927115</ele>
        <time>2020-10-06T15:05:34.807Z</time>
      </trkpt>
      <trkpt lat="59.22744" lon="24.14569">
        <ele>24.921597</ele>
        <time>2020-10-06T15:05:52.254Z</time>
      </trkpt>
      <trkpt lat="59.22752" lon="24.14557">
        <ele>24.787481</ele>
        <time>2020-10-06T15:05:54.010Z</time>
      </trkpt>
      <trkpt lat="59.22767" lon="24.14573">
        <ele>24.5443</ele>
        <time>2020-10-06T15:05:57.201Z</time>
      </trkpt>
      <trkpt lat="59.22817" lon="24.14402">
        <ele>23.187665</ele>
        <time>2020-10-06T15:06:15.753Z</time>
      </trkpt>
      <trkpt lat="59.22849" lon="24.14288">
        <ele>22.436408</ele>
        <time>2020-10-06T15:06:28.446Z</time>
      </trkpt>
      <trkpt lat="59.22853" lon="24.14204">
        <ele>21.948528</ele>
        <time>2020-10-06T15:06:36.830Z</time>
      </trkpt>
      <trkpt lat="59.22852" lon="24.14182">
        <ele>21.820726</ele>
        <time>2020-10-06T15:06:39.117Z</time>
      </trkpt>
      <trkpt lat="59.22868" lon="24.14168">
        <ele>21.615437</ele>
        <time>2020-10-06T15:06:42.893Z</time>
      </trkpt>
      <trkpt lat="59.22867" lon="24.14157">
        <ele>21.550543</ele>
        <time>2020-10-06T15:06:43.993Z</time>
      </trkpt>
      <trkpt lat="59.22853" lon="24.14055">
        <ele>20.861129</ele>
        <time>2020-10-06T15:06:54.532Z</time>
      </trkpt>
      <trkpt lat="59.22853" lon="24.14036">
        <ele>20.733192</ele>
        <time>2020-10-06T15:06:56.475Z</time>
      </trkpt>
      <trkpt lat="59.22846" lon="24.1397">
        <ele>20.284582</ele>
        <time>2020-10-06T15:07:02.956Z</time>
      </trkpt>
      <trkpt lat="59.22843" lon="24.13946">
        <ele>20.126581</ele>
        <time>2020-10-06T15:07:06.932Z</time>
      </trkpt>
      <trkpt lat="59.22841" lon="24.13928">
        <ele>20.001258</ele>
        <time>2020-10-06T15:07:08.699Z</time>
      </trkpt>
      <trkpt lat="59.22829" lon="24.13894">
        <ele>19.728356</ele>
        <time>2020-10-06T15:07:12.677Z</time>
      </trkpt>
      <trkpt lat="59.22827" lon="24.13877">
        <ele>19.608997</ele>
        <time>2020-10-06T15:07:14.246Z</time>
      </trkpt>
      <trkpt lat="59.22818" lon="24.13743">
        <ele>18.885663</ele>
        <time>2020-10-06T15:07:26.825Z</time>
      </trkpt>
      <trkpt lat="59.22817" lon="24.13259">
        <ele>17.484251</ele>
        <time>2020-10-06T15:08:17.489Z</time>
      </trkpt>
      <trkpt lat="59.22821" lon="24.13208">
        <ele>17.419126</ele>
        <time>2020-10-06T15:08:23.485Z</time>
      </trkpt>
      <trkpt lat="59.22819" lon="24.13187">
        <ele>17.392822</ele>
        <time>2020-10-06T15:08:25.969Z</time>
      </trkpt>
      <trkpt lat="59.2281" lon="24.13154">
        <ele>17.346499</ele>
        <time>2020-10-06T15:08:30.308Z</time>
      </trkpt>
      <trkpt lat="59.2278" lon="24.13002">
        <ele>17.572643</ele>
        <time>2020-10-06T15:08:49.837Z</time>
      </trkpt>
      <trkpt lat="59.22575" lon="24.12147">
        <ele>19.79138</ele>
        <time>2020-10-06T15:10:47.598Z</time>
      </trkpt>
      <trkpt lat="59.22543" lon="24.12017">
        <ele>19.72942</ele>
        <time>2020-10-06T15:11:04.330Z</time>
      </trkpt>
      <trkpt lat="59.22474" lon="24.11755">
        <ele>19.332078</ele>
        <time>2020-10-06T15:11:36.087Z</time>
      </trkpt>
      <trkpt lat="59.22457" lon="24.11687">
        <ele>19.088311</ele>
        <time>2020-10-06T15:11:43.900Z</time>
      </trkpt>
      <trkpt lat="59.22449" lon="24.11681">
        <ele>19.035708</ele>
        <time>2020-10-06T15:11:45.598Z</time>
      </trkpt>
      <trkpt lat="59.22441" lon="24.11685">
        <ele>18.983215</ele>
        <time>2020-10-06T15:11:47.295Z</time>
      </trkpt>
      <trkpt lat="59.22377" lon="24.11445">
        <ele>18.105765</ele>
        <time>2020-10-06T15:12:14.823Z</time>
      </trkpt>
      <trkpt lat="59.22275" lon="24.11064">
        <ele>16.99833</ele>
        <time>2020-10-06T15:12:59.835Z</time>
      </trkpt>
      <trkpt lat="59.22244" lon="24.10951">
        <ele>16.768117</ele>
        <time>2020-10-06T15:13:13.971Z</time>
      </trkpt>
      <trkpt lat="59.22221" lon="24.10869">
        <ele>16.696691</ele>
        <time>2020-10-06T15:13:24.530Z</time>
      </trkpt>
      <trkpt lat="59.22212" lon="24.1084">
        <ele>16.681715</ele>
        <time>2020-10-06T15:13:28.468Z</time>
      </trkpt>
      <trkpt lat="59.22192" lon="24.10786">
        <ele>16.651996</ele>
        <time>2020-10-06T15:13:36.173Z</time>
      </trkpt>
      <trkpt lat="59.21938" lon="24.10223">
        <ele>16.403184</ele>
        <time>2020-10-06T15:15:00.382Z</time>
      </trkpt>
      <trkpt lat="59.21863" lon="24.1008">
        <ele>16.536739</ele>
        <time>2020-10-06T15:15:24.242Z</time>
      </trkpt>
      <trkpt lat="59.2166" lon="24.09712">
        <ele>17.780417</ele>
        <time>2020-10-06T15:16:30.901Z</time>
      </trkpt>
      <trkpt lat="59.21769" lon="24.0948">
        <ele>18.894166</ele>
        <time>2020-10-06T15:17:11.486Z</time>
      </trkpt>
      <trkpt lat="59.21818" lon="24.09326">
        <ele>19.671399</ele>
        <time>2020-10-06T15:17:35.400Z</time>
      </trkpt>
      <trkpt lat="59.21847" lon="24.09148">
        <ele>20.664046</ele>
        <time>2020-10-06T15:18:00.764Z</time>
      </trkpt>
      <trkpt lat="59.21863" lon="24.08966">
        <ele>21.654623</ele>
        <time>2020-10-06T15:18:26.127Z</time>
      </trkpt>
      <trkpt lat="59.21927" lon="24.07962">
        <ele>27.029586</ele>
        <time>2020-10-06T15:20:43.181Z</time>
      </trkpt>
      <trkpt lat="59.2193" lon="24.07906">
        <ele>27.271827</ele>
        <time>2020-10-06T15:20:50.706Z</time>
      </trkpt>
      <trkpt lat="59.21939" lon="24.07708">
        <ele>28.127852</ele>
        <time>2020-10-06T15:21:17.123Z</time>
      </trkpt>
      <trkpt lat="59.21942" lon="24.0741">
        <ele>28.57471</ele>
        <time>2020-10-06T15:21:54.167Z</time>
      </trkpt>
      <trkpt lat="59.21918" lon="24.06968">
        <ele>27.720565</ele>
        <time>2020-10-06T15:22:40.712Z</time>
      </trkpt>
      <trkpt lat="59.21901" lon="24.0681">
        <ele>27.560083</ele>
        <time>2020-10-06T15:22:57.111Z</time>
      </trkpt>
      <trkpt lat="59.21816" lon="24.06004">
        <ele>27.110448</ele>
        <time>2020-10-06T15:24:31.263Z</time>
      </trkpt>
      <trkpt lat="59.21737" lon="24.0527">
        <ele>26.510702</ele>
        <time>2020-10-06T15:25:54.030Z</time>
      </trkpt>
      <trkpt lat="59.21729" lon="24.05125">
        <ele>26.570087</ele>
        <time>2020-10-06T15:26:11.317Z</time>
      </trkpt>
      <trkpt lat="59.21731" lon="24.04836">
        <ele>26.770711</ele>
        <time>2020-10-06T15:26:45.862Z</time>
      </trkpt>
      <trkpt lat="59.21737" lon="24.04773">
        <ele>26.727837</ele>
        <time>2020-10-06T15:26:53.144Z</time>
      </trkpt>
      <trkpt lat="59.21744" lon="24.04719">
        <ele>26.6906</ele>
        <time>2020-10-06T15:26:59.359Z</time>
      </trkpt>
      <trkpt lat="59.21753" lon="24.04664">
        <ele>26.652123</ele>
        <time>2020-10-06T15:27:05.583Z</time>
      </trkpt>
      <trkpt lat="59.21758" lon="24.04628">
        <ele>26.627668</ele>
        <time>2020-10-06T15:27:09.615Z</time>
      </trkpt>
      <trkpt lat="59.21771" lon="24.04554">
        <ele>26.575263</ele>
        <time>2020-10-06T15:27:18.162Z</time>
      </trkpt>
      <trkpt lat="59.21798" lon="24.04432">
        <ele>26.512744</ele>
        <time>2020-10-06T15:27:32.797Z</time>
      </trkpt>
      <trkpt lat="59.21805" lon="24.0441">
        <ele>26.501936</ele>
        <time>2020-10-06T15:27:35.443Z</time>
      </trkpt>
      <trkpt lat="59.21832" lon="24.04319">
        <ele>26.455825</ele>
        <time>2020-10-06T15:27:47.362Z</time>
      </trkpt>
      <trkpt lat="59.21868" lon="24.04214">
        <ele>26.417562</ele>
        <time>2020-10-06T15:28:02.258Z</time>
      </trkpt>
      <trkpt lat="59.21885" lon="24.0417">
        <ele>26.44178</ele>
        <time>2020-10-06T15:28:08.697Z</time>
      </trkpt>
      <trkpt lat="59.2203" lon="24.0386">
        <ele>26.433053</ele>
        <time>2020-10-06T15:28:57.260Z</time>
      </trkpt>
      <trkpt lat="59.22027" lon="24.0385">
        <ele>26.422143</ele>
        <time>2020-10-06T15:28:58.586Z</time>
      </trkpt>
      <trkpt lat="59.22029" lon="24.03803">
        <ele>26.378924</ele>
        <time>2020-10-06T15:29:04.023Z</time>
      </trkpt>
      <trkpt lat="59.22059" lon="24.03662">
        <ele>26.234409</ele>
        <time>2020-10-06T15:29:21.215Z</time>
      </trkpt>
      <trkpt lat="59.22085" lon="24.03564">
        <ele>25.993602</ele>
        <time>2020-10-06T15:29:33.393Z</time>
      </trkpt>
      <trkpt lat="59.22094" lon="24.03509">
        <ele>25.869777</ele>
        <time>2020-10-06T15:29:39.657Z</time>
      </trkpt>
      <trkpt lat="59.22103" lon="24.03407">
        <ele>25.644065</ele>
        <time>2020-10-06T15:29:51.179Z</time>
      </trkpt>
      <trkpt lat="59.22116" lon="24.03357">
        <ele>25.521307</ele>
        <time>2020-10-06T15:29:57.564Z</time>
      </trkpt>
      <trkpt lat="59.22124" lon="24.03335">
        <ele>25.470462</ele>
        <time>2020-10-06T15:30:00.482Z</time>
      </trkpt>
      <trkpt lat="59.22125" lon="24.03329">
        <ele>25.462866</ele>
        <time>2020-10-06T15:30:01.344Z</time>
      </trkpt>
      <trkpt lat="59.22188" lon="24.03143">
        <ele>25.224116</ele>
        <time>2020-10-06T15:30:26.925Z</time>
      </trkpt>
      <trkpt lat="59.22341" lon="24.02794">
        <ele>24.680389</ele>
        <time>2020-10-06T15:31:20.163Z</time>
      </trkpt>
      <trkpt lat="59.22349" lon="24.0279">
        <ele>24.643647</ele>
        <time>2020-10-06T15:31:21.904Z</time>
      </trkpt>
      <trkpt lat="59.22353" lon="24.02766">
        <ele>24.555624</ele>
        <time>2020-10-06T15:31:24.413Z</time>
      </trkpt>
      <trkpt lat="59.22427" lon="24.02408">
        <ele>23.451475</ele>
        <time>2020-10-06T15:32:03.597Z</time>
      </trkpt>
      <trkpt lat="59.22444" lon="24.02319">
        <ele>23.452823</ele>
        <time>2020-10-06T15:32:14.439Z</time>
      </trkpt>
      <trkpt lat="59.2245" lon="24.0229">
        <ele>23.45328</ele>
        <time>2020-10-06T15:32:18.300Z</time>
      </trkpt>
      <trkpt lat="59.22473" lon="24.02185">
        <ele>23.454905</ele>
        <time>2020-10-06T15:32:32.492Z</time>
      </trkpt>
      <trkpt lat="59.22493" lon="24.02196">
        <ele>23.455491</ele>
        <time>2020-10-06T15:32:37.204Z</time>
      </trkpt>
      <trkpt lat="59.22503" lon="24.02146">
        <ele>23.351303</ele>
        <time>2020-10-06T15:32:43.633Z</time>
      </trkpt>
      <trkpt lat="59.22519" lon="24.02044">
        <ele>23.133868</ele>
        <time>2020-10-06T15:32:55.587Z</time>
      </trkpt>
      <trkpt lat="59.22538" lon="24.01974">
        <ele>22.971623</ele>
        <time>2020-10-06T15:33:04.161Z</time>
      </trkpt>
      <trkpt lat="59.22548" lon="24.01929">
        <ele>22.87062</ele>
        <time>2020-10-06T15:33:09.197Z</time>
      </trkpt>
      <trkpt lat="59.22562" lon="24.0184">
        <ele>22.594925</ele>
        <time>2020-10-06T15:33:18.452Z</time>
      </trkpt>
      <trkpt lat="59.22611" lon="24.01667">
        <ele>21.593836</ele>
        <time>2020-10-06T15:33:37.441Z</time>
      </trkpt>
      <trkpt lat="59.22625" lon="24.0164">
        <ele>21.39844</ele>
        <time>2020-10-06T15:33:41.315Z</time>
      </trkpt>
      <trkpt lat="59.22653" lon="24.01547">
        <ele>20.906005</ele>
        <time>2020-10-06T15:33:52.427Z</time>
      </trkpt>
      <trkpt lat="59.22659" lon="24.01508">
        <ele>20.807183</ele>
        <time>2020-10-06T15:33:56.548Z</time>
      </trkpt>
      <trkpt lat="59.22666" lon="24.01471">
        <ele>20.708469</ele>
        <time>2020-10-06T15:34:00.807Z</time>
      </trkpt>
      <trkpt lat="59.22683" lon="24.01415">
        <ele>20.549737</ele>
        <time>2020-10-06T15:34:07.582Z</time>
      </trkpt>
      <trkpt lat="59.22706" lon="24.01335">
        <ele>20.324968</ele>
        <time>2020-10-06T15:34:17.341Z</time>
      </trkpt>
      <trkpt lat="59.2272" lon="24.01279">
        <ele>20.172431</ele>
        <time>2020-10-06T15:34:24.096Z</time>
      </trkpt>
      <trkpt lat="59.22725" lon="24.01259">
        <ele>20.117837</ele>
        <time>2020-10-06T15:34:26.481Z</time>
      </trkpt>
      <trkpt lat="59.22743" lon="24.01198">
        <ele>20.073821</ele>
        <time>2020-10-06T15:34:34.292Z</time>
      </trkpt>
      <trkpt lat="59.2277" lon="24.0109">
        <ele>20.032567</ele>
        <time>2020-10-06T15:34:47.416Z</time>
      </trkpt>
      <trkpt lat="59.22795" lon="24.00981">
        <ele>19.991172</ele>
        <time>2020-10-06T15:35:01.024Z</time>
      </trkpt>
      <trkpt lat="59.22839" lon="24.00764">
        <ele>20.249525</ele>
        <time>2020-10-06T15:35:29.428Z</time>
      </trkpt>
      <trkpt lat="59.22845" lon="24.00701">
        <ele>20.345891</ele>
        <time>2020-10-06T15:35:37.148Z</time>
      </trkpt>
      <trkpt lat="59.22854" lon="24.00654">
        <ele>20.420601</ele>
        <time>2020-10-06T15:35:43.235Z</time>
      </trkpt>
      <trkpt lat="59.22844" lon="24.00648">
        <ele>20.448853</ele>
        <time>2020-10-06T15:35:45.358Z</time>
      </trkpt>
      <trkpt lat="59.22874" lon="24.005">
        <ele>20.615879</ele>
        <time>2020-10-06T15:36:04.022Z</time>
      </trkpt>
      <trkpt lat="59.22931" lon="24.00192">
        <ele>21.10127</ele>
        <time>2020-10-06T15:36:42.665Z</time>
      </trkpt>
      <trkpt lat="59.22949" lon="24.001">
        <ele>21.375319</ele>
        <time>2020-10-06T15:36:55.269Z</time>
      </trkpt>
      <trkpt lat="59.22973" lon="23.99989">
        <ele>21.706086</ele>
        <time>2020-10-06T15:37:10.800Z</time>
      </trkpt>
      <trkpt lat="59.22989" lon="23.9989">
        <ele>21.900195</ele>
        <time>2020-10-06T15:37:24.173Z</time>
      </trkpt>
      <trkpt lat="59.23006" lon="23.99776">
        <ele>22.06888</ele>
        <time>2020-10-06T15:37:39.113Z</time>
      </trkpt>
      <trkpt lat="59.23012" lon="23.99723">
        <ele>22.146861</ele>
        <time>2020-10-06T15:37:45.693Z</time>
      </trkpt>
      <trkpt lat="59.23025" lon="23.99661">
        <ele>22.242223</ele>
        <time>2020-10-06T15:37:53.297Z</time>
      </trkpt>
      <trkpt lat="59.23063" lon="23.99527">
        <ele>21.902285</ele>
        <time>2020-10-06T15:38:09.440Z</time>
      </trkpt>
      <trkpt lat="59.23089" lon="23.99465">
        <ele>21.61964</ele>
        <time>2020-10-06T15:38:17.362Z</time>
      </trkpt>
      <trkpt lat="59.23116" lon="23.99393">
        <ele>21.307934</ele>
        <time>2020-10-06T15:38:26.239Z</time>
      </trkpt>
      <trkpt lat="59.23154" lon="23.99294">
        <ele>20.988546</ele>
        <time>2020-10-06T15:38:38.951Z</time>
      </trkpt>
      <trkpt lat="59.23181" lon="23.99229">
        <ele>20.877428</ele>
        <time>2020-10-06T15:38:47.665Z</time>
      </trkpt>
      <trkpt lat="59.23213" lon="23.99147">
        <ele>20.739686</ele>
        <time>2020-10-06T15:38:58.921Z</time>
      </trkpt>
      <trkpt lat="59.23234" lon="23.99082">
        <ele>20.636847</ele>
        <time>2020-10-06T15:39:07.832Z</time>
      </trkpt>
      <trkpt lat="59.23248" lon="23.99039">
        <ele>20.615261</ele>
        <time>2020-10-06T15:39:13.978Z</time>
      </trkpt>
      <trkpt lat="59.23282" lon="23.98928">
        <ele>20.802474</ele>
        <time>2020-10-06T15:39:29.828Z</time>
      </trkpt>
      <trkpt lat="59.23323" lon="23.98803">
        <ele>21.018904</ele>
        <time>2020-10-06T15:39:47.823Z</time>
      </trkpt>
      <trkpt lat="59.23365" lon="23.98655">
        <ele>21.138336</ele>
        <time>2020-10-06T15:40:07.619Z</time>
      </trkpt>
      <trkpt lat="59.23384" lon="23.98532">
        <ele>21.180067</ele>
        <time>2020-10-06T15:40:22.271Z</time>
      </trkpt>
      <trkpt lat="59.23383" lon="23.97802">
        <ele>21.28059</ele>
        <time>2020-10-06T15:41:45.947Z</time>
      </trkpt>
      <trkpt lat="59.23371" lon="23.97656">
        <ele>21.251781</ele>
        <time>2020-10-06T15:42:02.955Z</time>
      </trkpt>
      <trkpt lat="59.23286" lon="23.97109">
        <ele>20.876923</ele>
        <time>2020-10-06T15:43:06.759Z</time>
      </trkpt>
      <trkpt lat="59.23268" lon="23.96933">
        <ele>20.87512</ele>
        <time>2020-10-06T15:43:26.501Z</time>
      </trkpt>
      <trkpt lat="59.23267" lon="23.96882">
        <ele>20.897867</ele>
        <time>2020-10-06T15:43:32.126Z</time>
      </trkpt>
      <trkpt lat="59.23267" lon="23.96843">
        <ele>20.915531</ele>
        <time>2020-10-06T15:43:36.723Z</time>
      </trkpt>
      <trkpt lat="59.23282" lon="23.96674">
        <ele>21.066545</ele>
        <time>2020-10-06T15:43:57.049Z</time>
      </trkpt>
      <trkpt lat="59.23356" lon="23.95975">
        <ele>23.746909</ele>
        <time>2020-10-06T15:45:30.807Z</time>
      </trkpt>
      <trkpt lat="59.23431" lon="23.95455">
        <ele>23.646551</ele>
        <time>2020-10-06T15:46:32.383Z</time>
      </trkpt>
      <trkpt lat="59.23455" lon="23.95335">
        <ele>23.475847</ele>
        <time>2020-10-06T15:46:45.608Z</time>
      </trkpt>
      <trkpt lat="59.23464" lon="23.95294">
        <ele>23.361108</ele>
        <time>2020-10-06T15:46:50.176Z</time>
      </trkpt>
      <trkpt lat="59.23551" lon="23.94984">
        <ele>22.501521</ele>
        <time>2020-10-06T15:47:27.359Z</time>
      </trkpt>
      <trkpt lat="59.23648" lon="23.94681">
        <ele>22.064867</ele>
        <time>2020-10-06T15:48:07.024Z</time>
      </trkpt>
      <trkpt lat="59.23848" lon="23.94173">
        <ele>21.308688</ele>
        <time>2020-10-06T15:49:16.919Z</time>
      </trkpt>
      <trkpt lat="59.23962" lon="23.93898">
        <ele>21.572407</ele>
        <time>2020-10-06T15:49:58.638Z</time>
      </trkpt>
      <trkpt lat="59.24058" lon="23.93663">
        <ele>22.293219</ele>
        <time>2020-10-06T15:50:35.730Z</time>
      </trkpt>
      <trkpt lat="59.24136" lon="23.93464">
        <ele>23.102297</ele>
        <time>2020-10-06T15:51:07.783Z</time>
      </trkpt>
      <trkpt lat="59.24269" lon="23.93087">
        <ele>24.5058</ele>
        <time>2020-10-06T15:52:06.525Z</time>
      </trkpt>
      <trkpt lat="59.24313" lon="23.9299">
        <ele>24.635614</ele>
        <time>2020-10-06T15:52:21.655Z</time>
      </trkpt>
      <trkpt lat="59.24484" lon="23.9272">
        <ele>24.593995</ele>
        <time>2020-10-06T15:53:09.315Z</time>
      </trkpt>
      <trkpt lat="59.2455" lon="23.92554">
        <ele>24.667779</ele>
        <time>2020-10-06T15:53:34.125Z</time>
      </trkpt>
      <trkpt lat="59.24702" lon="23.92121">
        <ele>24.834727</ele>
        <time>2020-10-06T15:54:35.746Z</time>
      </trkpt>
      <trkpt lat="59.24733" lon="23.92073">
        <ele>24.783094</ele>
        <time>2020-10-06T15:54:43.942Z</time>
      </trkpt>
      <trkpt lat="59.24805" lon="23.91996">
        <ele>24.752096</ele>
        <time>2020-10-06T15:55:00.786Z</time>
      </trkpt>
      <trkpt lat="59.24911" lon="23.91886">
        <ele>24.849745</ele>
        <time>2020-10-06T15:55:27.832Z</time>
      </trkpt>
      <trkpt lat="59.24991" lon="23.91806">
        <ele>25.366368</ele>
        <time>2020-10-06T15:55:50.781Z</time>
      </trkpt>
      <trkpt lat="59.25139" lon="23.91645">
        <ele>26.325212</ele>
        <time>2020-10-06T15:56:34.008Z</time>
      </trkpt>
      <trkpt lat="59.25191" lon="23.91604">
        <ele>26.439707</ele>
        <time>2020-10-06T15:56:46.820Z</time>
      </trkpt>
      <trkpt lat="59.25216" lon="23.91571">
        <ele>26.500959</ele>
        <time>2020-10-06T15:56:53.462Z</time>
      </trkpt>
      <trkpt lat="59.2523" lon="23.91541">
        <ele>26.543276</ele>
        <time>2020-10-06T15:56:57.718Z</time>
      </trkpt>
      <trkpt lat="59.25246" lon="23.91538">
        <ele>26.577115</ele>
        <time>2020-10-06T15:57:01.851Z</time>
      </trkpt>
      <trkpt lat="59.25262" lon="23.9154">
        <ele>26.586367</ele>
        <time>2020-10-06T15:57:05.646Z</time>
      </trkpt>
      <trkpt lat="59.25282" lon="23.91525">
        <ele>26.59632</ele>
        <time>2020-10-06T15:57:10.646Z</time>
      </trkpt>
      <trkpt lat="59.25353" lon="23.91451">
        <ele>26.635821</ele>
        <time>2020-10-06T15:57:30.460Z</time>
      </trkpt>
      <trkpt lat="59.25363" lon="23.91445">
        <ele>26.640821</ele>
        <time>2020-10-06T15:57:32.821Z</time>
      </trkpt>
      <trkpt lat="59.25485" lon="23.91368">
        <ele>27.018247</ele>
        <time>2020-10-06T15:58:06.859Z</time>
      </trkpt>
      <trkpt lat="59.25539" lon="23.91286">
        <ele>27.335257</ele>
        <time>2020-10-06T15:58:25.404Z</time>
      </trkpt>
      <trkpt lat="59.25617" lon="23.91113">
        <ele>27.74195</ele>
        <time>2020-10-06T15:58:56.488Z</time>
      </trkpt>
      <trkpt lat="59.25723" lon="23.90946">
        <ele>28.142533</ele>
        <time>2020-10-06T15:59:31.408Z</time>
      </trkpt>
      <trkpt lat="59.25824" lon="23.90897">
        <ele>28.454542</ele>
        <time>2020-10-06T15:59:58.500Z</time>
      </trkpt>
      <trkpt lat="59.25889" lon="23.90805">
        <ele>28.427434</ele>
        <time>2020-10-06T16:00:19.266Z</time>
      </trkpt>
      <trkpt lat="59.25942" lon="23.90757">
        <ele>28.239202</ele>
        <time>2020-10-06T16:00:33.606Z</time>
      </trkpt>
      <trkpt lat="59.26036" lon="23.90618">
        <ele>27.433899</ele>
        <time>2020-10-06T16:00:59.748Z</time>
      </trkpt>
      <trkpt lat="59.26077" lon="23.90569">
        <ele>26.753904</ele>
        <time>2020-10-06T16:01:09.782Z</time>
      </trkpt>
      <trkpt lat="59.26083" lon="23.9056">
        <ele>26.644523</ele>
        <time>2020-10-06T16:01:11.346Z</time>
      </trkpt>
      <trkpt lat="59.26141" lon="23.90472">
        <ele>25.611293</ele>
        <time>2020-10-06T16:01:26.223Z</time>
      </trkpt>
      <trkpt lat="59.26189" lon="23.90363">
        <ele>24.548115</ele>
        <time>2020-10-06T16:01:41.217Z</time>
      </trkpt>
      <trkpt lat="59.26222" lon="23.90216">
        <ele>23.371667</ele>
        <time>2020-10-06T16:01:58.246Z</time>
      </trkpt>
      <trkpt lat="59.26241" lon="23.90008">
        <ele>22.496801</ele>
        <time>2020-10-06T16:02:22.188Z</time>
      </trkpt>
      <trkpt lat="59.26221" lon="23.89575">
        <ele>21.679079</ele>
        <time>2020-10-06T16:03:15.475Z</time>
      </trkpt>
      <trkpt lat="59.26219" lon="23.89482">
        <ele>21.563816</ele>
        <time>2020-10-06T16:03:26.920Z</time>
      </trkpt>
      <trkpt lat="59.26222" lon="23.89307">
        <ele>21.165256</ele>
        <time>2020-10-06T16:03:48.021Z</time>
      </trkpt>
      <trkpt lat="59.26206" lon="23.89144">
        <ele>20.747808</ele>
        <time>2020-10-06T16:04:07.381Z</time>
      </trkpt>
      <trkpt lat="59.26207" lon="23.89034">
        <ele>20.453982</ele>
        <time>2020-10-06T16:04:20.174Z</time>
      </trkpt>
      <trkpt lat="59.26191" lon="23.88798">
        <ele>19.802552</ele>
        <time>2020-10-06T16:04:47.770Z</time>
      </trkpt>
      <trkpt lat="59.26168" lon="23.88587">
        <ele>19.42322</ele>
        <time>2020-10-06T16:05:14.197Z</time>
      </trkpt>
      <trkpt lat="59.26107" lon="23.88153">
        <ele>18.442447</ele>
        <time>2020-10-06T16:06:09.074Z</time>
      </trkpt>
      <trkpt lat="59.26096" lon="23.88046">
        <ele>18.05175</ele>
        <time>2020-10-06T16:06:20.988Z</time>
      </trkpt>
      <trkpt lat="59.26093" lon="23.88013">
        <ele>17.80907</ele>
        <time>2020-10-06T16:06:24.628Z</time>
      </trkpt>
      <trkpt lat="59.26088" lon="23.87943">
        <ele>17.30427</ele>
        <time>2020-10-06T16:06:32.130Z</time>
      </trkpt>
      <trkpt lat="59.26083" lon="23.87919">
        <ele>17.116165</ele>
        <time>2020-10-06T16:06:34.863Z</time>
      </trkpt>
      <trkpt lat="59.26045" lon="23.87799">
        <ele>16.102183</ele>
        <time>2020-10-06T16:06:49.572Z</time>
      </trkpt>
      <trkpt lat="59.25923" lon="23.87665">
        <ele>14.639119</ele>
        <time>2020-10-06T16:07:19.384Z</time>
      </trkpt>
      <trkpt lat="59.25918" lon="23.87648">
        <ele>14.544552</ele>
        <time>2020-10-06T16:07:21.552Z</time>
      </trkpt>
      <trkpt lat="59.25927" lon="23.87605">
        <ele>14.319035</ele>
        <time>2020-10-06T16:07:26.582Z</time>
      </trkpt>
      <trkpt lat="59.25961" lon="23.87362">
        <ele>13.818752</ele>
        <time>2020-10-06T16:07:53.652Z</time>
      </trkpt>
      <trkpt lat="59.25968" lon="23.87316">
        <ele>13.776265</ele>
        <time>2020-10-06T16:07:59.165Z</time>
      </trkpt>
      <trkpt lat="59.25974" lon="23.87268">
        <ele>13.731578</ele>
        <time>2020-10-06T16:08:05.075Z</time>
      </trkpt>
      <trkpt lat="59.25977" lon="23.87248">
        <ele>13.712907</ele>
        <time>2020-10-06T16:08:07.430Z</time>
      </trkpt>
      <trkpt lat="59.25998" lon="23.87127">
        <ele>13.689621</ele>
        <time>2020-10-06T16:08:22.120Z</time>
      </trkpt>
      <trkpt lat="59.26026" lon="23.86999">
        <ele>13.729278</ele>
        <time>2020-10-06T16:08:38.511Z</time>
      </trkpt>
      <trkpt lat="59.26051" lon="23.86915">
        <ele>13.756868</ele>
        <time>2020-10-06T16:08:50.188Z</time>
      </trkpt>
      <trkpt lat="59.26139" lon="23.86686">
        <ele>14.29965</ele>
        <time>2020-10-06T16:09:25.945Z</time>
      </trkpt>
      <trkpt lat="59.26168" lon="23.86623">
        <ele>14.480769</ele>
        <time>2020-10-06T16:09:37.090Z</time>
      </trkpt>
      <trkpt lat="59.26208" lon="23.86557">
        <ele>14.921412</ele>
        <time>2020-10-06T16:09:51.024Z</time>
      </trkpt>
      <trkpt lat="59.26359" lon="23.86399">
        <ele>16.362477</ele>
        <time>2020-10-06T16:10:37.972Z</time>
      </trkpt>
      <trkpt lat="59.26411" lon="23.86359">
        <ele>16.608293</ele>
        <time>2020-10-06T16:10:52.696Z</time>
      </trkpt>
      <trkpt lat="59.26517" lon="23.8634">
        <ele>16.918103</ele>
        <time>2020-10-06T16:11:17.644Z</time>
      </trkpt>
      <trkpt lat="59.26562" lon="23.86316">
        <ele>16.685628</ele>
        <time>2020-10-06T16:11:27.661Z</time>
      </trkpt>
      <trkpt lat="59.26614" lon="23.86302">
        <ele>16.427878</ele>
        <time>2020-10-06T16:11:38.528Z</time>
      </trkpt>
      <trkpt lat="59.26642" lon="23.86268">
        <ele>16.261586</ele>
        <time>2020-10-06T16:11:45.503Z</time>
      </trkpt>
      <trkpt lat="59.26694" lon="23.86178">
        <ele>16.029671</ele>
        <time>2020-10-06T16:12:00.095Z</time>
      </trkpt>
      <trkpt lat="59.26772" lon="23.86017">
        <ele>15.801012</ele>
        <time>2020-10-06T16:12:25.906Z</time>
      </trkpt>
      <trkpt lat="59.26825" lon="23.85866">
        <ele>15.825375</ele>
        <time>2020-10-06T16:12:48.812Z</time>
      </trkpt>
      <trkpt lat="59.26867" lon="23.85792">
        <ele>15.896492</ele>
        <time>2020-10-06T16:13:02.540Z</time>
      </trkpt>
      <trkpt lat="59.26886" lon="23.85742">
        <ele>15.935965</ele>
        <time>2020-10-06T16:13:09.942Z</time>
      </trkpt>
      <trkpt lat="59.26898" lon="23.85597">
        <ele>15.737108</ele>
        <time>2020-10-06T16:13:26.578Z</time>
      </trkpt>
      <trkpt lat="59.26934" lon="23.85419">
        <ele>15.274156</ele>
        <time>2020-10-06T16:13:47.269Z</time>
      </trkpt>
      <trkpt lat="59.26979" lon="23.85317">
        <ele>15.165531</ele>
        <time>2020-10-06T16:14:02.280Z</time>
      </trkpt>
      <trkpt lat="59.27002" lon="23.85229">
        <ele>15.2348</ele>
        <time>2020-10-06T16:14:13.664Z</time>
      </trkpt>
      <trkpt lat="59.27136" lon="23.84933">
        <ele>15.989183</ele>
        <time>2020-10-06T16:15:04.897Z</time>
      </trkpt>
      <trkpt lat="59.27184" lon="23.8485">
        <ele>16.356731</ele>
        <time>2020-10-06T16:15:21.423Z</time>
      </trkpt>
      <trkpt lat="59.27224" lon="23.84816">
        <ele>16.613543</ele>
        <time>2020-10-06T16:15:32.792Z</time>
      </trkpt>
      <trkpt lat="59.27254" lon="23.84773">
        <ele>16.8277</ele>
        <time>2020-10-06T16:15:42.231Z</time>
      </trkpt>
      <trkpt lat="59.27306" lon="23.84699">
        <ele>17.202753</ele>
        <time>2020-10-06T16:15:58.654Z</time>
      </trkpt>
      <trkpt lat="59.27399" lon="23.84543">
        <ele>17.810487</ele>
        <time>2020-10-06T16:16:29.772Z</time>
      </trkpt>
      <trkpt lat="59.27437" lon="23.84451">
        <ele>18.082108</ele>
        <time>2020-10-06T16:16:44.985Z</time>
      </trkpt>
      <trkpt lat="59.27464" lon="23.8417">
        <ele>18.260932</ele>
        <time>2020-10-06T16:17:20.088Z</time>
      </trkpt>
      <trkpt lat="59.27522" lon="23.83757">
        <ele>17.85171</ele>
        <time>2020-10-06T16:18:08.380Z</time>
      </trkpt>
      <trkpt lat="59.27629" lon="23.83345">
        <ele>17.402328</ele>
        <time>2020-10-06T16:19:01.811Z</time>
      </trkpt>
      <trkpt lat="59.27674" lon="23.83134">
        <ele>17.219023</ele>
        <time>2020-10-06T16:19:28.210Z</time>
      </trkpt>
      <trkpt lat="59.27661" lon="23.82976">
        <ele>17.112299</ele>
        <time>2020-10-06T16:19:46.837Z</time>
      </trkpt>
      <trkpt lat="59.27665" lon="23.82783">
        <ele>17.009969</ele>
        <time>2020-10-06T16:20:09.642Z</time>
      </trkpt>
      <trkpt lat="59.27683" lon="23.82546">
        <ele>16.838295</ele>
        <time>2020-10-06T16:20:37.605Z</time>
      </trkpt>
      <trkpt lat="59.27629" lon="23.82371">
        <ele>16.663015</ele>
        <time>2020-10-06T16:21:01.102Z</time>
      </trkpt>
      <trkpt lat="59.2758" lon="23.8223">
        <ele>16.401072</ele>
        <time>2020-10-06T16:21:20.252Z</time>
      </trkpt>
      <trkpt lat="59.27489" lon="23.82114">
        <ele>16.039715</ele>
        <time>2020-10-06T16:21:44.291Z</time>
      </trkpt>
      <trkpt lat="59.27471" lon="23.82079">
        <ele>15.924089</ele>
        <time>2020-10-06T16:21:49.932Z</time>
      </trkpt>
      <trkpt lat="59.27408" lon="23.81843">
        <ele>15.319298</ele>
        <time>2020-10-06T16:22:19.285Z</time>
      </trkpt>
      <trkpt lat="59.27395" lon="23.81684">
        <ele>15.135409</ele>
        <time>2020-10-06T16:22:37.043Z</time>
      </trkpt>
      <trkpt lat="59.27397" lon="23.81578">
        <ele>15.01396</ele>
        <time>2020-10-06T16:22:49.362Z</time>
      </trkpt>
      <trkpt lat="59.27396" lon="23.81522">
        <ele>14.950818</ele>
        <time>2020-10-06T16:22:55.894Z</time>
      </trkpt>
      <trkpt lat="59.27396" lon="23.81467">
        <ele>15.036079</ele>
        <time>2020-10-06T16:23:02.709Z</time>
      </trkpt>
      <trkpt lat="59.27401" lon="23.81422">
        <ele>15.179802</ele>
        <time>2020-10-06T16:23:08.552Z</time>
      </trkpt>
      <trkpt lat="59.27419" lon="23.8135">
        <ele>15.428652</ele>
        <time>2020-10-06T16:23:18.955Z</time>
      </trkpt>
      <trkpt lat="59.2745" lon="23.81145">
        <ele>16.066575</ele>
        <time>2020-10-06T16:23:48.156Z</time>
      </trkpt>
      <trkpt lat="59.27482" lon="23.81001">
        <ele>16.369555</ele>
        <time>2020-10-06T16:24:08.709Z</time>
      </trkpt>
      <trkpt lat="59.27517" lon="23.80887">
        <ele>16.628187</ele>
        <time>2020-10-06T16:24:25.204Z</time>
      </trkpt>
      <trkpt lat="59.27593" lon="23.80707">
        <ele>16.44987</ele>
        <time>2020-10-06T16:24:51.942Z</time>
      </trkpt>
      <trkpt lat="59.27625" lon="23.80563">
        <ele>16.243103</ele>
        <time>2020-10-06T16:25:09.426Z</time>
      </trkpt>
      <trkpt lat="59.27656" lon="23.8045">
        <ele>16.074816</ele>
        <time>2020-10-06T16:25:23.734Z</time>
      </trkpt>
      <trkpt lat="59.2768" lon="23.80281">
        <ele>15.844572</ele>
        <time>2020-10-06T16:25:43.820Z</time>
      </trkpt>
      <trkpt lat="59.27686" lon="23.80158">
        <ele>15.757897</ele>
        <time>2020-10-06T16:25:58.388Z</time>
      </trkpt>
      <trkpt lat="59.27693" lon="23.80098">
        <ele>15.739768</ele>
        <time>2020-10-06T16:26:05.774Z</time>
      </trkpt>
      <trkpt lat="59.27724" lon="23.79977">
        <ele>15.70071</ele>
        <time>2020-10-06T16:26:21.786Z</time>
      </trkpt>
      <trkpt lat="59.27746" lon="23.79912">
        <ele>15.677702</ele>
        <time>2020-10-06T16:26:31.132Z</time>
      </trkpt>
      <trkpt lat="59.27767" lon="23.79823">
        <ele>15.50902</ele>
        <time>2020-10-06T16:26:42.429Z</time>
      </trkpt>
      <trkpt lat="59.27778" lon="23.79745">
        <ele>15.366934</ele>
        <time>2020-10-06T16:26:51.544Z</time>
      </trkpt>
      <trkpt lat="59.27786" lon="23.79685">
        <ele>15.256698</ele>
        <time>2020-10-06T16:26:58.518Z</time>
      </trkpt>
      <trkpt lat="59.27818" lon="23.79422">
        <ele>14.587653</ele>
        <time>2020-10-06T16:27:27.940Z</time>
      </trkpt>
      <trkpt lat="59.27785" lon="23.79067">
        <ele>13.556735</ele>
        <time>2020-10-06T16:28:07.015Z</time>
      </trkpt>
      <trkpt lat="59.2773" lon="23.78797">
        <ele>12.836395</ele>
        <time>2020-10-06T16:28:39.109Z</time>
      </trkpt>
      <trkpt lat="59.27717" lon="23.78713">
        <ele>12.654216</ele>
        <time>2020-10-06T16:28:49.027Z</time>
      </trkpt>
      <trkpt lat="59.27631" lon="23.78677">
        <ele>12.29587</ele>
        <time>2020-10-06T16:29:08.444Z</time>
      </trkpt>
      <trkpt lat="59.27568" lon="23.78663">
        <ele>12.032449</ele>
        <time>2020-10-06T16:29:22.165Z</time>
      </trkpt>
      <trkpt lat="59.27525" lon="23.7863">
        <ele>11.841065</ele>
        <time>2020-10-06T16:29:32.020Z</time>
      </trkpt>
      <trkpt lat="59.27427" lon="23.78601">
        <ele>11.563029</ele>
        <time>2020-10-06T16:29:53.790Z</time>
      </trkpt>
      <trkpt lat="59.27395" lon="23.78582">
        <ele>11.554726</ele>
        <time>2020-10-06T16:30:01.298Z</time>
      </trkpt>
      <trkpt lat="59.27384" lon="23.78569">
        <ele>11.551592</ele>
        <time>2020-10-06T16:30:03.984Z</time>
      </trkpt>
      <trkpt lat="59.27374" lon="23.78545">
        <ele>11.547687</ele>
        <time>2020-10-06T16:30:07.777Z</time>
      </trkpt>
      <trkpt lat="59.27332" lon="23.78434">
        <ele>11.53009</ele>
        <time>2020-10-06T16:30:24.503Z</time>
      </trkpt>
      <trkpt lat="59.27327" lon="23.7839">
        <ele>11.57961</ele>
        <time>2020-10-06T16:30:29.973Z</time>
      </trkpt>
      <trkpt lat="59.27332" lon="23.78355">
        <ele>11.672227</ele>
        <time>2020-10-06T16:30:34.736Z</time>
      </trkpt>
      <trkpt lat="59.2735" lon="23.78307">
        <ele>11.824165</ele>
        <time>2020-10-06T16:30:42.329Z</time>
      </trkpt>
      <trkpt lat="59.27355" lon="23.78268">
        <ele>11.926665</ele>
        <time>2020-10-06T16:30:47.618Z</time>
      </trkpt>
      <trkpt lat="59.27365" lon="23.78061">
        <ele>12.459146</ele>
        <time>2020-10-06T16:31:14.852Z</time>
      </trkpt>
      <trkpt lat="59.27351" lon="23.78006">
        <ele>12.626637</ele>
        <time>2020-10-06T16:31:22.897Z</time>
      </trkpt>
      <trkpt lat="59.27319" lon="23.77964">
        <ele>12.835611</ele>
        <time>2020-10-06T16:31:32.867Z</time>
      </trkpt>
      <trkpt lat="59.27227" lon="23.7789">
        <ele>13.366079</ele>
        <time>2020-10-06T16:31:58.094Z</time>
      </trkpt>
      <trkpt lat="59.27003" lon="23.77712">
        <ele>14.084423</ele>
        <time>2020-10-06T16:32:57.577Z</time>
      </trkpt>
      <trkpt lat="59.26971" lon="23.77634">
        <ele>14.09864</ele>
        <time>2020-10-06T16:33:09.320Z</time>
      </trkpt>
      <trkpt lat="59.26936" lon="23.77583">
        <ele>14.110729</ele>
        <time>2020-10-06T16:33:19.151Z</time>
      </trkpt>
      <trkpt lat="59.26916" lon="23.77533">
        <ele>14.119521</ele>
        <time>2020-10-06T16:33:26.484Z</time>
      </trkpt>
      <trkpt lat="59.26897" lon="23.77445">
        <ele>14.131098</ele>
        <time>2020-10-06T16:33:37.524Z</time>
      </trkpt>
      <trkpt lat="59.26886" lon="23.77325">
        <ele>14.145845</ele>
        <time>2020-10-06T16:33:52.226Z</time>
      </trkpt>
      <trkpt lat="59.26884" lon="23.77176">
        <ele>14.133546</ele>
        <time>2020-10-06T16:34:10.395Z</time>
      </trkpt>
      <trkpt lat="59.26882" lon="23.77032">
        <ele>13.973587</ele>
        <time>2020-10-06T16:34:27.670Z</time>
      </trkpt>
      <trkpt lat="59.26877" lon="23.7685">
        <ele>13.772875</ele>
        <time>2020-10-06T16:34:48.076Z</time>
      </trkpt>
      <trkpt lat="59.26869" lon="23.7654">
        <ele>12.593544</ele>
        <time>2020-10-06T16:35:20.580Z</time>
      </trkpt>
      <trkpt lat="59.26845" lon="23.76387">
        <ele>12.530268</ele>
        <time>2020-10-06T16:35:38.186Z</time>
      </trkpt>
      <trkpt lat="59.26822" lon="23.76114">
        <ele>12.838754</ele>
        <time>2020-10-06T16:36:14.079Z</time>
      </trkpt>
      <trkpt lat="59.26818" lon="23.76095">
        <ele>12.895308</ele>
        <time>2020-10-06T16:36:17.156Z</time>
      </trkpt>
      <trkpt lat="59.26811" lon="23.76084">
        <ele>12.941238</ele>
        <time>2020-10-06T16:36:19.597Z</time>
      </trkpt>
      <trkpt lat="59.26756" lon="23.76046">
        <ele>13.250738</ele>
        <time>2020-10-06T16:36:34.940Z</time>
      </trkpt>
      <trkpt lat="59.26689" lon="23.75993">
        <ele>13.631614</ele>
        <time>2020-10-06T16:36:52.942Z</time>
      </trkpt>
      <trkpt lat="59.26757" lon="23.75828">
        <ele>13.498816</ele>
        <time>2020-10-06T16:37:16.686Z</time>
      </trkpt>
      <trkpt lat="59.26804" lon="23.75731">
        <ele>13.381028</ele>
        <time>2020-10-06T16:37:31.017Z</time>
      </trkpt>
      <trkpt lat="59.26822" lon="23.75693">
        <ele>13.373776</ele>
        <time>2020-10-06T16:37:36.658Z</time>
      </trkpt>
      <trkpt lat="59.26844" lon="23.75637">
        <ele>13.396938</ele>
        <time>2020-10-06T16:37:44.402Z</time>
      </trkpt>
      <trkpt lat="59.26863" lon="23.75552">
        <ele>13.426957</ele>
        <time>2020-10-06T16:37:54.563Z</time>
      </trkpt>
      <trkpt lat="59.26871" lon="23.75452">
        <ele>13.460023</ele>
        <time>2020-10-06T16:38:06.861Z</time>
      </trkpt>
      <trkpt lat="59.26876" lon="23.75206">
        <ele>14.34894</ele>
        <time>2020-10-06T16:38:37.953Z</time>
      </trkpt>
      <trkpt lat="59.26856" lon="23.75214">
        <ele>14.532838</ele>
        <time>2020-10-06T16:38:43.838Z</time>
      </trkpt>
      <trkpt lat="59.26814" lon="23.75247">
        <ele>14.935826</ele>
        <time>2020-10-06T16:38:56.233Z</time>
      </trkpt>
      <trkpt lat="59.26784" lon="23.75235">
        <ele>15.274059</ele>
        <time>2020-10-06T16:39:05.195Z</time>
      </trkpt>
      <trkpt lat="59.26747" lon="23.75247">
        <ele>15.763732</ele>
        <time>2020-10-06T16:39:15.933Z</time>
      </trkpt>
      <trkpt lat="59.26739" lon="23.75236">
        <ele>15.892932</ele>
        <time>2020-10-06T16:39:18.774Z</time>
      </trkpt>
      <trkpt lat="59.26729" lon="23.75215">
        <ele>16.086238</ele>
        <time>2020-10-06T16:39:23.307Z</time>
      </trkpt>
      <trkpt lat="59.26686" lon="23.75098">
        <ele>17.065917</ele>
        <time>2020-10-06T16:39:44.396Z</time>
      </trkpt>
      <trkpt lat="59.26647" lon="23.75034">
        <ele>17.586066</ele>
        <time>2020-10-06T16:39:58.381Z</time>
      </trkpt>
      <trkpt lat="59.2662" lon="23.74962">
        <ele>17.850275</ele>
        <time>2020-10-06T16:40:10.586Z</time>
      </trkpt>
      <trkpt lat="59.26588" lon="23.74916">
        <ele>18.077311</ele>
        <time>2020-10-06T16:40:20.473Z</time>
      </trkpt>
      <trkpt lat="59.26549" lon="23.74879">
        <ele>18.323196</ele>
        <time>2020-10-06T16:40:30.921Z</time>
      </trkpt>
      <trkpt lat="59.26527" lon="23.74868">
        <ele>18.45371</ele>
        <time>2020-10-06T16:40:36.414Z</time>
      </trkpt>
      <trkpt lat="59.26469" lon="23.74876">
        <ele>18.812216</ele>
        <time>2020-10-06T16:40:50.541Z</time>
      </trkpt>
      <trkpt lat="59.26422" lon="23.74915">
        <ele>19.129806</ele>
        <time>2020-10-06T16:41:03.260Z</time>
      </trkpt>
      <trkpt lat="59.2639" lon="23.74929">
        <ele>19.336122</ele>
        <time>2020-10-06T16:41:11.819Z</time>
      </trkpt>
      <trkpt lat="59.26348" lon="23.74903">
        <ele>19.609102</ele>
        <time>2020-10-06T16:41:23.529Z</time>
      </trkpt>
      <trkpt lat="59.2632" lon="23.74873">
        <ele>19.973121</ele>
        <time>2020-10-06T16:41:32.572Z</time>
      </trkpt>
      <trkpt lat="59.26248" lon="23.74744">
        <ele>21.107716</ele>
        <time>2020-10-06T16:42:00.594Z</time>
      </trkpt>
      <trkpt lat="59.2617" lon="23.74641">
        <ele>21.841741</ele>
        <time>2020-10-06T16:42:26.479Z</time>
      </trkpt>
      <trkpt lat="59.26131" lon="23.74575">
        <ele>21.996498</ele>
        <time>2020-10-06T16:42:39.526Z</time>
      </trkpt>
      <trkpt lat="59.26105" lon="23.74546">
        <ele>22.086608</ele>
        <time>2020-10-06T16:42:46.661Z</time>
      </trkpt>
      <trkpt lat="59.26023" lon="23.74538">
        <ele>21.948206</ele>
        <time>2020-10-06T16:43:04.858Z</time>
      </trkpt>
      <trkpt lat="59.26" lon="23.74545">
        <ele>21.666816</ele>
        <time>2020-10-06T16:43:09.571Z</time>
      </trkpt>
      <trkpt lat="59.25934" lon="23.74592">
        <ele>20.794814</ele>
        <time>2020-10-06T16:43:23.490Z</time>
      </trkpt>
      <trkpt lat="59.25853" lon="23.74583">
        <ele>19.61351</ele>
        <time>2020-10-06T16:43:38.948Z</time>
      </trkpt>
      <trkpt lat="59.25813" lon="23.74587">
        <ele>18.794115</ele>
        <time>2020-10-06T16:43:46.003Z</time>
      </trkpt>
      <trkpt lat="59.2577" lon="23.74575">
        <ele>17.906462</ele>
        <time>2020-10-06T16:43:53.674Z</time>
      </trkpt>
      <trkpt lat="59.25748" lon="23.74579">
        <ele>17.433777</ele>
        <time>2020-10-06T16:43:57.773Z</time>
      </trkpt>
      <trkpt lat="59.25704" lon="23.74606">
        <ele>16.48596</ele>
        <time>2020-10-06T16:44:06.347Z</time>
      </trkpt>
      <trkpt lat="59.25688" lon="23.74617">
        <ele>16.263137</ele>
        <time>2020-10-06T16:44:09.394Z</time>
      </trkpt>
      <trkpt lat="59.25669" lon="23.74632">
        <ele>16.14379</ele>
        <time>2020-10-06T16:44:13.530Z</time>
      </trkpt>
      <trkpt lat="59.25642" lon="23.74667">
        <ele>15.947484</ele>
        <time>2020-10-06T16:44:20.049Z</time>
      </trkpt>
      <trkpt lat="59.2564" lon="23.74669">
        <ele>15.938199</ele>
        <time>2020-10-06T16:44:20.405Z</time>
      </trkpt>
      <trkpt lat="59.25582" lon="23.74798">
        <ele>15.415146</ele>
        <time>2020-10-06T16:44:39.027Z</time>
      </trkpt>
      <trkpt lat="59.25511" lon="23.74869">
        <ele>15.687851</ele>
        <time>2020-10-06T16:45:00.830Z</time>
      </trkpt>
      <trkpt lat="59.25476" lon="23.74915">
        <ele>16.04949</ele>
        <time>2020-10-06T16:45:12.345Z</time>
      </trkpt>
      <trkpt lat="59.25459" lon="23.74934">
        <ele>16.220067</ele>
        <time>2020-10-06T16:45:17.929Z</time>
      </trkpt>
      <trkpt lat="59.25437" lon="23.74965">
        <ele>16.450577</ele>
        <time>2020-10-06T16:45:25.220Z</time>
      </trkpt>
      <trkpt lat="59.25351" lon="23.7516">
        <ele>17.30839</ele>
        <time>2020-10-06T16:45:59.762Z</time>
      </trkpt>
      <trkpt lat="59.25295" lon="23.75257">
        <ele>17.725882</ele>
        <time>2020-10-06T16:46:17.791Z</time>
      </trkpt>
      <trkpt lat="59.2527" lon="23.75341">
        <ele>18.098855</ele>
        <time>2020-10-06T16:46:30.165Z</time>
      </trkpt>
      <trkpt lat="59.25262" lon="23.75369">
        <ele>18.235523</ele>
        <time>2020-10-06T16:46:34.335Z</time>
      </trkpt>
      <trkpt lat="59.2527" lon="23.7553">
        <ele>18.91253</ele>
        <time>2020-10-06T16:46:56.313Z</time>
      </trkpt>
      <trkpt lat="59.25246" lon="23.75627">
        <ele>19.412544</ele>
        <time>2020-10-06T16:47:11.823Z</time>
      </trkpt>
      <trkpt lat="59.2525" lon="23.75715">
        <ele>19.976976</ele>
        <time>2020-10-06T16:47:25.162Z</time>
      </trkpt>
      <trkpt lat="59.25235" lon="23.75807">
        <ele>20.591835</ele>
        <time>2020-10-06T16:47:39.646Z</time>
      </trkpt>
      <trkpt lat="59.25254" lon="23.75988">
        <ele>21.532087</ele>
        <time>2020-10-06T16:48:05.737Z</time>
      </trkpt>
      <trkpt lat="59.2524" lon="23.76073">
        <ele>21.580511</ele>
        <time>2020-10-06T16:48:17.239Z</time>
      </trkpt>
      <trkpt lat="59.2518" lon="23.76266">
        <ele>21.693518</ele>
        <time>2020-10-06T16:48:42.964Z</time>
      </trkpt>
      <trkpt lat="59.25131" lon="23.76395">
        <ele>21.222601</ele>
        <time>2020-10-06T16:49:00.155Z</time>
      </trkpt>
      <trkpt lat="59.25059" lon="23.76511">
        <ele>20.688043</ele>
        <time>2020-10-06T16:49:20.020Z</time>
      </trkpt>
      <trkpt lat="59.24997" lon="23.76696">
        <ele>20.311486</ele>
        <time>2020-10-06T16:49:45.117Z</time>
      </trkpt>
      <trkpt lat="59.24964" lon="23.76849">
        <ele>19.971122</ele>
        <time>2020-10-06T16:50:03.916Z</time>
      </trkpt>
      <trkpt lat="59.24962" lon="23.76986">
        <ele>19.451203</ele>
        <time>2020-10-06T16:50:18.926Z</time>
      </trkpt>
      <trkpt lat="59.24948" lon="23.77058">
        <ele>19.15586</ele>
        <time>2020-10-06T16:50:27.059Z</time>
      </trkpt>
      <trkpt lat="59.24931" lon="23.77102">
        <ele>18.947798</ele>
        <time>2020-10-06T16:50:32.670Z</time>
      </trkpt>
      <trkpt lat="59.24884" lon="23.77143">
        <ele>18.566341</ele>
        <time>2020-10-06T16:50:43.067Z</time>
      </trkpt>
      <trkpt lat="59.24835" lon="23.77247">
        <ele>18.035909</ele>
        <time>2020-10-06T16:50:57.796Z</time>
      </trkpt>
      <trkpt lat="59.24822" lon="23.77224">
        <ele>17.906322</ele>
        <time>2020-10-06T16:51:01.273Z</time>
      </trkpt>
      <trkpt lat="59.24796" lon="23.77191">
        <ele>17.675297</ele>
        <time>2020-10-06T16:51:07.660Z</time>
      </trkpt>
      <trkpt lat="59.24775" lon="23.77182">
        <ele>17.518788</ele>
        <time>2020-10-06T16:51:12.082Z</time>
      </trkpt>
      <trkpt lat="59.24755" lon="23.77182">
        <ele>17.431358</ele>
        <time>2020-10-06T16:51:16.280Z</time>
      </trkpt>
      <trkpt lat="59.24722" lon="23.77203">
        <ele>17.463141</ele>
        <time>2020-10-06T16:51:23.698Z</time>
      </trkpt>
      <trkpt lat="59.24612" lon="23.77309">
        <ele>17.576205</ele>
        <time>2020-10-06T16:51:52.417Z</time>
      </trkpt>
      <trkpt lat="59.24547" lon="23.77393">
        <ele>17.578929</ele>
        <time>2020-10-06T16:52:10.391Z</time>
      </trkpt>
      <trkpt lat="59.24497" lon="23.77443">
        <ele>17.568445</ele>
        <time>2020-10-06T16:52:23.187Z</time>
      </trkpt>
      <trkpt lat="59.2435" lon="23.77564">
        <ele>17.110915</ele>
        <time>2020-10-06T16:52:56.487Z</time>
      </trkpt>
      <trkpt lat="59.24293" lon="23.77576">
        <ele>16.849989</ele>
        <time>2020-10-06T16:53:08.176Z</time>
      </trkpt>
      <trkpt lat="59.24247" lon="23.77546">
        <ele>16.68752</ele>
        <time>2020-10-06T16:53:18.212Z</time>
      </trkpt>
      <trkpt lat="59.24208" lon="23.77476">
        <ele>16.575614</ele>
        <time>2020-10-06T16:53:29.230Z</time>
      </trkpt>
      <trkpt lat="59.2413" lon="23.77234">
        <ele>16.512643</ele>
        <time>2020-10-06T16:54:01.529Z</time>
      </trkpt>
      <trkpt lat="59.24083" lon="23.77134">
        <ele>16.755869</ele>
        <time>2020-10-06T16:54:18.193Z</time>
      </trkpt>
      <trkpt lat="59.24059" lon="23.77112">
        <ele>16.848078</ele>
        <time>2020-10-06T16:54:24.558Z</time>
      </trkpt>
      <trkpt lat="59.24046" lon="23.77104">
        <ele>16.898342</ele>
        <time>2020-10-06T16:54:28.146Z</time>
      </trkpt>
      <trkpt lat="59.24011" lon="23.77085">
        <ele>17.061358</ele>
        <time>2020-10-06T16:54:37.111Z</time>
      </trkpt>
      <trkpt lat="59.2386" lon="23.77031">
        <ele>18.159125</ele>
        <time>2020-10-06T16:55:15.778Z</time>
      </trkpt>
      <trkpt lat="59.23532" lon="23.76858">
        <ele>20.079448</ele>
        <time>2020-10-06T16:56:39.963Z</time>
      </trkpt>
      <trkpt lat="59.23426" lon="23.76802">
        <ele>20.064491</ele>
        <time>2020-10-06T16:57:04.709Z</time>
      </trkpt>
      <trkpt lat="59.23323" lon="23.76738">
        <ele>19.785759</ele>
        <time>2020-10-06T16:57:27.346Z</time>
      </trkpt>
      <trkpt lat="59.23185" lon="23.7662">
        <ele>18.530905</ele>
        <time>2020-10-06T16:57:56.993Z</time>
      </trkpt>
      <trkpt lat="59.23041" lon="23.765">
        <ele>17.266035</ele>
        <time>2020-10-06T16:58:27.188Z</time>
      </trkpt>
      <trkpt lat="59.22848" lon="23.76342">
        <ele>16.582384</ele>
        <time>2020-10-06T16:59:10.989Z</time>
      </trkpt>
      <trkpt lat="59.22739" lon="23.76239">
        <ele>17.183601</ele>
        <time>2020-10-06T16:59:40.874Z</time>
      </trkpt>
      <trkpt lat="59.22735" lon="23.76235">
        <ele>17.212494</ele>
        <time>2020-10-06T16:59:42.055Z</time>
      </trkpt>
      <trkpt lat="59.2273" lon="23.7623">
        <ele>17.247739</ele>
        <time>2020-10-06T16:59:43.524Z</time>
      </trkpt>
      <trkpt lat="59.22672" lon="23.76172">
        <ele>17.668381</ele>
        <time>2020-10-06T17:00:00.430Z</time>
      </trkpt>
      <trkpt lat="59.22642" lon="23.76143">
        <ele>17.831254</ele>
        <time>2020-10-06T17:00:08.998Z</time>
      </trkpt>
      <trkpt lat="59.22638" lon="23.76139">
        <ele>17.852458</ele>
        <time>2020-10-06T17:00:10.204Z</time>
      </trkpt>
      <trkpt lat="59.22635" lon="23.76136">
        <ele>17.865387</ele>
        <time>2020-10-06T17:00:10.964Z</time>
      </trkpt>
      <trkpt lat="59.22591" lon="23.76093">
        <ele>18.092513</ele>
        <time>2020-10-06T17:00:23.427Z</time>
      </trkpt>
      <trkpt lat="59.22495" lon="23.76005">
        <ele>18.479168</ele>
        <time>2020-10-06T17:00:48.344Z</time>
      </trkpt>
      <trkpt lat="59.22337" lon="23.75888">
        <ele>17.762737</ele>
        <time>2020-10-06T17:01:23.026Z</time>
      </trkpt>
      <trkpt lat="59.22262" lon="23.75803">
        <ele>17.154354</ele>
        <time>2020-10-06T17:01:40.292Z</time>
      </trkpt>
      <trkpt lat="59.22228" lon="23.75771">
        <ele>16.892388</ele>
        <time>2020-10-06T17:01:47.711Z</time>
      </trkpt>
      <trkpt lat="59.2219" lon="23.75734">
        <ele>16.592635</ele>
        <time>2020-10-06T17:01:56.208Z</time>
      </trkpt>
      <trkpt lat="59.22146" lon="23.75675">
        <ele>16.239118</ele>
        <time>2020-10-06T17:02:06.984Z</time>
      </trkpt>
      <trkpt lat="59.22116" lon="23.7562">
        <ele>15.973626</ele>
        <time>2020-10-06T17:02:15.298Z</time>
      </trkpt>
      <trkpt lat="59.22081" lon="23.75526">
        <ele>15.59135</ele>
        <time>2020-10-06T17:02:27.290Z</time>
      </trkpt>
      <trkpt lat="59.22051" lon="23.75426">
        <ele>15.287872</ele>
        <time>2020-10-06T17:02:39.439Z</time>
      </trkpt>
      <trkpt lat="59.22024" lon="23.7537">
        <ele>15.180838</ele>
        <time>2020-10-06T17:02:47.710Z</time>
      </trkpt>
      <trkpt lat="59.21996" lon="23.7533">
        <ele>15.087637</ele>
        <time>2020-10-06T17:02:55.003Z</time>
      </trkpt>
      <trkpt lat="59.2192" lon="23.75241">
        <ele>14.876483</ele>
        <time>2020-10-06T17:03:14.321Z</time>
      </trkpt>
      <trkpt lat="59.21861" lon="23.7516">
        <ele>15.159759</ele>
        <time>2020-10-06T17:03:30.642Z</time>
      </trkpt>
      <trkpt lat="59.21673" lon="23.74802">
        <ele>16.647349</ele>
        <time>2020-10-06T17:04:36.238Z</time>
      </trkpt>
      <trkpt lat="59.21649" lon="23.74741">
        <ele>16.867098</ele>
        <time>2020-10-06T17:04:46.265Z</time>
      </trkpt>
      <trkpt lat="59.21608" lon="23.74608">
        <ele>17.201148</ele>
        <time>2020-10-06T17:05:05.923Z</time>
      </trkpt>
      <trkpt lat="59.21588" lon="23.74555">
        <ele>17.343344</ele>
        <time>2020-10-06T17:05:14.219Z</time>
      </trkpt>
      <trkpt lat="59.21584" lon="23.74547">
        <ele>17.366173</ele>
        <time>2020-10-06T17:05:15.314Z</time>
      </trkpt>
      <trkpt lat="59.21306" lon="23.73961">
        <ele>17.35609</ele>
        <time>2020-10-06T17:06:45.718Z</time>
      </trkpt>
      <trkpt lat="59.21284" lon="23.73874">
        <ele>17.242026</ele>
        <time>2020-10-06T17:06:56.380Z</time>
      </trkpt>
      <trkpt lat="59.2123" lon="23.73533">
        <ele>16.707084</ele>
        <time>2020-10-06T17:07:35.340Z</time>
      </trkpt>
      <trkpt lat="59.21173" lon="23.73237">
        <ele>16.007874</ele>
        <time>2020-10-06T17:08:08.781Z</time>
      </trkpt>
      <trkpt lat="59.21157" lon="23.73102">
        <ele>15.68124</ele>
        <time>2020-10-06T17:08:23.247Z</time>
      </trkpt>
      <trkpt lat="59.21129" lon="23.72713">
        <ele>15.055688</ele>
        <time>2020-10-06T17:09:05.508Z</time>
      </trkpt>
      <trkpt lat="59.21123" lon="23.72527">
        <ele>15.145858</ele>
        <time>2020-10-06T17:09:27.243Z</time>
      </trkpt>
      <trkpt lat="59.21149" lon="23.72006">
        <ele>16.484445</ele>
        <time>2020-10-06T17:10:33.326Z</time>
      </trkpt>
      <trkpt lat="59.21161" lon="23.71928">
        <ele>16.728413</ele>
        <time>2020-10-06T17:10:43.598Z</time>
      </trkpt>
      <trkpt lat="59.21193" lon="23.71802">
        <ele>16.661505</ele>
        <time>2020-10-06T17:11:00.850Z</time>
      </trkpt>
      <trkpt lat="59.21313" lon="23.71364">
        <ele>15.638233</ele>
        <time>2020-10-06T17:11:53.429Z</time>
      </trkpt>
      <trkpt lat="59.2133" lon="23.71249">
        <ele>15.177425</ele>
        <time>2020-10-06T17:12:05.220Z</time>
      </trkpt>
      <trkpt lat="59.21331" lon="23.71238">
        <ele>15.123085</ele>
        <time>2020-10-06T17:12:06.360Z</time>
      </trkpt>
      <trkpt lat="59.21333" lon="23.71225">
        <ele>15.055064</ele>
        <time>2020-10-06T17:12:07.781Z</time>
      </trkpt>
      <trkpt lat="59.21338" lon="23.71193">
        <ele>14.895524</ele>
        <time>2020-10-06T17:12:11.063Z</time>
      </trkpt>
      <trkpt lat="59.21365" lon="23.70971">
        <ele>13.803274</ele>
        <time>2020-10-06T17:12:33.662Z</time>
      </trkpt>
      <trkpt lat="59.21384" lon="23.70869">
        <ele>13.19769</ele>
        <time>2020-10-06T17:12:44.527Z</time>
      </trkpt>
      <trkpt lat="59.21411" lon="23.70768">
        <ele>12.543467</ele>
        <time>2020-10-06T17:12:55.849Z</time>
      </trkpt>
      <trkpt lat="59.21594" lon="23.7036">
        <ele>9.238225</ele>
        <time>2020-10-06T17:13:47.872Z</time>
      </trkpt>
      <trkpt lat="59.21644" lon="23.70252">
        <ele>8.775456</ele>
        <time>2020-10-06T17:14:02.480Z</time>
      </trkpt>
      <trkpt lat="59.21703" lon="23.70149">
        <ele>8.285891</ele>
        <time>2020-10-06T17:14:19.065Z</time>
      </trkpt>
      <trkpt lat="59.21728" lon="23.70117">
        <ele>8.441348</ele>
        <time>2020-10-06T17:14:26.112Z</time>
      </trkpt>
      <trkpt lat="59.21783" lon="23.70061">
        <ele>8.797363</ele>
        <time>2020-10-06T17:14:41.353Z</time>
      </trkpt>
      <trkpt lat="59.21818" lon="23.70026">
        <ele>9.023395</ele>
        <time>2020-10-06T17:14:51.389Z</time>
      </trkpt>
      <trkpt lat="59.2187" lon="23.69964">
        <ele>9.426474</ele>
        <time>2020-10-06T17:15:07.122Z</time>
      </trkpt>
      <trkpt lat="59.21916" lon="23.69889">
        <ele>10.074853</ele>
        <time>2020-10-06T17:15:22.823Z</time>
      </trkpt>
      <trkpt lat="59.21957" lon="23.69788">
        <ele>10.795546</ele>
        <time>2020-10-06T17:15:41.229Z</time>
      </trkpt>
      <trkpt lat="59.21976" lon="23.69742">
        <ele>11.122253</ele>
        <time>2020-10-06T17:15:49.159Z</time>
      </trkpt>
      <trkpt lat="59.22005" lon="23.69688">
        <ele>11.471224</ele>
        <time>2020-10-06T17:15:59.464Z</time>
      </trkpt>
      <trkpt lat="59.2201" lon="23.69683">
        <ele>11.515488</ele>
        <time>2020-10-06T17:16:00.914Z</time>
      </trkpt>
      <trkpt lat="59.22032" lon="23.69658">
        <ele>11.717075</ele>
        <time>2020-10-06T17:16:07.542Z</time>
      </trkpt>
      <trkpt lat="59.22039" lon="23.6965">
        <ele>11.779516</ele>
        <time>2020-10-06T17:16:09.652Z</time>
      </trkpt>
      <trkpt lat="59.2218" lon="23.6952">
        <ele>12.840781</ele>
        <time>2020-10-06T17:16:48.868Z</time>
      </trkpt>
      <trkpt lat="59.22224" lon="23.69466">
        <ele>13.050379</ele>
        <time>2020-10-06T17:17:00.729Z</time>
      </trkpt>
      <trkpt lat="59.22263" lon="23.69394">
        <ele>13.26921</ele>
        <time>2020-10-06T17:17:13.349Z</time>
      </trkpt>
      <trkpt lat="59.22278" lon="23.69366">
        <ele>13.351413</ele>
        <time>2020-10-06T17:17:18.238Z</time>
      </trkpt>
      <trkpt lat="59.22284" lon="23.69345">
        <ele>13.403008</ele>
        <time>2020-10-06T17:17:21.276Z</time>
      </trkpt>
      <trkpt lat="59.22303" lon="23.6922">
        <ele>13.654375</ele>
        <time>2020-10-06T17:17:37.549Z</time>
      </trkpt>
      <trkpt lat="59.22304" lon="23.69191">
        <ele>13.711003</ele>
        <time>2020-10-06T17:17:41.188Z</time>
      </trkpt>
      <trkpt lat="59.22301" lon="23.69142">
        <ele>13.805856</ele>
        <time>2020-10-06T17:17:47.228Z</time>
      </trkpt>
      <trkpt lat="59.22291" lon="23.69027">
        <ele>14.031035</ele>
        <time>2020-10-06T17:18:01.205Z</time>
      </trkpt>
      <trkpt lat="59.22291" lon="23.68981">
        <ele>14.03763</ele>
        <time>2020-10-06T17:18:06.736Z</time>
      </trkpt>
      <trkpt lat="59.22299" lon="23.68961">
        <ele>13.994574</ele>
        <time>2020-10-06T17:18:09.666Z</time>
      </trkpt>
      <trkpt lat="59.22303" lon="23.68933">
        <ele>13.943693</ele>
        <time>2020-10-06T17:18:13.306Z</time>
      </trkpt>
      <trkpt lat="59.22306" lon="23.68916">
        <ele>13.914256</ele>
        <time>2020-10-06T17:18:15.305Z</time>
      </trkpt>
      <trkpt lat="59.22333" lon="23.68793">
        <ele>13.684439</ele>
        <time>2020-10-06T17:18:30.042Z</time>
      </trkpt>
      <trkpt lat="59.22355" lon="23.68638">
        <ele>13.311933</ele>
        <time>2020-10-06T17:18:46.217Z</time>
      </trkpt>
      <trkpt lat="59.22354" lon="23.68601">
        <ele>13.157981</ele>
        <time>2020-10-06T17:18:49.885Z</time>
      </trkpt>
      <trkpt lat="59.22353" lon="23.6858">
        <ele>13.066279</ele>
        <time>2020-10-06T17:18:51.932Z</time>
      </trkpt>
      <trkpt lat="59.22343" lon="23.68546">
        <ele>12.900638</ele>
        <time>2020-10-06T17:18:55.920Z</time>
      </trkpt>
      <trkpt lat="59.22335" lon="23.68517">
        <ele>12.759478</ele>
        <time>2020-10-06T17:18:59.133Z</time>
      </trkpt>
      <trkpt lat="59.22318" lon="23.68457">
        <ele>12.473734</ele>
        <time>2020-10-06T17:19:05.890Z</time>
      </trkpt>
      <trkpt lat="59.22302" lon="23.68399">
        <ele>12.192897</ele>
        <time>2020-10-06T17:19:12.627Z</time>
      </trkpt>
      <trkpt lat="59.22299" lon="23.68391">
        <ele>12.154939</ele>
        <time>2020-10-06T17:19:13.499Z</time>
      </trkpt>
      <trkpt lat="59.22237" lon="23.68169">
        <ele>11.984898</ele>
        <time>2020-10-06T17:19:41.552Z</time>
      </trkpt>
      <trkpt lat="59.2221" lon="23.68078">
        <ele>11.982824</ele>
        <time>2020-10-06T17:19:54.373Z</time>
      </trkpt>
      <trkpt lat="59.2218" lon="23.6799">
        <ele>12.288949</ele>
        <time>2020-10-06T17:20:07.103Z</time>
      </trkpt>
      <trkpt lat="59.22172" lon="23.67972">
        <ele>12.386003</ele>
        <time>2020-10-06T17:20:10.130Z</time>
      </trkpt>
      <trkpt lat="59.22165" lon="23.67981">
        <ele>12.452517</ele>
        <time>2020-10-06T17:20:12.645Z</time>
      </trkpt>
      <trkpt lat="59.22158" lon="23.67979">
        <ele>12.508405</ele>
        <time>2020-10-06T17:20:14.237Z</time>
      </trkpt>
      <trkpt lat="59.22139" lon="23.67978">
        <ele>12.665308</ele>
        <time>2020-10-06T17:20:19.155Z</time>
      </trkpt>
      <trkpt lat="59.221" lon="23.67982">
        <ele>12.983523</ele>
        <time>2020-10-06T17:20:29.430Z</time>
      </trkpt>
      <trkpt lat="59.22058" lon="23.67985">
        <ele>13.320157</ele>
        <time>2020-10-06T17:20:40.276Z</time>
      </trkpt>
      <trkpt lat="59.22021" lon="23.67981">
        <ele>13.763421</ele>
        <time>2020-10-06T17:20:50.345Z</time>
      </trkpt>
      <trkpt lat="59.22008" lon="23.67969">
        <ele>13.980447</ele>
        <time>2020-10-06T17:20:54.340Z</time>
      </trkpt>
      <trkpt lat="59.21999" lon="23.6795">
        <ele>14.17358</ele>
        <time>2020-10-06T17:20:58.160Z</time>
      </trkpt>
      <trkpt lat="59.2199" lon="23.67925">
        <ele>14.410275</ele>
        <time>2020-10-06T17:21:02.709Z</time>
      </trkpt>
      <trkpt lat="59.21976" lon="23.67887">
        <ele>14.762177</ele>
        <time>2020-10-06T17:21:09.854Z</time>
      </trkpt>
      <trkpt lat="59.21956" lon="23.67843">
        <ele>15.199847</ele>
        <time>2020-10-06T17:21:18.544Z</time>
      </trkpt>
      <trkpt lat="59.21882" lon="23.67697">
        <ele>16.369963</ele>
        <time>2020-10-06T17:21:48.736Z</time>
      </trkpt>
      <trkpt lat="59.21765" lon="23.67469">
        <ele>17.080416</ele>
        <time>2020-10-06T17:22:27.365Z</time>
      </trkpt>
      <trkpt lat="59.21747" lon="23.67437">
        <ele>17.000969</ele>
        <time>2020-10-06T17:22:32.458Z</time>
      </trkpt>
      <trkpt lat="59.21744" lon="23.67429">
        <ele>16.985163</ele>
        <time>2020-10-06T17:22:33.362Z</time>
      </trkpt>
      <trkpt lat="59.21735" lon="23.67405">
        <ele>16.934804</ele>
        <time>2020-10-06T17:22:36.595Z</time>
      </trkpt>
      <trkpt lat="59.21716" lon="23.67338">
        <ele>16.804902</ele>
        <time>2020-10-06T17:22:44.684Z</time>
      </trkpt>
      <trkpt lat="59.21692" lon="23.67219">
        <ele>16.588284</ele>
        <time>2020-10-06T17:22:57.999Z</time>
      </trkpt>
      <trkpt lat="59.21637" lon="23.66969">
        <ele>15.669154</ele>
        <time>2020-10-06T17:23:26.206Z</time>
      </trkpt>
      <trkpt lat="59.21517" lon="23.66423">
        <ele>13.679044</ele>
        <time>2020-10-06T17:24:27.180Z</time>
      </trkpt>
      <trkpt lat="59.21506" lon="23.66374">
        <ele>13.540022</ele>
        <time>2020-10-06T17:24:32.911Z</time>
      </trkpt>
      <trkpt lat="59.21473" lon="23.66295">
        <ele>13.272661</ele>
        <time>2020-10-06T17:24:43.966Z</time>
      </trkpt>
      <trkpt lat="59.21406" lon="23.66177">
        <ele>13.069201</ele>
        <time>2020-10-06T17:25:03.034Z</time>
      </trkpt>
      <trkpt lat="59.21309" lon="23.66006">
        <ele>13.06102</ele>
        <time>2020-10-06T17:25:31.587Z</time>
      </trkpt>
      <trkpt lat="59.21281" lon="23.65963">
        <ele>13.310144</ele>
        <time>2020-10-06T17:25:40.115Z</time>
      </trkpt>
      <trkpt lat="59.21227" lon="23.65911">
        <ele>13.720651</ele>
        <time>2020-10-06T17:25:54.841Z</time>
      </trkpt>
      <trkpt lat="59.21226" lon="23.6591">
        <ele>13.729303</ele>
        <time>2020-10-06T17:25:55.405Z</time>
      </trkpt>
      <trkpt lat="59.21172" lon="23.65875">
        <ele>14.1199</ele>
        <time>2020-10-06T17:26:10.623Z</time>
      </trkpt>
      <trkpt lat="59.2113" lon="23.65862">
        <ele>14.842282</ele>
        <time>2020-10-06T17:26:22.626Z</time>
      </trkpt>
      <trkpt lat="59.21069" lon="23.65869">
        <ele>15.923716</ele>
        <time>2020-10-06T17:26:41.305Z</time>
      </trkpt>
      <trkpt lat="59.21025" lon="23.65864">
        <ele>16.691289</ele>
        <time>2020-10-06T17:26:54.672Z</time>
      </trkpt>
      <trkpt lat="59.20947" lon="23.65838">
        <ele>17.587263</ele>
        <time>2020-10-06T17:27:17.598Z</time>
      </trkpt>
      <trkpt lat="59.20904" lon="23.65816">
        <ele>17.875175</ele>
        <time>2020-10-06T17:27:29.570Z</time>
      </trkpt>
      <trkpt lat="59.20863" lon="23.65788">
        <ele>18.151838</ele>
        <time>2020-10-06T17:27:39.950Z</time>
      </trkpt>
      <trkpt lat="59.20784" lon="23.65705">
        <ele>17.838702</ele>
        <time>2020-10-06T17:27:58.408Z</time>
      </trkpt>
      <trkpt lat="59.20615" lon="23.65447">
        <ele>14.467665</ele>
        <time>2020-10-06T17:28:36.665Z</time>
      </trkpt>
      <trkpt lat="59.2048" lon="23.65231">
        <ele>11.841299</ele>
        <time>2020-10-06T17:29:08.157Z</time>
      </trkpt>
      <trkpt lat="59.20474" lon="23.65221">
        <ele>11.750099</ele>
        <time>2020-10-06T17:29:09.692Z</time>
      </trkpt>
      <trkpt lat="59.20412" lon="23.65125">
        <ele>10.875032</ele>
        <time>2020-10-06T17:29:25.261Z</time>
      </trkpt>
      <trkpt lat="59.20371" lon="23.65071">
        <ele>10.661169</ele>
        <time>2020-10-06T17:29:35.765Z</time>
      </trkpt>
      <trkpt lat="59.2032" lon="23.65035">
        <ele>10.70182</ele>
        <time>2020-10-06T17:29:47.957Z</time>
      </trkpt>
      <trkpt lat="59.20212" lon="23.65008">
        <ele>10.808147</ele>
        <time>2020-10-06T17:30:13.380Z</time>
      </trkpt>
      <trkpt lat="59.19988" lon="23.64944">
        <ele>11.372747</ele>
        <time>2020-10-06T17:31:06.492Z</time>
      </trkpt>
      <trkpt lat="59.19962" lon="23.64952">
        <ele>11.400594</ele>
        <time>2020-10-06T17:31:12.598Z</time>
      </trkpt>
      <trkpt lat="59.19868" lon="23.65022">
        <ele>11.500501</ele>
        <time>2020-10-06T17:31:35.088Z</time>
      </trkpt>
      <trkpt lat="59.19845" lon="23.6503">
        <ele>11.502973</ele>
        <time>2020-10-06T17:31:40.241Z</time>
      </trkpt>
      <trkpt lat="59.1977" lon="23.65048">
        <ele>11.510973</ele>
        <time>2020-10-06T17:31:56.991Z</time>
      </trkpt>
      <trkpt lat="59.19673" lon="23.65138">
        <ele>11.561411</ele>
        <time>2020-10-06T17:32:21.069Z</time>
      </trkpt>
      <trkpt lat="59.19625" lon="23.65159">
        <ele>11.627688</ele>
        <time>2020-10-06T17:32:32.376Z</time>
      </trkpt>
      <trkpt lat="59.19318" lon="23.65092">
        <ele>11.98166</ele>
        <time>2020-10-06T17:33:43.029Z</time>
      </trkpt>
      <trkpt lat="59.19116" lon="23.65089">
        <ele>11.759722</ele>
        <time>2020-10-06T17:34:26.863Z</time>
      </trkpt>
      <trkpt lat="59.19037" lon="23.65091">
        <ele>11.682679</ele>
        <time>2020-10-06T17:34:44.047Z</time>
      </trkpt>
      <trkpt lat="59.19031" lon="23.65092">
        <ele>11.676372</ele>
        <time>2020-10-06T17:34:45.467Z</time>
      </trkpt>
      <trkpt lat="59.19002" lon="23.65095">
        <ele>11.647802</ele>
        <time>2020-10-06T17:34:51.902Z</time>
      </trkpt>
      <trkpt lat="59.18974" lon="23.65109">
        <ele>11.625247</ele>
        <time>2020-10-06T17:34:58.369Z</time>
      </trkpt>
      <trkpt lat="59.189" lon="23.65186">
        <ele>11.575829</ele>
        <time>2020-10-06T17:35:17.017Z</time>
      </trkpt>
      <trkpt lat="59.18862" lon="23.65201">
        <ele>11.553268</ele>
        <time>2020-10-06T17:35:25.424Z</time>
      </trkpt>
      <trkpt lat="59.18834" lon="23.652">
        <ele>11.536487</ele>
        <time>2020-10-06T17:35:31.622Z</time>
      </trkpt>
      <trkpt lat="59.18768" lon="23.65168">
        <ele>11.525081</ele>
        <time>2020-10-06T17:35:46.289Z</time>
      </trkpt>
      <trkpt lat="59.18713" lon="23.65122">
        <ele>11.521332</ele>
        <time>2020-10-06T17:35:59.519Z</time>
      </trkpt>
      <trkpt lat="59.18478" lon="23.64776">
        <ele>12.03337</ele>
        <time>2020-10-06T17:37:07.147Z</time>
      </trkpt>
      <trkpt lat="59.18188" lon="23.64551">
        <ele>13.234879</ele>
        <time>2020-10-06T17:38:22.838Z</time>
      </trkpt>
      <trkpt lat="59.1818" lon="23.64547">
        <ele>13.164418</ele>
        <time>2020-10-06T17:38:24.836Z</time>
      </trkpt>
      <trkpt lat="59.18157" lon="23.64538">
        <ele>12.978986</ele>
        <time>2020-10-06T17:38:29.540Z</time>
      </trkpt>
      <trkpt lat="59.18104" lon="23.64527">
        <ele>12.556388</ele>
        <time>2020-10-06T17:38:40.112Z</time>
      </trkpt>
      <trkpt lat="59.17998" lon="23.64533">
        <ele>11.760216</ele>
        <time>2020-10-06T17:39:00.082Z</time>
      </trkpt>
      <trkpt lat="59.17956" lon="23.64536">
        <ele>11.571854</ele>
        <time>2020-10-06T17:39:08.240Z</time>
      </trkpt>
      <trkpt lat="59.17864" lon="23.64526">
        <ele>11.159694</ele>
        <time>2020-10-06T17:39:27.381Z</time>
      </trkpt>
      <trkpt lat="59.17836" lon="23.64515">
        <ele>11.032902</ele>
        <time>2020-10-06T17:39:33.859Z</time>
      </trkpt>
      <trkpt lat="59.17788" lon="23.6448">
        <ele>11.394019</ele>
        <time>2020-10-06T17:39:46.448Z</time>
      </trkpt>
      <trkpt lat="59.17722" lon="23.64396">
        <ele>12.058894</ele>
        <time>2020-10-06T17:40:07.235Z</time>
      </trkpt>
      <trkpt lat="59.17687" lon="23.6432">
        <ele>12.495726</ele>
        <time>2020-10-06T17:40:21.405Z</time>
      </trkpt>
      <trkpt lat="59.17595" lon="23.64048">
        <ele>14.121957</ele>
        <time>2020-10-06T17:41:05.684Z</time>
      </trkpt>
      <trkpt lat="59.174" lon="23.63473">
        <ele>15.812538</ele>
        <time>2020-10-06T17:42:30.998Z</time>
      </trkpt>
      <trkpt lat="59.17227" lon="23.62988">
        <ele>16.345229</ele>
        <time>2020-10-06T17:43:40.463Z</time>
      </trkpt>
      <trkpt lat="59.1689" lon="23.62343">
        <ele>16.644718</ele>
        <time>2020-10-06T17:45:26.622Z</time>
      </trkpt>
      <trkpt lat="59.16771" lon="23.62137">
        <ele>16.846896</ele>
        <time>2020-10-06T17:46:02.949Z</time>
      </trkpt>
      <trkpt lat="59.16356" lon="23.61339">
        <ele>16.825105</ele>
        <time>2020-10-06T17:48:13.061Z</time>
      </trkpt>
      <trkpt lat="59.16292" lon="23.61246">
        <ele>16.730128</ele>
        <time>2020-10-06T17:48:30.102Z</time>
      </trkpt>
      <trkpt lat="59.16218" lon="23.61191">
        <ele>16.724722</ele>
        <time>2020-10-06T17:48:47.169Z</time>
      </trkpt>
      <trkpt lat="59.15737" lon="23.60882">
        <ele>17.708314</ele>
        <time>2020-10-06T17:50:43.935Z</time>
      </trkpt>
      <trkpt lat="59.15625" lon="23.6086">
        <ele>19.113301</ele>
        <time>2020-10-06T17:51:14.017Z</time>
      </trkpt>
      <trkpt lat="59.15598" lon="23.60841">
        <ele>19.467215</ele>
        <time>2020-10-06T17:51:22.224Z</time>
      </trkpt>
      <trkpt lat="59.15574" lon="23.60813">
        <ele>19.8122</ele>
        <time>2020-10-06T17:51:30.405Z</time>
      </trkpt>
      <trkpt lat="59.15512" lon="23.60715">
        <ele>20.954812</ele>
        <time>2020-10-06T17:51:54.656Z</time>
      </trkpt>
      <trkpt lat="59.15487" lon="23.60664">
        <ele>21.475375</ele>
        <time>2020-10-06T17:52:04.865Z</time>
      </trkpt>
      <trkpt lat="59.15458" lon="23.60576">
        <ele>22.249654</ele>
        <time>2020-10-06T17:52:19.434Z</time>
      </trkpt>
      <trkpt lat="59.15453" lon="23.60552">
        <ele>22.444391</ele>
        <time>2020-10-06T17:52:22.876Z</time>
      </trkpt>
      <trkpt lat="59.15448" lon="23.60518">
        <ele>22.564004</ele>
        <time>2020-10-06T17:52:27.458Z</time>
      </trkpt>
      <trkpt lat="59.15447" lon="23.60508">
        <ele>22.580488</ele>
        <time>2020-10-06T17:52:28.924Z</time>
      </trkpt>
      <trkpt lat="59.15443" lon="23.60482">
        <ele>22.624038</ele>
        <time>2020-10-06T17:52:32.252Z</time>
      </trkpt>
      <trkpt lat="59.15425" lon="23.60345">
        <ele>22.846843</ele>
        <time>2020-10-06T17:52:49.270Z</time>
      </trkpt>
      <trkpt lat="59.15355" lon="23.60174">
        <ele>23.23002</ele>
        <time>2020-10-06T17:53:13.998Z</time>
      </trkpt>
      <trkpt lat="59.15273" lon="23.59938">
        <ele>23.830914</ele>
        <time>2020-10-06T17:53:49.598Z</time>
      </trkpt>
      <trkpt lat="59.15236" lon="23.5986">
        <ele>24.1274</ele>
        <time>2020-10-06T17:54:03.339Z</time>
      </trkpt>
      <trkpt lat="59.1511" lon="23.59648">
        <ele>24.971736</ele>
        <time>2020-10-06T17:54:43.991Z</time>
      </trkpt>
      <trkpt lat="59.15097" lon="23.59614">
        <ele>25.060828</ele>
        <time>2020-10-06T17:54:49.185Z</time>
      </trkpt>
      <trkpt lat="59.15076" lon="23.59513">
        <ele>25.29312</ele>
        <time>2020-10-06T17:55:02.667Z</time>
      </trkpt>
      <trkpt lat="59.15043" lon="23.59312">
        <ele>25.532746</ele>
        <time>2020-10-06T17:55:28.086Z</time>
      </trkpt>
      <trkpt lat="59.14967" lon="23.58762">
        <ele>25.339886</ele>
        <time>2020-10-06T17:56:31.901Z</time>
      </trkpt>
      <trkpt lat="59.14958" lon="23.58714">
        <ele>25.331213</ele>
        <time>2020-10-06T17:56:37.612Z</time>
      </trkpt>
      <trkpt lat="59.1491" lon="23.58584">
        <ele>25.448004</ele>
        <time>2020-10-06T17:56:55.999Z</time>
      </trkpt>
      <trkpt lat="59.14867" lon="23.58502">
        <ele>25.534392</ele>
        <time>2020-10-06T17:57:10.055Z</time>
      </trkpt>
      <trkpt lat="59.14844" lon="23.58475">
        <ele>25.572422</ele>
        <time>2020-10-06T17:57:16.326Z</time>
      </trkpt>
      <trkpt lat="59.14793" lon="23.58445">
        <ele>25.689055</ele>
        <time>2020-10-06T17:57:28.840Z</time>
      </trkpt>
      <trkpt lat="59.14734" lon="23.58431">
        <ele>25.820515</ele>
        <time>2020-10-06T17:57:42.636Z</time>
      </trkpt>
      <trkpt lat="59.14557" lon="23.58415">
        <ele>25.99396</ele>
        <time>2020-10-06T17:58:23.143Z</time>
      </trkpt>
      <trkpt lat="59.14508" lon="23.58403">
        <ele>26.002031</ele>
        <time>2020-10-06T17:58:34.020Z</time>
      </trkpt>
      <trkpt lat="59.14462" lon="23.5836">
        <ele>25.904007</ele>
        <time>2020-10-06T17:58:45.260Z</time>
      </trkpt>
      <trkpt lat="59.14168" lon="23.57897">
        <ele>23.852973</ele>
        <time>2020-10-06T18:00:03.819Z</time>
      </trkpt>
      <trkpt lat="59.14006" lon="23.57665">
        <ele>21.053879</ele>
        <time>2020-10-06T18:00:39.573Z</time>
      </trkpt>
      <trkpt lat="59.13992" lon="23.57639">
        <ele>20.791372</ele>
        <time>2020-10-06T18:00:43.201Z</time>
      </trkpt>
      <trkpt lat="59.13969" lon="23.57599">
        <ele>20.391686</ele>
        <time>2020-10-06T18:00:48.987Z</time>
      </trkpt>
      <trkpt lat="59.1394" lon="23.57542">
        <ele>19.848885</ele>
        <time>2020-10-06T18:00:57.025Z</time>
      </trkpt>
      <trkpt lat="59.13911" lon="23.57483">
        <ele>19.550676</ele>
        <time>2020-10-06T18:01:05.487Z</time>
      </trkpt>
      <trkpt lat="59.13898" lon="23.57448">
        <ele>19.530344</ele>
        <time>2020-10-06T18:01:10.179Z</time>
      </trkpt>
      <trkpt lat="59.13888" lon="23.57421">
        <ele>19.515325</ele>
        <time>2020-10-06T18:01:13.818Z</time>
      </trkpt>
      <trkpt lat="59.13861" lon="23.5737">
        <ele>19.481505</ele>
        <time>2020-10-06T18:01:22.575Z</time>
      </trkpt>
      <trkpt lat="59.13773" lon="23.57309">
        <ele>19.400923</ele>
        <time>2020-10-06T18:01:44.337Z</time>
      </trkpt>
      <trkpt lat="59.1372" lon="23.5726">
        <ele>19.364664</ele>
        <time>2020-10-06T18:01:57.004Z</time>
      </trkpt>
      <trkpt lat="59.13695" lon="23.57225">
        <ele>19.345887</ele>
        <time>2020-10-06T18:02:03.477Z</time>
      </trkpt>
      <trkpt lat="59.13658" lon="23.57156">
        <ele>19.314335</ele>
        <time>2020-10-06T18:02:14.580Z</time>
      </trkpt>
      <trkpt lat="59.13654" lon="23.57149">
        <ele>19.310906</ele>
        <time>2020-10-06T18:02:15.684Z</time>
      </trkpt>
      <trkpt lat="59.13577" lon="23.56975">
        <ele>19.375342</ele>
        <time>2020-10-06T18:02:42.582Z</time>
      </trkpt>
      <trkpt lat="59.13438" lon="23.56735">
        <ele>18.938468</ele>
        <time>2020-10-06T18:03:24.453Z</time>
      </trkpt>
      <trkpt lat="59.13395" lon="23.56668">
        <ele>18.663837</ele>
        <time>2020-10-06T18:03:35.122Z</time>
      </trkpt>
      <trkpt lat="59.1326" lon="23.565">
        <ele>16.656663</ele>
        <time>2020-10-06T18:04:04.481Z</time>
      </trkpt>
      <trkpt lat="59.13061" lon="23.5601">
        <ele>12.994219</ele>
        <time>2020-10-06T18:05:05.950Z</time>
      </trkpt>
      <trkpt lat="59.13037" lon="23.55847">
        <ele>12.058622</ele>
        <time>2020-10-06T18:05:22.616Z</time>
      </trkpt>
      <trkpt lat="59.13032" lon="23.55684">
        <ele>11.45357</ele>
        <time>2020-10-06T18:05:38.977Z</time>
      </trkpt>
      <trkpt lat="59.13023" lon="23.5565">
        <ele>11.312507</ele>
        <time>2020-10-06T18:05:42.867Z</time>
      </trkpt>
      <trkpt lat="59.1299" lon="23.5559">
        <ele>10.984322</ele>
        <time>2020-10-06T18:05:52.035Z</time>
      </trkpt>
      <trkpt lat="59.12872" lon="23.55447">
        <ele>10.728574</ele>
        <time>2020-10-06T18:06:21.964Z</time>
      </trkpt>
      <trkpt lat="59.1284" lon="23.55382">
        <ele>10.70329</ele>
        <time>2020-10-06T18:06:32.565Z</time>
      </trkpt>
      <trkpt lat="59.12828" lon="23.5533">
        <ele>10.710337</ele>
        <time>2020-10-06T18:06:39.324Z</time>
      </trkpt>
      <trkpt lat="59.12816" lon="23.55208">
        <ele>10.873514</ele>
        <time>2020-10-06T18:06:54.298Z</time>
      </trkpt>
      <trkpt lat="59.12812" lon="23.55094">
        <ele>11.023226</ele>
        <time>2020-10-06T18:07:08.235Z</time>
      </trkpt>
      <trkpt lat="59.12815" lon="23.54772">
        <ele>10.970135</ele>
        <time>2020-10-06T18:07:45.910Z</time>
      </trkpt>
      <trkpt lat="59.12784" lon="23.54615">
        <ele>10.697513</ele>
        <time>2020-10-06T18:08:03.546Z</time>
      </trkpt>
      <trkpt lat="59.12778" lon="23.5436">
        <ele>9.655104</ele>
        <time>2020-10-06T18:08:29.283Z</time>
      </trkpt>
      <trkpt lat="59.12776" lon="23.54337">
        <ele>9.559088</ele>
        <time>2020-10-06T18:08:31.540Z</time>
      </trkpt>
      <trkpt lat="59.12767" lon="23.54321">
        <ele>9.464777</ele>
        <time>2020-10-06T18:08:33.958Z</time>
      </trkpt>
      <trkpt lat="59.12747" lon="23.54301">
        <ele>9.3458</ele>
        <time>2020-10-06T18:08:38.384Z</time>
      </trkpt>
      <trkpt lat="59.12583" lon="23.54154">
        <ele>8.486544</ele>
        <time>2020-10-06T18:09:16.125Z</time>
      </trkpt>
      <trkpt lat="59.12575" lon="23.54147">
        <ele>8.445514</ele>
        <time>2020-10-06T18:09:18.037Z</time>
      </trkpt>
      <trkpt lat="59.12355" lon="23.53951">
        <ele>7.32158</ele>
        <time>2020-10-06T18:10:07.967Z</time>
      </trkpt>
      <trkpt lat="59.12349" lon="23.53945">
        <ele>7.286693</ele>
        <time>2020-10-06T18:10:09.419Z</time>
      </trkpt>
      <trkpt lat="59.12305" lon="23.53904">
        <ele>7.056681</ele>
        <time>2020-10-06T18:10:19.175Z</time>
      </trkpt>
      <trkpt lat="59.12041" lon="23.53668">
        <ele>6.427646</ele>
        <time>2020-10-06T18:11:21.872Z</time>
      </trkpt>
      <trkpt lat="59.11979" lon="23.53613">
        <ele>6.33334</ele>
        <time>2020-10-06T18:11:36.894Z</time>
      </trkpt>
      <trkpt lat="59.11876" lon="23.53522">
        <ele>6.128532</ele>
        <time>2020-10-06T18:12:01.087Z</time>
      </trkpt>
      <trkpt lat="59.11614" lon="23.53282">
        <ele>5.586589</ele>
        <time>2020-10-06T18:13:03.681Z</time>
      </trkpt>
      <trkpt lat="59.11578" lon="23.53261">
        <ele>5.518412</ele>
        <time>2020-10-06T18:13:11.868Z</time>
      </trkpt>
      <trkpt lat="59.11525" lon="23.53249">
        <ele>5.42381</ele>
        <time>2020-10-06T18:13:23.205Z</time>
      </trkpt>
      <trkpt lat="59.11259" lon="23.53271">
        <ele>5.072423</ele>
        <time>2020-10-06T18:14:21.242Z</time>
      </trkpt>
      <trkpt lat="59.11201" lon="23.53275">
        <ele>5.099373</ele>
        <time>2020-10-06T18:14:34.230Z</time>
      </trkpt>
      <trkpt lat="59.10985" lon="23.53291">
        <ele>5.112741</ele>
        <time>2020-10-06T18:15:23.130Z</time>
      </trkpt>
      <trkpt lat="59.10938" lon="23.53298">
        <ele>5.093389</ele>
        <time>2020-10-06T18:15:33.443Z</time>
      </trkpt>
      <trkpt lat="59.10867" lon="23.53321">
        <ele>4.980763</ele>
        <time>2020-10-06T18:15:48.732Z</time>
      </trkpt>
      <trkpt lat="59.10782" lon="23.53393">
        <ele>4.744047</ele>
        <time>2020-10-06T18:16:08.303Z</time>
      </trkpt>
      <trkpt lat="59.1058" lon="23.5358">
        <ele>4.343358</ele>
        <time>2020-10-06T18:16:56.685Z</time>
      </trkpt>
      <trkpt lat="59.10526" lon="23.53626">
        <ele>4.34043</ele>
        <time>2020-10-06T18:17:09.877Z</time>
      </trkpt>
      <trkpt lat="59.09889" lon="23.54204">
        <ele>4.57747</ele>
        <time>2020-10-06T18:19:46.974Z</time>
      </trkpt>
      <trkpt lat="59.09709" lon="23.54368">
        <ele>5.448637</ele>
        <time>2020-10-06T18:20:35.028Z</time>
      </trkpt>
      <trkpt lat="59.09683" lon="23.54392">
        <ele>5.614166</ele>
        <time>2020-10-06T18:20:42.278Z</time>
      </trkpt>
      <trkpt lat="59.09635" lon="23.54429">
        <ele>5.91602</ele>
        <time>2020-10-06T18:20:55.359Z</time>
      </trkpt>
      <trkpt lat="59.09406" lon="23.54506">
        <ele>6.947771</ele>
        <time>2020-10-06T18:21:51.467Z</time>
      </trkpt>
      <trkpt lat="59.09318" lon="23.54563">
        <ele>7.214273</ele>
        <time>2020-10-06T18:22:12.505Z</time>
      </trkpt>
      <trkpt lat="59.0893" lon="23.54893">
        <ele>8.554654</ele>
        <time>2020-10-06T18:23:52.101Z</time>
      </trkpt>
      <trkpt lat="59.08842" lon="23.54981">
        <ele>8.693506</ele>
        <time>2020-10-06T18:24:16.082Z</time>
      </trkpt>
      <trkpt lat="59.08593" lon="23.55233">
        <ele>8.35861</ele>
        <time>2020-10-06T18:25:16.570Z</time>
      </trkpt>
      <trkpt lat="59.08509" lon="23.55334">
        <ele>8.079741</ele>
        <time>2020-10-06T18:25:37.154Z</time>
      </trkpt>
      <trkpt lat="59.08281" lon="23.55657">
        <ele>7.724778</ele>
        <time>2020-10-06T18:26:38.121Z</time>
      </trkpt>
      <trkpt lat="59.07799" lon="23.56221">
        <ele>9.84844</ele>
        <time>2020-10-06T18:28:53.744Z</time>
      </trkpt>
      <trkpt lat="59.0747" lon="23.56668">
        <ele>9.915386</ele>
        <time>2020-10-06T18:30:22.259Z</time>
      </trkpt>
      <trkpt lat="59.07406" lon="23.56782">
        <ele>9.959215</ele>
        <time>2020-10-06T18:30:41.972Z</time>
      </trkpt>
      <trkpt lat="59.07221" lon="23.57244">
        <ele>11.024307</ele>
        <time>2020-10-06T18:31:53.611Z</time>
      </trkpt>
      <trkpt lat="59.07122" lon="23.5766">
        <ele>11.74808</ele>
        <time>2020-10-06T18:32:50.034Z</time>
      </trkpt>
      <trkpt lat="59.07102" lon="23.57725">
        <ele>11.564708</ele>
        <time>2020-10-06T18:32:58.161Z</time>
      </trkpt>
      <trkpt lat="59.07055" lon="23.57833">
        <ele>11.151424</ele>
        <time>2020-10-06T18:33:12.581Z</time>
      </trkpt>
      <trkpt lat="59.06947" lon="23.58055">
        <ele>10.949453</ele>
        <time>2020-10-06T18:33:44.262Z</time>
      </trkpt>
      <trkpt lat="59.0686" lon="23.58236">
        <ele>11.693696</ele>
        <time>2020-10-06T18:34:17.592Z</time>
      </trkpt>
      <trkpt lat="59.06833" lon="23.58286">
        <ele>12.26968</ele>
        <time>2020-10-06T18:34:28.401Z</time>
      </trkpt>
      <trkpt lat="59.06779" lon="23.58402">
        <ele>13.543721</ele>
        <time>2020-10-06T18:34:52.435Z</time>
      </trkpt>
      <trkpt lat="59.06712" lon="23.5852">
        <ele>14.646903</ele>
        <time>2020-10-06T18:35:18.105Z</time>
      </trkpt>
      <trkpt lat="59.06558" lon="23.58767">
        <ele>16.046911</ele>
        <time>2020-10-06T18:36:08.569Z</time>
      </trkpt>
      <trkpt lat="59.06512" lon="23.58824">
        <ele>16.149286</ele>
        <time>2020-10-06T18:36:20.952Z</time>
      </trkpt>
      <trkpt lat="59.06374" lon="23.58956">
        <ele>15.578591</ele>
        <time>2020-10-06T18:36:52.546Z</time>
      </trkpt>
      <trkpt lat="59.06347" lon="23.5899">
        <ele>15.386493</ele>
        <time>2020-10-06T18:36:58.783Z</time>
      </trkpt>
      <trkpt lat="59.06298" lon="23.59078">
        <ele>14.948291</ele>
        <time>2020-10-06T18:37:12.001Z</time>
      </trkpt>
      <trkpt lat="59.06133" lon="23.59465">
        <ele>13.247983</ele>
        <time>2020-10-06T18:38:04.028Z</time>
      </trkpt>
      <trkpt lat="59.06026" lon="23.59714">
        <ele>12.662585</ele>
        <time>2020-10-06T18:38:38.886Z</time>
      </trkpt>
      <trkpt lat="59.0586" lon="23.60116">
        <ele>12.513932</ele>
        <time>2020-10-06T18:39:38.150Z</time>
      </trkpt>
      <trkpt lat="59.05541" lon="23.60865">
        <ele>12.832287</ele>
        <time>2020-10-06T18:41:31.025Z</time>
      </trkpt>
      <trkpt lat="59.0537" lon="23.61274">
        <ele>13.515694</ele>
        <time>2020-10-06T18:42:33.135Z</time>
      </trkpt>
      <trkpt lat="59.0529" lon="23.61452">
        <ele>14.382282</ele>
        <time>2020-10-06T18:43:04.424Z</time>
      </trkpt>
      <trkpt lat="59.05245" lon="23.61532">
        <ele>14.953599</ele>
        <time>2020-10-06T18:43:20.688Z</time>
      </trkpt>
      <trkpt lat="59.05212" lon="23.61589">
        <ele>15.394173</ele>
        <time>2020-10-06T18:43:32.741Z</time>
      </trkpt>
      <trkpt lat="59.05133" lon="23.61675">
        <ele>16.232427</ele>
        <time>2020-10-06T18:43:56.674Z</time>
      </trkpt>
      <trkpt lat="59.04988" lon="23.6179">
        <ele>16.722612</ele>
        <time>2020-10-06T18:44:33.820Z</time>
      </trkpt>
      <trkpt lat="59.04733" lon="23.61987">
        <ele>15.825012</ele>
        <time>2020-10-06T18:45:29.940Z</time>
      </trkpt>
      <trkpt lat="59.04481" lon="23.62188">
        <ele>16.027454</ele>
        <time>2020-10-06T18:46:32.467Z</time>
      </trkpt>
      <trkpt lat="59.04426" lon="23.62247">
        <ele>16.119801</ele>
        <time>2020-10-06T18:46:47.354Z</time>
      </trkpt>
      <trkpt lat="59.04358" lon="23.62344">
        <ele>16.234185</ele>
        <time>2020-10-06T18:47:06.417Z</time>
      </trkpt>
      <trkpt lat="59.04287" lon="23.62482">
        <ele>16.269459</ele>
        <time>2020-10-06T18:47:28.809Z</time>
      </trkpt>
      <trkpt lat="59.04001" lon="23.63099">
        <ele>15.952636</ele>
        <time>2020-10-06T18:49:03.362Z</time>
      </trkpt>
      <trkpt lat="59.03931" lon="23.63232">
        <ele>15.687634</ele>
        <time>2020-10-06T18:49:23.900Z</time>
      </trkpt>
      <trkpt lat="59.03804" lon="23.63406">
        <ele>15.113879</ele>
        <time>2020-10-06T18:49:56.264Z</time>
      </trkpt>
      <trkpt lat="59.03561" lon="23.63726">
        <ele>14.735912</ele>
        <time>2020-10-06T18:51:00.660Z</time>
      </trkpt>
      <trkpt lat="59.03476" lon="23.63832">
        <ele>14.36795</ele>
        <time>2020-10-06T18:51:22.448Z</time>
      </trkpt>
      <trkpt lat="59.03242" lon="23.6412">
        <ele>12.559134</ele>
        <time>2020-10-06T18:52:17.511Z</time>
      </trkpt>
      <trkpt lat="59.03193" lon="23.64203">
        <ele>12.21659</ele>
        <time>2020-10-06T18:52:30.696Z</time>
      </trkpt>
      <trkpt lat="59.03148" lon="23.64297">
        <ele>11.970978</ele>
        <time>2020-10-06T18:52:44.414Z</time>
      </trkpt>
      <trkpt lat="59.03098" lon="23.64453">
        <ele>11.702387</ele>
        <time>2020-10-06T18:53:04.869Z</time>
      </trkpt>
      <trkpt lat="59.0303" lon="23.64754">
        <ele>11.869878</ele>
        <time>2020-10-06T18:53:43.526Z</time>
      </trkpt>
      <trkpt lat="59.03004" lon="23.64944">
        <ele>12.229478</ele>
        <time>2020-10-06T18:54:07.660Z</time>
      </trkpt>
      <trkpt lat="59.02992" lon="23.65147">
        <ele>12.617016</ele>
        <time>2020-10-06T18:54:32.819Z</time>
      </trkpt>
      <trkpt lat="59.02987" lon="23.65216">
        <ele>12.757163</ele>
        <time>2020-10-06T18:54:41.254Z</time>
      </trkpt>
      <trkpt lat="59.0298" lon="23.65282">
        <ele>12.892584</ele>
        <time>2020-10-06T18:54:49.363Z</time>
      </trkpt>
      <trkpt lat="59.02958" lon="23.65415">
        <ele>13.176077</ele>
        <time>2020-10-06T18:55:06.437Z</time>
      </trkpt>
      <trkpt lat="59.02912" lon="23.65585">
        <ele>14.023848</ele>
        <time>2020-10-06T18:55:30.757Z</time>
      </trkpt>
      <trkpt lat="59.02757" lon="23.66125">
        <ele>17.249273</ele>
        <time>2020-10-06T18:56:57.981Z</time>
      </trkpt>
      <trkpt lat="59.02753" lon="23.66138">
        <ele>17.283796</ele>
        <time>2020-10-06T18:57:00.069Z</time>
      </trkpt>
      <trkpt lat="59.02734" lon="23.66196">
        <ele>17.441543</ele>
        <time>2020-10-06T18:57:08.853Z</time>
      </trkpt>
      <trkpt lat="59.02699" lon="23.66317">
        <ele>17.757414</ele>
        <time>2020-10-06T18:57:24.902Z</time>
      </trkpt>
      <trkpt lat="59.02654" lon="23.66413">
        <ele>17.317734</ele>
        <time>2020-10-06T18:57:38.373Z</time>
      </trkpt>
      <trkpt lat="59.02608" lon="23.66489">
        <ele>16.785811</ele>
        <time>2020-10-06T18:57:49.713Z</time>
      </trkpt>
      <trkpt lat="59.02546" lon="23.66561">
        <ele>16.191811</ele>
        <time>2020-10-06T18:58:03.224Z</time>
      </trkpt>
      <trkpt lat="59.02427" lon="23.66669">
        <ele>15.831382</ele>
        <time>2020-10-06T18:58:30.203Z</time>
      </trkpt>
      <trkpt lat="59.02266" lon="23.66815">
        <ele>17.317701</ele>
        <time>2020-10-06T18:59:17.043Z</time>
      </trkpt>
      <trkpt lat="59.02191" lon="23.66885">
        <ele>18.297718</ele>
        <time>2020-10-06T18:59:41.493Z</time>
      </trkpt>
      <trkpt lat="59.0213" lon="23.66958">
        <ele>19.164966</ele>
        <time>2020-10-06T19:00:02.039Z</time>
      </trkpt>
      <trkpt lat="59.02109" lon="23.66993">
        <ele>19.501209</ele>
        <time>2020-10-06T19:00:09.529Z</time>
      </trkpt>
      <trkpt lat="59.02062" lon="23.67101">
        <ele>19.795621</ele>
        <time>2020-10-06T19:00:27.167Z</time>
      </trkpt>
      <trkpt lat="59.01877" lon="23.67558">
        <ele>17.586738</ele>
        <time>2020-10-06T19:01:25.311Z</time>
      </trkpt>
      <trkpt lat="59.01873" lon="23.67569">
        <ele>17.521253</ele>
        <time>2020-10-06T19:01:26.783Z</time>
      </trkpt>
      <trkpt lat="59.01816" lon="23.67704">
        <ele>16.946513</ele>
        <time>2020-10-06T19:01:44.662Z</time>
      </trkpt>
      <trkpt lat="59.01732" lon="23.67893">
        <ele>16.271296</ele>
        <time>2020-10-06T19:02:11.394Z</time>
      </trkpt>
      <trkpt lat="59.01665" lon="23.68028">
        <ele>16.005115</ele>
        <time>2020-10-06T19:02:32.196Z</time>
      </trkpt>
      <trkpt lat="59.01474" lon="23.68379">
        <ele>15.087072</ele>
        <time>2020-10-06T19:03:28.122Z</time>
      </trkpt>
      <trkpt lat="59.01369" lon="23.68578">
        <ele>13.998195</ele>
        <time>2020-10-06T19:03:56.144Z</time>
      </trkpt>
      <trkpt lat="59.01318" lon="23.68674">
        <ele>14.530572</ele>
        <time>2020-10-06T19:04:12.408Z</time>
      </trkpt>
      <trkpt lat="59.01203" lon="23.68878">
        <ele>16.403217</ele>
        <time>2020-10-06T19:04:58.805Z</time>
      </trkpt>
      <trkpt lat="59.01126" lon="23.68969">
        <ele>17.522401</ele>
        <time>2020-10-06T19:05:24.866Z</time>
      </trkpt>
      <trkpt lat="59.00968" lon="23.69103">
        <ele>18.454773</ele>
        <time>2020-10-06T19:06:04.599Z</time>
      </trkpt>
      <trkpt lat="59.00441" lon="23.69545">
        <ele>19.091367</ele>
        <time>2020-10-06T19:08:14.929Z</time>
      </trkpt>
      <trkpt lat="59.00393" lon="23.69588">
        <ele>19.204096</ele>
        <time>2020-10-06T19:08:27.067Z</time>
      </trkpt>
      <trkpt lat="59.00356" lon="23.69626">
        <ele>19.362242</ele>
        <time>2020-10-06T19:08:36.731Z</time>
      </trkpt>
      <trkpt lat="59.00328" lon="23.6966">
        <ele>19.485259</ele>
        <time>2020-10-06T19:08:44.393Z</time>
      </trkpt>
      <trkpt lat="59.0025" lon="23.69791">
        <ele>19.92684</ele>
        <time>2020-10-06T19:09:09.634Z</time>
      </trkpt>
      <trkpt lat="59.00099" lon="23.70048">
        <ele>20.82252</ele>
        <time>2020-10-06T19:10:00.287Z</time>
      </trkpt>
      <trkpt lat="58.99742" lon="23.70643">
        <ele>18.901342</ele>
        <time>2020-10-06T19:11:37.895Z</time>
      </trkpt>
      <trkpt lat="58.99568" lon="23.70933">
        <ele>16.1355</ele>
        <time>2020-10-06T19:12:20.579Z</time>
      </trkpt>
      <trkpt lat="58.99529" lon="23.70999">
        <ele>15.462248</ele>
        <time>2020-10-06T19:12:30.487Z</time>
      </trkpt>
      <trkpt lat="58.99495" lon="23.71055">
        <ele>14.890793</ele>
        <time>2020-10-06T19:12:38.758Z</time>
      </trkpt>
      <trkpt lat="58.99485" lon="23.71073">
        <ele>14.710453</ele>
        <time>2020-10-06T19:12:41.371Z</time>
      </trkpt>
      <trkpt lat="58.99481" lon="23.7108">
        <ele>14.636897</ele>
        <time>2020-10-06T19:12:42.442Z</time>
      </trkpt>
      <trkpt lat="58.99458" lon="23.71026">
        <ele>14.172016</ele>
        <time>2020-10-06T19:12:49.148Z</time>
      </trkpt>
      <trkpt lat="58.99438" lon="23.70964">
        <ele>13.593803</ele>
        <time>2020-10-06T19:12:56.124Z</time>
      </trkpt>
      <trkpt lat="58.99425" lon="23.70917">
        <ele>13.138713</ele>
        <time>2020-10-06T19:13:01.329Z</time>
      </trkpt>
      <trkpt lat="58.9941" lon="23.70866">
        <ele>12.654587</ele>
        <time>2020-10-06T19:13:06.776Z</time>
      </trkpt>
      <trkpt lat="58.99342" lon="23.70671">
        <ele>10.745351</ele>
        <time>2020-10-06T19:13:28.563Z</time>
      </trkpt>
      <trkpt lat="58.99277" lon="23.70496">
        <ele>9.178671</ele>
        <time>2020-10-06T19:13:48.948Z</time>
      </trkpt>
      <trkpt lat="58.99221" lon="23.70352">
        <ele>8.566356</ele>
        <time>2020-10-06T19:14:07.333Z</time>
      </trkpt>
      <trkpt lat="58.99218" lon="23.70327">
        <ele>8.552916</ele>
        <time>2020-10-06T19:14:09.991Z</time>
      </trkpt>
      <trkpt lat="58.99209" lon="23.70287">
        <ele>8.529507</ele>
        <time>2020-10-06T19:14:14.837Z</time>
      </trkpt>
      <trkpt lat="58.99129" lon="23.7007">
        <ele>8.854147</ele>
        <time>2020-10-06T19:14:48.071Z</time>
      </trkpt>
      <trkpt lat="58.99085" lon="23.69965">
        <ele>9.486585</ele>
        <time>2020-10-06T19:15:06.635Z</time>
      </trkpt>
      <trkpt lat="58.99081" lon="23.6996">
        <ele>9.525465</ele>
        <time>2020-10-06T19:15:08.003Z</time>
      </trkpt>
      <trkpt lat="58.99073" lon="23.69943">
        <ele>9.634599</ele>
        <time>2020-10-06T19:15:11.234Z</time>
      </trkpt>
      <trkpt lat="58.99022" lon="23.69858">
        <ele>10.170373</ele>
        <time>2020-10-06T19:15:29.014Z</time>
      </trkpt>
      <trkpt lat="58.99003" lon="23.69826">
        <ele>10.30298</ele>
        <time>2020-10-06T19:15:35.321Z</time>
      </trkpt>
      <trkpt lat="58.98996" lon="23.69844">
        <ele>10.366369</ele>
        <time>2020-10-06T19:15:39.412Z</time>
      </trkpt>
      <trkpt lat="58.98884" lon="23.69666">
        <ele>10.948309</ele>
        <time>2020-10-06T19:16:13.717Z</time>
      </trkpt>
      <trkpt lat="58.98465" lon="23.69005">
        <ele>9.364244</ele>
        <time>2020-10-06T19:18:06.370Z</time>
      </trkpt>
      <trkpt lat="58.98393" lon="23.68892">
        <ele>10.101356</ele>
        <time>2020-10-06T19:18:30.671Z</time>
      </trkpt>
      <trkpt lat="58.98282" lon="23.68715">
        <ele>11.062321</ele>
        <time>2020-10-06T19:19:09.111Z</time>
      </trkpt>
      <trkpt lat="58.98098" lon="23.68421">
        <ele>11.687642</ele>
        <time>2020-10-06T19:20:03.376Z</time>
      </trkpt>
      <trkpt lat="58.9809" lon="23.68408">
        <ele>11.692156</ele>
        <time>2020-10-06T19:20:05.614Z</time>
      </trkpt>
      <trkpt lat="58.98045" lon="23.68336">
        <ele>11.623606</ele>
        <time>2020-10-06T19:20:18.338Z</time>
      </trkpt>
      <trkpt lat="58.97955" lon="23.68243">
        <ele>11.298243</ele>
        <time>2020-10-06T19:20:39.878Z</time>
      </trkpt>
      <trkpt lat="58.97736" lon="23.68052">
        <ele>10.170275</ele>
        <time>2020-10-06T19:21:29.450Z</time>
      </trkpt>
      <trkpt lat="58.9772" lon="23.68037">
        <ele>10.060685</ele>
        <time>2020-10-06T19:21:33.008Z</time>
      </trkpt>
      <trkpt lat="58.97465" lon="23.67808">
        <ele>8.450954</ele>
        <time>2020-10-06T19:22:29.735Z</time>
      </trkpt>
      <trkpt lat="58.97403" lon="23.6776">
        <ele>8.167562</ele>
        <time>2020-10-06T19:22:43.992Z</time>
      </trkpt>
      <trkpt lat="58.97372" lon="23.67745">
        <ele>8.15295</ele>
        <time>2020-10-06T19:22:50.838Z</time>
      </trkpt>
      <trkpt lat="58.97268" lon="23.6772">
        <ele>8.103914</ele>
        <time>2020-10-06T19:23:14.507Z</time>
      </trkpt>
      <trkpt lat="58.97096" lon="23.67697">
        <ele>7.955427</ele>
        <time>2020-10-06T19:23:53.023Z</time>
      </trkpt>
      <trkpt lat="58.96723" lon="23.67647">
        <ele>6.683432</ele>
        <time>2020-10-06T19:25:11.122Z</time>
      </trkpt>
      <trkpt lat="58.96665" lon="23.67628">
        <ele>6.600215</ele>
        <time>2020-10-06T19:25:23.833Z</time>
      </trkpt>
      <trkpt lat="58.96631" lon="23.67606">
        <ele>6.596639</ele>
        <time>2020-10-06T19:25:31.760Z</time>
      </trkpt>
      <trkpt lat="58.96618" lon="23.67597">
        <ele>6.595264</ele>
        <time>2020-10-06T19:25:34.858Z</time>
      </trkpt>
      <trkpt lat="58.9659" lon="23.67572">
        <ele>6.592218</ele>
        <time>2020-10-06T19:25:41.697Z</time>
      </trkpt>
      <trkpt lat="58.96558" lon="23.67539">
        <ele>6.588633</ele>
        <time>2020-10-06T19:25:49.803Z</time>
      </trkpt>
      <trkpt lat="58.96413" lon="23.6734">
        <ele>7.123182</ele>
        <time>2020-10-06T19:26:31.011Z</time>
      </trkpt>
      <trkpt lat="58.96402" lon="23.67324">
        <ele>7.171218</ele>
        <time>2020-10-06T19:26:34.239Z</time>
      </trkpt>
      <trkpt lat="58.96339" lon="23.67231">
        <ele>7.987007</ele>
        <time>2020-10-06T19:26:54.769Z</time>
      </trkpt>
      <trkpt lat="58.96253" lon="23.67113">
        <ele>9.242296</ele>
        <time>2020-10-06T19:27:25.202Z</time>
      </trkpt>
      <trkpt lat="58.96172" lon="23.66998">
        <ele>9.734034</ele>
        <time>2020-10-06T19:27:51.171Z</time>
      </trkpt>
      <trkpt lat="58.96101" lon="23.66896">
        <ele>10.089934</ele>
        <time>2020-10-06T19:28:10.828Z</time>
      </trkpt>
      <trkpt lat="58.96049" lon="23.66834">
        <ele>9.692638</ele>
        <time>2020-10-06T19:28:22.873Z</time>
      </trkpt>
      <trkpt lat="58.96008" lon="23.66808">
        <ele>9.395931</ele>
        <time>2020-10-06T19:28:31.033Z</time>
      </trkpt>
      <trkpt lat="58.95966" lon="23.66797">
        <ele>9.101324</ele>
        <time>2020-10-06T19:28:39.474Z</time>
      </trkpt>
      <trkpt lat="58.95946" lon="23.66796">
        <ele>8.964251</ele>
        <time>2020-10-06T19:28:43.511Z</time>
      </trkpt>
      <trkpt lat="58.95931" lon="23.66796">
        <ele>8.863712</ele>
        <time>2020-10-06T19:28:46.592Z</time>
      </trkpt>
      <trkpt lat="58.95851" lon="23.66813">
        <ele>8.736883</ele>
        <time>2020-10-06T19:29:03.931Z</time>
      </trkpt>
      <trkpt lat="58.95813" lon="23.66829">
        <ele>8.678238</ele>
        <time>2020-10-06T19:29:12.460Z</time>
      </trkpt>
      <trkpt lat="58.95799" lon="23.66827">
        <ele>8.656269</ele>
        <time>2020-10-06T19:29:15.686Z</time>
      </trkpt>
      <trkpt lat="58.95787" lon="23.66826">
        <ele>8.638468</ele>
        <time>2020-10-06T19:29:18.362Z</time>
      </trkpt>
      <trkpt lat="58.95777" lon="23.66826">
        <ele>8.623415</ele>
        <time>2020-10-06T19:29:20.577Z</time>
      </trkpt>
      <trkpt lat="58.95781" lon="23.66796">
        <ele>8.599233</ele>
        <time>2020-10-06T19:29:24.122Z</time>
      </trkpt>
      <trkpt lat="58.9576" lon="23.66767">
        <ele>8.574818</ele>
        <time>2020-10-06T19:29:29.899Z</time>
      </trkpt>
      <trkpt lat="58.95696" lon="23.66608">
        <ele>8.508575</ele>
        <time>2020-10-06T19:29:52.865Z</time>
      </trkpt>
      <trkpt lat="58.95658" lon="23.66526">
        <ele>8.472705</ele>
        <time>2020-10-06T19:30:05.217Z</time>
      </trkpt>
      <trkpt lat="58.95606" lon="23.66417">
        <ele>8.348458</ele>
        <time>2020-10-06T19:30:22.016Z</time>
      </trkpt>
      <trkpt lat="58.95508" lon="23.6624">
        <ele>8.127442</ele>
        <time>2020-10-06T19:30:51.033Z</time>
      </trkpt>
      <trkpt lat="58.95443" lon="23.66138">
        <ele>7.988023</ele>
        <time>2020-10-06T19:31:09.031Z</time>
      </trkpt>
      <trkpt lat="58.95366" lon="23.66018">
        <ele>7.845482</ele>
        <time>2020-10-06T19:31:30.588Z</time>
      </trkpt>
      <trkpt lat="58.9524" lon="23.6584">
        <ele>7.691293</ele>
        <time>2020-10-06T19:32:05.012Z</time>
      </trkpt>
      <trkpt lat="58.95232" lon="23.65824">
        <ele>7.672581</ele>
        <time>2020-10-06T19:32:07.452Z</time>
      </trkpt>
      <trkpt lat="58.95227" lon="23.65817">
        <ele>7.662666</ele>
        <time>2020-10-06T19:32:08.759Z</time>
      </trkpt>
      <trkpt lat="58.95215" lon="23.65815">
        <ele>7.6417</ele>
        <time>2020-10-06T19:32:11.490Z</time>
      </trkpt>
      <trkpt lat="58.95129" lon="23.65649">
        <ele>7.436558</ele>
        <time>2020-10-06T19:32:37.876Z</time>
      </trkpt>
      <trkpt lat="58.95114" lon="23.65615">
        <ele>7.396051</ele>
        <time>2020-10-06T19:32:42.753Z</time>
      </trkpt>
      <trkpt lat="58.95112" lon="23.65592">
        <ele>7.36205</ele>
        <time>2020-10-06T19:32:45.260Z</time>
      </trkpt>
      <trkpt lat="58.95051" lon="23.65442">
        <ele>7.084048</ele>
        <time>2020-10-06T19:33:05.858Z</time>
      </trkpt>
      <trkpt lat="58.95031" lon="23.65387">
        <ele>6.987112</ele>
        <time>2020-10-06T19:33:13.157Z</time>
      </trkpt>
      <trkpt lat="58.95014" lon="23.65324">
        <ele>6.900333</ele>
        <time>2020-10-06T19:33:21.039Z</time>
      </trkpt>
      <trkpt lat="58.94983" lon="23.65172">
        <ele>7.031669</ele>
        <time>2020-10-06T19:33:40.084Z</time>
      </trkpt>
      <trkpt lat="58.94962" lon="23.65003">
        <ele>7.172094</ele>
        <time>2020-10-06T19:34:01.197Z</time>
      </trkpt>
      <trkpt lat="58.94957" lon="23.64943">
        <ele>7.227474</ele>
        <time>2020-10-06T19:34:08.659Z</time>
      </trkpt>
      <trkpt lat="58.94952" lon="23.6484">
        <ele>7.323974</ele>
        <time>2020-10-06T19:34:21.303Z</time>
      </trkpt>
      <trkpt lat="58.94937" lon="23.64386">
        <ele>7.5</ele>
        <time>2020-10-06T19:35:14.107Z</time>
      </trkpt>
      <trkpt lat="58.94932" lon="23.64266">
        <ele>7.513969</ele>
        <time>2020-10-06T19:35:27.939Z</time>
      </trkpt>
      <trkpt lat="58.94929" lon="23.64158">
        <ele>7.552999</ele>
        <time>2020-10-06T19:35:40.287Z</time>
      </trkpt>
      <trkpt lat="58.9493" lon="23.64133">
        <ele>7.562181</ele>
        <time>2020-10-06T19:35:43.261Z</time>
      </trkpt>
      <trkpt lat="58.94931" lon="23.64109">
        <ele>7.57108</ele>
        <time>2020-10-06T19:35:46.079Z</time>
      </trkpt>
      <trkpt lat="58.9493" lon="23.64076">
        <ele>7.582941</ele>
        <time>2020-10-06T19:35:49.896Z</time>
      </trkpt>
      <trkpt lat="58.9492" lon="23.63744">
        <ele>7.687268</ele>
        <time>2020-10-06T19:36:28.702Z</time>
      </trkpt>
      <trkpt lat="58.94909" lon="23.63698">
        <ele>7.701793</ele>
        <time>2020-10-06T19:36:34.619Z</time>
      </trkpt>
      <trkpt lat="58.94904" lon="23.63628">
        <ele>7.721912</ele>
        <time>2020-10-06T19:36:42.830Z</time>
      </trkpt>
      <trkpt lat="58.94871" lon="23.62672">
        <ele>8.271267</ele>
        <time>2020-10-06T19:38:35.175Z</time>
      </trkpt>
      <trkpt lat="58.94881" lon="23.62613">
        <ele>8.321825</ele>
        <time>2020-10-06T19:38:42.724Z</time>
      </trkpt>
      <trkpt lat="58.9488" lon="23.62594">
        <ele>8.337166</ele>
        <time>2020-10-06T19:38:44.943Z</time>
      </trkpt>
      <trkpt lat="58.94875" lon="23.62538">
        <ele>8.401828</ele>
        <time>2020-10-06T19:38:51.903Z</time>
      </trkpt>
      <trkpt lat="58.94865" lon="23.6219">
        <ele>8.846683</ele>
        <time>2020-10-06T19:39:34.060Z</time>
      </trkpt>
      <trkpt lat="58.94838" lon="23.61581">
        <ele>9.153927</ele>
        <time>2020-10-06T19:40:45.424Z</time>
      </trkpt>
      <trkpt lat="58.9484" lon="23.61494">
        <ele>9.131321</ele>
        <time>2020-10-06T19:40:55.408Z</time>
      </trkpt>
      <trkpt lat="58.94829" lon="23.61425">
        <ele>9.051827</ele>
        <time>2020-10-06T19:41:03.525Z</time>
      </trkpt>
      <trkpt lat="58.94827" lon="23.61409">
        <ele>9.033397</ele>
        <time>2020-10-06T19:41:05.590Z</time>
      </trkpt>
      <trkpt lat="58.94822" lon="23.61346">
        <ele>8.962934</ele>
        <time>2020-10-06T19:41:12.601Z</time>
      </trkpt>
      <trkpt lat="58.94801" lon="23.61141">
        <ele>8.762688</ele>
        <time>2020-10-06T19:41:35.224Z</time>
      </trkpt>
      <trkpt lat="58.94777" lon="23.60968">
        <ele>8.675635</ele>
        <time>2020-10-06T19:41:54.415Z</time>
      </trkpt>
      <trkpt lat="58.94747" lon="23.60792">
        <ele>8.960212</ele>
        <time>2020-10-06T19:42:17.389Z</time>
      </trkpt>
      <trkpt lat="58.94735" lon="23.60758">
        <ele>9.177102</ele>
        <time>2020-10-06T19:42:22.820Z</time>
      </trkpt>
      <trkpt lat="58.947" lon="23.6058">
        <ele>10.192583</ele>
        <time>2020-10-06T19:42:50.158Z</time>
      </trkpt>
      <trkpt lat="58.947" lon="23.60548">
        <ele>10.358249</ele>
        <time>2020-10-06T19:42:54.185Z</time>
      </trkpt>
      <trkpt lat="58.94698" lon="23.60534">
        <ele>10.436866</ele>
        <time>2020-10-06T19:42:56.756Z</time>
      </trkpt>
      <trkpt lat="58.94696" lon="23.60515">
        <ele>10.518041</ele>
        <time>2020-10-06T19:42:59.581Z</time>
      </trkpt>
      <trkpt lat="58.94672" lon="23.60433">
        <ele>10.854159</ele>
        <time>2020-10-06T19:43:12.502Z</time>
      </trkpt>
      <trkpt lat="58.94516" lon="23.59802">
        <ele>12.207153</ele>
        <time>2020-10-06T19:44:39.067Z</time>
      </trkpt>
      <trkpt lat="58.94512" lon="23.59788">
        <ele>12.173565</ele>
        <time>2020-10-06T19:44:40.928Z</time>
      </trkpt>
      <trkpt lat="58.94492" lon="23.59696">
        <ele>11.963522</ele>
        <time>2020-10-06T19:44:51.483Z</time>
      </trkpt>
      <trkpt lat="58.94393" lon="23.59293">
        <ele>9.953903</ele>
        <time>2020-10-06T19:45:35.664Z</time>
      </trkpt>
      <trkpt lat="58.94375" lon="23.5922">
        <ele>9.70745</ele>
        <time>2020-10-06T19:45:43.852Z</time>
      </trkpt>
      <trkpt lat="58.94352" lon="23.59128">
        <ele>9.500125</ele>
        <time>2020-10-06T19:45:54.409Z</time>
      </trkpt>
      <trkpt lat="58.94287" lon="23.58861">
        <ele>9.196372</ele>
        <time>2020-10-06T19:46:28.372Z</time>
      </trkpt>
      <trkpt lat="58.94265" lon="23.58767">
        <ele>9.277045</ele>
        <time>2020-10-06T19:46:40.953Z</time>
      </trkpt>
      <trkpt lat="58.94253" lon="23.58715">
        <ele>9.321398</ele>
        <time>2020-10-06T19:46:47.844Z</time>
      </trkpt>
      <trkpt lat="58.94246" lon="23.58669">
        <ele>9.359283</ele>
        <time>2020-10-06T19:46:53.384Z</time>
      </trkpt>
      <trkpt lat="58.94243" lon="23.58654">
        <ele>9.372192</ele>
        <time>2020-10-06T19:46:55.591Z</time>
      </trkpt>
      <trkpt lat="58.94237" lon="23.58615">
        <ele>9.367614</ele>
        <time>2020-10-06T19:47:00.205Z</time>
      </trkpt>
      <trkpt lat="58.94188" lon="23.5845">
        <ele>9.201853</ele>
        <time>2020-10-06T19:47:22.098Z</time>
      </trkpt>
      <trkpt lat="58.94169" lon="23.58369">
        <ele>9.124548</ele>
        <time>2020-10-06T19:47:31.611Z</time>
      </trkpt>
      <trkpt lat="58.94146" lon="23.58294">
        <ele>9.010158</ele>
        <time>2020-10-06T19:47:40.842Z</time>
      </trkpt>
      <trkpt lat="58.94144" lon="23.58281">
        <ele>8.986486</ele>
        <time>2020-10-06T19:47:42.242Z</time>
      </trkpt>
      <trkpt lat="58.94146" lon="23.58263">
        <ele>8.952507</ele>
        <time>2020-10-06T19:47:44.272Z</time>
      </trkpt>
      <trkpt lat="58.94139" lon="23.58244">
        <ele>8.910964</ele>
        <time>2020-10-06T19:47:46.693Z</time>
      </trkpt>
      <trkpt lat="58.94134" lon="23.58232">
        <ele>8.883697</ele>
        <time>2020-10-06T19:47:48.235Z</time>
      </trkpt>
      <trkpt lat="58.94123" lon="23.58229">
        <ele>8.843294</ele>
        <time>2020-10-06T19:47:50.655Z</time>
      </trkpt>
      <trkpt lat="58.94115" lon="23.58212">
        <ele>8.80075</ele>
        <time>2020-10-06T19:47:53.224Z</time>
      </trkpt>
      <trkpt lat="58.94108" lon="23.58198">
        <ele>8.764152</ele>
        <time>2020-10-06T19:47:55.274Z</time>
      </trkpt>
      <trkpt lat="58.94048" lon="23.58028">
        <ele>8.408605</ele>
        <time>2020-10-06T19:48:17.828Z</time>
      </trkpt>
      <trkpt lat="58.94036" lon="23.57976">
        <ele>8.337357</ele>
        <time>2020-10-06T19:48:24.300Z</time>
      </trkpt>
      <trkpt lat="58.94002" lon="23.57875">
        <ele>8.188959</ele>
        <time>2020-10-06T19:48:37.595Z</time>
      </trkpt>
      <trkpt lat="58.9399" lon="23.57838">
        <ele>8.134336</ele>
        <time>2020-10-06T19:48:42.563Z</time>
      </trkpt>
      <trkpt lat="58.93989" lon="23.57823">
        <ele>8.115923</ele>
        <time>2020-10-06T19:48:44.196Z</time>
      </trkpt>
      <trkpt lat="58.93982" lon="23.57805">
        <ele>8.086687</ele>
        <time>2020-10-06T19:48:46.923Z</time>
      </trkpt>
      <trkpt lat="58.93972" lon="23.5778">
        <ele>8.048021</ele>
        <time>2020-10-06T19:48:50.313Z</time>
      </trkpt>
      <trkpt lat="58.93897" lon="23.57563">
        <ele>7.834804</ele>
        <time>2020-10-06T19:49:18.559Z</time>
      </trkpt>
      <trkpt lat="58.93893" lon="23.5755">
        <ele>7.823774</ele>
        <time>2020-10-06T19:49:20.063Z</time>
      </trkpt>
      <trkpt lat="58.93873" lon="23.57491">
        <ele>7.76906</ele>
        <time>2020-10-06T19:49:28.543Z</time>
      </trkpt>
      <trkpt lat="58.93868" lon="23.57482">
        <ele>7.758721</ele>
        <time>2020-10-06T19:49:30.104Z</time>
      </trkpt>
      <trkpt lat="58.93864" lon="23.57475">
        <ele>7.750455</ele>
        <time>2020-10-06T19:49:31.284Z</time>
      </trkpt>
      <trkpt lat="58.93859" lon="23.5746">
        <ele>7.804686</ele>
        <time>2020-10-06T19:49:33.689Z</time>
      </trkpt>
      <trkpt lat="58.93848" lon="23.57429">
        <ele>7.965392</ele>
        <time>2020-10-06T19:49:38.216Z</time>
      </trkpt>
      <trkpt lat="58.93847" lon="23.57424">
        <ele>7.992061</ele>
        <time>2020-10-06T19:49:38.891Z</time>
      </trkpt>
      <trkpt lat="58.93849" lon="23.57389">
        <ele>8.142845</ele>
        <time>2020-10-06T19:49:43.656Z</time>
      </trkpt>
      <trkpt lat="58.93846" lon="23.57383">
        <ele>8.17539</ele>
        <time>2020-10-06T19:49:44.485Z</time>
      </trkpt>
      <trkpt lat="58.93841" lon="23.5737">
        <ele>8.24743</ele>
        <time>2020-10-06T19:49:46.560Z</time>
      </trkpt>
      <trkpt lat="58.93839" lon="23.57362">
        <ele>8.283517</ele>
        <time>2020-10-06T19:49:47.680Z</time>
      </trkpt>
      <trkpt lat="58.93824" lon="23.57348">
        <ele>8.421471</ele>
        <time>2020-10-06T19:49:52.405Z</time>
      </trkpt>
      <trkpt lat="58.93819" lon="23.5734">
        <ele>8.476449</ele>
        <time>2020-10-06T19:49:53.948Z</time>
      </trkpt>
      <trkpt lat="58.93818" lon="23.57335">
        <ele>8.49589</ele>
        <time>2020-10-06T19:49:54.532Z</time>
      </trkpt>
      <trkpt lat="58.93812" lon="23.57318">
        <ele>8.58479</ele>
        <time>2020-10-06T19:49:57.216Z</time>
      </trkpt>
      <trkpt lat="58.93805" lon="23.57301">
        <ele>8.680563</ele>
        <time>2020-10-06T19:50:00.238Z</time>
      </trkpt>
      <trkpt lat="58.93804" lon="23.57296">
        <ele>8.706233</ele>
        <time>2020-10-06T19:50:01.562Z</time>
      </trkpt>
      <trkpt lat="58.93782" lon="23.57239">
        <ele>9.00887</ele>
        <time>2020-10-06T19:50:11.517Z</time>
      </trkpt>
      <trkpt lat="58.93762" lon="23.57154">
        <ele>9.262988</ele>
        <time>2020-10-06T19:50:23.631Z</time>
      </trkpt>
      <trkpt lat="58.93753" lon="23.57107">
        <ele>9.289863</ele>
        <time>2020-10-06T19:50:30.667Z</time>
      </trkpt>
      <trkpt lat="58.93746" lon="23.57041">
        <ele>9.326076</ele>
        <time>2020-10-06T19:50:39.458Z</time>
      </trkpt>
      <trkpt lat="58.9374" lon="23.56976">
        <ele>9.361281</ele>
        <time>2020-10-06T19:50:46.948Z</time>
      </trkpt>
      <trkpt lat="58.93737" lon="23.56922">
        <ele>9.390305</ele>
        <time>2020-10-06T19:50:52.450Z</time>
      </trkpt>
      <trkpt lat="58.93723" lon="23.56692">
        <ele>8.995846</ele>
        <time>2020-10-06T19:51:16.318Z</time>
      </trkpt>
      <trkpt lat="58.93724" lon="23.56677">
        <ele>8.956513</ele>
        <time>2020-10-06T19:51:18.039Z</time>
      </trkpt>
      <trkpt lat="58.93731" lon="23.56671">
        <ele>8.916803</ele>
        <time>2020-10-06T19:51:19.754Z</time>
      </trkpt>
      <trkpt lat="58.9373" lon="23.56657">
        <ele>8.879751</ele>
        <time>2020-10-06T19:51:20.967Z</time>
      </trkpt>
      <trkpt lat="58.9373" lon="23.56638">
        <ele>8.826962</ele>
        <time>2020-10-06T19:51:22.983Z</time>
      </trkpt>
      <trkpt lat="58.93729" lon="23.56623">
        <ele>8.786882</ele>
        <time>2020-10-06T19:51:24.540Z</time>
      </trkpt>
      <trkpt lat="58.93728" lon="23.566">
        <ele>8.723698</ele>
        <time>2020-10-06T19:51:27.648Z</time>
      </trkpt>
      <trkpt lat="58.93725" lon="23.56574">
        <ele>8.651992</ele>
        <time>2020-10-06T19:51:30.254Z</time>
      </trkpt>
      <trkpt lat="58.93718" lon="23.56572">
        <ele>8.618749</ele>
        <time>2020-10-06T19:51:31.541Z</time>
      </trkpt>
      <trkpt lat="58.93713" lon="23.56518">
        <ele>8.49549</ele>
        <time>2020-10-06T19:51:37.854Z</time>
      </trkpt>
      <trkpt lat="58.93709" lon="23.56445">
        <ele>8.582793</ele>
        <time>2020-10-06T19:51:46.141Z</time>
      </trkpt>
      <trkpt lat="58.93715" lon="23.56432">
        <ele>8.602563</ele>
        <time>2020-10-06T19:51:47.955Z</time>
      </trkpt>
      <trkpt lat="58.93715" lon="23.5642">
        <ele>8.617074</ele>
        <time>2020-10-06T19:51:49.940Z</time>
      </trkpt>
      <trkpt lat="58.93715" lon="23.56415">
        <ele>8.623818</ele>
        <time>2020-10-06T19:51:50.623Z</time>
      </trkpt>
      <trkpt lat="58.93712" lon="23.56388">
        <ele>8.65662</ele>
        <time>2020-10-06T19:51:53.491Z</time>
      </trkpt>
      <trkpt lat="58.93723" lon="23.56261">
        <ele>8.810331</ele>
        <time>2020-10-06T19:52:09.790Z</time>
      </trkpt>
      <trkpt lat="58.93739" lon="23.56089">
        <ele>8.980881</ele>
        <time>2020-10-06T19:52:31.215Z</time>
      </trkpt>
      <trkpt lat="58.93762" lon="23.5583">
        <ele>9.178795</ele>
        <time>2020-10-06T19:53:01.831Z</time>
      </trkpt>
      <trkpt lat="58.93773" lon="23.55718">
        <ele>9.169937</ele>
        <time>2020-10-06T19:53:14.987Z</time>
      </trkpt>
      <trkpt lat="58.93791" lon="23.55511">
        <ele>9.153691</ele>
        <time>2020-10-06T19:53:38.827Z</time>
      </trkpt>
      <trkpt lat="58.93818" lon="23.55226">
        <ele>9.386769</ele>
        <time>2020-10-06T19:54:12.890Z</time>
      </trkpt>
      <trkpt lat="58.93819" lon="23.5522">
        <ele>9.391849</ele>
        <time>2020-10-06T19:54:13.621Z</time>
      </trkpt>
      <trkpt lat="58.93823" lon="23.55214">
        <ele>9.399307</ele>
        <time>2020-10-06T19:54:14.674Z</time>
      </trkpt>
      <trkpt lat="58.93825" lon="23.55194">
        <ele>9.417226</ele>
        <time>2020-10-06T19:54:17.208Z</time>
      </trkpt>
      <trkpt lat="58.93827" lon="23.55177">
        <ele>9.431849</ele>
        <time>2020-10-06T19:54:19.395Z</time>
      </trkpt>
      <trkpt lat="58.93824" lon="23.55162">
        <ele>9.444922</ele>
        <time>2020-10-06T19:54:21.271Z</time>
      </trkpt>
      <trkpt lat="58.93832" lon="23.55071">
        <ele>9.650819</ele>
        <time>2020-10-06T19:54:32.621Z</time>
      </trkpt>
      <trkpt lat="58.93846" lon="23.54903">
        <ele>10.038807</ele>
        <time>2020-10-06T19:54:53.816Z</time>
      </trkpt>
      <trkpt lat="58.9387" lon="23.54683">
        <ele>10.586755</ele>
        <time>2020-10-06T19:55:21.992Z</time>
      </trkpt>
      <trkpt lat="58.93887" lon="23.54627">
        <ele>10.750882</ele>
        <time>2020-10-06T19:55:30.256Z</time>
      </trkpt>
      <trkpt lat="58.93917" lon="23.54555">
        <ele>10.986166</ele>
        <time>2020-10-06T19:55:41.998Z</time>
      </trkpt>
      <trkpt lat="58.9392" lon="23.54545">
        <ele>11.016444</ele>
        <time>2020-10-06T19:55:43.562Z</time>
      </trkpt>
      <trkpt lat="58.9391" lon="23.54548">
        <ele>11.067729</ele>
        <time>2020-10-06T19:55:46.084Z</time>
      </trkpt>
      <trkpt lat="58.93928" lon="23.54461">
        <ele>11.164572</ele>
        <time>2020-10-06T19:55:57.379Z</time>
      </trkpt>
      <trkpt lat="58.93939" lon="23.54406">
        <ele>11.193915</ele>
        <time>2020-10-06T19:56:04.491Z</time>
      </trkpt>
      <trkpt lat="58.93946" lon="23.54367">
        <ele>11.214132</ele>
        <time>2020-10-06T19:56:09.303Z</time>
      </trkpt>
      <trkpt lat="58.9395" lon="23.54349">
        <ele>11.223635</ele>
        <time>2020-10-06T19:56:11.509Z</time>
      </trkpt>
      <trkpt lat="58.93954" lon="23.54321">
        <ele>11.238151</ele>
        <time>2020-10-06T19:56:14.949Z</time>
      </trkpt>
      <trkpt lat="58.93957" lon="23.54305">
        <ele>11.246379</ele>
        <time>2020-10-06T19:56:16.923Z</time>
      </trkpt>
      <trkpt lat="58.93958" lon="23.54299">
        <ele>11.249699</ele>
        <time>2020-10-06T19:56:17.703Z</time>
      </trkpt>
      <trkpt lat="58.93958" lon="23.54285">
        <ele>11.256573</ele>
        <time>2020-10-06T19:56:19.284Z</time>
      </trkpt>
      <trkpt lat="58.93958" lon="23.54263">
        <ele>11.26723</ele>
        <time>2020-10-06T19:56:21.841Z</time>
      </trkpt>
      <trkpt lat="58.93957" lon="23.5425">
        <ele>11.274042</ele>
        <time>2020-10-06T19:56:23.461Z</time>
      </trkpt>
      <trkpt lat="58.93953" lon="23.54225">
        <ele>11.286632</ele>
        <time>2020-10-06T19:56:26.379Z</time>
      </trkpt>
      <trkpt lat="58.93951" lon="23.54212">
        <ele>11.293475</ele>
        <time>2020-10-06T19:56:27.926Z</time>
      </trkpt>
      <trkpt lat="58.9395" lon="23.54193">
        <ele>11.301012</ele>
        <time>2020-10-06T19:56:30.049Z</time>
      </trkpt>
      <trkpt lat="58.93945" lon="23.54159">
        <ele>11.194536</ele>
        <time>2020-10-06T19:56:33.941Z</time>
      </trkpt>
      <trkpt lat="58.93942" lon="23.54141">
        <ele>11.137169</ele>
        <time>2020-10-06T19:56:35.987Z</time>
      </trkpt>
      <trkpt lat="58.9394" lon="23.54123">
        <ele>11.079822</ele>
        <time>2020-10-06T19:56:38.056Z</time>
      </trkpt>
      <trkpt lat="58.93936" lon="23.54101">
        <ele>11.009992</ele>
        <time>2020-10-06T19:56:40.531Z</time>
      </trkpt>
      <trkpt lat="58.93932" lon="23.54065">
        <ele>10.898879</ele>
        <time>2020-10-06T19:56:44.360Z</time>
      </trkpt>
      <trkpt lat="58.93928" lon="23.53996">
        <ele>10.688797</ele>
        <time>2020-10-06T19:56:51.581Z</time>
      </trkpt>
      <trkpt lat="58.93928" lon="23.5398">
        <ele>10.641886</ele>
        <time>2020-10-06T19:56:53.205Z</time>
      </trkpt>
      <trkpt lat="58.93929" lon="23.5397">
        <ele>10.612533</ele>
        <time>2020-10-06T19:56:54.219Z</time>
      </trkpt>
      <trkpt lat="58.93931" lon="23.53911">
        <ele>10.433329</ele>
        <time>2020-10-06T19:57:00.382Z</time>
      </trkpt>
      <trkpt lat="58.93932" lon="23.53837">
        <ele>10.17427</ele>
        <time>2020-10-06T19:57:08.115Z</time>
      </trkpt>
      <trkpt lat="58.93933" lon="23.53806">
        <ele>9.999018</ele>
        <time>2020-10-06T19:57:11.217Z</time>
      </trkpt>
      <trkpt lat="58.93933" lon="23.53786">
        <ele>9.884273</ele>
        <time>2020-10-06T19:57:13.231Z</time>
      </trkpt>
      <trkpt lat="58.93934" lon="23.53761">
        <ele>9.739882</ele>
        <time>2020-10-06T19:57:15.823Z</time>
      </trkpt>
      <trkpt lat="58.93935" lon="23.53654">
        <ele>9.129215</ele>
        <time>2020-10-06T19:57:26.318Z</time>
      </trkpt>
      <trkpt lat="58.93936" lon="23.53634">
        <ele>9.015078</ele>
        <time>2020-10-06T19:57:28.267Z</time>
      </trkpt>
      <trkpt lat="58.93936" lon="23.53577">
        <ele>8.690487</ele>
        <time>2020-10-06T19:57:33.766Z</time>
      </trkpt>
      <trkpt lat="58.93936" lon="23.53559">
        <ele>8.586572</ele>
        <time>2020-10-06T19:57:35.530Z</time>
      </trkpt>
      <trkpt lat="58.93937" lon="23.53523">
        <ele>8.379355</ele>
        <time>2020-10-06T19:57:39.033Z</time>
      </trkpt>
      <trkpt lat="58.93939" lon="23.53486">
        <ele>8.171603</ele>
        <time>2020-10-06T19:57:42.504Z</time>
      </trkpt>
      <trkpt lat="58.9394" lon="23.53476">
        <ele>8.113088</ele>
        <time>2020-10-06T19:57:43.475Z</time>
      </trkpt>
      <trkpt lat="58.93938" lon="23.53467">
        <ele>8.057233</ele>
        <time>2020-10-06T19:57:44.469Z</time>
      </trkpt>
      <trkpt lat="58.93934" lon="23.53459">
        <ele>7.996038</ele>
        <time>2020-10-06T19:57:45.501Z</time>
      </trkpt>
      <trkpt lat="58.93937" lon="23.53446">
        <ele>7.915762</ele>
        <time>2020-10-06T19:57:46.852Z</time>
      </trkpt>
      <trkpt lat="58.93939" lon="23.53425">
        <ele>7.794392</ele>
        <time>2020-10-06T19:57:48.887Z</time>
      </trkpt>
      <trkpt lat="58.9394" lon="23.53408">
        <ele>7.694331</ele>
        <time>2020-10-06T19:57:50.590Z</time>
      </trkpt>
      <trkpt lat="58.93944" lon="23.53324">
        <ele>7.215876</ele>
        <time>2020-10-06T19:57:58.712Z</time>
      </trkpt>
      <trkpt lat="58.93944" lon="23.5332">
        <ele>7.188273</ele>
        <time>2020-10-06T19:57:59.180Z</time>
      </trkpt>
      <trkpt lat="58.93948" lon="23.5324">
        <ele>6.73112</ele>
        <time>2020-10-06T19:58:07.120Z</time>
      </trkpt>
      <trkpt lat="58.93948" lon="23.53235">
        <ele>6.701412</ele>
        <time>2020-10-06T19:58:07.580Z</time>
      </trkpt>
      <trkpt lat="58.93947" lon="23.53162">
        <ele>6.283338</ele>
        <time>2020-10-06T19:58:15.078Z</time>
      </trkpt>
      <trkpt lat="58.93929" lon="23.53081">
        <ele>6.216313</ele>
        <time>2020-10-06T19:58:24.699Z</time>
      </trkpt>
      <trkpt lat="58.93924" lon="23.53066">
        <ele>6.20546</ele>
        <time>2020-10-06T19:58:26.488Z</time>
      </trkpt>
      <trkpt lat="58.9392" lon="23.53073">
        <ele>6.198385</ele>
        <time>2020-10-06T19:58:27.838Z</time>
      </trkpt>
      <trkpt lat="58.93893" lon="23.53095">
        <ele>6.162874</ele>
        <time>2020-10-06T19:58:34.370Z</time>
      </trkpt>
      <trkpt lat="58.93818" lon="23.53158">
        <ele>6.063202</ele>
        <time>2020-10-06T19:58:53.626Z</time>
      </trkpt>
      <trkpt lat="58.93798" lon="23.53178">
        <ele>6.061084</ele>
        <time>2020-10-06T19:58:59.099Z</time>
      </trkpt>
      <trkpt lat="58.93729" lon="23.5324">
        <ele>6.131326</ele>
        <time>2020-10-06T19:59:18.703Z</time>
      </trkpt>
      <trkpt lat="58.93714" lon="23.53216">
        <ele>6.149183</ele>
        <time>2020-10-06T19:59:24.472Z</time>
      </trkpt>
      <trkpt lat="58.93699" lon="23.53192">
        <ele>6.16711</ele>
        <time>2020-10-06T19:59:30.269Z</time>
      </trkpt>
      <trkpt lat="58.93696" lon="23.53188">
        <ele>6.169976</ele>
        <time>2020-10-06T19:59:31.140Z</time>
      </trkpt>
      <trkpt lat="58.93691" lon="23.53179">
        <ele>6.175988</ele>
        <time>2020-10-06T19:59:33.056Z</time>
      </trkpt>
      <trkpt lat="58.93629" lon="23.53062">
        <ele>6.307456</ele>
        <time>2020-10-06T19:59:58.779Z</time>
      </trkpt>
      <trkpt lat="58.93601" lon="23.53013">
        <ele>6.384774</ele>
        <time>2020-10-06T20:00:09.824Z</time>
      </trkpt>
      <trkpt lat="58.93588" lon="23.52989">
        <ele>6.42197</ele>
        <time>2020-10-06T20:00:15.036Z</time>
      </trkpt>
      <trkpt lat="58.93557" lon="23.52946">
        <ele>6.500716</ele>
        <time>2020-10-06T20:00:26.637Z</time>
      </trkpt>
      <trkpt lat="58.93547" lon="23.52938">
        <ele>6.523211</ele>
        <time>2020-10-06T20:00:30.016Z</time>
      </trkpt>
      <trkpt lat="58.93526" lon="23.52921">
        <ele>6.571522</ele>
        <time>2020-10-06T20:00:37.225Z</time>
      </trkpt>
      <trkpt lat="58.93352" lon="23.52796">
        <ele>7.410678</ele>
        <time>2020-10-06T20:01:35.620Z</time>
      </trkpt>
      <trkpt lat="58.93301" lon="23.5276">
        <ele>7.52484</ele>
        <time>2020-10-06T20:01:51.898Z</time>
      </trkpt>
      <trkpt lat="58.93254" lon="23.52726">
        <ele>7.627213</ele>
        <time>2020-10-06T20:02:06.756Z</time>
      </trkpt>
      <trkpt lat="58.93199" lon="23.52687">
        <ele>7.744578</ele>
        <time>2020-10-06T20:02:24.009Z</time>
      </trkpt>
      <trkpt lat="58.93134" lon="23.52641">
        <ele>8.081157</ele>
        <time>2020-10-06T20:02:45.065Z</time>
      </trkpt>
      <trkpt lat="58.93128" lon="23.52637">
        <ele>8.119981</ele>
        <time>2020-10-06T20:02:47.089Z</time>
      </trkpt>
      <trkpt lat="58.93091" lon="23.52612">
        <ele>8.352091</ele>
        <time>2020-10-06T20:02:59.676Z</time>
      </trkpt>
      <trkpt lat="58.93088" lon="23.52611">
        <ele>8.367733</ele>
        <time>2020-10-06T20:03:00.529Z</time>
      </trkpt>
      <trkpt lat="58.93076" lon="23.52603">
        <ele>8.442272</ele>
        <time>2020-10-06T20:03:04.556Z</time>
      </trkpt>
      <trkpt lat="58.93067" lon="23.52603">
        <ele>8.497529</ele>
        <time>2020-10-06T20:03:07.568Z</time>
      </trkpt>
      <trkpt lat="58.93062" lon="23.52603">
        <ele>8.528425</ele>
        <time>2020-10-06T20:03:09.264Z</time>
      </trkpt>
      <trkpt lat="58.93042" lon="23.52591">
        <ele>8.65452</ele>
        <time>2020-10-06T20:03:17.857Z</time>
      </trkpt>
      <trkpt lat="58.93013" lon="23.52579">
        <ele>8.828185</ele>
        <time>2020-10-06T20:03:29.752Z</time>
      </trkpt>
      <trkpt lat="58.92987" lon="23.52566">
        <ele>8.896973</ele>
        <time>2020-10-06T20:03:40.639Z</time>
      </trkpt>
      <trkpt lat="58.92967" lon="23.52568">
        <ele>8.936049</ele>
        <time>2020-10-06T20:03:48.516Z</time>
      </trkpt>
      <trkpt lat="58.92946" lon="23.5255">
        <ele>8.98188</ele>
        <time>2020-10-06T20:03:57.809Z</time>
      </trkpt>
      <trkpt lat="58.92856" lon="23.5252">
        <ele>9.161576</ele>
        <time>2020-10-06T20:04:31.922Z</time>
      </trkpt>
      <trkpt lat="58.92747" lon="23.52508">
        <ele>9.101664</ele>
        <time>2020-10-06T20:05:10.246Z</time>
      </trkpt>
      <trkpt lat="58.9266" lon="23.5251">
        <ele>8.996129</ele>
        <time>2020-10-06T20:05:42.558Z</time>
      </trkpt>
      <trkpt lat="58.92647" lon="23.52513">
        <ele>9.02811</ele>
        <time>2020-10-06T20:05:47.788Z</time>
      </trkpt>
      <trkpt lat="58.92617" lon="23.52509">
        <ele>9.209912</ele>
        <time>2020-10-06T20:05:59.677Z</time>
      </trkpt>
      <trkpt lat="58.92579" lon="23.5251">
        <ele>9.443491</ele>
        <time>2020-10-06T20:06:15.356Z</time>
      </trkpt>
      <trkpt lat="58.92502" lon="23.525">
        <ele>9.908653</ele>
        <time>2020-10-06T20:06:46.673Z</time>
      </trkpt>
      <trkpt lat="58.92462" lon="23.52482">
        <ele>10.028344</ele>
        <time>2020-10-06T20:07:02.875Z</time>
      </trkpt>
      <trkpt lat="58.92319" lon="23.52376">
        <ele>9.400127</ele>
        <time>2020-10-06T20:07:56.909Z</time>
      </trkpt>
      <trkpt lat="58.92303" lon="23.52364">
        <ele>9.328417</ele>
        <time>2020-10-06T20:08:02.263Z</time>
      </trkpt>
      <trkpt lat="58.92264" lon="23.52332">
        <ele>9.099593</ele>
        <time>2020-10-06T20:08:16.760Z</time>
      </trkpt>
      <trkpt lat="58.92177" lon="23.52262">
        <ele>8.594712</ele>
        <time>2020-10-06T20:08:49.448Z</time>
      </trkpt>
      <trkpt lat="58.92173" lon="23.52251">
        <ele>8.555112</ele>
        <time>2020-10-06T20:08:51.954Z</time>
      </trkpt>
      <trkpt lat="58.92173" lon="23.52239">
        <ele>8.520601</ele>
        <time>2020-10-06T20:08:54.347Z</time>
      </trkpt>
      <trkpt lat="58.92171" lon="23.52191">
        <ele>8.387259</ele>
        <time>2020-10-06T20:09:03.648Z</time>
      </trkpt>
      <trkpt lat="58.92137" lon="23.51851">
        <ele>9.045187</ele>
        <time>2020-10-06T20:10:13.222Z</time>
      </trkpt>
      <trkpt lat="58.92117" lon="23.51732">
        <ele>9.424019</ele>
        <time>2020-10-06T20:10:38.972Z</time>
      </trkpt>
      <trkpt lat="58.92089" lon="23.51605">
        <ele>9.849286</ele>
        <time>2020-10-06T20:11:07.587Z</time>
      </trkpt>
      <trkpt lat="58.92047" lon="23.51436">
        <ele>10.231672</ele>
        <time>2020-10-06T20:11:45.741Z</time>
      </trkpt>
      <trkpt lat="58.9204" lon="23.51414">
        <ele>10.257606</ele>
        <time>2020-10-06T20:11:50.771Z</time>
      </trkpt>
      <trkpt lat="58.91993" lon="23.51252">
        <ele>10.452439</ele>
        <time>2020-10-06T20:12:27.002Z</time>
      </trkpt>
      <trkpt lat="58.91956" lon="23.51125">
        <ele>10.375018</ele>
        <time>2020-10-06T20:12:54.141Z</time>
      </trkpt>
      <trkpt lat="58.91926" lon="23.51024">
        <ele>10.246721</ele>
        <time>2020-10-06T20:13:15.623Z</time>
      </trkpt>
      <trkpt lat="58.91924" lon="23.51018">
        <ele>10.238002</ele>
        <time>2020-10-06T20:13:17.072Z</time>
      </trkpt>
      <trkpt lat="58.91894" lon="23.50905">
        <ele>10.095952</ele>
        <time>2020-10-06T20:13:41.194Z</time>
      </trkpt>
      <trkpt lat="58.91899" lon="23.50906">
        <ele>10.08434</ele>
        <time>2020-10-06T20:13:42.623Z</time>
      </trkpt>
      <trkpt lat="58.91909" lon="23.50897">
        <ele>10.061088</ele>
        <time>2020-10-06T20:13:45.680Z</time>
      </trkpt>
      <trkpt lat="58.9189" lon="23.50832">
        <ele>9.975401</ele>
        <time>2020-10-06T20:13:53.951Z</time>
      </trkpt>
      <trkpt lat="58.91868" lon="23.50755">
        <ele>9.87456</ele>
        <time>2020-10-06T20:14:03.644Z</time>
      </trkpt>
      <trkpt lat="58.91853" lon="23.50695">
        <ele>9.797864</ele>
        <time>2020-10-06T20:14:11.116Z</time>
      </trkpt>
      <trkpt lat="58.91848" lon="23.50667">
        <ele>9.76366</ele>
        <time>2020-10-06T20:14:14.326Z</time>
      </trkpt>
      <trkpt lat="58.91842" lon="23.50614">
        <ele>9.696401</ele>
        <time>2020-10-06T20:14:20.559Z</time>
      </trkpt>
      <trkpt lat="58.91843" lon="23.50525">
        <ele>9.471208</ele>
        <time>2020-10-06T20:14:30.351Z</time>
      </trkpt>
      <trkpt lat="58.91879" lon="23.49933">
        <ele>7.900613</ele>
        <time>2020-10-06T20:15:33.104Z</time>
      </trkpt>
      <trkpt lat="58.91873" lon="23.49856">
        <ele>7.935642</ele>
        <time>2020-10-06T20:15:41.663Z</time>
      </trkpt>
      <trkpt lat="58.91856" lon="23.49748">
        <ele>8.027962</ele>
        <time>2020-10-06T20:15:54.661Z</time>
      </trkpt>
      <trkpt lat="58.91855" lon="23.49739">
        <ele>8.035506</ele>
        <time>2020-10-06T20:15:55.621Z</time>
      </trkpt>
      <trkpt lat="58.91843" lon="23.49669">
        <ele>8.095066</ele>
        <time>2020-10-06T20:16:04.364Z</time>
      </trkpt>
      <trkpt lat="58.91776" lon="23.49264">
        <ele>9.519588</ele>
        <time>2020-10-06T20:17:00.508Z</time>
      </trkpt>
      <trkpt lat="58.91701" lon="23.48811">
        <ele>11.258528</ele>
        <time>2020-10-06T20:18:03.464Z</time>
      </trkpt>
      <trkpt lat="58.917" lon="23.48755">
        <ele>11.354077</ele>
        <time>2020-10-06T20:18:10.430Z</time>
      </trkpt>
      <trkpt lat="58.91708" lon="23.48659">
        <ele>11.517739</ele>
        <time>2020-10-06T20:18:22.070Z</time>
      </trkpt>
      <trkpt lat="58.9173" lon="23.48579">
        <ele>11.615509</ele>
        <time>2020-10-06T20:18:32.129Z</time>
      </trkpt>
      <trkpt lat="58.91768" lon="23.48475">
        <ele>11.40763</ele>
        <time>2020-10-06T20:18:45.643Z</time>
      </trkpt>
      <trkpt lat="58.91795" lon="23.48376">
        <ele>11.225207</ele>
        <time>2020-10-06T20:18:57.754Z</time>
      </trkpt>
      <trkpt lat="58.91801" lon="23.48339">
        <ele>11.162297</ele>
        <time>2020-10-06T20:19:01.917Z</time>
      </trkpt>
      <trkpt lat="58.91806" lon="23.4829">
        <ele>11.081319</ele>
        <time>2020-10-06T20:19:07.559Z</time>
      </trkpt>
      <trkpt lat="58.91808" lon="23.48237">
        <ele>11.144749</ele>
        <time>2020-10-06T20:19:13.718Z</time>
      </trkpt>
      <trkpt lat="58.9181" lon="23.4816">
        <ele>11.252012</ele>
        <time>2020-10-06T20:19:22.576Z</time>
      </trkpt>
      <trkpt lat="58.91811" lon="23.48119">
        <ele>11.309468</ele>
        <time>2020-10-06T20:19:27.506Z</time>
      </trkpt>
      <trkpt lat="58.91812" lon="23.47997">
        <ele>11.479262</ele>
        <time>2020-10-06T20:19:42.472Z</time>
      </trkpt>
      <trkpt lat="58.91812" lon="23.47933">
        <ele>11.578822</ele>
        <time>2020-10-06T20:19:50.850Z</time>
      </trkpt>
      <trkpt lat="58.9181" lon="23.4787">
        <ele>11.772395</ele>
        <time>2020-10-06T20:19:59.143Z</time>
      </trkpt>
      <trkpt lat="58.91805" lon="23.47763">
        <ele>12.101342</ele>
        <time>2020-10-06T20:20:13.107Z</time>
      </trkpt>
      <trkpt lat="58.91796" lon="23.47612">
        <ele>12.568447</ele>
        <time>2020-10-06T20:20:32.282Z</time>
      </trkpt>
      <trkpt lat="58.91757" lon="23.47399">
        <ele>13.012816</ele>
        <time>2020-10-06T20:21:00.235Z</time>
      </trkpt>
      <trkpt lat="58.91707" lon="23.47201">
        <ele>13.319725</ele>
        <time>2020-10-06T20:21:26.714Z</time>
      </trkpt>
      <trkpt lat="58.91606" lon="23.46835">
        <ele>13.497459</ele>
        <time>2020-10-06T20:22:14.964Z</time>
      </trkpt>
      <trkpt lat="58.91589" lon="23.46782">
        <ele>13.511544</ele>
        <time>2020-10-06T20:22:22.254Z</time>
      </trkpt>
      <trkpt lat="58.91546" lon="23.46681">
        <ele>13.541326</ele>
        <time>2020-10-06T20:22:37.718Z</time>
      </trkpt>
      <trkpt lat="58.91413" lon="23.46451">
        <ele>13.329332</ele>
        <time>2020-10-06T20:23:16.725Z</time>
      </trkpt>
      <trkpt lat="58.91387" lon="23.46406">
        <ele>13.150625</ele>
        <time>2020-10-06T20:23:24.156Z</time>
      </trkpt>
      <trkpt lat="58.91369" lon="23.46376">
        <ele>13.006119</ele>
        <time>2020-10-06T20:23:29.030Z</time>
      </trkpt>
      <trkpt lat="58.91332" lon="23.46293">
        <ele>12.6612</ele>
        <time>2020-10-06T20:23:40.516Z</time>
      </trkpt>
      <trkpt lat="58.91296" lon="23.46186">
        <ele>12.260335</ele>
        <time>2020-10-06T20:23:53.464Z</time>
      </trkpt>
      <trkpt lat="58.91246" lon="23.46038">
        <ele>11.393783</ele>
        <time>2020-10-06T20:24:11.343Z</time>
      </trkpt>
      <trkpt lat="58.91209" lon="23.45919">
        <ele>10.690109</ele>
        <time>2020-10-06T20:24:25.277Z</time>
      </trkpt>
      <trkpt lat="58.91174" lon="23.45748">
        <ele>9.816152</ele>
        <time>2020-10-06T20:24:43.463Z</time>
      </trkpt>
      <trkpt lat="58.91165" lon="23.45703">
        <ele>9.589842</ele>
        <time>2020-10-06T20:24:48.302Z</time>
      </trkpt>
      <trkpt lat="58.91159" lon="23.45662">
        <ele>9.388792</ele>
        <time>2020-10-06T20:24:52.632Z</time>
      </trkpt>
      <trkpt lat="58.91155" lon="23.45629">
        <ele>9.230352</ele>
        <time>2020-10-06T20:24:56.041Z</time>
      </trkpt>
      <trkpt lat="58.91106" lon="23.44992">
        <ele>7.246869</ele>
        <time>2020-10-06T20:26:03.184Z</time>
      </trkpt>
      <trkpt lat="58.911" lon="23.44917">
        <ele>7.110498</ele>
        <time>2020-10-06T20:26:11.959Z</time>
      </trkpt>
      <trkpt lat="58.91097" lon="23.44871">
        <ele>7.028957</ele>
        <time>2020-10-06T20:26:17.458Z</time>
      </trkpt>
      <trkpt lat="58.91096" lon="23.4473">
        <ele>7.104881</ele>
        <time>2020-10-06T20:26:34.288Z</time>
      </trkpt>
      <trkpt lat="58.91122" lon="23.43998">
        <ele>7.56845</ele>
        <time>2020-10-06T20:28:01.228Z</time>
      </trkpt>
      <trkpt lat="58.91121" lon="23.43887">
        <ele>7.570442</ele>
        <time>2020-10-06T20:28:13.699Z</time>
      </trkpt>
      <trkpt lat="58.91114" lon="23.43833">
        <ele>7.571443</ele>
        <time>2020-10-06T20:28:19.953Z</time>
      </trkpt>
      <trkpt lat="58.91101" lon="23.43778">
        <ele>7.570152</ele>
        <time>2020-10-06T20:28:26.815Z</time>
      </trkpt>
      <trkpt lat="58.90954" lon="23.43347">
        <ele>7.462184</ele>
        <time>2020-10-06T20:29:26.641Z</time>
      </trkpt>
      <trkpt lat="58.90943" lon="23.433">
        <ele>7.43853</ele>
        <time>2020-10-06T20:29:32.613Z</time>
      </trkpt>
      <trkpt lat="58.90908" lon="23.43109">
        <ele>6.926221</ele>
        <time>2020-10-06T20:29:54.457Z</time>
      </trkpt>
      <trkpt lat="58.90888" lon="23.43017">
        <ele>6.521209</ele>
        <time>2020-10-06T20:30:04.623Z</time>
      </trkpt>
      <trkpt lat="58.90871" lon="23.42967">
        <ele>6.281725</ele>
        <time>2020-10-06T20:30:10.576Z</time>
      </trkpt>
      <trkpt lat="58.90862" lon="23.42949">
        <ele>6.177489</ele>
        <time>2020-10-06T20:30:13.039Z</time>
      </trkpt>
      <trkpt lat="58.90859" lon="23.42942">
        <ele>6.142073</ele>
        <time>2020-10-06T20:30:13.924Z</time>
      </trkpt>
      <trkpt lat="58.90853" lon="23.42928">
        <ele>6.070604</ele>
        <time>2020-10-06T20:30:15.653Z</time>
      </trkpt>
      <trkpt lat="58.9085" lon="23.42921">
        <ele>6.033772</ele>
        <time>2020-10-06T20:30:16.548Z</time>
      </trkpt>
      <trkpt lat="58.9084" lon="23.42892">
        <ele>5.851718</ele>
        <time>2020-10-06T20:30:19.991Z</time>
      </trkpt>
      <trkpt lat="58.90825" lon="23.42849">
        <ele>5.566395</ele>
        <time>2020-10-06T20:30:24.994Z</time>
      </trkpt>
      <trkpt lat="58.9077" lon="23.42729">
        <ele>4.662763</ele>
        <time>2020-10-06T20:30:40.863Z</time>
      </trkpt>
      <trkpt lat="58.90764" lon="23.42703">
        <ele>4.50049</ele>
        <time>2020-10-06T20:30:43.708Z</time>
      </trkpt>
      <trkpt lat="58.90755" lon="23.4267">
        <ele>4.292094</ele>
        <time>2020-10-06T20:30:47.574Z</time>
      </trkpt>
      <trkpt lat="58.90676" lon="23.42481">
        <ele>2.976885</ele>
        <time>2020-10-06T20:31:11.729Z</time>
      </trkpt>
      <trkpt lat="58.90649" lon="23.4239">
        <ele>2.41161</ele>
        <time>2020-10-06T20:31:22.136Z</time>
      </trkpt>
      <trkpt lat="58.90643" lon="23.42356">
        <ele>2.22175</ele>
        <time>2020-10-06T20:31:25.684Z</time>
      </trkpt>
      <trkpt lat="58.9064" lon="23.42324">
        <ele>2.085124</ele>
        <time>2020-10-06T20:31:28.880Z</time>
      </trkpt>
      <trkpt lat="58.90642" lon="23.42303">
        <ele>2.007096</ele>
        <time>2020-10-06T20:31:30.963Z</time>
      </trkpt>
      <trkpt lat="58.90651" lon="23.42282">
        <ele>1.907894</ele>
        <time>2020-10-06T20:31:33.585Z</time>
      </trkpt>
      <trkpt lat="58.90849" lon="23.41909">
        <ele>0.304553</ele>
        <time>2020-10-06T20:32:12.155Z</time>
      </trkpt>
      <trkpt lat="58.90792" lon="23.41493">
        <ele>0.011405</ele>
        <time>2020-10-06T20:32:43.168Z</time>
      </trkpt>
      <trkpt lat="58.9078" lon="23.32893">
        <time>2020-10-06T20:43:02.693Z</time>
      </trkpt>
      <trkpt lat="58.89611" lon="23.26267">
        <ele>0.000341</ele>
        <time>2020-10-06T20:51:27.074Z</time>
      </trkpt>
      <trkpt lat="58.86763" lon="23.06298">
        <ele>0.219996</ele>
        <time>2020-10-06T21:16:20.260Z</time>
      </trkpt>
      <trkpt lat="58.86744" lon="23.05201">
        <ele>1.960661</ele>
        <time>2020-10-06T21:17:39.358Z</time>
      </trkpt>
      <trkpt lat="58.86634" lon="23.04801">
        <ele>4.366095</ele>
        <time>2020-10-06T21:18:12.081Z</time>
      </trkpt>
      <trkpt lat="58.86621" lon="23.04761">
        <ele>4.655884</ele>
        <time>2020-10-06T21:18:18.460Z</time>
      </trkpt>
      <trkpt lat="58.86599" lon="23.04725">
        <ele>4.965219</ele>
        <time>2020-10-06T21:18:25.780Z</time>
      </trkpt>
      <trkpt lat="58.86592" lon="23.04713">
        <ele>5.055229</ele>
        <time>2020-10-06T21:18:28.374Z</time>
      </trkpt>
      <trkpt lat="58.86543" lon="23.0462">
        <ele>5.68516</ele>
        <time>2020-10-06T21:18:46.155Z</time>
      </trkpt>
      <trkpt lat="58.86527" lon="23.04583">
        <ele>5.911308</ele>
        <time>2020-10-06T21:18:52.432Z</time>
      </trkpt>
      <trkpt lat="58.86513" lon="23.04525">
        <ele>6.217825</ele>
        <time>2020-10-06T21:19:01.072Z</time>
      </trkpt>
      <trkpt lat="58.86509" lon="23.04504">
        <ele>6.321944</ele>
        <time>2020-10-06T21:19:04.233Z</time>
      </trkpt>
      <trkpt lat="58.86497" lon="23.04436">
        <ele>6.693006</ele>
        <time>2020-10-06T21:19:13.816Z</time>
      </trkpt>
      <trkpt lat="58.86492" lon="23.04393">
        <ele>6.944634</ele>
        <time>2020-10-06T21:19:19.448Z</time>
      </trkpt>
      <trkpt lat="58.86489" lon="23.04372">
        <ele>7.073084</ele>
        <time>2020-10-06T21:19:22.633Z</time>
      </trkpt>
      <trkpt lat="58.86465" lon="23.04277">
        <ele>7.676796</ele>
        <time>2020-10-06T21:19:37.021Z</time>
      </trkpt>
      <trkpt lat="58.86457" lon="23.04233">
        <ele>7.94961</ele>
        <time>2020-10-06T21:19:43.786Z</time>
      </trkpt>
      <trkpt lat="58.86455" lon="23.04222">
        <ele>8.019903</ele>
        <time>2020-10-06T21:19:45.540Z</time>
      </trkpt>
      <trkpt lat="58.86448" lon="23.04227">
        <ele>8.097019</ele>
        <time>2020-10-06T21:19:47.902Z</time>
      </trkpt>
      <trkpt lat="58.86429" lon="23.04125">
        <ele>8.816188</ele>
        <time>2020-10-06T21:20:03.299Z</time>
      </trkpt>
      <trkpt lat="58.86423" lon="23.04105">
        <ele>9.022599</ele>
        <time>2020-10-06T21:20:06.551Z</time>
      </trkpt>
      <trkpt lat="58.86411" lon="23.0406">
        <ele>9.464311</ele>
        <time>2020-10-06T21:20:13.561Z</time>
      </trkpt>
      <trkpt lat="58.86399" lon="23.03998">
        <ele>10.051558</ele>
        <time>2020-10-06T21:20:23.338Z</time>
      </trkpt>
      <trkpt lat="58.86387" lon="23.03935">
        <ele>10.641976</ele>
        <time>2020-10-06T21:20:34.083Z</time>
      </trkpt>
      <trkpt lat="58.86376" lon="23.03836">
        <ele>11.532216</ele>
        <time>2020-10-06T21:20:49.988Z</time>
      </trkpt>
      <trkpt lat="58.86372" lon="23.03774">
        <ele>12.023958</ele>
        <time>2020-10-06T21:20:59.701Z</time>
      </trkpt>
      <trkpt lat="58.86372" lon="23.03728">
        <ele>12.384868</ele>
        <time>2020-10-06T21:21:06.997Z</time>
      </trkpt>
      <trkpt lat="58.86372" lon="23.03685">
        <ele>12.720043</ele>
        <time>2020-10-06T21:21:13.323Z</time>
      </trkpt>
      <trkpt lat="58.86372" lon="23.03674">
        <ele>12.803447</ele>
        <time>2020-10-06T21:21:15.277Z</time>
      </trkpt>
      <trkpt lat="58.86387" lon="23.03539">
        <ele>13.883977</ele>
        <time>2020-10-06T21:21:35.302Z</time>
      </trkpt>
      <trkpt lat="58.86421" lon="23.03351">
        <ele>14.527328</ele>
        <time>2020-10-06T21:22:01.132Z</time>
      </trkpt>
      <trkpt lat="58.86428" lon="23.03339">
        <ele>14.554087</ele>
        <time>2020-10-06T21:22:03.312Z</time>
      </trkpt>
      <trkpt lat="58.86437" lon="23.03339">
        <ele>14.578674</ele>
        <time>2020-10-06T21:22:05.061Z</time>
      </trkpt>
      <trkpt lat="58.86445" lon="23.03295">
        <ele>14.64794</ele>
        <time>2020-10-06T21:22:10.785Z</time>
      </trkpt>
      <trkpt lat="58.86454" lon="23.03249">
        <ele>14.71986</ele>
        <time>2020-10-06T21:22:16.305Z</time>
      </trkpt>
      <trkpt lat="58.86496" lon="23.03021">
        <ele>14.764752</ele>
        <time>2020-10-06T21:22:43.363Z</time>
      </trkpt>
      <trkpt lat="58.86511" lon="23.0294">
        <ele>14.732932</ele>
        <time>2020-10-06T21:22:53.021Z</time>
      </trkpt>
      <trkpt lat="58.86552" lon="23.02717">
        <ele>14.890634</ele>
        <time>2020-10-06T21:23:21.124Z</time>
      </trkpt>
      <trkpt lat="58.86591" lon="23.02506">
        <ele>15.16908</ele>
        <time>2020-10-06T21:23:48.472Z</time>
      </trkpt>
      <trkpt lat="58.86579" lon="23.02467">
        <ele>15.18417</ele>
        <time>2020-10-06T21:23:57.757Z</time>
      </trkpt>
      <trkpt lat="58.86591" lon="23.02506">
        <ele>15.199261</ele>
        <time>2020-10-06T21:24:06.932Z</time>
      </trkpt>
      <trkpt lat="58.86692" lon="23.01962">
        <ele>15.022189</ele>
        <time>2020-10-06T21:25:12.333Z</time>
      </trkpt>
      <trkpt lat="58.86745" lon="23.01664">
        <ele>14.429137</ele>
        <time>2020-10-06T21:25:46.545Z</time>
      </trkpt>
      <trkpt lat="58.86758" lon="23.01479">
        <ele>14.276573</ele>
        <time>2020-10-06T21:26:06.959Z</time>
      </trkpt>
      <trkpt lat="58.86774" lon="23.00901">
        <ele>14.430122</ele>
        <time>2020-10-06T21:27:14.441Z</time>
      </trkpt>
      <trkpt lat="58.86783" lon="23.00589">
        <ele>15.095541</ele>
        <time>2020-10-06T21:27:54.028Z</time>
      </trkpt>
      <trkpt lat="58.86798" lon="23.00021">
        <ele>15.419642</ele>
        <time>2020-10-06T21:29:00.853Z</time>
      </trkpt>
      <trkpt lat="58.86789" lon="22.99829">
        <ele>15.442604</ele>
        <time>2020-10-06T21:29:22.777Z</time>
      </trkpt>
      <trkpt lat="58.86611" lon="22.98673">
        <ele>15.47186</ele>
        <time>2020-10-06T21:31:42.299Z</time>
      </trkpt>
      <trkpt lat="58.86595" lon="22.9858">
        <ele>15.467621</ele>
        <time>2020-10-06T21:31:53.462Z</time>
      </trkpt>
      <trkpt lat="58.86568" lon="22.98419">
        <ele>15.969821</ele>
        <time>2020-10-06T21:32:13.020Z</time>
      </trkpt>
      <trkpt lat="58.86556" lon="22.98319">
        <ele>16.33145</ele>
        <time>2020-10-06T21:32:26.499Z</time>
      </trkpt>
      <trkpt lat="58.86551" lon="22.9823">
        <ele>16.645579</ele>
        <time>2020-10-06T21:32:39.217Z</time>
      </trkpt>
      <trkpt lat="58.86549" lon="22.98125">
        <ele>17.363518</ele>
        <time>2020-10-06T21:32:54.984Z</time>
      </trkpt>
      <trkpt lat="58.86556" lon="22.98011">
        <ele>18.194001</ele>
        <time>2020-10-06T21:33:11.865Z</time>
      </trkpt>
      <trkpt lat="58.86569" lon="22.97921">
        <ele>18.875134</ele>
        <time>2020-10-06T21:33:25.799Z</time>
      </trkpt>
      <trkpt lat="58.86586" lon="22.97832">
        <ele>19.246302</ele>
        <time>2020-10-06T21:33:38.950Z</time>
      </trkpt>
      <trkpt lat="58.86637" lon="22.97643">
        <ele>19.399551</ele>
        <time>2020-10-06T21:34:04.129Z</time>
      </trkpt>
      <trkpt lat="58.86695" lon="22.9747">
        <ele>19.120619</ele>
        <time>2020-10-06T21:34:25.652Z</time>
      </trkpt>
      <trkpt lat="58.86749" lon="22.97301">
        <ele>18.552703</ele>
        <time>2020-10-06T21:34:46.541Z</time>
      </trkpt>
      <trkpt lat="58.86933" lon="22.96756">
        <ele>18.089017</ele>
        <time>2020-10-06T21:36:00.061Z</time>
      </trkpt>
      <trkpt lat="58.8698" lon="22.96634">
        <ele>18.12672</ele>
        <time>2020-10-06T21:36:17.814Z</time>
      </trkpt>
      <trkpt lat="58.8703" lon="22.96524">
        <ele>18.238008</ele>
        <time>2020-10-06T21:36:35.223Z</time>
      </trkpt>
      <trkpt lat="58.87108" lon="22.96374">
        <ele>18.432817</ele>
        <time>2020-10-06T21:37:00.450Z</time>
      </trkpt>
      <trkpt lat="58.87188" lon="22.96232">
        <ele>18.671292</ele>
        <time>2020-10-06T21:37:26.636Z</time>
      </trkpt>
      <trkpt lat="58.87264" lon="22.96111">
        <ele>18.115942</ele>
        <time>2020-10-06T21:37:47.537Z</time>
      </trkpt>
      <trkpt lat="58.87395" lon="22.95901">
        <ele>16.495101</ele>
        <time>2020-10-06T21:38:19.417Z</time>
      </trkpt>
      <trkpt lat="58.87492" lon="22.9572">
        <ele>15.009552</ele>
        <time>2020-10-06T21:38:45.251Z</time>
      </trkpt>
      <trkpt lat="58.87521" lon="22.95627">
        <ele>14.548</ele>
        <time>2020-10-06T21:38:56.377Z</time>
      </trkpt>
      <trkpt lat="58.87539" lon="22.95526">
        <ele>14.091377</ele>
        <time>2020-10-06T21:39:07.398Z</time>
      </trkpt>
      <trkpt lat="58.87582" lon="22.95284">
        <ele>12.947759</ele>
        <time>2020-10-06T21:39:33.621Z</time>
      </trkpt>
      <trkpt lat="58.87606" lon="22.95184">
        <ele>12.437125</ele>
        <time>2020-10-06T21:39:44.471Z</time>
      </trkpt>
      <trkpt lat="58.87639" lon="22.95089">
        <ele>12.017328</ele>
        <time>2020-10-06T21:39:55.977Z</time>
      </trkpt>
      <trkpt lat="58.87885" lon="22.94663">
        <ele>11.183433</ele>
        <time>2020-10-06T21:41:07.440Z</time>
      </trkpt>
      <trkpt lat="58.88292" lon="22.93996">
        <ele>10.148443</ele>
        <time>2020-10-06T21:43:01.720Z</time>
      </trkpt>
      <trkpt lat="58.88539" lon="22.93752">
        <ele>11.418135</ele>
        <time>2020-10-06T21:44:10.298Z</time>
      </trkpt>
      <trkpt lat="58.88879" lon="22.93456">
        <ele>12.732903</ele>
        <time>2020-10-06T21:45:38.202Z</time>
      </trkpt>
      <trkpt lat="58.88968" lon="22.9339">
        <ele>12.964225</ele>
        <time>2020-10-06T21:46:00.031Z</time>
      </trkpt>
      <trkpt lat="58.89017" lon="22.93362">
        <ele>13.058472</ele>
        <time>2020-10-06T21:46:11.643Z</time>
      </trkpt>
      <trkpt lat="58.89402" lon="22.93221">
        <ele>13.824014</ele>
        <time>2020-10-06T21:47:41.927Z</time>
      </trkpt>
      <trkpt lat="58.89674" lon="22.93194">
        <ele>14.353884</ele>
        <time>2020-10-06T21:48:45.546Z</time>
      </trkpt>
      <trkpt lat="58.89792" lon="22.9318">
        <ele>13.977917</ele>
        <time>2020-10-06T21:49:10.488Z</time>
      </trkpt>
      <trkpt lat="58.89834" lon="22.93175">
        <ele>13.843371</ele>
        <time>2020-10-06T21:49:19.204Z</time>
      </trkpt>
      <trkpt lat="58.8984" lon="22.93174">
        <ele>13.825483</ele>
        <time>2020-10-06T21:49:20.300Z</time>
      </trkpt>
      <trkpt lat="58.89903" lon="22.9316">
        <ele>13.717053</ele>
        <time>2020-10-06T21:49:33.375Z</time>
      </trkpt>
      <trkpt lat="58.91407" lon="22.92626">
        <ele>11.428414</ele>
        <time>2020-10-06T21:55:06.295Z</time>
      </trkpt>
      <trkpt lat="58.91729" lon="22.92497">
        <ele>10.334839</ele>
        <time>2020-10-06T21:56:15.610Z</time>
      </trkpt>
      <trkpt lat="58.91803" lon="22.92467">
        <ele>10.036044</ele>
        <time>2020-10-06T21:56:31.112Z</time>
      </trkpt>
      <trkpt lat="58.92162" lon="22.92282">
        <ele>8.842728</ele>
        <time>2020-10-06T21:57:49.164Z</time>
      </trkpt>
      <trkpt lat="58.92207" lon="22.92259">
        <ele>8.967893</ele>
        <time>2020-10-06T21:58:00.006Z</time>
      </trkpt>
      <trkpt lat="58.92735" lon="22.91987">
        <ele>10.546178</ele>
        <time>2020-10-06T22:00:09.057Z</time>
      </trkpt>
      <trkpt lat="58.93061" lon="22.91808">
        <ele>11.449999</ele>
        <time>2020-10-06T22:01:27.396Z</time>
      </trkpt>
      <trkpt lat="58.9311" lon="22.91764">
        <ele>11.7056</ele>
        <time>2020-10-06T22:01:40.744Z</time>
      </trkpt>
      <trkpt lat="58.93168" lon="22.91689">
        <ele>12.027863</ele>
        <time>2020-10-06T22:01:57.614Z</time>
      </trkpt>
      <trkpt lat="58.93271" lon="22.91486">
        <ele>13.256732</ele>
        <time>2020-10-06T22:02:34.370Z</time>
      </trkpt>
      <trkpt lat="58.9329" lon="22.91446">
        <ele>13.495508</ele>
        <time>2020-10-06T22:02:41.869Z</time>
      </trkpt>
      <trkpt lat="58.93464" lon="22.91107">
        <ele>16.427191</ele>
        <time>2020-10-06T22:03:52.806Z</time>
      </trkpt>
      <trkpt lat="58.93468" lon="22.91098">
        <ele>16.441538</ele>
        <time>2020-10-06T22:03:54.414Z</time>
      </trkpt>
      <trkpt lat="58.93766" lon="22.9052">
        <ele>16.988003</ele>
        <time>2020-10-06T22:05:27.075Z</time>
      </trkpt>
      <trkpt lat="58.93975" lon="22.90114">
        <ele>16.911582</ele>
        <time>2020-10-06T22:06:32.067Z</time>
      </trkpt>
      <trkpt lat="58.94057" lon="22.89951">
        <ele>17.157127</ele>
        <time>2020-10-06T22:07:00.487Z</time>
      </trkpt>
      <trkpt lat="58.9449" lon="22.89096">
        <ele>16.720559</ele>
        <time>2020-10-06T22:09:15.711Z</time>
      </trkpt>
      <trkpt lat="58.94622" lon="22.88828">
        <ele>16.725153</ele>
        <time>2020-10-06T22:09:59.479Z</time>
      </trkpt>
      <trkpt lat="58.9477" lon="22.88525">
        <ele>16.437319</ele>
        <time>2020-10-06T22:10:45.679Z</time>
      </trkpt>
      <trkpt lat="58.95181" lon="22.87735">
        <ele>15.470213</ele>
        <time>2020-10-06T22:12:51.717Z</time>
      </trkpt>
      <trkpt lat="58.95262" lon="22.87575">
        <ele>14.831761</ele>
        <time>2020-10-06T22:13:15.287Z</time>
      </trkpt>
      <trkpt lat="58.95292" lon="22.87491">
        <ele>14.516351</ele>
        <time>2020-10-06T22:13:25.788Z</time>
      </trkpt>
      <trkpt lat="58.95465" lon="22.86941">
        <ele>12.652182</ele>
        <time>2020-10-06T22:14:33.251Z</time>
      </trkpt>
      <trkpt lat="58.95581" lon="22.8657">
        <ele>12.174814</ele>
        <time>2020-10-06T22:15:21.324Z</time>
      </trkpt>
      <trkpt lat="58.9564" lon="22.86385">
        <ele>13.176392</ele>
        <time>2020-10-06T22:15:48.526Z</time>
      </trkpt>
      <trkpt lat="58.95914" lon="22.85509">
        <ele>21.844117</ele>
        <time>2020-10-06T22:18:25.371Z</time>
      </trkpt>
      <trkpt lat="58.96134" lon="22.8477">
        <ele>25.675148</ele>
        <time>2020-10-06T22:20:18.355Z</time>
      </trkpt>
      <trkpt lat="58.96185" lon="22.84616">
        <ele>25.518452</ele>
        <time>2020-10-06T22:20:38.113Z</time>
      </trkpt>
      <trkpt lat="58.96253" lon="22.84409">
        <ele>25.318315</ele>
        <time>2020-10-06T22:21:04.510Z</time>
      </trkpt>
      <trkpt lat="58.96322" lon="22.84197">
        <ele>25.448451</ele>
        <time>2020-10-06T22:21:34.633Z</time>
      </trkpt>
      <trkpt lat="58.96373" lon="22.84038">
        <ele>25.666956</ele>
        <time>2020-10-06T22:21:57.368Z</time>
      </trkpt>
      <trkpt lat="58.96429" lon="22.8386">
        <ele>25.948091</ele>
        <time>2020-10-06T22:22:22.215Z</time>
      </trkpt>
      <trkpt lat="58.96517" lon="22.83604">
        <ele>26.529398</ele>
        <time>2020-10-06T22:22:59.956Z</time>
      </trkpt>
      <trkpt lat="58.96555" lon="22.83519">
        <ele>26.670946</ele>
        <time>2020-10-06T22:23:13.855Z</time>
      </trkpt>
      <trkpt lat="58.96606" lon="22.83403">
        <ele>26.833742</ele>
        <time>2020-10-06T22:23:32.469Z</time>
      </trkpt>
      <trkpt lat="58.96842" lon="22.83004">
        <ele>26.77191</ele>
        <time>2020-10-06T22:24:41.256Z</time>
      </trkpt>
      <trkpt lat="58.97079" lon="22.82608">
        <ele>26.346203</ele>
        <time>2020-10-06T22:25:49.558Z</time>
      </trkpt>
      <trkpt lat="58.97083" lon="22.82602">
        <ele>26.331934</ele>
        <time>2020-10-06T22:25:50.710Z</time>
      </trkpt>
      <trkpt lat="58.97114" lon="22.82551">
        <ele>26.217427</ele>
        <time>2020-10-06T22:25:59.306Z</time>
      </trkpt>
      <trkpt lat="58.97199" lon="22.82406">
        <ele>25.924386</ele>
        <time>2020-10-06T22:26:22.851Z</time>
      </trkpt>
      <trkpt lat="58.97312" lon="22.82217">
        <ele>26.097905</ele>
        <time>2020-10-06T22:26:56.377Z</time>
      </trkpt>
      <trkpt lat="58.97388" lon="22.82093">
        <ele>26.816061</ele>
        <time>2020-10-06T22:27:21.765Z</time>
      </trkpt>
      <trkpt lat="58.97554" lon="22.81802">
        <ele>28.399647</ele>
        <time>2020-10-06T22:28:20.967Z</time>
      </trkpt>
      <trkpt lat="58.97635" lon="22.81616">
        <ele>28.156182</ele>
        <time>2020-10-06T22:28:47.297Z</time>
      </trkpt>
      <trkpt lat="58.97662" lon="22.81553">
        <ele>27.789459</ele>
        <time>2020-10-06T22:28:55.507Z</time>
      </trkpt>
      <trkpt lat="58.97772" lon="22.81299">
        <ele>26.242671</ele>
        <time>2020-10-06T22:29:27.555Z</time>
      </trkpt>
      <trkpt lat="58.97799" lon="22.8124">
        <ele>25.86238</ele>
        <time>2020-10-06T22:29:35.826Z</time>
      </trkpt>
      <trkpt lat="58.97829" lon="22.8119">
        <ele>25.490858</ele>
        <time>2020-10-06T22:29:44.007Z</time>
      </trkpt>
      <trkpt lat="58.9792" lon="22.81099">
        <ele>25.426632</ele>
        <time>2020-10-06T22:30:05.816Z</time>
      </trkpt>
      <trkpt lat="58.97953" lon="22.81063">
        <ele>25.405069</ele>
        <time>2020-10-06T22:30:14.748Z</time>
      </trkpt>
      <trkpt lat="58.97989" lon="22.81025">
        <ele>25.38234</ele>
        <time>2020-10-06T22:30:24.366Z</time>
      </trkpt>
      <trkpt lat="58.98088" lon="22.80892">
        <ele>25.659066</ele>
        <time>2020-10-06T22:30:52.192Z</time>
      </trkpt>
      <trkpt lat="58.98156" lon="22.80775">
        <ele>25.867791</ele>
        <time>2020-10-06T22:31:13.476Z</time>
      </trkpt>
      <trkpt lat="58.98208" lon="22.80678">
        <ele>26.03279</ele>
        <time>2020-10-06T22:31:30.377Z</time>
      </trkpt>
      <trkpt lat="58.98692" lon="22.79517">
        <ele>27.009577</ele>
        <time>2020-10-06T22:34:26.181Z</time>
      </trkpt>
      <trkpt lat="58.98715" lon="22.79461">
        <ele>26.94919</ele>
        <time>2020-10-06T22:34:34.147Z</time>
      </trkpt>
      <trkpt lat="58.98865" lon="22.79097">
        <ele>24.642061</ele>
        <time>2020-10-06T22:35:22.710Z</time>
      </trkpt>
      <trkpt lat="58.98921" lon="22.78956">
        <ele>22.947188</ele>
        <time>2020-10-06T22:35:38.321Z</time>
      </trkpt>
      <trkpt lat="58.98941" lon="22.78879">
        <ele>21.858791</ele>
        <time>2020-10-06T22:35:45.597Z</time>
      </trkpt>
      <trkpt lat="58.98948" lon="22.78839">
        <ele>21.249019</ele>
        <time>2020-10-06T22:35:49.323Z</time>
      </trkpt>
      <trkpt lat="58.98954" lon="22.78792">
        <ele>20.54326</ele>
        <time>2020-10-06T22:35:53.413Z</time>
      </trkpt>
      <trkpt lat="58.98957" lon="22.78718">
        <ele>19.451441</ele>
        <time>2020-10-06T22:35:59.732Z</time>
      </trkpt>
      <trkpt lat="58.98956" lon="22.78674">
        <ele>18.801783</ele>
        <time>2020-10-06T22:36:03.391Z</time>
      </trkpt>
      <trkpt lat="58.98962" lon="22.78671">
        <ele>18.62375</ele>
        <time>2020-10-06T22:36:04.672Z</time>
      </trkpt>
      <trkpt lat="58.98983" lon="22.78642">
        <ele>17.881834</ele>
        <time>2020-10-06T22:36:09.506Z</time>
      </trkpt>
      <trkpt lat="58.99001" lon="22.78615">
        <ele>17.506146</ele>
        <time>2020-10-06T22:36:13.820Z</time>
      </trkpt>
      <trkpt lat="58.98982" lon="22.78476">
        <ele>17.247665</ele>
        <time>2020-10-06T22:36:27.205Z</time>
      </trkpt>
      <trkpt lat="58.98834" lon="22.77754">
        <ele>16.121311</ele>
        <time>2020-10-06T22:37:59.471Z</time>
      </trkpt>
      <trkpt lat="58.98794" lon="22.77326">
        <ele>14.576348</ele>
        <time>2020-10-06T22:38:44.103Z</time>
      </trkpt>
      <trkpt lat="58.98789" lon="22.77215">
        <ele>13.798052</ele>
        <time>2020-10-06T22:38:54.500Z</time>
      </trkpt>
      <trkpt lat="58.98794" lon="22.77122">
        <ele>13.087721</ele>
        <time>2020-10-06T22:39:03.234Z</time>
      </trkpt>
      <trkpt lat="58.98805" lon="22.77031">
        <ele>12.375192</ele>
        <time>2020-10-06T22:39:12.040Z</time>
      </trkpt>
      <trkpt lat="58.98816" lon="22.76983">
        <ele>11.968938</ele>
        <time>2020-10-06T22:39:17.269Z</time>
      </trkpt>
      <trkpt lat="58.98819" lon="22.76937">
        <ele>11.674886</ele>
        <time>2020-10-06T22:39:21.915Z</time>
      </trkpt>
      <trkpt lat="58.98883" lon="22.76604">
        <ele>9.901128</ele>
        <time>2020-10-06T22:39:58.950Z</time>
      </trkpt>
      <trkpt lat="58.98896" lon="22.76534">
        <ele>9.810327</ele>
        <time>2020-10-06T22:40:07.250Z</time>
      </trkpt>
      <trkpt lat="58.98914" lon="22.76435">
        <ele>9.683935</ele>
        <time>2020-10-06T22:40:19.203Z</time>
      </trkpt>
      <trkpt lat="58.98916" lon="22.76428">
        <ele>9.673805</ele>
        <time>2020-10-06T22:40:20.115Z</time>
      </trkpt>
      <trkpt lat="58.98916" lon="22.76425">
        <ele>9.67044</ele>
        <time>2020-10-06T22:40:20.448Z</time>
      </trkpt>
      <trkpt lat="58.98947" lon="22.76258">
        <ele>9.688176</ele>
        <time>2020-10-06T22:40:42.498Z</time>
      </trkpt>
      <trkpt lat="58.98975" lon="22.76102">
        <ele>10.240394</ele>
        <time>2020-10-06T22:41:04.817Z</time>
      </trkpt>
      <trkpt lat="58.98983" lon="22.76059">
        <ele>10.394015</ele>
        <time>2020-10-06T22:41:10.845Z</time>
      </trkpt>
      <trkpt lat="58.98988" lon="22.76042">
        <ele>10.461905</ele>
        <time>2020-10-06T22:41:13.872Z</time>
      </trkpt>
      <trkpt lat="58.98997" lon="22.75997">
        <ele>10.620315</ele>
        <time>2020-10-06T22:41:20.192Z</time>
      </trkpt>
      <trkpt lat="58.98998" lon="22.75978">
        <ele>10.685056</ele>
        <time>2020-10-06T22:41:23.149Z</time>
      </trkpt>
      <trkpt lat="58.99005" lon="22.75929">
        <ele>10.78605</ele>
        <time>2020-10-06T22:41:29.718Z</time>
      </trkpt>
      <trkpt lat="58.99029" lon="22.75811">
        <ele>11.035969</ele>
        <time>2020-10-06T22:41:45.798Z</time>
      </trkpt>
      <trkpt lat="58.99061" lon="22.75699">
        <ele>11.291137</ele>
        <time>2020-10-06T22:42:01.152Z</time>
      </trkpt>
      <trkpt lat="58.99106" lon="22.75552">
        <ele>11.098174</ele>
        <time>2020-10-06T22:42:20.015Z</time>
      </trkpt>
      <trkpt lat="58.99162" lon="22.75363">
        <ele>10.624824</ele>
        <time>2020-10-06T22:42:43.071Z</time>
      </trkpt>
      <trkpt lat="58.99164" lon="22.75357">
        <ele>10.610344</ele>
        <time>2020-10-06T22:42:43.771Z</time>
      </trkpt>
      <trkpt lat="58.99188" lon="22.75296">
        <ele>10.450848</ele>
        <time>2020-10-06T22:42:51.794Z</time>
      </trkpt>
      <trkpt lat="58.99192" lon="22.75275">
        <ele>10.405064</ele>
        <time>2020-10-06T22:42:54.161Z</time>
      </trkpt>
      <trkpt lat="58.99219" lon="22.75207">
        <ele>10.225301</ele>
        <time>2020-10-06T22:43:03.302Z</time>
      </trkpt>
      <trkpt lat="58.99242" lon="22.75147">
        <ele>10.069475</ele>
        <time>2020-10-06T22:43:11.237Z</time>
      </trkpt>
      <trkpt lat="58.99245" lon="22.75133">
        <ele>10.037609</ele>
        <time>2020-10-06T22:43:12.808Z</time>
      </trkpt>
      <trkpt lat="58.99301" lon="22.74989">
        <ele>10.042013</ele>
        <time>2020-10-06T22:43:33.271Z</time>
      </trkpt>
      <trkpt lat="58.99339" lon="22.74899">
        <ele>10.201571</ele>
        <time>2020-10-06T22:43:47.249Z</time>
      </trkpt>
      <trkpt lat="58.99351" lon="22.74867">
        <ele>10.25505</ele>
        <time>2020-10-06T22:43:52.438Z</time>
      </trkpt>
      <trkpt lat="58.99379" lon="22.7479">
        <ele>10.383859</ele>
        <time>2020-10-06T22:44:04.191Z</time>
      </trkpt>
      <trkpt lat="58.99402" lon="22.74698">
        <ele>10.536961</ele>
        <time>2020-10-06T22:44:17.543Z</time>
      </trkpt>
      <trkpt lat="58.99419" lon="22.74662">
        <ele>10.610127</ele>
        <time>2020-10-06T22:44:23.394Z</time>
      </trkpt>
      <trkpt lat="58.99418" lon="22.74655">
        <ele>10.620326</ele>
        <time>2020-10-06T22:44:24.478Z</time>
      </trkpt>
      <trkpt lat="58.99417" lon="22.74648">
        <ele>10.631752</ele>
        <time>2020-10-06T22:44:25.409Z</time>
      </trkpt>
      <trkpt lat="58.99416" lon="22.74642">
        <ele>10.640973</ele>
        <time>2020-10-06T22:44:26.156Z</time>
      </trkpt>
      <trkpt lat="58.99414" lon="22.74639">
        <ele>10.648758</ele>
        <time>2020-10-06T22:44:26.794Z</time>
      </trkpt>
      <trkpt lat="58.99409" lon="22.74635">
        <ele>10.664006</ele>
        <time>2020-10-06T22:44:28.029Z</time>
      </trkpt>
      <trkpt lat="58.99408" lon="22.74629">
        <ele>10.673087</ele>
        <time>2020-10-06T22:44:28.715Z</time>
      </trkpt>
      <trkpt lat="58.99407" lon="22.74627">
        <ele>10.677474</ele>
        <time>2020-10-06T22:44:29.079Z</time>
      </trkpt>
      <trkpt lat="58.99419" lon="22.74426">
        <ele>10.844647</ele>
        <time>2020-10-06T22:44:52.178Z</time>
      </trkpt>
      <trkpt lat="58.99419" lon="22.74424">
        <ele>10.842992</ele>
        <time>2020-10-06T22:44:52.418Z</time>
      </trkpt>
      <trkpt lat="58.99414" lon="22.74374">
        <ele>10.805744</ele>
        <time>2020-10-06T22:44:58.117Z</time>
      </trkpt>
      <trkpt lat="58.994" lon="22.74276">
        <ele>10.730336</ele>
        <time>2020-10-06T22:45:09.237Z</time>
      </trkpt>
      <trkpt lat="58.99386" lon="22.74198">
        <ele>10.668886</ele>
        <time>2020-10-06T22:45:18.384Z</time>
      </trkpt>
      <trkpt lat="58.99376" lon="22.74028">
        <ele>10.668571</ele>
        <time>2020-10-06T22:45:37.877Z</time>
      </trkpt>
      <trkpt lat="58.99365" lon="22.73723">
        <ele>10.728859</ele>
        <time>2020-10-06T22:46:13.882Z</time>
      </trkpt>
      <trkpt lat="58.99362" lon="22.73659">
        <ele>10.718248</ele>
        <time>2020-10-06T22:46:21.369Z</time>
      </trkpt>
      <trkpt lat="58.9936" lon="22.73566">
        <ele>10.703023</ele>
        <time>2020-10-06T22:46:31.912Z</time>
      </trkpt>
      <trkpt lat="58.99361" lon="22.73459">
        <ele>10.685381</ele>
        <time>2020-10-06T22:46:44.019Z</time>
      </trkpt>
      <trkpt lat="58.99363" lon="22.73445">
        <ele>10.68413</ele>
        <time>2020-10-06T22:46:45.498Z</time>
      </trkpt>
      <trkpt lat="58.99359" lon="22.73427">
        <ele>10.684697</ele>
        <time>2020-10-06T22:46:47.619Z</time>
      </trkpt>
      <trkpt lat="58.99368" lon="22.7332">
        <ele>10.687896</ele>
        <time>2020-10-06T22:46:59.725Z</time>
      </trkpt>
      <trkpt lat="58.99391" lon="22.73226">
        <ele>10.690989</ele>
        <time>2020-10-06T22:47:11.468Z</time>
      </trkpt>
      <trkpt lat="58.99409" lon="22.73109">
        <ele>10.725737</ele>
        <time>2020-10-06T22:47:26.021Z</time>
      </trkpt>
      <trkpt lat="58.99422" lon="22.73014">
        <ele>11.037744</ele>
        <time>2020-10-06T22:47:38.467Z</time>
      </trkpt>
      <trkpt lat="58.99432" lon="22.72918">
        <ele>11.347731</ele>
        <time>2020-10-06T22:47:51.200Z</time>
      </trkpt>
      <trkpt lat="58.99435" lon="22.72852">
        <ele>11.555237</ele>
        <time>2020-10-06T22:47:59.845Z</time>
      </trkpt>
      <trkpt lat="58.99443" lon="22.72615">
        <ele>12.028483</ele>
        <time>2020-10-06T22:48:30.911Z</time>
      </trkpt>
      <trkpt lat="58.9948" lon="22.72255">
        <ele>12.394804</ele>
        <time>2020-10-06T22:49:12.290Z</time>
      </trkpt>
      <trkpt lat="58.99495" lon="22.72111">
        <ele>12.474561</ele>
        <time>2020-10-06T22:49:29.657Z</time>
      </trkpt>
      <trkpt lat="58.99489" lon="22.72108">
        <ele>12.480785</ele>
        <time>2020-10-06T22:49:31.864Z</time>
      </trkpt>
      <trkpt lat="58.995" lon="22.72027">
        <ele>12.730173</ele>
        <time>2020-10-06T22:49:42.275Z</time>
      </trkpt>
      <trkpt lat="58.99513" lon="22.71936">
        <ele>13.052899</ele>
        <time>2020-10-06T22:49:54.245Z</time>
      </trkpt>
      <trkpt lat="58.99517" lon="22.71907">
        <ele>13.15595</ele>
        <time>2020-10-06T22:49:58.182Z</time>
      </trkpt>
      <trkpt lat="58.99548" lon="22.7176">
        <ele>13.692202</ele>
        <time>2020-10-06T22:50:19.694Z</time>
      </trkpt>
      <trkpt lat="58.99595" lon="22.71565">
        <ele>14.104845</ele>
        <time>2020-10-06T22:50:46.676Z</time>
      </trkpt>
      <trkpt lat="58.99634" lon="22.71389">
        <ele>14.418299</ele>
        <time>2020-10-06T22:51:08.664Z</time>
      </trkpt>
      <trkpt lat="58.99669" lon="22.71231">
        <ele>14.594067</ele>
        <time>2020-10-06T22:51:29.099Z</time>
      </trkpt>
      <trkpt lat="58.99694" lon="22.71115">
        <ele>14.734245</ele>
        <time>2020-10-06T22:51:44.524Z</time>
      </trkpt>
      <trkpt lat="58.99702" lon="22.71077">
        <ele>14.812228</ele>
        <time>2020-10-06T22:51:49.629Z</time>
      </trkpt>
      <trkpt lat="58.99757" lon="22.7088">
        <ele>15.241132</ele>
        <time>2020-10-06T22:52:17.294Z</time>
      </trkpt>
      <trkpt lat="58.99765" lon="22.70895">
        <ele>15.283914</ele>
        <time>2020-10-06T22:52:21.748Z</time>
      </trkpt>
      <trkpt lat="58.99797" lon="22.70796">
        <ele>15.382678</ele>
        <time>2020-10-06T22:52:35.587Z</time>
      </trkpt>
      <trkpt lat="58.99804" lon="22.70753">
        <ele>15.385176</ele>
        <time>2020-10-06T22:52:40.857Z</time>
      </trkpt>
      <trkpt lat="58.99868" lon="22.70552">
        <ele>15.398144</ele>
        <time>2020-10-06T22:53:07.611Z</time>
      </trkpt>
      <trkpt lat="58.99993" lon="22.70183">
        <ele>15.163109</ele>
        <time>2020-10-06T22:53:57.514Z</time>
      </trkpt>
      <trkpt lat="59.00332" lon="22.69208">
        <ele>14.27121</ele>
        <time>2020-10-06T22:56:08.745Z</time>
      </trkpt>
      <trkpt lat="59.00422" lon="22.6898">
        <ele>14.352591</ele>
        <time>2020-10-06T22:56:41.998Z</time>
      </trkpt>
      <trkpt lat="59.00561" lon="22.68683">
        <ele>14.845389</ele>
        <time>2020-10-06T22:57:30.875Z</time>
      </trkpt>
      <trkpt lat="59.00732" lon="22.68368">
        <ele>15.272904</ele>
        <time>2020-10-06T22:58:25.249Z</time>
      </trkpt>
      <trkpt lat="59.00929" lon="22.68048">
        <ele>14.746499</ele>
        <time>2020-10-06T22:59:20.560Z</time>
      </trkpt>
      <trkpt lat="59.00959" lon="22.67972">
        <ele>14.59592</ele>
        <time>2020-10-06T22:59:30.668Z</time>
      </trkpt>
      <trkpt lat="59.01016" lon="22.67825">
        <ele>14.487751</ele>
        <time>2020-10-06T22:59:50.498Z</time>
      </trkpt>
      <trkpt lat="59.01064" lon="22.67485">
        <ele>15.390773</ele>
        <time>2020-10-06T23:00:35.039Z</time>
      </trkpt>
      <trkpt lat="59.01077" lon="22.67259">
        <ele>16.597908</ele>
        <time>2020-10-06T23:01:06.444Z</time>
      </trkpt>
      <trkpt lat="59.01084" lon="22.67135">
        <ele>17.205013</ele>
        <time>2020-10-06T23:01:24.126Z</time>
      </trkpt>
      <trkpt lat="59.01086" lon="22.66881">
        <ele>18.305903</ele>
        <time>2020-10-06T23:01:57.732Z</time>
      </trkpt>
      <trkpt lat="59.01057" lon="22.65505">
        <ele>20.453916</ele>
        <time>2020-10-06T23:04:43.812Z</time>
      </trkpt>
      <trkpt lat="59.01034" lon="22.64554">
        <ele>22.894411</ele>
        <time>2020-10-06T23:06:41.500Z</time>
      </trkpt>
      <trkpt lat="59.01022" lon="22.63993">
        <ele>26.053841</ele>
        <time>2020-10-06T23:08:01.347Z</time>
      </trkpt>
      <trkpt lat="59.01017" lon="22.63765">
        <ele>26.865942</ele>
        <time>2020-10-06T23:08:30.613Z</time>
      </trkpt>
      <trkpt lat="59.01011" lon="22.63477">
        <ele>27.095109</ele>
        <time>2020-10-06T23:09:04.460Z</time>
      </trkpt>
      <trkpt lat="59.00994" lon="22.63309">
        <ele>26.963672</ele>
        <time>2020-10-06T23:09:23.480Z</time>
      </trkpt>
      <trkpt lat="59.00922" lon="22.62851">
        <ele>25.522492</ele>
        <time>2020-10-06T23:10:13.329Z</time>
      </trkpt>
      <trkpt lat="59.00829" lon="22.62261">
        <ele>23.580053</ele>
        <time>2020-10-06T23:11:17.902Z</time>
      </trkpt>
      <trkpt lat="59.00781" lon="22.61955">
        <ele>22.622798</ele>
        <time>2020-10-06T23:11:51.317Z</time>
      </trkpt>
      <trkpt lat="59.00777" lon="22.61936">
        <ele>22.583336</ele>
        <time>2020-10-06T23:11:53.359Z</time>
      </trkpt>
      <trkpt lat="59.0077" lon="22.61907">
        <ele>22.522689</ele>
        <time>2020-10-06T23:11:57.070Z</time>
      </trkpt>
      <trkpt lat="59.00761" lon="22.61838">
        <ele>22.388271</ele>
        <time>2020-10-06T23:12:04.788Z</time>
      </trkpt>
      <trkpt lat="59.00755" lon="22.61766">
        <ele>22.249257</ele>
        <time>2020-10-06T23:12:12.868Z</time>
      </trkpt>
      <trkpt lat="59.00742" lon="22.61787">
        <ele>22.189051</ele>
        <time>2020-10-06T23:12:16.199Z</time>
      </trkpt>
      <trkpt lat="59.00687" lon="22.61438">
        <ele>21.749053</ele>
        <time>2020-10-06T23:12:56.854Z</time>
      </trkpt>
      <trkpt lat="59.00609" lon="22.60944">
        <ele>20.920895</ele>
        <time>2020-10-06T23:13:52.935Z</time>
      </trkpt>
      <trkpt lat="59.00596" lon="22.60859">
        <ele>20.782846</ele>
        <time>2020-10-06T23:14:02.607Z</time>
      </trkpt>
      <trkpt lat="59.00426" lon="22.59773">
        <ele>19.464816</ele>
        <time>2020-10-06T23:16:08.886Z</time>
      </trkpt>
      <trkpt lat="59.00294" lon="22.5893">
        <ele>16.496569</ele>
        <time>2020-10-06T23:17:40.992Z</time>
      </trkpt>
      <trkpt lat="59.00287" lon="22.58889">
        <ele>16.263941</ele>
        <time>2020-10-06T23:17:45.309Z</time>
      </trkpt>
      <trkpt lat="59.00252" lon="22.58659">
        <ele>14.920568</ele>
        <time>2020-10-06T23:18:08.136Z</time>
      </trkpt>
      <trkpt lat="59.0023" lon="22.58521">
        <ele>14.059383</ele>
        <time>2020-10-06T23:18:22.103Z</time>
      </trkpt>
      <trkpt lat="59.00224" lon="22.58465">
        <ele>13.710638</ele>
        <time>2020-10-06T23:18:27.821Z</time>
      </trkpt>
      <trkpt lat="59.00221" lon="22.58365">
        <ele>13.199299</ele>
        <time>2020-10-06T23:18:38.033Z</time>
      </trkpt>
      <trkpt lat="59.00224" lon="22.58266">
        <ele>13.018577</ele>
        <time>2020-10-06T23:18:48.246Z</time>
      </trkpt>
      <trkpt lat="59.00237" lon="22.58151">
        <ele>12.805709</ele>
        <time>2020-10-06T23:19:01.552Z</time>
      </trkpt>
      <trkpt lat="59.00283" lon="22.57801">
        <ele>12.301677</ele>
        <time>2020-10-06T23:19:41.906Z</time>
      </trkpt>
      <trkpt lat="59.00357" lon="22.57246">
        <ele>11.369459</ele>
        <time>2020-10-06T23:20:43.755Z</time>
      </trkpt>
      <trkpt lat="59.00374" lon="22.57066">
        <ele>11.226897</ele>
        <time>2020-10-06T23:21:04.300Z</time>
      </trkpt>
      <trkpt lat="59.00379" lon="22.57018">
        <ele>11.212511</ele>
        <time>2020-10-06T23:21:10.117Z</time>
      </trkpt>
      <trkpt lat="59.00394" lon="22.56822">
        <ele>11.684755</ele>
        <time>2020-10-06T23:21:34.504Z</time>
      </trkpt>
      <trkpt lat="59.00406" lon="22.56553">
        <ele>12.302329</ele>
        <time>2020-10-06T23:22:09.406Z</time>
      </trkpt>
      <trkpt lat="59.0041" lon="22.56288">
        <ele>12.776282</ele>
        <time>2020-10-06T23:22:41.563Z</time>
      </trkpt>
      <trkpt lat="59.00407" lon="22.56037">
        <ele>12.705663</ele>
        <time>2020-10-06T23:23:10.036Z</time>
      </trkpt>
      <trkpt lat="59.00396" lon="22.5578">
        <ele>12.321796</ele>
        <time>2020-10-06T23:23:38.153Z</time>
      </trkpt>
      <trkpt lat="59.0038" lon="22.5556">
        <ele>11.794429</ele>
        <time>2020-10-06T23:24:01.922Z</time>
      </trkpt>
      <trkpt lat="59.00364" lon="22.55385">
        <ele>11.188049</ele>
        <time>2020-10-06T23:24:20.388Z</time>
      </trkpt>
      <trkpt lat="59.0033" lon="22.55125">
        <ele>10.212173</ele>
        <time>2020-10-06T23:24:47.520Z</time>
      </trkpt>
      <trkpt lat="59.00307" lon="22.54978">
        <ele>9.632492</ele>
        <time>2020-10-06T23:25:03.381Z</time>
      </trkpt>
      <trkpt lat="59.00277" lon="22.54787">
        <ele>9.277318</ele>
        <time>2020-10-06T23:25:25.118Z</time>
      </trkpt>
      <trkpt lat="59.00249" lon="22.54628">
        <ele>9.023366</ele>
        <time>2020-10-06T23:25:44.146Z</time>
      </trkpt>
      <trkpt lat="59.00123" lon="22.53947">
        <ele>7.419831</ele>
        <time>2020-10-06T23:27:01.602Z</time>
      </trkpt>
      <trkpt lat="59.00015" lon="22.53538">
        <ele>6.468402</ele>
        <time>2020-10-06T23:27:51.129Z</time>
      </trkpt>
      <trkpt lat="58.99999" lon="22.5349">
        <ele>6.345671</ele>
        <time>2020-10-06T23:27:57.111Z</time>
      </trkpt>
      <trkpt lat="58.9993" lon="22.53285">
        <ele>6.051718</ele>
        <time>2020-10-06T23:28:23.458Z</time>
      </trkpt>
      <trkpt lat="58.99876" lon="22.53171">
        <ele>6.158369</ele>
        <time>2020-10-06T23:28:41.259Z</time>
      </trkpt>
      <trkpt lat="58.99795" lon="22.53048">
        <ele>6.647165</ele>
        <time>2020-10-06T23:29:06.893Z</time>
      </trkpt>
      <trkpt lat="58.99736" lon="22.52968">
        <ele>7.302324</ele>
        <time>2020-10-06T23:29:25.948Z</time>
      </trkpt>
      <trkpt lat="58.99667" lon="22.52895">
        <ele>7.926794</ele>
        <time>2020-10-06T23:29:46.762Z</time>
      </trkpt>
      <trkpt lat="58.99593" lon="22.5283">
        <ele>8.190945</ele>
        <time>2020-10-06T23:30:06.948Z</time>
      </trkpt>
      <trkpt lat="58.99543" lon="22.52784">
        <ele>8.37173</ele>
        <time>2020-10-06T23:30:19.304Z</time>
      </trkpt>
      <trkpt lat="58.99508" lon="22.52732">
        <ele>8.383566</ele>
        <time>2020-10-06T23:30:28.742Z</time>
      </trkpt>
      <trkpt lat="58.99494" lon="22.52704">
        <ele>8.290214</ele>
        <time>2020-10-06T23:30:33.008Z</time>
      </trkpt>
      <trkpt lat="58.99461" lon="22.52639">
        <ele>8.076796</ele>
        <time>2020-10-06T23:30:42.524Z</time>
      </trkpt>
      <trkpt lat="58.99298" lon="22.52276">
        <ele>6.966698</ele>
        <time>2020-10-06T23:31:33.720Z</time>
      </trkpt>
      <trkpt lat="58.99278" lon="22.52234">
        <ele>6.839462</ele>
        <time>2020-10-06T23:31:39.957Z</time>
      </trkpt>
      <trkpt lat="58.9922" lon="22.52111">
        <ele>6.580193</ele>
        <time>2020-10-06T23:31:58.198Z</time>
      </trkpt>
      <trkpt lat="58.9919" lon="22.52049">
        <ele>6.448618</ele>
        <time>2020-10-06T23:32:07.458Z</time>
      </trkpt>
      <trkpt lat="58.99122" lon="22.51958">
        <ele>6.308617</ele>
        <time>2020-10-06T23:32:25.053Z</time>
      </trkpt>
      <trkpt lat="58.99107" lon="22.51939">
        <ele>6.311073</ele>
        <time>2020-10-06T23:32:28.837Z</time>
      </trkpt>
      <trkpt lat="58.99076" lon="22.51898">
        <ele>6.31633</ele>
        <time>2020-10-06T23:32:36.911Z</time>
      </trkpt>
      <trkpt lat="58.9881" lon="22.51569">
        <ele>6.96342</ele>
        <time>2020-10-06T23:33:50.550Z</time>
      </trkpt>
      <trkpt lat="58.98748" lon="22.51492">
        <ele>7.227867</ele>
        <time>2020-10-06T23:34:08.566Z</time>
      </trkpt>
      <trkpt lat="58.98606" lon="22.5135">
        <ele>7.511795</ele>
        <time>2020-10-06T23:34:45.706Z</time>
      </trkpt>
      <trkpt lat="58.98436" lon="22.51216">
        <ele>7.579298</ele>
        <time>2020-10-06T23:35:25.398Z</time>
      </trkpt>
      <trkpt lat="58.9838" lon="22.51181">
        <ele>7.586816</ele>
        <time>2020-10-06T23:35:39.239Z</time>
      </trkpt>
      <trkpt lat="58.98299" lon="22.51132">
        <ele>7.855979</ele>
        <time>2020-10-06T23:35:58.936Z</time>
      </trkpt>
      <trkpt lat="58.98302" lon="22.51108">
        <ele>7.907033</ele>
        <time>2020-10-06T23:36:02.879Z</time>
      </trkpt>
      <trkpt lat="58.9817" lon="22.51034">
        <ele>8.563109</ele>
        <time>2020-10-06T23:36:36.360Z</time>
      </trkpt>
      <trkpt lat="58.98098" lon="22.50974">
        <ele>9.094134</ele>
        <time>2020-10-06T23:36:55.291Z</time>
      </trkpt>
      <trkpt lat="58.9799" lon="22.50821">
        <ele>9.913733</ele>
        <time>2020-10-06T23:37:30.390Z</time>
      </trkpt>
      <trkpt lat="58.97948" lon="22.5074">
        <ele>10.239824</ele>
        <time>2020-10-06T23:37:45.270Z</time>
      </trkpt>
      <trkpt lat="58.97885" lon="22.50589">
        <ele>10.176964</ele>
        <time>2020-10-06T23:38:07.492Z</time>
      </trkpt>
      <trkpt lat="58.9778" lon="22.50316">
        <ele>8.808945</ele>
        <time>2020-10-06T23:38:41.375Z</time>
      </trkpt>
      <trkpt lat="58.97746" lon="22.50192">
        <ele>8.099725</ele>
        <time>2020-10-06T23:38:55.176Z</time>
      </trkpt>
      <trkpt lat="58.97736" lon="22.50135">
        <ele>7.797651</ele>
        <time>2020-10-06T23:39:01.026Z</time>
      </trkpt>
      <trkpt lat="58.97714" lon="22.49913">
        <ele>7.357524</ele>
        <time>2020-10-06T23:39:25.038Z</time>
      </trkpt>
      <trkpt lat="58.97709" lon="22.49845">
        <ele>7.305276</ele>
        <time>2020-10-06T23:39:32.913Z</time>
      </trkpt>
      <trkpt lat="58.97706" lon="22.49818">
        <ele>7.284347</ele>
        <time>2020-10-06T23:39:36.294Z</time>
      </trkpt>
      <trkpt lat="58.97696" lon="22.49702">
        <ele>7.287033</ele>
        <time>2020-10-06T23:39:50.431Z</time>
      </trkpt>
      <trkpt lat="58.97679" lon="22.49613">
        <ele>7.51938</ele>
        <time>2020-10-06T23:40:02.457Z</time>
      </trkpt>
      <trkpt lat="58.97663" lon="22.4957">
        <ele>7.651117</ele>
        <time>2020-10-06T23:40:09.341Z</time>
      </trkpt>
      <trkpt lat="58.97661" lon="22.49562">
        <ele>7.673263</ele>
        <time>2020-10-06T23:40:10.568Z</time>
      </trkpt>
      <trkpt lat="58.97648" lon="22.49518">
        <ele>7.798953</ele>
        <time>2020-10-06T23:40:17.211Z</time>
      </trkpt>
      <trkpt lat="58.97623" lon="22.49433">
        <ele>8.040016</ele>
        <time>2020-10-06T23:40:29.317Z</time>
      </trkpt>
      <trkpt lat="58.97617" lon="22.49409">
        <ele>8.075656</ele>
        <time>2020-10-06T23:40:32.614Z</time>
      </trkpt>
      <trkpt lat="58.976" lon="22.49356">
        <ele>8.065939</ele>
        <time>2020-10-06T23:40:40.083Z</time>
      </trkpt>
      <trkpt lat="58.97598" lon="22.49306">
        <ele>8.058201</ele>
        <time>2020-10-06T23:40:45.906Z</time>
      </trkpt>
      <trkpt lat="58.97592" lon="22.49286">
        <ele>8.054591</ele>
        <time>2020-10-06T23:40:48.677Z</time>
      </trkpt>
      <trkpt lat="58.97576" lon="22.49261">
        <ele>8.04836</ele>
        <time>2020-10-06T23:40:53.271Z</time>
      </trkpt>
      <trkpt lat="58.97568" lon="22.49232">
        <ele>8.043276</ele>
        <time>2020-10-06T23:40:57.039Z</time>
      </trkpt>
      <trkpt lat="58.975" lon="22.48877">
        <ele>7.691689</ele>
        <time>2020-10-06T23:41:37.906Z</time>
      </trkpt>
      <trkpt lat="58.97463" lon="22.48634">
        <ele>8.165503</ele>
        <time>2020-10-06T23:42:07.315Z</time>
      </trkpt>
      <trkpt lat="58.97452" lon="22.48508">
        <ele>8.664913</ele>
        <time>2020-10-06T23:42:24.536Z</time>
      </trkpt>
      <trkpt lat="58.97424" lon="22.48377">
        <ele>9.714762</ele>
        <time>2020-10-06T23:42:46.195Z</time>
      </trkpt>
      <trkpt lat="58.97424" lon="22.48344">
        <ele>10.063458</ele>
        <time>2020-10-06T23:42:51.636Z</time>
      </trkpt>
      <trkpt lat="58.97407" lon="22.48267">
        <ele>10.943737</ele>
        <time>2020-10-06T23:43:05.164Z</time>
      </trkpt>
      <trkpt lat="58.97405" lon="22.48211">
        <ele>11.534083</ele>
        <time>2020-10-06T23:43:14.693Z</time>
      </trkpt>
      <trkpt lat="58.97396" lon="22.48224">
        <ele>11.755088</ele>
        <time>2020-10-06T23:43:17.944Z</time>
      </trkpt>
      <trkpt lat="58.97376" lon="22.4827">
        <ele>12.395908</ele>
        <time>2020-10-06T23:43:27.603Z</time>
      </trkpt>
      <trkpt lat="58.97293" lon="22.48161">
        <ele>13.288551</ele>
        <time>2020-10-06T23:43:56.477Z</time>
      </trkpt>
      <trkpt lat="58.9713" lon="22.4796">
        <ele>13.414459</ele>
        <time>2020-10-06T23:44:37.723Z</time>
      </trkpt>
      <trkpt lat="58.96986" lon="22.47803">
        <ele>12.103689</ele>
        <time>2020-10-06T23:45:10.151Z</time>
      </trkpt>
      <trkpt lat="58.9689" lon="22.47711">
        <ele>10.939016</ele>
        <time>2020-10-06T23:45:30.733Z</time>
      </trkpt>
      <trkpt lat="58.9678" lon="22.47639">
        <ele>9.148837</ele>
        <time>2020-10-06T23:45:52.022Z</time>
      </trkpt>
      <trkpt lat="58.96733" lon="22.47621">
        <ele>8.422992</ele>
        <time>2020-10-06T23:46:00.435Z</time>
      </trkpt>
      <trkpt lat="58.96595" lon="22.4759">
        <ele>6.33605</ele>
        <time>2020-10-06T23:46:25.504Z</time>
      </trkpt>
      <trkpt lat="58.96534" lon="22.47587">
        <ele>5.711671</ele>
        <time>2020-10-06T23:46:37.358Z</time>
      </trkpt>
      <trkpt lat="58.96463" lon="22.47593">
        <ele>5.652869</ele>
        <time>2020-10-06T23:46:52.278Z</time>
      </trkpt>
      <trkpt lat="58.96247" lon="22.47662">
        <ele>6.450323</ele>
        <time>2020-10-06T23:47:45.591Z</time>
      </trkpt>
      <trkpt lat="58.96149" lon="22.47678">
        <ele>7.139137</ele>
        <time>2020-10-06T23:48:11.309Z</time>
      </trkpt>
      <trkpt lat="58.96114" lon="22.47665">
        <ele>7.402654</ele>
        <time>2020-10-06T23:48:20.541Z</time>
      </trkpt>
      <trkpt lat="58.9605" lon="22.47607">
        <ele>7.927712</ele>
        <time>2020-10-06T23:48:38.588Z</time>
      </trkpt>
      <trkpt lat="58.95959" lon="22.47457">
        <ele>8.261517</ele>
        <time>2020-10-06T23:49:06.177Z</time>
      </trkpt>
      <trkpt lat="58.95831" lon="22.47209">
        <ele>8.703374</ele>
        <time>2020-10-06T23:49:46.390Z</time>
      </trkpt>
      <trkpt lat="58.95777" lon="22.47079">
        <ele>8.994194</ele>
        <time>2020-10-06T23:50:07.942Z</time>
      </trkpt>
      <trkpt lat="58.95625" lon="22.46653">
        <ele>10.974459</ele>
        <time>2020-10-06T23:51:17.966Z</time>
      </trkpt>
      <trkpt lat="58.95602" lon="22.46515">
        <ele>11.266007</ele>
        <time>2020-10-06T23:51:34.672Z</time>
      </trkpt>
      <trkpt lat="58.95574" lon="22.46075">
        <ele>10.556609</ele>
        <time>2020-10-06T23:52:21.137Z</time>
      </trkpt>
      <trkpt lat="58.95534" lon="22.45458">
        <ele>11.564119</ele>
        <time>2020-10-06T23:53:38.891Z</time>
      </trkpt>
      <trkpt lat="58.95533" lon="22.45435">
        <ele>11.57812</ele>
        <time>2020-10-06T23:53:41.679Z</time>
      </trkpt>
      <trkpt lat="58.95501" lon="22.45093">
        <ele>11.313196</ele>
        <time>2020-10-06T23:54:20.826Z</time>
      </trkpt>
      <trkpt lat="58.95324" lon="22.43885">
        <ele>6.239512</ele>
        <time>2020-10-06T23:56:28.431Z</time>
      </trkpt>
      <trkpt lat="58.9531" lon="22.43826">
        <ele>6.024626</ele>
        <time>2020-10-06T23:56:35.356Z</time>
      </trkpt>
      <trkpt lat="58.95306" lon="22.43808">
        <ele>5.961307</ele>
        <time>2020-10-06T23:56:37.481Z</time>
      </trkpt>
      <trkpt lat="58.95234" lon="22.43512">
        <ele>5.837396</ele>
        <time>2020-10-06T23:57:14.456Z</time>
      </trkpt>
      <trkpt lat="58.95209" lon="22.43443">
        <ele>5.897904</ele>
        <time>2020-10-06T23:57:24.913Z</time>
      </trkpt>
      <trkpt lat="58.95123" lon="22.43205">
        <ele>6.741783</ele>
        <time>2020-10-06T23:58:02.506Z</time>
      </trkpt>
      <trkpt lat="58.94922" lon="22.42769">
        <ele>7.903818</ele>
        <time>2020-10-06T23:59:14.848Z</time>
      </trkpt>
      <trkpt lat="58.94881" lon="22.42702">
        <ele>8.029961</ele>
        <time>2020-10-06T23:59:26.124Z</time>
      </trkpt>
      <trkpt lat="58.94749" lon="22.42533">
        <ele>8.891251</ele>
        <time>2020-10-07T00:00:02.578Z</time>
      </trkpt>
      <trkpt lat="58.94647" lon="22.424">
        <ele>10.405233</ele>
        <time>2020-10-07T00:00:38.613Z</time>
      </trkpt>
      <trkpt lat="58.94589" lon="22.42307">
        <ele>11.608898</ele>
        <time>2020-10-07T00:01:01.375Z</time>
      </trkpt>
      <trkpt lat="58.94554" lon="22.42221">
        <ele>12.079003</ele>
        <time>2020-10-07T00:01:16.630Z</time>
      </trkpt>
      <trkpt lat="58.94521" lon="22.42137">
        <ele>12.13026</ele>
        <time>2020-10-07T00:01:29.500Z</time>
      </trkpt>
      <trkpt lat="58.94508" lon="22.42102">
        <ele>12.151481</ele>
        <time>2020-10-07T00:01:34.487Z</time>
      </trkpt>
      <trkpt lat="58.94428" lon="22.41883">
        <ele>12.030468</ele>
        <time>2020-10-07T00:02:02.351Z</time>
      </trkpt>
      <trkpt lat="58.94354" lon="22.41745">
        <ele>11.723726</ele>
        <time>2020-10-07T00:02:24.372Z</time>
      </trkpt>
      <trkpt lat="58.94179" lon="22.41483">
        <ele>12.012613</ele>
        <time>2020-10-07T00:03:15.422Z</time>
      </trkpt>
      <trkpt lat="58.94027" lon="22.41257">
        <ele>12.503148</ele>
        <time>2020-10-07T00:03:59.900Z</time>
      </trkpt>
      <trkpt lat="58.93925" lon="22.41057">
        <ele>13.072698</ele>
        <time>2020-10-07T00:04:35.428Z</time>
      </trkpt>
      <trkpt lat="58.93486" lon="22.39953">
        <ele>13.507738</ele>
        <time>2020-10-07T00:07:16.976Z</time>
      </trkpt>
      <trkpt lat="58.93447" lon="22.39863">
        <ele>13.375761</ele>
        <time>2020-10-07T00:07:30.667Z</time>
      </trkpt>
      <trkpt lat="58.93438" lon="22.39842">
        <ele>13.344824</ele>
        <time>2020-10-07T00:07:33.954Z</time>
      </trkpt>
      <trkpt lat="58.93358" lon="22.39631">
        <ele>12.869023</ele>
        <time>2020-10-07T00:08:02.075Z</time>
      </trkpt>
      <trkpt lat="58.93304" lon="22.39494">
        <ele>12.211457</ele>
        <time>2020-10-07T00:08:19.606Z</time>
      </trkpt>
      <trkpt lat="58.93239" lon="22.39295">
        <ele>11.536514</ele>
        <time>2020-10-07T00:08:43.580Z</time>
      </trkpt>
      <trkpt lat="58.93208" lon="22.39155">
        <ele>11.222531</ele>
        <time>2020-10-07T00:09:00.043Z</time>
      </trkpt>
      <trkpt lat="58.93174" lon="22.38879">
        <ele>11.679747</ele>
        <time>2020-10-07T00:09:34.833Z</time>
      </trkpt>
      <trkpt lat="58.93141" lon="22.38895">
        <ele>11.859079</ele>
        <time>2020-10-07T00:09:43.192Z</time>
      </trkpt>
      <trkpt lat="58.93033" lon="22.38972">
        <ele>12.649558</ele>
        <time>2020-10-07T00:10:13.201Z</time>
      </trkpt>
      <trkpt lat="58.92958" lon="22.39077">
        <ele>13.34775</ele>
        <time>2020-10-07T00:10:36.666Z</time>
      </trkpt>
      <trkpt lat="58.92915" lon="22.3911">
        <ele>13.47619</ele>
        <time>2020-10-07T00:10:47.797Z</time>
      </trkpt>
      <trkpt lat="58.92695" lon="22.39118">
        <ele>13.740259</ele>
        <time>2020-10-07T00:11:37.253Z</time>
      </trkpt>
      <trkpt lat="58.92664" lon="22.39112">
        <ele>13.74518</ele>
        <time>2020-10-07T00:11:44.358Z</time>
      </trkpt>
      <trkpt lat="58.9265" lon="22.39109">
        <ele>13.747389</ele>
        <time>2020-10-07T00:11:47.609Z</time>
      </trkpt>
      <trkpt lat="58.9252" lon="22.39033">
        <ele>13.65478</ele>
        <time>2020-10-07T00:12:17.388Z</time>
      </trkpt>
      <trkpt lat="58.92476" lon="22.39031">
        <ele>13.598467</ele>
        <time>2020-10-07T00:12:26.773Z</time>
      </trkpt>
      <trkpt lat="58.92333" lon="22.391">
        <ele>13.703403</ele>
        <time>2020-10-07T00:12:58.893Z</time>
      </trkpt>
      <trkpt lat="58.92242" lon="22.39164">
        <ele>13.962294</ele>
        <time>2020-10-07T00:13:22.017Z</time>
      </trkpt>
      <trkpt lat="58.92213" lon="22.39176">
        <ele>14.284107</ele>
        <time>2020-10-07T00:13:29.705Z</time>
      </trkpt>
      <trkpt lat="58.92195" lon="22.39169">
        <ele>14.477975</ele>
        <time>2020-10-07T00:13:34.616Z</time>
      </trkpt>
      <trkpt lat="58.92188" lon="22.39166">
        <ele>14.553974</ele>
        <time>2020-10-07T00:13:36.376Z</time>
      </trkpt>
      <trkpt lat="58.92149" lon="22.39151">
        <ele>14.984636</ele>
        <time>2020-10-07T00:13:46.918Z</time>
      </trkpt>
      <trkpt lat="58.92099" lon="22.39124">
        <ele>15.543695</ele>
        <time>2020-10-07T00:14:00.973Z</time>
      </trkpt>
      <trkpt lat="58.92094" lon="22.39121">
        <ele>15.605235</ele>
        <time>2020-10-07T00:14:02.769Z</time>
      </trkpt>
      <trkpt lat="58.92011" lon="22.39113">
        <ele>16.888514</ele>
        <time>2020-10-07T00:14:26.049Z</time>
      </trkpt>
      <trkpt lat="58.91902" lon="22.39131">
        <ele>18.748579</ele>
        <time>2020-10-07T00:14:58.316Z</time>
      </trkpt>
      <trkpt lat="58.91821" lon="22.39112">
        <ele>20.50737</ele>
        <time>2020-10-07T00:15:22.912Z</time>
      </trkpt>
      <trkpt lat="58.91769" lon="22.39099">
        <ele>21.675876</ele>
        <time>2020-10-07T00:15:39.256Z</time>
      </trkpt>
      <trkpt lat="58.91703" lon="22.39029">
        <ele>23.404773</ele>
        <time>2020-10-07T00:16:03.829Z</time>
      </trkpt>
      <trkpt lat="58.91646" lon="22.38944">
        <ele>25.227427</ele>
        <time>2020-10-07T00:16:27.813Z</time>
      </trkpt>
      <trkpt lat="58.9159" lon="22.38904">
        <ele>26.742622</ele>
        <time>2020-10-07T00:16:47.125Z</time>
      </trkpt>
      <trkpt lat="58.91564" lon="22.38885">
        <ele>27.412847</ele>
        <time>2020-10-07T00:16:55.888Z</time>
      </trkpt>
      <trkpt lat="58.91484" lon="22.38808">
        <ele>28.749836</ele>
        <time>2020-10-07T00:17:22.832Z</time>
      </trkpt>
      <trkpt lat="58.91403" lon="22.38778">
        <ele>29.993433</ele>
        <time>2020-10-07T00:17:44.976Z</time>
      </trkpt>
      <trkpt lat="58.91305" lon="22.38705">
        <ele>30.379513</ele>
        <time>2020-10-07T00:18:10.036Z</time>
      </trkpt>
      <trkpt lat="58.91242" lon="22.38701">
        <ele>30.568637</ele>
        <time>2020-10-07T00:18:24.327Z</time>
      </trkpt>
      <trkpt lat="58.9118" lon="22.38756">
        <ele>30.482859</ele>
        <time>2020-10-07T00:18:39.169Z</time>
      </trkpt>
      <trkpt lat="58.91075" lon="22.38936">
        <ele>30.096836</ele>
        <time>2020-10-07T00:19:08.560Z</time>
      </trkpt>
      <trkpt lat="58.90957" lon="22.39188">
        <ele>29.607719</ele>
        <time>2020-10-07T00:19:45.460Z</time>
      </trkpt>
      <trkpt lat="58.90935" lon="22.39267">
        <ele>29.952754</ele>
        <time>2020-10-07T00:19:55.980Z</time>
      </trkpt>
      <trkpt lat="58.90919" lon="22.39391">
        <ele>30.444835</ele>
        <time>2020-10-07T00:20:11.964Z</time>
      </trkpt>
      <trkpt lat="58.90903" lon="22.39457">
        <ele>30.727568</ele>
        <time>2020-10-07T00:20:22.757Z</time>
      </trkpt>
      <trkpt lat="58.90889" lon="22.39483">
        <ele>30.872313</ele>
        <time>2020-10-07T00:20:28.775Z</time>
      </trkpt>
      <trkpt lat="58.90863" lon="22.39513">
        <ele>31.289305</ele>
        <time>2020-10-07T00:20:37.937Z</time>
      </trkpt>
      <trkpt lat="58.90812" lon="22.39558">
        <ele>32.103278</ele>
        <time>2020-10-07T00:20:54.023Z</time>
      </trkpt>
      <trkpt lat="58.90801" lon="22.39554">
        <ele>32.268525</ele>
        <time>2020-10-07T00:20:57.692Z</time>
      </trkpt>
      <trkpt lat="58.90794" lon="22.39635">
        <ele>32.881126</ele>
        <time>2020-10-07T00:21:09.578Z</time>
      </trkpt>
      <trkpt lat="58.90784" lon="22.39779">
        <ele>33.514767</ele>
        <time>2020-10-07T00:21:29.464Z</time>
      </trkpt>
      <trkpt lat="58.9075" lon="22.40155">
        <ele>33.305699</ele>
        <time>2020-10-07T00:22:11.229Z</time>
      </trkpt>
      <trkpt lat="58.90726" lon="22.40286">
        <ele>32.974858</ele>
        <time>2020-10-07T00:22:25.933Z</time>
      </trkpt>
      <trkpt lat="58.90696" lon="22.40393">
        <ele>32.689669</ele>
        <time>2020-10-07T00:22:38.940Z</time>
      </trkpt>
      <trkpt lat="58.90665" lon="22.40467">
        <ele>32.50545</ele>
        <time>2020-10-07T00:22:49.324Z</time>
      </trkpt>
      <trkpt lat="58.90632" lon="22.40533">
        <ele>32.332649</ele>
        <time>2020-10-07T00:22:59.139Z</time>
      </trkpt>
      <trkpt lat="58.90053" lon="22.41561">
        <ele>29.703542</ele>
        <time>2020-10-07T00:25:45.225Z</time>
      </trkpt>
      <trkpt lat="58.89429" lon="22.42587">
        <ele>27.214823</ele>
        <time>2020-10-07T00:28:38.439Z</time>
      </trkpt>
      <trkpt lat="58.89354" lon="22.42716">
        <ele>27.056507</ele>
        <time>2020-10-07T00:29:00.182Z</time>
      </trkpt>
      <trkpt lat="58.89269" lon="22.42879">
        <ele>27.324228</ele>
        <time>2020-10-07T00:29:27.558Z</time>
      </trkpt>
      <trkpt lat="58.89206" lon="22.43023">
        <ele>27.648109</ele>
        <time>2020-10-07T00:29:51.481Z</time>
      </trkpt>
      <trkpt lat="58.89128" lon="22.43202">
        <ele>28.218949</ele>
        <time>2020-10-07T00:30:20.996Z</time>
      </trkpt>
      <trkpt lat="58.89074" lon="22.43314">
        <ele>28.244744</ele>
        <time>2020-10-07T00:30:39.459Z</time>
      </trkpt>
      <trkpt lat="58.88983" lon="22.43461">
        <ele>28.149449</ele>
        <time>2020-10-07T00:31:04.722Z</time>
      </trkpt>
      <trkpt lat="58.8878" lon="22.43685">
        <ele>27.048858</ele>
        <time>2020-10-07T00:31:53.098Z</time>
      </trkpt>
      <trkpt lat="58.88604" lon="22.43872">
        <ele>26.237563</ele>
        <time>2020-10-07T00:32:33.943Z</time>
      </trkpt>
      <trkpt lat="58.88215" lon="22.44295">
        <ele>25.668457</ele>
        <time>2020-10-07T00:34:12.550Z</time>
      </trkpt>
      <trkpt lat="58.88047" lon="22.44476">
        <ele>25.426893</ele>
        <time>2020-10-07T00:34:54.138Z</time>
      </trkpt>
      <trkpt lat="58.87841" lon="22.44715">
        <ele>25.165299</ele>
        <time>2020-10-07T00:35:47.385Z</time>
      </trkpt>
      <trkpt lat="58.87586" lon="22.45004">
        <ele>24.085179</ele>
        <time>2020-10-07T00:36:49.401Z</time>
      </trkpt>
      <trkpt lat="58.87425" lon="22.45166">
        <ele>22.673387</ele>
        <time>2020-10-07T00:37:25.067Z</time>
      </trkpt>
      <trkpt lat="58.87215" lon="22.4533">
        <ele>20.912655</ele>
        <time>2020-10-07T00:38:09.479Z</time>
      </trkpt>
      <trkpt lat="58.87121" lon="22.45411">
        <ele>20.622677</ele>
        <time>2020-10-07T00:38:31.388Z</time>
      </trkpt>
      <trkpt lat="58.87041" lon="22.45494">
        <ele>20.735678</ele>
        <time>2020-10-07T00:38:52.662Z</time>
      </trkpt>
      <trkpt lat="58.86281" lon="22.46409">
        <ele>24.106471</ele>
        <time>2020-10-07T00:42:26.809Z</time>
      </trkpt>
      <trkpt lat="58.86215" lon="22.46471">
        <ele>24.154918</ele>
        <time>2020-10-07T00:42:42.995Z</time>
      </trkpt>
      <trkpt lat="58.86182" lon="22.46483">
        <ele>24.17751</ele>
        <time>2020-10-07T00:42:50.401Z</time>
      </trkpt>
      <trkpt lat="58.86135" lon="22.46486">
        <ele>24.124487</ele>
        <time>2020-10-07T00:43:00.482Z</time>
      </trkpt>
      <trkpt lat="58.85528" lon="22.46401">
        <ele>22.117793</ele>
        <time>2020-10-07T00:45:09.854Z</time>
      </trkpt>
      <trkpt lat="58.85411" lon="22.46407">
        <ele>21.21293</ele>
        <time>2020-10-07T00:45:32.652Z</time>
      </trkpt>
      <trkpt lat="58.8528" lon="22.46443">
        <ele>19.492456</ele>
        <time>2020-10-07T00:45:57.422Z</time>
      </trkpt>
      <trkpt lat="58.85079" lon="22.46509">
        <ele>16.992253</ele>
        <time>2020-10-07T00:46:35.167Z</time>
      </trkpt>
      <trkpt lat="58.85052" lon="22.46518">
        <ele>17.004204</ele>
        <time>2020-10-07T00:46:40.572Z</time>
      </trkpt>
      <trkpt lat="58.83873" lon="22.46913">
        <ele>17.430588</ele>
        <time>2020-10-07T00:51:11.554Z</time>
      </trkpt>
      <trkpt lat="58.83734" lon="22.46945">
        <ele>17.068486</ele>
        <time>2020-10-07T00:51:40.693Z</time>
      </trkpt>
      <trkpt lat="58.83461" lon="22.46942">
        <ele>16.480463</ele>
        <time>2020-10-07T00:52:39.476Z</time>
      </trkpt>
      <trkpt lat="58.83164" lon="22.46935">
        <ele>16.567521</ele>
        <time>2020-10-07T00:53:46.006Z</time>
      </trkpt>
      <trkpt lat="58.82268" lon="22.46914">
        <ele>18.214032</ele>
        <time>2020-10-07T00:57:13.546Z</time>
      </trkpt>
      <trkpt lat="58.82205" lon="22.46928">
        <ele>18.062133</ele>
        <time>2020-10-07T00:57:26.598Z</time>
      </trkpt>
      <trkpt lat="58.81982" lon="22.47022">
        <ele>16.585119</ele>
        <time>2020-10-07T00:58:11.827Z</time>
      </trkpt>
      <trkpt lat="58.81855" lon="22.47106">
        <ele>15.965242</ele>
        <time>2020-10-07T00:58:40.020Z</time>
      </trkpt>
      <trkpt lat="58.81764" lon="22.4719">
        <ele>15.810501</ele>
        <time>2020-10-07T00:59:01.695Z</time>
      </trkpt>
      <trkpt lat="58.81665" lon="22.47295">
        <ele>16.075151</ele>
        <time>2020-10-07T00:59:27.355Z</time>
      </trkpt>
      <trkpt lat="58.81402" lon="22.47601">
        <ele>17.971949</ele>
        <time>2020-10-07T01:00:45.699Z</time>
      </trkpt>
      <trkpt lat="58.81224" lon="22.4779">
        <ele>17.27264</ele>
        <time>2020-10-07T01:01:27.728Z</time>
      </trkpt>
      <trkpt lat="58.81098" lon="22.4793">
        <ele>16.513886</ele>
        <time>2020-10-07T01:01:56.924Z</time>
      </trkpt>
      <trkpt lat="58.81074" lon="22.47958">
        <ele>16.611947</ele>
        <time>2020-10-07T01:02:02.783Z</time>
      </trkpt>
      <trkpt lat="58.80748" lon="22.48349">
        <ele>19.103885</ele>
        <time>2020-10-07T01:03:40.253Z</time>
      </trkpt>
      <trkpt lat="58.80689" lon="22.48396">
        <ele>19.485595</ele>
        <time>2020-10-07T01:03:56.347Z</time>
      </trkpt>
      <trkpt lat="58.80628" lon="22.48423">
        <ele>19.85677</ele>
        <time>2020-10-07T01:04:11.543Z</time>
      </trkpt>
      <trkpt lat="58.80331" lon="22.48476">
        <ele>19.818186</ele>
        <time>2020-10-07T01:05:18.813Z</time>
      </trkpt>
      <trkpt lat="58.79894" lon="22.48548">
        <ele>16.571633</ele>
        <time>2020-10-07T01:06:45.439Z</time>
      </trkpt>
      <trkpt lat="58.79812" lon="22.48554">
        <ele>15.876566</ele>
        <time>2020-10-07T01:07:01.375Z</time>
      </trkpt>
      <trkpt lat="58.79601" lon="22.48522">
        <ele>14.562078</ele>
        <time>2020-10-07T01:07:43.747Z</time>
      </trkpt>
      <trkpt lat="58.79592" lon="22.48517">
        <ele>14.518293</ele>
        <time>2020-10-07T01:07:45.686Z</time>
      </trkpt>
      <trkpt lat="58.79469" lon="22.48493">
        <ele>14.415876</ele>
        <time>2020-10-07T01:08:13.867Z</time>
      </trkpt>
      <trkpt lat="58.79427" lon="22.48488">
        <ele>14.473692</ele>
        <time>2020-10-07T01:08:23.983Z</time>
      </trkpt>
      <trkpt lat="58.79373" lon="22.48495">
        <ele>14.545819</ele>
        <time>2020-10-07T01:08:36.200Z</time>
      </trkpt>
      <trkpt lat="58.79346" lon="22.48505">
        <ele>14.464659</ele>
        <time>2020-10-07T01:08:42.499Z</time>
      </trkpt>
      <trkpt lat="58.79305" lon="22.48531">
        <ele>14.302128</ele>
        <time>2020-10-07T01:08:51.480Z</time>
      </trkpt>
      <trkpt lat="58.79192" lon="22.48645">
        <ele>13.806493</ele>
        <time>2020-10-07T01:09:17.633Z</time>
      </trkpt>
      <trkpt lat="58.79152" lon="22.48688">
        <ele>13.60585</ele>
        <time>2020-10-07T01:09:26.901Z</time>
      </trkpt>
      <trkpt lat="58.78897" lon="22.4895">
        <ele>12.464997</ele>
        <time>2020-10-07T01:10:27.841Z</time>
      </trkpt>
      <trkpt lat="58.78824" lon="22.49029">
        <ele>12.162056</ele>
        <time>2020-10-07T01:10:44.990Z</time>
      </trkpt>
      <trkpt lat="58.78798" lon="22.49054">
        <ele>12.055607</ele>
        <time>2020-10-07T01:10:51.027Z</time>
      </trkpt>
      <trkpt lat="58.78589" lon="22.49271">
        <ele>11.244636</ele>
        <time>2020-10-07T01:11:41.452Z</time>
      </trkpt>
      <trkpt lat="58.78534" lon="22.49331">
        <ele>11.094683</ele>
        <time>2020-10-07T01:11:54.568Z</time>
      </trkpt>
      <trkpt lat="58.78482" lon="22.49395">
        <ele>10.976187</ele>
        <time>2020-10-07T01:12:07.421Z</time>
      </trkpt>
      <trkpt lat="58.78248" lon="22.49761">
        <ele>11.160778</ele>
        <time>2020-10-07T01:13:16.231Z</time>
      </trkpt>
      <trkpt lat="58.77777" lon="22.50515">
        <ele>11.924038</ele>
        <time>2020-10-07T01:15:35.016Z</time>
      </trkpt>
      <trkpt lat="58.77711" lon="22.50606">
        <ele>12.196695</ele>
        <time>2020-10-07T01:15:54.781Z</time>
      </trkpt>
      <trkpt lat="58.77684" lon="22.50633">
        <ele>12.369631</ele>
        <time>2020-10-07T01:16:02.450Z</time>
      </trkpt>
      <trkpt lat="58.77661" lon="22.50651">
        <ele>12.50927</ele>
        <time>2020-10-07T01:16:08.562Z</time>
      </trkpt>
      <trkpt lat="58.77635" lon="22.50665">
        <ele>12.662545</ele>
        <time>2020-10-07T01:16:15.237Z</time>
      </trkpt>
      <trkpt lat="58.77619" lon="22.50667">
        <ele>12.754843</ele>
        <time>2020-10-07T01:16:19.379Z</time>
      </trkpt>
      <trkpt lat="58.77537" lon="22.50666">
        <ele>13.141507</ele>
        <time>2020-10-07T01:16:39.332Z</time>
      </trkpt>
      <trkpt lat="58.77148" lon="22.50598">
        <ele>13.615161</ele>
        <time>2020-10-07T01:18:07.514Z</time>
      </trkpt>
      <trkpt lat="58.77099" lon="22.50608">
        <ele>13.671186</ele>
        <time>2020-10-07T01:18:18.732Z</time>
      </trkpt>
      <trkpt lat="58.77068" lon="22.50614">
        <ele>13.707234</ele>
        <time>2020-10-07T01:18:25.989Z</time>
      </trkpt>
      <trkpt lat="58.77004" lon="22.50651">
        <ele>13.782855</ele>
        <time>2020-10-07T01:18:41.418Z</time>
      </trkpt>
      <trkpt lat="58.76859" lon="22.5077">
        <ele>13.95536</ele>
        <time>2020-10-07T01:19:17.238Z</time>
      </trkpt>
      <trkpt lat="58.76695" lon="22.50923">
        <ele>13.874269</ele>
        <time>2020-10-07T01:19:57.291Z</time>
      </trkpt>
      <trkpt lat="58.76578" lon="22.51">
        <ele>13.62949</ele>
        <time>2020-10-07T01:20:24.149Z</time>
      </trkpt>
      <trkpt lat="58.76451" lon="22.51039">
        <ele>13.202202</ele>
        <time>2020-10-07T01:20:51.368Z</time>
      </trkpt>
      <trkpt lat="58.76359" lon="22.51082">
        <ele>12.785346</ele>
        <time>2020-10-07T01:21:10.792Z</time>
      </trkpt>
      <trkpt lat="58.76273" lon="22.51153">
        <ele>12.370759</ele>
        <time>2020-10-07T01:21:29.950Z</time>
      </trkpt>
      <trkpt lat="58.76079" lon="22.51428">
        <ele>11.523112</ele>
        <time>2020-10-07T01:22:20.563Z</time>
      </trkpt>
      <trkpt lat="58.76022" lon="22.51479">
        <ele>11.375206</ele>
        <time>2020-10-07T01:22:34.262Z</time>
      </trkpt>
      <trkpt lat="58.75896" lon="22.5159">
        <ele>11.175385</ele>
        <time>2020-10-07T01:23:04.663Z</time>
      </trkpt>
      <trkpt lat="58.75806" lon="22.51643">
        <ele>10.871947</ele>
        <time>2020-10-07T01:23:24.652Z</time>
      </trkpt>
      <trkpt lat="58.7568" lon="22.51643">
        <ele>10.352771</ele>
        <time>2020-10-07T01:23:50.887Z</time>
      </trkpt>
      <trkpt lat="58.75613" lon="22.51636">
        <ele>9.930369</ele>
        <time>2020-10-07T01:24:04.586Z</time>
      </trkpt>
      <trkpt lat="58.75547" lon="22.5164">
        <ele>9.518375</ele>
        <time>2020-10-07T01:24:17.816Z</time>
      </trkpt>
      <trkpt lat="58.75456" lon="22.51691">
        <ele>8.795257</ele>
        <time>2020-10-07T01:24:36.433Z</time>
      </trkpt>
      <trkpt lat="58.75372" lon="22.51775">
        <ele>8.029099</ele>
        <time>2020-10-07T01:24:55.112Z</time>
      </trkpt>
      <trkpt lat="58.75356" lon="22.51798">
        <ele>7.880483</ele>
        <time>2020-10-07T01:24:58.998Z</time>
      </trkpt>
      <trkpt lat="58.75352" lon="22.51803">
        <ele>7.861373</ele>
        <time>2020-10-07T01:24:59.832Z</time>
      </trkpt>
      <trkpt lat="58.75278" lon="22.51906">
        <ele>7.428457</ele>
        <time>2020-10-07T01:25:18.480Z</time>
      </trkpt>
      <trkpt lat="58.74987" lon="22.52343">
        <ele>6.582638</ele>
        <time>2020-10-07T01:26:38.219Z</time>
      </trkpt>
      <trkpt lat="58.74842" lon="22.52496">
        <ele>6.508884</ele>
        <time>2020-10-07T01:27:14.815Z</time>
      </trkpt>
      <trkpt lat="58.7473" lon="22.52578">
        <ele>6.593709</ele>
        <time>2020-10-07T01:27:41.618Z</time>
      </trkpt>
      <trkpt lat="58.74677" lon="22.52618">
        <ele>6.727173</ele>
        <time>2020-10-07T01:27:54.894Z</time>
      </trkpt>
      <trkpt lat="58.74423" lon="22.52773">
        <ele>7.556074</ele>
        <time>2020-10-07T01:28:57.880Z</time>
      </trkpt>
      <trkpt lat="58.74093" lon="22.53117">
        <ele>8.322117</ele>
        <time>2020-10-07T01:30:24.286Z</time>
      </trkpt>
      <trkpt lat="58.74023" lon="22.53228">
        <ele>8.602448</ele>
        <time>2020-10-07T01:30:45.415Z</time>
      </trkpt>
      <trkpt lat="58.74014" lon="22.53252">
        <ele>8.650309</ele>
        <time>2020-10-07T01:30:49.136Z</time>
      </trkpt>
      <trkpt lat="58.73954" lon="22.5341">
        <ele>9.018084</ele>
        <time>2020-10-07T01:31:13.409Z</time>
      </trkpt>
      <trkpt lat="58.73819" lon="22.5395">
        <ele>10.420767</ele>
        <time>2020-10-07T01:32:28.530Z</time>
      </trkpt>
      <trkpt lat="58.73784" lon="22.5408">
        <ele>10.793557</ele>
        <time>2020-10-07T01:32:47.058Z</time>
      </trkpt>
      <trkpt lat="58.73757" lon="22.5416">
        <ele>11.040295</ele>
        <time>2020-10-07T01:32:59.196Z</time>
      </trkpt>
      <trkpt lat="58.73726" lon="22.54227">
        <ele>11.272678</ele>
        <time>2020-10-07T01:33:10.591Z</time>
      </trkpt>
      <trkpt lat="58.7367" lon="22.54317">
        <ele>11.442666</ele>
        <time>2020-10-07T01:33:27.958Z</time>
      </trkpt>
      <trkpt lat="58.73585" lon="22.54414">
        <ele>11.606668</ele>
        <time>2020-10-07T01:33:50.437Z</time>
      </trkpt>
      <trkpt lat="58.73555" lon="22.54433">
        <ele>11.629293</ele>
        <time>2020-10-07T01:33:57.463Z</time>
      </trkpt>
      <trkpt lat="58.73505" lon="22.54454">
        <ele>11.526023</ele>
        <time>2020-10-07T01:34:08.346Z</time>
      </trkpt>
      <trkpt lat="58.73402" lon="22.54487">
        <ele>11.311109</ele>
        <time>2020-10-07T01:34:30.527Z</time>
      </trkpt>
      <trkpt lat="58.73255" lon="22.54557">
        <ele>11.467497</ele>
        <time>2020-10-07T01:35:04.327Z</time>
      </trkpt>
      <trkpt lat="58.73245" lon="22.54562">
        <ele>11.481782</ele>
        <time>2020-10-07T01:35:06.899Z</time>
      </trkpt>
      <trkpt lat="58.73126" lon="22.54677">
        <ele>11.80249</ele>
        <time>2020-10-07T01:35:38.596Z</time>
      </trkpt>
      <trkpt lat="58.73054" lon="22.54783">
        <ele>12.018144</ele>
        <time>2020-10-07T01:35:59.892Z</time>
      </trkpt>
      <trkpt lat="58.72962" lon="22.54992">
        <ele>11.887678</ele>
        <time>2020-10-07T01:36:31.233Z</time>
      </trkpt>
      <trkpt lat="58.72819" lon="22.55363">
        <ele>11.231739</ele>
        <time>2020-10-07T01:37:21.468Z</time>
      </trkpt>
      <trkpt lat="58.72694" lon="22.55615">
        <ele>11.196652</ele>
        <time>2020-10-07T01:38:01.802Z</time>
      </trkpt>
      <trkpt lat="58.72578" lon="22.55851">
        <ele>11.530849</ele>
        <time>2020-10-07T01:38:41.218Z</time>
      </trkpt>
      <trkpt lat="58.72512" lon="22.55988">
        <ele>11.620487</ele>
        <time>2020-10-07T01:39:03.655Z</time>
      </trkpt>
      <trkpt lat="58.72451" lon="22.56089">
        <ele>11.636091</ele>
        <time>2020-10-07T01:39:21.471Z</time>
      </trkpt>
      <trkpt lat="58.72395" lon="22.56159">
        <ele>11.494222</ele>
        <time>2020-10-07T01:39:35.910Z</time>
      </trkpt>
      <trkpt lat="58.72328" lon="22.56215">
        <ele>11.339031</ele>
        <time>2020-10-07T01:39:51.391Z</time>
      </trkpt>
      <trkpt lat="58.72117" lon="22.5631">
        <ele>10.719106</ele>
        <time>2020-10-07T01:40:36.624Z</time>
      </trkpt>
      <trkpt lat="58.72006" lon="22.56369">
        <ele>11.072025</ele>
        <time>2020-10-07T01:41:03.666Z</time>
      </trkpt>
      <trkpt lat="58.71984" lon="22.56389">
        <ele>11.144659</ele>
        <time>2020-10-07T01:41:09.480Z</time>
      </trkpt>
      <trkpt lat="58.71962" lon="22.56408">
        <ele>11.219018</ele>
        <time>2020-10-07T01:41:15.646Z</time>
      </trkpt>
      <trkpt lat="58.71918" lon="22.56457">
        <ele>11.57756</ele>
        <time>2020-10-07T01:41:28.713Z</time>
      </trkpt>
      <trkpt lat="58.71889" lon="22.56503">
        <ele>11.841652</ele>
        <time>2020-10-07T01:41:38.436Z</time>
      </trkpt>
      <trkpt lat="58.71809" lon="22.56667">
        <ele>12.459652</ele>
        <time>2020-10-07T01:42:07.973Z</time>
      </trkpt>
      <trkpt lat="58.71724" lon="22.56911">
        <ele>12.29792</ele>
        <time>2020-10-07T01:42:40.683Z</time>
      </trkpt>
      <trkpt lat="58.71642" lon="22.57146">
        <ele>11.475258</ele>
        <time>2020-10-07T01:43:09.950Z</time>
      </trkpt>
      <trkpt lat="58.71596" lon="22.57279">
        <ele>11.233918</ele>
        <time>2020-10-07T01:43:27.243Z</time>
      </trkpt>
      <trkpt lat="58.71509" lon="22.57489">
        <ele>11.132958</ele>
        <time>2020-10-07T01:43:59.068Z</time>
      </trkpt>
      <trkpt lat="58.71451" lon="22.57613">
        <ele>11.227776</ele>
        <time>2020-10-07T01:44:19.137Z</time>
      </trkpt>
      <trkpt lat="58.71424" lon="22.57673">
        <ele>11.273363</ele>
        <time>2020-10-07T01:44:28.531Z</time>
      </trkpt>
      <trkpt lat="58.71399" lon="22.57729">
        <ele>11.315159</ele>
        <time>2020-10-07T01:44:36.995Z</time>
      </trkpt>
      <trkpt lat="58.71358" lon="22.57863">
        <ele>11.091301</ele>
        <time>2020-10-07T01:44:54.351Z</time>
      </trkpt>
      <trkpt lat="58.7132" lon="22.58005">
        <ele>10.83458</ele>
        <time>2020-10-07T01:45:11.765Z</time>
      </trkpt>
      <trkpt lat="58.71275" lon="22.58169">
        <ele>10.492432</ele>
        <time>2020-10-07T01:45:31.664Z</time>
      </trkpt>
      <trkpt lat="58.71194" lon="22.58467">
        <ele>10.096338</ele>
        <time>2020-10-07T01:46:08.835Z</time>
      </trkpt>
      <trkpt lat="58.71162" lon="22.58564">
        <ele>10.092345</ele>
        <time>2020-10-07T01:46:22.217Z</time>
      </trkpt>
      <trkpt lat="58.71089" lon="22.58681">
        <ele>10.494171</ele>
        <time>2020-10-07T01:46:44.485Z</time>
      </trkpt>
      <trkpt lat="58.71055" lon="22.58714">
        <ele>10.85347</ele>
        <time>2020-10-07T01:46:53.868Z</time>
      </trkpt>
      <trkpt lat="58.71002" lon="22.5874">
        <ele>11.3639</ele>
        <time>2020-10-07T01:47:07.930Z</time>
      </trkpt>
      <trkpt lat="58.70995" lon="22.58744">
        <ele>11.433521</ele>
        <time>2020-10-07T01:47:09.903Z</time>
      </trkpt>
      <trkpt lat="58.70969" lon="22.58757">
        <ele>11.688676</ele>
        <time>2020-10-07T01:47:17.653Z</time>
      </trkpt>
      <trkpt lat="58.70923" lon="22.58776">
        <ele>12.628721</ele>
        <time>2020-10-07T01:47:32.110Z</time>
      </trkpt>
      <trkpt lat="58.70896" lon="22.58791">
        <ele>13.242976</ele>
        <time>2020-10-07T01:47:40.835Z</time>
      </trkpt>
      <trkpt lat="58.7086" lon="22.58818">
        <ele>14.10523</ele>
        <time>2020-10-07T01:47:53.242Z</time>
      </trkpt>
      <trkpt lat="58.70838" lon="22.58847">
        <ele>14.71222</ele>
        <time>2020-10-07T01:48:01.979Z</time>
      </trkpt>
      <trkpt lat="58.70818" lon="22.58873">
        <ele>15.248181</ele>
        <time>2020-10-07T01:48:09.716Z</time>
      </trkpt>
      <trkpt lat="58.7079" lon="22.58927">
        <ele>15.989466</ele>
        <time>2020-10-07T01:48:22.347Z</time>
      </trkpt>
      <trkpt lat="58.70762" lon="22.5902">
        <ele>16.682785</ele>
        <time>2020-10-07T01:48:39.375Z</time>
      </trkpt>
      <trkpt lat="58.70739" lon="22.59175">
        <ele>17.729586</ele>
        <time>2020-10-07T01:49:02.308Z</time>
      </trkpt>
      <trkpt lat="58.70734" lon="22.59206">
        <ele>17.940773</ele>
        <time>2020-10-07T01:49:06.063Z</time>
      </trkpt>
      <trkpt lat="58.70707" lon="22.59415">
        <ele>17.11684</ele>
        <time>2020-10-07T01:49:28.002Z</time>
      </trkpt>
      <trkpt lat="58.70695" lon="22.59463">
        <ele>16.866368</ele>
        <time>2020-10-07T01:49:33.292Z</time>
      </trkpt>
      <trkpt lat="58.70689" lon="22.59484">
        <ele>16.753954</ele>
        <time>2020-10-07T01:49:35.491Z</time>
      </trkpt>
      <trkpt lat="58.70644" lon="22.59585">
        <ele>16.214232</ele>
        <time>2020-10-07T01:49:48.239Z</time>
      </trkpt>
      <trkpt lat="58.70634" lon="22.5961">
        <ele>16.104837</ele>
        <time>2020-10-07T01:49:51.396Z</time>
      </trkpt>
      <trkpt lat="58.70565" lon="22.59723">
        <ele>15.519419</ele>
        <time>2020-10-07T01:50:09.796Z</time>
      </trkpt>
      <trkpt lat="58.70551" lon="22.59743">
        <ele>15.400391</ele>
        <time>2020-10-07T01:50:13.704Z</time>
      </trkpt>
      <trkpt lat="58.70544" lon="22.59719">
        <ele>15.305194</ele>
        <time>2020-10-07T01:50:17.312Z</time>
      </trkpt>
      <trkpt lat="58.70533" lon="22.59669">
        <ele>15.250812</ele>
        <time>2020-10-07T01:50:23.822Z</time>
      </trkpt>
      <trkpt lat="58.70528" lon="22.59641">
        <ele>15.247366</ele>
        <time>2020-10-07T01:50:27.561Z</time>
      </trkpt>
      <trkpt lat="58.70521" lon="22.59605">
        <ele>15.242791</ele>
        <time>2020-10-07T01:50:32.442Z</time>
      </trkpt>
      <trkpt lat="58.70509" lon="22.59612">
        <ele>15.239981</ele>
        <time>2020-10-07T01:50:35.404Z</time>
      </trkpt>
      <trkpt lat="58.70491" lon="22.59507">
        <ele>15.227147</ele>
        <time>2020-10-07T01:50:48.576Z</time>
      </trkpt>
      <trkpt lat="58.70486" lon="22.59386">
        <ele>15.120095</ele>
        <time>2020-10-07T01:51:02.611Z</time>
      </trkpt>
      <trkpt lat="58.70487" lon="22.593">
        <ele>14.634548</ele>
        <time>2020-10-07T01:51:11.533Z</time>
      </trkpt>
      <trkpt lat="58.70472" lon="22.59101">
        <ele>13.511334</ele>
        <time>2020-10-07T01:51:30.879Z</time>
      </trkpt>
      <trkpt lat="58.70458" lon="22.59033">
        <ele>13.097316</ele>
        <time>2020-10-07T01:51:37.830Z</time>
      </trkpt>
      <trkpt lat="58.70435" lon="22.58971">
        <ele>12.647977</ele>
        <time>2020-10-07T01:51:45.289Z</time>
      </trkpt>
      <trkpt lat="58.70402" lon="22.58892">
        <ele>12.054917</ele>
        <time>2020-10-07T01:51:55.363Z</time>
      </trkpt>
      <trkpt lat="58.7038" lon="22.58839">
        <ele>11.658383</ele>
        <time>2020-10-07T01:52:02.213Z</time>
      </trkpt>
      <trkpt lat="58.70376" lon="22.58829">
        <ele>11.584334</ele>
        <time>2020-10-07T01:52:03.537Z</time>
      </trkpt>
      <trkpt lat="58.7029" lon="22.58676">
        <ele>10.480661</ele>
        <time>2020-10-07T01:52:26.512Z</time>
      </trkpt>
      <trkpt lat="58.702" lon="22.58489">
        <ele>9.387691</ele>
        <time>2020-10-07T01:52:52.415Z</time>
      </trkpt>
      <trkpt lat="58.70163" lon="22.58378">
        <ele>8.910714</ele>
        <time>2020-10-07T01:53:05.907Z</time>
      </trkpt>
      <trkpt lat="58.70127" lon="22.58285">
        <ele>8.493124</ele>
        <time>2020-10-07T01:53:18.176Z</time>
      </trkpt>
      <trkpt lat="58.7003" lon="22.57962">
        <ele>8.489651</ele>
        <time>2020-10-07T01:54:01.320Z</time>
      </trkpt>
      <trkpt lat="58.69935" lon="22.57803">
        <ele>9.544133</ele>
        <time>2020-10-07T01:54:33.647Z</time>
      </trkpt>
      <trkpt lat="58.69918" lon="22.57783">
        <ele>9.704476</ele>
        <time>2020-10-07T01:54:39.038Z</time>
      </trkpt>
      <trkpt lat="58.69887" lon="22.57744">
        <ele>9.999771</ele>
        <time>2020-10-07T01:54:49.333Z</time>
      </trkpt>
      <trkpt lat="58.69857" lon="22.57703">
        <ele>10.193241</ele>
        <time>2020-10-07T01:54:58.920Z</time>
      </trkpt>
      <trkpt lat="58.69806" lon="22.57599">
        <ele>10.592891</ele>
        <time>2020-10-07T01:55:18.021Z</time>
      </trkpt>
      <trkpt lat="58.69787" lon="22.57542">
        <ele>10.781684</ele>
        <time>2020-10-07T01:55:26.051Z</time>
      </trkpt>
      <trkpt lat="58.69773" lon="22.57479">
        <ele>10.850262</ele>
        <time>2020-10-07T01:55:33.860Z</time>
      </trkpt>
      <trkpt lat="58.69768" lon="22.57331">
        <ele>10.023777</ele>
        <time>2020-10-07T01:55:48.904Z</time>
      </trkpt>
      <trkpt lat="58.69765" lon="22.57306">
        <ele>9.880324</ele>
        <time>2020-10-07T01:55:51.242Z</time>
      </trkpt>
      <trkpt lat="58.6974" lon="22.57211">
        <ele>9.289918</ele>
        <time>2020-10-07T01:56:01.510Z</time>
      </trkpt>
      <trkpt lat="58.69734" lon="22.57141">
        <ele>8.931926</ele>
        <time>2020-10-07T01:56:08.440Z</time>
      </trkpt>
      <trkpt lat="58.69733" lon="22.57056">
        <ele>8.615105</ele>
        <time>2020-10-07T01:56:16.760Z</time>
      </trkpt>
      <trkpt lat="58.6973" lon="22.56952">
        <ele>8.227635</ele>
        <time>2020-10-07T01:56:27.570Z</time>
      </trkpt>
      <trkpt lat="58.69713" lon="22.56809">
        <ele>7.71893</ele>
        <time>2020-10-07T01:56:43.674Z</time>
      </trkpt>
      <trkpt lat="58.69711" lon="22.56759">
        <ele>7.723115</ele>
        <time>2020-10-07T01:56:49.522Z</time>
      </trkpt>
      <trkpt lat="58.69723" lon="22.56524">
        <ele>7.742864</ele>
        <time>2020-10-07T01:57:17.658Z</time>
      </trkpt>
      <trkpt lat="58.69722" lon="22.56452">
        <ele>7.729049</ele>
        <time>2020-10-07T01:57:25.929Z</time>
      </trkpt>
      <trkpt lat="58.69684" lon="22.55686">
        <ele>7.172761</ele>
        <time>2020-10-07T01:58:52.167Z</time>
      </trkpt>
      <trkpt lat="58.69669" lon="22.55588">
        <ele>7.236217</ele>
        <time>2020-10-07T01:59:04.287Z</time>
      </trkpt>
      <trkpt lat="58.6964" lon="22.55458">
        <ele>7.323564</ele>
        <time>2020-10-07T01:59:21.570Z</time>
      </trkpt>
      <trkpt lat="58.69627" lon="22.55386">
        <ele>7.524256</ele>
        <time>2020-10-07T01:59:31.091Z</time>
      </trkpt>
      <trkpt lat="58.69624" lon="22.55369">
        <ele>7.573818</ele>
        <time>2020-10-07T01:59:33.587Z</time>
      </trkpt>
      <trkpt lat="58.69612" lon="22.55323">
        <ele>7.712318</ele>
        <time>2020-10-07T01:59:39.874Z</time>
      </trkpt>
      <trkpt lat="58.69608" lon="22.5525">
        <ele>7.910693</ele>
        <time>2020-10-07T01:59:49.222Z</time>
      </trkpt>
      <trkpt lat="58.69626" lon="22.55101">
        <ele>8.299212</ele>
        <time>2020-10-07T02:00:09.010Z</time>
      </trkpt>
      <trkpt lat="58.69645" lon="22.54835">
        <ele>8.68919</ele>
        <time>2020-10-07T02:00:41.811Z</time>
      </trkpt>
      <trkpt lat="58.69656" lon="22.54732">
        <ele>8.749517</ele>
        <time>2020-10-07T02:00:54.101Z</time>
      </trkpt>
      <trkpt lat="58.69667" lon="22.54632">
        <ele>8.709342</ele>
        <time>2020-10-07T02:01:05.766Z</time>
      </trkpt>
      <trkpt lat="58.69676" lon="22.5456">
        <ele>8.680084</ele>
        <time>2020-10-07T02:01:14.204Z</time>
      </trkpt>
      <trkpt lat="58.69688" lon="22.54472">
        <ele>8.644264</ele>
        <time>2020-10-07T02:01:24.477Z</time>
      </trkpt>
      <trkpt lat="58.69703" lon="22.54381">
        <ele>8.582662</ele>
        <time>2020-10-07T02:01:35.175Z</time>
      </trkpt>
      <trkpt lat="58.69707" lon="22.54344">
        <ele>8.553561</ele>
        <time>2020-10-07T02:01:39.522Z</time>
      </trkpt>
      <trkpt lat="58.69735" lon="22.54096">
        <ele>8.355655</ele>
        <time>2020-10-07T02:02:08.406Z</time>
      </trkpt>
      <trkpt lat="58.69759" lon="22.53869">
        <ele>8.05406</ele>
        <time>2020-10-07T02:02:34.109Z</time>
      </trkpt>
      <trkpt lat="58.69768" lon="22.53813">
        <ele>7.976766</ele>
        <time>2020-10-07T02:02:40.622Z</time>
      </trkpt>
      <trkpt lat="58.69797" lon="22.537">
        <ele>7.762015</ele>
        <time>2020-10-07T02:02:54.221Z</time>
      </trkpt>
      <trkpt lat="58.69796" lon="22.53531">
        <ele>7.432369</ele>
        <time>2020-10-07T02:03:12.633Z</time>
      </trkpt>
      <trkpt lat="58.69786" lon="22.53292">
        <ele>6.919699</ele>
        <time>2020-10-07T02:03:39.119Z</time>
      </trkpt>
      <trkpt lat="58.69775" lon="22.53156">
        <ele>6.610302</ele>
        <time>2020-10-07T02:03:53.912Z</time>
      </trkpt>
      <trkpt lat="58.69775" lon="22.53089">
        <ele>6.4534</ele>
        <time>2020-10-07T02:04:01.097Z</time>
      </trkpt>
      <trkpt lat="58.69779" lon="22.52998">
        <ele>6.04313</ele>
        <time>2020-10-07T02:04:10.583Z</time>
      </trkpt>
      <trkpt lat="58.69749" lon="22.52986">
        <ele>5.782561</ele>
        <time>2020-10-07T02:04:16.697Z</time>
      </trkpt>
      <trkpt lat="58.69664" lon="22.52966">
        <ele>5.046437</ele>
        <time>2020-10-07T02:04:34.020Z</time>
      </trkpt>
      <trkpt lat="58.69645" lon="22.52952">
        <ele>4.878569</ele>
        <time>2020-10-07T02:04:38.138Z</time>
      </trkpt>
      <trkpt lat="58.69635" lon="22.52945">
        <ele>4.812258</ele>
        <time>2020-10-07T02:04:40.307Z</time>
      </trkpt>
      <trkpt lat="58.69616" lon="22.52918">
        <ele>4.665139</ele>
        <time>2020-10-07T02:04:44.981Z</time>
      </trkpt>
      <trkpt lat="58.69592" lon="22.52867">
        <ele>4.439555</ele>
        <time>2020-10-07T02:04:52.373Z</time>
      </trkpt>
      <trkpt lat="58.69559" lon="22.52763">
        <ele>4.037751</ele>
        <time>2020-10-07T02:05:05.809Z</time>
      </trkpt>
      <trkpt lat="58.69548" lon="22.52697">
        <ele>3.811174</ele>
        <time>2020-10-07T02:05:13.870Z</time>
      </trkpt>
      <trkpt lat="58.69524" lon="22.52513">
        <ele>3.93264</ele>
        <time>2020-10-07T02:05:37.273Z</time>
      </trkpt>
      <trkpt lat="58.69508" lon="22.52426">
        <ele>4.013701</ele>
        <time>2020-10-07T02:05:49.180Z</time>
      </trkpt>
      <trkpt lat="58.69499" lon="22.52393">
        <ele>4.045857</ele>
        <time>2020-10-07T02:05:53.961Z</time>
      </trkpt>
      <trkpt lat="58.6948" lon="22.52321">
        <ele>4.070947</ele>
        <time>2020-10-07T02:06:04.194Z</time>
      </trkpt>
      <trkpt lat="58.69473" lon="22.52275">
        <ele>4.062489</ele>
        <time>2020-10-07T02:06:09.913Z</time>
      </trkpt>
      <trkpt lat="58.6948" lon="22.52179">
        <ele>4.045387</ele>
        <time>2020-10-07T02:06:21.516Z</time>
      </trkpt>
      <trkpt lat="58.69491" lon="22.5212">
        <ele>4.034139</ele>
        <time>2020-10-07T02:06:28.730Z</time>
      </trkpt>
      <trkpt lat="58.69474" lon="22.52109">
        <ele>4.027966</ele>
        <time>2020-10-07T02:06:32.485Z</time>
      </trkpt>
      <trkpt lat="58.69438" lon="22.52117">
        <ele>3.983859</ele>
        <time>2020-10-07T02:06:39.976Z</time>
      </trkpt>
      <trkpt lat="58.69334" lon="22.52234">
        <ele>3.004868</ele>
        <time>2020-10-07T02:07:04.262Z</time>
      </trkpt>
      <trkpt lat="58.69177" lon="22.52195">
        <ele>1.576565</ele>
        <time>2020-10-07T02:07:34.226Z</time>
      </trkpt>
      <trkpt lat="58.6912" lon="22.52178">
        <ele>1.025253</ele>
        <time>2020-10-07T02:07:45.375Z</time>
      </trkpt>
      <trkpt lat="58.68871" lon="22.52064">
        <ele>0.175625</ele>
        <time>2020-10-07T02:08:21.028Z</time>
      </trkpt>
      <trkpt lat="58.68107" lon="22.53606">
        <time>2020-10-07T02:10:55.380Z</time>
      </trkpt>
      <trkpt lat="58.67011" lon="22.56094">
        <time>2020-10-07T02:14:51.712Z</time>
      </trkpt>
      <trkpt lat="58.66228" lon="22.57815">
        <time>2020-10-07T02:17:37.442Z</time>
      </trkpt>
      <trkpt lat="58.65936" lon="22.58667">
        <time>2020-10-07T02:18:51.365Z</time>
      </trkpt>
      <trkpt lat="58.64979" lon="22.61391">
        <time>2020-10-07T02:22:49.774Z</time>
      </trkpt>
      <trkpt lat="58.64093" lon="22.63953">
        <time>2020-10-07T02:26:32.975Z</time>
      </trkpt>
      <trkpt lat="58.63544" lon="22.6507">
        <time>2020-10-07T02:28:24.342Z</time>
      </trkpt>
      <trkpt lat="58.60911" lon="22.70647">
        <time>2020-10-07T02:37:30.725Z</time>
      </trkpt>
      <trkpt lat="58.60263" lon="22.72004">
        <time>2020-10-07T02:39:44.341Z</time>
      </trkpt>
      <trkpt lat="58.60171" lon="22.72133">
        <time>2020-10-07T02:40:00.248Z</time>
      </trkpt>
      <trkpt lat="58.60027" lon="22.72239">
        <time>2020-10-07T02:40:21.776Z</time>
      </trkpt>
      <trkpt lat="58.59916" lon="22.72296">
        <time>2020-10-07T02:40:37.722Z</time>
      </trkpt>
      <trkpt lat="58.59704" lon="22.72371">
        <ele>0.001544</ele>
        <time>2020-10-07T02:41:07.689Z</time>
      </trkpt>
      <trkpt lat="58.59598" lon="22.72375">
        <ele>0.063155</ele>
        <time>2020-10-07T02:41:22.503Z</time>
      </trkpt>
      <trkpt lat="58.59507" lon="22.72337">
        <ele>0.151759</ele>
        <time>2020-10-07T02:41:35.417Z</time>
      </trkpt>
      <trkpt lat="58.59254" lon="22.72084">
        <ele>1.011453</ele>
        <time>2020-10-07T02:42:15.134Z</time>
      </trkpt>
      <trkpt lat="58.59185" lon="22.71985">
        <ele>1.445207</ele>
        <time>2020-10-07T02:42:27.188Z</time>
      </trkpt>
      <trkpt lat="58.59175" lon="22.71835">
        <ele>2.162615</ele>
        <time>2020-10-07T02:42:38.223Z</time>
      </trkpt>
      <trkpt lat="58.59168" lon="22.71736">
        <ele>2.666241</ele>
        <time>2020-10-07T02:42:52.183Z</time>
      </trkpt>
      <trkpt lat="58.59153" lon="22.71667">
        <ele>3.044913</ele>
        <time>2020-10-07T02:43:02.705Z</time>
      </trkpt>
      <trkpt lat="58.59127" lon="22.71588">
        <ele>3.507194</ele>
        <time>2020-10-07T02:43:15.641Z</time>
      </trkpt>
      <trkpt lat="58.5911" lon="22.71535">
        <ele>3.816813</ele>
        <time>2020-10-07T02:43:24.419Z</time>
      </trkpt>
      <trkpt lat="58.58835" lon="22.706">
        <ele>8.484236</ele>
        <time>2020-10-07T02:45:49.653Z</time>
      </trkpt>
      <trkpt lat="58.58813" lon="22.7056">
        <ele>8.566074</ele>
        <time>2020-10-07T02:45:56.381Z</time>
      </trkpt>
      <trkpt lat="58.58779" lon="22.70548">
        <ele>8.657999</ele>
        <time>2020-10-07T02:46:03.748Z</time>
      </trkpt>
      <trkpt lat="58.58575" lon="22.70626">
        <ele>8.12321</ele>
        <time>2020-10-07T02:46:47.176Z</time>
      </trkpt>
      <trkpt lat="58.5851" lon="22.70636">
        <ele>8.00372</ele>
        <time>2020-10-07T02:47:01.122Z</time>
      </trkpt>
      <trkpt lat="58.58046" lon="22.70595">
        <ele>7.250045</ele>
        <time>2020-10-07T02:48:42.148Z</time>
      </trkpt>
      <trkpt lat="58.57881" lon="22.70603">
        <ele>7.143797</ele>
        <time>2020-10-07T02:49:17.020Z</time>
      </trkpt>
      <trkpt lat="58.57992" lon="22.69784">
        <ele>9.979576</ele>
        <time>2020-10-07T02:51:08.588Z</time>
      </trkpt>
      <trkpt lat="58.57998" lon="22.69684">
        <ele>10.309933</ele>
        <time>2020-10-07T02:51:22.845Z</time>
      </trkpt>
      <trkpt lat="58.57992" lon="22.69544">
        <ele>10.768812</ele>
        <time>2020-10-07T02:51:40.250Z</time>
      </trkpt>
      <trkpt lat="58.57979" lon="22.69409">
        <ele>10.505777</ele>
        <time>2020-10-07T02:51:55.753Z</time>
      </trkpt>
      <trkpt lat="58.5797" lon="22.69296">
        <ele>10.246507</ele>
        <time>2020-10-07T02:52:07.825Z</time>
      </trkpt>
      <trkpt lat="58.57957" lon="22.69099">
        <ele>9.892322</ele>
        <time>2020-10-07T02:52:28.316Z</time>
      </trkpt>
      <trkpt lat="58.5791" lon="22.6887">
        <ele>9.576809</ele>
        <time>2020-10-07T02:52:56.733Z</time>
      </trkpt>
      <trkpt lat="58.57891" lon="22.68802">
        <ele>9.635186</ele>
        <time>2020-10-07T02:53:06.168Z</time>
      </trkpt>
      <trkpt lat="58.57856" lon="22.68756">
        <ele>9.701779</ele>
        <time>2020-10-07T02:53:16.029Z</time>
      </trkpt>
      <trkpt lat="58.57832" lon="22.68741">
        <ele>9.741489</ele>
        <time>2020-10-07T02:53:21.899Z</time>
      </trkpt>
      <trkpt lat="58.57765" lon="22.68698">
        <ele>9.851795</ele>
        <time>2020-10-07T02:53:37.819Z</time>
      </trkpt>
      <trkpt lat="58.57565" lon="22.68631">
        <ele>9.949365</ele>
        <time>2020-10-07T02:54:22.898Z</time>
      </trkpt>
      <trkpt lat="58.57506" lon="22.68621">
        <ele>10.193644</ele>
        <time>2020-10-07T02:54:36.781Z</time>
      </trkpt>
      <trkpt lat="58.57397" lon="22.68627">
        <ele>10.672143</ele>
        <time>2020-10-07T02:55:03.558Z</time>
      </trkpt>
      <trkpt lat="58.57352" lon="22.68605">
        <ele>10.997468</ele>
        <time>2020-10-07T02:55:15.481Z</time>
      </trkpt>
      <trkpt lat="58.57295" lon="22.68558">
        <ele>11.428223</ele>
        <time>2020-10-07T02:55:31.477Z</time>
      </trkpt>
      <trkpt lat="58.57208" lon="22.68489">
        <ele>11.831806</ele>
        <time>2020-10-07T02:55:54.189Z</time>
      </trkpt>
      <trkpt lat="58.57203" lon="22.68482">
        <ele>11.825302</ele>
        <time>2020-10-07T02:55:56.004Z</time>
      </trkpt>
      <trkpt lat="58.57172" lon="22.68449">
        <ele>11.790708</ele>
        <time>2020-10-07T02:56:04.071Z</time>
      </trkpt>
      <trkpt lat="58.57139" lon="22.68385">
        <ele>11.744055</ele>
        <time>2020-10-07T02:56:14.367Z</time>
      </trkpt>
      <trkpt lat="58.57128" lon="22.68361">
        <ele>11.726968</ele>
        <time>2020-10-07T02:56:17.779Z</time>
      </trkpt>
      <trkpt lat="58.57112" lon="22.68318">
        <ele>11.700218</ele>
        <time>2020-10-07T02:56:23.558Z</time>
      </trkpt>
      <trkpt lat="58.57174" lon="22.68257">
        <ele>11.274406</ele>
        <time>2020-10-07T02:56:37.354Z</time>
      </trkpt>
      <trkpt lat="58.57185" lon="22.68238">
        <ele>11.159952</ele>
        <time>2020-10-07T02:56:40.177Z</time>
      </trkpt>
      <trkpt lat="58.57213" lon="22.6818">
        <ele>10.848032</ele>
        <time>2020-10-07T02:56:48.232Z</time>
      </trkpt>
      <trkpt lat="58.57237" lon="22.6808">
        <ele>10.410327</ele>
        <time>2020-10-07T02:56:59.618Z</time>
      </trkpt>
      <trkpt lat="58.57261" lon="22.6791">
        <ele>10.145446</ele>
        <time>2020-10-07T02:57:18.818Z</time>
      </trkpt>
      <trkpt lat="58.57261" lon="22.67882">
        <ele>10.113506</ele>
        <time>2020-10-07T02:57:22.011Z</time>
      </trkpt>
      <trkpt lat="58.57261" lon="22.67876">
        <ele>10.106845</ele>
        <time>2020-10-07T02:57:22.790Z</time>
      </trkpt>
      <trkpt lat="58.57257" lon="22.67841">
        <ele>10.06486</ele>
        <time>2020-10-07T02:57:27.032Z</time>
      </trkpt>
      <trkpt lat="58.57237" lon="22.67759">
        <ele>9.960774</ele>
        <time>2020-10-07T02:57:37.397Z</time>
      </trkpt>
      <trkpt lat="58.57227" lon="22.67719">
        <ele>9.93669</ele>
        <time>2020-10-07T02:57:42.233Z</time>
      </trkpt>
      <trkpt lat="58.57202" lon="22.67616">
        <ele>10.055556</ele>
        <time>2020-10-07T02:57:55.435Z</time>
      </trkpt>
      <trkpt lat="58.57179" lon="22.67501">
        <ele>10.184349</ele>
        <time>2020-10-07T02:58:10.048Z</time>
      </trkpt>
      <trkpt lat="58.57169" lon="22.67459">
        <ele>10.232095</ele>
        <time>2020-10-07T02:58:15.446Z</time>
      </trkpt>
      <trkpt lat="58.5716" lon="22.67418">
        <ele>10.279283</ele>
        <time>2020-10-07T02:58:21.779Z</time>
      </trkpt>
      <trkpt lat="58.57137" lon="22.67319">
        <ele>11.041709</ele>
        <time>2020-10-07T02:58:36.179Z</time>
      </trkpt>
      <trkpt lat="58.57134" lon="22.67308">
        <ele>11.130278</ele>
        <time>2020-10-07T02:58:38.055Z</time>
      </trkpt>
      <trkpt lat="58.5713" lon="22.67286">
        <ele>11.301924</ele>
        <time>2020-10-07T02:58:40.999Z</time>
      </trkpt>
      <trkpt lat="58.57127" lon="22.67262">
        <ele>11.486329</ele>
        <time>2020-10-07T02:58:44.421Z</time>
      </trkpt>
      <trkpt lat="58.57123" lon="22.67229">
        <ele>11.736045</ele>
        <time>2020-10-07T02:58:49.592Z</time>
      </trkpt>
      <trkpt lat="58.57121" lon="22.67199">
        <ele>11.952848</ele>
        <time>2020-10-07T02:58:53.577Z</time>
      </trkpt>
      <trkpt lat="58.57121" lon="22.67176">
        <ele>12.124676</ele>
        <time>2020-10-07T02:58:57.843Z</time>
      </trkpt>
      <trkpt lat="58.57126" lon="22.67099">
        <ele>12.690855</ele>
        <time>2020-10-07T02:59:10.230Z</time>
      </trkpt>
      <trkpt lat="58.57139" lon="22.67009">
        <ele>13.473005</ele>
        <time>2020-10-07T02:59:25.253Z</time>
      </trkpt>
      <trkpt lat="58.57165" lon="22.66932">
        <ele>14.255449</ele>
        <time>2020-10-07T02:59:39.925Z</time>
      </trkpt>
      <trkpt lat="58.57182" lon="22.66902">
        <ele>14.638097</ele>
        <time>2020-10-07T02:59:47.107Z</time>
      </trkpt>
      <trkpt lat="58.57265" lon="22.66759">
        <ele>15.780593</ele>
        <time>2020-10-07T03:00:16.407Z</time>
      </trkpt>
      <trkpt lat="58.57313" lon="22.66642">
        <ele>15.820399</ele>
        <time>2020-10-07T03:00:33.925Z</time>
      </trkpt>
      <trkpt lat="58.57337" lon="22.66512">
        <ele>15.711631</ele>
        <time>2020-10-07T03:00:48.610Z</time>
      </trkpt>
      <trkpt lat="58.57428" lon="22.65683">
        <ele>10.814843</ele>
        <time>2020-10-07T03:02:12.486Z</time>
      </trkpt>
      <trkpt lat="58.57488" lon="22.64858">
        <ele>6.946616</ele>
        <time>2020-10-07T03:03:37.347Z</time>
      </trkpt>
      <trkpt lat="58.575" lon="22.64684">
        <ele>7.17332</ele>
        <time>2020-10-07T03:03:58.087Z</time>
      </trkpt>
      <trkpt lat="58.57515" lon="22.64574">
        <ele>7.402368</ele>
        <time>2020-10-07T03:04:12.760Z</time>
      </trkpt>
      <trkpt lat="58.57537" lon="22.64494">
        <ele>7.633772</ele>
        <time>2020-10-07T03:04:25.137Z</time>
      </trkpt>
      <trkpt lat="58.57761" lon="22.63668">
        <ele>12.25584</ele>
        <time>2020-10-07T03:06:34.907Z</time>
      </trkpt>
      <trkpt lat="58.57772" lon="22.6363">
        <ele>12.390245</ele>
        <time>2020-10-07T03:06:39.612Z</time>
      </trkpt>
      <trkpt lat="58.579" lon="22.63033">
        <ele>10.269038</ele>
        <time>2020-10-07T03:07:46.387Z</time>
      </trkpt>
      <trkpt lat="58.57981" lon="22.62784">
        <ele>9.508247</ele>
        <time>2020-10-07T03:08:18.054Z</time>
      </trkpt>
      <trkpt lat="58.58092" lon="22.6252">
        <ele>8.947646</ele>
        <time>2020-10-07T03:08:55.120Z</time>
      </trkpt>
      <trkpt lat="58.58171" lon="22.62372">
        <ele>8.855202</ele>
        <time>2020-10-07T03:09:19.397Z</time>
      </trkpt>
      <trkpt lat="58.58218" lon="22.62285">
        <ele>9.057655</ele>
        <time>2020-10-07T03:09:34.508Z</time>
      </trkpt>
      <trkpt lat="58.58411" lon="22.6201">
        <ele>10.266732</ele>
        <time>2020-10-07T03:10:34.101Z</time>
      </trkpt>
      <trkpt lat="58.58578" lon="22.61819">
        <ele>11.266188</ele>
        <time>2020-10-07T03:11:21.326Z</time>
      </trkpt>
      <trkpt lat="58.58644" lon="22.61728">
        <ele>11.806785</ele>
        <time>2020-10-07T03:11:40.590Z</time>
      </trkpt>
      <trkpt lat="58.58755" lon="22.61495">
        <ele>13.525013</ele>
        <time>2020-10-07T03:12:23.031Z</time>
      </trkpt>
      <trkpt lat="58.58811" lon="22.61376">
        <ele>14.941635</ele>
        <time>2020-10-07T03:12:48.133Z</time>
      </trkpt>
      <trkpt lat="58.58936" lon="22.61017">
        <ele>19.768019</ele>
        <time>2020-10-07T03:14:00.516Z</time>
      </trkpt>
      <trkpt lat="58.58963" lon="22.60884">
        <ele>20.306321</ele>
        <time>2020-10-07T03:14:20.151Z</time>
      </trkpt>
      <trkpt lat="58.58988" lon="22.60817">
        <ele>20.615297</ele>
        <time>2020-10-07T03:14:30.417Z</time>
      </trkpt>
      <trkpt lat="58.59072" lon="22.60698">
        <ele>20.856936</ele>
        <time>2020-10-07T03:14:53.276Z</time>
      </trkpt>
      <trkpt lat="58.59088" lon="22.60674">
        <ele>20.796644</ele>
        <time>2020-10-07T03:14:57.276Z</time>
      </trkpt>
      <trkpt lat="58.591" lon="22.60686">
        <ele>20.758394</ele>
        <time>2020-10-07T03:15:00.266Z</time>
      </trkpt>
      <trkpt lat="58.59229" lon="22.60706">
        <ele>20.3064</ele>
        <time>2020-10-07T03:15:27.224Z</time>
      </trkpt>
      <trkpt lat="58.59306" lon="22.60693">
        <ele>19.914337</ele>
        <time>2020-10-07T03:15:43.687Z</time>
      </trkpt>
      <trkpt lat="58.5946" lon="22.60757">
        <ele>18.986228</ele>
        <time>2020-10-07T03:16:15.192Z</time>
      </trkpt>
      <trkpt lat="58.59654" lon="22.60805">
        <ele>17.794858</ele>
        <time>2020-10-07T03:16:54.833Z</time>
      </trkpt>
      <trkpt lat="58.59683" lon="22.60813">
        <ele>17.63041</ele>
        <time>2020-10-07T03:17:00.749Z</time>
      </trkpt>
      <trkpt lat="58.60109" lon="22.6059">
        <ele>15.341246</ele>
        <time>2020-10-07T03:18:31.390Z</time>
      </trkpt>
      <trkpt lat="58.60174" lon="22.60503">
        <ele>14.995525</ele>
        <time>2020-10-07T03:18:47.983Z</time>
      </trkpt>
      <trkpt lat="58.60332" lon="22.60332">
        <ele>14.293434</ele>
        <time>2020-10-07T03:19:25.511Z</time>
      </trkpt>
      <trkpt lat="58.60454" lon="22.60245">
        <ele>14.055893</ele>
        <time>2020-10-07T03:19:53.564Z</time>
      </trkpt>
      <trkpt lat="58.60662" lon="22.60044">
        <ele>13.726841</ele>
        <time>2020-10-07T03:20:46.720Z</time>
      </trkpt>
      <trkpt lat="58.60955" lon="22.59859">
        <ele>11.510917</ele>
        <time>2020-10-07T03:21:46.415Z</time>
      </trkpt>
      <trkpt lat="58.61287" lon="22.59512">
        <ele>10.905122</ele>
        <time>2020-10-07T03:23:09.729Z</time>
      </trkpt>
      <trkpt lat="58.61366" lon="22.59397">
        <ele>10.852154</ele>
        <time>2020-10-07T03:23:31.596Z</time>
      </trkpt>
      <trkpt lat="58.61641" lon="22.59137">
        <ele>10.655195</ele>
        <time>2020-10-07T03:24:37.872Z</time>
      </trkpt>
      <trkpt lat="58.61654" lon="22.59117">
        <ele>10.667348</ele>
        <time>2020-10-07T03:24:41.743Z</time>
      </trkpt>
      <trkpt lat="58.6173" lon="22.58996">
        <ele>11.602799</ele>
        <time>2020-10-07T03:25:06.938Z</time>
      </trkpt>
      <trkpt lat="58.61773" lon="22.58895">
        <ele>12.530372</ele>
        <time>2020-10-07T03:25:26.361Z</time>
      </trkpt>
      <trkpt lat="58.61802" lon="22.58781">
        <ele>13.591997</ele>
        <time>2020-10-07T03:25:46.287Z</time>
      </trkpt>
      <trkpt lat="58.61816" lon="22.58406">
        <ele>17.638453</ele>
        <time>2020-10-07T03:26:47.304Z</time>
      </trkpt>
      <trkpt lat="58.6184" lon="22.58215">
        <ele>19.489497</ele>
        <time>2020-10-07T03:27:17.807Z</time>
      </trkpt>
      <trkpt lat="58.61911" lon="22.57901">
        <ele>21.425507</ele>
        <time>2020-10-07T03:28:06.243Z</time>
      </trkpt>
      <trkpt lat="58.61971" lon="22.57687">
        <ele>21.123986</ele>
        <time>2020-10-07T03:28:34.047Z</time>
      </trkpt>
      <trkpt lat="58.62017" lon="22.57483">
        <ele>20.008315</ele>
        <time>2020-10-07T03:28:55.613Z</time>
      </trkpt>
      <trkpt lat="58.62049" lon="22.57395">
        <ele>18.996785</ele>
        <time>2020-10-07T03:29:05.362Z</time>
      </trkpt>
      <trkpt lat="58.62076" lon="22.5728">
        <ele>17.801928</ele>
        <time>2020-10-07T03:29:16.965Z</time>
      </trkpt>
      <trkpt lat="58.6208" lon="22.57252">
        <ele>17.525947</ele>
        <time>2020-10-07T03:29:19.562Z</time>
      </trkpt>
      <trkpt lat="58.62084" lon="22.57226">
        <ele>17.279677</ele>
        <time>2020-10-07T03:29:22.012Z</time>
      </trkpt>
      <trkpt lat="58.62092" lon="22.5694">
        <ele>15.933493</ele>
        <time>2020-10-07T03:29:50.243Z</time>
      </trkpt>
      <trkpt lat="58.62107" lon="22.56687">
        <ele>16.522632</ele>
        <time>2020-10-07T03:30:23.346Z</time>
      </trkpt>
      <trkpt lat="58.62128" lon="22.56485">
        <ele>17.574163</ele>
        <time>2020-10-07T03:30:53.821Z</time>
      </trkpt>
      <trkpt lat="58.62142" lon="22.56348">
        <ele>18.276246</ele>
        <time>2020-10-07T03:31:13.993Z</time>
      </trkpt>
      <trkpt lat="58.62145" lon="22.56272">
        <ele>18.659846</ele>
        <time>2020-10-07T03:31:24.264Z</time>
      </trkpt>
      <trkpt lat="58.62142" lon="22.56223">
        <ele>18.908343</ele>
        <time>2020-10-07T03:31:30.604Z</time>
      </trkpt>
      <trkpt lat="58.62136" lon="22.5617">
        <ele>19.066359</ele>
        <time>2020-10-07T03:31:37.257Z</time>
      </trkpt>
      <trkpt lat="58.62123" lon="22.56105">
        <ele>18.894049</ele>
        <time>2020-10-07T03:31:45.375Z</time>
      </trkpt>
      <trkpt lat="58.62056" lon="22.55791">
        <ele>18.155135</ele>
        <time>2020-10-07T03:32:20.472Z</time>
      </trkpt>
      <trkpt lat="58.61986" lon="22.55617">
        <ele>17.876169</ele>
        <time>2020-10-07T03:32:44.655Z</time>
      </trkpt>
      <trkpt lat="58.61805" lon="22.55362">
        <ele>18.985314</ele>
        <time>2020-10-07T03:33:41.367Z</time>
      </trkpt>
      <trkpt lat="58.61727" lon="22.55222">
        <ele>19.006863</ele>
        <time>2020-10-07T03:34:06.514Z</time>
      </trkpt>
      <trkpt lat="58.6167" lon="22.55102">
        <ele>18.603219</ele>
        <time>2020-10-07T03:34:23.241Z</time>
      </trkpt>
      <trkpt lat="58.61652" lon="22.55001">
        <ele>17.864719</ele>
        <time>2020-10-07T03:34:33.577Z</time>
      </trkpt>
      <trkpt lat="58.61647" lon="22.54887">
        <ele>17.079483</ele>
        <time>2020-10-07T03:34:44.288Z</time>
      </trkpt>
      <trkpt lat="58.61616" lon="22.54741">
        <ele>16.316151</ele>
        <time>2020-10-07T03:34:59.563Z</time>
      </trkpt>
      <trkpt lat="58.61584" lon="22.54552">
        <ele>15.625418</ele>
        <time>2020-10-07T03:35:21.095Z</time>
      </trkpt>
      <trkpt lat="58.61574" lon="22.54496">
        <ele>15.453605</ele>
        <time>2020-10-07T03:35:27.733Z</time>
      </trkpt>
      <trkpt lat="58.61568" lon="22.54458">
        <ele>15.494462</ele>
        <time>2020-10-07T03:35:32.395Z</time>
      </trkpt>
      <trkpt lat="58.61562" lon="22.54416">
        <ele>15.540026</ele>
        <time>2020-10-07T03:35:37.482Z</time>
      </trkpt>
      <trkpt lat="58.61542" lon="22.54286">
        <ele>15.680275</ele>
        <time>2020-10-07T03:35:53.942Z</time>
      </trkpt>
      <trkpt lat="58.61541" lon="22.54283">
        <ele>15.683765</ele>
        <time>2020-10-07T03:35:54.356Z</time>
      </trkpt>
      <trkpt lat="58.6152" lon="22.54201">
        <ele>15.778401</ele>
        <time>2020-10-07T03:36:05.814Z</time>
      </trkpt>
      <trkpt lat="58.615" lon="22.5414">
        <ele>15.982297</ele>
        <time>2020-10-07T03:36:14.486Z</time>
      </trkpt>
      <trkpt lat="58.61433" lon="22.53971">
        <ele>16.781802</ele>
        <time>2020-10-07T03:36:42.565Z</time>
      </trkpt>
      <trkpt lat="58.61407" lon="22.53923">
        <ele>17.038547</ele>
        <time>2020-10-07T03:36:52.801Z</time>
      </trkpt>
      <trkpt lat="58.61371" lon="22.53891">
        <ele>17.241998</ele>
        <time>2020-10-07T03:37:04.297Z</time>
      </trkpt>
      <trkpt lat="58.61357" lon="22.53879">
        <ele>17.310705</ele>
        <time>2020-10-07T03:37:08.664Z</time>
      </trkpt>
      <trkpt lat="58.61256" lon="22.53761">
        <ele>17.843877</ele>
        <time>2020-10-07T03:37:40.129Z</time>
      </trkpt>
      <trkpt lat="58.61205" lon="22.53681">
        <ele>17.566607</ele>
        <time>2020-10-07T03:37:55.458Z</time>
      </trkpt>
      <trkpt lat="58.61016" lon="22.5342">
        <ele>15.839677</ele>
        <time>2020-10-07T03:38:46.524Z</time>
      </trkpt>
      <trkpt lat="58.60815" lon="22.53028">
        <ele>14.338443</ele>
        <time>2020-10-07T03:39:51.595Z</time>
      </trkpt>
      <trkpt lat="58.60744" lon="22.52913">
        <ele>14.718529</ele>
        <time>2020-10-07T03:40:16.802Z</time>
      </trkpt>
      <trkpt lat="58.60608" lon="22.52732">
        <ele>15.434226</ele>
        <time>2020-10-07T03:41:03.012Z</time>
      </trkpt>
      <trkpt lat="58.60515" lon="22.52617">
        <ele>15.596567</ele>
        <time>2020-10-07T03:41:30.609Z</time>
      </trkpt>
      <trkpt lat="58.6038" lon="22.52468">
        <ele>15.023108</ele>
        <time>2020-10-07T03:42:06.238Z</time>
      </trkpt>
      <trkpt lat="58.60294" lon="22.52383">
        <ele>14.872042</ele>
        <time>2020-10-07T03:42:29.224Z</time>
      </trkpt>
      <trkpt lat="58.6018" lon="22.52287">
        <ele>14.916786</ele>
        <time>2020-10-07T03:43:00.481Z</time>
      </trkpt>
      <trkpt lat="58.60092" lon="22.52178">
        <ele>15.194367</ele>
        <time>2020-10-07T03:43:28.094Z</time>
      </trkpt>
      <trkpt lat="58.60067" lon="22.52116">
        <ele>15.337026</ele>
        <time>2020-10-07T03:43:38.703Z</time>
      </trkpt>
      <trkpt lat="58.60049" lon="22.5202">
        <ele>15.563453</ele>
        <time>2020-10-07T03:43:52.735Z</time>
      </trkpt>
      <trkpt lat="58.60035" lon="22.51842">
        <ele>15.960554</ele>
        <time>2020-10-07T03:44:17.387Z</time>
      </trkpt>
      <trkpt lat="58.60004" lon="22.51701">
        <ele>16.566697</ele>
        <time>2020-10-07T03:44:38.944Z</time>
      </trkpt>
      <trkpt lat="58.5994" lon="22.51537">
        <ele>17.438839</ele>
        <time>2020-10-07T03:45:09.751Z</time>
      </trkpt>
      <trkpt lat="58.59866" lon="22.51376">
        <ele>18.479513</ele>
        <time>2020-10-07T03:45:42.089Z</time>
      </trkpt>
      <trkpt lat="58.59775" lon="22.51297">
        <ele>19.253819</ele>
        <time>2020-10-07T03:46:10.033Z</time>
      </trkpt>
      <trkpt lat="58.59726" lon="22.5129">
        <ele>19.434435</ele>
        <time>2020-10-07T03:46:23.213Z</time>
      </trkpt>
      <trkpt lat="58.59693" lon="22.51299">
        <ele>19.556168</ele>
        <time>2020-10-07T03:46:31.824Z</time>
      </trkpt>
      <trkpt lat="58.59618" lon="22.5135">
        <ele>19.794733</ele>
        <time>2020-10-07T03:46:51.845Z</time>
      </trkpt>
      <trkpt lat="58.59549" lon="22.51493">
        <ele>19.630068</ele>
        <time>2020-10-07T03:47:16.252Z</time>
      </trkpt>
      <trkpt lat="58.59531" lon="22.51527">
        <ele>19.589481</ele>
        <time>2020-10-07T03:47:22.192Z</time>
      </trkpt>
      <trkpt lat="58.59509" lon="22.51578">
        <ele>19.53335</ele>
        <time>2020-10-07T03:47:30.415Z</time>
      </trkpt>
      <trkpt lat="58.5938" lon="22.51804">
        <ele>20.177619</ele>
        <time>2020-10-07T03:48:15.353Z</time>
      </trkpt>
      <trkpt lat="58.59313" lon="22.52011">
        <ele>22.265101</ele>
        <time>2020-10-07T03:48:54.574Z</time>
      </trkpt>
      <trkpt lat="58.59249" lon="22.52178">
        <ele>24.381436</ele>
        <time>2020-10-07T03:49:31.961Z</time>
      </trkpt>
      <trkpt lat="58.59153" lon="22.52356">
        <ele>27.331152</ele>
        <time>2020-10-07T03:50:17.162Z</time>
      </trkpt>
      <trkpt lat="58.59094" lon="22.52443">
        <ele>28.187593</ele>
        <time>2020-10-07T03:50:40.405Z</time>
      </trkpt>
      <trkpt lat="58.59057" lon="22.52484">
        <ele>28.643989</ele>
        <time>2020-10-07T03:50:52.803Z</time>
      </trkpt>
      <trkpt lat="58.58868" lon="22.52601">
        <ele>29.799099</ele>
        <time>2020-10-07T03:51:44.991Z</time>
      </trkpt>
      <trkpt lat="58.58757" lon="22.52745">
        <ele>29.871112</ele>
        <time>2020-10-07T03:52:18.878Z</time>
      </trkpt>
      <trkpt lat="58.58664" lon="22.52831">
        <ele>29.704855</ele>
        <time>2020-10-07T03:52:43.578Z</time>
      </trkpt>
      <trkpt lat="58.58634" lon="22.5289">
        <ele>29.368234</ele>
        <time>2020-10-07T03:52:53.433Z</time>
      </trkpt>
      <trkpt lat="58.58562" lon="22.53067">
        <ele>28.438471</ele>
        <time>2020-10-07T03:53:19.183Z</time>
      </trkpt>
      <trkpt lat="58.58524" lon="22.53126">
        <ele>27.892277</ele>
        <time>2020-10-07T03:53:29.818Z</time>
      </trkpt>
      <trkpt lat="58.5851" lon="22.53137">
        <ele>27.709358</ele>
        <time>2020-10-07T03:53:32.957Z</time>
      </trkpt>
      <trkpt lat="58.58344" lon="22.53274">
        <ele>25.40234</ele>
        <time>2020-10-07T03:54:10.973Z</time>
      </trkpt>
      <trkpt lat="58.58315" lon="22.533">
        <ele>24.942185</ele>
        <time>2020-10-07T03:54:17.735Z</time>
      </trkpt>
      <trkpt lat="58.58222" lon="22.53412">
        <ele>23.403114</ele>
        <time>2020-10-07T03:54:40.430Z</time>
      </trkpt>
      <trkpt lat="58.5822" lon="22.53413">
        <ele>23.379845</ele>
        <time>2020-10-07T03:54:40.742Z</time>
      </trkpt>
      <trkpt lat="58.57978" lon="22.53575">
        <ele>20.895659</ele>
        <time>2020-10-07T03:55:30.069Z</time>
      </trkpt>
      <trkpt lat="58.57812" lon="22.53685">
        <ele>20.109211</ele>
        <time>2020-10-07T03:56:08.176Z</time>
      </trkpt>
      <trkpt lat="58.5776" lon="22.53719">
        <ele>19.960605</ele>
        <time>2020-10-07T03:56:19.762Z</time>
      </trkpt>
      <trkpt lat="58.57754" lon="22.537">
        <ele>19.928275</ele>
        <time>2020-10-07T03:56:22.274Z</time>
      </trkpt>
      <trkpt lat="58.5773" lon="22.53627">
        <ele>19.746226</ele>
        <time>2020-10-07T03:56:31.515Z</time>
      </trkpt>
      <trkpt lat="58.57652" lon="22.53442">
        <ele>19.065029</ele>
        <time>2020-10-07T03:56:56.742Z</time>
      </trkpt>
      <trkpt lat="58.57439" lon="22.52937">
        <ele>17.556005</ele>
        <time>2020-10-07T03:58:07.348Z</time>
      </trkpt>
      <trkpt lat="58.57431" lon="22.52917">
        <ele>17.495182</ele>
        <time>2020-10-07T03:58:10.060Z</time>
      </trkpt>
      <trkpt lat="58.57411" lon="22.52841">
        <ele>17.2972</ele>
        <time>2020-10-07T03:58:19.183Z</time>
      </trkpt>
      <trkpt lat="58.57385" lon="22.52739">
        <ele>17.020076</ele>
        <time>2020-10-07T03:58:31.373Z</time>
      </trkpt>
      <trkpt lat="58.57369" lon="22.52625">
        <ele>16.734855</ele>
        <time>2020-10-07T03:58:43.912Z</time>
      </trkpt>
      <trkpt lat="58.57355" lon="22.52524">
        <ele>16.482002</ele>
        <time>2020-10-07T03:58:55.308Z</time>
      </trkpt>
      <trkpt lat="58.57343" lon="22.52321">
        <ele>15.955097</ele>
        <time>2020-10-07T03:59:17.580Z</time>
      </trkpt>
      <trkpt lat="58.57341" lon="22.51836">
        <ele>14.637562</ele>
        <time>2020-10-07T04:00:09.310Z</time>
      </trkpt>
      <trkpt lat="58.57323" lon="22.51595">
        <ele>14.303954</ele>
        <time>2020-10-07T04:00:35.915Z</time>
      </trkpt>
      <trkpt lat="58.57304" lon="22.51346">
        <ele>14.532368</ele>
        <time>2020-10-07T04:01:05.693Z</time>
      </trkpt>
      <trkpt lat="58.57284" lon="22.51193">
        <ele>14.934569</ele>
        <time>2020-10-07T04:01:26.354Z</time>
      </trkpt>
      <trkpt lat="58.57255" lon="22.51063">
        <ele>15.591593</ele>
        <time>2020-10-07T04:01:45.492Z</time>
      </trkpt>
      <trkpt lat="58.57244" lon="22.51015">
        <ele>15.882462</ele>
        <time>2020-10-07T04:01:52.758Z</time>
      </trkpt>
      <trkpt lat="58.57162" lon="22.5068">
        <ele>17.94674</ele>
        <time>2020-10-07T04:02:44.825Z</time>
      </trkpt>
      <trkpt lat="58.57136" lon="22.50517">
        <ele>18.902467</ele>
        <time>2020-10-07T04:03:08.484Z</time>
      </trkpt>
      <trkpt lat="58.57099" lon="22.50172">
        <ele>20.050219</ele>
        <time>2020-10-07T04:03:54.713Z</time>
      </trkpt>
      <trkpt lat="58.57081" lon="22.49744">
        <ele>19.238256</ele>
        <time>2020-10-07T04:04:42.322Z</time>
      </trkpt>
      <trkpt lat="58.57015" lon="22.4928">
        <ele>16.899682</ele>
        <time>2020-10-07T04:05:29.610Z</time>
      </trkpt>
      <trkpt lat="58.56995" lon="22.49179">
        <ele>16.386703</ele>
        <time>2020-10-07T04:05:41.216Z</time>
      </trkpt>
      <trkpt lat="58.56956" lon="22.49028">
        <ele>16.703911</ele>
        <time>2020-10-07T04:06:00.994Z</time>
      </trkpt>
      <trkpt lat="58.5692" lon="22.48794">
        <ele>17.298865</ele>
        <time>2020-10-07T04:06:33.849Z</time>
      </trkpt>
      <trkpt lat="58.56866" lon="22.48546">
        <ele>18.184806</ele>
        <time>2020-10-07T04:07:08.262Z</time>
      </trkpt>
      <trkpt lat="58.56844" lon="22.48442">
        <ele>18.611925</ele>
        <time>2020-10-07T04:07:22.484Z</time>
      </trkpt>
      <trkpt lat="58.56824" lon="22.4833">
        <ele>19.070602</ele>
        <time>2020-10-07T04:07:37.943Z</time>
      </trkpt>
      <trkpt lat="58.56798" lon="22.48063">
        <ele>20.232495</ele>
        <time>2020-10-07T04:08:15.207Z</time>
      </trkpt>
      <trkpt lat="58.56765" lon="22.47891">
        <ele>21.077453</ele>
        <time>2020-10-07T04:08:40.577Z</time>
      </trkpt>
      <trkpt lat="58.56718" lon="22.47722">
        <ele>21.067429</ele>
        <time>2020-10-07T04:09:03.706Z</time>
      </trkpt>
      <trkpt lat="58.56704" lon="22.47611">
        <ele>20.997702</ele>
        <time>2020-10-07T04:09:16.048Z</time>
      </trkpt>
      <trkpt lat="58.56706" lon="22.47471">
        <ele>20.63851</ele>
        <time>2020-10-07T04:09:30.586Z</time>
      </trkpt>
      <trkpt lat="58.56713" lon="22.47404">
        <ele>20.367196</ele>
        <time>2020-10-07T04:09:37.572Z</time>
      </trkpt>
      <trkpt lat="58.56748" lon="22.47255">
        <ele>19.711947</ele>
        <time>2020-10-07T04:09:54.474Z</time>
      </trkpt>
      <trkpt lat="58.56801" lon="22.47078">
        <ele>18.994554</ele>
        <time>2020-10-07T04:10:15.697Z</time>
      </trkpt>
      <trkpt lat="58.56942" lon="22.46715">
        <ele>17.79219</ele>
        <time>2020-10-07T04:11:04.122Z</time>
      </trkpt>
      <trkpt lat="58.57029" lon="22.46571">
        <ele>17.769927</ele>
        <time>2020-10-07T04:11:29.540Z</time>
      </trkpt>
      <trkpt lat="58.57087" lon="22.46451">
        <ele>17.897775</ele>
        <time>2020-10-07T04:11:49.275Z</time>
      </trkpt>
      <trkpt lat="58.57108" lon="22.46407">
        <ele>18.065852</ele>
        <time>2020-10-07T04:11:56.701Z</time>
      </trkpt>
      <trkpt lat="58.57131" lon="22.46343">
        <ele>18.407413</ele>
        <time>2020-10-07T04:12:06.947Z</time>
      </trkpt>
      <trkpt lat="58.57155" lon="22.4625">
        <ele>18.858347</ele>
        <time>2020-10-07T04:12:20.839Z</time>
      </trkpt>
      <trkpt lat="58.57183" lon="22.46181">
        <ele>19.246848</ele>
        <time>2020-10-07T04:12:33.290Z</time>
      </trkpt>
      <trkpt lat="58.57201" lon="22.4616">
        <ele>19.416271</ele>
        <time>2020-10-07T04:12:38.601Z</time>
      </trkpt>
      <trkpt lat="58.57223" lon="22.4615">
        <ele>19.615045</ele>
        <time>2020-10-07T04:12:44.835Z</time>
      </trkpt>
      <trkpt lat="58.57314" lon="22.46175">
        <ele>20.425747</ele>
        <time>2020-10-07T04:13:09.295Z</time>
      </trkpt>
      <trkpt lat="58.57353" lon="22.46168">
        <ele>20.768959</ele>
        <time>2020-10-07T04:13:19.674Z</time>
      </trkpt>
      <trkpt lat="58.57454" lon="22.45935">
        <ele>20.734911</ele>
        <time>2020-10-07T04:13:55.604Z</time>
      </trkpt>
      <trkpt lat="58.57545" lon="22.4583">
        <ele>19.793732</ele>
        <time>2020-10-07T04:14:16.051Z</time>
      </trkpt>
      <trkpt lat="58.57573" lon="22.45771">
        <ele>19.186863</ele>
        <time>2020-10-07T04:14:23.757Z</time>
      </trkpt>
      <trkpt lat="58.57608" lon="22.45668">
        <ele>18.255632</ele>
        <time>2020-10-07T04:14:35.234Z</time>
      </trkpt>
      <trkpt lat="58.57645" lon="22.45512">
        <ele>16.73806</ele>
        <time>2020-10-07T04:14:51.229Z</time>
      </trkpt>
      <trkpt lat="58.57666" lon="22.45415">
        <ele>15.781261</ele>
        <time>2020-10-07T04:15:01.022Z</time>
      </trkpt>
      <trkpt lat="58.57673" lon="22.45323">
        <ele>14.92812</ele>
        <time>2020-10-07T04:15:09.838Z</time>
      </trkpt>
      <trkpt lat="58.57666" lon="22.4508">
        <ele>13.000988</ele>
        <time>2020-10-07T04:15:32.999Z</time>
      </trkpt>
      <trkpt lat="58.5768" lon="22.44796">
        <ele>11.347877</ele>
        <time>2020-10-07T04:16:00.837Z</time>
      </trkpt>
      <trkpt lat="58.5768" lon="22.4476">
        <ele>11.18461</ele>
        <time>2020-10-07T04:16:04.486Z</time>
      </trkpt>
      <trkpt lat="58.57671" lon="22.44583">
        <ele>10.688104</ele>
        <time>2020-10-07T04:16:23.858Z</time>
      </trkpt>
      <trkpt lat="58.57638" lon="22.44353">
        <ele>11.246427</ele>
        <time>2020-10-07T04:16:54.003Z</time>
      </trkpt>
      <trkpt lat="58.57565" lon="22.43767">
        <ele>14.028813</ele>
        <time>2020-10-07T04:18:17.675Z</time>
      </trkpt>
      <trkpt lat="58.57551" lon="22.43462">
        <ele>15.266116</ele>
        <time>2020-10-07T04:18:55.905Z</time>
      </trkpt>
      <trkpt lat="58.57529" lon="22.43346">
        <ele>15.756455</ele>
        <time>2020-10-07T04:19:12.067Z</time>
      </trkpt>
      <trkpt lat="58.5743" lon="22.43053">
        <ele>17.89016</ele>
        <time>2020-10-07T04:20:02.850Z</time>
      </trkpt>
      <trkpt lat="58.57316" lon="22.4249">
        <ele>21.06306</ele>
        <time>2020-10-07T04:21:26.033Z</time>
      </trkpt>
      <trkpt lat="58.5731" lon="22.42357">
        <ele>21.6806</ele>
        <time>2020-10-07T04:21:43.403Z</time>
      </trkpt>
      <trkpt lat="58.57294" lon="22.42305">
        <ele>21.926147</ele>
        <time>2020-10-07T04:21:51.194Z</time>
      </trkpt>
      <trkpt lat="58.5728" lon="22.42263">
        <ele>22.128618</ele>
        <time>2020-10-07T04:21:57.923Z</time>
      </trkpt>
      <trkpt lat="58.57264" lon="22.42222">
        <ele>22.32697</ele>
        <time>2020-10-07T04:22:04.480Z</time>
      </trkpt>
      <trkpt lat="58.5724" lon="22.42179">
        <ele>22.579979</ele>
        <time>2020-10-07T04:22:12.814Z</time>
      </trkpt>
      <trkpt lat="58.57222" lon="22.42165">
        <ele>22.729186</ele>
        <time>2020-10-07T04:22:17.699Z</time>
      </trkpt>
      <trkpt lat="58.57203" lon="22.42162">
        <ele>22.87129</ele>
        <time>2020-10-07T04:22:22.614Z</time>
      </trkpt>
      <trkpt lat="58.5712" lon="22.42168">
        <ele>23.530062</ele>
        <time>2020-10-07T04:22:44.091Z</time>
      </trkpt>
      <trkpt lat="58.57025" lon="22.42205">
        <ele>24.318465</ele>
        <time>2020-10-07T04:23:09.284Z</time>
      </trkpt>
      <trkpt lat="58.56991" lon="22.42195">
        <ele>24.575688</ele>
        <time>2020-10-07T04:23:17.821Z</time>
      </trkpt>
      <trkpt lat="58.56961" lon="22.42143">
        <ele>24.659875</ele>
        <time>2020-10-07T04:23:27.799Z</time>
      </trkpt>
      <trkpt lat="58.56902" lon="22.41571">
        <ele>24.761925</ele>
        <time>2020-10-07T04:24:36.151Z</time>
      </trkpt>
      <trkpt lat="58.5689" lon="22.41324">
        <ele>23.860165</ele>
        <time>2020-10-07T04:25:01.562Z</time>
      </trkpt>
      <trkpt lat="58.56896" lon="22.41212">
        <ele>23.41335</ele>
        <time>2020-10-07T04:25:12.913Z</time>
      </trkpt>
      <trkpt lat="58.5688" lon="22.41144">
        <ele>23.423107</ele>
        <time>2020-10-07T04:25:20.760Z</time>
      </trkpt>
      <trkpt lat="58.56862" lon="22.41103">
        <ele>23.45324</ele>
        <time>2020-10-07T04:25:27.116Z</time>
      </trkpt>
      <trkpt lat="58.56857" lon="22.41094">
        <ele>23.460191</ele>
        <time>2020-10-07T04:25:28.240Z</time>
      </trkpt>
      <trkpt lat="58.56783" lon="22.41003">
        <ele>23.555071</ele>
        <time>2020-10-07T04:25:49.301Z</time>
      </trkpt>
      <trkpt lat="58.56744" lon="22.40933">
        <ele>23.967191</ele>
        <time>2020-10-07T04:26:02.848Z</time>
      </trkpt>
      <trkpt lat="58.56714" lon="22.40907">
        <ele>24.377695</ele>
        <time>2020-10-07T04:26:12.165Z</time>
      </trkpt>
      <trkpt lat="58.56666" lon="22.40903">
        <ele>24.985215</ele>
        <time>2020-10-07T04:26:26.172Z</time>
      </trkpt>
      <trkpt lat="58.5654" lon="22.40952">
        <ele>26.299825</ele>
        <time>2020-10-07T04:27:01.065Z</time>
      </trkpt>
      <trkpt lat="58.56468" lon="22.40938">
        <ele>26.870286</ele>
        <time>2020-10-07T04:27:19.212Z</time>
      </trkpt>
      <trkpt lat="58.56412" lon="22.40888">
        <ele>27.234008</ele>
        <time>2020-10-07T04:27:34.289Z</time>
      </trkpt>
      <trkpt lat="58.56311" lon="22.40729">
        <ele>27.184883</ele>
        <time>2020-10-07T04:28:03.592Z</time>
      </trkpt>
      <trkpt lat="58.56256" lon="22.40598">
        <ele>26.535024</ele>
        <time>2020-10-07T04:28:21.609Z</time>
      </trkpt>
      <trkpt lat="58.56213" lon="22.40397">
        <ele>25.19679</ele>
        <time>2020-10-07T04:28:42.659Z</time>
      </trkpt>
      <trkpt lat="58.56199" lon="22.40335">
        <ele>24.583643</ele>
        <time>2020-10-07T04:28:48.956Z</time>
      </trkpt>
      <trkpt lat="58.56189" lon="22.40271">
        <ele>23.883383</ele>
        <time>2020-10-07T04:28:55.007Z</time>
      </trkpt>
      <trkpt lat="58.56192" lon="22.40191">
        <ele>23.033065</ele>
        <time>2020-10-07T04:29:02.307Z</time>
      </trkpt>
      <trkpt lat="58.5621" lon="22.40082">
        <ele>21.828212</ele>
        <time>2020-10-07T04:29:12.519Z</time>
      </trkpt>
      <trkpt lat="58.56284" lon="22.3988">
        <ele>20.020407</ele>
        <time>2020-10-07T04:29:36.155Z</time>
      </trkpt>
      <trkpt lat="58.56299" lon="22.39802">
        <ele>19.467166</ele>
        <time>2020-10-07T04:29:44.731Z</time>
      </trkpt>
      <trkpt lat="58.56322" lon="22.3962">
        <ele>18.461902</ele>
        <time>2020-10-07T04:30:04.385Z</time>
      </trkpt>
      <trkpt lat="58.56333" lon="22.39534">
        <ele>18.036666</ele>
        <time>2020-10-07T04:30:13.546Z</time>
      </trkpt>
      <trkpt lat="58.56383" lon="22.39258">
        <ele>16.250353</ele>
        <time>2020-10-07T04:30:42.197Z</time>
      </trkpt>
      <trkpt lat="58.56407" lon="22.39059">
        <ele>14.934732</ele>
        <time>2020-10-07T04:31:16.955Z</time>
      </trkpt>
      <trkpt lat="58.56413" lon="22.38944">
        <ele>14.662253</ele>
        <time>2020-10-07T04:31:37.284Z</time>
      </trkpt>
      <trkpt lat="58.56333" lon="22.37622">
        <ele>12.195483</ele>
        <time>2020-10-07T04:35:46.991Z</time>
      </trkpt>
      <trkpt lat="58.5631" lon="22.37386">
        <ele>12.68304</ele>
        <time>2020-10-07T04:36:36.626Z</time>
      </trkpt>
      <trkpt lat="58.56296" lon="22.37295">
        <ele>13.26206</ele>
        <time>2020-10-07T04:36:57.226Z</time>
      </trkpt>
      <trkpt lat="58.5621" lon="22.37003">
        <ele>15.596049</ele>
        <time>2020-10-07T04:38:11.726Z</time>
      </trkpt>
      <trkpt lat="58.56156" lon="22.36653">
        <ele>18.593167</ele>
        <time>2020-10-07T04:39:34.936Z</time>
      </trkpt>
      <trkpt lat="58.56151" lon="22.36618">
        <ele>18.89575</ele>
        <time>2020-10-07T04:39:43.598Z</time>
      </trkpt>
      <trkpt lat="58.56152" lon="22.36559">
        <ele>19.384191</ele>
        <time>2020-10-07T04:39:56.966Z</time>
      </trkpt>
      <trkpt lat="58.56157" lon="22.36466">
        <ele>20.157606</ele>
        <time>2020-10-07T04:40:18.190Z</time>
      </trkpt>
      <trkpt lat="58.56155" lon="22.36418">
        <ele>20.558493</ele>
        <time>2020-10-07T04:40:29.248Z</time>
      </trkpt>
      <trkpt lat="58.56143" lon="22.36324">
        <ele>20.998761</ele>
        <time>2020-10-07T04:40:50.913Z</time>
      </trkpt>
      <trkpt lat="58.56153" lon="22.36104">
        <ele>21.885804</ele>
        <time>2020-10-07T04:41:36.482Z</time>
      </trkpt>
      <trkpt lat="58.56151" lon="22.35847">
        <ele>21.992978</ele>
        <time>2020-10-07T04:42:26.816Z</time>
      </trkpt>
      <trkpt lat="58.56123" lon="22.35628">
        <ele>21.744715</ele>
        <time>2020-10-07T04:43:09.439Z</time>
      </trkpt>
      <trkpt lat="58.56016" lon="22.3518">
        <ele>20.570591</ele>
        <time>2020-10-07T04:44:40.410Z</time>
      </trkpt>
      <trkpt lat="58.56006" lon="22.35084">
        <ele>20.31854</ele>
        <time>2020-10-07T04:44:58.537Z</time>
      </trkpt>
      <trkpt lat="58.56005" lon="22.34924">
        <ele>19.852381</ele>
        <time>2020-10-07T04:45:28.020Z</time>
      </trkpt>
      <trkpt lat="58.55997" lon="22.34796">
        <ele>19.477848</ele>
        <time>2020-10-07T04:45:51.705Z</time>
      </trkpt>
      <trkpt lat="58.56017" lon="22.34648">
        <ele>18.972058</ele>
        <time>2020-10-07T04:46:19.607Z</time>
      </trkpt>
      <trkpt lat="58.56021" lon="22.34583">
        <ele>18.742056</ele>
        <time>2020-10-07T04:46:31.385Z</time>
      </trkpt>
      <trkpt lat="58.56038" lon="22.34474">
        <ele>18.338097</ele>
        <time>2020-10-07T04:46:51.971Z</time>
      </trkpt>
      <trkpt lat="58.56034" lon="22.34217">
        <ele>17.517284</ele>
        <time>2020-10-07T04:47:38.389Z</time>
      </trkpt>
      <trkpt lat="58.56023" lon="22.34101">
        <ele>17.156803</ele>
        <time>2020-10-07T04:47:59.996Z</time>
      </trkpt>
      <trkpt lat="58.55979" lon="22.33884">
        <ele>17.160167</ele>
        <time>2020-10-07T04:48:44.752Z</time>
      </trkpt>
      <trkpt lat="58.55931" lon="22.33687">
        <ele>17.401373</ele>
        <time>2020-10-07T04:49:28.828Z</time>
      </trkpt>
      <trkpt lat="58.55924" lon="22.33611">
        <ele>17.573843</ele>
        <time>2020-10-07T04:49:44.829Z</time>
      </trkpt>
      <trkpt lat="58.55926" lon="22.33505">
        <ele>17.810554</ele>
        <time>2020-10-07T04:50:06.654Z</time>
      </trkpt>
      <trkpt lat="58.55916" lon="22.33325">
        <ele>18.014751</ele>
        <time>2020-10-07T04:50:43.018Z</time>
      </trkpt>
      <trkpt lat="58.55936" lon="22.33022">
        <ele>17.815817</ele>
        <time>2020-10-07T04:51:41.424Z</time>
      </trkpt>
      <trkpt lat="58.5597" lon="22.32862">
        <ele>17.15065</ele>
        <time>2020-10-07T04:52:13.460Z</time>
      </trkpt>
      <trkpt lat="58.55975" lon="22.3245">
        <ele>14.409801</ele>
        <time>2020-10-07T04:53:24.072Z</time>
      </trkpt>
      <trkpt lat="58.55979" lon="22.32395">
        <ele>13.97043</ele>
        <time>2020-10-07T04:53:29.206Z</time>
      </trkpt>
      <trkpt lat="58.55983" lon="22.32358">
        <ele>13.65391</ele>
        <time>2020-10-07T04:53:32.732Z</time>
      </trkpt>
      <trkpt lat="58.5599" lon="22.32288">
        <ele>13.066006</ele>
        <time>2020-10-07T04:53:39.390Z</time>
      </trkpt>
      <trkpt lat="58.55993" lon="22.32249">
        <ele>12.743316</ele>
        <time>2020-10-07T04:53:43.146Z</time>
      </trkpt>
      <trkpt lat="58.55998" lon="22.32075">
        <ele>11.305781</ele>
        <time>2020-10-07T04:53:59.479Z</time>
      </trkpt>
      <trkpt lat="58.56005" lon="22.31958">
        <ele>10.842647</ele>
        <time>2020-10-07T04:54:11.776Z</time>
      </trkpt>
      <trkpt lat="58.56008" lon="22.31924">
        <ele>10.745711</ele>
        <time>2020-10-07T04:54:15.457Z</time>
      </trkpt>
      <trkpt lat="58.56013" lon="22.31868">
        <ele>10.58826</ele>
        <time>2020-10-07T04:54:21.558Z</time>
      </trkpt>
      <trkpt lat="58.56036" lon="22.3159">
        <ele>10.270372</ele>
        <time>2020-10-07T04:54:53.266Z</time>
      </trkpt>
      <trkpt lat="58.56073" lon="22.31413">
        <ele>10.478971</ele>
        <time>2020-10-07T04:55:16.488Z</time>
      </trkpt>
      <trkpt lat="58.56084" lon="22.3137">
        <ele>10.618298</ele>
        <time>2020-10-07T04:55:22.673Z</time>
      </trkpt>
      <trkpt lat="58.56057" lon="22.31378">
        <ele>10.993758</ele>
        <time>2020-10-07T04:55:29.578Z</time>
      </trkpt>
      <trkpt lat="58.56002" lon="22.31399">
        <ele>11.777914</ele>
        <time>2020-10-07T04:55:44.843Z</time>
      </trkpt>
      <trkpt lat="58.55983" lon="22.31406">
        <ele>12.043585</ele>
        <time>2020-10-07T04:55:50.226Z</time>
      </trkpt>
      <trkpt lat="58.5576" lon="22.31493">
        <ele>15.936141</ele>
        <time>2020-10-07T04:56:59.344Z</time>
      </trkpt>
      <trkpt lat="58.55754" lon="22.31496">
        <ele>16.051201</ele>
        <time>2020-10-07T04:57:01.182Z</time>
      </trkpt>
      <trkpt lat="58.55698" lon="22.31517">
        <ele>16.576392</ele>
        <time>2020-10-07T04:57:16.821Z</time>
      </trkpt>
      <trkpt lat="58.55621" lon="22.31558">
        <ele>17.024276</ele>
        <time>2020-10-07T04:57:36.408Z</time>
      </trkpt>
      <trkpt lat="58.55529" lon="22.31652">
        <ele>17.238427</ele>
        <time>2020-10-07T04:57:58.847Z</time>
      </trkpt>
      <trkpt lat="58.55461" lon="22.31752">
        <ele>17.015467</ele>
        <time>2020-10-07T04:58:16.786Z</time>
      </trkpt>
      <trkpt lat="58.55428" lon="22.31816">
        <ele>16.892881</ele>
        <time>2020-10-07T04:58:26.736Z</time>
      </trkpt>
      <trkpt lat="58.55364" lon="22.31975">
        <ele>17.112733</ele>
        <time>2020-10-07T04:58:49.841Z</time>
      </trkpt>
      <trkpt lat="58.55327" lon="22.32122">
        <ele>17.365724</ele>
        <time>2020-10-07T04:59:10.580Z</time>
      </trkpt>
      <trkpt lat="58.55286" lon="22.32318">
        <ele>18.555381</ele>
        <time>2020-10-07T04:59:39.948Z</time>
      </trkpt>
      <trkpt lat="58.55227" lon="22.3255">
        <ele>19.903017</ele>
        <time>2020-10-07T05:00:17.201Z</time>
      </trkpt>
      <trkpt lat="58.55137" lon="22.32752">
        <ele>20.900073</ele>
        <time>2020-10-07T05:00:52.053Z</time>
      </trkpt>
      <trkpt lat="58.54922" lon="22.33178">
        <ele>20.616671</ele>
        <time>2020-10-07T05:01:59.099Z</time>
      </trkpt>
      <trkpt lat="58.54793" lon="22.33418">
        <ele>19.829211</ele>
        <time>2020-10-07T05:02:36.518Z</time>
      </trkpt>
      <trkpt lat="58.54697" lon="22.33553">
        <ele>18.836375</ele>
        <time>2020-10-07T05:03:00.369Z</time>
      </trkpt>
      <trkpt lat="58.54587" lon="22.3366">
        <ele>17.533526</ele>
        <time>2020-10-07T05:03:23.819Z</time>
      </trkpt>
      <trkpt lat="58.54477" lon="22.33729">
        <ele>16.012742</ele>
        <time>2020-10-07T05:03:45.084Z</time>
      </trkpt>
      <trkpt lat="58.54375" lon="22.33765">
        <ele>15.133786</ele>
        <time>2020-10-07T05:04:05.006Z</time>
      </trkpt>
      <trkpt lat="58.54278" lon="22.33774">
        <ele>14.435409</ele>
        <time>2020-10-07T05:04:24.981Z</time>
      </trkpt>
      <trkpt lat="58.54258" lon="22.33774">
        <ele>14.444325</ele>
        <time>2020-10-07T05:04:29.345Z</time>
      </trkpt>
      <trkpt lat="58.5396" lon="22.33772">
        <ele>14.793578</ele>
        <time>2020-10-07T05:05:37.128Z</time>
      </trkpt>
      <trkpt lat="58.53858" lon="22.33799">
        <ele>15.132539</ele>
        <time>2020-10-07T05:06:01.766Z</time>
      </trkpt>
      <trkpt lat="58.53783" lon="22.33834">
        <ele>15.451217</ele>
        <time>2020-10-07T05:06:20.409Z</time>
      </trkpt>
      <trkpt lat="58.53762" lon="22.33844">
        <ele>15.543471</ele>
        <time>2020-10-07T05:06:25.834Z</time>
      </trkpt>
      <trkpt lat="58.53257" lon="22.34084">
        <ele>17.296796</ele>
        <time>2020-10-07T05:08:28.880Z</time>
      </trkpt>
      <trkpt lat="58.53096" lon="22.34168">
        <ele>17.777113</ele>
        <time>2020-10-07T05:09:06.606Z</time>
      </trkpt>
      <trkpt lat="58.52959" lon="22.3424">
        <ele>18.7554</ele>
        <time>2020-10-07T05:09:42.743Z</time>
      </trkpt>
      <trkpt lat="58.52882" lon="22.343">
        <ele>19.512557</ele>
        <time>2020-10-07T05:10:05.103Z</time>
      </trkpt>
      <trkpt lat="58.52843" lon="22.34344">
        <ele>19.696692</ele>
        <time>2020-10-07T05:10:16.912Z</time>
      </trkpt>
      <trkpt lat="58.52827" lon="22.34363">
        <ele>19.759171</ele>
        <time>2020-10-07T05:10:21.664Z</time>
      </trkpt>
      <trkpt lat="58.52799" lon="22.34394">
        <ele>19.864155</ele>
        <time>2020-10-07T05:10:29.416Z</time>
      </trkpt>
      <trkpt lat="58.52718" lon="22.34508">
        <ele>20.069622</ele>
        <time>2020-10-07T05:10:51.740Z</time>
      </trkpt>
      <trkpt lat="58.52691" lon="22.34453">
        <ele>19.744112</ele>
        <time>2020-10-07T05:10:59.692Z</time>
      </trkpt>
      <trkpt lat="58.52606" lon="22.3429">
        <ele>18.758047</ele>
        <time>2020-10-07T05:11:23.000Z</time>
      </trkpt>
      <trkpt lat="58.52514" lon="22.34145">
        <ele>17.491426</ele>
        <time>2020-10-07T05:11:45.756Z</time>
      </trkpt>
      <trkpt lat="58.52172" lon="22.3368">
        <ele>13.158079</ele>
        <time>2020-10-07T05:13:06.156Z</time>
      </trkpt>
      <trkpt lat="58.51951" lon="22.33385">
        <ele>12.644425</ele>
        <time>2020-10-07T05:14:04.926Z</time>
      </trkpt>
      <trkpt lat="58.51902" lon="22.33327">
        <ele>12.612041</ele>
        <time>2020-10-07T05:14:17.911Z</time>
      </trkpt>
      <trkpt lat="58.51895" lon="22.3332">
        <ele>12.607865</ele>
        <time>2020-10-07T05:14:19.701Z</time>
      </trkpt>
      <trkpt lat="58.51853" lon="22.33234">
        <ele>12.565315</ele>
        <time>2020-10-07T05:14:33.441Z</time>
      </trkpt>
      <trkpt lat="58.51755" lon="22.32923">
        <ele>12.39338</ele>
        <time>2020-10-07T05:15:15.005Z</time>
      </trkpt>
      <trkpt lat="58.51712" lon="22.32717">
        <ele>12.267667</ele>
        <time>2020-10-07T05:15:39.825Z</time>
      </trkpt>
      <trkpt lat="58.51684" lon="22.32596">
        <ele>12.342969</ele>
        <time>2020-10-07T05:15:55.376Z</time>
      </trkpt>
      <trkpt lat="58.51654" lon="22.32474">
        <ele>12.524104</ele>
        <time>2020-10-07T05:16:11.842Z</time>
      </trkpt>
      <trkpt lat="58.51642" lon="22.32426">
        <ele>12.596332</ele>
        <time>2020-10-07T05:16:18.634Z</time>
      </trkpt>
      <trkpt lat="58.51631" lon="22.32384">
        <ele>12.659627</ele>
        <time>2020-10-07T05:16:24.605Z</time>
      </trkpt>
      <trkpt lat="58.51597" lon="22.32304">
        <ele>12.810608</ele>
        <time>2020-10-07T05:16:37.897Z</time>
      </trkpt>
      <trkpt lat="58.51518" lon="22.32153">
        <ele>13.134986</ele>
        <time>2020-10-07T05:17:04.412Z</time>
      </trkpt>
      <trkpt lat="58.51498" lon="22.32128">
        <ele>13.204805</ele>
        <time>2020-10-07T05:17:09.859Z</time>
      </trkpt>
      <trkpt lat="58.51413" lon="22.32026">
        <ele>12.657294</ele>
        <time>2020-10-07T05:17:30.708Z</time>
      </trkpt>
      <trkpt lat="58.51396" lon="22.32001">
        <ele>12.529627</ele>
        <time>2020-10-07T05:17:34.935Z</time>
      </trkpt>
      <trkpt lat="58.51373" lon="22.31946">
        <ele>12.309088</ele>
        <time>2020-10-07T05:17:42.064Z</time>
      </trkpt>
      <trkpt lat="58.51352" lon="22.31863">
        <ele>11.985535</ele>
        <time>2020-10-07T05:17:51.314Z</time>
      </trkpt>
      <trkpt lat="58.51334" lon="22.31778">
        <ele>11.61164</ele>
        <time>2020-10-07T05:18:00.823Z</time>
      </trkpt>
      <trkpt lat="58.51313" lon="22.31663">
        <ele>11.119208</ele>
        <time>2020-10-07T05:18:13.404Z</time>
      </trkpt>
      <trkpt lat="58.51305" lon="22.31637">
        <ele>11.000526</ele>
        <time>2020-10-07T05:18:16.518Z</time>
      </trkpt>
      <trkpt lat="58.51271" lon="22.31574">
        <ele>10.677634</ele>
        <time>2020-10-07T05:18:26.221Z</time>
      </trkpt>
      <trkpt lat="58.51135" lon="22.31464">
        <ele>9.978574</ele>
        <time>2020-10-07T05:18:57.128Z</time>
      </trkpt>
      <trkpt lat="58.51095" lon="22.31418">
        <ele>9.629365</ele>
        <time>2020-10-07T05:19:06.480Z</time>
      </trkpt>
      <trkpt lat="58.51059" lon="22.31358">
        <ele>9.194283</ele>
        <time>2020-10-07T05:19:15.935Z</time>
      </trkpt>
      <trkpt lat="58.51043" lon="22.31346">
        <ele>9.029887</ele>
        <time>2020-10-07T05:19:19.457Z</time>
      </trkpt>
      <trkpt lat="58.50941" lon="22.31346">
        <ele>8.088882</ele>
        <time>2020-10-07T05:19:38.952Z</time>
      </trkpt>
      <trkpt lat="58.50829" lon="22.31332">
        <ele>6.946172</ele>
        <time>2020-10-07T05:20:00.234Z</time>
      </trkpt>
      <trkpt lat="58.50712" lon="22.3136">
        <ele>6.523687</ele>
        <time>2020-10-07T05:20:23.914Z</time>
      </trkpt>
      <trkpt lat="58.5069" lon="22.31357">
        <ele>6.55261</ele>
        <time>2020-10-07T05:20:28.852Z</time>
      </trkpt>
      <trkpt lat="58.50668" lon="22.31342">
        <ele>6.582792</ele>
        <time>2020-10-07T05:20:34.217Z</time>
      </trkpt>
      <trkpt lat="58.5056" lon="22.31219">
        <ele>7.370428</ele>
        <time>2020-10-07T05:21:07.002Z</time>
      </trkpt>
      <trkpt lat="58.50475" lon="22.31146">
        <ele>8.479525</ele>
        <time>2020-10-07T05:21:33.108Z</time>
      </trkpt>
      <trkpt lat="58.50454" lon="22.31112">
        <ele>8.816525</ele>
        <time>2020-10-07T05:21:40.871Z</time>
      </trkpt>
      <trkpt lat="58.50439" lon="22.31073">
        <ele>8.956629</ele>
        <time>2020-10-07T05:21:47.628Z</time>
      </trkpt>
      <trkpt lat="58.50385" lon="22.30857">
        <ele>9.637936</ele>
        <time>2020-10-07T05:22:18.389Z</time>
      </trkpt>
      <trkpt lat="58.50325" lon="22.30719">
        <ele>9.585394</ele>
        <time>2020-10-07T05:22:38.229Z</time>
      </trkpt>
      <trkpt lat="58.50284" lon="22.30633">
        <ele>9.372935</ele>
        <time>2020-10-07T05:22:50.901Z</time>
      </trkpt>
      <trkpt lat="58.50278" lon="22.30619">
        <ele>9.339654</ele>
        <time>2020-10-07T05:22:52.885Z</time>
      </trkpt>
      <trkpt lat="58.50228" lon="22.30541">
        <ele>9.177178</ele>
        <time>2020-10-07T05:23:06.242Z</time>
      </trkpt>
      <trkpt lat="58.5017" lon="22.30476">
        <ele>9.164195</ele>
        <time>2020-10-07T05:23:20.824Z</time>
      </trkpt>
      <trkpt lat="58.50066" lon="22.30392">
        <ele>9.201117</ele>
        <time>2020-10-07T05:23:46.776Z</time>
      </trkpt>
      <trkpt lat="58.50021" lon="22.30375">
        <ele>9.341235</ele>
        <time>2020-10-07T05:23:57.795Z</time>
      </trkpt>
      <trkpt lat="58.49847" lon="22.30332">
        <ele>9.744421</ele>
        <time>2020-10-07T05:24:39.090Z</time>
      </trkpt>
      <trkpt lat="58.49764" lon="22.30356">
        <ele>9.822224</ele>
        <time>2020-10-07T05:24:57.983Z</time>
      </trkpt>
      <trkpt lat="58.49569" lon="22.30346">
        <ele>9.350308</ele>
        <time>2020-10-07T05:25:39.363Z</time>
      </trkpt>
      <trkpt lat="58.49483" lon="22.30328">
        <ele>9.110714</ele>
        <time>2020-10-07T05:25:57.397Z</time>
      </trkpt>
      <trkpt lat="58.49433" lon="22.30341">
        <ele>8.978464</ele>
        <time>2020-10-07T05:26:07.935Z</time>
      </trkpt>
      <trkpt lat="58.49298" lon="22.3041">
        <ele>8.959174</ele>
        <time>2020-10-07T05:26:38.661Z</time>
      </trkpt>
      <trkpt lat="58.49195" lon="22.30451">
        <ele>9.173001</ele>
        <time>2020-10-07T05:27:03.685Z</time>
      </trkpt>
      <trkpt lat="58.49149" lon="22.30439">
        <ele>9.397897</ele>
        <time>2020-10-07T05:27:15.185Z</time>
      </trkpt>
      <trkpt lat="58.48959" lon="22.3028">
        <ele>10.047584</ele>
        <time>2020-10-07T05:28:05.291Z</time>
      </trkpt>
      <trkpt lat="58.48821" lon="22.30117">
        <ele>9.818099</ele>
        <time>2020-10-07T05:28:39.502Z</time>
      </trkpt>
      <trkpt lat="58.48697" lon="22.29956">
        <ele>9.238153</ele>
        <time>2020-10-07T05:29:10.253Z</time>
      </trkpt>
      <trkpt lat="58.48665" lon="22.29895">
        <ele>9.167756</ele>
        <time>2020-10-07T05:29:20.020Z</time>
      </trkpt>
      <trkpt lat="58.48635" lon="22.29836">
        <ele>9.100991</ele>
        <time>2020-10-07T05:29:29.461Z</time>
      </trkpt>
      <trkpt lat="58.48596" lon="22.29718">
        <ele>9.013338</ele>
        <time>2020-10-07T05:29:45.776Z</time>
      </trkpt>
      <trkpt lat="58.48572" lon="22.29626">
        <ele>9.079352</ele>
        <time>2020-10-07T05:29:58.085Z</time>
      </trkpt>
      <trkpt lat="58.48556" lon="22.29467">
        <ele>9.184087</ele>
        <time>2020-10-07T05:30:17.597Z</time>
      </trkpt>
      <trkpt lat="58.48542" lon="22.29389">
        <ele>9.220121</ele>
        <time>2020-10-07T05:30:27.400Z</time>
      </trkpt>
      <trkpt lat="58.48526" lon="22.29335">
        <ele>9.206925</ele>
        <time>2020-10-07T05:30:34.738Z</time>
      </trkpt>
      <trkpt lat="58.48501" lon="22.29275">
        <ele>9.190614</ele>
        <time>2020-10-07T05:30:43.736Z</time>
      </trkpt>
      <trkpt lat="58.48492" lon="22.29257">
        <ele>9.18527</ele>
        <time>2020-10-07T05:30:46.661Z</time>
      </trkpt>
      <trkpt lat="58.48461" lon="22.29204">
        <ele>9.168598</ele>
        <time>2020-10-07T05:30:55.706Z</time>
      </trkpt>
      <trkpt lat="58.48438" lon="22.29148">
        <ele>9.15347</ele>
        <time>2020-10-07T05:31:03.836Z</time>
      </trkpt>
      <trkpt lat="58.48424" lon="22.29066">
        <ele>9.049473</ele>
        <time>2020-10-07T05:31:13.513Z</time>
      </trkpt>
      <trkpt lat="58.48414" lon="22.28842">
        <ele>8.75002</ele>
        <time>2020-10-07T05:31:38.587Z</time>
      </trkpt>
      <trkpt lat="58.48424" lon="22.28573">
        <ele>8.655698</ele>
        <time>2020-10-07T05:32:09.071Z</time>
      </trkpt>
      <trkpt lat="58.4844" lon="22.28422">
        <ele>8.743881</ele>
        <time>2020-10-07T05:32:27.532Z</time>
      </trkpt>
      <trkpt lat="58.48446" lon="22.28374">
        <ele>8.887501</ele>
        <time>2020-10-07T05:32:33.655Z</time>
      </trkpt>
      <trkpt lat="58.48508" lon="22.28011">
        <ele>9.970648</ele>
        <time>2020-10-07T05:33:23.833Z</time>
      </trkpt>
      <trkpt lat="58.48566" lon="22.27641">
        <ele>10.496575</ele>
        <time>2020-10-07T05:34:11.855Z</time>
      </trkpt>
      <trkpt lat="58.48576" lon="22.27545">
        <ele>10.462322</ele>
        <time>2020-10-07T05:34:22.611Z</time>
      </trkpt>
      <trkpt lat="58.48571" lon="22.27444">
        <ele>10.358002</ele>
        <time>2020-10-07T05:34:33.549Z</time>
      </trkpt>
      <trkpt lat="58.48525" lon="22.26973">
        <ele>8.902609</ele>
        <time>2020-10-07T05:35:23.916Z</time>
      </trkpt>
      <trkpt lat="58.4849" lon="22.26835">
        <ele>8.556344</ele>
        <time>2020-10-07T05:35:40.888Z</time>
      </trkpt>
      <trkpt lat="58.48419" lon="22.26669">
        <ele>8.389137</ele>
        <time>2020-10-07T05:36:05.461Z</time>
      </trkpt>
      <trkpt lat="58.48339" lon="22.2651">
        <ele>8.33488</ele>
        <time>2020-10-07T05:36:30.938Z</time>
      </trkpt>
      <trkpt lat="58.48242" lon="22.26372">
        <ele>8.442559</ele>
        <time>2020-10-07T05:36:58.390Z</time>
      </trkpt>
      <trkpt lat="58.48154" lon="22.26265">
        <ele>8.697754</ele>
        <time>2020-10-07T05:37:22.457Z</time>
      </trkpt>
      <trkpt lat="58.48114" lon="22.26207">
        <ele>8.850736</ele>
        <time>2020-10-07T05:37:34.238Z</time>
      </trkpt>
      <trkpt lat="58.47951" lon="22.25781">
        <ele>9.897824</ele>
        <time>2020-10-07T05:38:40.299Z</time>
      </trkpt>
      <trkpt lat="58.47832" lon="22.2547">
        <ele>10.685105</ele>
        <time>2020-10-07T05:39:28.424Z</time>
      </trkpt>
      <trkpt lat="58.4782" lon="22.25436">
        <ele>10.768635</ele>
        <time>2020-10-07T05:39:33.555Z</time>
      </trkpt>
      <trkpt lat="58.47814" lon="22.25422">
        <ele>10.805133</ele>
        <time>2020-10-07T05:39:35.846Z</time>
      </trkpt>
      <trkpt lat="58.47778" lon="22.25333">
        <ele>11.032279</ele>
        <time>2020-10-07T05:39:50.111Z</time>
      </trkpt>
      <trkpt lat="58.4776" lon="22.25284">
        <ele>11.134263</ele>
        <time>2020-10-07T05:39:57.409Z</time>
      </trkpt>
      <trkpt lat="58.47694" lon="22.25105">
        <ele>11.1194</ele>
        <time>2020-10-07T05:40:23.797Z</time>
      </trkpt>
      <trkpt lat="58.47576" lon="22.24796">
        <ele>10.49857</ele>
        <time>2020-10-07T05:41:05.443Z</time>
      </trkpt>
      <trkpt lat="58.47437" lon="22.24517">
        <ele>9.623745</ele>
        <time>2020-10-07T05:41:47.325Z</time>
      </trkpt>
      <trkpt lat="58.47263" lon="22.24262">
        <ele>8.990075</ele>
        <time>2020-10-07T05:42:33.364Z</time>
      </trkpt>
      <trkpt lat="58.46659" lon="22.23461">
        <ele>10.38905</ele>
        <time>2020-10-07T05:45:23.379Z</time>
      </trkpt>
      <trkpt lat="58.46622" lon="22.23413">
        <ele>10.494803</ele>
        <time>2020-10-07T05:45:33.334Z</time>
      </trkpt>
      <trkpt lat="58.46572" lon="22.23467">
        <ele>10.632356</ele>
        <time>2020-10-07T05:45:46.727Z</time>
      </trkpt>
      <trkpt lat="58.46491" lon="22.23554">
        <ele>11.241934</ele>
        <time>2020-10-07T05:46:08.942Z</time>
      </trkpt>
      <trkpt lat="58.46358" lon="22.23658">
        <ele>12.713192</ele>
        <time>2020-10-07T05:46:48.191Z</time>
      </trkpt>
      <trkpt lat="58.463" lon="22.23687">
        <ele>13.462222</ele>
        <time>2020-10-07T05:47:04.800Z</time>
      </trkpt>
      <trkpt lat="58.46243" lon="22.23724">
        <ele>14.228967</ele>
        <time>2020-10-07T05:47:21.557Z</time>
      </trkpt>
      <trkpt lat="58.46237" lon="22.23726">
        <ele>14.294172</ele>
        <time>2020-10-07T05:47:22.967Z</time>
      </trkpt>
      <trkpt lat="58.46181" lon="22.23759">
        <ele>14.951613</ele>
        <time>2020-10-07T05:47:38.696Z</time>
      </trkpt>
      <trkpt lat="58.46153" lon="22.23776">
        <ele>15.20955</ele>
        <time>2020-10-07T05:47:46.629Z</time>
      </trkpt>
      <trkpt lat="58.46056" lon="22.23831">
        <ele>16.070252</ele>
        <time>2020-10-07T05:48:11.934Z</time>
      </trkpt>
      <trkpt lat="58.45914" lon="22.23911">
        <ele>17.352306</ele>
        <time>2020-10-07T05:48:49.639Z</time>
      </trkpt>
      <trkpt lat="58.45688" lon="22.2404">
        <ele>19.811538</ele>
        <time>2020-10-07T05:49:52.427Z</time>
      </trkpt>
      <trkpt lat="58.45536" lon="22.24112">
        <ele>21.485378</ele>
        <time>2020-10-07T05:50:34.686Z</time>
      </trkpt>
      <trkpt lat="58.45348" lon="22.24164">
        <ele>23.097876</ele>
        <time>2020-10-07T05:51:22.692Z</time>
      </trkpt>
      <trkpt lat="58.44726" lon="22.2429">
        <ele>28.279705</ele>
        <time>2020-10-07T05:54:02.258Z</time>
      </trkpt>
      <trkpt lat="58.44699" lon="22.24301">
        <ele>28.564185</ele>
        <time>2020-10-07T05:54:09.397Z</time>
      </trkpt>
      <trkpt lat="58.44693" lon="22.24282">
        <ele>28.687248</ele>
        <time>2020-10-07T05:54:12.770Z</time>
      </trkpt>
      <trkpt lat="58.44684" lon="22.24266">
        <ele>28.823447</ele>
        <time>2020-10-07T05:54:16.299Z</time>
      </trkpt>
      <trkpt lat="58.44621" lon="22.2417">
        <ele>29.647386</ele>
        <time>2020-10-07T05:54:38.058Z</time>
      </trkpt>
      <trkpt lat="58.44555" lon="22.24065">
        <ele>30.449319</ele>
        <time>2020-10-07T05:55:01.576Z</time>
      </trkpt>
      <trkpt lat="58.44357" lon="22.23754">
        <ele>31.854587</ele>
        <time>2020-10-07T05:56:03.385Z</time>
      </trkpt>
      <trkpt lat="58.44105" lon="22.23355">
        <ele>31.550877</ele>
        <time>2020-10-07T05:57:14.587Z</time>
      </trkpt>
      <trkpt lat="58.4402" lon="22.23161">
        <ele>31.049132</ele>
        <time>2020-10-07T05:57:43.963Z</time>
      </trkpt>
      <trkpt lat="58.43949" lon="22.22953">
        <ele>29.994903</ele>
        <time>2020-10-07T05:58:09.193Z</time>
      </trkpt>
      <trkpt lat="58.43887" lon="22.22721">
        <ele>28.263337</ele>
        <time>2020-10-07T05:58:33.910Z</time>
      </trkpt>
      <trkpt lat="58.43791" lon="22.22212">
        <ele>27.512141</ele>
        <time>2020-10-07T05:59:34.132Z</time>
      </trkpt>
      <trkpt lat="58.43748" lon="22.22044">
        <ele>27.67217</ele>
        <time>2020-10-07T05:59:58.633Z</time>
      </trkpt>
      <trkpt lat="58.43724" lon="22.21969">
        <ele>27.825932</ele>
        <time>2020-10-07T06:00:09.729Z</time>
      </trkpt>
      <trkpt lat="58.43678" lon="22.21835">
        <ele>28.109435</ele>
        <time>2020-10-07T06:00:29.592Z</time>
      </trkpt>
      <trkpt lat="58.4363" lon="22.21729">
        <ele>28.225145</ele>
        <time>2020-10-07T06:00:45.127Z</time>
      </trkpt>
      <trkpt lat="58.43507" lon="22.2152">
        <ele>28.439673</ele>
        <time>2020-10-07T06:01:23.465Z</time>
      </trkpt>
      <trkpt lat="58.43385" lon="22.21341">
        <ele>28.785785</ele>
        <time>2020-10-07T06:01:59.495Z</time>
      </trkpt>
      <trkpt lat="58.43348" lon="22.21286">
        <ele>28.71821</ele>
        <time>2020-10-07T06:02:10.168Z</time>
      </trkpt>
      <trkpt lat="58.43339" lon="22.21271">
        <ele>28.70095</ele>
        <time>2020-10-07T06:02:12.722Z</time>
      </trkpt>
      <trkpt lat="58.43288" lon="22.21181">
        <ele>28.601482</ele>
        <time>2020-10-07T06:02:27.620Z</time>
      </trkpt>
      <trkpt lat="58.43241" lon="22.21085">
        <ele>28.484545</ele>
        <time>2020-10-07T06:02:41.883Z</time>
      </trkpt>
      <trkpt lat="58.43147" lon="22.20804">
        <ele>28.217118</ele>
        <time>2020-10-07T06:03:19.451Z</time>
      </trkpt>
      <trkpt lat="58.43087" lon="22.20523">
        <ele>28.500769</ele>
        <time>2020-10-07T06:03:55.878Z</time>
      </trkpt>
      <trkpt lat="58.43035" lon="22.19783">
        <ele>31.625453</ele>
        <time>2020-10-07T06:05:38.445Z</time>
      </trkpt>
      <trkpt lat="58.4297" lon="22.19266">
        <ele>31.144447</ele>
        <time>2020-10-07T06:06:36.516Z</time>
      </trkpt>
      <trkpt lat="58.42953" lon="22.19178">
        <ele>31.019734</ele>
        <time>2020-10-07T06:06:47.176Z</time>
      </trkpt>
      <trkpt lat="58.42923" lon="22.19031">
        <ele>31.426825</ele>
        <time>2020-10-07T06:07:06.589Z</time>
      </trkpt>
      <trkpt lat="58.42884" lon="22.18865">
        <ele>31.895543</ele>
        <time>2020-10-07T06:07:30.814Z</time>
      </trkpt>
      <trkpt lat="58.42784" lon="22.18546">
        <ele>33.27594</ele>
        <time>2020-10-07T06:08:20.619Z</time>
      </trkpt>
      <trkpt lat="58.42686" lon="22.18305">
        <ele>33.468852</ele>
        <time>2020-10-07T06:08:56.866Z</time>
      </trkpt>
      <trkpt lat="58.42531" lon="22.17994">
        <ele>32.573038</ele>
        <time>2020-10-07T06:09:43.585Z</time>
      </trkpt>
      <trkpt lat="58.42238" lon="22.17458">
        <ele>31.433961</ele>
        <time>2020-10-07T06:11:06.846Z</time>
      </trkpt>
      <trkpt lat="58.4209" lon="22.17188">
        <ele>33.410163</ele>
        <time>2020-10-07T06:12:05.502Z</time>
      </trkpt>
      <trkpt lat="58.42033" lon="22.17058">
        <ele>34.283571</ele>
        <time>2020-10-07T06:12:29.270Z</time>
      </trkpt>
      <trkpt lat="58.41968" lon="22.16848">
        <ele>34.13877</ele>
        <time>2020-10-07T06:12:57.380Z</time>
      </trkpt>
      <trkpt lat="58.41917" lon="22.16598">
        <ele>32.471861</ele>
        <time>2020-10-07T06:13:23.853Z</time>
      </trkpt>
      <trkpt lat="58.41896" lon="22.1636">
        <ele>29.969874</ele>
        <time>2020-10-07T06:13:46.060Z</time>
      </trkpt>
      <trkpt lat="58.41896" lon="22.1616">
        <ele>27.251453</ele>
        <time>2020-10-07T06:14:03.565Z</time>
      </trkpt>
      <trkpt lat="58.41898" lon="22.16057">
        <ele>25.853662</ele>
        <time>2020-10-07T06:14:12.581Z</time>
      </trkpt>
      <trkpt lat="58.41898" lon="22.16039">
        <ele>25.612939</ele>
        <time>2020-10-07T06:14:14.168Z</time>
      </trkpt>
      <trkpt lat="58.41906" lon="22.15839">
        <ele>22.938771</ele>
        <time>2020-10-07T06:14:31.819Z</time>
      </trkpt>
      <trkpt lat="58.41924" lon="22.1538">
        <ele>18.45502</ele>
        <time>2020-10-07T06:15:15.117Z</time>
      </trkpt>
      <trkpt lat="58.4193" lon="22.15262">
        <ele>17.609311</ele>
        <time>2020-10-07T06:15:26.558Z</time>
      </trkpt>
      <trkpt lat="58.41943" lon="22.14874">
        <ele>15.385715</ele>
        <time>2020-10-07T06:16:05.516Z</time>
      </trkpt>
      <trkpt lat="58.41933" lon="22.1467">
        <ele>14.616865</ele>
        <time>2020-10-07T06:16:27.713Z</time>
      </trkpt>
      <trkpt lat="58.41893" lon="22.14464">
        <ele>14.094402</ele>
        <time>2020-10-07T06:16:51.723Z</time>
      </trkpt>
      <trkpt lat="58.4184" lon="22.14284">
        <ele>13.515982</ele>
        <time>2020-10-07T06:17:13.949Z</time>
      </trkpt>
      <trkpt lat="58.41719" lon="22.13907">
        <ele>12.092507</ele>
        <time>2020-10-07T06:18:00.980Z</time>
      </trkpt>
      <trkpt lat="58.41713" lon="22.13851">
        <ele>11.897617</ele>
        <time>2020-10-07T06:18:06.969Z</time>
      </trkpt>
      <trkpt lat="58.41723" lon="22.13162">
        <ele>9.703523</ele>
        <time>2020-10-07T06:19:19.777Z</time>
      </trkpt>
      <trkpt lat="58.417" lon="22.13084">
        <ele>9.6726</ele>
        <time>2020-10-07T06:19:30.132Z</time>
      </trkpt>
      <trkpt lat="58.41717" lon="22.13053">
        <ele>9.692464</ele>
        <time>2020-10-07T06:19:35.591Z</time>
      </trkpt>
      <trkpt lat="58.4186" lon="22.12665">
        <ele>9.753853</ele>
        <time>2020-10-07T06:20:32.529Z</time>
      </trkpt>
      <trkpt lat="58.41941" lon="22.12415">
        <ele>9.425449</ele>
        <time>2020-10-07T06:21:04.369Z</time>
      </trkpt>
      <trkpt lat="58.41951" lon="22.12329">
        <ele>9.282204</ele>
        <time>2020-10-07T06:21:14.228Z</time>
      </trkpt>
      <trkpt lat="58.4194" lon="22.12256">
        <ele>9.208126</ele>
        <time>2020-10-07T06:21:23.066Z</time>
      </trkpt>
      <trkpt lat="58.4191" lon="22.12182">
        <ele>9.364746</ele>
        <time>2020-10-07T06:21:34.277Z</time>
      </trkpt>
      <trkpt lat="58.4187" lon="22.12106">
        <ele>9.547342</ele>
        <time>2020-10-07T06:21:47.947Z</time>
      </trkpt>
      <trkpt lat="58.41856" lon="22.12027">
        <ele>9.688251</ele>
        <time>2020-10-07T06:21:58.803Z</time>
      </trkpt>
      <trkpt lat="58.41845" lon="22.11743">
        <ele>9.977482</ele>
        <time>2020-10-07T06:22:34.311Z</time>
      </trkpt>
      <trkpt lat="58.41817" lon="22.11607">
        <ele>9.923099</ele>
        <time>2020-10-07T06:22:50.764Z</time>
      </trkpt>
      <trkpt lat="58.41741" lon="22.11327">
        <ele>8.87695</ele>
        <time>2020-10-07T06:23:23.690Z</time>
      </trkpt>
      <trkpt lat="58.4172" lon="22.11269">
        <ele>8.719521</ele>
        <time>2020-10-07T06:23:31.075Z</time>
      </trkpt>
      <trkpt lat="58.4165" lon="22.1114">
        <ele>8.305115</ele>
        <time>2020-10-07T06:23:51.360Z</time>
      </trkpt>
      <trkpt lat="58.41591" lon="22.11031">
        <ele>8.171822</ele>
        <time>2020-10-07T06:24:09.469Z</time>
      </trkpt>
      <trkpt lat="58.41546" lon="22.10913">
        <ele>8.21341</ele>
        <time>2020-10-07T06:24:26.756Z</time>
      </trkpt>
      <trkpt lat="58.41517" lon="22.10796">
        <ele>8.243481</ele>
        <time>2020-10-07T06:24:42.224Z</time>
      </trkpt>
      <trkpt lat="58.4149" lon="22.10565">
        <ele>8.21498</ele>
        <time>2020-10-07T06:25:09.599Z</time>
      </trkpt>
      <trkpt lat="58.41435" lon="22.09803">
        <ele>8.238936</ele>
        <time>2020-10-07T06:26:39.524Z</time>
      </trkpt>
      <trkpt lat="58.41424" lon="22.09452">
        <ele>8.531603</ele>
        <time>2020-10-07T06:27:22.018Z</time>
      </trkpt>
      <trkpt lat="58.41431" lon="22.09326">
        <ele>8.715603</ele>
        <time>2020-10-07T06:27:37.607Z</time>
      </trkpt>
      <trkpt lat="58.41448" lon="22.0921">
        <ele>8.891661</ele>
        <time>2020-10-07T06:27:52.561Z</time>
      </trkpt>
      <trkpt lat="58.41537" lon="22.08892">
        <ele>9.397863</ele>
        <time>2020-10-07T06:28:36.559Z</time>
      </trkpt>
      <trkpt lat="58.41556" lon="22.08766">
        <ele>9.558182</ele>
        <time>2020-10-07T06:28:52.382Z</time>
      </trkpt>
      <trkpt lat="58.41598" lon="22.08046">
        <ele>10.148247</ele>
        <time>2020-10-07T06:30:19.595Z</time>
      </trkpt>
      <trkpt lat="58.41616" lon="22.07932">
        <ele>10.18908</ele>
        <time>2020-10-07T06:30:33.573Z</time>
      </trkpt>
      <trkpt lat="58.41645" lon="22.0785">
        <ele>10.223483</ele>
        <time>2020-10-07T06:30:45.256Z</time>
      </trkpt>
      <trkpt lat="58.41779" lon="22.07611">
        <ele>10.449036</ele>
        <time>2020-10-07T06:31:26.804Z</time>
      </trkpt>
      <trkpt lat="58.41833" lon="22.07541">
        <ele>10.599147</ele>
        <time>2020-10-07T06:31:42.045Z</time>
      </trkpt>
      <trkpt lat="58.41851" lon="22.07532">
        <ele>10.647901</ele>
        <time>2020-10-07T06:31:46.465Z</time>
      </trkpt>
      <trkpt lat="58.41872" lon="22.07522">
        <ele>10.703811</ele>
        <time>2020-10-07T06:31:51.541Z</time>
      </trkpt>
      <trkpt lat="58.42287" lon="22.07409">
        <ele>11.762809</ele>
        <time>2020-10-07T06:33:29.250Z</time>
      </trkpt>
      <trkpt lat="58.42419" lon="22.07373">
        <ele>11.849685</ele>
        <time>2020-10-07T06:33:59.717Z</time>
      </trkpt>
      <trkpt lat="58.4254" lon="22.07351">
        <ele>11.688462</ele>
        <time>2020-10-07T06:34:26.249Z</time>
      </trkpt>
      <trkpt lat="58.42648" lon="22.07311">
        <ele>11.267437</ele>
        <time>2020-10-07T06:34:49.184Z</time>
      </trkpt>
      <trkpt lat="58.42829" lon="22.07209">
        <ele>10.018907</ele>
        <time>2020-10-07T06:35:26.983Z</time>
      </trkpt>
      <trkpt lat="58.42973" lon="22.07118">
        <ele>9.179582</ele>
        <time>2020-10-07T06:35:57.333Z</time>
      </trkpt>
      <trkpt lat="58.43201" lon="22.06874">
        <ele>8.852677</ele>
        <time>2020-10-07T06:36:53.833Z</time>
      </trkpt>
      <trkpt lat="58.43254" lon="22.06832">
        <ele>9.198046</ele>
        <time>2020-10-07T06:37:07.916Z</time>
      </trkpt>
      <trkpt lat="58.43332" lon="22.06783">
        <ele>9.692285</ele>
        <time>2020-10-07T06:37:29.352Z</time>
      </trkpt>
      <trkpt lat="58.43372" lon="22.06743">
        <ele>10.230821</ele>
        <time>2020-10-07T06:37:41.662Z</time>
      </trkpt>
      <trkpt lat="58.4341" lon="22.06691">
        <ele>10.817157</ele>
        <time>2020-10-07T06:37:54.843Z</time>
      </trkpt>
      <trkpt lat="58.43539" lon="22.06464">
        <ele>12.69371</ele>
        <time>2020-10-07T06:38:42.415Z</time>
      </trkpt>
      <trkpt lat="58.43647" lon="22.06333">
        <ele>13.615958</ele>
        <time>2020-10-07T06:39:13.970Z</time>
      </trkpt>
      <trkpt lat="58.43829" lon="22.06077">
        <ele>13.81138</ele>
        <time>2020-10-07T06:40:05.648Z</time>
      </trkpt>
      <trkpt lat="58.4404" lon="22.05865">
        <ele>12.920851</ele>
        <time>2020-10-07T06:40:55.733Z</time>
      </trkpt>
      <trkpt lat="58.44115" lon="22.05791">
        <ele>12.356273</ele>
        <time>2020-10-07T06:41:11.923Z</time>
      </trkpt>
      <trkpt lat="58.44144" lon="22.0577">
        <ele>12.106563</ele>
        <time>2020-10-07T06:41:17.919Z</time>
      </trkpt>
      <trkpt lat="58.44164" lon="22.05755">
        <ele>11.93691</ele>
        <time>2020-10-07T06:41:22.042Z</time>
      </trkpt>
      <trkpt lat="58.44271" lon="22.0572">
        <ele>11.29667</ele>
        <time>2020-10-07T06:41:43.889Z</time>
      </trkpt>
      <trkpt lat="58.44316" lon="22.05695">
        <ele>11.369273</ele>
        <time>2020-10-07T06:41:54.677Z</time>
      </trkpt>
      <trkpt lat="58.44398" lon="22.0561">
        <ele>11.513064</ele>
        <time>2020-10-07T06:42:17.083Z</time>
      </trkpt>
      <trkpt lat="58.44545" lon="22.05406">
        <ele>11.907154</ele>
        <time>2020-10-07T06:42:59.838Z</time>
      </trkpt>
      <trkpt lat="58.44727" lon="22.05277">
        <ele>11.333292</ele>
        <time>2020-10-07T06:43:40.749Z</time>
      </trkpt>
      <trkpt lat="58.44893" lon="22.05237">
        <ele>10.442663</ele>
        <time>2020-10-07T06:44:14.515Z</time>
      </trkpt>
      <trkpt lat="58.44954" lon="22.05259">
        <ele>10.498048</ele>
        <time>2020-10-07T06:44:27.697Z</time>
      </trkpt>
      <trkpt lat="58.45027" lon="22.05246">
        <ele>10.680369</ele>
        <time>2020-10-07T06:44:44.732Z</time>
      </trkpt>
      <trkpt lat="58.45075" lon="22.05214">
        <ele>10.806778</ele>
        <time>2020-10-07T06:44:57.401Z</time>
      </trkpt>
      <trkpt lat="58.45178" lon="22.05094">
        <ele>12.082149</ele>
        <time>2020-10-07T06:45:29.100Z</time>
      </trkpt>
      <trkpt lat="58.4534" lon="22.04936">
        <ele>14.644539</ele>
        <time>2020-10-07T06:46:19.917Z</time>
      </trkpt>
      <trkpt lat="58.45375" lon="22.04934">
        <ele>15.184987</ele>
        <time>2020-10-07T06:46:30.082Z</time>
      </trkpt>
      <trkpt lat="58.45432" lon="22.04885">
        <ele>16.329918</ele>
        <time>2020-10-07T06:46:49.285Z</time>
      </trkpt>
      <trkpt lat="58.45462" lon="22.04816">
        <ele>17.268505</ele>
        <time>2020-10-07T06:47:03.779Z</time>
      </trkpt>
      <trkpt lat="58.45497" lon="22.04602">
        <ele>19.504101</ele>
        <time>2020-10-07T06:47:39.515Z</time>
      </trkpt>
      <trkpt lat="58.45521" lon="22.04476">
        <ele>20.457613</ele>
        <time>2020-10-07T06:47:59.302Z</time>
      </trkpt>
      <trkpt lat="58.45574" lon="22.04381">
        <ele>21.448244</ele>
        <time>2020-10-07T06:48:18.808Z</time>
      </trkpt>
      <trkpt lat="58.45635" lon="22.04344">
        <ele>22.000411</ele>
        <time>2020-10-07T06:48:34.953Z</time>
      </trkpt>
      <trkpt lat="58.45737" lon="22.04314">
        <ele>22.704653</ele>
        <time>2020-10-07T06:49:00.873Z</time>
      </trkpt>
      <trkpt lat="58.45846" lon="22.0431">
        <ele>22.935002</ele>
        <time>2020-10-07T06:49:27.231Z</time>
      </trkpt>
      <trkpt lat="58.4598" lon="22.0425">
        <ele>22.567521</ele>
        <time>2020-10-07T06:49:56.452Z</time>
      </trkpt>
      <trkpt lat="58.46012" lon="22.04253">
        <ele>22.214929</ele>
        <time>2020-10-07T06:50:02.736Z</time>
      </trkpt>
      <trkpt lat="58.46029" lon="22.04263">
        <ele>22.014162</ele>
        <time>2020-10-07T06:50:06.253Z</time>
      </trkpt>
      <trkpt lat="58.46116" lon="22.04355">
        <ele>20.882497</ele>
        <time>2020-10-07T06:50:24.723Z</time>
      </trkpt>
      <trkpt lat="58.46138" lon="22.04385">
        <ele>20.293047</ele>
        <time>2020-10-07T06:50:29.417Z</time>
      </trkpt>
      <trkpt lat="58.46152" lon="22.04417">
        <ele>19.832531</ele>
        <time>2020-10-07T06:50:33.208Z</time>
      </trkpt>
      <trkpt lat="58.46168" lon="22.04485">
        <ele>19.010178</ele>
        <time>2020-10-07T06:50:39.710Z</time>
      </trkpt>
      <trkpt lat="58.46161" lon="22.04617">
        <ele>17.544616</ele>
        <time>2020-10-07T06:50:51.856Z</time>
      </trkpt>
      <trkpt lat="58.46162" lon="22.0463">
        <ele>17.406169</ele>
        <time>2020-10-07T06:50:52.889Z</time>
      </trkpt>
      <trkpt lat="58.46166" lon="22.04643">
        <ele>17.237461</ele>
        <time>2020-10-07T06:50:54.256Z</time>
      </trkpt>
      <trkpt lat="58.46181" lon="22.04664">
        <ele>17.172456</ele>
        <time>2020-10-07T06:50:57.994Z</time>
      </trkpt>
      <trkpt lat="58.46201" lon="22.04675">
        <ele>17.165182</ele>
        <time>2020-10-07T06:51:01.670Z</time>
      </trkpt>
      <trkpt lat="58.46228" lon="22.04682">
        <ele>17.155903</ele>
        <time>2020-10-07T06:51:06.989Z</time>
      </trkpt>
      <trkpt lat="58.46265" lon="22.04679">
        <ele>17.14306</ele>
        <time>2020-10-07T06:51:14.861Z</time>
      </trkpt>
      <trkpt lat="58.46325" lon="22.04651">
        <ele>17.121459</ele>
        <time>2020-10-07T06:51:30.230Z</time>
      </trkpt>
      <trkpt lat="58.46372" lon="22.04623">
        <ele>17.707887</ele>
        <time>2020-10-07T06:51:45.702Z</time>
      </trkpt>
      <trkpt lat="58.4641" lon="22.04587">
        <ele>18.487183</ele>
        <time>2020-10-07T06:51:58.924Z</time>
      </trkpt>
      <trkpt lat="58.46441" lon="22.04546">
        <ele>19.185029</ele>
        <time>2020-10-07T06:52:10.767Z</time>
      </trkpt>
      <trkpt lat="58.46536" lon="22.04329">
        <ele>20.68938</ele>
        <time>2020-10-07T06:52:53.173Z</time>
      </trkpt>
      <trkpt lat="58.46942" lon="22.03344">
        <ele>22.337108</ele>
        <time>2020-10-07T06:55:21.697Z</time>
      </trkpt>
      <trkpt lat="58.46947" lon="22.03321">
        <ele>22.375204</ele>
        <time>2020-10-07T06:55:24.515Z</time>
      </trkpt>
      <trkpt lat="58.46949" lon="22.03277">
        <ele>22.442937</ele>
        <time>2020-10-07T06:55:29.880Z</time>
      </trkpt>
      <trkpt lat="58.46925" lon="22.02906">
        <ele>23.157829</ele>
        <time>2020-10-07T06:56:16.528Z</time>
      </trkpt>
      <trkpt lat="58.46922" lon="22.02787">
        <ele>23.464755</ele>
        <time>2020-10-07T06:56:31.869Z</time>
      </trkpt>
      <trkpt lat="58.46892" lon="22.02579">
        <ele>23.973329</ele>
        <time>2020-10-07T06:56:59.767Z</time>
      </trkpt>
      <trkpt lat="58.46812" lon="22.02367">
        <ele>24.385085</ele>
        <time>2020-10-07T06:57:32.173Z</time>
      </trkpt>
      <trkpt lat="58.46774" lon="22.02221">
        <ele>24.064357</ele>
        <time>2020-10-07T06:57:50.748Z</time>
      </trkpt>
      <trkpt lat="58.46734" lon="22.01848">
        <ele>22.259031</ele>
        <time>2020-10-07T06:58:29.528Z</time>
      </trkpt>
      <trkpt lat="58.46719" lon="22.01666">
        <ele>20.804235</ele>
        <time>2020-10-07T06:58:46.946Z</time>
      </trkpt>
      <trkpt lat="58.46678" lon="22.01386">
        <ele>18.0204</ele>
        <time>2020-10-07T06:59:13.751Z</time>
      </trkpt>
      <trkpt lat="58.46643" lon="22.01175">
        <ele>16.511501</ele>
        <time>2020-10-07T06:59:35.322Z</time>
      </trkpt>
      <trkpt lat="58.46635" lon="22.01126">
        <ele>16.156297</ele>
        <time>2020-10-07T06:59:40.723Z</time>
      </trkpt>
      <trkpt lat="58.46607" lon="22.00948">
        <ele>15.275755</ele>
        <time>2020-10-07T06:59:59.808Z</time>
      </trkpt>
      <trkpt lat="58.46591" lon="22.00895">
        <ele>15.029712</ele>
        <time>2020-10-07T07:00:06.170Z</time>
      </trkpt>
      <trkpt lat="58.4657" lon="22.0085">
        <ele>14.782546</ele>
        <time>2020-10-07T07:00:12.550Z</time>
      </trkpt>
      <trkpt lat="58.46561" lon="22.00831">
        <ele>14.677803</ele>
        <time>2020-10-07T07:00:15.114Z</time>
      </trkpt>
      <trkpt lat="58.4654" lon="22.00787">
        <ele>14.440834</ele>
        <time>2020-10-07T07:00:21.336Z</time>
      </trkpt>
      <trkpt lat="58.46461" lon="22.00597">
        <ele>13.979556</ele>
        <time>2020-10-07T07:00:47.159Z</time>
      </trkpt>
      <trkpt lat="58.46436" lon="22.00512">
        <ele>13.79727</ele>
        <time>2020-10-07T07:00:58.759Z</time>
      </trkpt>
      <trkpt lat="58.46421" lon="22.00444">
        <ele>14.097374</ele>
        <time>2020-10-07T07:01:08.012Z</time>
      </trkpt>
      <trkpt lat="58.46404" lon="22.00319">
        <ele>14.622847</ele>
        <time>2020-10-07T07:01:25.218Z</time>
      </trkpt>
      <trkpt lat="58.46395" lon="22.00193">
        <ele>15.143331</ele>
        <time>2020-10-07T07:01:43.151Z</time>
      </trkpt>
      <trkpt lat="58.46381" lon="21.99824">
        <ele>17.084316</ele>
        <time>2020-10-07T07:02:34.884Z</time>
      </trkpt>
      <trkpt lat="58.46367" lon="21.99679">
        <ele>17.122648</ele>
        <time>2020-10-07T07:02:53.282Z</time>
      </trkpt>
      <trkpt lat="58.46354" lon="21.99594">
        <ele>17.145496</ele>
        <time>2020-10-07T07:03:03.326Z</time>
      </trkpt>
      <trkpt lat="58.46321" lon="21.99462">
        <ele>16.897077</ele>
        <time>2020-10-07T07:03:19.024Z</time>
      </trkpt>
      <trkpt lat="58.46281" lon="21.99358">
        <ele>16.219871</ele>
        <time>2020-10-07T07:03:31.932Z</time>
      </trkpt>
      <trkpt lat="58.46237" lon="21.99288">
        <ele>15.641647</ele>
        <time>2020-10-07T07:03:42.621Z</time>
      </trkpt>
      <trkpt lat="58.46195" lon="21.99244">
        <ele>15.263851</ele>
        <time>2020-10-07T07:03:51.769Z</time>
      </trkpt>
      <trkpt lat="58.46185" lon="21.99238">
        <ele>15.211412</ele>
        <time>2020-10-07T07:03:53.794Z</time>
      </trkpt>
      <trkpt lat="58.46172" lon="21.9923">
        <ele>15.148484</ele>
        <time>2020-10-07T07:03:56.332Z</time>
      </trkpt>
      <trkpt lat="58.46128" lon="21.99216">
        <ele>14.93616</ele>
        <time>2020-10-07T07:04:05.797Z</time>
      </trkpt>
      <trkpt lat="58.46032" lon="21.9921">
        <ele>14.506721</ele>
        <time>2020-10-07T07:04:26.324Z</time>
      </trkpt>
      <trkpt lat="58.45998" lon="21.9921">
        <ele>14.554896</ele>
        <time>2020-10-07T07:04:34.416Z</time>
      </trkpt>
      <trkpt lat="58.44139" lon="21.99173">
        <ele>17.304529</ele>
        <time>2020-10-07T07:11:39.244Z</time>
      </trkpt>
      <trkpt lat="58.43982" lon="21.9917">
        <ele>17.585423</ele>
        <time>2020-10-07T07:12:16.663Z</time>
      </trkpt>
      <trkpt lat="58.43604" lon="21.99164">
        <ele>17.94195</ele>
        <time>2020-10-07T07:13:41.248Z</time>
      </trkpt>
      <trkpt lat="58.42853" lon="21.99151">
        <ele>18.86812</ele>
        <time>2020-10-07T07:16:32.007Z</time>
      </trkpt>
      <trkpt lat="58.42507" lon="21.9914">
        <ele>19.740187</ele>
        <time>2020-10-07T07:17:53.175Z</time>
      </trkpt>
      <trkpt lat="58.42306" lon="21.99138">
        <ele>20.317256</ele>
        <time>2020-10-07T07:18:39.071Z</time>
      </trkpt>
      <trkpt lat="58.42167" lon="21.99135">
        <ele>20.833845</ele>
        <time>2020-10-07T07:19:14.288Z</time>
      </trkpt>
      <trkpt lat="58.4184" lon="21.99126">
        <ele>21.032532</ele>
        <time>2020-10-07T07:20:28.298Z</time>
      </trkpt>
      <trkpt lat="58.41684" lon="21.99117">
        <ele>20.060176</ele>
        <time>2020-10-07T07:20:59.399Z</time>
      </trkpt>
      <trkpt lat="58.41549" lon="21.99061">
        <ele>18.590025</ele>
        <time>2020-10-07T07:21:25.499Z</time>
      </trkpt>
      <trkpt lat="58.41492" lon="21.99027">
        <ele>17.909717</ele>
        <time>2020-10-07T07:21:36.820Z</time>
      </trkpt>
      <trkpt lat="58.41439" lon="21.98986">
        <ele>17.25096</ele>
        <time>2020-10-07T07:21:47.804Z</time>
      </trkpt>
      <trkpt lat="58.4129" lon="21.9884">
        <ele>15.24606</ele>
        <time>2020-10-07T07:22:19.825Z</time>
      </trkpt>
      <trkpt lat="58.41175" lon="21.9876">
        <ele>13.586385</ele>
        <time>2020-10-07T07:22:42.460Z</time>
      </trkpt>
      <trkpt lat="58.41081" lon="21.98723">
        <ele>12.035339</ele>
        <time>2020-10-07T07:22:59.946Z</time>
      </trkpt>
      <trkpt lat="58.41" lon="21.98692">
        <ele>10.773573</ele>
        <time>2020-10-07T07:23:14.981Z</time>
      </trkpt>
      <trkpt lat="58.40876" lon="21.98658">
        <ele>8.969478</ele>
        <time>2020-10-07T07:23:38.171Z</time>
      </trkpt>
      <trkpt lat="58.40803" lon="21.98624">
        <ele>8.203314</ele>
        <time>2020-10-07T07:23:52.310Z</time>
      </trkpt>
      <trkpt lat="58.40792" lon="21.98618">
        <ele>8.095078</ele>
        <time>2020-10-07T07:23:54.477Z</time>
      </trkpt>
      <trkpt lat="58.40692" lon="21.98594">
        <ele>7.167372</ele>
        <time>2020-10-07T07:24:14.463Z</time>
      </trkpt>
      <trkpt lat="58.40686" lon="21.98594">
        <ele>7.112082</ele>
        <time>2020-10-07T07:24:15.555Z</time>
      </trkpt>
      <trkpt lat="58.40633" lon="21.98594">
        <ele>7.078234</ele>
        <time>2020-10-07T07:24:26.703Z</time>
      </trkpt>
      <trkpt lat="58.40563" lon="21.98632">
        <ele>7.042253</ele>
        <time>2020-10-07T07:24:42.562Z</time>
      </trkpt>
      <trkpt lat="58.40512" lon="21.98697">
        <ele>7.049479</ele>
        <time>2020-10-07T07:24:57.237Z</time>
      </trkpt>
      <trkpt lat="58.40305" lon="21.9901">
        <ele>8.554956</ele>
        <time>2020-10-07T07:26:02.732Z</time>
      </trkpt>
      <trkpt lat="58.40217" lon="21.99168">
        <ele>9.069707</ele>
        <time>2020-10-07T07:26:32.274Z</time>
      </trkpt>
      <trkpt lat="58.40152" lon="21.99327">
        <ele>9.119413</ele>
        <time>2020-10-07T07:26:55.665Z</time>
      </trkpt>
      <trkpt lat="58.40131" lon="21.99434">
        <ele>9.136459</ele>
        <time>2020-10-07T07:27:08.451Z</time>
      </trkpt>
      <trkpt lat="58.40107" lon="21.9976">
        <ele>9.130234</ele>
        <time>2020-10-07T07:27:46.645Z</time>
      </trkpt>
      <trkpt lat="58.40073" lon="21.99944">
        <ele>9.42169</ele>
        <time>2020-10-07T07:28:11.331Z</time>
      </trkpt>
      <trkpt lat="58.40022" lon="22.00103">
        <ele>9.629826</ele>
        <time>2020-10-07T07:28:33.926Z</time>
      </trkpt>
      <trkpt lat="58.3998" lon="22.002">
        <ele>9.662817</ele>
        <time>2020-10-07T07:28:48.567Z</time>
      </trkpt>
      <trkpt lat="58.39953" lon="22.00254">
        <ele>9.682676</ele>
        <time>2020-10-07T07:28:57.257Z</time>
      </trkpt>
      <trkpt lat="58.39926" lon="22.00306">
        <ele>9.701789</ele>
        <time>2020-10-07T07:29:05.628Z</time>
      </trkpt>
      <trkpt lat="58.39411" lon="22.01022">
        <ele>11.261168</ele>
        <time>2020-10-07T07:31:34.432Z</time>
      </trkpt>
      <trkpt lat="58.38195" lon="22.02687">
        <ele>13.843377</ele>
        <time>2020-10-07T07:37:19.054Z</time>
      </trkpt>
      <trkpt lat="58.38118" lon="22.02829">
        <ele>13.590292</ele>
        <time>2020-10-07T07:37:41.620Z</time>
      </trkpt>
      <trkpt lat="58.38003" lon="22.03168">
        <ele>12.907536</ele>
        <time>2020-10-07T07:38:25.536Z</time>
      </trkpt>
      <trkpt lat="58.37913" lon="22.03357">
        <ele>12.737149</ele>
        <time>2020-10-07T07:38:55.466Z</time>
      </trkpt>
      <trkpt lat="58.37383" lon="22.04149">
        <ele>13.167347</ele>
        <time>2020-10-07T07:41:26.825Z</time>
      </trkpt>
      <trkpt lat="58.37352" lon="22.04196">
        <ele>13.274086</ele>
        <time>2020-10-07T07:41:36.229Z</time>
      </trkpt>
      <trkpt lat="58.37333" lon="22.04223">
        <ele>13.339946</ele>
        <time>2020-10-07T07:41:42.038Z</time>
      </trkpt>
      <trkpt lat="58.37297" lon="22.04282">
        <ele>13.467816</ele>
        <time>2020-10-07T07:41:53.298Z</time>
      </trkpt>
      <trkpt lat="58.37272" lon="22.04321">
        <ele>13.555789</ele>
        <time>2020-10-07T07:42:01.056Z</time>
      </trkpt>
      <trkpt lat="58.37035" lon="22.0467">
        <ele>14.238449</ele>
        <time>2020-10-07T07:43:09.585Z</time>
      </trkpt>
      <trkpt lat="58.36902" lon="22.04866">
        <ele>15.037687</ele>
        <time>2020-10-07T07:43:50.366Z</time>
      </trkpt>
      <trkpt lat="58.36804" lon="22.05012">
        <ele>15.843791</ele>
        <time>2020-10-07T07:44:22.107Z</time>
      </trkpt>
      <trkpt lat="58.36544" lon="22.05405">
        <ele>18.024285</ele>
        <time>2020-10-07T07:45:44.539Z</time>
      </trkpt>
      <trkpt lat="58.36428" lon="22.05581">
        <ele>19.030748</ele>
        <time>2020-10-07T07:46:22.073Z</time>
      </trkpt>
      <trkpt lat="58.36418" lon="22.05535">
        <ele>19.209238</ele>
        <time>2020-10-07T07:46:28.617Z</time>
      </trkpt>
      <trkpt lat="58.3641" lon="22.05498">
        <ele>19.255588</ele>
        <time>2020-10-07T07:46:33.730Z</time>
      </trkpt>
      <trkpt lat="58.36387" lon="22.05298">
        <ele>19.436747</ele>
        <time>2020-10-07T07:46:58.910Z</time>
      </trkpt>
      <trkpt lat="58.36316" lon="22.04705">
        <ele>18.607787</ele>
        <time>2020-10-07T07:48:06.646Z</time>
      </trkpt>
      <trkpt lat="58.36284" lon="22.04468">
        <ele>17.847539</ele>
        <time>2020-10-07T07:48:32.461Z</time>
      </trkpt>
      <trkpt lat="58.36277" lon="22.04411">
        <ele>17.586782</ele>
        <time>2020-10-07T07:48:38.565Z</time>
      </trkpt>
      <trkpt lat="58.3627" lon="22.04385">
        <ele>17.460576</ele>
        <time>2020-10-07T07:48:41.499Z</time>
      </trkpt>
      <trkpt lat="58.36259" lon="22.04356">
        <ele>17.299478</ele>
        <time>2020-10-07T07:48:45.180Z</time>
      </trkpt>
      <trkpt lat="58.36233" lon="22.04309">
        <ele>16.997803</ele>
        <time>2020-10-07T07:48:52.057Z</time>
      </trkpt>
      <trkpt lat="58.36193" lon="22.04234">
        <ele>16.617678</ele>
        <time>2020-10-07T07:49:03.007Z</time>
      </trkpt>
      <trkpt lat="58.36139" lon="22.04133">
        <ele>16.624748</ele>
        <time>2020-10-07T07:49:18.968Z</time>
      </trkpt>
      <trkpt lat="58.36016" lon="22.039">
        <ele>17.008918</ele>
        <time>2020-10-07T07:50:00.799Z</time>
      </trkpt>
      <trkpt lat="58.36001" lon="22.03872">
        <ele>17.10736</ele>
        <time>2020-10-07T07:50:06.390Z</time>
      </trkpt>
      <trkpt lat="58.35969" lon="22.03823">
        <ele>17.299593</ele>
        <time>2020-10-07T07:50:16.809Z</time>
      </trkpt>
      <trkpt lat="58.35883" lon="22.03687">
        <ele>16.824687</ele>
        <time>2020-10-07T07:50:42.193Z</time>
      </trkpt>
      <trkpt lat="58.35861" lon="22.03653">
        <ele>16.575495</ele>
        <time>2020-10-07T07:50:47.780Z</time>
      </trkpt>
      <trkpt lat="58.35786" lon="22.03577">
        <ele>15.703938</ele>
        <time>2020-10-07T07:51:03.060Z</time>
      </trkpt>
      <trkpt lat="58.35727" lon="22.03541">
        <ele>14.110717</ele>
        <time>2020-10-07T07:51:13.607Z</time>
      </trkpt>
      <trkpt lat="58.3571" lon="22.03531">
        <ele>13.632258</ele>
        <time>2020-10-07T07:51:16.649Z</time>
      </trkpt>
      <trkpt lat="58.35595" lon="22.03425">
        <ele>10.566702</ele>
        <time>2020-10-07T07:51:37.864Z</time>
      </trkpt>
      <trkpt lat="58.35493" lon="22.03331">
        <ele>8.352417</ele>
        <time>2020-10-07T07:51:57.733Z</time>
      </trkpt>
      <trkpt lat="58.3543" lon="22.03298">
        <ele>7.6337</ele>
        <time>2020-10-07T07:52:10.493Z</time>
      </trkpt>
      <trkpt lat="58.35357" lon="22.033">
        <ele>7.455394</ele>
        <time>2020-10-07T07:52:25.914Z</time>
      </trkpt>
      <trkpt lat="58.35326" lon="22.0331">
        <ele>7.378372</ele>
        <time>2020-10-07T07:52:33.142Z</time>
      </trkpt>
      <trkpt lat="58.35277" lon="22.0333">
        <ele>7.313675</ele>
        <time>2020-10-07T07:52:45.028Z</time>
      </trkpt>
      <trkpt lat="58.35201" lon="22.0334">
        <ele>7.653711</ele>
        <time>2020-10-07T07:53:03.218Z</time>
      </trkpt>
      <trkpt lat="58.34967" lon="22.03254">
        <ele>8.933257</ele>
        <time>2020-10-07T07:54:01.129Z</time>
      </trkpt>
      <trkpt lat="58.34699" lon="22.03155">
        <ele>11.412627</ele>
        <time>2020-10-07T07:55:11.529Z</time>
      </trkpt>
      <trkpt lat="58.34649" lon="22.03137">
        <ele>12.045146</ele>
        <time>2020-10-07T07:55:25.028Z</time>
      </trkpt>
      <trkpt lat="58.34305" lon="22.0301">
        <ele>17.739145</ele>
        <time>2020-10-07T07:57:07.071Z</time>
      </trkpt>
      <trkpt lat="58.33941" lon="22.02872">
        <ele>23.874772</ele>
        <time>2020-10-07T07:58:56.790Z</time>
      </trkpt>
      <trkpt lat="58.33726" lon="22.02797">
        <ele>25.316109</ele>
        <time>2020-10-07T07:59:50.477Z</time>
      </trkpt>
      <trkpt lat="58.33596" lon="22.02747">
        <ele>24.52871</ele>
        <time>2020-10-07T08:00:17.405Z</time>
      </trkpt>
      <trkpt lat="58.33055" lon="22.02537">
        <ele>17.27431</ele>
        <time>2020-10-07T08:01:59.177Z</time>
      </trkpt>
      <trkpt lat="58.32742" lon="22.02427">
        <ele>15.672402</ele>
        <time>2020-10-07T08:03:05.873Z</time>
      </trkpt>
      <trkpt lat="58.32354" lon="22.02273">
        <ele>14.786179</ele>
        <time>2020-10-07T08:04:30.500Z</time>
      </trkpt>
      <trkpt lat="58.32293" lon="22.02241">
        <ele>14.734943</ele>
        <time>2020-10-07T08:04:45.081Z</time>
      </trkpt>
      <trkpt lat="58.32195" lon="22.02215">
        <ele>14.879724</ele>
        <time>2020-10-07T08:05:07.884Z</time>
      </trkpt>
      <trkpt lat="58.32169" lon="22.02216">
        <ele>14.923222</ele>
        <time>2020-10-07T08:05:13.943Z</time>
      </trkpt>
      <trkpt lat="58.32155" lon="22.02219">
        <ele>14.945385</ele>
        <time>2020-10-07T08:05:16.988Z</time>
      </trkpt>
      <trkpt lat="58.32036" lon="22.02251">
        <ele>15.193937</ele>
        <time>2020-10-07T08:05:44.318Z</time>
      </trkpt>
      <trkpt lat="58.3192" lon="22.02297">
        <ele>15.506368</ele>
        <time>2020-10-07T08:06:11.983Z</time>
      </trkpt>
      <trkpt lat="58.31697" lon="22.02359">
        <ele>16.908629</ele>
        <time>2020-10-07T08:07:08.150Z</time>
      </trkpt>
      <trkpt lat="58.31365" lon="22.02462">
        <ele>19.093907</ele>
        <time>2020-10-07T08:08:32.182Z</time>
      </trkpt>
      <trkpt lat="58.31152" lon="22.02493">
        <ele>19.83884</ele>
        <time>2020-10-07T08:09:22.960Z</time>
      </trkpt>
      <trkpt lat="58.31018" lon="22.02477">
        <ele>19.991559</ele>
        <time>2020-10-07T08:09:53.253Z</time>
      </trkpt>
      <trkpt lat="58.30664" lon="22.02408">
        <ele>19.868781</ele>
        <time>2020-10-07T08:11:11.805Z</time>
      </trkpt>
      <trkpt lat="58.30582" lon="22.02425">
        <ele>19.75466</ele>
        <time>2020-10-07T08:11:30.011Z</time>
      </trkpt>
      <trkpt lat="58.30335" lon="22.02571">
        <ele>19.289291</ele>
        <time>2020-10-07T08:12:25.801Z</time>
      </trkpt>
      <trkpt lat="58.30176" lon="22.02673">
        <ele>18.865812</ele>
        <time>2020-10-07T08:13:01.418Z</time>
      </trkpt>
      <trkpt lat="58.30068" lon="22.02726">
        <ele>18.605424</ele>
        <time>2020-10-07T08:13:24.988Z</time>
      </trkpt>
      <trkpt lat="58.29991" lon="22.02736">
        <ele>18.427515</ele>
        <time>2020-10-07T08:13:41.290Z</time>
      </trkpt>
      <trkpt lat="58.29914" lon="22.02725">
        <ele>19.069162</ele>
        <time>2020-10-07T08:13:59.936Z</time>
      </trkpt>
      <trkpt lat="58.29877" lon="22.02708">
        <ele>19.427916</ele>
        <time>2020-10-07T08:14:10.116Z</time>
      </trkpt>
      <trkpt lat="58.29819" lon="22.02683">
        <ele>19.97549</ele>
        <time>2020-10-07T08:14:26.925Z</time>
      </trkpt>
      <trkpt lat="58.29679" lon="22.02584">
        <ele>21.686258</ele>
        <time>2020-10-07T08:15:09.219Z</time>
      </trkpt>
      <trkpt lat="58.29676" lon="22.02581">
        <ele>21.724438</ele>
        <time>2020-10-07T08:15:10.010Z</time>
      </trkpt>
      <trkpt lat="58.29545" lon="22.02489">
        <ele>21.926137</ele>
        <time>2020-10-07T08:15:41.765Z</time>
      </trkpt>
      <trkpt lat="58.29462" lon="22.02456">
        <ele>21.678844</ele>
        <time>2020-10-07T08:15:58.705Z</time>
      </trkpt>
      <trkpt lat="58.2937" lon="22.02436">
        <ele>20.746615</ele>
        <time>2020-10-07T08:16:16.935Z</time>
      </trkpt>
      <trkpt lat="58.29193" lon="22.02421">
        <ele>18.813757</ele>
        <time>2020-10-07T08:16:50.427Z</time>
      </trkpt>
      <trkpt lat="58.29012" lon="22.02406">
        <ele>16.887461</ele>
        <time>2020-10-07T08:17:24.891Z</time>
      </trkpt>
      <trkpt lat="58.28881" lon="22.02433">
        <ele>15.832328</ele>
        <time>2020-10-07T08:17:51.118Z</time>
      </trkpt>
      <trkpt lat="58.28755" lon="22.02502">
        <ele>15.157747</ele>
        <time>2020-10-07T08:18:18.298Z</time>
      </trkpt>
      <trkpt lat="58.28715" lon="22.02493">
        <ele>15.089974</ele>
        <time>2020-10-07T08:18:26.891Z</time>
      </trkpt>
      <trkpt lat="58.28544" lon="22.02402">
        <ele>14.861688</ele>
        <time>2020-10-07T08:19:05.670Z</time>
      </trkpt>
      <trkpt lat="58.2839" lon="22.0236">
        <ele>14.85393</ele>
        <time>2020-10-07T08:19:40.843Z</time>
      </trkpt>
      <trkpt lat="58.28293" lon="22.02358">
        <ele>14.682355</ele>
        <time>2020-10-07T08:20:02.010Z</time>
      </trkpt>
      <trkpt lat="58.27965" lon="22.0241">
        <ele>13.474876</ele>
        <time>2020-10-07T08:21:09.989Z</time>
      </trkpt>
      <trkpt lat="58.27754" lon="22.02443">
        <ele>13.193238</ele>
        <time>2020-10-07T08:21:56.532Z</time>
      </trkpt>
      <trkpt lat="58.27187" lon="22.02539">
        <ele>13.906163</ele>
        <time>2020-10-07T08:24:06.027Z</time>
      </trkpt>
      <trkpt lat="58.27094" lon="22.02554">
        <ele>14.188169</ele>
        <time>2020-10-07T08:24:28.364Z</time>
      </trkpt>
      <trkpt lat="58.27064" lon="22.02559">
        <ele>14.297786</ele>
        <time>2020-10-07T08:24:35.574Z</time>
      </trkpt>
      <trkpt lat="58.2682" lon="22.026">
        <ele>15.045414</ele>
        <time>2020-10-07T08:25:33.865Z</time>
      </trkpt>
      <trkpt lat="58.26824" lon="22.03321">
        <ele>14.827025</ele>
        <time>2020-10-07T08:27:53.444Z</time>
      </trkpt>
      <trkpt lat="58.26839" lon="22.03539">
        <ele>14.791674</ele>
        <time>2020-10-07T08:28:36.577Z</time>
      </trkpt>
      <trkpt lat="58.2686" lon="22.03691">
        <ele>14.760091</ele>
        <time>2020-10-07T08:29:07.081Z</time>
      </trkpt>
      <trkpt lat="58.26861" lon="22.03701">
        <ele>14.752907</ele>
        <time>2020-10-07T08:29:09.094Z</time>
      </trkpt>
      <trkpt lat="58.26881" lon="22.03802">
        <ele>14.678214</ele>
        <time>2020-10-07T08:29:29.877Z</time>
      </trkpt>
      <trkpt lat="58.26908" lon="22.03926">
        <ele>14.584443</ele>
        <time>2020-10-07T08:29:55.824Z</time>
      </trkpt>
      <trkpt lat="58.26964" lon="22.04125">
        <ele>14.451121</ele>
        <time>2020-10-07T08:30:39.181Z</time>
      </trkpt>
      <trkpt lat="58.26965" lon="22.04129">
        <ele>14.448905</ele>
        <time>2020-10-07T08:30:39.945Z</time>
      </trkpt>
      <trkpt lat="58.27018" lon="22.04265">
        <ele>14.357254</ele>
        <time>2020-10-07T08:31:12.701Z</time>
      </trkpt>
      <trkpt lat="58.2708" lon="22.044">
        <ele>14.637222</ele>
        <time>2020-10-07T08:31:48.340Z</time>
      </trkpt>
      <trkpt lat="58.27091" lon="22.0442">
        <ele>14.686445</ele>
        <time>2020-10-07T08:31:53.991Z</time>
      </trkpt>
      <trkpt lat="58.27155" lon="22.0454">
        <ele>15.067159</ele>
        <time>2020-10-07T08:32:29.257Z</time>
      </trkpt>
      <trkpt lat="58.27496" lon="22.05105">
        <ele>19.480214</ele>
        <time>2020-10-07T08:35:36.052Z</time>
      </trkpt>
      <trkpt lat="58.27576" lon="22.05294">
        <ele>20.508206</ele>
        <time>2020-10-07T08:36:27.164Z</time>
      </trkpt>
      <trkpt lat="58.27637" lon="22.05486">
        <ele>21.255942</ele>
        <time>2020-10-07T08:37:13.778Z</time>
      </trkpt>
      <trkpt lat="58.27687" lon="22.05693">
        <ele>22.362188</ele>
        <time>2020-10-07T08:38:01.595Z</time>
      </trkpt>
      <trkpt lat="58.27723" lon="22.05917">
        <ele>23.837771</ele>
        <time>2020-10-07T08:38:53.809Z</time>
      </trkpt>
      <trkpt lat="58.27741" lon="22.06084">
        <ele>25.200848</ele>
        <time>2020-10-07T08:39:33.395Z</time>
      </trkpt>
      <trkpt lat="58.27746" lon="22.06216">
        <ele>26.120995</ele>
        <time>2020-10-07T08:40:03.868Z</time>
      </trkpt>
      <trkpt lat="58.27748" lon="22.06336">
        <ele>26.815028</ele>
        <time>2020-10-07T08:40:30.887Z</time>
      </trkpt>
      <trkpt lat="58.27735" lon="22.06587">
        <ele>27.74224</ele>
        <time>2020-10-07T08:41:23.466Z</time>
      </trkpt>
      <trkpt lat="58.27739" lon="22.06625">
        <ele>27.744799</ele>
        <time>2020-10-07T08:41:31.223Z</time>
      </trkpt>
      <trkpt lat="58.2775" lon="22.0666">
        <ele>27.747402</ele>
        <time>2020-10-07T08:41:39.037Z</time>
      </trkpt>
      <trkpt lat="58.27706" lon="22.06755">
        <ele>27.755523</ele>
        <time>2020-10-07T08:41:53.319Z</time>
      </trkpt>
      <trkpt lat="58.27715" lon="22.06776">
        <ele>27.757211</ele>
        <time>2020-10-07T08:41:56.116Z</time>
      </trkpt>
      <trkpt lat="58.2772" lon="22.06802">
        <ele>27.723504</ele>
        <time>2020-10-07T08:41:59.206Z</time>
      </trkpt>
      <trkpt lat="58.2772" lon="22.06841">
        <ele>27.581667</ele>
        <time>2020-10-07T08:42:03.389Z</time>
      </trkpt>
      <trkpt lat="58.27703" lon="22.07193">
        <ele>26.239552</ele>
        <time>2020-10-07T08:42:40.444Z</time>
      </trkpt>
      <trkpt lat="58.27713" lon="22.07517">
        <ele>24.738659</ele>
        <time>2020-10-07T08:43:13.692Z</time>
      </trkpt>
      <trkpt lat="58.27741" lon="22.07824">
        <ele>23.443138</ele>
        <time>2020-10-07T08:43:46.096Z</time>
      </trkpt>
      <trkpt lat="58.27802" lon="22.08175">
        <ele>23.220142</ele>
        <time>2020-10-07T08:44:27.241Z</time>
      </trkpt>
      <trkpt lat="58.28087" lon="22.09565">
        <ele>33.373447</ele>
        <time>2020-10-07T08:48:02.156Z</time>
      </trkpt>
      <trkpt lat="58.28204" lon="22.09959">
        <ele>39.280929</ele>
        <time>2020-10-07T08:49:21.777Z</time>
      </trkpt>
      <trkpt lat="58.28265" lon="22.10092">
        <ele>41.411124</ele>
        <time>2020-10-07T08:49:52.893Z</time>
      </trkpt>
      <trkpt lat="58.2839" lon="22.10239">
        <ele>44.014881</ele>
        <time>2020-10-07T08:50:35.879Z</time>
      </trkpt>
      <trkpt lat="58.28479" lon="22.10343">
        <ele>44.656358</ele>
        <time>2020-10-07T08:51:01.790Z</time>
      </trkpt>
      <trkpt lat="58.28497" lon="22.10378">
        <ele>44.814223</ele>
        <time>2020-10-07T08:51:07.512Z</time>
      </trkpt>
      <trkpt lat="58.28548" lon="22.10479">
        <ele>44.878246</ele>
        <time>2020-10-07T08:51:23.263Z</time>
      </trkpt>
      <trkpt lat="58.28593" lon="22.10627">
        <ele>44.697707</ele>
        <time>2020-10-07T08:51:42.585Z</time>
      </trkpt>
      <trkpt lat="58.28614" lon="22.10781">
        <ele>44.678357</ele>
        <time>2020-10-07T08:52:00.495Z</time>
      </trkpt>
      <trkpt lat="58.28618" lon="22.10952">
        <ele>44.817126</ele>
        <time>2020-10-07T08:52:20.398Z</time>
      </trkpt>
      <trkpt lat="58.28538" lon="22.12464">
        <ele>50.47888</ele>
        <time>2020-10-07T08:55:42.505Z</time>
      </trkpt>
      <trkpt lat="58.28535" lon="22.12717">
        <ele>51.634046</ele>
        <time>2020-10-07T08:56:17.987Z</time>
      </trkpt>
      <trkpt lat="58.28532" lon="22.12865">
        <ele>51.329829</ele>
        <time>2020-10-07T08:56:36.235Z</time>
      </trkpt>
      <trkpt lat="58.28517" lon="22.1356">
        <ele>47.10722</ele>
        <time>2020-10-07T08:57:44.365Z</time>
      </trkpt>
      <trkpt lat="58.285" lon="22.13849">
        <ele>45.149607</ele>
        <time>2020-10-07T08:58:13.080Z</time>
      </trkpt>
      <trkpt lat="58.28468" lon="22.14183">
        <ele>43.647591</ele>
        <time>2020-10-07T08:58:47.597Z</time>
      </trkpt>
      <trkpt lat="58.28229" lon="22.16334">
        <ele>42.839064</ele>
        <time>2020-10-07T09:03:04.431Z</time>
      </trkpt>
      <trkpt lat="58.28166" lon="22.16798">
        <ele>42.182049</ele>
        <time>2020-10-07T09:03:57.076Z</time>
      </trkpt>
      <trkpt lat="58.28103" lon="22.17266">
        <ele>43.038289</ele>
        <time>2020-10-07T09:04:57.026Z</time>
      </trkpt>
      <trkpt lat="58.28088" lon="22.17426">
        <ele>43.55404</ele>
        <time>2020-10-07T09:05:18.983Z</time>
      </trkpt>
      <trkpt lat="58.28076" lon="22.17632">
        <ele>44.393581</ele>
        <time>2020-10-07T09:05:47.343Z</time>
      </trkpt>
      <trkpt lat="58.28076" lon="22.17678">
        <ele>44.584729</ele>
        <time>2020-10-07T09:05:53.635Z</time>
      </trkpt>
      <trkpt lat="58.28076" lon="22.17925">
        <ele>45.217482</ele>
        <time>2020-10-07T09:06:25.930Z</time>
      </trkpt>
      <trkpt lat="58.2809" lon="22.18212">
        <ele>45.33572</ele>
        <time>2020-10-07T09:06:59.752Z</time>
      </trkpt>
      <trkpt lat="58.28127" lon="22.18512">
        <ele>44.772283</ele>
        <time>2020-10-07T09:07:33.380Z</time>
      </trkpt>
      <trkpt lat="58.28184" lon="22.1879">
        <ele>43.97906</ele>
        <time>2020-10-07T09:08:05.572Z</time>
      </trkpt>
      <trkpt lat="58.28246" lon="22.19013">
        <ele>43.231538</ele>
        <time>2020-10-07T09:08:32.594Z</time>
      </trkpt>
      <trkpt lat="58.28321" lon="22.19234">
        <ele>42.68259</ele>
        <time>2020-10-07T09:09:01.166Z</time>
      </trkpt>
      <trkpt lat="58.28786" lon="22.2038">
        <ele>41.021413</ele>
        <time>2020-10-07T09:11:47.828Z</time>
      </trkpt>
      <trkpt lat="58.28817" lon="22.20471">
        <ele>40.446261</ele>
        <time>2020-10-07T09:11:58.211Z</time>
      </trkpt>
      <trkpt lat="58.28901" lon="22.20715">
        <ele>36.718607</ele>
        <time>2020-10-07T09:12:24.168Z</time>
      </trkpt>
      <trkpt lat="58.28973" lon="22.20955">
        <ele>32.698229</ele>
        <time>2020-10-07T09:12:48.076Z</time>
      </trkpt>
      <trkpt lat="58.29049" lon="22.2123">
        <ele>29.924831</ele>
        <time>2020-10-07T09:13:16.374Z</time>
      </trkpt>
      <trkpt lat="58.2891" lon="22.2131">
        <ele>30.317723</ele>
        <time>2020-10-07T09:14:12.965Z</time>
      </trkpt>
      <trkpt lat="58.28869" lon="22.2131">
        <ele>30.946469</ele>
        <time>2020-10-07T09:14:31.961Z</time>
      </trkpt>
      <trkpt lat="58.28829" lon="22.21273">
        <ele>31.629032</ele>
        <time>2020-10-07T09:14:52.898Z</time>
      </trkpt>
      <trkpt lat="58.28752" lon="22.21242">
        <ele>32.995963</ele>
        <time>2020-10-07T09:15:29.648Z</time>
      </trkpt>
      <trkpt lat="58.28682" lon="22.21181">
        <ele>34.389334</ele>
        <time>2020-10-07T09:16:04.549Z</time>
      </trkpt>
      <trkpt lat="58.28649" lon="22.21164">
        <ele>35.01278</ele>
        <time>2020-10-07T09:16:19.547Z</time>
      </trkpt>
      <trkpt lat="58.28255" lon="22.2127">
        <ele>34.569867</ele>
        <time>2020-10-07T09:18:44.839Z</time>
      </trkpt>
      <trkpt lat="58.28233" lon="22.21283">
        <ele>34.369324</ele>
        <time>2020-10-07T09:18:52.603Z</time>
      </trkpt>
      <trkpt lat="58.28188" lon="22.21315">
        <ele>33.967142</ele>
        <time>2020-10-07T09:19:08.370Z</time>
      </trkpt>
      <trkpt lat="58.27658" lon="22.21717">
        <ele>29.068862</ele>
        <time>2020-10-07T09:22:23.363Z</time>
      </trkpt>
      <trkpt lat="58.27608" lon="22.21772">
        <ele>28.680044</ele>
        <time>2020-10-07T09:22:43.576Z</time>
      </trkpt>
      <trkpt lat="58.27259" lon="22.22264">
        <ele>27.794379</ele>
        <time>2020-10-07T09:25:20.360Z</time>
      </trkpt>
      <trkpt lat="58.2694" lon="22.22537">
        <ele>30.214742</ele>
        <time>2020-10-07T09:27:41.220Z</time>
      </trkpt>
      <trkpt lat="58.26842" lon="22.22664">
        <ele>31.318325</ele>
        <time>2020-10-07T09:28:30.453Z</time>
      </trkpt>
      <trkpt lat="58.26669" lon="22.22826">
        <ele>32.80915</ele>
        <time>2020-10-07T09:29:48.380Z</time>
      </trkpt>
      <trkpt lat="58.26538" lon="22.22907">
        <ele>33.314307</ele>
        <time>2020-10-07T09:30:41.316Z</time>
      </trkpt>
      <trkpt lat="58.26488" lon="22.22947">
        <ele>33.387099</ele>
        <time>2020-10-07T09:31:01.620Z</time>
      </trkpt>
      <trkpt lat="58.26405" lon="22.22969">
        <ele>33.442783</ele>
        <time>2020-10-07T09:31:33.107Z</time>
      </trkpt>
      <trkpt lat="58.26333" lon="22.23002">
        <ele>33.42242</ele>
        <time>2020-10-07T09:32:00.748Z</time>
      </trkpt>
      <trkpt lat="58.26253" lon="22.23023">
        <ele>33.195343</ele>
        <time>2020-10-07T09:32:30.042Z</time>
      </trkpt>
      <trkpt lat="58.26176" lon="22.23043">
        <ele>32.977365</ele>
        <time>2020-10-07T09:32:57.524Z</time>
      </trkpt>
      <trkpt lat="58.26107" lon="22.23058">
        <ele>32.500644</ele>
        <time>2020-10-07T09:33:21.728Z</time>
      </trkpt>
      <trkpt lat="58.26042" lon="22.23084">
        <ele>32.035145</ele>
        <time>2020-10-07T09:33:44.628Z</time>
      </trkpt>
      <trkpt lat="58.25971" lon="22.23094">
        <ele>31.527763</ele>
        <time>2020-10-07T09:34:09.095Z</time>
      </trkpt>
      <trkpt lat="58.2581" lon="22.23067">
        <ele>30.403312</ele>
        <time>2020-10-07T09:35:04.923Z</time>
      </trkpt>
      <trkpt lat="58.25797" lon="22.23077">
        <ele>30.415035</ele>
        <time>2020-10-07T09:35:10.281Z</time>
      </trkpt>
      <trkpt lat="58.25794" lon="22.23119">
        <ele>30.43341</ele>
        <time>2020-10-07T09:35:18.055Z</time>
      </trkpt>
      <trkpt lat="58.25722" lon="22.23067">
        <ele>30.497719</ele>
        <time>2020-10-07T09:35:35.580Z</time>
      </trkpt>
      <trkpt lat="58.25423" lon="22.23004">
        <ele>31.560676</ele>
        <time>2020-10-07T09:36:48.944Z</time>
      </trkpt>
      <trkpt lat="58.2493" lon="22.22769">
        <ele>31.452954</ele>
        <time>2020-10-07T09:38:40.767Z</time>
      </trkpt>
      <trkpt lat="58.24846" lon="22.2273">
        <ele>31.294096</ele>
        <time>2020-10-07T09:38:59.404Z</time>
      </trkpt>
      <trkpt lat="58.24646" lon="22.22635">
        <ele>30.833335</ele>
        <time>2020-10-07T09:39:43.732Z</time>
      </trkpt>
      <trkpt lat="58.24516" lon="22.22606">
        <ele>30.288628</ele>
        <time>2020-10-07T09:40:11.231Z</time>
      </trkpt>
      <trkpt lat="58.24487" lon="22.22609">
        <ele>30.144404</ele>
        <time>2020-10-07T09:40:17.324Z</time>
      </trkpt>
      <trkpt lat="58.24428" lon="22.22613">
        <ele>29.852863</ele>
        <time>2020-10-07T09:40:29.128Z</time>
      </trkpt>
      <trkpt lat="58.24334" lon="22.22643">
        <ele>29.000715</ele>
        <time>2020-10-07T09:40:48.006Z</time>
      </trkpt>
      <trkpt lat="58.23867" lon="22.2282">
        <ele>24.412654</ele>
        <time>2020-10-07T09:42:19.771Z</time>
      </trkpt>
      <trkpt lat="58.23516" lon="22.22834">
        <ele>22.068274</ele>
        <time>2020-10-07T09:43:30.376Z</time>
      </trkpt>
      <trkpt lat="58.2332" lon="22.22775">
        <ele>21.580089</ele>
        <time>2020-10-07T09:44:13.598Z</time>
      </trkpt>
      <trkpt lat="58.23026" lon="22.2273">
        <ele>20.806672</ele>
        <time>2020-10-07T09:45:16.972Z</time>
      </trkpt>
      <trkpt lat="58.22998" lon="22.22732">
        <ele>20.672143</ele>
        <time>2020-10-07T09:45:22.422Z</time>
      </trkpt>
      <trkpt lat="58.22977" lon="22.22748">
        <ele>20.441186</ele>
        <time>2020-10-07T09:45:26.967Z</time>
      </trkpt>
      <trkpt lat="58.22946" lon="22.22799">
        <ele>20.033901</ele>
        <time>2020-10-07T09:45:34.994Z</time>
      </trkpt>
      <trkpt lat="58.22933" lon="22.22839">
        <ele>19.787797</ele>
        <time>2020-10-07T09:45:39.707Z</time>
      </trkpt>
      <trkpt lat="58.22897" lon="22.22993">
        <ele>18.91423</ele>
        <time>2020-10-07T09:45:56.590Z</time>
      </trkpt>
      <trkpt lat="58.22867" lon="22.2307">
        <ele>18.485704</ele>
        <time>2020-10-07T09:46:06.136Z</time>
      </trkpt>
      <trkpt lat="58.22543" lon="22.23647">
        <ele>15.273634</ele>
        <time>2020-10-07T09:47:34.455Z</time>
      </trkpt>
      <trkpt lat="58.2252" lon="22.23718">
        <ele>15.109506</ele>
        <time>2020-10-07T09:47:44.739Z</time>
      </trkpt>
      <trkpt lat="58.22494" lon="22.23843">
        <ele>15.433018</ele>
        <time>2020-10-07T09:48:02.003Z</time>
      </trkpt>
      <trkpt lat="58.22465" lon="22.23939">
        <ele>15.703199</ele>
        <time>2020-10-07T09:48:16.814Z</time>
      </trkpt>
      <trkpt lat="58.22436" lon="22.23999">
        <ele>15.900785</ele>
        <time>2020-10-07T09:48:27.271Z</time>
      </trkpt>
      <trkpt lat="58.22369" lon="22.24088">
        <ele>15.68824</ele>
        <time>2020-10-07T09:48:45.700Z</time>
      </trkpt>
      <trkpt lat="58.22066" lon="22.24444">
        <ele>14.326221</ele>
        <time>2020-10-07T09:49:57.144Z</time>
      </trkpt>
      <trkpt lat="58.21839" lon="22.24769">
        <ele>16.031588</ele>
        <time>2020-10-07T09:51:11.308Z</time>
      </trkpt>
      <trkpt lat="58.21683" lon="22.24986">
        <ele>15.793092</ele>
        <time>2020-10-07T09:51:52.755Z</time>
      </trkpt>
      <trkpt lat="58.21448" lon="22.25128">
        <ele>14.933555</ele>
        <time>2020-10-07T09:52:42.886Z</time>
      </trkpt>
      <trkpt lat="58.21423" lon="22.25136">
        <ele>14.951654</ele>
        <time>2020-10-07T09:52:48.611Z</time>
      </trkpt>
      <trkpt lat="58.21173" lon="22.25216">
        <ele>16.238629</ele>
        <time>2020-10-07T09:53:52.978Z</time>
      </trkpt>
      <trkpt lat="58.21166" lon="22.25219">
        <ele>16.257878</ele>
        <time>2020-10-07T09:53:55.145Z</time>
      </trkpt>
      <trkpt lat="58.20856" lon="22.25351">
        <ele>16.25805</ele>
        <time>2020-10-07T09:55:04.496Z</time>
      </trkpt>
      <trkpt lat="58.20703" lon="22.25421">
        <ele>16.661009</ele>
        <time>2020-10-07T09:55:41.343Z</time>
      </trkpt>
      <trkpt lat="58.20593" lon="22.25401">
        <ele>16.94193</ele>
        <time>2020-10-07T09:56:08.077Z</time>
      </trkpt>
      <trkpt lat="58.20552" lon="22.25387">
        <ele>17.004903</ele>
        <time>2020-10-07T09:56:17.778Z</time>
      </trkpt>
      <trkpt lat="58.20407" lon="22.25354">
        <ele>17.062365</ele>
        <time>2020-10-07T09:56:49.848Z</time>
      </trkpt>
      <trkpt lat="58.20158" lon="22.25302">
        <ele>16.766727</ele>
        <time>2020-10-07T09:57:44.160Z</time>
      </trkpt>
      <trkpt lat="58.19162" lon="22.25087">
        <ele>16.743908</ele>
        <time>2020-10-07T10:01:28.001Z</time>
      </trkpt>
      <trkpt lat="58.18933" lon="22.25042">
        <ele>16.445126</ele>
        <time>2020-10-07T10:02:18.056Z</time>
      </trkpt>
      <trkpt lat="58.18809" lon="22.25018">
        <ele>16.116476</ele>
        <time>2020-10-07T10:02:44.482Z</time>
      </trkpt>
      <trkpt lat="58.18697" lon="22.24994">
        <ele>15.671311</ele>
        <time>2020-10-07T10:03:08.141Z</time>
      </trkpt>
      <trkpt lat="58.18618" lon="22.25026">
        <ele>15.227348</ele>
        <time>2020-10-07T10:03:24.742Z</time>
      </trkpt>
      <trkpt lat="58.18548" lon="22.25064">
        <ele>14.789343</ele>
        <time>2020-10-07T10:03:39.489Z</time>
      </trkpt>
      <trkpt lat="58.18398" lon="22.25169">
        <ele>13.589172</ele>
        <time>2020-10-07T10:04:11.120Z</time>
      </trkpt>
      <trkpt lat="58.18304" lon="22.25294">
        <ele>12.881657</ele>
        <time>2020-10-07T10:04:33.808Z</time>
      </trkpt>
      <trkpt lat="58.18258" lon="22.25438">
        <ele>12.565883</ele>
        <time>2020-10-07T10:04:52.747Z</time>
      </trkpt>
      <trkpt lat="58.18241" lon="22.25537">
        <ele>12.431737</ele>
        <time>2020-10-07T10:05:04.923Z</time>
      </trkpt>
      <trkpt lat="58.18228" lon="22.25642">
        <ele>12.494438</ele>
        <time>2020-10-07T10:05:17.604Z</time>
      </trkpt>
      <trkpt lat="58.18307" lon="22.25712">
        <ele>12.590376</ele>
        <time>2020-10-07T10:05:38.590Z</time>
      </trkpt>
      <trkpt lat="58.18333" lon="22.25739">
        <ele>12.640556</ele>
        <time>2020-10-07T10:05:45.716Z</time>
      </trkpt>
      <trkpt lat="58.18358" lon="22.25759">
        <ele>12.734225</ele>
        <time>2020-10-07T10:05:52.133Z</time>
      </trkpt>
      <trkpt lat="58.18386" lon="22.25791">
        <ele>12.849518</ele>
        <time>2020-10-07T10:06:00.014Z</time>
      </trkpt>
      <trkpt lat="58.18467" lon="22.25895">
        <ele>13.189648</ele>
        <time>2020-10-07T10:06:24.258Z</time>
      </trkpt>
      <trkpt lat="58.1848" lon="22.25912">
        <ele>13.248735</ele>
        <time>2020-10-07T10:06:28.405Z</time>
      </trkpt>
      <trkpt lat="58.18528" lon="22.25977">
        <ele>13.662832</ele>
        <time>2020-10-07T10:06:43.866Z</time>
      </trkpt>
      <trkpt lat="58.18611" lon="22.26081">
        <ele>14.354219</ele>
        <time>2020-10-07T10:07:09.895Z</time>
      </trkpt>
      <trkpt lat="58.18645" lon="22.26139">
        <ele>14.642548</ele>
        <time>2020-10-07T10:07:21.757Z</time>
      </trkpt>
      <trkpt lat="58.18755" lon="22.26283">
        <ele>15.398371</ele>
        <time>2020-10-07T10:07:55.785Z</time>
      </trkpt>
      <trkpt lat="58.1878" lon="22.26318">
        <ele>15.541565</ele>
        <time>2020-10-07T10:08:03.458Z</time>
      </trkpt>
      <trkpt lat="58.18817" lon="22.26366">
        <ele>15.657349</ele>
        <time>2020-10-07T10:08:14.693Z</time>
      </trkpt>
      <trkpt lat="58.18831" lon="22.26385">
        <ele>15.70309</ele>
        <time>2020-10-07T10:08:19.137Z</time>
      </trkpt>
      <trkpt lat="58.19049" lon="22.26678">
        <ele>15.916416</ele>
        <time>2020-10-07T10:09:22.082Z</time>
      </trkpt>
      <trkpt lat="58.19123" lon="22.26786">
        <ele>15.546512</ele>
        <time>2020-10-07T10:09:42.225Z</time>
      </trkpt>
      <trkpt lat="58.19199" lon="22.26913">
        <ele>15.047821</ele>
        <time>2020-10-07T10:10:03.530Z</time>
      </trkpt>
      <trkpt lat="58.19268" lon="22.2706">
        <ele>14.818216</ele>
        <time>2020-10-07T10:10:26.217Z</time>
      </trkpt>
      <trkpt lat="58.19466" lon="22.27558">
        <ele>14.757419</ele>
        <time>2020-10-07T10:11:43.408Z</time>
      </trkpt>
      <trkpt lat="58.19556" lon="22.27765">
        <ele>14.664042</ele>
        <time>2020-10-07T10:12:16.076Z</time>
      </trkpt>
      <trkpt lat="58.19738" lon="22.28129">
        <ele>13.650571</ele>
        <time>2020-10-07T10:13:13.793Z</time>
      </trkpt>
      <trkpt lat="58.19797" lon="22.28243">
        <ele>13.331555</ele>
        <time>2020-10-07T10:13:31.730Z</time>
      </trkpt>
      <trkpt lat="58.19793" lon="22.28253">
        <ele>13.326637</ele>
        <time>2020-10-07T10:13:33.204Z</time>
      </trkpt>
      <trkpt lat="58.19854" lon="22.28359">
        <ele>13.268328</ele>
        <time>2020-10-07T10:13:50.837Z</time>
      </trkpt>
      <trkpt lat="58.2002" lon="22.28672">
        <ele>13.911783</ele>
        <time>2020-10-07T10:14:46.746Z</time>
      </trkpt>
      <trkpt lat="58.20158" lon="22.2893">
        <ele>14.686415</ele>
        <time>2020-10-07T10:15:33.599Z</time>
      </trkpt>
      <trkpt lat="58.20249" lon="22.29115">
        <ele>14.628531</ele>
        <time>2020-10-07T10:16:03.613Z</time>
      </trkpt>
      <trkpt lat="58.20253" lon="22.29125">
        <ele>14.624715</ele>
        <time>2020-10-07T10:16:04.924Z</time>
      </trkpt>
      <trkpt lat="58.2026" lon="22.29112">
        <ele>14.618928</ele>
        <time>2020-10-07T10:16:07.020Z</time>
      </trkpt>
      <trkpt lat="58.20323" lon="22.29278">
        <ele>14.243871</ele>
        <time>2020-10-07T10:16:30.475Z</time>
      </trkpt>
      <trkpt lat="58.20375" lon="22.29423">
        <ele>13.792054</ele>
        <time>2020-10-07T10:16:50.301Z</time>
      </trkpt>
      <trkpt lat="58.20382" lon="22.29442">
        <ele>13.733233</ele>
        <time>2020-10-07T10:16:52.839Z</time>
      </trkpt>
      <trkpt lat="58.20556" lon="22.29881">
        <ele>11.728934</ele>
        <time>2020-10-07T10:17:53.748Z</time>
      </trkpt>
      <trkpt lat="58.20697" lon="22.3018">
        <ele>10.01987</ele>
        <time>2020-10-07T10:18:37.130Z</time>
      </trkpt>
      <trkpt lat="58.20777" lon="22.30327">
        <ele>9.328149</ele>
        <time>2020-10-07T10:19:00.382Z</time>
      </trkpt>
      <trkpt lat="58.20824" lon="22.30416">
        <ele>9.001337</ele>
        <time>2020-10-07T10:19:14.628Z</time>
      </trkpt>
      <trkpt lat="58.20915" lon="22.30587">
        <ele>8.974329</ele>
        <time>2020-10-07T10:19:44.072Z</time>
      </trkpt>
      <trkpt lat="58.20959" lon="22.30684">
        <ele>9.122829</ele>
        <time>2020-10-07T10:20:01.031Z</time>
      </trkpt>
      <trkpt lat="58.21057" lon="22.30899">
        <ele>9.729299</ele>
        <time>2020-10-07T10:20:39.331Z</time>
      </trkpt>
      <trkpt lat="58.21453" lon="22.31825">
        <ele>10.972441</ele>
        <time>2020-10-07T10:23:09.896Z</time>
      </trkpt>
      <trkpt lat="58.21476" lon="22.31873">
        <ele>11.020836</ele>
        <time>2020-10-07T10:23:17.712Z</time>
      </trkpt>
      <trkpt lat="58.21483" lon="22.31902">
        <ele>11.043752</ele>
        <time>2020-10-07T10:23:21.328Z</time>
      </trkpt>
      <trkpt lat="58.21482" lon="22.31922">
        <ele>11.058623</ele>
        <time>2020-10-07T10:23:23.706Z</time>
      </trkpt>
      <trkpt lat="58.21476" lon="22.31929">
        <ele>11.068893</ele>
        <time>2020-10-07T10:23:25.251Z</time>
      </trkpt>
      <trkpt lat="58.21469" lon="22.31938">
        <ele>11.079961</ele>
        <time>2020-10-07T10:23:27.101Z</time>
      </trkpt>
      <trkpt lat="58.21469" lon="22.31952">
        <ele>11.09086</ele>
        <time>2020-10-07T10:23:28.792Z</time>
      </trkpt>
      <trkpt lat="58.21642" lon="22.32485">
        <ele>11.755939</ele>
        <time>2020-10-07T10:24:45.696Z</time>
      </trkpt>
      <trkpt lat="58.21646" lon="22.32495">
        <ele>11.763363</ele>
        <time>2020-10-07T10:24:47.145Z</time>
      </trkpt>
      <trkpt lat="58.21658" lon="22.32531">
        <ele>11.786716</ele>
        <time>2020-10-07T10:24:52.171Z</time>
      </trkpt>
      <trkpt lat="58.21848" lon="22.33123">
        <ele>12.289167</ele>
        <time>2020-10-07T10:26:14.758Z</time>
      </trkpt>
      <trkpt lat="58.21877" lon="22.33228">
        <ele>12.444839</ele>
        <time>2020-10-07T10:26:29.860Z</time>
      </trkpt>
      <trkpt lat="58.21887" lon="22.33296">
        <ele>12.649513</ele>
        <time>2020-10-07T10:26:39.099Z</time>
      </trkpt>
      <trkpt lat="58.2189" lon="22.33313">
        <ele>12.701587</ele>
        <time>2020-10-07T10:26:41.503Z</time>
      </trkpt>
      <trkpt lat="58.219" lon="22.33359">
        <ele>12.843657</ele>
        <time>2020-10-07T10:26:47.985Z</time>
      </trkpt>
      <trkpt lat="58.2191" lon="22.33479">
        <ele>13.193583</ele>
        <time>2020-10-07T10:27:04.075Z</time>
      </trkpt>
      <trkpt lat="58.21922" lon="22.33699">
        <ele>13.334259</ele>
        <time>2020-10-07T10:27:31.434Z</time>
      </trkpt>
      <trkpt lat="58.21935" lon="22.3393">
        <ele>13.113984</ele>
        <time>2020-10-07T10:27:57.089Z</time>
      </trkpt>
      <trkpt lat="58.2195" lon="22.34096">
        <ele>12.600104</ele>
        <time>2020-10-07T10:28:14.742Z</time>
      </trkpt>
      <trkpt lat="58.22067" lon="22.34958">
        <ele>10.456813</ele>
        <time>2020-10-07T10:29:52.154Z</time>
      </trkpt>
      <trkpt lat="58.22113" lon="22.35293">
        <ele>9.763663</ele>
        <time>2020-10-07T10:30:30.847Z</time>
      </trkpt>
      <trkpt lat="58.22138" lon="22.35458">
        <ele>9.242294</ele>
        <time>2020-10-07T10:30:49.461Z</time>
      </trkpt>
      <trkpt lat="58.22169" lon="22.35631">
        <ele>8.468172</ele>
        <time>2020-10-07T10:31:08.546Z</time>
      </trkpt>
      <trkpt lat="58.22234" lon="22.35903">
        <ele>6.794912</ele>
        <time>2020-10-07T10:31:38.374Z</time>
      </trkpt>
      <trkpt lat="58.22278" lon="22.3605">
        <ele>5.800748</ele>
        <time>2020-10-07T10:31:55.190Z</time>
      </trkpt>
      <trkpt lat="58.22431" lon="22.36464">
        <ele>3.261571</ele>
        <time>2020-10-07T10:32:47.171Z</time>
      </trkpt>
      <trkpt lat="58.22485" lon="22.36627">
        <ele>2.787329</ele>
        <time>2020-10-07T10:33:07.831Z</time>
      </trkpt>
      <trkpt lat="58.22504" lon="22.36696">
        <ele>2.594638</ele>
        <time>2020-10-07T10:33:16.464Z</time>
      </trkpt>
      <trkpt lat="58.22611" lon="22.37179">
        <ele>2.874366</ele>
        <time>2020-10-07T10:34:19.232Z</time>
      </trkpt>
      <trkpt lat="58.22616" lon="22.37201">
        <ele>2.914794</ele>
        <time>2020-10-07T10:34:22.312Z</time>
      </trkpt>
      <trkpt lat="58.22655" lon="22.3738">
        <ele>3.244456</ele>
        <time>2020-10-07T10:34:46.990Z</time>
      </trkpt>
      <trkpt lat="58.22668" lon="22.37414">
        <ele>3.302462</ele>
        <time>2020-10-07T10:34:52.433Z</time>
      </trkpt>
      <trkpt lat="58.22745" lon="22.37767">
        <ele>3.642982</ele>
        <time>2020-10-07T10:35:38.870Z</time>
      </trkpt>
      <trkpt lat="58.22768" lon="22.37885">
        <ele>3.59966</ele>
        <time>2020-10-07T10:35:53.256Z</time>
      </trkpt>
      <trkpt lat="58.22786" lon="22.37954">
        <ele>3.573359</ele>
        <time>2020-10-07T10:36:01.800Z</time>
      </trkpt>
      <trkpt lat="58.22828" lon="22.3814">
        <ele>3.544926</ele>
        <time>2020-10-07T10:36:25.219Z</time>
      </trkpt>
      <trkpt lat="58.22839" lon="22.38221">
        <ele>3.536697</ele>
        <time>2020-10-07T10:36:34.933Z</time>
      </trkpt>
      <trkpt lat="58.22842" lon="22.38254">
        <ele>3.533343</ele>
        <time>2020-10-07T10:36:39.327Z</time>
      </trkpt>
      <trkpt lat="58.22847" lon="22.38311">
        <ele>3.528709</ele>
        <time>2020-10-07T10:36:46.279Z</time>
      </trkpt>
      <trkpt lat="58.2285" lon="22.38427">
        <ele>3.586949</ele>
        <time>2020-10-07T10:37:00.179Z</time>
      </trkpt>
      <trkpt lat="58.22846" lon="22.38448">
        <ele>3.598306</ele>
        <time>2020-10-07T10:37:03.011Z</time>
      </trkpt>
      <trkpt lat="58.22847" lon="22.38453">
        <ele>3.600543</ele>
        <time>2020-10-07T10:37:03.609Z</time>
      </trkpt>
      <trkpt lat="58.22847" lon="22.38458">
        <ele>3.603424</ele>
        <time>2020-10-07T10:37:04.282Z</time>
      </trkpt>
      <trkpt lat="58.22852" lon="22.38478">
        <ele>3.614283</ele>
        <time>2020-10-07T10:37:06.824Z</time>
      </trkpt>
      <trkpt lat="58.22868" lon="22.38933">
        <ele>3.751135</ele>
        <time>2020-10-07T10:38:00.618Z</time>
      </trkpt>
      <trkpt lat="58.22885" lon="22.393">
        <ele>4.05509</ele>
        <time>2020-10-07T10:38:45.147Z</time>
      </trkpt>
      <trkpt lat="58.22885" lon="22.39304">
        <ele>4.05906</ele>
        <time>2020-10-07T10:38:45.798Z</time>
      </trkpt>
      <trkpt lat="58.22929" lon="22.40223">
        <ele>4.757584</ele>
        <time>2020-10-07T10:40:37.680Z</time>
      </trkpt>
      <trkpt lat="58.22945" lon="22.40394">
        <ele>4.714917</ele>
        <time>2020-10-07T10:40:57.356Z</time>
      </trkpt>
      <trkpt lat="58.22975" lon="22.40556">
        <ele>4.461415</ele>
        <time>2020-10-07T10:41:16.459Z</time>
      </trkpt>
      <trkpt lat="58.23071" lon="22.41019">
        <ele>4.144306</ele>
        <time>2020-10-07T10:42:13.036Z</time>
      </trkpt>
      <trkpt lat="58.23102" lon="22.41171">
        <ele>4.628437</ele>
        <time>2020-10-07T10:42:34.143Z</time>
      </trkpt>
      <trkpt lat="58.23109" lon="22.41253">
        <ele>4.875661</ele>
        <time>2020-10-07T10:42:45.424Z</time>
      </trkpt>
      <trkpt lat="58.2316" lon="22.4149">
        <ele>5.529783</ele>
        <time>2020-10-07T10:43:19.717Z</time>
      </trkpt>
      <trkpt lat="58.23604" lon="22.43015">
        <ele>5.735163</ele>
        <time>2020-10-07T10:46:44.064Z</time>
      </trkpt>
      <trkpt lat="58.23657" lon="22.43215">
        <ele>5.665635</ele>
        <time>2020-10-07T10:47:09.599Z</time>
      </trkpt>
      <trkpt lat="58.23707" lon="22.43368">
        <ele>5.615676</ele>
        <time>2020-10-07T10:47:30.591Z</time>
      </trkpt>
      <trkpt lat="58.23727" lon="22.4344">
        <ele>5.657425</ele>
        <time>2020-10-07T10:47:40.396Z</time>
      </trkpt>
      <trkpt lat="58.23749" lon="22.43515">
        <ele>5.817886</ele>
        <time>2020-10-07T10:47:50.974Z</time>
      </trkpt>
      <trkpt lat="58.23772" lon="22.43614">
        <ele>6.019213</ele>
        <time>2020-10-07T10:48:04.549Z</time>
      </trkpt>
      <trkpt lat="58.23812" lon="22.43734">
        <ele>6.284006</ele>
        <time>2020-10-07T10:48:22.677Z</time>
      </trkpt>
      <trkpt lat="58.23854" lon="22.43889">
        <ele>6.62445</ele>
        <time>2020-10-07T10:48:44.866Z</time>
      </trkpt>
      <trkpt lat="58.23851" lon="22.43931">
        <ele>6.708509</ele>
        <time>2020-10-07T10:48:50.190Z</time>
      </trkpt>
      <trkpt lat="58.23851" lon="22.43944">
        <ele>6.733091</ele>
        <time>2020-10-07T10:48:51.814Z</time>
      </trkpt>
      <trkpt lat="58.23854" lon="22.43963">
        <ele>6.771833</ele>
        <time>2020-10-07T10:48:54.284Z</time>
      </trkpt>
      <trkpt lat="58.23858" lon="22.43976">
        <ele>6.800807</ele>
        <time>2020-10-07T10:48:56.117Z</time>
      </trkpt>
      <trkpt lat="58.23864" lon="22.43988">
        <ele>6.833776</ele>
        <time>2020-10-07T10:48:58.132Z</time>
      </trkpt>
      <trkpt lat="58.23886" lon="22.44014">
        <ele>6.897313</ele>
        <time>2020-10-07T10:49:04.236Z</time>
      </trkpt>
      <trkpt lat="58.24112" lon="22.44827">
        <ele>6.314399</ele>
        <time>2020-10-07T10:50:49.960Z</time>
      </trkpt>
      <trkpt lat="58.2413" lon="22.44885">
        <ele>6.246522</ele>
        <time>2020-10-07T10:50:57.491Z</time>
      </trkpt>
      <trkpt lat="58.24139" lon="22.44907">
        <ele>6.218273</ele>
        <time>2020-10-07T10:51:00.488Z</time>
      </trkpt>
      <trkpt lat="58.24184" lon="22.45007">
        <ele>6.013122</ele>
        <time>2020-10-07T10:51:14.983Z</time>
      </trkpt>
      <trkpt lat="58.24209" lon="22.45053">
        <ele>5.907666</ele>
        <time>2020-10-07T10:51:22.448Z</time>
      </trkpt>
      <trkpt lat="58.2429" lon="22.45175">
        <ele>5.575167</ele>
        <time>2020-10-07T10:51:44.660Z</time>
      </trkpt>
      <trkpt lat="58.24348" lon="22.45261">
        <ele>5.297225</ele>
        <time>2020-10-07T10:52:00.113Z</time>
      </trkpt>
      <trkpt lat="58.24388" lon="22.45322">
        <ele>5.10139</ele>
        <time>2020-10-07T10:52:10.816Z</time>
      </trkpt>
      <trkpt lat="58.24558" lon="22.45579">
        <ele>3.825588</ele>
        <time>2020-10-07T10:52:54.832Z</time>
      </trkpt>
      <trkpt lat="58.24596" lon="22.45657">
        <ele>3.506657</ele>
        <time>2020-10-07T10:53:06.098Z</time>
      </trkpt>
      <trkpt lat="58.24621" lon="22.45739">
        <ele>3.219981</ele>
        <time>2020-10-07T10:53:16.271Z</time>
      </trkpt>
      <trkpt lat="58.24634" lon="22.45806">
        <ele>3.00389</ele>
        <time>2020-10-07T10:53:23.995Z</time>
      </trkpt>
      <trkpt lat="58.24644" lon="22.45897">
        <ele>2.825078</ele>
        <time>2020-10-07T10:53:34.036Z</time>
      </trkpt>
      <trkpt lat="58.24646" lon="22.45971">
        <ele>2.767276</ele>
        <time>2020-10-07T10:53:42.175Z</time>
      </trkpt>
      <trkpt lat="58.24632" lon="22.46211">
        <ele>2.641816</ele>
        <time>2020-10-07T10:54:10.357Z</time>
      </trkpt>
      <trkpt lat="58.24637" lon="22.46238">
        <ele>2.717542</ele>
        <time>2020-10-07T10:54:14.196Z</time>
      </trkpt>
      <trkpt lat="58.24644" lon="22.46241">
        <ele>2.752928</ele>
        <time>2020-10-07T10:54:15.985Z</time>
      </trkpt>
      <trkpt lat="58.24649" lon="22.46243">
        <ele>2.774958</ele>
        <time>2020-10-07T10:54:17.148Z</time>
      </trkpt>
      <trkpt lat="58.24648" lon="22.46262">
        <ele>2.825651</ele>
        <time>2020-10-07T10:54:19.646Z</time>
      </trkpt>
      <trkpt lat="58.24646" lon="22.46299">
        <ele>2.920008</ele>
        <time>2020-10-07T10:54:24.285Z</time>
      </trkpt>
      <trkpt lat="58.24638" lon="22.46465">
        <ele>3.349824</ele>
        <time>2020-10-07T10:54:45.851Z</time>
      </trkpt>
      <trkpt lat="58.24637" lon="22.46494">
        <ele>3.426912</ele>
        <time>2020-10-07T10:54:49.790Z</time>
      </trkpt>
      <trkpt lat="58.24633" lon="22.46635">
        <ele>3.697217</ele>
        <time>2020-10-07T10:55:08.302Z</time>
      </trkpt>
      <trkpt lat="58.24636" lon="22.46654">
        <ele>3.732838</ele>
        <time>2020-10-07T10:55:10.809Z</time>
      </trkpt>
      <trkpt lat="58.24639" lon="22.46673">
        <ele>3.769162</ele>
        <time>2020-10-07T10:55:13.371Z</time>
      </trkpt>
      <trkpt lat="58.24644" lon="22.46697">
        <ele>3.817343</ele>
        <time>2020-10-07T10:55:16.772Z</time>
      </trkpt>
      <trkpt lat="58.24648" lon="22.46718">
        <ele>3.857612</ele>
        <time>2020-10-07T10:55:19.490Z</time>
      </trkpt>
      <trkpt lat="58.24696" lon="22.46899">
        <ele>4.046409</ele>
        <time>2020-10-07T10:55:43.443Z</time>
      </trkpt>
      <trkpt lat="58.24725" lon="22.46973">
        <ele>3.978626</ele>
        <time>2020-10-07T10:55:53.897Z</time>
      </trkpt>
      <trkpt lat="58.24737" lon="22.47018">
        <ele>3.940804</ele>
        <time>2020-10-07T10:55:59.540Z</time>
      </trkpt>
      <trkpt lat="58.24738" lon="22.47041">
        <ele>3.923464</ele>
        <time>2020-10-07T10:56:02.169Z</time>
      </trkpt>
      <trkpt lat="58.24739" lon="22.4708">
        <ele>3.895269</ele>
        <time>2020-10-07T10:56:06.295Z</time>
      </trkpt>
      <trkpt lat="58.24824" lon="22.47308">
        <ele>4.259819</ele>
        <time>2020-10-07T10:56:38.981Z</time>
      </trkpt>
      <trkpt lat="58.24836" lon="22.47343">
        <ele>4.34128</ele>
        <time>2020-10-07T10:56:44.678Z</time>
      </trkpt>
      <trkpt lat="58.24853" lon="22.47392">
        <ele>4.455682</ele>
        <time>2020-10-07T10:56:52.708Z</time>
      </trkpt>
      <trkpt lat="58.24822" lon="22.4743">
        <ele>4.797824</ele>
        <time>2020-10-07T10:57:02.615Z</time>
      </trkpt>
      <trkpt lat="58.24807" lon="22.47449">
        <ele>5.030438</ele>
        <time>2020-10-07T10:57:07.441Z</time>
      </trkpt>
      <trkpt lat="58.24798" lon="22.47463">
        <ele>5.182032</ele>
        <time>2020-10-07T10:57:10.469Z</time>
      </trkpt>
      <trkpt lat="58.24795" lon="22.47477">
        <ele>5.289206</ele>
        <time>2020-10-07T10:57:12.798Z</time>
      </trkpt>
      <trkpt lat="58.248" lon="22.4751">
        <ele>5.52366</ele>
        <time>2020-10-07T10:57:17.784Z</time>
      </trkpt>
      <trkpt lat="58.24807" lon="22.47552">
        <ele>5.827871</ele>
        <time>2020-10-07T10:57:24.437Z</time>
      </trkpt>
      <trkpt lat="58.24827" lon="22.47624">
        <ele>6.389231</ele>
        <time>2020-10-07T10:57:36.365Z</time>
      </trkpt>
      <trkpt lat="58.24865" lon="22.47716">
        <ele>7.130049</ele>
        <time>2020-10-07T10:57:53.595Z</time>
      </trkpt>
      <trkpt lat="58.2488" lon="22.47744">
        <ele>7.347515</ele>
        <time>2020-10-07T10:57:59.377Z</time>
      </trkpt>
      <trkpt lat="58.24883" lon="22.47749">
        <ele>7.387199</ele>
        <time>2020-10-07T10:58:00.488Z</time>
      </trkpt>
      <trkpt lat="58.24906" lon="22.47785">
        <ele>7.698582</ele>
        <time>2020-10-07T10:58:08.454Z</time>
      </trkpt>
      <trkpt lat="58.2491" lon="22.47789">
        <ele>7.739183</ele>
        <time>2020-10-07T10:58:09.577Z</time>
      </trkpt>
      <trkpt lat="58.24941" lon="22.47819">
        <ele>8.104071</ele>
        <time>2020-10-07T10:58:18.903Z</time>
      </trkpt>
      <trkpt lat="58.24942" lon="22.47822">
        <ele>8.125181</ele>
        <time>2020-10-07T10:58:19.512Z</time>
      </trkpt>
      <trkpt lat="58.24949" lon="22.47838">
        <ele>8.234496</ele>
        <time>2020-10-07T10:58:22.296Z</time>
      </trkpt>
      <trkpt lat="58.24979" lon="22.47902">
        <ele>8.702245</ele>
        <time>2020-10-07T10:58:33.813Z</time>
      </trkpt>
      <trkpt lat="58.25008" lon="22.47966">
        <ele>8.925147</ele>
        <time>2020-10-07T10:58:44.585Z</time>
      </trkpt>
      <trkpt lat="58.25011" lon="22.47981">
        <ele>8.963645</ele>
        <time>2020-10-07T10:58:46.694Z</time>
      </trkpt>
      <trkpt lat="58.24988" lon="22.48061">
        <ele>9.186098</ele>
        <time>2020-10-07T10:58:58.389Z</time>
      </trkpt>
      <trkpt lat="58.2497" lon="22.48129">
        <ele>9.372104</ele>
        <time>2020-10-07T10:59:08.050Z</time>
      </trkpt>
      <trkpt lat="58.24964" lon="22.48152">
        <ele>9.437009</ele>
        <time>2020-10-07T10:59:11.311Z</time>
      </trkpt>
      <trkpt lat="58.2496" lon="22.48168">
        <ele>9.481285</ele>
        <time>2020-10-07T10:59:13.612Z</time>
      </trkpt>
      <trkpt lat="58.25034" lon="22.48296">
        <ele>9.631424</ele>
        <time>2020-10-07T10:59:35.983Z</time>
      </trkpt>
      <trkpt lat="58.25046" lon="22.48308">
        <ele>9.6425</ele>
        <time>2020-10-07T10:59:39.113Z</time>
      </trkpt>
      <trkpt lat="58.25062" lon="22.48324">
        <ele>9.656006</ele>
        <time>2020-10-07T10:59:42.998Z</time>
      </trkpt>
      <trkpt lat="58.25112" lon="22.4837">
        <ele>9.698841</ele>
        <time>2020-10-07T10:59:55.654Z</time>
      </trkpt>
      <trkpt lat="58.25148" lon="22.48402">
        <ele>9.786519</ele>
        <time>2020-10-07T11:00:04.696Z</time>
      </trkpt>
      <trkpt lat="58.25201" lon="22.48454">
        <ele>9.95257</ele>
        <time>2020-10-07T11:00:18.496Z</time>
      </trkpt>
      <trkpt lat="58.25224" lon="22.48476">
        <ele>10.022422</ele>
        <time>2020-10-07T11:00:24.299Z</time>
      </trkpt>
      <trkpt lat="58.25248" lon="22.48498">
        <ele>10.097714</ele>
        <time>2020-10-07T11:00:30.586Z</time>
      </trkpt>
      <trkpt lat="58.25265" lon="22.48508">
        <ele>10.147864</ele>
        <time>2020-10-07T11:00:34.935Z</time>
      </trkpt>
      <trkpt lat="58.25274" lon="22.48514">
        <ele>10.174023</ele>
        <time>2020-10-07T11:00:37.149Z</time>
      </trkpt>
      <trkpt lat="58.25287" lon="22.48517">
        <ele>10.209906</ele>
        <time>2020-10-07T11:00:40.170Z</time>
      </trkpt>
      <trkpt lat="58.25292" lon="22.48521">
        <ele>10.240405</ele>
        <time>2020-10-07T11:00:41.649Z</time>
      </trkpt>
      <trkpt lat="58.25298" lon="22.48529">
        <ele>10.278384</ele>
        <time>2020-10-07T11:00:43.973Z</time>
      </trkpt>
      <trkpt lat="58.2531" lon="22.48548">
        <ele>10.357068</ele>
        <time>2020-10-07T11:00:48.692Z</time>
      </trkpt>
      <trkpt lat="58.25324" lon="22.48587">
        <ele>10.490518</ele>
        <time>2020-10-07T11:00:55.112Z</time>
      </trkpt>
      <trkpt lat="58.25352" lon="22.4867">
        <ele>10.76043</ele>
        <time>2020-10-07T11:01:08.020Z</time>
      </trkpt>
      <trkpt lat="58.25411" lon="22.48863">
        <ele>11.094096</ele>
        <time>2020-10-07T11:01:36.577Z</time>
      </trkpt>
      <trkpt lat="58.25428" lon="22.48919">
        <ele>11.050878</ele>
        <time>2020-10-07T11:01:44.283Z</time>
      </trkpt>
      <trkpt lat="58.25435" lon="22.48947">
        <ele>11.030513</ele>
        <time>2020-10-07T11:01:47.889Z</time>
      </trkpt>
      <trkpt lat="58.25484" lon="22.4917">
        <ele>10.710343</ele>
        <time>2020-10-07T11:02:13.770Z</time>
      </trkpt>
      <trkpt lat="58.2549" lon="22.49192">
        <ele>10.640103</ele>
        <time>2020-10-07T11:02:16.501Z</time>
      </trkpt>
      <trkpt lat="58.25506" lon="22.49226">
        <ele>10.516576</ele>
        <time>2020-10-07T11:02:21.355Z</time>
      </trkpt>
      <trkpt lat="58.25526" lon="22.49274">
        <ele>10.348132</ele>
        <time>2020-10-07T11:02:27.901Z</time>
      </trkpt>
      <trkpt lat="58.25534" lon="22.49293">
        <ele>10.282317</ele>
        <time>2020-10-07T11:02:30.408Z</time>
      </trkpt>
      <trkpt lat="58.25611" lon="22.4942">
        <ele>9.84223</ele>
        <time>2020-10-07T11:02:51.824Z</time>
      </trkpt>
      <trkpt lat="58.25601" lon="22.49431">
        <ele>9.803881</ele>
        <time>2020-10-07T11:02:54.421Z</time>
      </trkpt>
      <trkpt lat="58.25605" lon="22.49442">
        <ele>9.781192</ele>
        <time>2020-10-07T11:02:56.001Z</time>
      </trkpt>
      <trkpt lat="58.25617" lon="22.49442">
        <ele>9.740799</ele>
        <time>2020-10-07T11:02:58.835Z</time>
      </trkpt>
      <trkpt lat="58.25737" lon="22.49695">
        <ele>9.261724</ele>
        <time>2020-10-07T11:03:37.000Z</time>
      </trkpt>
      <trkpt lat="58.25741" lon="22.4972">
        <ele>9.234361</ele>
        <time>2020-10-07T11:03:39.880Z</time>
      </trkpt>
      <trkpt lat="58.25805" lon="22.49859">
        <ele>9.048737</ele>
        <time>2020-10-07T11:04:00.846Z</time>
      </trkpt>
      <trkpt lat="58.25818" lon="22.49884">
        <ele>9.03536</ele>
        <time>2020-10-07T11:04:04.825Z</time>
      </trkpt>
      <trkpt lat="58.25822" lon="22.49894">
        <ele>9.030022</ele>
        <time>2020-10-07T11:04:06.440Z</time>
      </trkpt>
      <trkpt lat="58.25844" lon="22.49937">
        <ele>9.006905</ele>
        <time>2020-10-07T11:04:13.373Z</time>
      </trkpt>
      <trkpt lat="58.25848" lon="22.49958">
        <ele>8.99843</ele>
        <time>2020-10-07T11:04:15.946Z</time>
      </trkpt>
      <trkpt lat="58.25851" lon="22.49967">
        <ele>8.994242</ele>
        <time>2020-10-07T11:04:17.199Z</time>
      </trkpt>
      <trkpt lat="58.25857" lon="22.49961">
        <ele>8.989532</ele>
        <time>2020-10-07T11:04:18.687Z</time>
      </trkpt>
      <trkpt lat="58.25866" lon="22.49959">
        <ele>8.982863</ele>
        <time>2020-10-07T11:04:20.749Z</time>
      </trkpt>
      <trkpt lat="58.25871" lon="22.49956">
        <ele>8.97878</ele>
        <time>2020-10-07T11:04:21.965Z</time>
      </trkpt>
      <trkpt lat="58.25875" lon="22.49948">
        <ele>8.974641</ele>
        <time>2020-10-07T11:04:23.209Z</time>
      </trkpt>
      <trkpt lat="58.25894" lon="22.49869">
        <ele>8.940706</ele>
        <time>2020-10-07T11:04:33.425Z</time>
      </trkpt>
      <trkpt lat="58.25911" lon="22.49792">
        <ele>8.893862</ele>
        <time>2020-10-07T11:04:43.120Z</time>
      </trkpt>
      <trkpt lat="58.25972" lon="22.49502">
        <ele>8.648252</ele>
        <time>2020-10-07T11:05:18.536Z</time>
      </trkpt>
      <trkpt lat="58.26001" lon="22.49374">
        <ele>8.745162</ele>
        <time>2020-10-07T11:05:34.886Z</time>
      </trkpt>
      <trkpt lat="58.26028" lon="22.49247">
        <ele>8.840138</ele>
        <time>2020-10-07T11:05:51.927Z</time>
      </trkpt>
      <trkpt lat="58.26056" lon="22.4912">
        <ele>8.884459</ele>
        <time>2020-10-07T11:06:08.952Z</time>
      </trkpt>
      <trkpt lat="58.26076" lon="22.49027">
        <ele>8.887386</ele>
        <time>2020-10-07T11:06:20.945Z</time>
      </trkpt>
      <trkpt lat="58.261" lon="22.48914">
        <ele>8.890947</ele>
        <time>2020-10-07T11:06:35.169Z</time>
      </trkpt>
      <trkpt lat="58.26168" lon="22.48584">
        <ele>7.911988</ele>
        <time>2020-10-07T11:07:13.163Z</time>
      </trkpt>
      <trkpt lat="58.26182" lon="22.48518">
        <ele>7.594308</ele>
        <time>2020-10-07T11:07:20.568Z</time>
      </trkpt>
      <trkpt lat="58.26193" lon="22.48461">
        <ele>7.265467</ele>
        <time>2020-10-07T11:07:26.822Z</time>
      </trkpt>
      <trkpt lat="58.26207" lon="22.48418">
        <ele>6.992505</ele>
        <time>2020-10-07T11:07:31.973Z</time>
      </trkpt>
      <trkpt lat="58.26211" lon="22.48411">
        <ele>6.932241</ele>
        <time>2020-10-07T11:07:33.093Z</time>
      </trkpt>
      <trkpt lat="58.26215" lon="22.48409">
        <ele>6.890334</ele>
        <time>2020-10-07T11:07:33.874Z</time>
      </trkpt>
      <trkpt lat="58.26218" lon="22.48406">
        <ele>6.855073</ele>
        <time>2020-10-07T11:07:34.539Z</time>
      </trkpt>
      <trkpt lat="58.26222" lon="22.48396">
        <ele>6.785691</ele>
        <time>2020-10-07T11:07:35.866Z</time>
      </trkpt>
      <trkpt lat="58.26223" lon="22.4839">
        <ele>6.750377</ele>
        <time>2020-10-07T11:07:36.528Z</time>
      </trkpt>
      <trkpt lat="58.26222" lon="22.48384">
        <ele>6.717523</ele>
        <time>2020-10-07T11:07:37.133Z</time>
      </trkpt>
      <trkpt lat="58.26227" lon="22.48356">
        <ele>6.5618</ele>
        <time>2020-10-07T11:07:39.980Z</time>
      </trkpt>
      <trkpt lat="58.26234" lon="22.48334">
        <ele>6.420876</ele>
        <time>2020-10-07T11:07:42.601Z</time>
      </trkpt>
      <trkpt lat="58.26235" lon="22.48317">
        <ele>6.32794</ele>
        <time>2020-10-07T11:07:44.305Z</time>
      </trkpt>
      <trkpt lat="58.26248" lon="22.48284">
        <ele>6.10249</ele>
        <time>2020-10-07T11:07:48.392Z</time>
      </trkpt>
      <trkpt lat="58.26264" lon="22.48242">
        <ele>5.816514</ele>
        <time>2020-10-07T11:07:53.492Z</time>
      </trkpt>
      <trkpt lat="58.26289" lon="22.48145">
        <ele>5.210292</ele>
        <time>2020-10-07T11:08:04.314Z</time>
      </trkpt>
      <trkpt lat="58.26308" lon="22.48066">
        <ele>4.725547</ele>
        <time>2020-10-07T11:08:12.826Z</time>
      </trkpt>
      <trkpt lat="58.26324" lon="22.48002">
        <ele>4.324205</ele>
        <time>2020-10-07T11:08:19.912Z</time>
      </trkpt>
      <trkpt lat="58.26387" lon="22.47749">
        <ele>3.749043</ele>
        <time>2020-10-07T11:08:50.274Z</time>
      </trkpt>
      <trkpt lat="58.26393" lon="22.47724">
        <ele>3.714167</ele>
        <time>2020-10-07T11:08:53.699Z</time>
      </trkpt>
      <trkpt lat="58.26395" lon="22.47717">
        <ele>3.70537</ele>
        <time>2020-10-07T11:08:54.538Z</time>
      </trkpt>
      <trkpt lat="58.26427" lon="22.47596">
        <ele>3.759014</ele>
        <time>2020-10-07T11:09:11.610Z</time>
      </trkpt>
      <trkpt lat="58.26443" lon="22.4753">
        <ele>3.947747</ele>
        <time>2020-10-07T11:09:20.982Z</time>
      </trkpt>
      <trkpt lat="58.26454" lon="22.47485">
        <ele>4.077668</ele>
        <time>2020-10-07T11:09:27.538Z</time>
      </trkpt>
      <trkpt lat="58.26478" lon="22.47411">
        <ele>4.307999</ele>
        <time>2020-10-07T11:09:39.006Z</time>
      </trkpt>
      <trkpt lat="58.26507" lon="22.47349">
        <ele>4.509429</ele>
        <time>2020-10-07T11:09:49.448Z</time>
      </trkpt>
      <trkpt lat="58.26521" lon="22.47324">
        <ele>4.535799</ele>
        <time>2020-10-07T11:09:54.009Z</time>
      </trkpt>
      <trkpt lat="58.26544" lon="22.4728">
        <ele>4.581547</ele>
        <time>2020-10-07T11:10:01.803Z</time>
      </trkpt>
      <trkpt lat="58.26622" lon="22.47126">
        <ele>4.736299</ele>
        <time>2020-10-07T11:10:27.081Z</time>
      </trkpt>
      <trkpt lat="58.26636" lon="22.47094">
        <ele>4.74315</ele>
        <time>2020-10-07T11:10:31.871Z</time>
      </trkpt>
      <trkpt lat="58.26703" lon="22.46937">
        <ele>4.655364</ele>
        <time>2020-10-07T11:10:54.963Z</time>
      </trkpt>
      <trkpt lat="58.26712" lon="22.46917">
        <ele>4.64454</ele>
        <time>2020-10-07T11:10:57.777Z</time>
      </trkpt>
      <trkpt lat="58.26762" lon="22.46805">
        <ele>4.679594</ele>
        <time>2020-10-07T11:11:15.189Z</time>
      </trkpt>
      <trkpt lat="58.26783" lon="22.46759">
        <ele>4.76542</ele>
        <time>2020-10-07T11:11:22.400Z</time>
      </trkpt>
      <trkpt lat="58.26792" lon="22.46743">
        <ele>4.797948</ele>
        <time>2020-10-07T11:11:25.239Z</time>
      </trkpt>
      <trkpt lat="58.26804" lon="22.4672">
        <ele>4.842579</ele>
        <time>2020-10-07T11:11:28.981Z</time>
      </trkpt>
      <trkpt lat="58.26818" lon="22.46712">
        <ele>4.881284</ele>
        <time>2020-10-07T11:11:32.239Z</time>
      </trkpt>
      <trkpt lat="58.26834" lon="22.46711">
        <ele>4.924842</ele>
        <time>2020-10-07T11:11:36.030Z</time>
      </trkpt>
      <trkpt lat="58.26854" lon="22.46719">
        <ele>4.979006</ele>
        <time>2020-10-07T11:11:40.839Z</time>
      </trkpt>
      <trkpt lat="58.26866" lon="22.46714">
        <ele>5.011995</ele>
        <time>2020-10-07T11:11:43.894Z</time>
      </trkpt>
      <trkpt lat="58.26878" lon="22.46701">
        <ele>5.047775</ele>
        <time>2020-10-07T11:11:47.172Z</time>
      </trkpt>
      <trkpt lat="58.26882" lon="22.46694">
        <ele>5.062494</ele>
        <time>2020-10-07T11:11:48.578Z</time>
      </trkpt>
      <trkpt lat="58.2689" lon="22.46671">
        <ele>5.123295</ele>
        <time>2020-10-07T11:11:52.525Z</time>
      </trkpt>
      <trkpt lat="58.26893" lon="22.4664">
        <ele>5.218119</ele>
        <time>2020-10-07T11:11:56.783Z</time>
      </trkpt>
      <trkpt lat="58.26892" lon="22.46618">
        <ele>5.286872</ele>
        <time>2020-10-07T11:11:59.981Z</time>
      </trkpt>
      <trkpt lat="58.26903" lon="22.46596">
        <ele>5.379777</ele>
        <time>2020-10-07T11:12:04.052Z</time>
      </trkpt>
      <trkpt lat="58.26939" lon="22.46559">
        <ele>5.618037</ele>
        <time>2020-10-07T11:12:14.293Z</time>
      </trkpt>
      <trkpt lat="58.27022" lon="22.46539">
        <ele>6.098491</ele>
        <time>2020-10-07T11:12:34.452Z</time>
      </trkpt>
      <trkpt lat="58.27076" lon="22.46546">
        <ele>6.05007</ele>
        <time>2020-10-07T11:12:47.122Z</time>
      </trkpt>
      <trkpt lat="58.2725" lon="22.46616">
        <ele>5.660523</ele>
        <time>2020-10-07T11:13:24.657Z</time>
      </trkpt>
      <trkpt lat="58.274" lon="22.46648">
        <ele>5.109723</ele>
        <time>2020-10-07T11:13:55.742Z</time>
      </trkpt>
      <trkpt lat="58.27434" lon="22.46644">
        <ele>5.08567</ele>
        <time>2020-10-07T11:14:03.159Z</time>
      </trkpt>
      <trkpt lat="58.27445" lon="22.46643">
        <ele>5.078028</ele>
        <time>2020-10-07T11:14:05.476Z</time>
      </trkpt>
      <trkpt lat="58.27454" lon="22.46642">
        <ele>5.071788</ele>
        <time>2020-10-07T11:14:07.536Z</time>
      </trkpt>
      <trkpt lat="58.27552" lon="22.46622">
        <ele>5.002821</ele>
        <time>2020-10-07T11:14:29.656Z</time>
      </trkpt>
      <trkpt lat="58.27633" lon="22.46588">
        <ele>5.238148</ele>
        <time>2020-10-07T11:14:49.188Z</time>
      </trkpt>
      <trkpt lat="58.28226" lon="22.46177">
        <ele>7.226856</ele>
        <time>2020-10-07T11:17:18.086Z</time>
      </trkpt>
      <trkpt lat="58.28369" lon="22.46123">
        <ele>7.301544</ele>
        <time>2020-10-07T11:17:51.003Z</time>
      </trkpt>
      <trkpt lat="58.28375" lon="22.46122">
        <ele>7.30321</ele>
        <time>2020-10-07T11:17:52.472Z</time>
      </trkpt>
      <trkpt lat="58.28438" lon="22.46116">
        <ele>7.297953</ele>
        <time>2020-10-07T11:18:06.099Z</time>
      </trkpt>
      <trkpt lat="58.28481" lon="22.46119">
        <ele>7.265258</ele>
        <time>2020-10-07T11:18:15.496Z</time>
      </trkpt>
      <trkpt lat="58.29044" lon="22.46197">
        <ele>6.955298</ele>
        <time>2020-10-07T11:20:19.832Z</time>
      </trkpt>
      <trkpt lat="58.29196" lon="22.46203">
        <ele>7.071881</ele>
        <time>2020-10-07T11:20:53.983Z</time>
      </trkpt>
      <trkpt lat="58.29368" lon="22.46172">
        <ele>7.478814</ele>
        <time>2020-10-07T11:21:34.146Z</time>
      </trkpt>
      <trkpt lat="58.29526" lon="22.46112">
        <ele>8.042111</ele>
        <time>2020-10-07T11:22:12.767Z</time>
      </trkpt>
      <trkpt lat="58.30219" lon="22.45777">
        <ele>10.108317</ele>
        <time>2020-10-07T11:25:00.448Z</time>
      </trkpt>
      <trkpt lat="58.3031" lon="22.45747">
        <ele>10.191874</ele>
        <time>2020-10-07T11:25:20.934Z</time>
      </trkpt>
      <trkpt lat="58.3039" lon="22.45755">
        <ele>10.302273</ele>
        <time>2020-10-07T11:25:39.049Z</time>
      </trkpt>
      <trkpt lat="58.30445" lon="22.4578">
        <ele>10.446073</ele>
        <time>2020-10-07T11:25:52.186Z</time>
      </trkpt>
      <trkpt lat="58.30519" lon="22.45829">
        <ele>10.643815</ele>
        <time>2020-10-07T11:26:10.604Z</time>
      </trkpt>
      <trkpt lat="58.30535" lon="22.45839">
        <ele>10.68708</ele>
        <time>2020-10-07T11:26:14.707Z</time>
      </trkpt>
      <trkpt lat="58.30884" lon="22.46048">
        <ele>11.796468</ele>
        <time>2020-10-07T11:27:40.629Z</time>
      </trkpt>
      <trkpt lat="58.31634" lon="22.46394">
        <ele>14.199532</ele>
        <time>2020-10-07T11:30:41.476Z</time>
      </trkpt>
      <trkpt lat="58.3168" lon="22.46409">
        <ele>14.49216</ele>
        <time>2020-10-07T11:30:53.448Z</time>
      </trkpt>
      <trkpt lat="58.31747" lon="22.46445">
        <ele>14.9213</ele>
        <time>2020-10-07T11:31:11.056Z</time>
      </trkpt>
      <trkpt lat="58.31905" lon="22.46508">
        <ele>15.658194</ele>
        <time>2020-10-07T11:31:50.613Z</time>
      </trkpt>
      <trkpt lat="58.31986" lon="22.46499">
        <ele>15.711694</ele>
        <time>2020-10-07T11:32:08.903Z</time>
      </trkpt>
      <trkpt lat="58.32078" lon="22.46463">
        <ele>15.586251</ele>
        <time>2020-10-07T11:32:29.222Z</time>
      </trkpt>
      <trkpt lat="58.32558" lon="22.462">
        <ele>13.761058</ele>
        <time>2020-10-07T11:34:13.219Z</time>
      </trkpt>
      <trkpt lat="58.32667" lon="22.46133">
        <ele>13.659798</ele>
        <time>2020-10-07T11:34:38.440Z</time>
      </trkpt>
      <trkpt lat="58.32726" lon="22.46083">
        <ele>13.806871</ele>
        <time>2020-10-07T11:34:53.421Z</time>
      </trkpt>
      <trkpt lat="58.32789" lon="22.46011">
        <ele>13.972704</ele>
        <time>2020-10-07T11:35:10.705Z</time>
      </trkpt>
      <trkpt lat="58.32811" lon="22.45986">
        <ele>14.081176</ele>
        <time>2020-10-07T11:35:16.926Z</time>
      </trkpt>
      <trkpt lat="58.33319" lon="22.45394">
        <ele>16.657479</ele>
        <time>2020-10-07T11:37:39.837Z</time>
      </trkpt>
      <trkpt lat="58.33425" lon="22.45306">
        <ele>17.255028</ele>
        <time>2020-10-07T11:38:08.219Z</time>
      </trkpt>
      <trkpt lat="58.33532" lon="22.45238">
        <ele>18.018515</ele>
        <time>2020-10-07T11:38:36.501Z</time>
      </trkpt>
      <trkpt lat="58.33552" lon="22.45232">
        <ele>18.154723</ele>
        <time>2020-10-07T11:38:41.475Z</time>
      </trkpt>
      <trkpt lat="58.33632" lon="22.4521">
        <ele>18.575362</ele>
        <time>2020-10-07T11:39:01.566Z</time>
      </trkpt>
      <trkpt lat="58.33657" lon="22.45333">
        <ele>18.867687</ele>
        <time>2020-10-07T11:39:18.461Z</time>
      </trkpt>
      <trkpt lat="58.33723" lon="22.45634">
        <ele>19.092455</ele>
        <time>2020-10-07T11:39:57.306Z</time>
      </trkpt>
      <trkpt lat="58.33729" lon="22.45665">
        <ele>19.087784</ele>
        <time>2020-10-07T11:40:01.146Z</time>
      </trkpt>
      <trkpt lat="58.33731" lon="22.45673">
        <ele>19.086635</ele>
        <time>2020-10-07T11:40:02.000Z</time>
      </trkpt>
      <trkpt lat="58.33761" lon="22.45855">
        <ele>19.117299</ele>
        <time>2020-10-07T11:40:23.969Z</time>
      </trkpt>
      <trkpt lat="58.3377" lon="22.45958">
        <ele>19.160866</ele>
        <time>2020-10-07T11:40:36.058Z</time>
      </trkpt>
      <trkpt lat="58.33777" lon="22.4616">
        <ele>19.358904</ele>
        <time>2020-10-07T11:41:00.869Z</time>
      </trkpt>
      <trkpt lat="58.33779" lon="22.46245">
        <ele>19.541856</ele>
        <time>2020-10-07T11:41:11.706Z</time>
      </trkpt>
      <trkpt lat="58.33781" lon="22.46307">
        <ele>19.673949</ele>
        <time>2020-10-07T11:41:19.511Z</time>
      </trkpt>
      <trkpt lat="58.33785" lon="22.46435">
        <ele>19.946661</ele>
        <time>2020-10-07T11:41:35.834Z</time>
      </trkpt>
      <trkpt lat="58.33793" lon="22.46602">
        <ele>20.198722</ele>
        <time>2020-10-07T11:41:57.029Z</time>
      </trkpt>
      <trkpt lat="58.33798" lon="22.46647">
        <ele>20.267137</ele>
        <time>2020-10-07T11:42:02.670Z</time>
      </trkpt>
      <trkpt lat="58.33798" lon="22.46651">
        <ele>20.272852</ele>
        <time>2020-10-07T11:42:03.156Z</time>
      </trkpt>
      <trkpt lat="58.33807" lon="22.4672">
        <ele>20.380132</ele>
        <time>2020-10-07T11:42:11.895Z</time>
      </trkpt>
      <trkpt lat="58.33836" lon="22.46868">
        <ele>20.401785</ele>
        <time>2020-10-07T11:42:30.360Z</time>
      </trkpt>
      <trkpt lat="58.33893" lon="22.47049">
        <ele>20.280545</ele>
        <time>2020-10-07T11:42:54.095Z</time>
      </trkpt>
      <trkpt lat="58.33906" lon="22.47083">
        <ele>20.300094</ele>
        <time>2020-10-07T11:42:58.730Z</time>
      </trkpt>
      <trkpt lat="58.33957" lon="22.47218">
        <ele>20.751242</ele>
        <time>2020-10-07T11:43:18.754Z</time>
      </trkpt>
      <trkpt lat="58.34022" lon="22.47428">
        <ele>21.7241</ele>
        <time>2020-10-07T11:43:52.421Z</time>
      </trkpt>
      <trkpt lat="58.34053" lon="22.47593">
        <ele>22.866376</ele>
        <time>2020-10-07T11:44:18.197Z</time>
      </trkpt>
      <trkpt lat="58.3406" lon="22.47642">
        <ele>23.196299</ele>
        <time>2020-10-07T11:44:25.662Z</time>
      </trkpt>
      <trkpt lat="58.34065" lon="22.47694">
        <ele>23.502053</ele>
        <time>2020-10-07T11:44:33.260Z</time>
      </trkpt>
      <trkpt lat="58.34073" lon="22.47866">
        <ele>24.205498</ele>
        <time>2020-10-07T11:44:57.073Z</time>
      </trkpt>
      <trkpt lat="58.34066" lon="22.48033">
        <ele>24.846131</ele>
        <time>2020-10-07T11:45:18.312Z</time>
      </trkpt>
      <trkpt lat="58.34055" lon="22.48179">
        <ele>25.047688</ele>
        <time>2020-10-07T11:45:36.424Z</time>
      </trkpt>
      <trkpt lat="58.34054" lon="22.48194">
        <ele>25.068977</ele>
        <time>2020-10-07T11:45:38.172Z</time>
      </trkpt>
      <trkpt lat="58.34054" lon="22.482">
        <ele>25.076718</ele>
        <time>2020-10-07T11:45:39.072Z</time>
      </trkpt>
      <trkpt lat="58.33975" lon="22.4917">
        <ele>25.219927</ele>
        <time>2020-10-07T11:47:36.822Z</time>
      </trkpt>
      <trkpt lat="58.3397" lon="22.49315">
        <ele>24.708253</ele>
        <time>2020-10-07T11:47:51.543Z</time>
      </trkpt>
      <trkpt lat="58.33973" lon="22.49427">
        <ele>24.091074</ele>
        <time>2020-10-07T11:48:02.329Z</time>
      </trkpt>
      <trkpt lat="58.33983" lon="22.49679">
        <ele>22.143424</ele>
        <time>2020-10-07T11:48:26.250Z</time>
      </trkpt>
      <trkpt lat="58.33984" lon="22.49686">
        <ele>22.084578</ele>
        <time>2020-10-07T11:48:26.955Z</time>
      </trkpt>
      <trkpt lat="58.33991" lon="22.49877">
        <ele>21.823891</ele>
        <time>2020-10-07T11:48:47.260Z</time>
      </trkpt>
      <trkpt lat="58.33994" lon="22.49938">
        <ele>21.814483</ele>
        <time>2020-10-07T11:48:54.651Z</time>
      </trkpt>
      <trkpt lat="58.34" lon="22.50024">
        <ele>21.800965</ele>
        <time>2020-10-07T11:49:06.165Z</time>
      </trkpt>
      <trkpt lat="58.34017" lon="22.50149">
        <ele>22.254802</ele>
        <time>2020-10-07T11:49:24.243Z</time>
      </trkpt>
      <trkpt lat="58.34041" lon="22.50265">
        <ele>22.859932</ele>
        <time>2020-10-07T11:49:41.919Z</time>
      </trkpt>
      <trkpt lat="58.3407" lon="22.50372">
        <ele>23.451767</ele>
        <time>2020-10-07T11:49:58.192Z</time>
      </trkpt>
      <trkpt lat="58.34127" lon="22.50565">
        <ele>23.578338</ele>
        <time>2020-10-07T11:50:24.920Z</time>
      </trkpt>
      <trkpt lat="58.34186" lon="22.50767">
        <ele>23.683275</ele>
        <time>2020-10-07T11:50:51.021Z</time>
      </trkpt>
      <trkpt lat="58.34242" lon="22.50964">
        <ele>23.762351</ele>
        <time>2020-10-07T11:51:17.800Z</time>
      </trkpt>
      <trkpt lat="58.34303" lon="22.51179">
        <ele>24.179236</ele>
        <time>2020-10-07T11:51:48.499Z</time>
      </trkpt>
      <trkpt lat="58.34366" lon="22.51393">
        <ele>24.463147</ele>
        <time>2020-10-07T11:52:18.845Z</time>
      </trkpt>
      <trkpt lat="58.34514" lon="22.51912">
        <ele>24.520471</ele>
        <time>2020-10-07T11:53:28.006Z</time>
      </trkpt>
      <trkpt lat="58.34559" lon="22.52103">
        <ele>24.298105</ele>
        <time>2020-10-07T11:53:51.392Z</time>
      </trkpt>
      <trkpt lat="58.34578" lon="22.52229">
        <ele>24.23648</ele>
        <time>2020-10-07T11:54:06.175Z</time>
      </trkpt>
      <trkpt lat="58.34585" lon="22.52331">
        <ele>24.33284</ele>
        <time>2020-10-07T11:54:18.088Z</time>
      </trkpt>
      <trkpt lat="58.34599" lon="22.52808">
        <ele>25.155749</ele>
        <time>2020-10-07T11:55:18.191Z</time>
      </trkpt>
      <trkpt lat="58.34606" lon="22.5308">
        <ele>25.569846</ele>
        <time>2020-10-07T11:55:53.220Z</time>
      </trkpt>
      <trkpt lat="58.34606" lon="22.53089">
        <ele>25.581056</ele>
        <time>2020-10-07T11:55:54.391Z</time>
      </trkpt>
      <trkpt lat="58.34625" lon="22.53858">
        <ele>24.76429</ele>
        <time>2020-10-07T11:57:21.176Z</time>
      </trkpt>
      <trkpt lat="58.34645" lon="22.54105">
        <ele>23.67681</ele>
        <time>2020-10-07T11:57:46.598Z</time>
      </trkpt>
      <trkpt lat="58.34655" lon="22.54192">
        <ele>23.246564</ele>
        <time>2020-10-07T11:57:55.579Z</time>
      </trkpt>
      <trkpt lat="58.34675" lon="22.54341">
        <ele>22.705842</ele>
        <time>2020-10-07T11:58:11.384Z</time>
      </trkpt>
      <trkpt lat="58.34822" lon="22.55474">
        <ele>19.397515</ele>
        <time>2020-10-07T12:00:17.421Z</time>
      </trkpt>
      <trkpt lat="58.34834" lon="22.55571">
        <ele>19.166217</ele>
        <time>2020-10-07T12:00:28.505Z</time>
      </trkpt>
      <trkpt lat="58.34843" lon="22.5565">
        <ele>19.04204</ele>
        <time>2020-10-07T12:00:37.451Z</time>
      </trkpt>
      <trkpt lat="58.3485" lon="22.55733">
        <ele>18.913385</ele>
        <time>2020-10-07T12:00:46.791Z</time>
      </trkpt>
      <trkpt lat="58.34854" lon="22.55805">
        <ele>18.801937</ele>
        <time>2020-10-07T12:00:54.931Z</time>
      </trkpt>
      <trkpt lat="58.34857" lon="22.55918">
        <ele>18.638749</ele>
        <time>2020-10-07T12:01:07.320Z</time>
      </trkpt>
      <trkpt lat="58.34849" lon="22.56219">
        <ele>18.451314</ele>
        <time>2020-10-07T12:01:41.591Z</time>
      </trkpt>
      <trkpt lat="58.34804" lon="22.56901">
        <ele>19.48539</ele>
        <time>2020-10-07T12:03:07.158Z</time>
      </trkpt>
      <trkpt lat="58.34804" lon="22.5691">
        <ele>19.500312</ele>
        <time>2020-10-07T12:03:08.506Z</time>
      </trkpt>
      <trkpt lat="58.34791" lon="22.57092">
        <ele>19.813375</ele>
        <time>2020-10-07T12:03:30.564Z</time>
      </trkpt>
      <trkpt lat="58.34726" lon="22.57918">
        <ele>21.20923</ele>
        <time>2020-10-07T12:05:14.734Z</time>
      </trkpt>
      <trkpt lat="58.34724" lon="22.57942">
        <ele>21.248284</ele>
        <time>2020-10-07T12:05:17.800Z</time>
      </trkpt>
      <trkpt lat="58.34697" lon="22.58266">
        <ele>20.990026</ele>
        <time>2020-10-07T12:05:55.054Z</time>
      </trkpt>
      <trkpt lat="58.34669" lon="22.58601">
        <ele>20.158788</ele>
        <time>2020-10-07T12:06:31.344Z</time>
      </trkpt>
      <trkpt lat="58.34664" lon="22.58625">
        <ele>20.100092</ele>
        <time>2020-10-07T12:06:34.075Z</time>
      </trkpt>
      <trkpt lat="58.34744" lon="22.58752">
        <ele>20.158005</ele>
        <time>2020-10-07T12:06:56.697Z</time>
      </trkpt>
      <trkpt lat="58.34824" lon="22.58878">
        <ele>20.417379</ele>
        <time>2020-10-07T12:07:21.634Z</time>
      </trkpt>
      <trkpt lat="58.34983" lon="22.59123">
        <ele>21.813481</ele>
        <time>2020-10-07T12:08:14.000Z</time>
      </trkpt>
      <trkpt lat="58.35363" lon="22.5971">
        <ele>23.991888</ele>
        <time>2020-10-07T12:10:12.097Z</time>
      </trkpt>
      <trkpt lat="58.35653" lon="22.60156">
        <ele>22.76999</ele>
        <time>2020-10-07T12:11:29.656Z</time>
      </trkpt>
      <trkpt lat="58.35986" lon="22.60686">
        <ele>23.074864</ele>
        <time>2020-10-07T12:13:08.739Z</time>
      </trkpt>
      <trkpt lat="58.36206" lon="22.61034">
        <ele>22.63974</ele>
        <time>2020-10-07T12:14:10.715Z</time>
      </trkpt>
      <trkpt lat="58.36235" lon="22.61079">
        <ele>22.439891</ele>
        <time>2020-10-07T12:14:18.237Z</time>
      </trkpt>
      <trkpt lat="58.36348" lon="22.6125">
        <ele>21.837781</ele>
        <time>2020-10-07T12:14:47.204Z</time>
      </trkpt>
      <trkpt lat="58.36463" lon="22.61406">
        <ele>22.37323</ele>
        <time>2020-10-07T12:15:20.044Z</time>
      </trkpt>
      <trkpt lat="58.36551" lon="22.61512">
        <ele>24.034139</ele>
        <time>2020-10-07T12:15:50.533Z</time>
      </trkpt>
      <trkpt lat="58.36641" lon="22.61613">
        <ele>25.968435</ele>
        <time>2020-10-07T12:16:23.695Z</time>
      </trkpt>
      <trkpt lat="58.36713" lon="22.61689">
        <ele>26.960682</ele>
        <time>2020-10-07T12:16:48.813Z</time>
      </trkpt>
      <trkpt lat="58.36924" lon="22.61871">
        <ele>27.698799</ele>
        <time>2020-10-07T12:17:42.407Z</time>
      </trkpt>
      <trkpt lat="58.36971" lon="22.61908">
        <ele>27.439559</ele>
        <time>2020-10-07T12:17:51.734Z</time>
      </trkpt>
      <trkpt lat="58.37107" lon="22.6201">
        <ele>25.553571</ele>
        <time>2020-10-07T12:18:18.293Z</time>
      </trkpt>
      <trkpt lat="58.37207" lon="22.62086">
        <ele>25.366709</ele>
        <time>2020-10-07T12:18:41.107Z</time>
      </trkpt>
      <trkpt lat="58.3725" lon="22.62118">
        <ele>25.41094</ele>
        <time>2020-10-07T12:18:52.557Z</time>
      </trkpt>
      <trkpt lat="58.37332" lon="22.62177">
        <ele>25.582873</ele>
        <time>2020-10-07T12:19:14.681Z</time>
      </trkpt>
      <trkpt lat="58.37398" lon="22.62229">
        <ele>25.804387</ele>
        <time>2020-10-07T12:19:31.911Z</time>
      </trkpt>
      <trkpt lat="58.37434" lon="22.62256">
        <ele>25.924633</ele>
        <time>2020-10-07T12:19:40.741Z</time>
      </trkpt>
      <trkpt lat="58.37713" lon="22.62463">
        <ele>24.854485</ele>
        <time>2020-10-07T12:20:43.281Z</time>
      </trkpt>
      <trkpt lat="58.37831" lon="22.62593">
        <ele>24.169543</ele>
        <time>2020-10-07T12:21:10.657Z</time>
      </trkpt>
      <trkpt lat="58.37882" lon="22.62664">
        <ele>23.929374</ele>
        <time>2020-10-07T12:21:23.431Z</time>
      </trkpt>
      <trkpt lat="58.37984" lon="22.62846">
        <ele>23.969347</ele>
        <time>2020-10-07T12:21:54.752Z</time>
      </trkpt>
      <trkpt lat="58.38452" lon="22.63959">
        <ele>27.490567</ele>
        <time>2020-10-07T12:24:55.806Z</time>
      </trkpt>
      <trkpt lat="58.38661" lon="22.64446">
        <ele>30.192734</ele>
        <time>2020-10-07T12:26:21.533Z</time>
      </trkpt>
      <trkpt lat="58.38773" lon="22.64706">
        <ele>30.764034</ele>
        <time>2020-10-07T12:27:05.858Z</time>
      </trkpt>
      <trkpt lat="58.38799" lon="22.64773">
        <ele>30.587672</ele>
        <time>2020-10-07T12:27:14.610Z</time>
      </trkpt>
      <trkpt lat="58.38645" lon="22.64926">
        <ele>29.692381</ele>
        <time>2020-10-07T12:27:47.378Z</time>
      </trkpt>
      <trkpt lat="58.38414" lon="22.65157">
        <ele>29.719911</ele>
        <time>2020-10-07T12:28:48.474Z</time>
      </trkpt>
      <trkpt lat="58.38013" lon="22.65558">
        <ele>29.374022</ele>
        <time>2020-10-07T12:30:28.923Z</time>
      </trkpt>
      <trkpt lat="58.37813" lon="22.65758">
        <ele>28.379399</ele>
        <time>2020-10-07T12:31:13.999Z</time>
      </trkpt>
      <trkpt lat="58.37486" lon="22.66085">
        <ele>28.984081</ele>
        <time>2020-10-07T12:32:41.002Z</time>
      </trkpt>
      <trkpt lat="58.3732" lon="22.66189">
        <ele>28.363159</ele>
        <time>2020-10-07T12:33:18.001Z</time>
      </trkpt>
      <trkpt lat="58.3694" lon="22.66349">
        <ele>24.690233</ele>
        <time>2020-10-07T12:34:33.288Z</time>
      </trkpt>
      <trkpt lat="58.36934" lon="22.66352">
        <ele>24.637409</ele>
        <time>2020-10-07T12:34:34.468Z</time>
      </trkpt>
      <trkpt lat="58.36884" lon="22.66377">
        <ele>24.259413</ele>
        <time>2020-10-07T12:34:44.266Z</time>
      </trkpt>
      <trkpt lat="58.3681" lon="22.66426">
        <ele>23.68287</ele>
        <time>2020-10-07T12:34:59.640Z</time>
      </trkpt>
      <trkpt lat="58.36819" lon="22.66461">
        <ele>23.530365</ele>
        <time>2020-10-07T12:35:03.827Z</time>
      </trkpt>
      <trkpt lat="58.3696" lon="22.6677">
        <ele>23.606736</ele>
        <time>2020-10-07T12:35:52.250Z</time>
      </trkpt>
      <trkpt lat="58.36995" lon="22.66818">
        <ele>23.892728</ele>
        <time>2020-10-07T12:36:03.616Z</time>
      </trkpt>
      <trkpt lat="58.37058" lon="22.66892">
        <ele>24.374926</ele>
        <time>2020-10-07T12:36:23.303Z</time>
      </trkpt>
      <trkpt lat="58.37064" lon="22.66899">
        <ele>24.418894</ele>
        <time>2020-10-07T12:36:25.352Z</time>
      </trkpt>
      <trkpt lat="58.37085" lon="22.66934">
        <ele>24.600876</ele>
        <time>2020-10-07T12:36:31.793Z</time>
      </trkpt>
      <trkpt lat="58.371" lon="22.66974">
        <ele>24.690508</ele>
        <time>2020-10-07T12:36:37.903Z</time>
      </trkpt>
      <trkpt lat="58.37106" lon="22.66992">
        <ele>24.640886</ele>
        <time>2020-10-07T12:36:40.336Z</time>
      </trkpt>
      <trkpt lat="58.37123" lon="22.67058">
        <ele>24.468578</ele>
        <time>2020-10-07T12:36:48.643Z</time>
      </trkpt>
      <trkpt lat="58.37123" lon="22.67067">
        <ele>24.449124</ele>
        <time>2020-10-07T12:36:49.745Z</time>
      </trkpt>
      <trkpt lat="58.37134" lon="22.67133">
        <ele>24.284438</ele>
        <time>2020-10-07T12:36:57.515Z</time>
      </trkpt>
      <trkpt lat="58.37143" lon="22.67175">
        <ele>24.179114</ele>
        <time>2020-10-07T12:37:02.295Z</time>
      </trkpt>
      <trkpt lat="58.37147" lon="22.67193">
        <ele>24.132394</ele>
        <time>2020-10-07T12:37:04.377Z</time>
      </trkpt>
      <trkpt lat="58.37167" lon="22.6727">
        <ele>23.932013</ele>
        <time>2020-10-07T12:37:13.327Z</time>
      </trkpt>
      <trkpt lat="58.37175" lon="22.67314">
        <ele>23.668719</ele>
        <time>2020-10-07T12:37:17.835Z</time>
      </trkpt>
      <trkpt lat="58.37187" lon="22.67392">
        <ele>23.173467</ele>
        <time>2020-10-07T12:37:25.612Z</time>
      </trkpt>
      <trkpt lat="58.37189" lon="22.67461">
        <ele>22.750732</ele>
        <time>2020-10-07T12:37:32.283Z</time>
      </trkpt>
      <trkpt lat="58.37185" lon="22.67501">
        <ele>22.505555</ele>
        <time>2020-10-07T12:37:36.268Z</time>
      </trkpt>
      <trkpt lat="58.37179" lon="22.67542">
        <ele>22.24381</ele>
        <time>2020-10-07T12:37:40.584Z</time>
      </trkpt>
      <trkpt lat="58.37178" lon="22.67543">
        <ele>22.234563</ele>
        <time>2020-10-07T12:37:40.756Z</time>
      </trkpt>
      <trkpt lat="58.37167" lon="22.67602">
        <ele>21.853116</ele>
        <time>2020-10-07T12:37:47.117Z</time>
      </trkpt>
      <trkpt lat="58.37124" lon="22.67841">
        <ele>21.308558</ele>
        <time>2020-10-07T12:38:14.863Z</time>
      </trkpt>
      <trkpt lat="58.37114" lon="22.67892">
        <ele>21.193563</ele>
        <time>2020-10-07T12:38:20.810Z</time>
      </trkpt>
      <trkpt lat="58.3711" lon="22.67913">
        <ele>21.145806</ele>
        <time>2020-10-07T12:38:23.438Z</time>
      </trkpt>
      <trkpt lat="58.371" lon="22.67966">
        <ele>21.178029</ele>
        <time>2020-10-07T12:38:29.799Z</time>
      </trkpt>
      <trkpt lat="58.37097" lon="22.67985">
        <ele>21.211593</ele>
        <time>2020-10-07T12:38:32.210Z</time>
      </trkpt>
      <trkpt lat="58.37085" lon="22.68046">
        <ele>21.323233</ele>
        <time>2020-10-07T12:38:40.251Z</time>
      </trkpt>
      <trkpt lat="58.37078" lon="22.68083">
        <ele>21.39005</ele>
        <time>2020-10-07T12:38:45.176Z</time>
      </trkpt>
      <trkpt lat="58.37063" lon="22.68168">
        <ele>21.54522</ele>
        <time>2020-10-07T12:38:57.654Z</time>
      </trkpt>
      <trkpt lat="58.37059" lon="22.68194">
        <ele>21.59114</ele>
        <time>2020-10-07T12:39:01.147Z</time>
      </trkpt>
      <trkpt lat="58.37058" lon="22.68203">
        <ele>21.606844</ele>
        <time>2020-10-07T12:39:02.314Z</time>
      </trkpt>
      <trkpt lat="58.37054" lon="22.68283">
        <ele>21.640115</ele>
        <time>2020-10-07T12:39:12.139Z</time>
      </trkpt>
      <trkpt lat="58.37052" lon="22.68357">
        <ele>21.479218</ele>
        <time>2020-10-07T12:39:20.232Z</time>
      </trkpt>
      <trkpt lat="58.37057" lon="22.68427">
        <ele>21.325175</ele>
        <time>2020-10-07T12:39:27.926Z</time>
      </trkpt>
      <trkpt lat="58.37048" lon="22.68433">
        <ele>21.284662</ele>
        <time>2020-10-07T12:39:29.913Z</time>
      </trkpt>
      <trkpt lat="58.37015" lon="22.68454">
        <ele>21.139839</ele>
        <time>2020-10-07T12:39:37.133Z</time>
      </trkpt>
      <trkpt lat="58.37001" lon="22.68461">
        <ele>21.082213</ele>
        <time>2020-10-07T12:39:39.906Z</time>
      </trkpt>
      <trkpt lat="58.36979" lon="22.68471">
        <ele>20.985259</ele>
        <time>2020-10-07T12:39:44.648Z</time>
      </trkpt>
      <trkpt lat="58.36967" lon="22.68476">
        <ele>20.916152</ele>
        <time>2020-10-07T12:39:47.020Z</time>
      </trkpt>
      <trkpt lat="58.3695" lon="22.6848">
        <ele>20.769115</ele>
        <time>2020-10-07T12:39:50.359Z</time>
      </trkpt>
      <trkpt lat="58.36928" lon="22.68487">
        <ele>20.573463</ele>
        <time>2020-10-07T12:39:54.592Z</time>
      </trkpt>
      <trkpt lat="58.36897" lon="22.68486">
        <ele>20.30506</ele>
        <time>2020-10-07T12:40:00.324Z</time>
      </trkpt>
      <trkpt lat="58.36888" lon="22.68486">
        <ele>20.223146</ele>
        <time>2020-10-07T12:40:02.004Z</time>
      </trkpt>
      <trkpt lat="58.36755" lon="22.68464">
        <ele>19.357033</ele>
        <time>2020-10-07T12:40:28.791Z</time>
      </trkpt>
      <trkpt lat="58.36733" lon="22.6846">
        <ele>19.341249</ele>
        <time>2020-10-07T12:40:33.441Z</time>
      </trkpt>
      <trkpt lat="58.36728" lon="22.6846">
        <ele>19.337734</ele>
        <time>2020-10-07T12:40:34.663Z</time>
      </trkpt>
      <trkpt lat="58.36502" lon="22.68428">
        <ele>19.269304</ele>
        <time>2020-10-07T12:41:26.895Z</time>
      </trkpt>
      <trkpt lat="58.36459" lon="22.68422">
        <ele>19.274809</ele>
        <time>2020-10-07T12:41:35.950Z</time>
      </trkpt>
      <trkpt lat="58.36291" lon="22.68403">
        <ele>19.164203</ele>
        <time>2020-10-07T12:42:12.324Z</time>
      </trkpt>
      <trkpt lat="58.36217" lon="22.68393">
        <ele>19.222889</ele>
        <time>2020-10-07T12:42:29.431Z</time>
      </trkpt>
      <trkpt lat="58.35127" lon="22.68249">
        <ele>21.107723</ele>
        <time>2020-10-07T12:46:43.529Z</time>
      </trkpt>
      <trkpt lat="58.34982" lon="22.68229">
        <ele>19.425867</ele>
        <time>2020-10-07T12:47:09.751Z</time>
      </trkpt>
      <trkpt lat="58.34958" lon="22.68226">
        <ele>19.156662</ele>
        <time>2020-10-07T12:47:13.911Z</time>
      </trkpt>
      <trkpt lat="58.35034" lon="22.68458">
        <ele>17.591371</ele>
        <time>2020-10-07T12:47:41.468Z</time>
      </trkpt>
      <trkpt lat="58.35091" lon="22.68722">
        <ele>18.070652</ele>
        <time>2020-10-07T12:48:18.124Z</time>
      </trkpt>
      <trkpt lat="58.35126" lon="22.68946">
        <ele>18.607159</ele>
        <time>2020-10-07T12:48:48.238Z</time>
      </trkpt>
      <trkpt lat="58.35162" lon="22.69366">
        <ele>19.366359</ele>
        <time>2020-10-07T12:49:41.020Z</time>
      </trkpt>
      <trkpt lat="58.35179" lon="22.6958">
        <ele>19.326268</ele>
        <time>2020-10-07T12:50:06.666Z</time>
      </trkpt>
      <trkpt lat="58.35201" lon="22.69854">
        <ele>18.927001</ele>
        <time>2020-10-07T12:50:37.119Z</time>
      </trkpt>
      <trkpt lat="58.35209" lon="22.69913">
        <ele>18.774771</ele>
        <time>2020-10-07T12:50:43.578Z</time>
      </trkpt>
      <trkpt lat="58.35226" lon="22.70036">
        <ele>18.454614</ele>
        <time>2020-10-07T12:50:57.268Z</time>
      </trkpt>
      <trkpt lat="58.35264" lon="22.7021">
        <ele>18.133846</ele>
        <time>2020-10-07T12:51:17.981Z</time>
      </trkpt>
      <trkpt lat="58.3533" lon="22.7041">
        <ele>17.878111</ele>
        <time>2020-10-07T12:51:45.239Z</time>
      </trkpt>
      <trkpt lat="58.35405" lon="22.70576">
        <ele>17.539286</ele>
        <time>2020-10-07T12:52:10.069Z</time>
      </trkpt>
      <trkpt lat="58.35377" lon="22.70629">
        <ele>17.423025</ele>
        <time>2020-10-07T12:52:18.601Z</time>
      </trkpt>
      <trkpt lat="58.35339" lon="22.70715">
        <ele>17.179029</ele>
        <time>2020-10-07T12:52:31.258Z</time>
      </trkpt>
      <trkpt lat="58.35319" lon="22.70783">
        <ele>16.975637</ele>
        <time>2020-10-07T12:52:39.941Z</time>
      </trkpt>
      <trkpt lat="58.35304" lon="22.70851">
        <ele>16.782644</ele>
        <time>2020-10-07T12:52:48.123Z</time>
      </trkpt>
      <trkpt lat="58.35296" lon="22.70913">
        <ele>16.616211</ele>
        <time>2020-10-07T12:52:55.335Z</time>
      </trkpt>
      <trkpt lat="58.35292" lon="22.70976">
        <ele>16.454764</ele>
        <time>2020-10-07T12:53:02.613Z</time>
      </trkpt>
      <trkpt lat="58.35293" lon="22.71048">
        <ele>16.438212</ele>
        <time>2020-10-07T12:53:10.984Z</time>
      </trkpt>
      <trkpt lat="58.35385" lon="22.72237">
        <ele>16.269717</ele>
        <time>2020-10-07T12:55:37.401Z</time>
      </trkpt>
      <trkpt lat="58.35597" lon="22.7309">
        <ele>16.97703</ele>
        <time>2020-10-07T12:57:35.657Z</time>
      </trkpt>
      <trkpt lat="58.35687" lon="22.73759">
        <ele>17.380644</ele>
        <time>2020-10-07T12:59:01.554Z</time>
      </trkpt>
      <trkpt lat="58.35696" lon="22.74326">
        <ele>17.592738</ele>
        <time>2020-10-07T13:00:11.307Z</time>
      </trkpt>
      <trkpt lat="58.35732" lon="22.74738">
        <ele>17.640037</ele>
        <time>2020-10-07T13:01:02.848Z</time>
      </trkpt>
      <trkpt lat="58.35841" lon="22.75304">
        <ele>17.298149</ele>
        <time>2020-10-07T13:02:15.251Z</time>
      </trkpt>
      <trkpt lat="58.36057" lon="22.75991">
        <ele>15.656696</ele>
        <time>2020-10-07T13:03:46.583Z</time>
      </trkpt>
      <trkpt lat="58.36201" lon="22.76489">
        <ele>14.712078</ele>
        <time>2020-10-07T13:04:52.455Z</time>
      </trkpt>
      <trkpt lat="58.36273" lon="22.77055">
        <ele>13.970497</ele>
        <time>2020-10-07T13:06:00.600Z</time>
      </trkpt>
      <trkpt lat="58.36259" lon="22.78064">
        <ele>13.826526</ele>
        <time>2020-10-07T13:08:02.644Z</time>
      </trkpt>
      <trkpt lat="58.36255" lon="22.78413">
        <ele>14.364512</ele>
        <time>2020-10-07T13:08:48.957Z</time>
      </trkpt>
      <trkpt lat="58.36254" lon="22.78546">
        <ele>14.3878</ele>
        <time>2020-10-07T13:09:05.183Z</time>
      </trkpt>
      <trkpt lat="58.36242" lon="22.78824">
        <ele>13.797184</ele>
        <time>2020-10-07T13:09:36.507Z</time>
      </trkpt>
      <trkpt lat="58.36201" lon="22.79098">
        <ele>13.10995</ele>
        <time>2020-10-07T13:10:08.636Z</time>
      </trkpt>
      <trkpt lat="58.36048" lon="22.7963">
        <ele>12.267584</ele>
        <time>2020-10-07T13:11:20.174Z</time>
      </trkpt>
      <trkpt lat="58.35985" lon="22.7986">
        <ele>11.915402</ele>
        <time>2020-10-07T13:11:50.159Z</time>
      </trkpt>
      <trkpt lat="58.35841" lon="22.80387">
        <ele>10.914214</ele>
        <time>2020-10-07T13:12:59.707Z</time>
      </trkpt>
      <trkpt lat="58.35774" lon="22.80633">
        <ele>9.721653</ele>
        <time>2020-10-07T13:13:29.363Z</time>
      </trkpt>
      <trkpt lat="58.35708" lon="22.80859">
        <ele>8.820197</ele>
        <time>2020-10-07T13:13:57.447Z</time>
      </trkpt>
      <trkpt lat="58.35697" lon="22.80899">
        <ele>8.672289</ele>
        <time>2020-10-07T13:14:02.537Z</time>
      </trkpt>
      <trkpt lat="58.35654" lon="22.81093">
        <ele>8.266494</ele>
        <time>2020-10-07T13:14:27.169Z</time>
      </trkpt>
      <trkpt lat="58.35599" lon="22.81363">
        <ele>7.959867</ele>
        <time>2020-10-07T13:15:01.539Z</time>
      </trkpt>
      <trkpt lat="58.35555" lon="22.81736">
        <ele>7.695536</ele>
        <time>2020-10-07T13:15:46.552Z</time>
      </trkpt>
      <trkpt lat="58.35528" lon="22.82077">
        <ele>7.865163</ele>
        <time>2020-10-07T13:16:29.995Z</time>
      </trkpt>
      <trkpt lat="58.35525" lon="22.82492">
        <ele>7.962274</ele>
        <time>2020-10-07T13:17:22.036Z</time>
      </trkpt>
      <trkpt lat="58.35525" lon="22.82633">
        <ele>7.887112</ele>
        <time>2020-10-07T13:17:38.254Z</time>
      </trkpt>
      <trkpt lat="58.3553" lon="22.82806">
        <ele>7.433809</ele>
        <time>2020-10-07T13:17:57.588Z</time>
      </trkpt>
      <trkpt lat="58.35557" lon="22.83">
        <ele>6.913607</ele>
        <time>2020-10-07T13:18:20.168Z</time>
      </trkpt>
      <trkpt lat="58.35607" lon="22.83213">
        <ele>6.726437</ele>
        <time>2020-10-07T13:18:47.789Z</time>
      </trkpt>
      <trkpt lat="58.35659" lon="22.83398">
        <ele>6.660207</ele>
        <time>2020-10-07T13:19:13.577Z</time>
      </trkpt>
      <trkpt lat="58.35666" lon="22.83421">
        <ele>6.661577</ele>
        <time>2020-10-07T13:19:16.856Z</time>
      </trkpt>
      <trkpt lat="58.35671" lon="22.83441">
        <ele>6.662764</ele>
        <time>2020-10-07T13:19:19.718Z</time>
      </trkpt>
      <trkpt lat="58.3582" lon="22.83993">
        <ele>6.567901</ele>
        <time>2020-10-07T13:20:34.714Z</time>
      </trkpt>
      <trkpt lat="58.35914" lon="22.84477">
        <ele>6.414154</ele>
        <time>2020-10-07T13:21:36.838Z</time>
      </trkpt>
      <trkpt lat="58.3597" lon="22.84718">
        <ele>6.71135</ele>
        <time>2020-10-07T13:22:09.841Z</time>
      </trkpt>
      <trkpt lat="58.36021" lon="22.84915">
        <ele>7.104711</ele>
        <time>2020-10-07T13:22:38.716Z</time>
      </trkpt>
      <trkpt lat="58.36092" lon="22.85138">
        <ele>7.694244</ele>
        <time>2020-10-07T13:23:13.244Z</time>
      </trkpt>
      <trkpt lat="58.36335" lon="22.8584">
        <ele>8.378646</ele>
        <time>2020-10-07T13:24:57.113Z</time>
      </trkpt>
      <trkpt lat="58.36524" lon="22.86388">
        <ele>10.390501</ele>
        <time>2020-10-07T13:26:26.582Z</time>
      </trkpt>
      <trkpt lat="58.36548" lon="22.86459">
        <ele>10.624768</ele>
        <time>2020-10-07T13:26:37.915Z</time>
      </trkpt>
      <trkpt lat="58.36607" lon="22.86647">
        <ele>11.17078</ele>
        <time>2020-10-07T13:27:06.556Z</time>
      </trkpt>
      <trkpt lat="58.36651" lon="22.86797">
        <ele>11.514404</ele>
        <time>2020-10-07T13:27:28.555Z</time>
      </trkpt>
      <trkpt lat="58.36786" lon="22.87247">
        <ele>12.748007</ele>
        <time>2020-10-07T13:28:36.309Z</time>
      </trkpt>
      <trkpt lat="58.36967" lon="22.87847">
        <ele>15.449878</ele>
        <time>2020-10-07T13:30:11.981Z</time>
      </trkpt>
      <trkpt lat="58.37063" lon="22.88163">
        <ele>16.521611</ele>
        <time>2020-10-07T13:31:02.056Z</time>
      </trkpt>
      <trkpt lat="58.37124" lon="22.88364">
        <ele>16.795179</ele>
        <time>2020-10-07T13:31:30.886Z</time>
      </trkpt>
      <trkpt lat="58.37229" lon="22.88721">
        <ele>15.507875</ele>
        <time>2020-10-07T13:32:15.775Z</time>
      </trkpt>
      <trkpt lat="58.37488" lon="22.89981">
        <ele>12.025556</ele>
        <time>2020-10-07T13:34:49.121Z</time>
      </trkpt>
      <trkpt lat="58.37644" lon="22.90777">
        <ele>10.192986</ele>
        <time>2020-10-07T13:36:26.086Z</time>
      </trkpt>
      <trkpt lat="58.37776" lon="22.91835">
        <ele>7.771977</ele>
        <time>2020-10-07T13:38:30.492Z</time>
      </trkpt>
      <trkpt lat="58.37845" lon="22.92069">
        <ele>7.071368</ele>
        <time>2020-10-07T13:39:00.666Z</time>
      </trkpt>
      <trkpt lat="58.37965" lon="22.92368">
        <ele>6.098099</ele>
        <time>2020-10-07T13:39:42.762Z</time>
      </trkpt>
      <trkpt lat="58.38025" lon="22.92541">
        <ele>5.905894</ele>
        <time>2020-10-07T13:40:06.834Z</time>
      </trkpt>
      <trkpt lat="58.3848" lon="22.93705">
        <ele>7.125543</ele>
        <time>2020-10-07T13:43:10.830Z</time>
      </trkpt>
      <trkpt lat="58.3864" lon="22.94115">
        <ele>6.3824</ele>
        <time>2020-10-07T13:44:09.457Z</time>
      </trkpt>
      <trkpt lat="58.38705" lon="22.94285">
        <ele>5.974472</ele>
        <time>2020-10-07T13:44:33.446Z</time>
      </trkpt>
      <trkpt lat="58.38758" lon="22.94445">
        <ele>5.689605</ele>
        <time>2020-10-07T13:44:55.163Z</time>
      </trkpt>
      <trkpt lat="58.38905" lon="22.94925">
        <ele>5.717268</ele>
        <time>2020-10-07T13:46:02.652Z</time>
      </trkpt>
      <trkpt lat="58.39366" lon="22.96417">
        <ele>10.374531</ele>
        <time>2020-10-07T13:49:53.818Z</time>
      </trkpt>
      <trkpt lat="58.3975" lon="22.97665">
        <ele>9.853775</ele>
        <time>2020-10-07T13:52:47.152Z</time>
      </trkpt>
      <trkpt lat="58.39819" lon="22.97888">
        <ele>10.060937</ele>
        <time>2020-10-07T13:53:19.037Z</time>
      </trkpt>
      <trkpt lat="58.39849" lon="22.98">
        <ele>10.259817</ele>
        <time>2020-10-07T13:53:35.555Z</time>
      </trkpt>
      <trkpt lat="58.39891" lon="22.98221">
        <ele>10.862325</ele>
        <time>2020-10-07T13:54:07.374Z</time>
      </trkpt>
      <trkpt lat="58.39993" lon="22.98845">
        <ele>11.608497</ele>
        <time>2020-10-07T13:55:29.346Z</time>
      </trkpt>
      <trkpt lat="58.40019" lon="22.98957">
        <ele>11.760016</ele>
        <time>2020-10-07T13:55:44.765Z</time>
      </trkpt>
      <trkpt lat="58.40051" lon="22.99066">
        <ele>11.999591</ele>
        <time>2020-10-07T13:56:00.829Z</time>
      </trkpt>
      <trkpt lat="58.40093" lon="22.99176">
        <ele>12.261606</ele>
        <time>2020-10-07T13:56:18.689Z</time>
      </trkpt>
      <trkpt lat="58.40143" lon="22.99277">
        <ele>12.59778</ele>
        <time>2020-10-07T13:56:37.069Z</time>
      </trkpt>
      <trkpt lat="58.40195" lon="22.99364">
        <ele>12.954582</ele>
        <time>2020-10-07T13:56:54.750Z</time>
      </trkpt>
      <trkpt lat="58.40256" lon="22.99442">
        <ele>13.283913</ele>
        <time>2020-10-07T13:57:13.230Z</time>
      </trkpt>
      <trkpt lat="58.4036" lon="22.99553">
        <ele>13.415118</ele>
        <time>2020-10-07T13:57:41.658Z</time>
      </trkpt>
      <trkpt lat="58.40511" lon="22.99714">
        <ele>13.262299</ele>
        <time>2020-10-07T13:58:20.663Z</time>
      </trkpt>
      <trkpt lat="58.40788" lon="23.00003">
        <ele>13.05198</ele>
        <time>2020-10-07T13:59:32.904Z</time>
      </trkpt>
      <trkpt lat="58.40794" lon="23.00008">
        <ele>13.052062</ele>
        <time>2020-10-07T13:59:34.371Z</time>
      </trkpt>
      <trkpt lat="58.41226" lon="23.00453">
        <ele>13.105849</ele>
        <time>2020-10-07T14:01:28.894Z</time>
      </trkpt>
      <trkpt lat="58.41267" lon="23.0049">
        <ele>13.123869</ele>
        <time>2020-10-07T14:01:39.285Z</time>
      </trkpt>
      <trkpt lat="58.41354" lon="23.00561">
        <ele>13.161788</ele>
        <time>2020-10-07T14:02:01.302Z</time>
      </trkpt>
      <trkpt lat="58.4146" lon="23.00633">
        <ele>13.66972</ele>
        <time>2020-10-07T14:02:28.739Z</time>
      </trkpt>
      <trkpt lat="58.41635" lon="23.00702">
        <ele>14.904834</ele>
        <time>2020-10-07T14:03:16.005Z</time>
      </trkpt>
      <trkpt lat="58.41825" lon="23.00723">
        <ele>16.304605</ele>
        <time>2020-10-07T14:04:06.658Z</time>
      </trkpt>
      <trkpt lat="58.41905" lon="23.00716">
        <ele>16.707374</ele>
        <time>2020-10-07T14:04:27.021Z</time>
      </trkpt>
      <trkpt lat="58.42065" lon="23.00692">
        <ele>16.637482</ele>
        <time>2020-10-07T14:05:03.577Z</time>
      </trkpt>
      <trkpt lat="58.42199" lon="23.00618">
        <ele>15.668036</ele>
        <time>2020-10-07T14:05:32.627Z</time>
      </trkpt>
      <trkpt lat="58.42282" lon="23.00567">
        <ele>15.117611</ele>
        <time>2020-10-07T14:05:50.491Z</time>
      </trkpt>
      <trkpt lat="58.42649" lon="23.00265">
        <ele>13.141368</ele>
        <time>2020-10-07T14:07:16.799Z</time>
      </trkpt>
      <trkpt lat="58.42674" lon="23.00246">
        <ele>13.05211</ele>
        <time>2020-10-07T14:07:22.668Z</time>
      </trkpt>
      <trkpt lat="58.42684" lon="23.00238">
        <ele>13.015726</ele>
        <time>2020-10-07T14:07:25.078Z</time>
      </trkpt>
      <trkpt lat="58.42711" lon="23.00221">
        <ele>12.917471</ele>
        <time>2020-10-07T14:07:31.477Z</time>
      </trkpt>
      <trkpt lat="58.42725" lon="23.00213">
        <ele>12.87001</ele>
        <time>2020-10-07T14:07:34.632Z</time>
      </trkpt>
      <trkpt lat="58.4279" lon="23.00174">
        <ele>12.767008</ele>
        <time>2020-10-07T14:07:50.227Z</time>
      </trkpt>
      <trkpt lat="58.42855" lon="23.00153">
        <ele>12.695018</ele>
        <time>2020-10-07T14:08:05.311Z</time>
      </trkpt>
      <trkpt lat="58.42932" lon="23.00129">
        <ele>12.614451</ele>
        <time>2020-10-07T14:08:23.237Z</time>
      </trkpt>
      <trkpt lat="58.431" lon="23.00151">
        <ele>12.463989</ele>
        <time>2020-10-07T14:09:01.689Z</time>
      </trkpt>
      <trkpt lat="58.432" lon="23.00199">
        <ele>12.26898</ele>
        <time>2020-10-07T14:09:24.783Z</time>
      </trkpt>
      <trkpt lat="58.43356" lon="23.00333">
        <ele>11.901678</ele>
        <time>2020-10-07T14:10:03.081Z</time>
      </trkpt>
      <trkpt lat="58.43462" lon="23.00486">
        <ele>11.570181</ele>
        <time>2020-10-07T14:10:32.810Z</time>
      </trkpt>
      <trkpt lat="58.43642" lon="23.00769">
        <ele>10.957843</ele>
        <time>2020-10-07T14:11:24.402Z</time>
      </trkpt>
      <trkpt lat="58.44013" lon="23.01352">
        <ele>10.257744</ele>
        <time>2020-10-07T14:13:13.017Z</time>
      </trkpt>
      <trkpt lat="58.4421" lon="23.01662">
        <ele>10.586332</ele>
        <time>2020-10-07T14:14:14.727Z</time>
      </trkpt>
      <trkpt lat="58.44542" lon="23.0218">
        <ele>10.696384</ele>
        <time>2020-10-07T14:15:53.270Z</time>
      </trkpt>
      <trkpt lat="58.44546" lon="23.02187">
        <ele>10.72361</ele>
        <time>2020-10-07T14:15:54.579Z</time>
      </trkpt>
      <trkpt lat="58.44655" lon="23.02358">
        <ele>11.461091</ele>
        <time>2020-10-07T14:16:31.714Z</time>
      </trkpt>
      <trkpt lat="58.44723" lon="23.02453">
        <ele>11.408702</ele>
        <time>2020-10-07T14:16:52.271Z</time>
      </trkpt>
      <trkpt lat="58.44775" lon="23.02524">
        <ele>11.26202</ele>
        <time>2020-10-07T14:17:06.341Z</time>
      </trkpt>
      <trkpt lat="58.44816" lon="23.02557">
        <ele>11.159654</ele>
        <time>2020-10-07T14:17:15.711Z</time>
      </trkpt>
      <trkpt lat="58.44894" lon="23.02621">
        <ele>10.464854</ele>
        <time>2020-10-07T14:17:32.704Z</time>
      </trkpt>
      <trkpt lat="58.44988" lon="23.02656">
        <ele>9.64568</ele>
        <time>2020-10-07T14:17:52.320Z</time>
      </trkpt>
      <trkpt lat="58.45042" lon="23.02677">
        <ele>9.379802</ele>
        <time>2020-10-07T14:18:04.185Z</time>
      </trkpt>
      <trkpt lat="58.45116" lon="23.02675">
        <ele>9.060071</ele>
        <time>2020-10-07T14:18:20.140Z</time>
      </trkpt>
      <trkpt lat="58.45211" lon="23.02668">
        <ele>8.854534</ele>
        <time>2020-10-07T14:18:41.431Z</time>
      </trkpt>
      <trkpt lat="58.45332" lon="23.02659">
        <ele>8.975561</ele>
        <time>2020-10-07T14:19:10.393Z</time>
      </trkpt>
      <trkpt lat="58.45353" lon="23.02657">
        <ele>8.998712</ele>
        <time>2020-10-07T14:19:15.598Z</time>
      </trkpt>
      <trkpt lat="58.45417" lon="23.02653">
        <ele>9.148077</ele>
        <time>2020-10-07T14:19:31.147Z</time>
      </trkpt>
      <trkpt lat="58.45439" lon="23.02651">
        <ele>9.198408</ele>
        <time>2020-10-07T14:19:36.261Z</time>
      </trkpt>
      <trkpt lat="58.45447" lon="23.02651">
        <ele>9.218073</ele>
        <time>2020-10-07T14:19:38.325Z</time>
      </trkpt>
      <trkpt lat="58.45604" lon="23.02639">
        <ele>9.710572</ele>
        <time>2020-10-07T14:20:16.082Z</time>
      </trkpt>
      <trkpt lat="58.45688" lon="23.02633">
        <ele>10.054942</ele>
        <time>2020-10-07T14:20:36.566Z</time>
      </trkpt>
      <trkpt lat="58.45904" lon="23.02617">
        <ele>12.177514</ele>
        <time>2020-10-07T14:21:35.965Z</time>
      </trkpt>
      <trkpt lat="58.45913" lon="23.02616">
        <ele>12.281381</ele>
        <time>2020-10-07T14:21:38.436Z</time>
      </trkpt>
      <trkpt lat="58.45941" lon="23.02615">
        <ele>12.630056</ele>
        <time>2020-10-07T14:21:46.609Z</time>
      </trkpt>
      <trkpt lat="58.46" lon="23.02612">
        <ele>13.368201</ele>
        <time>2020-10-07T14:22:03.830Z</time>
      </trkpt>
      <trkpt lat="58.46008" lon="23.02612">
        <ele>13.463418</ele>
        <time>2020-10-07T14:22:05.989Z</time>
      </trkpt>
      <trkpt lat="58.46039" lon="23.02611">
        <ele>13.841767</ele>
        <time>2020-10-07T14:22:14.682Z</time>
      </trkpt>
      <trkpt lat="58.46092" lon="23.02616">
        <ele>14.307698</ele>
        <time>2020-10-07T14:22:29.467Z</time>
      </trkpt>
      <trkpt lat="58.4621" lon="23.02661">
        <ele>14.704261</ele>
        <time>2020-10-07T14:22:59.130Z</time>
      </trkpt>
      <trkpt lat="58.46219" lon="23.02668">
        <ele>14.737044</ele>
        <time>2020-10-07T14:23:01.412Z</time>
      </trkpt>
      <trkpt lat="58.4629" lon="23.02725">
        <ele>14.657695</ele>
        <time>2020-10-07T14:23:18.216Z</time>
      </trkpt>
      <trkpt lat="58.46325" lon="23.02753">
        <ele>14.520427</ele>
        <time>2020-10-07T14:23:26.594Z</time>
      </trkpt>
      <trkpt lat="58.46518" lon="23.02979">
        <ele>13.71839</ele>
        <time>2020-10-07T14:24:15.787Z</time>
      </trkpt>
      <trkpt lat="58.4671" lon="23.03199">
        <ele>13.390999</ele>
        <time>2020-10-07T14:25:06.497Z</time>
      </trkpt>
      <trkpt lat="58.47117" lon="23.03666">
        <ele>14.1958</ele>
        <time>2020-10-07T14:27:01.596Z</time>
      </trkpt>
      <trkpt lat="58.4725" lon="23.03817">
        <ele>13.736437</ele>
        <time>2020-10-07T14:27:35.038Z</time>
      </trkpt>
      <trkpt lat="58.47344" lon="23.03889">
        <ele>13.216408</ele>
        <time>2020-10-07T14:27:56.506Z</time>
      </trkpt>
      <trkpt lat="58.47375" lon="23.03912">
        <ele>13.056101</ele>
        <time>2020-10-07T14:28:03.555Z</time>
      </trkpt>
      <trkpt lat="58.47486" lon="23.0395">
        <ele>12.50341</ele>
        <time>2020-10-07T14:28:28.060Z</time>
      </trkpt>
      <trkpt lat="58.4798" lon="23.04007">
        <ele>10.129419</ele>
        <time>2020-10-07T14:30:15.067Z</time>
      </trkpt>
      <trkpt lat="58.48155" lon="23.04027">
        <ele>9.281309</ele>
        <time>2020-10-07T14:30:51.950Z</time>
      </trkpt>
      <trkpt lat="58.48194" lon="23.04031">
        <ele>9.103854</ele>
        <time>2020-10-07T14:31:00.375Z</time>
      </trkpt>
      <trkpt lat="58.48692" lon="23.04087">
        <ele>9.059303</ele>
        <time>2020-10-07T14:32:56.139Z</time>
      </trkpt>
      <trkpt lat="58.48771" lon="23.04096">
        <ele>9.183041</ele>
        <time>2020-10-07T14:33:15.725Z</time>
      </trkpt>
      <trkpt lat="58.49001" lon="23.04067">
        <ele>9.531318</ele>
        <time>2020-10-07T14:34:12.031Z</time>
      </trkpt>
      <trkpt lat="58.49461" lon="23.03959">
        <ele>8.227433</ele>
        <time>2020-10-07T14:35:52.277Z</time>
      </trkpt>
      <trkpt lat="58.49771" lon="23.03886">
        <ele>10.632685</ele>
        <time>2020-10-07T14:37:16.514Z</time>
      </trkpt>
      <trkpt lat="58.49829" lon="23.03875">
        <ele>11.129322</ele>
        <time>2020-10-07T14:37:31.978Z</time>
      </trkpt>
      <trkpt lat="58.49939" lon="23.03856">
        <ele>11.707456</ele>
        <time>2020-10-07T14:38:00.642Z</time>
      </trkpt>
      <trkpt lat="58.50189" lon="23.03796">
        <ele>12.450435</ele>
        <time>2020-10-07T14:39:01.015Z</time>
      </trkpt>
      <trkpt lat="58.5023" lon="23.03786">
        <ele>12.515506</ele>
        <time>2020-10-07T14:39:10.978Z</time>
      </trkpt>
      <trkpt lat="58.50632" lon="23.03697">
        <ele>12.927436</ele>
        <time>2020-10-07T14:40:47.067Z</time>
      </trkpt>
      <trkpt lat="58.51422" lon="23.03487">
        <ele>12.350298</ele>
        <time>2020-10-07T14:43:49.077Z</time>
      </trkpt>
      <trkpt lat="58.51591" lon="23.03443">
        <ele>12.431446</ele>
        <time>2020-10-07T14:44:28.974Z</time>
      </trkpt>
      <trkpt lat="58.51948" lon="23.03358">
        <ele>12.851677</ele>
        <time>2020-10-07T14:45:54.684Z</time>
      </trkpt>
      <trkpt lat="58.52064" lon="23.03324">
        <ele>12.778252</ele>
        <time>2020-10-07T14:46:21.702Z</time>
      </trkpt>
      <trkpt lat="58.52189" lon="23.03297">
        <ele>12.55081</ele>
        <time>2020-10-07T14:46:49.804Z</time>
      </trkpt>
      <trkpt lat="58.5226" lon="23.03322">
        <ele>12.301519</ele>
        <time>2020-10-07T14:47:05.769Z</time>
      </trkpt>
      <trkpt lat="58.52445" lon="23.03488">
        <ele>11.553504</ele>
        <time>2020-10-07T14:47:50.349Z</time>
      </trkpt>
      <trkpt lat="58.52665" lon="23.03669">
        <ele>10.634854</ele>
        <time>2020-10-07T14:48:42.317Z</time>
      </trkpt>
      <trkpt lat="58.52967" lon="23.03932">
        <ele>10.61278</ele>
        <time>2020-10-07T14:49:57.278Z</time>
      </trkpt>
      <trkpt lat="58.53054" lon="23.0401">
        <ele>10.294024</ele>
        <time>2020-10-07T14:50:17.240Z</time>
      </trkpt>
      <trkpt lat="58.5317" lon="23.04108">
        <ele>9.815508</ele>
        <time>2020-10-07T14:50:43.198Z</time>
      </trkpt>
      <trkpt lat="58.53252" lon="23.04201">
        <ele>9.670428</ele>
        <time>2020-10-07T14:51:04.225Z</time>
      </trkpt>
      <trkpt lat="58.53328" lon="23.04314">
        <ele>9.49864</ele>
        <time>2020-10-07T14:51:25.485Z</time>
      </trkpt>
      <trkpt lat="58.5356" lon="23.04666">
        <ele>8.739969</ele>
        <time>2020-10-07T14:52:28.465Z</time>
      </trkpt>
      <trkpt lat="58.53648" lon="23.04787">
        <ele>8.574767</ele>
        <time>2020-10-07T14:52:51.486Z</time>
      </trkpt>
      <trkpt lat="58.53716" lon="23.04859">
        <ele>8.49415</ele>
        <time>2020-10-07T14:53:08.722Z</time>
      </trkpt>
      <trkpt lat="58.54036" lon="23.05115">
        <ele>8.853519</ele>
        <time>2020-10-07T14:54:27.849Z</time>
      </trkpt>
      <trkpt lat="58.54627" lon="23.05713">
        <ele>9.044427</ele>
        <time>2020-10-07T14:56:57.019Z</time>
      </trkpt>
      <trkpt lat="58.55227" lon="23.06297">
        <ele>9.267883</ele>
        <time>2020-10-07T14:59:28.984Z</time>
      </trkpt>
      <trkpt lat="58.55526" lon="23.06564">
        <ele>7.636474</ele>
        <time>2020-10-07T15:00:36.721Z</time>
      </trkpt>
      <trkpt lat="58.55575" lon="23.06612">
        <ele>7.215955</ele>
        <time>2020-10-07T15:00:47.521Z</time>
      </trkpt>
      <trkpt lat="58.5561" lon="23.06659">
        <ele>6.88952</ele>
        <time>2020-10-07T15:00:55.953Z</time>
      </trkpt>
      <trkpt lat="58.55636" lon="23.06704">
        <ele>6.618186</ele>
        <time>2020-10-07T15:01:02.936Z</time>
      </trkpt>
      <trkpt lat="58.55644" lon="23.06719">
        <ele>6.531662</ele>
        <time>2020-10-07T15:01:05.178Z</time>
      </trkpt>
      <trkpt lat="58.55671" lon="23.06777">
        <ele>6.272131</ele>
        <time>2020-10-07T15:01:13.252Z</time>
      </trkpt>
      <trkpt lat="58.55696" lon="23.06838">
        <ele>6.080849</ele>
        <time>2020-10-07T15:01:21.272Z</time>
      </trkpt>
      <trkpt lat="58.55769" lon="23.07006">
        <ele>5.538967</ele>
        <time>2020-10-07T15:01:44.956Z</time>
      </trkpt>
      <trkpt lat="58.55844" lon="23.07185">
        <ele>5.768023</ele>
        <time>2020-10-07T15:02:12.183Z</time>
      </trkpt>
      <trkpt lat="58.5586" lon="23.07224">
        <ele>5.82898</ele>
        <time>2020-10-07T15:02:18.529Z</time>
      </trkpt>
      <trkpt lat="58.55869" lon="23.07252">
        <ele>5.868177</ele>
        <time>2020-10-07T15:02:22.711Z</time>
      </trkpt>
      <trkpt lat="58.55892" lon="23.07336">
        <ele>6.042979</ele>
        <time>2020-10-07T15:02:34.970Z</time>
      </trkpt>
      <trkpt lat="58.55901" lon="23.07386">
        <ele>6.170005</ele>
        <time>2020-10-07T15:02:41.639Z</time>
      </trkpt>
      <trkpt lat="58.55902" lon="23.07392">
        <ele>6.184687</ele>
        <time>2020-10-07T15:02:42.397Z</time>
      </trkpt>
      <trkpt lat="58.55903" lon="23.074">
        <ele>6.207053</ele>
        <time>2020-10-07T15:02:43.626Z</time>
      </trkpt>
      <trkpt lat="58.55909" lon="23.07429">
        <ele>6.280451</ele>
        <time>2020-10-07T15:02:47.471Z</time>
      </trkpt>
      <trkpt lat="58.5592" lon="23.07515">
        <ele>6.493195</ele>
        <time>2020-10-07T15:02:58.670Z</time>
      </trkpt>
      <trkpt lat="58.55922" lon="23.07551">
        <ele>6.582016</ele>
        <time>2020-10-07T15:03:03.306Z</time>
      </trkpt>
      <trkpt lat="58.55929" lon="23.07636">
        <ele>6.763666</ele>
        <time>2020-10-07T15:03:13.964Z</time>
      </trkpt>
      <trkpt lat="58.55931" lon="23.07665">
        <ele>6.777816</ele>
        <time>2020-10-07T15:03:17.506Z</time>
      </trkpt>
      <trkpt lat="58.55932" lon="23.07682">
        <ele>6.786087</ele>
        <time>2020-10-07T15:03:19.545Z</time>
      </trkpt>
      <trkpt lat="58.5594" lon="23.07804">
        <ele>6.846329</ele>
        <time>2020-10-07T15:03:34.029Z</time>
      </trkpt>
      <trkpt lat="58.55948" lon="23.07917">
        <ele>6.902109</ele>
        <time>2020-10-07T15:03:47.404Z</time>
      </trkpt>
      <trkpt lat="58.55948" lon="23.0799">
        <ele>6.943056</ele>
        <time>2020-10-07T15:03:56.002Z</time>
      </trkpt>
      <trkpt lat="58.55944" lon="23.08113">
        <ele>7.029009</ele>
        <time>2020-10-07T15:04:10.573Z</time>
      </trkpt>
      <trkpt lat="58.55942" lon="23.08125">
        <ele>7.037532</ele>
        <time>2020-10-07T15:04:12.051Z</time>
      </trkpt>
      <trkpt lat="58.55936" lon="23.08172">
        <ele>7.072265</ele>
        <time>2020-10-07T15:04:18.040Z</time>
      </trkpt>
      <trkpt lat="58.55933" lon="23.08195">
        <ele>7.088614</ele>
        <time>2020-10-07T15:04:20.898Z</time>
      </trkpt>
      <trkpt lat="58.5593" lon="23.0821">
        <ele>7.100186</ele>
        <time>2020-10-07T15:04:22.888Z</time>
      </trkpt>
      <trkpt lat="58.55926" lon="23.08229">
        <ele>7.113815</ele>
        <time>2020-10-07T15:04:25.196Z</time>
      </trkpt>
      <trkpt lat="58.55915" lon="23.0828">
        <ele>7.152584</ele>
        <time>2020-10-07T15:04:31.922Z</time>
      </trkpt>
      <trkpt lat="58.55911" lon="23.08296">
        <ele>7.16534</ele>
        <time>2020-10-07T15:04:33.949Z</time>
      </trkpt>
      <trkpt lat="58.55895" lon="23.08362">
        <ele>7.073127</ele>
        <time>2020-10-07T15:04:42.289Z</time>
      </trkpt>
      <trkpt lat="58.55885" lon="23.08397">
        <ele>7.018671</ele>
        <time>2020-10-07T15:04:46.991Z</time>
      </trkpt>
      <trkpt lat="58.55877" lon="23.08422">
        <ele>6.978684</ele>
        <time>2020-10-07T15:04:50.305Z</time>
      </trkpt>
      <trkpt lat="58.55856" lon="23.08495">
        <ele>6.866371</ele>
        <time>2020-10-07T15:04:59.590Z</time>
      </trkpt>
      <trkpt lat="58.55849" lon="23.08522">
        <ele>6.825232</ele>
        <time>2020-10-07T15:05:03.038Z</time>
      </trkpt>
      <trkpt lat="58.55839" lon="23.08563">
        <ele>6.765232</ele>
        <time>2020-10-07T15:05:07.849Z</time>
      </trkpt>
      <trkpt lat="58.55793" lon="23.08844">
        <ele>5.911396</ele>
        <time>2020-10-07T15:05:38.807Z</time>
      </trkpt>
      <trkpt lat="58.55778" lon="23.08943">
        <ele>5.591755</ele>
        <time>2020-10-07T15:05:49.658Z</time>
      </trkpt>
      <trkpt lat="58.55741" lon="23.09148">
        <ele>5.258329</ele>
        <time>2020-10-07T15:06:13.547Z</time>
      </trkpt>
      <trkpt lat="58.55736" lon="23.09181">
        <ele>5.206264</ele>
        <time>2020-10-07T15:06:17.546Z</time>
      </trkpt>
      <trkpt lat="58.55686" lon="23.09443">
        <ele>4.804198</ele>
        <time>2020-10-07T15:06:49.352Z</time>
      </trkpt>
      <trkpt lat="58.55674" lon="23.09483">
        <ele>4.738912</ele>
        <time>2020-10-07T15:06:54.567Z</time>
      </trkpt>
      <trkpt lat="58.55633" lon="23.0961">
        <ele>4.473312</ele>
        <time>2020-10-07T15:07:10.643Z</time>
      </trkpt>
      <trkpt lat="58.55618" lon="23.0966">
        <ele>4.315899</ele>
        <time>2020-10-07T15:07:16.793Z</time>
      </trkpt>
      <trkpt lat="58.55575" lon="23.09802">
        <ele>3.86876</ele>
        <time>2020-10-07T15:07:33.957Z</time>
      </trkpt>
      <trkpt lat="58.55454" lon="23.10237">
        <ele>3.416086</ele>
        <time>2020-10-07T15:08:29.398Z</time>
      </trkpt>
      <trkpt lat="58.55175" lon="23.11243">
        <ele>5.146174</ele>
        <time>2020-10-07T15:10:49.790Z</time>
      </trkpt>
      <trkpt lat="58.55138" lon="23.11379">
        <ele>5.367085</ele>
        <time>2020-10-07T15:11:08.293Z</time>
      </trkpt>
      <trkpt lat="58.55104" lon="23.11502">
        <ele>5.60514</ele>
        <time>2020-10-07T15:11:25.603Z</time>
      </trkpt>
      <trkpt lat="58.55049" lon="23.11687">
        <ele>5.97775</ele>
        <time>2020-10-07T15:11:52.745Z</time>
      </trkpt>
      <trkpt lat="58.54847" lon="23.12335">
        <ele>4.572807</ele>
        <time>2020-10-07T15:13:15.348Z</time>
      </trkpt>
      <trkpt lat="58.54834" lon="23.12382">
        <ele>4.377975</ele>
        <time>2020-10-07T15:13:20.843Z</time>
      </trkpt>
      <trkpt lat="58.54817" lon="23.12481">
        <ele>4.006499</ele>
        <time>2020-10-07T15:13:31.477Z</time>
      </trkpt>
      <trkpt lat="58.54811" lon="23.12635">
        <ele>3.50787</ele>
        <time>2020-10-07T15:13:47.467Z</time>
      </trkpt>
      <trkpt lat="58.54879" lon="23.13475">
        <ele>2.876716</ele>
        <time>2020-10-07T15:15:24.477Z</time>
      </trkpt>
      <trkpt lat="58.5489" lon="23.1356">
        <ele>2.86211</ele>
        <time>2020-10-07T15:15:34.724Z</time>
      </trkpt>
      <trkpt lat="58.54907" lon="23.1363">
        <ele>2.848941</ele>
        <time>2020-10-07T15:15:43.724Z</time>
      </trkpt>
      <trkpt lat="58.5491" lon="23.13645">
        <ele>2.842586</ele>
        <time>2020-10-07T15:15:45.726Z</time>
      </trkpt>
      <trkpt lat="58.54909" lon="23.1366">
        <ele>2.836612</ele>
        <time>2020-10-07T15:15:47.525Z</time>
      </trkpt>
      <trkpt lat="58.54904" lon="23.13672">
        <ele>2.83074</ele>
        <time>2020-10-07T15:15:49.301Z</time>
      </trkpt>
      <trkpt lat="58.54898" lon="23.13675">
        <ele>2.826139</ele>
        <time>2020-10-07T15:15:50.679Z</time>
      </trkpt>
      <trkpt lat="58.55033" lon="23.13869">
        <ele>2.687602</ele>
        <time>2020-10-07T15:16:27.618Z</time>
      </trkpt>
      <trkpt lat="58.55078" lon="23.13935">
        <ele>2.607583</ele>
        <time>2020-10-07T15:16:39.921Z</time>
      </trkpt>
      <trkpt lat="58.55192" lon="23.14098">
        <ele>2.433932</ele>
        <time>2020-10-07T15:17:10.981Z</time>
      </trkpt>
      <trkpt lat="58.5536" lon="23.14341">
        <ele>2.309633</ele>
        <time>2020-10-07T15:17:57.249Z</time>
      </trkpt>
      <trkpt lat="58.56328" lon="23.15731">
        <ele>1.937713</ele>
        <time>2020-10-07T15:22:25.375Z</time>
      </trkpt>
      <trkpt lat="58.5645" lon="23.15908">
        <ele>2.004885</ele>
        <time>2020-10-07T15:23:00.273Z</time>
      </trkpt>
      <trkpt lat="58.56724" lon="23.163">
        <ele>1.256004</ele>
        <time>2020-10-07T15:24:13.176Z</time>
      </trkpt>
      <trkpt lat="58.56739" lon="23.1633">
        <ele>1.207879</ele>
        <time>2020-10-07T15:24:17.803Z</time>
      </trkpt>
      <trkpt lat="58.56808" lon="23.16429">
        <ele>1.457955</ele>
        <time>2020-10-07T15:24:37.435Z</time>
      </trkpt>
      <trkpt lat="58.56811" lon="23.16434">
        <ele>1.469683</ele>
        <time>2020-10-07T15:24:38.280Z</time>
      </trkpt>
      <trkpt lat="58.5687" lon="23.16517">
        <ele>1.693488</ele>
        <time>2020-10-07T15:24:56.071Z</time>
      </trkpt>
      <trkpt lat="58.56951" lon="23.16633">
        <ele>2.301754</ele>
        <time>2020-10-07T15:25:21.593Z</time>
      </trkpt>
      <trkpt lat="58.56971" lon="23.16653">
        <ele>2.45353</ele>
        <time>2020-10-07T15:25:27.393Z</time>
      </trkpt>
      <trkpt lat="58.56979" lon="23.1666">
        <ele>2.50974</ele>
        <time>2020-10-07T15:25:29.417Z</time>
      </trkpt>
      <trkpt lat="58.5699" lon="23.16669">
        <ele>2.59442</ele>
        <time>2020-10-07T15:25:32.557Z</time>
      </trkpt>
      <trkpt lat="58.57009" lon="23.16684">
        <ele>2.727057</ele>
        <time>2020-10-07T15:25:37.413Z</time>
      </trkpt>
      <trkpt lat="58.57044" lon="23.16713">
        <ele>2.96955</ele>
        <time>2020-10-07T15:25:46.817Z</time>
      </trkpt>
      <trkpt lat="58.57082" lon="23.1674">
        <ele>3.116265</ele>
        <time>2020-10-07T15:25:56.730Z</time>
      </trkpt>
      <trkpt lat="58.57094" lon="23.1673">
        <ele>3.166072</ele>
        <time>2020-10-07T15:26:00.120Z</time>
      </trkpt>
      <trkpt lat="58.5711" lon="23.16642">
        <ele>3.343012</ele>
        <time>2020-10-07T15:26:11.719Z</time>
      </trkpt>
      <trkpt lat="58.57148" lon="23.16656">
        <ele>3.484905</ele>
        <time>2020-10-07T15:26:20.790Z</time>
      </trkpt>
      <trkpt lat="58.57198" lon="23.16671">
        <ele>3.641668</ele>
        <time>2020-10-07T15:26:32.317Z</time>
      </trkpt>
      <trkpt lat="58.57296" lon="23.16682">
        <ele>3.846299</ele>
        <time>2020-10-07T15:26:54.891Z</time>
      </trkpt>
      <trkpt lat="58.57439" lon="23.16662">
        <ele>4.120125</ele>
        <time>2020-10-07T15:27:28.147Z</time>
      </trkpt>
      <trkpt lat="58.57517" lon="23.16641">
        <ele>4.258732</ele>
        <time>2020-10-07T15:27:46.369Z</time>
      </trkpt>
      <trkpt lat="58.57986" lon="23.16511">
        <ele>4.677766</ele>
        <time>2020-10-07T15:29:32.758Z</time>
      </trkpt>
      <trkpt lat="58.58063" lon="23.16489">
        <ele>4.862592</ele>
        <time>2020-10-07T15:29:51.395Z</time>
      </trkpt>
      <trkpt lat="58.58171" lon="23.16461">
        <ele>5.350082</ele>
        <time>2020-10-07T15:30:17.688Z</time>
      </trkpt>
      <trkpt lat="58.58252" lon="23.16455">
        <ele>5.733686</ele>
        <time>2020-10-07T15:30:37.193Z</time>
      </trkpt>
      <trkpt lat="58.58289" lon="23.16459">
        <ele>5.930641</ele>
        <time>2020-10-07T15:30:46.046Z</time>
      </trkpt>
      <trkpt lat="58.58372" lon="23.16475">
        <ele>6.382147</ele>
        <time>2020-10-07T15:31:06.256Z</time>
      </trkpt>
      <trkpt lat="58.58413" lon="23.16486">
        <ele>6.607119</ele>
        <time>2020-10-07T15:31:16.565Z</time>
      </trkpt>
      <trkpt lat="58.58541" lon="23.16542">
        <ele>7.645535</ele>
        <time>2020-10-07T15:31:49.925Z</time>
      </trkpt>
      <trkpt lat="58.58565" lon="23.16554">
        <ele>7.856215</ele>
        <time>2020-10-07T15:31:56.514Z</time>
      </trkpt>
      <trkpt lat="58.58976" lon="23.16742">
        <ele>11.932698</ele>
        <time>2020-10-07T15:33:46.423Z</time>
      </trkpt>
      <trkpt lat="58.59016" lon="23.16764">
        <ele>12.472928</ele>
        <time>2020-10-07T15:33:58.012Z</time>
      </trkpt>
      <trkpt lat="58.59662" lon="23.17066">
        <ele>20.94698</ele>
        <time>2020-10-07T15:37:01.210Z</time>
      </trkpt>
      <trkpt lat="58.59784" lon="23.17131">
        <ele>21.923384</ele>
        <time>2020-10-07T15:37:33.122Z</time>
      </trkpt>
      <trkpt lat="58.59851" lon="23.17199">
        <ele>22.426806</ele>
        <time>2020-10-07T15:37:51.813Z</time>
      </trkpt>
      <trkpt lat="58.59903" lon="23.17282">
        <ele>22.766459</ele>
        <time>2020-10-07T15:38:08.386Z</time>
      </trkpt>
      <trkpt lat="58.59937" lon="23.17349">
        <ele>23.006786</ele>
        <time>2020-10-07T15:38:20.061Z</time>
      </trkpt>
      <trkpt lat="58.59994" lon="23.17507">
        <ele>23.319741</ele>
        <time>2020-10-07T15:38:43.921Z</time>
      </trkpt>
      <trkpt lat="58.60016" lon="23.17595">
        <ele>23.430977</ele>
        <time>2020-10-07T15:38:55.828Z</time>
      </trkpt>
      <trkpt lat="58.60094" lon="23.18087">
        <ele>23.203216</ele>
        <time>2020-10-07T15:39:55.118Z</time>
      </trkpt>
      <trkpt lat="58.60148" lon="23.18454">
        <ele>21.460617</ele>
        <time>2020-10-07T15:40:33.954Z</time>
      </trkpt>
      <trkpt lat="58.60172" lon="23.18628">
        <ele>20.325804</ele>
        <time>2020-10-07T15:40:51.417Z</time>
      </trkpt>
      <trkpt lat="58.60188" lon="23.18779">
        <ele>19.568117</ele>
        <time>2020-10-07T15:41:06.552Z</time>
      </trkpt>
      <trkpt lat="58.602" lon="23.18916">
        <ele>19.09271</ele>
        <time>2020-10-07T15:41:20.861Z</time>
      </trkpt>
      <trkpt lat="58.60208" lon="23.19028">
        <ele>18.706989</ele>
        <time>2020-10-07T15:41:33.252Z</time>
      </trkpt>
      <trkpt lat="58.60231" lon="23.1938">
        <ele>18.90549</ele>
        <time>2020-10-07T15:42:16.226Z</time>
      </trkpt>
      <trkpt lat="58.60252" lon="23.19672">
        <ele>18.704539</ele>
        <time>2020-10-07T15:42:49.678Z</time>
      </trkpt>
      <trkpt lat="58.60289" lon="23.19973">
        <ele>18.260664</ele>
        <time>2020-10-07T15:43:23.604Z</time>
      </trkpt>
      <trkpt lat="58.60343" lon="23.20342">
        <ele>17.977757</ele>
        <time>2020-10-07T15:44:06.876Z</time>
      </trkpt>
      <trkpt lat="58.60398" lon="23.20738">
        <ele>18.67461</ele>
        <time>2020-10-07T15:44:57.258Z</time>
      </trkpt>
      <trkpt lat="58.6042" lon="23.20897">
        <ele>19.532571</ele>
        <time>2020-10-07T15:45:19.865Z</time>
      </trkpt>
      <trkpt lat="58.60589" lon="23.20723">
        <ele>21.35911</ele>
        <time>2020-10-07T15:46:11.163Z</time>
      </trkpt>
      <trkpt lat="58.60976" lon="23.20307">
        <ele>24.401345</ele>
        <time>2020-10-07T15:48:00.909Z</time>
      </trkpt>
      <trkpt lat="58.61004" lon="23.20272">
        <ele>24.743939</ele>
        <time>2020-10-07T15:48:09.819Z</time>
      </trkpt>
      <trkpt lat="58.61136" lon="23.20104">
        <ele>26.309853</ele>
        <time>2020-10-07T15:48:52.341Z</time>
      </trkpt>
      <trkpt lat="58.61295" lon="23.19944">
        <ele>27.368306</ele>
        <time>2020-10-07T15:49:36.604Z</time>
      </trkpt>
      <trkpt lat="58.61471" lon="23.19798">
        <ele>27.567274</ele>
        <time>2020-10-07T15:50:20.033Z</time>
      </trkpt>
      <trkpt lat="58.61522" lon="23.1974">
        <ele>27.41202</ele>
        <time>2020-10-07T15:50:32.913Z</time>
      </trkpt>
      <trkpt lat="58.61548" lon="23.19711">
        <ele>27.333285</ele>
        <time>2020-10-07T15:50:39.308Z</time>
      </trkpt>
      <trkpt lat="58.61565" lon="23.19691">
        <ele>27.282001</ele>
        <time>2020-10-07T15:50:43.389Z</time>
      </trkpt>
      <trkpt lat="58.61755" lon="23.19451">
        <ele>26.317232</ele>
        <time>2020-10-07T15:51:29.860Z</time>
      </trkpt>
      <trkpt lat="58.61801" lon="23.19392">
        <ele>26.411572</ele>
        <time>2020-10-07T15:51:42.205Z</time>
      </trkpt>
      <trkpt lat="58.61873" lon="23.19316">
        <ele>26.550257</ele>
        <time>2020-10-07T15:52:01.634Z</time>
      </trkpt>
      <trkpt lat="58.61997" lon="23.19239">
        <ele>26.902262</ele>
        <time>2020-10-07T15:52:33.529Z</time>
      </trkpt>
      <trkpt lat="58.6212" lon="23.19212">
        <ele>26.996082</ele>
        <time>2020-10-07T15:53:01.640Z</time>
      </trkpt>
      <trkpt lat="58.62351" lon="23.19199">
        <ele>25.73488</ele>
        <time>2020-10-07T15:53:48.067Z</time>
      </trkpt>
      <trkpt lat="58.62395" lon="23.19179">
        <ele>25.437051</ele>
        <time>2020-10-07T15:53:57.187Z</time>
      </trkpt>
      <trkpt lat="58.6251" lon="23.19114">
        <ele>24.841181</ele>
        <time>2020-10-07T15:54:21.683Z</time>
      </trkpt>
      <trkpt lat="58.62918" lon="23.18869">
        <ele>22.972206</ele>
        <time>2020-10-07T15:55:51.272Z</time>
      </trkpt>
      <trkpt lat="58.62957" lon="23.18834">
        <ele>22.731095</ele>
        <time>2020-10-07T15:55:59.711Z</time>
      </trkpt>
      <trkpt lat="58.62976" lon="23.18813">
        <ele>22.515867</ele>
        <time>2020-10-07T15:56:04.046Z</time>
      </trkpt>
      <trkpt lat="58.62983" lon="23.18804">
        <ele>22.434311</ele>
        <time>2020-10-07T15:56:05.656Z</time>
      </trkpt>
      <trkpt lat="58.62997" lon="23.18787">
        <ele>22.279075</ele>
        <time>2020-10-07T15:56:08.741Z</time>
      </trkpt>
      <trkpt lat="58.63046" lon="23.18709">
        <ele>21.661007</ele>
        <time>2020-10-07T15:56:20.964Z</time>
      </trkpt>
      <trkpt lat="58.63096" lon="23.1857">
        <ele>20.981981</ele>
        <time>2020-10-07T15:56:37.994Z</time>
      </trkpt>
      <trkpt lat="58.63153" lon="23.18381">
        <ele>20.742773</ele>
        <time>2020-10-07T15:57:02.159Z</time>
      </trkpt>
      <trkpt lat="58.63277" lon="23.17964">
        <ele>21.540947</ele>
        <time>2020-10-07T15:58:02.918Z</time>
      </trkpt>
      <trkpt lat="58.63336" lon="23.17813">
        <ele>21.826807</ele>
        <time>2020-10-07T15:58:26.465Z</time>
      </trkpt>
      <trkpt lat="58.63449" lon="23.17622">
        <ele>21.942051</ele>
        <time>2020-10-07T15:58:59.921Z</time>
      </trkpt>
      <trkpt lat="58.63601" lon="23.17456">
        <ele>22.044705</ele>
        <time>2020-10-07T15:59:38.244Z</time>
      </trkpt>
      <trkpt lat="58.63606" lon="23.1745">
        <ele>22.055253</ele>
        <time>2020-10-07T15:59:39.903Z</time>
      </trkpt>
      <trkpt lat="58.63784" lon="23.17265">
        <ele>22.483379</ele>
        <time>2020-10-07T16:00:27.687Z</time>
      </trkpt>
      <trkpt lat="58.63799" lon="23.17254">
        <ele>22.523347</ele>
        <time>2020-10-07T16:00:31.512Z</time>
      </trkpt>
      <trkpt lat="58.63886" lon="23.1719">
        <ele>22.602842</ele>
        <time>2020-10-07T16:00:52.392Z</time>
      </trkpt>
      <trkpt lat="58.64027" lon="23.17143">
        <ele>22.504989</ele>
        <time>2020-10-07T16:01:23.703Z</time>
      </trkpt>
      <trkpt lat="58.64358" lon="23.17153">
        <ele>21.931031</ele>
        <time>2020-10-07T16:02:35.602Z</time>
      </trkpt>
      <trkpt lat="58.64366" lon="23.17153">
        <ele>21.911697</ele>
        <time>2020-10-07T16:02:37.357Z</time>
      </trkpt>
      <trkpt lat="58.64433" lon="23.17155">
        <ele>21.446658</ele>
        <time>2020-10-07T16:02:50.859Z</time>
      </trkpt>
      <trkpt lat="58.64945" lon="23.17164">
        <ele>17.622218</ele>
        <time>2020-10-07T16:04:31.961Z</time>
      </trkpt>
      <trkpt lat="58.65197" lon="23.17172">
        <ele>17.070271</ele>
        <time>2020-10-07T16:05:26.788Z</time>
      </trkpt>
      <trkpt lat="58.65617" lon="23.17181">
        <ele>17.063872</ele>
        <time>2020-10-07T16:07:00.496Z</time>
      </trkpt>
      <trkpt lat="58.6575" lon="23.17214">
        <ele>17.348667</ele>
        <time>2020-10-07T16:07:31.249Z</time>
      </trkpt>
      <trkpt lat="58.65765" lon="23.17218">
        <ele>17.384523</ele>
        <time>2020-10-07T16:07:34.789Z</time>
      </trkpt>
      <trkpt lat="58.65792" lon="23.17225">
        <ele>17.449751</ele>
        <time>2020-10-07T16:07:41.281Z</time>
      </trkpt>
      <trkpt lat="58.65916" lon="23.17274">
        <ele>17.977362</ele>
        <time>2020-10-07T16:08:11.486Z</time>
      </trkpt>
      <trkpt lat="58.66122" lon="23.17398">
        <ele>19.020377</ele>
        <time>2020-10-07T16:09:04.175Z</time>
      </trkpt>
      <trkpt lat="58.66128" lon="23.17402">
        <ele>19.051616</ele>
        <time>2020-10-07T16:09:05.778Z</time>
      </trkpt>
      <trkpt lat="58.66386" lon="23.17567">
        <ele>19.99965</ele>
        <time>2020-10-07T16:10:10.141Z</time>
      </trkpt>
      <trkpt lat="58.66511" lon="23.17684">
        <ele>20.244569</ele>
        <time>2020-10-07T16:10:42.060Z</time>
      </trkpt>
      <trkpt lat="58.66612" lon="23.17814">
        <ele>20.203841</ele>
        <time>2020-10-07T16:11:08.923Z</time>
      </trkpt>
      <trkpt lat="58.66705" lon="23.17976">
        <ele>20.019599</ele>
        <time>2020-10-07T16:11:36.091Z</time>
      </trkpt>
      <trkpt lat="58.66923" lon="23.18485">
        <ele>19.448606</ele>
        <time>2020-10-07T16:12:50.039Z</time>
      </trkpt>
      <trkpt lat="58.67023" lon="23.1873">
        <ele>19.300762</ele>
        <time>2020-10-07T16:13:25.847Z</time>
      </trkpt>
      <trkpt lat="58.67078" lon="23.18875">
        <ele>19.247512</ele>
        <time>2020-10-07T16:13:46.575Z</time>
      </trkpt>
      <trkpt lat="58.67103" lon="23.18942">
        <ele>19.245122</ele>
        <time>2020-10-07T16:13:56.000Z</time>
      </trkpt>
      <trkpt lat="58.67116" lon="23.1899">
        <ele>19.298533</ele>
        <time>2020-10-07T16:14:02.346Z</time>
      </trkpt>
      <trkpt lat="58.67152" lon="23.19131">
        <ele>19.454215</ele>
        <time>2020-10-07T16:14:21.349Z</time>
      </trkpt>
      <trkpt lat="58.67168" lon="23.19193">
        <ele>19.522061</ele>
        <time>2020-10-07T16:14:29.874Z</time>
      </trkpt>
      <trkpt lat="58.6721" lon="23.19385">
        <ele>19.602793</ele>
        <time>2020-10-07T16:14:55.048Z</time>
      </trkpt>
      <trkpt lat="58.67222" lon="23.19461">
        <ele>19.619368</ele>
        <time>2020-10-07T16:15:04.161Z</time>
      </trkpt>
      <trkpt lat="58.6724" lon="23.19572">
        <ele>19.617179</ele>
        <time>2020-10-07T16:15:17.365Z</time>
      </trkpt>
      <trkpt lat="58.67251" lon="23.19657">
        <ele>19.400667</ele>
        <time>2020-10-07T16:15:26.940Z</time>
      </trkpt>
      <trkpt lat="58.67276" lon="23.19845">
        <ele>18.919677</ele>
        <time>2020-10-07T16:15:47.429Z</time>
      </trkpt>
      <trkpt lat="58.67288" lon="23.20008">
        <ele>18.5979</ele>
        <time>2020-10-07T16:16:05.113Z</time>
      </trkpt>
      <trkpt lat="58.67277" lon="23.20193">
        <ele>18.279377</ele>
        <time>2020-10-07T16:16:25.714Z</time>
      </trkpt>
      <trkpt lat="58.67248" lon="23.20342">
        <ele>18.155766</ele>
        <time>2020-10-07T16:16:43.795Z</time>
      </trkpt>
      <trkpt lat="58.67208" lon="23.20454">
        <ele>18.107872</ele>
        <time>2020-10-07T16:16:59.535Z</time>
      </trkpt>
      <trkpt lat="58.67191" lon="23.205">
        <ele>18.088454</ele>
        <time>2020-10-07T16:17:05.979Z</time>
      </trkpt>
      <trkpt lat="58.67252" lon="23.2125">
        <ele>17.791278</ele>
        <time>2020-10-07T16:19:31.369Z</time>
      </trkpt>
      <trkpt lat="58.67262" lon="23.21374">
        <ele>17.760974</ele>
        <time>2020-10-07T16:19:55.463Z</time>
      </trkpt>
      <trkpt lat="58.67276" lon="23.21662">
        <ele>17.802807</ele>
        <time>2020-10-07T16:20:51.380Z</time>
      </trkpt>
      <trkpt lat="58.67266" lon="23.21944">
        <ele>18.079581</ele>
        <time>2020-10-07T16:21:47.527Z</time>
      </trkpt>
      <trkpt lat="58.67248" lon="23.22117">
        <ele>18.253871</ele>
        <time>2020-10-07T16:22:22.416Z</time>
      </trkpt>
      <trkpt lat="58.67239" lon="23.22166">
        <ele>18.305305</ele>
        <time>2020-10-07T16:22:32.675Z</time>
      </trkpt>
      <trkpt lat="58.67223" lon="23.22264">
        <ele>18.405142</ele>
        <time>2020-10-07T16:22:53.005Z</time>
      </trkpt>
      <trkpt lat="58.67203" lon="23.22361">
        <ele>18.492218</ele>
        <time>2020-10-07T16:23:13.580Z</time>
      </trkpt>
      <trkpt lat="58.67081" lon="23.22802">
        <ele>18.865755</ele>
        <time>2020-10-07T16:24:51.768Z</time>
      </trkpt>
      <trkpt lat="58.66922" lon="23.23379">
        <ele>18.974253</ele>
        <time>2020-10-07T16:26:58.599Z</time>
      </trkpt>
      <trkpt lat="58.66919" lon="23.23388">
        <ele>18.971898</ele>
        <time>2020-10-07T16:27:00.574Z</time>
      </trkpt>
      <trkpt lat="58.66848" lon="23.23646">
        <ele>18.291747</ele>
        <time>2020-10-07T16:27:55.756Z</time>
      </trkpt>
      <trkpt lat="58.66775" lon="23.23908">
        <ele>16.993474</ele>
        <time>2020-10-07T16:28:47.296Z</time>
      </trkpt>
      <trkpt lat="58.66744" lon="23.2402">
        <ele>16.317212</ele>
        <time>2020-10-07T16:29:08.908Z</time>
      </trkpt>
      <trkpt lat="58.66541" lon="23.24758">
        <ele>14.383229</ele>
        <time>2020-10-07T16:31:43.875Z</time>
      </trkpt>
      <trkpt lat="58.66453" lon="23.25083">
        <ele>14.565154</ele>
        <time>2020-10-07T16:32:55.559Z</time>
      </trkpt>
      <trkpt lat="58.6625" lon="23.25826">
        <ele>16.317929</ele>
        <time>2020-10-07T16:35:46.338Z</time>
      </trkpt>
      <trkpt lat="58.66249" lon="23.2583">
        <ele>16.327083</ele>
        <time>2020-10-07T16:35:47.399Z</time>
      </trkpt>
      <trkpt lat="58.66142" lon="23.26222">
        <ele>16.588873</ele>
        <time>2020-10-07T16:37:13.406Z</time>
      </trkpt>
      <trkpt lat="58.66005" lon="23.26728">
        <ele>16.632929</ele>
        <time>2020-10-07T16:39:03.586Z</time>
      </trkpt>
      <trkpt lat="58.66004" lon="23.26733">
        <ele>16.633781</ele>
        <time>2020-10-07T16:39:04.680Z</time>
      </trkpt>
      <trkpt lat="58.65854" lon="23.27405">
        <ele>16.783027</ele>
        <time>2020-10-07T16:41:27.132Z</time>
      </trkpt>
      <trkpt lat="58.65834" lon="23.27497">
        <ele>16.757311</ele>
        <time>2020-10-07T16:41:46.022Z</time>
      </trkpt>
      <trkpt lat="58.65805" lon="23.2762">
        <ele>16.495385</ele>
        <time>2020-10-07T16:42:11.734Z</time>
      </trkpt>
      <trkpt lat="58.6579" lon="23.27682">
        <ele>16.365516</ele>
        <time>2020-10-07T16:42:24.408Z</time>
      </trkpt>
      <trkpt lat="58.65722" lon="23.27884">
        <ele>15.762875</ele>
        <time>2020-10-07T16:43:08.458Z</time>
      </trkpt>
      <trkpt lat="58.65701" lon="23.2793">
        <ele>15.565759</ele>
        <time>2020-10-07T16:43:19.564Z</time>
      </trkpt>
      <trkpt lat="58.65637" lon="23.28069">
        <ele>14.965593</ele>
        <time>2020-10-07T16:43:53.291Z</time>
      </trkpt>
      <trkpt lat="58.65618" lon="23.28101">
        <ele>14.787066</ele>
        <time>2020-10-07T16:44:02.087Z</time>
      </trkpt>
      <trkpt lat="58.65557" lon="23.28203">
        <ele>14.216161</ele>
        <time>2020-10-07T16:44:29.911Z</time>
      </trkpt>
      <trkpt lat="58.65504" lon="23.2829">
        <ele>13.728187</ele>
        <time>2020-10-07T16:44:53.898Z</time>
      </trkpt>
      <trkpt lat="58.65492" lon="23.28308">
        <ele>13.649812</ele>
        <time>2020-10-07T16:44:59.250Z</time>
      </trkpt>
      <trkpt lat="58.65415" lon="23.28436">
        <ele>13.133755</ele>
        <time>2020-10-07T16:45:35.062Z</time>
      </trkpt>
      <trkpt lat="58.65388" lon="23.2848">
        <ele>12.952869</ele>
        <time>2020-10-07T16:45:47.636Z</time>
      </trkpt>
      <trkpt lat="58.64952" lon="23.2909">
        <ele>12.301773</ele>
        <time>2020-10-07T16:49:05.654Z</time>
      </trkpt>
      <trkpt lat="58.64938" lon="23.29109">
        <ele>12.294386</ele>
        <time>2020-10-07T16:49:11.749Z</time>
      </trkpt>
      <trkpt lat="58.64825" lon="23.29271">
        <ele>12.688045</ele>
        <time>2020-10-07T16:50:05.930Z</time>
      </trkpt>
      <trkpt lat="58.64717" lon="23.29471">
        <ele>13.190939</ele>
        <time>2020-10-07T16:51:04.563Z</time>
      </trkpt>
      <trkpt lat="58.64649" lon="23.29647">
        <ele>13.402271</ele>
        <time>2020-10-07T16:51:48.050Z</time>
      </trkpt>
      <trkpt lat="58.64609" lon="23.29787">
        <ele>13.264795</ele>
        <time>2020-10-07T16:52:18.306Z</time>
      </trkpt>
      <trkpt lat="58.64596" lon="23.29831">
        <ele>13.22124</ele>
        <time>2020-10-07T16:52:27.767Z</time>
      </trkpt>
      <trkpt lat="58.64583" lon="23.29885">
        <ele>13.170022</ele>
        <time>2020-10-07T16:52:38.780Z</time>
      </trkpt>
      <trkpt lat="58.64565" lon="23.29975">
        <ele>12.933337</ele>
        <time>2020-10-07T16:52:56.767Z</time>
      </trkpt>
      <trkpt lat="58.64525" lon="23.30157">
        <ele>12.432717</ele>
        <time>2020-10-07T16:53:32.883Z</time>
      </trkpt>
      <trkpt lat="58.6448" lon="23.30364">
        <ele>11.98974</ele>
        <time>2020-10-07T16:54:14.231Z</time>
      </trkpt>
      <trkpt lat="58.64412" lon="23.30616">
        <ele>11.772147</ele>
        <time>2020-10-07T16:55:07.705Z</time>
      </trkpt>
      <trkpt lat="58.64325" lon="23.30837">
        <ele>12.161604</ele>
        <time>2020-10-07T16:56:03.252Z</time>
      </trkpt>
      <trkpt lat="58.64259" lon="23.30964">
        <ele>12.93194</ele>
        <time>2020-10-07T16:56:41.395Z</time>
      </trkpt>
      <trkpt lat="58.64157" lon="23.31104">
        <ele>13.864158</ele>
        <time>2020-10-07T16:57:32.999Z</time>
      </trkpt>
      <trkpt lat="58.64054" lon="23.3122">
        <ele>14.638653</ele>
        <time>2020-10-07T16:58:20.243Z</time>
      </trkpt>
      <trkpt lat="58.63955" lon="23.31298">
        <ele>14.469844</ele>
        <time>2020-10-07T16:58:59.451Z</time>
      </trkpt>
      <trkpt lat="58.63776" lon="23.31409">
        <ele>13.863917</ele>
        <time>2020-10-07T17:00:06.141Z</time>
      </trkpt>
      <trkpt lat="58.63338" lon="23.31679">
        <ele>12.344753</ele>
        <time>2020-10-07T17:02:51.227Z</time>
      </trkpt>
      <trkpt lat="58.63096" lon="23.31836">
        <ele>11.763047</ele>
        <time>2020-10-07T17:04:24.233Z</time>
      </trkpt>
      <trkpt lat="58.62999" lon="23.31866">
        <ele>11.643202</ele>
        <time>2020-10-07T17:04:59.775Z</time>
      </trkpt>
      <trkpt lat="58.62933" lon="23.31856">
        <ele>11.751428</ele>
        <time>2020-10-07T17:05:24.212Z</time>
      </trkpt>
      <trkpt lat="58.62867" lon="23.31815">
        <ele>11.864486</ele>
        <time>2020-10-07T17:05:50.825Z</time>
      </trkpt>
      <trkpt lat="58.62597" lon="23.31514">
        <ele>14.803223</ele>
        <time>2020-10-07T17:08:00.000Z</time>
      </trkpt>
      <trkpt lat="58.62503" lon="23.3144">
        <ele>15.586785</ele>
        <time>2020-10-07T17:08:40.662Z</time>
      </trkpt>
      <trkpt lat="58.61934" lon="23.31283">
        <ele>17.417776</ele>
        <time>2020-10-07T17:12:22.533Z</time>
      </trkpt>
      <trkpt lat="58.61813" lon="23.31203">
        <ele>16.900214</ele>
        <time>2020-10-07T17:13:07.324Z</time>
      </trkpt>
      <trkpt lat="58.61761" lon="23.31148">
        <ele>16.333346</ele>
        <time>2020-10-07T17:13:27.060Z</time>
      </trkpt>
      <trkpt lat="58.61732" lon="23.31117">
        <ele>16.004552</ele>
        <time>2020-10-07T17:13:38.425Z</time>
      </trkpt>
      <trkpt lat="58.61718" lon="23.31102">
        <ele>15.855255</ele>
        <time>2020-10-07T17:13:43.479Z</time>
      </trkpt>
      <trkpt lat="58.61668" lon="23.31037">
        <ele>15.315752</ele>
        <time>2020-10-07T17:14:03.965Z</time>
      </trkpt>
      <trkpt lat="58.61595" lon="23.30897">
        <ele>14.827935</ele>
        <time>2020-10-07T17:14:40.102Z</time>
      </trkpt>
      <trkpt lat="58.61493" lon="23.30617">
        <ele>14.39041</ele>
        <time>2020-10-07T17:15:46.259Z</time>
      </trkpt>
      <trkpt lat="58.6135" lon="23.30182">
        <ele>13.772163</ele>
        <time>2020-10-07T17:17:23.188Z</time>
      </trkpt>
      <trkpt lat="58.61349" lon="23.30178">
        <ele>13.764128</ele>
        <time>2020-10-07T17:17:23.997Z</time>
      </trkpt>
      <trkpt lat="58.61348" lon="23.30175">
        <ele>13.75675</ele>
        <time>2020-10-07T17:17:24.675Z</time>
      </trkpt>
      <trkpt lat="58.61208" lon="23.2975">
        <ele>12.891624</ele>
        <time>2020-10-07T17:18:58.497Z</time>
      </trkpt>
      <trkpt lat="58.61187" lon="23.29803">
        <ele>12.788483</ele>
        <time>2020-10-07T17:19:06.079Z</time>
      </trkpt>
      <trkpt lat="58.61185" lon="23.29808">
        <ele>12.779502</ele>
        <time>2020-10-07T17:19:06.790Z</time>
      </trkpt>
      <trkpt lat="58.6117" lon="23.29863">
        <ele>12.683886</ele>
        <time>2020-10-07T17:19:13.810Z</time>
      </trkpt>
      <trkpt lat="58.61142" lon="23.29919">
        <ele>12.554261</ele>
        <time>2020-10-07T17:19:22.608Z</time>
      </trkpt>
      <trkpt lat="58.61059" lon="23.2999">
        <ele>12.262454</ele>
        <time>2020-10-07T17:19:41.910Z</time>
      </trkpt>
      <trkpt lat="58.60979" lon="23.30073">
        <ele>11.854473</ele>
        <time>2020-10-07T17:20:00.583Z</time>
      </trkpt>
      <trkpt lat="58.60959" lon="23.30122">
        <ele>11.651227</ele>
        <time>2020-10-07T17:20:07.149Z</time>
      </trkpt>
      <trkpt lat="58.60864" lon="23.30481">
        <ele>10.502586</ele>
        <time>2020-10-07T17:20:49.320Z</time>
      </trkpt>
      <trkpt lat="58.60849" lon="23.30693">
        <ele>10.206178</ele>
        <time>2020-10-07T17:21:13.375Z</time>
      </trkpt>
      <trkpt lat="58.60833" lon="23.3078">
        <ele>10.316276</ele>
        <time>2020-10-07T17:21:24.441Z</time>
      </trkpt>
      <trkpt lat="58.60815" lon="23.30839">
        <ele>10.399206</ele>
        <time>2020-10-07T17:21:33.127Z</time>
      </trkpt>
      <trkpt lat="58.60737" lon="23.3098">
        <ele>10.739157</ele>
        <time>2020-10-07T17:21:58.711Z</time>
      </trkpt>
      <trkpt lat="58.60707" lon="23.31071">
        <ele>10.991219</ele>
        <time>2020-10-07T17:22:12.371Z</time>
      </trkpt>
      <trkpt lat="58.60694" lon="23.31103">
        <ele>11.087885</ele>
        <time>2020-10-07T17:22:17.540Z</time>
      </trkpt>
      <trkpt lat="58.60678" lon="23.31134">
        <ele>11.191185</ele>
        <time>2020-10-07T17:22:23.098Z</time>
      </trkpt>
      <trkpt lat="58.60549" lon="23.31325">
        <ele>11.781277</ele>
        <time>2020-10-07T17:23:02.137Z</time>
      </trkpt>
      <trkpt lat="58.60513" lon="23.3137">
        <ele>11.925708</ele>
        <time>2020-10-07T17:23:12.109Z</time>
      </trkpt>
      <trkpt lat="58.6051" lon="23.31374">
        <ele>11.937823</ele>
        <time>2020-10-07T17:23:13.119Z</time>
      </trkpt>
      <trkpt lat="58.60358" lon="23.31546">
        <ele>11.837639</ele>
        <time>2020-10-07T17:23:51.382Z</time>
      </trkpt>
      <trkpt lat="58.60248" lon="23.3163">
        <ele>12.291739</ele>
        <time>2020-10-07T17:24:17.893Z</time>
      </trkpt>
      <trkpt lat="58.60127" lon="23.3179">
        <ele>13.525904</ele>
        <time>2020-10-07T17:24:56.832Z</time>
      </trkpt>
      <trkpt lat="58.60079" lon="23.31854">
        <ele>14.25534</ele>
        <time>2020-10-07T17:25:13.473Z</time>
      </trkpt>
      <trkpt lat="58.59984" lon="23.31981">
        <ele>15.42382</ele>
        <time>2020-10-07T17:25:44.875Z</time>
      </trkpt>
      <trkpt lat="58.59977" lon="23.3198">
        <ele>15.482284</ele>
        <time>2020-10-07T17:25:46.630Z</time>
      </trkpt>
      <trkpt lat="58.59973" lon="23.31977">
        <ele>15.515476</ele>
        <time>2020-10-07T17:25:47.672Z</time>
      </trkpt>
      <trkpt lat="58.59969" lon="23.31967">
        <ele>15.571078</ele>
        <time>2020-10-07T17:25:49.355Z</time>
      </trkpt>
      <trkpt lat="58.59928" lon="23.32053">
        <ele>16.08654</ele>
        <time>2020-10-07T17:26:04.563Z</time>
      </trkpt>
      <trkpt lat="58.59883" lon="23.32134">
        <ele>16.535123</ele>
        <time>2020-10-07T17:26:19.360Z</time>
      </trkpt>
      <trkpt lat="58.59704" lon="23.32434">
        <ele>17.916149</ele>
        <time>2020-10-07T17:27:18.498Z</time>
      </trkpt>
      <trkpt lat="58.59661" lon="23.32505">
        <ele>18.22337</ele>
        <time>2020-10-07T17:27:32.738Z</time>
      </trkpt>
      <trkpt lat="58.59594" lon="23.32616">
        <ele>18.199079</ele>
        <time>2020-10-07T17:27:52.982Z</time>
      </trkpt>
      <trkpt lat="58.59522" lon="23.32736">
        <ele>17.81271</ele>
        <time>2020-10-07T17:28:12.741Z</time>
      </trkpt>
      <trkpt lat="58.59269" lon="23.33163">
        <ele>14.6354</ele>
        <time>2020-10-07T17:29:17.044Z</time>
      </trkpt>
      <trkpt lat="58.59231" lon="23.33239">
        <ele>14.16484</ele>
        <time>2020-10-07T17:29:28.454Z</time>
      </trkpt>
      <trkpt lat="58.59215" lon="23.3327">
        <ele>14.136693</ele>
        <time>2020-10-07T17:29:33.351Z</time>
      </trkpt>
      <trkpt lat="58.59089" lon="23.33523">
        <ele>13.841221</ele>
        <time>2020-10-07T17:30:14.012Z</time>
      </trkpt>
      <trkpt lat="58.58875" lon="23.33984">
        <ele>12.506914</ele>
        <time>2020-10-07T17:31:20.389Z</time>
      </trkpt>
      <trkpt lat="58.58615" lon="23.34536">
        <ele>12.188886</ele>
        <time>2020-10-07T17:32:45.061Z</time>
      </trkpt>
      <trkpt lat="58.58389" lon="23.35013">
        <ele>13.784719</ele>
        <time>2020-10-07T17:34:07.636Z</time>
      </trkpt>
      <trkpt lat="58.58271" lon="23.35276">
        <ele>14.000806</ele>
        <time>2020-10-07T17:34:48.980Z</time>
      </trkpt>
      <trkpt lat="58.57952" lon="23.36154">
        <ele>12.559342</ele>
        <time>2020-10-07T17:36:47.748Z</time>
      </trkpt>
      <trkpt lat="58.57891" lon="23.36324">
        <ele>12.202677</ele>
        <time>2020-10-07T17:37:10.218Z</time>
      </trkpt>
      <trkpt lat="58.57595" lon="23.3714">
        <ele>11.184214</ele>
        <time>2020-10-07T17:39:02.332Z</time>
      </trkpt>
      <trkpt lat="58.57532" lon="23.37314">
        <ele>10.932447</ele>
        <time>2020-10-07T17:39:26.165Z</time>
      </trkpt>
      <trkpt lat="58.5743" lon="23.37595">
        <ele>10.328713</ele>
        <time>2020-10-07T17:40:03.607Z</time>
      </trkpt>
      <trkpt lat="58.57281" lon="23.38011">
        <ele>9.342246</ele>
        <time>2020-10-07T17:40:59.451Z</time>
      </trkpt>
      <trkpt lat="58.57262" lon="23.38081">
        <ele>9.159916</ele>
        <time>2020-10-07T17:41:07.910Z</time>
      </trkpt>
      <trkpt lat="58.57233" lon="23.38287">
        <ele>8.170575</ele>
        <time>2020-10-07T17:41:30.010Z</time>
      </trkpt>
      <trkpt lat="58.5723" lon="23.38328">
        <ele>7.945204</ele>
        <time>2020-10-07T17:41:34.057Z</time>
      </trkpt>
      <trkpt lat="58.57227" lon="23.38377">
        <ele>7.677792</ele>
        <time>2020-10-07T17:41:38.867Z</time>
      </trkpt>
      <trkpt lat="58.57227" lon="23.38477">
        <ele>7.132472</ele>
        <time>2020-10-07T17:41:48.636Z</time>
      </trkpt>
      <trkpt lat="58.5723" lon="23.38535">
        <ele>6.828183</ele>
        <time>2020-10-07T17:41:54.291Z</time>
      </trkpt>
      <trkpt lat="58.57235" lon="23.38589">
        <ele>6.538424</ele>
        <time>2020-10-07T17:41:59.825Z</time>
      </trkpt>
      <trkpt lat="58.57246" lon="23.38672">
        <ele>6.086322</ele>
        <time>2020-10-07T17:42:08.514Z</time>
      </trkpt>
      <trkpt lat="58.5726" lon="23.38763">
        <ele>5.58348</ele>
        <time>2020-10-07T17:42:18.416Z</time>
      </trkpt>
      <trkpt lat="58.57264" lon="23.38777">
        <ele>5.503049</ele>
        <time>2020-10-07T17:42:19.955Z</time>
      </trkpt>
      <trkpt lat="58.57268" lon="23.38788">
        <ele>5.435014</ele>
        <time>2020-10-07T17:42:21.253Z</time>
      </trkpt>
      <trkpt lat="58.57273" lon="23.38806">
        <ele>5.322764</ele>
        <time>2020-10-07T17:42:23.333Z</time>
      </trkpt>
      <trkpt lat="58.57276" lon="23.38814">
        <ele>5.275951</ele>
        <time>2020-10-07T17:42:24.285Z</time>
      </trkpt>
      <trkpt lat="58.57278" lon="23.3882">
        <ele>5.243398</ele>
        <time>2020-10-07T17:42:24.957Z</time>
      </trkpt>
      <trkpt lat="58.57282" lon="23.38828">
        <ele>5.189064</ele>
        <time>2020-10-07T17:42:26.143Z</time>
      </trkpt>
      <trkpt lat="58.57287" lon="23.38838">
        <ele>5.115642</ele>
        <time>2020-10-07T17:42:27.691Z</time>
      </trkpt>
      <trkpt lat="58.57293" lon="23.38853">
        <ele>5.02372</ele>
        <time>2020-10-07T17:42:29.549Z</time>
      </trkpt>
      <trkpt lat="58.573" lon="23.38877">
        <ele>4.888062</ele>
        <time>2020-10-07T17:42:32.320Z</time>
      </trkpt>
      <trkpt lat="58.57319" lon="23.39017">
        <ele>4.17403</ele>
        <time>2020-10-07T17:42:47.399Z</time>
      </trkpt>
      <trkpt lat="58.57324" lon="23.39036">
        <ele>4.071298</ele>
        <time>2020-10-07T17:42:49.574Z</time>
      </trkpt>
      <trkpt lat="58.5733" lon="23.39071">
        <ele>3.890781</ele>
        <time>2020-10-07T17:42:53.146Z</time>
      </trkpt>
      <trkpt lat="58.57332" lon="23.39115">
        <ele>3.670142</ele>
        <time>2020-10-07T17:42:57.677Z</time>
      </trkpt>
      <trkpt lat="58.57321" lon="23.39337">
        <ele>2.575602</ele>
        <time>2020-10-07T17:43:19.570Z</time>
      </trkpt>
      <trkpt lat="58.57319" lon="23.39341">
        <ele>2.550212</ele>
        <time>2020-10-07T17:43:20.027Z</time>
      </trkpt>
      <trkpt lat="58.57317" lon="23.39345">
        <ele>2.519383</ele>
        <time>2020-10-07T17:43:20.666Z</time>
      </trkpt>
      <trkpt lat="58.57313" lon="23.39355">
        <ele>2.455227</ele>
        <time>2020-10-07T17:43:22.048Z</time>
      </trkpt>
      <trkpt lat="58.57311" lon="23.39364">
        <ele>2.408536</ele>
        <time>2020-10-07T17:43:23.070Z</time>
      </trkpt>
      <trkpt lat="58.57308" lon="23.39372">
        <ele>2.360976</ele>
        <time>2020-10-07T17:43:24.104Z</time>
      </trkpt>
      <trkpt lat="58.57306" lon="23.39388">
        <ele>2.28407</ele>
        <time>2020-10-07T17:43:25.777Z</time>
      </trkpt>
      <trkpt lat="58.57308" lon="23.39415">
        <ele>2.150369</ele>
        <time>2020-10-07T17:43:28.598Z</time>
      </trkpt>
      <trkpt lat="58.57322" lon="23.39513">
        <ele>1.928362</ele>
        <time>2020-10-07T17:43:36.031Z</time>
      </trkpt>
      <trkpt lat="58.57596" lon="23.5041">
        <ele>0.099314</ele>
        <time>2020-10-07T17:56:49.444Z</time>
      </trkpt>
      <trkpt lat="58.57503" lon="23.50834">
        <ele>0.814749</ele>
        <time>2020-10-07T17:57:22.939Z</time>
      </trkpt>
      <trkpt lat="58.57484" lon="23.50852">
        <ele>1.015827</ele>
        <time>2020-10-07T17:57:28.191Z</time>
      </trkpt>
      <trkpt lat="58.57466" lon="23.50879">
        <ele>1.233629</ele>
        <time>2020-10-07T17:57:34.126Z</time>
      </trkpt>
      <trkpt lat="58.57447" lon="23.50908">
        <ele>1.464325</ele>
        <time>2020-10-07T17:57:40.361Z</time>
      </trkpt>
      <trkpt lat="58.57305" lon="23.51056">
        <ele>3.131359</ele>
        <time>2020-10-07T17:58:24.990Z</time>
      </trkpt>
      <trkpt lat="58.57286" lon="23.51074">
        <ele>3.370815</ele>
        <time>2020-10-07T17:58:30.833Z</time>
      </trkpt>
      <trkpt lat="58.57273" lon="23.51091">
        <ele>3.550061</ele>
        <time>2020-10-07T17:58:34.969Z</time>
      </trkpt>
      <trkpt lat="58.57249" lon="23.51142">
        <ele>3.952383</ele>
        <time>2020-10-07T17:58:44.342Z</time>
      </trkpt>
      <trkpt lat="58.57242" lon="23.51178">
        <ele>4.187049</ele>
        <time>2020-10-07T17:58:49.847Z</time>
      </trkpt>
      <trkpt lat="58.57243" lon="23.51187">
        <ele>4.24347</ele>
        <time>2020-10-07T17:58:51.082Z</time>
      </trkpt>
      <trkpt lat="58.57243" lon="23.51197">
        <ele>4.302096</ele>
        <time>2020-10-07T17:58:52.378Z</time>
      </trkpt>
      <trkpt lat="58.57234" lon="23.51216">
        <ele>4.380643</ele>
        <time>2020-10-07T17:58:55.754Z</time>
      </trkpt>
      <trkpt lat="58.57216" lon="23.51271">
        <ele>4.515849</ele>
        <time>2020-10-07T17:59:04.177Z</time>
      </trkpt>
      <trkpt lat="58.57201" lon="23.51369">
        <ele>4.732541</ele>
        <time>2020-10-07T17:59:17.050Z</time>
      </trkpt>
      <trkpt lat="58.57197" lon="23.5142">
        <ele>4.841515</ele>
        <time>2020-10-07T17:59:23.261Z</time>
      </trkpt>
      <trkpt lat="58.57197" lon="23.51509">
        <ele>5.028729</ele>
        <time>2020-10-07T17:59:33.717Z</time>
      </trkpt>
      <trkpt lat="58.57199" lon="23.51546">
        <ele>5.078803</ele>
        <time>2020-10-07T17:59:38.054Z</time>
      </trkpt>
      <trkpt lat="58.57202" lon="23.51618">
        <ele>5.11646</ele>
        <time>2020-10-07T17:59:46.518Z</time>
      </trkpt>
      <trkpt lat="58.57203" lon="23.51654">
        <ele>5.135211</ele>
        <time>2020-10-07T17:59:50.713Z</time>
      </trkpt>
      <trkpt lat="58.57218" lon="23.51985">
        <ele>5.51669</ele>
        <time>2020-10-07T18:00:30.421Z</time>
      </trkpt>
      <trkpt lat="58.57226" lon="23.52033">
        <ele>5.638667</ele>
        <time>2020-10-07T18:00:36.952Z</time>
      </trkpt>
      <trkpt lat="58.57221" lon="23.52037">
        <ele>5.661293</ele>
        <time>2020-10-07T18:00:40.457Z</time>
      </trkpt>
      <trkpt lat="58.57233" lon="23.5208">
        <ele>5.776891</ele>
        <time>2020-10-07T18:00:46.673Z</time>
      </trkpt>
      <trkpt lat="58.5722" lon="23.52096">
        <ele>5.844041</ele>
        <time>2020-10-07T18:00:50.485Z</time>
      </trkpt>
      <trkpt lat="58.57183" lon="23.52132">
        <ele>6.034101</ele>
        <time>2020-10-07T18:01:01.237Z</time>
      </trkpt>
      <trkpt lat="58.57152" lon="23.52161">
        <ele>6.226683</ele>
        <time>2020-10-07T18:01:10.236Z</time>
      </trkpt>
      <trkpt lat="58.57141" lon="23.52176">
        <ele>6.30361</ele>
        <time>2020-10-07T18:01:13.677Z</time>
      </trkpt>
      <trkpt lat="58.57136" lon="23.52202">
        <ele>6.389623</ele>
        <time>2020-10-07T18:01:17.590Z</time>
      </trkpt>
      <trkpt lat="58.57149" lon="23.52588">
        <ele>7.280405</ele>
        <time>2020-10-07T18:02:08.547Z</time>
      </trkpt>
      <trkpt lat="58.57163" lon="23.52937">
        <ele>7.534063</ele>
        <time>2020-10-07T18:02:51.111Z</time>
      </trkpt>
      <trkpt lat="58.57172" lon="23.53136">
        <ele>7.579537</ele>
        <time>2020-10-07T18:03:15.419Z</time>
      </trkpt>
      <trkpt lat="58.57194" lon="23.53302">
        <ele>7.65157</ele>
        <time>2020-10-07T18:03:36.579Z</time>
      </trkpt>
      <trkpt lat="58.57196" lon="23.53311">
        <ele>7.655509</ele>
        <time>2020-10-07T18:03:37.949Z</time>
      </trkpt>
      <trkpt lat="58.57245" lon="23.53513">
        <ele>7.586938</ele>
        <time>2020-10-07T18:04:05.373Z</time>
      </trkpt>
      <trkpt lat="58.57464" lon="23.54247">
        <ele>5.966168</ele>
        <time>2020-10-07T18:05:40.972Z</time>
      </trkpt>
      <trkpt lat="58.57475" lon="23.54283">
        <ele>5.899061</ele>
        <time>2020-10-07T18:05:45.870Z</time>
      </trkpt>
      <trkpt lat="58.57648" lon="23.54876">
        <ele>5.354542</ele>
        <time>2020-10-07T18:07:07.082Z</time>
      </trkpt>
      <trkpt lat="58.57945" lon="23.55896">
        <ele>2.704701</ele>
        <time>2020-10-07T18:09:18.902Z</time>
      </trkpt>
      <trkpt lat="58.58017" lon="23.56145">
        <ele>2.063873</ele>
        <time>2020-10-07T18:09:51.224Z</time>
      </trkpt>
      <trkpt lat="58.5806" lon="23.56291">
        <ele>2.014272</ele>
        <time>2020-10-07T18:10:10.770Z</time>
      </trkpt>
      <trkpt lat="58.58082" lon="23.56367">
        <ele>2.009602</ele>
        <time>2020-10-07T18:10:21.187Z</time>
      </trkpt>
      <trkpt lat="58.58085" lon="23.56376">
        <ele>2.009004</ele>
        <time>2020-10-07T18:10:22.536Z</time>
      </trkpt>
      <trkpt lat="58.58089" lon="23.56391">
        <ele>2.008084</ele>
        <time>2020-10-07T18:10:24.663Z</time>
      </trkpt>
      <trkpt lat="58.58118" lon="23.56481">
        <ele>2.109358</ele>
        <time>2020-10-07T18:10:37.820Z</time>
      </trkpt>
      <trkpt lat="58.58213" lon="23.56728">
        <ele>3.454185</ele>
        <time>2020-10-07T18:11:20.608Z</time>
      </trkpt>
      <trkpt lat="58.58249" lon="23.56824">
        <ele>4.218392</ele>
        <time>2020-10-07T18:11:38.444Z</time>
      </trkpt>
      <trkpt lat="58.58338" lon="23.57056">
        <ele>6.000656</ele>
        <time>2020-10-07T18:12:21.626Z</time>
      </trkpt>
      <trkpt lat="58.58588" lon="23.57713">
        <ele>7.575066</ele>
        <time>2020-10-07T18:14:07.562Z</time>
      </trkpt>
      <trkpt lat="58.5859" lon="23.57733">
        <ele>7.546804</ele>
        <time>2020-10-07T18:14:09.852Z</time>
      </trkpt>
      <trkpt lat="58.58436" lon="23.58488">
        <ele>4.269276</ele>
        <time>2020-10-07T18:15:35.985Z</time>
      </trkpt>
      <trkpt lat="58.58378" lon="23.58569">
        <ele>4.107945</ele>
        <time>2020-10-07T18:15:51.773Z</time>
      </trkpt>
      <trkpt lat="58.5834" lon="23.58714">
        <ele>4.082266</ele>
        <time>2020-10-07T18:16:11.784Z</time>
      </trkpt>
      <trkpt lat="58.58261" lon="23.58854">
        <ele>4.246812</ele>
        <time>2020-10-07T18:16:38.561Z</time>
      </trkpt>
      <trkpt lat="58.58226" lon="23.58963">
        <ele>4.422113</ele>
        <time>2020-10-07T18:16:54.869Z</time>
      </trkpt>
      <trkpt lat="58.58097" lon="23.59555">
        <ele>4.395014</ele>
        <time>2020-10-07T18:18:12.186Z</time>
      </trkpt>
      <trkpt lat="58.58056" lon="23.59654">
        <ele>4.353031</ele>
        <time>2020-10-07T18:18:27.014Z</time>
      </trkpt>
      <trkpt lat="58.57956" lon="23.59804">
        <ele>4.538953</ele>
        <time>2020-10-07T18:18:56.749Z</time>
      </trkpt>
      <trkpt lat="58.5795" lon="23.59854">
        <ele>4.580601</ele>
        <time>2020-10-07T18:19:03.248Z</time>
      </trkpt>
      <trkpt lat="58.57953" lon="23.59931">
        <ele>4.666371</ele>
        <time>2020-10-07T18:19:13.185Z</time>
      </trkpt>
      <trkpt lat="58.5791" lon="23.60164">
        <ele>5.234728</ele>
        <time>2020-10-07T18:19:45.778Z</time>
      </trkpt>
      <trkpt lat="58.57874" lon="23.60266">
        <ele>5.442365</ele>
        <time>2020-10-07T18:20:01.858Z</time>
      </trkpt>
      <trkpt lat="58.57859" lon="23.60366">
        <ele>5.490285</ele>
        <time>2020-10-07T18:20:14.941Z</time>
      </trkpt>
      <trkpt lat="58.57602" lon="23.60239">
        <ele>5.405868</ele>
        <time>2020-10-07T18:21:12.772Z</time>
      </trkpt>
      <trkpt lat="58.57539" lon="23.60208">
        <ele>5.469217</ele>
        <time>2020-10-07T18:21:26.957Z</time>
      </trkpt>
      <trkpt lat="58.56917" lon="23.599">
        <ele>6.721944</ele>
        <time>2020-10-07T18:23:55.588Z</time>
      </trkpt>
      <trkpt lat="58.56872" lon="23.59885">
        <ele>6.84767</ele>
        <time>2020-10-07T18:24:06.370Z</time>
      </trkpt>
      <trkpt lat="58.56844" lon="23.59887">
        <ele>6.950967</ele>
        <time>2020-10-07T18:24:13.043Z</time>
      </trkpt>
      <trkpt lat="58.56798" lon="23.59889">
        <ele>7.116832</ele>
        <time>2020-10-07T18:24:23.903Z</time>
      </trkpt>
      <trkpt lat="58.56758" lon="23.59878">
        <ele>7.263734</ele>
        <time>2020-10-07T18:24:33.475Z</time>
      </trkpt>
      <trkpt lat="58.56687" lon="23.598">
        <ele>7.564416</ele>
        <time>2020-10-07T18:24:53.217Z</time>
      </trkpt>
      <trkpt lat="58.56589" lon="23.59747">
        <ele>7.941394</ele>
        <time>2020-10-07T18:25:17.468Z</time>
      </trkpt>
      <trkpt lat="58.56549" lon="23.59757">
        <ele>8.090075</ele>
        <time>2020-10-07T18:25:26.910Z</time>
      </trkpt>
      <trkpt lat="58.56514" lon="23.59752">
        <ele>8.188553</ele>
        <time>2020-10-07T18:25:34.919Z</time>
      </trkpt>
      <trkpt lat="58.56354" lon="23.59653">
        <ele>8.673006</ele>
        <time>2020-10-07T18:26:14.351Z</time>
      </trkpt>
      <trkpt lat="58.56311" lon="23.59654">
        <ele>8.873082</ele>
        <time>2020-10-07T18:26:24.668Z</time>
      </trkpt>
      <trkpt lat="58.56102" lon="23.59696">
        <ele>9.834576</ele>
        <time>2020-10-07T18:27:15.894Z</time>
      </trkpt>
      <trkpt lat="58.56036" lon="23.5971">
        <ele>10.135586</ele>
        <time>2020-10-07T18:27:31.748Z</time>
      </trkpt>
      <trkpt lat="58.55925" lon="23.59728">
        <ele>10.527045</ele>
        <time>2020-10-07T18:27:57.851Z</time>
      </trkpt>
      <trkpt lat="58.55896" lon="23.5974">
        <ele>10.624095</ele>
        <time>2020-10-07T18:28:04.857Z</time>
      </trkpt>
      <trkpt lat="58.55783" lon="23.59784">
        <ele>11.04927</ele>
        <time>2020-10-07T18:28:32.273Z</time>
      </trkpt>
      <trkpt lat="58.55769" lon="23.59789">
        <ele>11.107239</ele>
        <time>2020-10-07T18:28:35.684Z</time>
      </trkpt>
      <trkpt lat="58.55711" lon="23.598">
        <ele>11.351681</ele>
        <time>2020-10-07T18:28:50.086Z</time>
      </trkpt>
      <trkpt lat="58.55534" lon="23.59799">
        <ele>11.683945</ele>
        <time>2020-10-07T18:29:31.440Z</time>
      </trkpt>
      <trkpt lat="58.55432" lon="23.59799">
        <ele>11.431604</ele>
        <time>2020-10-07T18:29:53.038Z</time>
      </trkpt>
      <trkpt lat="58.55327" lon="23.59825">
        <ele>10.724098</ele>
        <time>2020-10-07T18:30:14.087Z</time>
      </trkpt>
      <trkpt lat="58.55192" lon="23.59982">
        <ele>9.430067</ele>
        <time>2020-10-07T18:30:44.964Z</time>
      </trkpt>
      <trkpt lat="58.55169" lon="23.60029">
        <ele>9.143915</ele>
        <time>2020-10-07T18:30:51.556Z</time>
      </trkpt>
      <trkpt lat="58.55167" lon="23.60034">
        <ele>9.112487</ele>
        <time>2020-10-07T18:30:52.272Z</time>
      </trkpt>
      <trkpt lat="58.5497" lon="23.60439">
        <ele>7.570595</ele>
        <time>2020-10-07T18:31:50.973Z</time>
      </trkpt>
      <trkpt lat="58.54886" lon="23.60589">
        <ele>7.351862</ele>
        <time>2020-10-07T18:32:16.465Z</time>
      </trkpt>
      <trkpt lat="58.5482" lon="23.60688">
        <ele>7.462378</ele>
        <time>2020-10-07T18:32:35.613Z</time>
      </trkpt>
      <trkpt lat="58.54809" lon="23.60696">
        <ele>7.478135</ele>
        <time>2020-10-07T18:32:38.484Z</time>
      </trkpt>
      <trkpt lat="58.54796" lon="23.607">
        <ele>7.496021</ele>
        <time>2020-10-07T18:32:41.467Z</time>
      </trkpt>
      <trkpt lat="58.54722" lon="23.6071">
        <ele>7.588999</ele>
        <time>2020-10-07T18:32:58.248Z</time>
      </trkpt>
      <trkpt lat="58.54668" lon="23.60746">
        <ele>7.658361</ele>
        <time>2020-10-07T18:33:11.568Z</time>
      </trkpt>
      <trkpt lat="58.5463" lon="23.60783">
        <ele>7.709418</ele>
        <time>2020-10-07T18:33:21.090Z</time>
      </trkpt>
      <trkpt lat="58.54579" lon="23.60836">
        <ele>7.781276</ele>
        <time>2020-10-07T18:33:34.378Z</time>
      </trkpt>
      <trkpt lat="58.54543" lon="23.60878">
        <ele>7.836685</ele>
        <time>2020-10-07T18:33:43.883Z</time>
      </trkpt>
      <trkpt lat="58.54404" lon="23.61107">
        <ele>8.140161</ele>
        <time>2020-10-07T18:34:26.026Z</time>
      </trkpt>
      <trkpt lat="58.54359" lon="23.61214">
        <ele>8.307294</ele>
        <time>2020-10-07T18:34:42.346Z</time>
      </trkpt>
      <trkpt lat="58.54337" lon="23.61304">
        <ele>8.430731</ele>
        <time>2020-10-07T18:34:54.497Z</time>
      </trkpt>
      <trkpt lat="58.54323" lon="23.6143">
        <ele>8.926469</ele>
        <time>2020-10-07T18:35:10.792Z</time>
      </trkpt>
      <trkpt lat="58.54324" lon="23.61519">
        <ele>9.270416</ele>
        <time>2020-10-07T18:35:22.946Z</time>
      </trkpt>
      <trkpt lat="58.54312" lon="23.61628">
        <ele>9.699365</ele>
        <time>2020-10-07T18:35:38.285Z</time>
      </trkpt>
      <trkpt lat="58.54249" lon="23.61768">
        <ele>10.232342</ele>
        <time>2020-10-07T18:36:03.195Z</time>
      </trkpt>
      <trkpt lat="58.54224" lon="23.61822">
        <ele>10.433428</ele>
        <time>2020-10-07T18:36:18.040Z</time>
      </trkpt>
      <trkpt lat="58.54091" lon="23.62094">
        <ele>10.532411</ele>
        <time>2020-10-07T18:37:29.676Z</time>
      </trkpt>
      <trkpt lat="58.54036" lon="23.62152">
        <ele>10.408298</ele>
        <time>2020-10-07T18:37:52.399Z</time>
      </trkpt>
      <trkpt lat="58.54018" lon="23.6217">
        <ele>10.348496</ele>
        <time>2020-10-07T18:37:59.669Z</time>
      </trkpt>
      <trkpt lat="58.53871" lon="23.62457">
        <ele>9.512398</ele>
        <time>2020-10-07T18:39:15.195Z</time>
      </trkpt>
      <trkpt lat="58.53864" lon="23.62497">
        <ele>9.384161</ele>
        <time>2020-10-07T18:39:22.904Z</time>
      </trkpt>
      <trkpt lat="58.53809" lon="23.6268">
        <ele>8.66917</ele>
        <time>2020-10-07T18:40:00.943Z</time>
      </trkpt>
      <trkpt lat="58.53787" lon="23.62714">
        <ele>8.428537</ele>
        <time>2020-10-07T18:40:10.481Z</time>
      </trkpt>
      <trkpt lat="58.53732" lon="23.62734">
        <ele>7.95619</ele>
        <time>2020-10-07T18:40:29.300Z</time>
      </trkpt>
      <trkpt lat="58.537" lon="23.62848">
        <ele>7.383318</ele>
        <time>2020-10-07T18:40:52.578Z</time>
      </trkpt>
      <trkpt lat="58.53694" lon="23.62909">
        <ele>7.234813</ele>
        <time>2020-10-07T18:41:03.874Z</time>
      </trkpt>
      <trkpt lat="58.53706" lon="23.62943">
        <ele>7.140135</ele>
        <time>2020-10-07T18:41:11.607Z</time>
      </trkpt>
      <trkpt lat="58.53787" lon="23.63011">
        <ele>6.755426</ele>
        <time>2020-10-07T18:41:43.142Z</time>
      </trkpt>
      <trkpt lat="58.5381" lon="23.63053">
        <ele>6.616178</ele>
        <time>2020-10-07T18:41:54.548Z</time>
      </trkpt>
      <trkpt lat="58.5383" lon="23.63105">
        <ele>6.53399</ele>
        <time>2020-10-07T18:42:06.719Z</time>
      </trkpt>
      <trkpt lat="58.53862" lon="23.63139">
        <ele>6.463647</ele>
        <time>2020-10-07T18:42:19.836Z</time>
      </trkpt>
      <trkpt lat="58.5389" lon="23.63167">
        <ele>6.402793</ele>
        <time>2020-10-07T18:42:31.198Z</time>
      </trkpt>
      <trkpt lat="58.53944" lon="23.63217">
        <ele>6.286754</ele>
        <time>2020-10-07T18:42:53.019Z</time>
      </trkpt>
      <trkpt lat="58.53993" lon="23.6323">
        <ele>6.331752</ele>
        <time>2020-10-07T18:43:11.559Z</time>
      </trkpt>
      <trkpt lat="58.54053" lon="23.63292">
        <ele>6.601044</ele>
        <time>2020-10-07T18:43:37.550Z</time>
      </trkpt>
      <trkpt lat="58.54094" lon="23.63322">
        <ele>6.770737</ele>
        <time>2020-10-07T18:43:54.561Z</time>
      </trkpt>
      <trkpt lat="58.54119" lon="23.63381">
        <ele>6.928705</ele>
        <time>2020-10-07T18:44:10.734Z</time>
      </trkpt>
      <trkpt lat="58.54133" lon="23.63452">
        <ele>7.23858</ele>
        <time>2020-10-07T18:44:26.856Z</time>
      </trkpt>
      <trkpt lat="58.54159" lon="23.64121">
        <ele>9.942718</ele>
        <time>2020-10-07T18:46:48.908Z</time>
      </trkpt>
      <trkpt lat="58.54141" lon="23.64215">
        <ele>9.982368</ele>
        <time>2020-10-07T18:47:09.198Z</time>
      </trkpt>
      <trkpt lat="58.53812" lon="23.65361">
        <ele>10.132865</ele>
        <time>2020-10-07T18:51:22.504Z</time>
      </trkpt>
      <trkpt lat="58.53796" lon="23.65448">
        <ele>9.963283</ele>
        <time>2020-10-07T18:51:39.765Z</time>
      </trkpt>
      <trkpt lat="58.53788" lon="23.65547">
        <ele>9.77827</ele>
        <time>2020-10-07T18:51:58.379Z</time>
      </trkpt>
      <trkpt lat="58.53813" lon="23.65662">
        <ele>9.469534</ele>
        <time>2020-10-07T18:52:21.356Z</time>
      </trkpt>
      <trkpt lat="58.53973" lon="23.66083">
        <ele>7.740841</ele>
        <time>2020-10-07T18:53:55.832Z</time>
      </trkpt>
      <trkpt lat="58.54131" lon="23.66449">
        <ele>6.369478</ele>
        <time>2020-10-07T18:55:23.046Z</time>
      </trkpt>
      <trkpt lat="58.54187" lon="23.66579">
        <ele>6.219073</ele>
        <time>2020-10-07T18:55:54.690Z</time>
      </trkpt>
      <trkpt lat="58.54189" lon="23.6661">
        <ele>6.19128</ele>
        <time>2020-10-07T18:56:00.559Z</time>
      </trkpt>
      <trkpt lat="58.54109" lon="23.66795">
        <ele>6.280059</ele>
        <time>2020-10-07T18:56:47.811Z</time>
      </trkpt>
      <trkpt lat="58.54093" lon="23.66943">
        <ele>6.568677</ele>
        <time>2020-10-07T18:57:18.979Z</time>
      </trkpt>
      <trkpt lat="58.54021" lon="23.67194">
        <ele>6.878319</ele>
        <time>2020-10-07T18:58:16.620Z</time>
      </trkpt>
      <trkpt lat="58.53989" lon="23.67253">
        <ele>6.940174</ele>
        <time>2020-10-07T18:58:33.098Z</time>
      </trkpt>
      <trkpt lat="58.53955" lon="23.6733">
        <ele>6.895595</ele>
        <time>2020-10-07T18:58:52.241Z</time>
      </trkpt>
      <trkpt lat="58.53832" lon="23.67473">
        <ele>6.322776</ele>
        <time>2020-10-07T18:59:43.067Z</time>
      </trkpt>
      <trkpt lat="58.53822" lon="23.67493">
        <ele>6.264522</ele>
        <time>2020-10-07T18:59:48.345Z</time>
      </trkpt>
      <trkpt lat="58.53819" lon="23.67507">
        <ele>6.233479</ele>
        <time>2020-10-07T18:59:51.274Z</time>
      </trkpt>
      <trkpt lat="58.53816" lon="23.67516">
        <ele>6.213292</ele>
        <time>2020-10-07T18:59:53.131Z</time>
      </trkpt>
      <trkpt lat="58.53813" lon="23.67539">
        <ele>6.164716</ele>
        <time>2020-10-07T18:59:57.508Z</time>
      </trkpt>
      <trkpt lat="58.53811" lon="23.67579">
        <ele>6.084725</ele>
        <time>2020-10-07T19:00:05.118Z</time>
      </trkpt>
      <trkpt lat="58.5381" lon="23.67604">
        <ele>6.033196</ele>
        <time>2020-10-07T19:00:09.768Z</time>
      </trkpt>
      <trkpt lat="58.53808" lon="23.67979">
        <ele>5.312632</ele>
        <time>2020-10-07T19:01:19.870Z</time>
      </trkpt>
      <trkpt lat="58.53821" lon="23.68057">
        <ele>5.164916</ele>
        <time>2020-10-07T19:01:35.338Z</time>
      </trkpt>
      <trkpt lat="58.53826" lon="23.68091">
        <ele>5.102486</ele>
        <time>2020-10-07T19:01:41.894Z</time>
      </trkpt>
      <trkpt lat="58.53822" lon="23.68156">
        <ele>4.984513</ele>
        <time>2020-10-07T19:01:54.229Z</time>
      </trkpt>
      <trkpt lat="58.53796" lon="23.68279">
        <ele>4.893063</ele>
        <time>2020-10-07T19:02:18.921Z</time>
      </trkpt>
      <trkpt lat="58.53812" lon="23.68519">
        <ele>4.81257</ele>
        <time>2020-10-07T19:03:05.666Z</time>
      </trkpt>
      <trkpt lat="58.53807" lon="23.68598">
        <ele>5.065114</ele>
        <time>2020-10-07T19:03:21.734Z</time>
      </trkpt>
      <trkpt lat="58.53794" lon="23.68672">
        <ele>5.315395</ele>
        <time>2020-10-07T19:03:37.959Z</time>
      </trkpt>
      <trkpt lat="58.53734" lon="23.68899">
        <ele>6.218123</ele>
        <time>2020-10-07T19:04:31.741Z</time>
      </trkpt>
      <trkpt lat="58.53717" lon="23.69001">
        <ele>6.68614</ele>
        <time>2020-10-07T19:04:54.875Z</time>
      </trkpt>
      <trkpt lat="58.53717" lon="23.69069">
        <ele>6.984217</ele>
        <time>2020-10-07T19:05:09.473Z</time>
      </trkpt>
      <trkpt lat="58.5373" lon="23.69212">
        <ele>7.470681</ele>
        <time>2020-10-07T19:05:39.702Z</time>
      </trkpt>
      <trkpt lat="58.5374" lon="23.69299">
        <ele>7.629927</ele>
        <time>2020-10-07T19:05:58.002Z</time>
      </trkpt>
      <trkpt lat="58.53685" lon="23.69332">
        <ele>7.826318</ele>
        <time>2020-10-07T19:06:11.993Z</time>
      </trkpt>
      <trkpt lat="58.53189" lon="23.69631">
        <ele>8.218147</ele>
        <time>2020-10-07T19:08:12.696Z</time>
      </trkpt>
      <trkpt lat="58.53155" lon="23.69656">
        <ele>8.285928</ele>
        <time>2020-10-07T19:08:21.773Z</time>
      </trkpt>
      <trkpt lat="58.53106" lon="23.69707">
        <ele>8.38743</ele>
        <time>2020-10-07T19:08:35.906Z</time>
      </trkpt>
      <trkpt lat="58.53089" lon="23.69734">
        <ele>8.426475</ele>
        <time>2020-10-07T19:08:41.501Z</time>
      </trkpt>
      <trkpt lat="58.53074" lon="23.69759">
        <ele>8.460672</ele>
        <time>2020-10-07T19:08:46.585Z</time>
      </trkpt>
      <trkpt lat="58.53042" lon="23.69811">
        <ele>8.534142</ele>
        <time>2020-10-07T19:08:56.840Z</time>
      </trkpt>
      <trkpt lat="58.52985" lon="23.69913">
        <ele>8.591643</ele>
        <time>2020-10-07T19:09:14.562Z</time>
      </trkpt>
      <trkpt lat="58.52964" lon="23.69961">
        <ele>8.373513</ele>
        <time>2020-10-07T19:09:21.987Z</time>
      </trkpt>
      <trkpt lat="58.52941" lon="23.70038">
        <ele>8.068812</ele>
        <time>2020-10-07T19:09:31.640Z</time>
      </trkpt>
      <trkpt lat="58.52927" lon="23.70084">
        <ele>7.881019</ele>
        <time>2020-10-07T19:09:37.426Z</time>
      </trkpt>
      <trkpt lat="58.52898" lon="23.70166">
        <ele>7.539674</ele>
        <time>2020-10-07T19:09:47.966Z</time>
      </trkpt>
      <trkpt lat="58.52828" lon="23.70314">
        <ele>6.726515</ele>
        <time>2020-10-07T19:10:09.160Z</time>
      </trkpt>
      <trkpt lat="58.52798" lon="23.7035">
        <ele>6.446753</ele>
        <time>2020-10-07T19:10:16.592Z</time>
      </trkpt>
      <trkpt lat="58.52765" lon="23.70352">
        <ele>6.184061</ele>
        <time>2020-10-07T19:10:23.576Z</time>
      </trkpt>
      <trkpt lat="58.52707" lon="23.70323">
        <ele>5.87475</ele>
        <time>2020-10-07T19:10:36.269Z</time>
      </trkpt>
      <trkpt lat="58.52663" lon="23.70301">
        <ele>5.699923</ele>
        <time>2020-10-07T19:10:45.973Z</time>
      </trkpt>
      <trkpt lat="58.52636" lon="23.70282">
        <ele>5.586039</ele>
        <time>2020-10-07T19:10:52.271Z</time>
      </trkpt>
      <trkpt lat="58.51903" lon="23.69778">
        <ele>4.519921</ele>
        <time>2020-10-07T19:13:49.485Z</time>
      </trkpt>
      <trkpt lat="58.51633" lon="23.69598">
        <ele>4.463452</ele>
        <time>2020-10-07T19:14:55.263Z</time>
      </trkpt>
      <trkpt lat="58.5159" lon="23.69574">
        <ele>4.476219</ele>
        <time>2020-10-07T19:15:05.940Z</time>
      </trkpt>
      <trkpt lat="58.51549" lon="23.69565">
        <ele>4.488202</ele>
        <time>2020-10-07T19:15:15.584Z</time>
      </trkpt>
      <trkpt lat="58.5141" lon="23.69562">
        <ele>4.540368</ele>
        <time>2020-10-07T19:15:48.837Z</time>
      </trkpt>
      <trkpt lat="58.51283" lon="23.6956">
        <ele>4.396104</ele>
        <time>2020-10-07T19:16:17.138Z</time>
      </trkpt>
      <trkpt lat="58.51137" lon="23.69559">
        <ele>4.385762</ele>
        <time>2020-10-07T19:16:50.301Z</time>
      </trkpt>
      <trkpt lat="58.51064" lon="23.69559">
        <ele>4.555225</ele>
        <time>2020-10-07T19:17:08.093Z</time>
      </trkpt>
      <trkpt lat="58.50987" lon="23.69568">
        <ele>4.816458</ele>
        <time>2020-10-07T19:17:27.673Z</time>
      </trkpt>
      <trkpt lat="58.50828" lon="23.69581">
        <ele>5.623083</ele>
        <time>2020-10-07T19:18:08.129Z</time>
      </trkpt>
      <trkpt lat="58.50683" lon="23.69582">
        <ele>6.042561</ele>
        <time>2020-10-07T19:18:43.565Z</time>
      </trkpt>
      <trkpt lat="58.50529" lon="23.69599">
        <ele>6.156637</ele>
        <time>2020-10-07T19:19:19.918Z</time>
      </trkpt>
      <trkpt lat="58.50254" lon="23.69636">
        <ele>5.676438</ele>
        <time>2020-10-07T19:20:21.626Z</time>
      </trkpt>
      <trkpt lat="58.5014" lon="23.69655">
        <ele>5.386532</ele>
        <time>2020-10-07T19:20:46.946Z</time>
      </trkpt>
      <trkpt lat="58.49888" lon="23.69693">
        <ele>5.248465</ele>
        <time>2020-10-07T19:21:44.992Z</time>
      </trkpt>
      <trkpt lat="58.49773" lon="23.6971">
        <ele>5.316243</ele>
        <time>2020-10-07T19:22:11.578Z</time>
      </trkpt>
      <trkpt lat="58.49507" lon="23.6975">
        <ele>6.878316</ele>
        <time>2020-10-07T19:23:20.958Z</time>
      </trkpt>
      <trkpt lat="58.49348" lon="23.69774">
        <ele>7.735196</ele>
        <time>2020-10-07T19:24:00.647Z</time>
      </trkpt>
      <trkpt lat="58.49314" lon="23.69779">
        <ele>7.912729</ele>
        <time>2020-10-07T19:24:09.162Z</time>
      </trkpt>
      <trkpt lat="58.49265" lon="23.69803">
        <ele>8.175948</ele>
        <time>2020-10-07T19:24:21.934Z</time>
      </trkpt>
      <trkpt lat="58.49228" lon="23.6982">
        <ele>8.371539</ele>
        <time>2020-10-07T19:24:31.607Z</time>
      </trkpt>
      <trkpt lat="58.48966" lon="23.69979">
        <ele>10.581616</ele>
        <time>2020-10-07T19:25:44.728Z</time>
      </trkpt>
      <trkpt lat="58.48713" lon="23.70125">
        <ele>12.59153</ele>
        <time>2020-10-07T19:26:54.538Z</time>
      </trkpt>
      <trkpt lat="58.47534" lon="23.70751">
        <ele>17.536651</ele>
        <time>2020-10-07T19:31:54.991Z</time>
      </trkpt>
      <trkpt lat="58.47416" lon="23.70824">
        <ele>19.833016</ele>
        <time>2020-10-07T19:32:34.307Z</time>
      </trkpt>
      <trkpt lat="58.47335" lon="23.70898">
        <ele>21.928395</ele>
        <time>2020-10-07T19:33:04.930Z</time>
      </trkpt>
      <trkpt lat="58.47261" lon="23.70991">
        <ele>23.989618</ele>
        <time>2020-10-07T19:33:34.871Z</time>
      </trkpt>
      <trkpt lat="58.47202" lon="23.71074">
        <ele>25.688826</ele>
        <time>2020-10-07T19:33:58.187Z</time>
      </trkpt>
      <trkpt lat="58.47169" lon="23.71125">
        <ele>26.514466</ele>
        <time>2020-10-07T19:34:11.332Z</time>
      </trkpt>
      <trkpt lat="58.47109" lon="23.71232">
        <ele>27.652934</ele>
        <time>2020-10-07T19:34:35.398Z</time>
      </trkpt>
      <trkpt lat="58.46823" lon="23.71865">
        <ele>32.601027</ele>
        <time>2020-10-07T19:36:35.717Z</time>
      </trkpt>
      <trkpt lat="58.46743" lon="23.71987">
        <ele>33.243593</ele>
        <time>2020-10-07T19:37:03.685Z</time>
      </trkpt>
      <trkpt lat="58.46657" lon="23.72141">
        <ele>33.415821</ele>
        <time>2020-10-07T19:37:32.070Z</time>
      </trkpt>
      <trkpt lat="58.46553" lon="23.72333">
        <ele>32.211678</ele>
        <time>2020-10-07T19:38:00.910Z</time>
      </trkpt>
      <trkpt lat="58.46513" lon="23.72421">
        <ele>31.606118</ele>
        <time>2020-10-07T19:38:12.731Z</time>
      </trkpt>
      <trkpt lat="58.46363" lon="23.7277">
        <ele>29.915905</ele>
        <time>2020-10-07T19:39:01.960Z</time>
      </trkpt>
      <trkpt lat="58.46339" lon="23.7282">
        <ele>29.752677</ele>
        <time>2020-10-07T19:39:10.073Z</time>
      </trkpt>
      <trkpt lat="58.46304" lon="23.72878">
        <ele>29.67958</ele>
        <time>2020-10-07T19:39:20.954Z</time>
      </trkpt>
      <trkpt lat="58.46059" lon="23.73194">
        <ele>30.220392</ele>
        <time>2020-10-07T19:40:31.911Z</time>
      </trkpt>
      <trkpt lat="58.45765" lon="23.7355">
        <ele>30.754672</ele>
        <time>2020-10-07T19:41:56.459Z</time>
      </trkpt>
      <trkpt lat="58.45616" lon="23.73688">
        <ele>30.023368</ele>
        <time>2020-10-07T19:42:31.646Z</time>
      </trkpt>
      <trkpt lat="58.45169" lon="23.7408">
        <ele>26.540848</ele>
        <time>2020-10-07T19:44:14.071Z</time>
      </trkpt>
      <trkpt lat="58.45105" lon="23.74134">
        <ele>26.159819</ele>
        <time>2020-10-07T19:44:29.053Z</time>
      </trkpt>
      <trkpt lat="58.44973" lon="23.74249">
        <ele>25.604592</ele>
        <time>2020-10-07T19:45:00.877Z</time>
      </trkpt>
      <trkpt lat="58.44955" lon="23.74264">
        <ele>25.545242</ele>
        <time>2020-10-07T19:45:05.172Z</time>
      </trkpt>
      <trkpt lat="58.44838" lon="23.74368">
        <ele>25.196654</ele>
        <time>2020-10-07T19:45:34.175Z</time>
      </trkpt>
      <trkpt lat="58.44828" lon="23.74377">
        <ele>25.170837</ele>
        <time>2020-10-07T19:45:36.627Z</time>
      </trkpt>
      <trkpt lat="58.44655" lon="23.74532">
        <ele>24.763096</ele>
        <time>2020-10-07T19:46:19.278Z</time>
      </trkpt>
      <trkpt lat="58.44505" lon="23.74657">
        <ele>24.529767</ele>
        <time>2020-10-07T19:46:56.255Z</time>
      </trkpt>
      <trkpt lat="58.44421" lon="23.74705">
        <ele>24.457607</ele>
        <time>2020-10-07T19:47:16.241Z</time>
      </trkpt>
      <trkpt lat="58.44377" lon="23.74722">
        <ele>24.580283</ele>
        <time>2020-10-07T19:47:26.667Z</time>
      </trkpt>
      <trkpt lat="58.44295" lon="23.74735">
        <ele>24.99207</ele>
        <time>2020-10-07T19:47:46.545Z</time>
      </trkpt>
      <trkpt lat="58.44288" lon="23.74733">
        <ele>25.02892</ele>
        <time>2020-10-07T19:47:48.364Z</time>
      </trkpt>
      <trkpt lat="58.44272" lon="23.7473">
        <ele>25.109693</ele>
        <time>2020-10-07T19:47:52.348Z</time>
      </trkpt>
      <trkpt lat="58.44085" lon="23.74695">
        <ele>27.338584</ele>
        <time>2020-10-07T19:48:45.613Z</time>
      </trkpt>
      <trkpt lat="58.44021" lon="23.74683">
        <ele>28.190088</ele>
        <time>2020-10-07T19:49:05.677Z</time>
      </trkpt>
      <trkpt lat="58.44007" lon="23.74681">
        <ele>28.35262</ele>
        <time>2020-10-07T19:49:09.799Z</time>
      </trkpt>
      <trkpt lat="58.43986" lon="23.74675">
        <ele>28.601234</ele>
        <time>2020-10-07T19:49:16.096Z</time>
      </trkpt>
      <trkpt lat="58.43917" lon="23.74646">
        <ele>29.438419</ele>
        <time>2020-10-07T19:49:36.404Z</time>
      </trkpt>
      <trkpt lat="58.43822" lon="23.74606">
        <ele>29.841223</ele>
        <time>2020-10-07T19:50:00.397Z</time>
      </trkpt>
      <trkpt lat="58.43519" lon="23.746">
        <ele>28.081069</ele>
        <time>2020-10-07T19:51:04.012Z</time>
      </trkpt>
      <trkpt lat="58.43464" lon="23.74616">
        <ele>27.486546</ele>
        <time>2020-10-07T19:51:15.100Z</time>
      </trkpt>
      <trkpt lat="58.43405" lon="23.74649">
        <ele>26.78167</ele>
        <time>2020-10-07T19:51:27.228Z</time>
      </trkpt>
      <trkpt lat="58.43333" lon="23.74712">
        <ele>25.954223</ele>
        <time>2020-10-07T19:51:42.914Z</time>
      </trkpt>
      <trkpt lat="58.43278" lon="23.74795">
        <ele>25.730313</ele>
        <time>2020-10-07T19:51:57.741Z</time>
      </trkpt>
      <trkpt lat="58.43205" lon="23.74931">
        <ele>25.412174</ele>
        <time>2020-10-07T19:52:21.097Z</time>
      </trkpt>
      <trkpt lat="58.43174" lon="23.74986">
        <ele>25.603758</ele>
        <time>2020-10-07T19:52:31.665Z</time>
      </trkpt>
      <trkpt lat="58.42981" lon="23.75327">
        <ele>26.685319</ele>
        <time>2020-10-07T19:53:38.268Z</time>
      </trkpt>
      <trkpt lat="58.42945" lon="23.75394">
        <ele>26.866703</ele>
        <time>2020-10-07T19:53:50.079Z</time>
      </trkpt>
      <trkpt lat="58.42923" lon="23.75435">
        <ele>26.896607</ele>
        <time>2020-10-07T19:53:57.267Z</time>
      </trkpt>
      <trkpt lat="58.42913" lon="23.75451">
        <ele>26.904386</ele>
        <time>2020-10-07T19:54:00.328Z</time>
      </trkpt>
      <trkpt lat="58.42888" lon="23.75487">
        <ele>26.922603</ele>
        <time>2020-10-07T19:54:07.551Z</time>
      </trkpt>
      <trkpt lat="58.42864" lon="23.75513">
        <ele>26.938866</ele>
        <time>2020-10-07T19:54:13.948Z</time>
      </trkpt>
      <trkpt lat="58.42848" lon="23.75524">
        <ele>26.94873</ele>
        <time>2020-10-07T19:54:17.793Z</time>
      </trkpt>
      <trkpt lat="58.42632" lon="23.75673">
        <ele>27.298316</ele>
        <time>2020-10-07T19:55:12.506Z</time>
      </trkpt>
      <trkpt lat="58.42573" lon="23.75708">
        <ele>27.549261</ele>
        <time>2020-10-07T19:55:27.812Z</time>
      </trkpt>
      <trkpt lat="58.42552" lon="23.75695">
        <ele>27.652848</ele>
        <time>2020-10-07T19:55:33.423Z</time>
      </trkpt>
      <trkpt lat="58.42384" lon="23.7563">
        <ele>28.360909</ele>
        <time>2020-10-07T19:56:17.026Z</time>
      </trkpt>
      <trkpt lat="58.42333" lon="23.75619">
        <ele>28.513398</ele>
        <time>2020-10-07T19:56:29.422Z</time>
      </trkpt>
      <trkpt lat="58.42308" lon="23.75644">
        <ele>28.600046</ele>
        <time>2020-10-07T19:56:36.379Z</time>
      </trkpt>
      <trkpt lat="58.42204" lon="23.75884">
        <ele>28.616931</ele>
        <time>2020-10-07T19:57:13.630Z</time>
      </trkpt>
      <trkpt lat="58.42207" lon="23.75897">
        <ele>28.610938</ele>
        <time>2020-10-07T19:57:15.342Z</time>
      </trkpt>
      <trkpt lat="58.42185" lon="23.75926">
        <ele>28.589671</ele>
        <time>2020-10-07T19:57:21.189Z</time>
      </trkpt>
      <trkpt lat="58.42157" lon="23.75986">
        <ele>28.64689</ele>
        <time>2020-10-07T19:57:30.948Z</time>
      </trkpt>
      <trkpt lat="58.42109" lon="23.76092">
        <ele>28.925374</ele>
        <time>2020-10-07T19:57:48.456Z</time>
      </trkpt>
      <trkpt lat="58.42" lon="23.76346">
        <ele>29.657024</ele>
        <time>2020-10-07T19:58:32.874Z</time>
      </trkpt>
      <trkpt lat="58.41924" lon="23.76516">
        <ele>29.998337</ele>
        <time>2020-10-07T19:59:02.100Z</time>
      </trkpt>
      <trkpt lat="58.41901" lon="23.76556">
        <ele>29.846752</ele>
        <time>2020-10-07T19:59:09.252Z</time>
      </trkpt>
      <trkpt lat="58.41884" lon="23.76581">
        <ele>29.745474</ele>
        <time>2020-10-07T19:59:13.787Z</time>
      </trkpt>
      <trkpt lat="58.41839" lon="23.76637">
        <ele>29.487688</ele>
        <time>2020-10-07T19:59:25.228Z</time>
      </trkpt>
      <trkpt lat="58.41835" lon="23.76641">
        <ele>29.468613</ele>
        <time>2020-10-07T19:59:26.034Z</time>
      </trkpt>
      <trkpt lat="58.41767" lon="23.76728">
        <ele>28.864892</ele>
        <time>2020-10-07T19:59:42.555Z</time>
      </trkpt>
      <trkpt lat="58.41682" lon="23.76833">
        <ele>27.771444</ele>
        <time>2020-10-07T20:00:02.619Z</time>
      </trkpt>
      <trkpt lat="58.41545" lon="23.76981">
        <ele>26.297502</ele>
        <time>2020-10-07T20:00:34.557Z</time>
      </trkpt>
      <trkpt lat="58.4141" lon="23.77102">
        <ele>25.303496</ele>
        <time>2020-10-07T20:01:05.807Z</time>
      </trkpt>
      <trkpt lat="58.41252" lon="23.77244">
        <ele>24.579055</ele>
        <time>2020-10-07T20:01:44.628Z</time>
      </trkpt>
      <trkpt lat="58.40986" lon="23.77506">
        <ele>23.64183</ele>
        <time>2020-10-07T20:02:50.618Z</time>
      </trkpt>
      <trkpt lat="58.40886" lon="23.77579">
        <ele>23.410006</ele>
        <time>2020-10-07T20:03:14.504Z</time>
      </trkpt>
      <trkpt lat="58.4082" lon="23.77629">
        <ele>23.242534</ele>
        <time>2020-10-07T20:03:30.446Z</time>
      </trkpt>
      <trkpt lat="58.40685" lon="23.77684">
        <ele>22.822909</ele>
        <time>2020-10-07T20:04:01.029Z</time>
      </trkpt>
      <trkpt lat="58.40611" lon="23.77699">
        <ele>22.635632</ele>
        <time>2020-10-07T20:04:17.365Z</time>
      </trkpt>
      <trkpt lat="58.4041" lon="23.77717">
        <ele>22.35536</ele>
        <time>2020-10-07T20:05:02.600Z</time>
      </trkpt>
      <trkpt lat="58.40276" lon="23.7775">
        <ele>22.43909</ele>
        <time>2020-10-07T20:05:34.886Z</time>
      </trkpt>
      <trkpt lat="58.39669" lon="23.77992">
        <ele>23.893569</ele>
        <time>2020-10-07T20:08:04.871Z</time>
      </trkpt>
      <trkpt lat="58.39556" lon="23.78031">
        <ele>24.080425</ele>
        <time>2020-10-07T20:08:31.925Z</time>
      </trkpt>
      <trkpt lat="58.39452" lon="23.7809">
        <ele>24.265893</ele>
        <time>2020-10-07T20:08:57.539Z</time>
      </trkpt>
      <trkpt lat="58.3908" lon="23.78442">
        <ele>25.464872</ele>
        <time>2020-10-07T20:10:39.574Z</time>
      </trkpt>
      <trkpt lat="58.39042" lon="23.78489">
        <ele>25.446613</ele>
        <time>2020-10-07T20:10:50.090Z</time>
      </trkpt>
      <trkpt lat="58.38979" lon="23.78589">
        <ele>25.413515</ele>
        <time>2020-10-07T20:11:08.620Z</time>
      </trkpt>
      <trkpt lat="58.38853" lon="23.7891">
        <ele>24.790376</ele>
        <time>2020-10-07T20:11:55.390Z</time>
      </trkpt>
      <trkpt lat="58.3882" lon="23.78963">
        <ele>24.372818</ele>
        <time>2020-10-07T20:12:04.637Z</time>
      </trkpt>
      <trkpt lat="58.38789" lon="23.78998">
        <ele>24.032669</ele>
        <time>2020-10-07T20:12:11.951Z</time>
      </trkpt>
      <trkpt lat="58.38767" lon="23.79024">
        <ele>23.779024</ele>
        <time>2020-10-07T20:12:17.181Z</time>
      </trkpt>
      <trkpt lat="58.38657" lon="23.7912">
        <ele>22.463513</ele>
        <time>2020-10-07T20:12:41.037Z</time>
      </trkpt>
      <trkpt lat="58.38639" lon="23.79136">
        <ele>22.211367</ele>
        <time>2020-10-07T20:12:44.717Z</time>
      </trkpt>
      <trkpt lat="58.38577" lon="23.79199">
        <ele>21.302778</ele>
        <time>2020-10-07T20:12:58.343Z</time>
      </trkpt>
      <trkpt lat="58.38519" lon="23.79276">
        <ele>20.566268</ele>
        <time>2020-10-07T20:13:12.633Z</time>
      </trkpt>
      <trkpt lat="58.38397" lon="23.79474">
        <ele>19.436862</ele>
        <time>2020-10-07T20:13:46.686Z</time>
      </trkpt>
      <trkpt lat="58.38345" lon="23.79574">
        <ele>18.864924</ele>
        <time>2020-10-07T20:14:02.200Z</time>
      </trkpt>
      <trkpt lat="58.38323" lon="23.79599">
        <ele>18.671264</ele>
        <time>2020-10-07T20:14:07.358Z</time>
      </trkpt>
      <trkpt lat="58.38285" lon="23.79617">
        <ele>18.367148</ele>
        <time>2020-10-07T20:14:15.442Z</time>
      </trkpt>
      <trkpt lat="58.38167" lon="23.79618">
        <ele>17.684799</ele>
        <time>2020-10-07T20:14:39.737Z</time>
      </trkpt>
      <trkpt lat="58.38089" lon="23.79633">
        <ele>17.284116</ele>
        <time>2020-10-07T20:14:56.944Z</time>
      </trkpt>
      <trkpt lat="58.37967" lon="23.79644">
        <ele>17.375211</ele>
        <time>2020-10-07T20:15:26.043Z</time>
      </trkpt>
      <trkpt lat="58.37932" lon="23.79667">
        <ele>17.431545</ele>
        <time>2020-10-07T20:15:35.081Z</time>
      </trkpt>
      <trkpt lat="58.3788" lon="23.79714">
        <ele>17.445526</ele>
        <time>2020-10-07T20:15:49.078Z</time>
      </trkpt>
      <trkpt lat="58.37805" lon="23.79754">
        <ele>17.295718</ele>
        <time>2020-10-07T20:16:07.293Z</time>
      </trkpt>
      <trkpt lat="58.3773" lon="23.79825">
        <ele>17.115368</ele>
        <time>2020-10-07T20:16:25.363Z</time>
      </trkpt>
      <trkpt lat="58.37675" lon="23.79863">
        <ele>16.736373</ele>
        <time>2020-10-07T20:16:37.286Z</time>
      </trkpt>
      <trkpt lat="58.37549" lon="23.79926">
        <ele>15.926091</ele>
        <time>2020-10-07T20:17:04.634Z</time>
      </trkpt>
      <trkpt lat="58.37521" lon="23.7994">
        <ele>15.838394</ele>
        <time>2020-10-07T20:17:11.189Z</time>
      </trkpt>
      <trkpt lat="58.37491" lon="23.79956">
        <ele>15.744158</ele>
        <time>2020-10-07T20:17:18.277Z</time>
      </trkpt>
      <trkpt lat="58.37428" lon="23.79991">
        <ele>15.547153</ele>
        <time>2020-10-07T20:17:32.865Z</time>
      </trkpt>
      <trkpt lat="58.37386" lon="23.80014">
        <ele>15.413305</ele>
        <time>2020-10-07T20:17:42.653Z</time>
      </trkpt>
      <trkpt lat="58.37365" lon="23.80022">
        <ele>15.32562</ele>
        <time>2020-10-07T20:17:47.516Z</time>
      </trkpt>
      <trkpt lat="58.37347" lon="23.80027">
        <ele>15.250879</ele>
        <time>2020-10-07T20:17:51.597Z</time>
      </trkpt>
      <trkpt lat="58.3732" lon="23.80029">
        <ele>15.141503</ele>
        <time>2020-10-07T20:17:57.607Z</time>
      </trkpt>
      <trkpt lat="58.37259" lon="23.8003">
        <ele>14.894997</ele>
        <time>2020-10-07T20:18:10.930Z</time>
      </trkpt>
      <trkpt lat="58.37235" lon="23.80031">
        <ele>14.799859</ele>
        <time>2020-10-07T20:18:15.881Z</time>
      </trkpt>
      <trkpt lat="58.37135" lon="23.80051">
        <ele>14.453264</ele>
        <time>2020-10-07T20:18:37.081Z</time>
      </trkpt>
      <trkpt lat="58.37063" lon="23.80079">
        <ele>14.214365</ele>
        <time>2020-10-07T20:18:53.741Z</time>
      </trkpt>
      <trkpt lat="58.36949" lon="23.80137">
        <ele>14.071949</ele>
        <time>2020-10-07T20:19:20.989Z</time>
      </trkpt>
      <trkpt lat="58.3689" lon="23.80138">
        <ele>14.043766</ele>
        <time>2020-10-07T20:19:34.629Z</time>
      </trkpt>
      <trkpt lat="58.36829" lon="23.80138">
        <ele>13.944116</ele>
        <time>2020-10-07T20:19:48.643Z</time>
      </trkpt>
      <trkpt lat="58.36775" lon="23.80163">
        <ele>13.772733</ele>
        <time>2020-10-07T20:20:01.040Z</time>
      </trkpt>
      <trkpt lat="58.36721" lon="23.80219">
        <ele>13.580971</ele>
        <time>2020-10-07T20:20:14.477Z</time>
      </trkpt>
      <trkpt lat="58.36554" lon="23.80455">
        <ele>12.775113</ele>
        <time>2020-10-07T20:20:59.814Z</time>
      </trkpt>
      <trkpt lat="58.36466" lon="23.8056">
        <ele>12.293851</ele>
        <time>2020-10-07T20:21:22.248Z</time>
      </trkpt>
      <trkpt lat="58.36417" lon="23.80639">
        <ele>11.992123</ele>
        <time>2020-10-07T20:21:36.022Z</time>
      </trkpt>
      <trkpt lat="58.36387" lon="23.80717">
        <ele>11.734996</ele>
        <time>2020-10-07T20:21:47.007Z</time>
      </trkpt>
      <trkpt lat="58.36385" lon="23.80725">
        <ele>11.708732</ele>
        <time>2020-10-07T20:21:48.024Z</time>
      </trkpt>
      <trkpt lat="58.36361" lon="23.80831">
        <ele>11.389273</ele>
        <time>2020-10-07T20:22:01.044Z</time>
      </trkpt>
      <trkpt lat="58.36344" lon="23.80954">
        <ele>11.036847</ele>
        <time>2020-10-07T20:22:15.290Z</time>
      </trkpt>
      <trkpt lat="58.36332" lon="23.81084">
        <ele>10.690792</ele>
        <time>2020-10-07T20:22:30.180Z</time>
      </trkpt>
      <trkpt lat="58.36322" lon="23.81297">
        <ele>10.14356</ele>
        <time>2020-10-07T20:22:54.320Z</time>
      </trkpt>
      <trkpt lat="58.36328" lon="23.81451">
        <ele>9.790486</ele>
        <time>2020-10-07T20:23:11.943Z</time>
      </trkpt>
      <trkpt lat="58.36371" lon="23.81843">
        <ele>8.857718</ele>
        <time>2020-10-07T20:23:57.736Z</time>
      </trkpt>
      <trkpt lat="58.36369" lon="23.82003">
        <ele>8.459613</ele>
        <time>2020-10-07T20:24:15.800Z</time>
      </trkpt>
      <trkpt lat="58.36354" lon="23.82091">
        <ele>8.113189</ele>
        <time>2020-10-07T20:24:26.127Z</time>
      </trkpt>
      <trkpt lat="58.3623" lon="23.82517">
        <ele>6.432995</ele>
        <time>2020-10-07T20:25:19.290Z</time>
      </trkpt>
      <trkpt lat="58.36218" lon="23.82574">
        <ele>6.242012</ele>
        <time>2020-10-07T20:25:26.275Z</time>
      </trkpt>
      <trkpt lat="58.36211" lon="23.82635">
        <ele>6.120344</ele>
        <time>2020-10-07T20:25:33.496Z</time>
      </trkpt>
      <trkpt lat="58.36212" lon="23.82766">
        <ele>6.295692</ele>
        <time>2020-10-07T20:25:49.619Z</time>
      </trkpt>
      <trkpt lat="58.3622" lon="23.82833">
        <ele>6.387966</ele>
        <time>2020-10-07T20:25:58.562Z</time>
      </trkpt>
      <trkpt lat="58.36281" lon="23.8312">
        <ele>6.989941</ele>
        <time>2020-10-07T20:26:40.576Z</time>
      </trkpt>
      <trkpt lat="58.36295" lon="23.83208">
        <ele>7.20726</ele>
        <time>2020-10-07T20:26:52.593Z</time>
      </trkpt>
      <trkpt lat="58.36299" lon="23.83263">
        <ele>7.338686</ele>
        <time>2020-10-07T20:26:59.532Z</time>
      </trkpt>
      <trkpt lat="58.36298" lon="23.83437">
        <ele>7.164086</ele>
        <time>2020-10-07T20:27:20.101Z</time>
      </trkpt>
      <trkpt lat="58.36294" lon="23.83535">
        <ele>7.038248</ele>
        <time>2020-10-07T20:27:31.377Z</time>
      </trkpt>
      <trkpt lat="58.36293" lon="23.83554">
        <ele>7.01397</ele>
        <time>2020-10-07T20:27:33.407Z</time>
      </trkpt>
      <trkpt lat="58.36272" lon="23.83664">
        <ele>6.873885</ele>
        <time>2020-10-07T20:27:46.926Z</time>
      </trkpt>
      <trkpt lat="58.36135" lon="23.84073">
        <ele>6.416937</ele>
        <time>2020-10-07T20:28:44.522Z</time>
      </trkpt>
      <trkpt lat="58.36113" lon="23.84122">
        <ele>6.369069</ele>
        <time>2020-10-07T20:28:52.212Z</time>
      </trkpt>
      <trkpt lat="58.36087" lon="23.84163">
        <ele>6.321203</ele>
        <time>2020-10-07T20:29:00.030Z</time>
      </trkpt>
      <trkpt lat="58.36042" lon="23.84207">
        <ele>6.297419</ele>
        <time>2020-10-07T20:29:11.615Z</time>
      </trkpt>
      <trkpt lat="58.3598" lon="23.8428">
        <ele>6.27901</ele>
        <time>2020-10-07T20:29:28.484Z</time>
      </trkpt>
      <trkpt lat="58.35958" lon="23.84311">
        <ele>6.27218</ele>
        <time>2020-10-07T20:29:34.839Z</time>
      </trkpt>
      <trkpt lat="58.35918" lon="23.84396">
        <ele>6.234705</ele>
        <time>2020-10-07T20:29:48.795Z</time>
      </trkpt>
      <trkpt lat="58.35849" lon="23.84626">
        <ele>6.05241</ele>
        <time>2020-10-07T20:30:20.420Z</time>
      </trkpt>
      <trkpt lat="58.35807" lon="23.84737">
        <ele>5.951994</ele>
        <time>2020-10-07T20:30:36.368Z</time>
      </trkpt>
      <trkpt lat="58.35753" lon="23.84832">
        <ele>5.846652</ele>
        <time>2020-10-07T20:30:52.875Z</time>
      </trkpt>
      <trkpt lat="58.35667" lon="23.8495">
        <ele>5.882841</ele>
        <time>2020-10-07T20:31:17.470Z</time>
      </trkpt>
      <trkpt lat="58.35584" lon="23.85064">
        <ele>6.112226</ele>
        <time>2020-10-07T20:31:42.471Z</time>
      </trkpt>
      <trkpt lat="58.35546" lon="23.85118">
        <ele>6.231807</ele>
        <time>2020-10-07T20:31:54.555Z</time>
      </trkpt>
      <trkpt lat="58.35537" lon="23.85131">
        <ele>6.263655</ele>
        <time>2020-10-07T20:31:57.274Z</time>
      </trkpt>
      <trkpt lat="58.35496" lon="23.85188">
        <ele>6.40684</ele>
        <time>2020-10-07T20:32:09.744Z</time>
      </trkpt>
      <trkpt lat="58.35494" lon="23.85191">
        <ele>6.414459</ele>
        <time>2020-10-07T20:32:10.494Z</time>
      </trkpt>
      <trkpt lat="58.35443" lon="23.85287">
        <ele>6.618914</ele>
        <time>2020-10-07T20:32:27.731Z</time>
      </trkpt>
      <trkpt lat="58.35422" lon="23.8533">
        <ele>6.685848</ele>
        <time>2020-10-07T20:32:34.965Z</time>
      </trkpt>
      <trkpt lat="58.35401" lon="23.85382">
        <ele>6.699821</ele>
        <time>2020-10-07T20:32:43.133Z</time>
      </trkpt>
      <trkpt lat="58.35368" lon="23.85493">
        <ele>6.726761</ele>
        <time>2020-10-07T20:32:58.546Z</time>
      </trkpt>
      <trkpt lat="58.3536" lon="23.8552">
        <ele>6.733254</ele>
        <time>2020-10-07T20:33:02.175Z</time>
      </trkpt>
      <trkpt lat="58.35175" lon="23.86234">
        <ele>7.229635</ele>
        <time>2020-10-07T20:34:40.770Z</time>
      </trkpt>
      <trkpt lat="58.35143" lon="23.86403">
        <ele>7.745877</ele>
        <time>2020-10-07T20:35:05.250Z</time>
      </trkpt>
      <trkpt lat="58.35098" lon="23.86739">
        <ele>8.307321</ele>
        <time>2020-10-07T20:35:51.978Z</time>
      </trkpt>
      <trkpt lat="58.35067" lon="23.87152">
        <ele>7.642822</ele>
        <time>2020-10-07T20:36:39.034Z</time>
      </trkpt>
      <trkpt lat="58.35066" lon="23.87383">
        <ele>7.030551</ele>
        <time>2020-10-07T20:37:04.574Z</time>
      </trkpt>
      <trkpt lat="58.35076" lon="23.87616">
        <ele>6.554772</ele>
        <time>2020-10-07T20:37:31.486Z</time>
      </trkpt>
      <trkpt lat="58.35079" lon="23.87671">
        <ele>6.557967</ele>
        <time>2020-10-07T20:37:38.089Z</time>
      </trkpt>
      <trkpt lat="58.35124" lon="23.88084">
        <ele>6.909268</ele>
        <time>2020-10-07T20:38:30.989Z</time>
      </trkpt>
      <trkpt lat="58.35139" lon="23.88193">
        <ele>7.12047</ele>
        <time>2020-10-07T20:38:45.803Z</time>
      </trkpt>
      <trkpt lat="58.3539" lon="23.89477">
        <ele>12.243013</ele>
        <time>2020-10-07T20:41:53.528Z</time>
      </trkpt>
      <trkpt lat="58.35445" lon="23.89747">
        <ele>13.516016</ele>
        <time>2020-10-07T20:42:34.091Z</time>
      </trkpt>
      <trkpt lat="58.35496" lon="23.89963">
        <ele>14.621926</ele>
        <time>2020-10-07T20:43:07.670Z</time>
      </trkpt>
      <trkpt lat="58.35587" lon="23.90486">
        <ele>17.211435</ele>
        <time>2020-10-07T20:44:25.327Z</time>
      </trkpt>
      <trkpt lat="58.35587" lon="23.90546">
        <ele>17.359949</ele>
        <time>2020-10-07T20:44:33.469Z</time>
      </trkpt>
      <trkpt lat="58.35578" lon="23.90587">
        <ele>17.466673</ele>
        <time>2020-10-07T20:44:39.490Z</time>
      </trkpt>
      <trkpt lat="58.3518" lon="23.911">
        <ele>19.801189</ele>
        <time>2020-10-07T20:46:39.268Z</time>
      </trkpt>
      <trkpt lat="58.35132" lon="23.91188">
        <ele>20.644014</ele>
        <time>2020-10-07T20:46:57.543Z</time>
      </trkpt>
      <trkpt lat="58.35038" lon="23.91308">
        <ele>22.168966</ele>
        <time>2020-10-07T20:47:30.941Z</time>
      </trkpt>
      <trkpt lat="58.34965" lon="23.91397">
        <ele>23.082146</ele>
        <time>2020-10-07T20:47:56.633Z</time>
      </trkpt>
      <trkpt lat="58.3491" lon="23.91471">
        <ele>23.788662</ele>
        <time>2020-10-07T20:48:15.013Z</time>
      </trkpt>
      <trkpt lat="58.34849" lon="23.91553">
        <ele>23.661824</ele>
        <time>2020-10-07T20:48:33.060Z</time>
      </trkpt>
      <trkpt lat="58.34734" lon="23.91728">
        <ele>22.0075</ele>
        <time>2020-10-07T20:49:01.341Z</time>
      </trkpt>
      <trkpt lat="58.3469" lon="23.91808">
        <ele>20.791128</ele>
        <time>2020-10-07T20:49:12.360Z</time>
      </trkpt>
      <trkpt lat="58.34675" lon="23.91842">
        <ele>20.317985</ele>
        <time>2020-10-07T20:49:16.571Z</time>
      </trkpt>
      <trkpt lat="58.34666" lon="23.91891">
        <ele>19.77599</ele>
        <time>2020-10-07T20:49:21.518Z</time>
      </trkpt>
      <trkpt lat="58.34658" lon="23.91944">
        <ele>19.204576</ele>
        <time>2020-10-07T20:49:26.828Z</time>
      </trkpt>
      <trkpt lat="58.34657" lon="23.92005">
        <ele>18.602794</ele>
        <time>2020-10-07T20:49:32.820Z</time>
      </trkpt>
      <trkpt lat="58.34663" lon="23.92211">
        <ele>17.753647</ele>
        <time>2020-10-07T20:49:54.595Z</time>
      </trkpt>
      <trkpt lat="58.34665" lon="23.92274">
        <ele>17.491636</ele>
        <time>2020-10-07T20:50:02.362Z</time>
      </trkpt>
      <trkpt lat="58.34681" lon="23.92624">
        <ele>16.959181</ele>
        <time>2020-10-07T20:50:45.054Z</time>
      </trkpt>
      <trkpt lat="58.34741" lon="23.93326">
        <ele>14.727549</ele>
        <time>2020-10-07T20:52:03.107Z</time>
      </trkpt>
      <trkpt lat="58.34747" lon="23.93398">
        <ele>14.72248</ele>
        <time>2020-10-07T20:52:11.747Z</time>
      </trkpt>
      <trkpt lat="58.34768" lon="23.9369">
        <ele>15.447315</ele>
        <time>2020-10-07T20:52:50.968Z</time>
      </trkpt>
      <trkpt lat="58.34775" lon="23.93904">
        <ele>17.056761</ele>
        <time>2020-10-07T20:53:23.802Z</time>
      </trkpt>
      <trkpt lat="58.34748" lon="23.94445">
        <ele>21.223508</ele>
        <time>2020-10-07T20:54:49.466Z</time>
      </trkpt>
      <trkpt lat="58.34708" lon="23.94695">
        <ele>22.012293</ele>
        <time>2020-10-07T20:55:24.179Z</time>
      </trkpt>
      <trkpt lat="58.34641" lon="23.94991">
        <ele>20.975856</ele>
        <time>2020-10-07T20:55:58.738Z</time>
      </trkpt>
      <trkpt lat="58.34605" lon="23.95099">
        <ele>20.932005</ele>
        <time>2020-10-07T20:56:12.724Z</time>
      </trkpt>
      <trkpt lat="58.34432" lon="23.95527">
        <ele>22.247683</ele>
        <time>2020-10-07T20:57:25.569Z</time>
      </trkpt>
      <trkpt lat="58.34418" lon="23.95571">
        <ele>22.441358</ele>
        <time>2020-10-07T20:57:33.262Z</time>
      </trkpt>
      <trkpt lat="58.344" lon="23.95623">
        <ele>22.555504</ele>
        <time>2020-10-07T20:57:42.032Z</time>
      </trkpt>
      <trkpt lat="58.34385" lon="23.95689">
        <ele>22.68498</ele>
        <time>2020-10-07T20:57:52.133Z</time>
      </trkpt>
      <trkpt lat="58.34354" lon="23.95877">
        <ele>23.035727</ele>
        <time>2020-10-07T20:58:17.144Z</time>
      </trkpt>
      <trkpt lat="58.34327" lon="23.95983">
        <ele>22.47167</ele>
        <time>2020-10-07T20:58:30.139Z</time>
      </trkpt>
      <trkpt lat="58.34224" lon="23.9625">
        <ele>20.607499</ele>
        <time>2020-10-07T20:59:03.786Z</time>
      </trkpt>
      <trkpt lat="58.3421" lon="23.96298">
        <ele>20.316207</ele>
        <time>2020-10-07T20:59:09.423Z</time>
      </trkpt>
      <trkpt lat="58.34173" lon="23.9643">
        <ele>19.511278</ele>
        <time>2020-10-07T20:59:25.801Z</time>
      </trkpt>
      <trkpt lat="58.34134" lon="23.96533">
        <ele>19.1792</ele>
        <time>2020-10-07T20:59:40.115Z</time>
      </trkpt>
      <trkpt lat="58.33983" lon="23.96936">
        <ele>19.002859</ele>
        <time>2020-10-07T21:00:39.538Z</time>
      </trkpt>
      <trkpt lat="58.3395" lon="23.97116">
        <ele>19.328506</ele>
        <time>2020-10-07T21:01:04.661Z</time>
      </trkpt>
      <trkpt lat="58.33942" lon="23.97218">
        <ele>19.67894</ele>
        <time>2020-10-07T21:01:18.464Z</time>
      </trkpt>
      <trkpt lat="58.33942" lon="23.97382">
        <ele>20.243384</ele>
        <time>2020-10-07T21:01:41.186Z</time>
      </trkpt>
      <trkpt lat="58.33929" lon="23.97467">
        <ele>20.613638</ele>
        <time>2020-10-07T21:01:53.614Z</time>
      </trkpt>
      <trkpt lat="58.33915" lon="23.9752">
        <ele>20.868391</ele>
        <time>2020-10-07T21:02:02.606Z</time>
      </trkpt>
      <trkpt lat="58.33899" lon="23.97729">
        <ele>21.656405</ele>
        <time>2020-10-07T21:02:31.299Z</time>
      </trkpt>
      <trkpt lat="58.33876" lon="23.97807">
        <ele>21.61539</ele>
        <time>2020-10-07T21:02:42.837Z</time>
      </trkpt>
      <trkpt lat="58.33868" lon="23.97838">
        <ele>21.598942</ele>
        <time>2020-10-07T21:02:47.049Z</time>
      </trkpt>
      <trkpt lat="58.33836" lon="23.97986">
        <ele>21.524588</ele>
        <time>2020-10-07T21:03:05.997Z</time>
      </trkpt>
      <trkpt lat="58.33791" lon="23.98324">
        <ele>20.177754</ele>
        <time>2020-10-07T21:03:43.350Z</time>
      </trkpt>
      <trkpt lat="58.33757" lon="23.98529">
        <ele>19.424731</ele>
        <time>2020-10-07T21:04:07.235Z</time>
      </trkpt>
      <trkpt lat="58.33711" lon="23.98666">
        <ele>18.873315</ele>
        <time>2020-10-07T21:04:25.523Z</time>
      </trkpt>
      <trkpt lat="58.3367" lon="23.98841">
        <ele>18.119426</ele>
        <time>2020-10-07T21:04:46.795Z</time>
      </trkpt>
      <trkpt lat="58.33648" lon="23.98971">
        <ele>17.586604</ele>
        <time>2020-10-07T21:05:01.378Z</time>
      </trkpt>
      <trkpt lat="58.33628" lon="23.99048">
        <ele>17.270216</ele>
        <time>2020-10-07T21:05:10.717Z</time>
      </trkpt>
      <trkpt lat="58.33614" lon="23.99079">
        <ele>17.121871</ele>
        <time>2020-10-07T21:05:15.191Z</time>
      </trkpt>
      <trkpt lat="58.33575" lon="23.9916">
        <ele>16.727427</ele>
        <time>2020-10-07T21:05:27.299Z</time>
      </trkpt>
      <trkpt lat="58.33569" lon="23.99174">
        <ele>16.661278</ele>
        <time>2020-10-07T21:05:29.350Z</time>
      </trkpt>
      <trkpt lat="58.33536" lon="23.99285">
        <ele>16.280688</ele>
        <time>2020-10-07T21:05:43.559Z</time>
      </trkpt>
      <trkpt lat="58.33516" lon="23.99354">
        <ele>16.203303</ele>
        <time>2020-10-07T21:05:52.706Z</time>
      </trkpt>
      <trkpt lat="58.33485" lon="23.99401">
        <ele>16.132057</ele>
        <time>2020-10-07T21:06:01.355Z</time>
      </trkpt>
      <trkpt lat="58.33451" lon="23.99448">
        <ele>16.054549</ele>
        <time>2020-10-07T21:06:10.994Z</time>
      </trkpt>
      <trkpt lat="58.33451" lon="23.99499">
        <ele>16.004769</ele>
        <time>2020-10-07T21:06:17.285Z</time>
      </trkpt>
      <trkpt lat="58.33453" lon="23.9966">
        <ele>16.338096</ele>
        <time>2020-10-07T21:06:37.791Z</time>
      </trkpt>
      <trkpt lat="58.33446" lon="23.99742">
        <ele>16.564856</ele>
        <time>2020-10-07T21:06:48.972Z</time>
      </trkpt>
      <trkpt lat="58.33438" lon="23.99795">
        <ele>16.712028</ele>
        <time>2020-10-07T21:06:56.480Z</time>
      </trkpt>
      <trkpt lat="58.33434" lon="23.99819">
        <ele>16.780887</ele>
        <time>2020-10-07T21:07:00.055Z</time>
      </trkpt>
      <trkpt lat="58.33431" lon="23.99843">
        <ele>16.847375</ele>
        <time>2020-10-07T21:07:03.517Z</time>
      </trkpt>
      <trkpt lat="58.33412" lon="23.99954">
        <ele>17.282141</ele>
        <time>2020-10-07T21:07:19.788Z</time>
      </trkpt>
      <trkpt lat="58.33393" lon="24.00069">
        <ele>17.762147</ele>
        <time>2020-10-07T21:07:36.541Z</time>
      </trkpt>
      <trkpt lat="58.3338" lon="24.00151">
        <ele>18.102816</ele>
        <time>2020-10-07T21:07:48.307Z</time>
      </trkpt>
      <trkpt lat="58.33351" lon="24.00324">
        <ele>18.592005</ele>
        <time>2020-10-07T21:08:12.606Z</time>
      </trkpt>
      <trkpt lat="58.33332" lon="24.00451">
        <ele>18.89767</ele>
        <time>2020-10-07T21:08:29.617Z</time>
      </trkpt>
      <trkpt lat="58.33301" lon="24.0062">
        <ele>19.215795</ele>
        <time>2020-10-07T21:08:52.975Z</time>
      </trkpt>
      <trkpt lat="58.33195" lon="24.00926">
        <ele>19.434524</ele>
        <time>2020-10-07T21:09:39.185Z</time>
      </trkpt>
      <trkpt lat="58.33089" lon="24.01184">
        <ele>19.059819</ele>
        <time>2020-10-07T21:10:16.830Z</time>
      </trkpt>
      <trkpt lat="58.32976" lon="24.01434">
        <ele>18.938951</ele>
        <time>2020-10-07T21:10:55.147Z</time>
      </trkpt>
      <trkpt lat="58.32951" lon="24.01481">
        <ele>19.097071</ele>
        <time>2020-10-07T21:11:04.041Z</time>
      </trkpt>
      <trkpt lat="58.32938" lon="24.01505">
        <ele>19.177378</ele>
        <time>2020-10-07T21:11:08.714Z</time>
      </trkpt>
      <trkpt lat="58.32903" lon="24.01572">
        <ele>19.404944</ele>
        <time>2020-10-07T21:11:22.087Z</time>
      </trkpt>
      <trkpt lat="58.32855" lon="24.0166">
        <ele>19.751949</ele>
        <time>2020-10-07T21:11:40.486Z</time>
      </trkpt>
      <trkpt lat="58.32687" lon="24.01898">
        <ele>20.320274</ele>
        <time>2020-10-07T21:12:32.507Z</time>
      </trkpt>
      <trkpt lat="58.32606" lon="24.02007">
        <ele>20.065993</ele>
        <time>2020-10-07T21:12:53.143Z</time>
      </trkpt>
      <trkpt lat="58.32569" lon="24.02058">
        <ele>19.932967</ele>
        <time>2020-10-07T21:13:02.579Z</time>
      </trkpt>
      <trkpt lat="58.32468" lon="24.02206">
        <ele>19.556755</ele>
        <time>2020-10-07T21:13:30.701Z</time>
      </trkpt>
      <trkpt lat="58.32424" lon="24.02284">
        <ele>19.82275</ele>
        <time>2020-10-07T21:13:45.880Z</time>
      </trkpt>
      <trkpt lat="58.32147" lon="24.02771">
        <ele>22.461035</ele>
        <time>2020-10-07T21:15:25.541Z</time>
      </trkpt>
      <trkpt lat="58.31982" lon="24.0308">
        <ele>23.317658</ele>
        <time>2020-10-07T21:16:21.908Z</time>
      </trkpt>
      <trkpt lat="58.31837" lon="24.03341">
        <ele>23.834541</ele>
        <time>2020-10-07T21:17:10.722Z</time>
      </trkpt>
      <trkpt lat="58.31627" lon="24.03785">
        <ele>23.815107</ele>
        <time>2020-10-07T21:18:24.971Z</time>
      </trkpt>
      <trkpt lat="58.31292" lon="24.04313">
        <ele>21.640084</ele>
        <time>2020-10-07T21:19:57.576Z</time>
      </trkpt>
      <trkpt lat="58.30881" lon="24.04917">
        <ele>17.765395</ele>
        <time>2020-10-07T21:21:44.976Z</time>
      </trkpt>
      <trkpt lat="58.30832" lon="24.04999">
        <ele>17.578256</ele>
        <time>2020-10-07T21:21:59.714Z</time>
      </trkpt>
      <trkpt lat="58.30623" lon="24.05342">
        <ele>18.056581</ele>
        <time>2020-10-07T21:23:06.535Z</time>
      </trkpt>
      <trkpt lat="58.3042" lon="24.05692">
        <ele>18.645979</ele>
        <time>2020-10-07T21:24:12.045Z</time>
      </trkpt>
      <trkpt lat="58.30294" lon="24.05877">
        <ele>19.317868</ele>
        <time>2020-10-07T21:24:52.187Z</time>
      </trkpt>
      <trkpt lat="58.30143" lon="24.06093">
        <ele>19.727332</ele>
        <time>2020-10-07T21:25:38.656Z</time>
      </trkpt>
      <trkpt lat="58.29683" lon="24.06535">
        <ele>17.75171</ele>
        <time>2020-10-07T21:27:30.280Z</time>
      </trkpt>
      <trkpt lat="58.29557" lon="24.06677">
        <ele>17.696858</ele>
        <time>2020-10-07T21:28:02.920Z</time>
      </trkpt>
      <trkpt lat="58.29531" lon="24.06727">
        <ele>17.766688</ele>
        <time>2020-10-07T21:28:12.644Z</time>
      </trkpt>
      <trkpt lat="58.29499" lon="24.06806">
        <ele>18.323228</ele>
        <time>2020-10-07T21:28:26.963Z</time>
      </trkpt>
      <trkpt lat="58.29434" lon="24.06962">
        <ele>19.436087</ele>
        <time>2020-10-07T21:28:56.606Z</time>
      </trkpt>
      <trkpt lat="58.29391" lon="24.07065">
        <ele>19.818348</ele>
        <time>2020-10-07T21:29:15.502Z</time>
      </trkpt>
      <trkpt lat="58.29375" lon="24.07097">
        <ele>19.916481</ele>
        <time>2020-10-07T21:29:21.641Z</time>
      </trkpt>
      <trkpt lat="58.29361" lon="24.07116">
        <ele>19.987298</ele>
        <time>2020-10-07T21:29:26.101Z</time>
      </trkpt>
      <trkpt lat="58.29321" lon="24.07168">
        <ele>20.186331</ele>
        <time>2020-10-07T21:29:37.327Z</time>
      </trkpt>
      <trkpt lat="58.29222" lon="24.07261">
        <ele>20.174049</ele>
        <time>2020-10-07T21:30:01.493Z</time>
      </trkpt>
      <trkpt lat="58.29037" lon="24.07363">
        <ele>19.809632</ele>
        <time>2020-10-07T21:30:45.096Z</time>
      </trkpt>
      <trkpt lat="58.29002" lon="24.07388">
        <ele>19.755482</ele>
        <time>2020-10-07T21:30:53.680Z</time>
      </trkpt>
      <trkpt lat="58.28953" lon="24.07423">
        <ele>19.680827</ele>
        <time>2020-10-07T21:31:05.498Z</time>
      </trkpt>
      <trkpt lat="58.28882" lon="24.07472">
        <ele>19.514822</ele>
        <time>2020-10-07T21:31:22.533Z</time>
      </trkpt>
      <trkpt lat="58.28811" lon="24.07532">
        <ele>19.338817</ele>
        <time>2020-10-07T21:31:40.045Z</time>
      </trkpt>
      <trkpt lat="58.28742" lon="24.07621">
        <ele>19.047337</ele>
        <time>2020-10-07T21:31:58.200Z</time>
      </trkpt>
      <trkpt lat="58.28704" lon="24.07683">
        <ele>18.836469</ele>
        <time>2020-10-07T21:32:08.987Z</time>
      </trkpt>
      <trkpt lat="58.28638" lon="24.07771">
        <ele>18.501319</ele>
        <time>2020-10-07T21:32:26.516Z</time>
      </trkpt>
      <trkpt lat="58.28599" lon="24.07814">
        <ele>18.386775</ele>
        <time>2020-10-07T21:32:36.579Z</time>
      </trkpt>
      <trkpt lat="58.2856" lon="24.07858">
        <ele>18.273654</ele>
        <time>2020-10-07T21:32:46.475Z</time>
      </trkpt>
      <trkpt lat="58.28476" lon="24.07951">
        <ele>18.053266</ele>
        <time>2020-10-07T21:33:08.235Z</time>
      </trkpt>
      <trkpt lat="58.28382" lon="24.08063">
        <ele>18.001634</ele>
        <time>2020-10-07T21:33:34.280Z</time>
      </trkpt>
      <trkpt lat="58.28301" lon="24.08158">
        <ele>17.856186</ele>
        <time>2020-10-07T21:33:56.034Z</time>
      </trkpt>
      <trkpt lat="58.28275" lon="24.08196">
        <ele>17.751866</ele>
        <time>2020-10-07T21:34:03.388Z</time>
      </trkpt>
      <trkpt lat="58.28148" lon="24.08433">
        <ele>16.97837</ele>
        <time>2020-10-07T21:34:41.810Z</time>
      </trkpt>
      <trkpt lat="58.2811" lon="24.08461">
        <ele>16.721427</ele>
        <time>2020-10-07T21:34:50.443Z</time>
      </trkpt>
      <trkpt lat="58.27843" lon="24.08565">
        <ele>15.052712</ele>
        <time>2020-10-07T21:35:47.353Z</time>
      </trkpt>
      <trkpt lat="58.27781" lon="24.08621">
        <ele>15.10812</ele>
        <time>2020-10-07T21:36:02.998Z</time>
      </trkpt>
      <trkpt lat="58.27734" lon="24.0868">
        <ele>15.153398</ele>
        <time>2020-10-07T21:36:16.648Z</time>
      </trkpt>
      <trkpt lat="58.27574" lon="24.08957">
        <ele>16.463913</ele>
        <time>2020-10-07T21:37:13.335Z</time>
      </trkpt>
      <trkpt lat="58.27547" lon="24.09043">
        <ele>16.850947</ele>
        <time>2020-10-07T21:37:26.736Z</time>
      </trkpt>
      <trkpt lat="58.27523" lon="24.09141">
        <ele>17.274226</ele>
        <time>2020-10-07T21:37:41.446Z</time>
      </trkpt>
      <trkpt lat="58.27494" lon="24.09211">
        <ele>17.617137</ele>
        <time>2020-10-07T21:37:53.219Z</time>
      </trkpt>
      <trkpt lat="58.27363" lon="24.09463">
        <ele>20.004795</ele>
        <time>2020-10-07T21:38:46.730Z</time>
      </trkpt>
      <trkpt lat="58.27307" lon="24.09593">
        <ele>21.06935</ele>
        <time>2020-10-07T21:39:12.941Z</time>
      </trkpt>
      <trkpt lat="58.2727" lon="24.09674">
        <ele>21.741251</ele>
        <time>2020-10-07T21:39:29.072Z</time>
      </trkpt>
      <trkpt lat="58.27257" lon="24.09702">
        <ele>21.971625</ele>
        <time>2020-10-07T21:39:34.371Z</time>
      </trkpt>
      <trkpt lat="58.27215" lon="24.09764">
        <ele>22.239289</ele>
        <time>2020-10-07T21:39:48.196Z</time>
      </trkpt>
      <trkpt lat="58.2706" lon="24.09955">
        <ele>21.446244</ele>
        <time>2020-10-07T21:40:27.564Z</time>
      </trkpt>
      <trkpt lat="58.26883" lon="24.1019">
        <ele>19.15716</ele>
        <time>2020-10-07T21:41:10.970Z</time>
      </trkpt>
      <trkpt lat="58.26643" lon="24.10534">
        <ele>15.263326</ele>
        <time>2020-10-07T21:42:09.393Z</time>
      </trkpt>
      <trkpt lat="58.26612" lon="24.10587">
        <ele>15.074804</ele>
        <time>2020-10-07T21:42:17.951Z</time>
      </trkpt>
      <trkpt lat="58.26574" lon="24.10673">
        <ele>14.809624</ele>
        <time>2020-10-07T21:42:30.593Z</time>
      </trkpt>
      <trkpt lat="58.26557" lon="24.10715">
        <ele>14.684209</ele>
        <time>2020-10-07T21:42:36.835Z</time>
      </trkpt>
      <trkpt lat="58.26528" lon="24.10814">
        <ele>14.524548</ele>
        <time>2020-10-07T21:42:50.864Z</time>
      </trkpt>
      <trkpt lat="58.26519" lon="24.10858">
        <ele>14.608031</ele>
        <time>2020-10-07T21:42:56.826Z</time>
      </trkpt>
      <trkpt lat="58.26484" lon="24.11071">
        <ele>15.009789</ele>
        <time>2020-10-07T21:43:26.685Z</time>
      </trkpt>
      <trkpt lat="58.26463" lon="24.11227">
        <ele>15.140754</ele>
        <time>2020-10-07T21:43:47.026Z</time>
      </trkpt>
      <trkpt lat="58.26461" lon="24.11247">
        <ele>15.149403</ele>
        <time>2020-10-07T21:43:49.791Z</time>
      </trkpt>
      <trkpt lat="58.26463" lon="24.11315">
        <ele>15.179035</ele>
        <time>2020-10-07T21:43:58.129Z</time>
      </trkpt>
      <trkpt lat="58.26463" lon="24.11319">
        <ele>15.180946</ele>
        <time>2020-10-07T21:43:58.546Z</time>
      </trkpt>
      <trkpt lat="58.26473" lon="24.11507">
        <ele>15.257048</ele>
        <time>2020-10-07T21:44:21.446Z</time>
      </trkpt>
      <trkpt lat="58.26495" lon="24.11671">
        <ele>15.312868</ele>
        <time>2020-10-07T21:44:42.136Z</time>
      </trkpt>
      <trkpt lat="58.26529" lon="24.11985">
        <ele>15.520366</ele>
        <time>2020-10-07T21:45:22.799Z</time>
      </trkpt>
      <trkpt lat="58.26562" lon="24.12077">
        <ele>15.613114</ele>
        <time>2020-10-07T21:45:36.779Z</time>
      </trkpt>
      <trkpt lat="58.2658" lon="24.1211">
        <ele>15.608504</ele>
        <time>2020-10-07T21:45:42.676Z</time>
      </trkpt>
      <trkpt lat="58.26598" lon="24.12134">
        <ele>15.553725</ele>
        <time>2020-10-07T21:45:47.659Z</time>
      </trkpt>
      <trkpt lat="58.2662" lon="24.12146">
        <ele>15.497877</ele>
        <time>2020-10-07T21:45:52.747Z</time>
      </trkpt>
      <trkpt lat="58.26707" lon="24.12178">
        <ele>15.276649</ele>
        <time>2020-10-07T21:46:12.181Z</time>
      </trkpt>
      <trkpt lat="58.26774" lon="24.12208">
        <ele>15.066865</ele>
        <time>2020-10-07T21:46:27.539Z</time>
      </trkpt>
      <trkpt lat="58.26818" lon="24.12227">
        <ele>14.904005</ele>
        <time>2020-10-07T21:46:37.433Z</time>
      </trkpt>
      <trkpt lat="58.26926" lon="24.12266">
        <ele>14.523641</ele>
        <time>2020-10-07T21:47:01.429Z</time>
      </trkpt>
      <trkpt lat="58.26986" lon="24.12287">
        <ele>14.404587</ele>
        <time>2020-10-07T21:47:14.773Z</time>
      </trkpt>
      <trkpt lat="58.27176" lon="24.12356">
        <ele>14.499887</ele>
        <time>2020-10-07T21:47:59.045Z</time>
      </trkpt>
      <trkpt lat="58.27646" lon="24.12557">
        <ele>16.756469</ele>
        <time>2020-10-07T21:50:00.844Z</time>
      </trkpt>
      <trkpt lat="58.27722" lon="24.12605">
        <ele>17.488701</ele>
        <time>2020-10-07T21:50:22.476Z</time>
      </trkpt>
      <trkpt lat="58.27783" lon="24.12664">
        <ele>18.111013</ele>
        <time>2020-10-07T21:50:41.244Z</time>
      </trkpt>
      <trkpt lat="58.28174" lon="24.1309">
        <ele>22.349029</ele>
        <time>2020-10-07T21:52:44.579Z</time>
      </trkpt>
      <trkpt lat="58.28383" lon="24.134">
        <ele>22.667236</ele>
        <time>2020-10-07T21:53:46.460Z</time>
      </trkpt>
      <trkpt lat="58.28441" lon="24.13511">
        <ele>22.125618</ele>
        <time>2020-10-07T21:54:03.480Z</time>
      </trkpt>
      <trkpt lat="58.28465" lon="24.1356">
        <ele>21.864599</ele>
        <time>2020-10-07T21:54:10.747Z</time>
      </trkpt>
      <trkpt lat="58.28559" lon="24.13789">
        <ele>21.059459</ele>
        <time>2020-10-07T21:54:42.216Z</time>
      </trkpt>
      <trkpt lat="58.28592" lon="24.13917">
        <ele>20.801882</ele>
        <time>2020-10-07T21:54:59.382Z</time>
      </trkpt>
      <trkpt lat="58.28669" lon="24.14297">
        <ele>21.122005</ele>
        <time>2020-10-07T21:55:51.806Z</time>
      </trkpt>
      <trkpt lat="58.28704" lon="24.14674">
        <ele>20.758276</ele>
        <time>2020-10-07T21:56:38.485Z</time>
      </trkpt>
      <trkpt lat="58.28723" lon="24.14771">
        <ele>20.141073</ele>
        <time>2020-10-07T21:56:49.615Z</time>
      </trkpt>
      <trkpt lat="58.28759" lon="24.14907">
        <ele>19.237269</ele>
        <time>2020-10-07T21:57:04.838Z</time>
      </trkpt>
      <trkpt lat="58.28786" lon="24.14977">
        <ele>18.555338</ele>
        <time>2020-10-07T21:57:13.411Z</time>
      </trkpt>
      <trkpt lat="58.28823" lon="24.1505">
        <ele>17.677864</ele>
        <time>2020-10-07T21:57:23.378Z</time>
      </trkpt>
      <trkpt lat="58.28844" lon="24.15085">
        <ele>17.216489</ele>
        <time>2020-10-07T21:57:28.670Z</time>
      </trkpt>
      <trkpt lat="58.28888" lon="24.1515">
        <ele>16.30731</ele>
        <time>2020-10-07T21:57:39.262Z</time>
      </trkpt>
      <trkpt lat="58.28937" lon="24.15207">
        <ele>15.70344</ele>
        <time>2020-10-07T21:57:50.584Z</time>
      </trkpt>
      <trkpt lat="58.29179" lon="24.15367">
        <ele>13.760857</ele>
        <time>2020-10-07T21:58:44.290Z</time>
      </trkpt>
      <trkpt lat="58.29356" lon="24.15513">
        <ele>12.659365</ele>
        <time>2020-10-07T21:59:25.570Z</time>
      </trkpt>
      <trkpt lat="58.29624" lon="24.1584">
        <ele>11.07928</ele>
        <time>2020-10-07T22:00:32.980Z</time>
      </trkpt>
      <trkpt lat="58.29875" lon="24.16225">
        <ele>11.386265</ele>
        <time>2020-10-07T22:01:50.746Z</time>
      </trkpt>
      <trkpt lat="58.30131" lon="24.17104">
        <ele>12.277221</ele>
        <time>2020-10-07T22:03:57.538Z</time>
      </trkpt>
      <trkpt lat="58.30269" lon="24.17607">
        <ele>12.19014</ele>
        <time>2020-10-07T22:05:05.451Z</time>
      </trkpt>
      <trkpt lat="58.30297" lon="24.17708">
        <ele>12.653671</ele>
        <time>2020-10-07T22:05:20.029Z</time>
      </trkpt>
      <trkpt lat="58.30393" lon="24.18045">
        <ele>15.119817</ele>
        <time>2020-10-07T22:06:17.940Z</time>
      </trkpt>
      <trkpt lat="58.30409" lon="24.18115">
        <ele>15.744808</ele>
        <time>2020-10-07T22:06:30.385Z</time>
      </trkpt>
      <trkpt lat="58.30427" lon="24.18217">
        <ele>16.629591</ele>
        <time>2020-10-07T22:06:47.477Z</time>
      </trkpt>
      <trkpt lat="58.30436" lon="24.18322">
        <ele>17.157527</ele>
        <time>2020-10-07T22:07:03.958Z</time>
      </trkpt>
      <trkpt lat="58.30471" lon="24.19302">
        <ele>20.237362</ele>
        <time>2020-10-07T22:09:14.861Z</time>
      </trkpt>
      <trkpt lat="58.30445" lon="24.20652">
        <ele>22.521346</ele>
        <time>2020-10-07T22:12:08.529Z</time>
      </trkpt>
      <trkpt lat="58.30378" lon="24.21649">
        <ele>24.557116</ele>
        <time>2020-10-07T22:14:19.724Z</time>
      </trkpt>
      <trkpt lat="58.30303" lon="24.22479">
        <ele>25.411015</ele>
        <time>2020-10-07T22:16:06.378Z</time>
      </trkpt>
      <trkpt lat="58.30253" lon="24.23133">
        <ele>25.06821</ele>
        <time>2020-10-07T22:17:24.738Z</time>
      </trkpt>
      <trkpt lat="58.30186" lon="24.23602">
        <ele>25.45893</ele>
        <time>2020-10-07T22:18:26.214Z</time>
      </trkpt>
      <trkpt lat="58.3011" lon="24.24005">
        <ele>26.030544</ele>
        <time>2020-10-07T22:19:21.509Z</time>
      </trkpt>
      <trkpt lat="58.29951" lon="24.24583">
        <ele>24.939835</ele>
        <time>2020-10-07T22:20:36.940Z</time>
      </trkpt>
      <trkpt lat="58.29936" lon="24.24651">
        <ele>24.678859</ele>
        <time>2020-10-07T22:20:45.244Z</time>
      </trkpt>
      <trkpt lat="58.29929" lon="24.24706">
        <ele>24.438754</ele>
        <time>2020-10-07T22:20:51.525Z</time>
      </trkpt>
      <trkpt lat="58.29925" lon="24.24767">
        <ele>24.18147</ele>
        <time>2020-10-07T22:20:58.186Z</time>
      </trkpt>
      <trkpt lat="58.29927" lon="24.24837">
        <ele>23.883243</ele>
        <time>2020-10-07T22:21:05.791Z</time>
      </trkpt>
      <trkpt lat="58.29936" lon="24.24954">
        <ele>23.391796</ele>
        <time>2020-10-07T22:21:18.052Z</time>
      </trkpt>
      <trkpt lat="58.29952" lon="24.25044">
        <ele>23.06538</ele>
        <time>2020-10-07T22:21:28.275Z</time>
      </trkpt>
      <trkpt lat="58.29973" lon="24.25112">
        <ele>22.794896</ele>
        <time>2020-10-07T22:21:37.011Z</time>
      </trkpt>
      <trkpt lat="58.29989" lon="24.25145">
        <ele>22.642383</ele>
        <time>2020-10-07T22:21:41.798Z</time>
      </trkpt>
      <trkpt lat="58.30013" lon="24.25185">
        <ele>22.431774</ele>
        <time>2020-10-07T22:21:48.990Z</time>
      </trkpt>
      <trkpt lat="58.30039" lon="24.25221">
        <ele>22.278606</ele>
        <time>2020-10-07T22:21:56.196Z</time>
      </trkpt>
      <trkpt lat="58.30088" lon="24.25268">
        <ele>22.411402</ele>
        <time>2020-10-07T22:22:09.135Z</time>
      </trkpt>
      <trkpt lat="58.30155" lon="24.25316">
        <ele>22.584376</ele>
        <time>2020-10-07T22:22:27.180Z</time>
      </trkpt>
      <trkpt lat="58.30393" lon="24.25441">
        <ele>23.21156</ele>
        <time>2020-10-07T22:23:27.049Z</time>
      </trkpt>
      <trkpt lat="58.30473" lon="24.25475">
        <ele>23.45867</ele>
        <time>2020-10-07T22:23:46.869Z</time>
      </trkpt>
      <trkpt lat="58.30893" lon="24.25615">
        <ele>24.998103</ele>
        <time>2020-10-07T22:25:32.142Z</time>
      </trkpt>
      <trkpt lat="58.31164" lon="24.25609">
        <ele>25.857902</ele>
        <time>2020-10-07T22:26:38.823Z</time>
      </trkpt>
      <trkpt lat="58.31273" lon="24.25596">
        <ele>26.037714</ele>
        <time>2020-10-07T22:27:04.545Z</time>
      </trkpt>
      <trkpt lat="58.31908" lon="24.2548">
        <ele>24.89409</ele>
        <time>2020-10-07T22:29:29.140Z</time>
      </trkpt>
      <trkpt lat="58.32075" lon="24.25466">
        <ele>23.25411</ele>
        <time>2020-10-07T22:30:03.449Z</time>
      </trkpt>
      <trkpt lat="58.32102" lon="24.25462">
        <ele>22.870177</ele>
        <time>2020-10-07T22:30:08.638Z</time>
      </trkpt>
      <trkpt lat="58.32183" lon="24.2546">
        <ele>21.55323</ele>
        <time>2020-10-07T22:30:23.596Z</time>
      </trkpt>
      <trkpt lat="58.32265" lon="24.25462">
        <ele>19.811311</ele>
        <time>2020-10-07T22:30:38.313Z</time>
      </trkpt>
      <trkpt lat="58.32325" lon="24.25475">
        <ele>18.530369</ele>
        <time>2020-10-07T22:30:49.167Z</time>
      </trkpt>
      <trkpt lat="58.32545" lon="24.25551">
        <ele>15.182348</ele>
        <time>2020-10-07T22:31:32.305Z</time>
      </trkpt>
      <trkpt lat="58.32717" lon="24.25563">
        <ele>13.473052</ele>
        <time>2020-10-07T22:32:07.362Z</time>
      </trkpt>
      <trkpt lat="58.32803" lon="24.25579">
        <ele>12.895129</ele>
        <time>2020-10-07T22:32:25.575Z</time>
      </trkpt>
      <trkpt lat="58.32862" lon="24.256">
        <ele>12.496537</ele>
        <time>2020-10-07T22:32:38.473Z</time>
      </trkpt>
      <trkpt lat="58.32909" lon="24.25622">
        <ele>12.357109</ele>
        <time>2020-10-07T22:32:48.905Z</time>
      </trkpt>
      <trkpt lat="58.32925" lon="24.25633">
        <ele>12.326771</ele>
        <time>2020-10-07T22:32:52.812Z</time>
      </trkpt>
      <trkpt lat="58.3294" lon="24.25637">
        <ele>12.301025</ele>
        <time>2020-10-07T22:32:56.141Z</time>
      </trkpt>
      <trkpt lat="58.32954" lon="24.25641">
        <ele>12.27632</ele>
        <time>2020-10-07T22:32:59.392Z</time>
      </trkpt>
      <trkpt lat="58.33161" lon="24.25722">
        <ele>11.975753</ele>
        <time>2020-10-07T22:33:47.947Z</time>
      </trkpt>
      <trkpt lat="58.33356" lon="24.25788">
        <ele>11.806134</ele>
        <time>2020-10-07T22:34:32.707Z</time>
      </trkpt>
      <trkpt lat="58.3337" lon="24.2579">
        <ele>11.796779</ele>
        <time>2020-10-07T22:34:35.733Z</time>
      </trkpt>
      <trkpt lat="58.33378" lon="24.25791">
        <ele>11.79054</ele>
        <time>2020-10-07T22:34:37.834Z</time>
      </trkpt>
      <trkpt lat="58.33403" lon="24.25795">
        <ele>11.773106</ele>
        <time>2020-10-07T22:34:43.655Z</time>
      </trkpt>
      <trkpt lat="58.33507" lon="24.25777">
        <ele>12.233118</ele>
        <time>2020-10-07T22:35:09.147Z</time>
      </trkpt>
      <trkpt lat="58.3353" lon="24.25778">
        <ele>12.335768</ele>
        <time>2020-10-07T22:35:15.063Z</time>
      </trkpt>
      <trkpt lat="58.33548" lon="24.2578">
        <ele>12.41496</ele>
        <time>2020-10-07T22:35:19.649Z</time>
      </trkpt>
      <trkpt lat="58.33602" lon="24.25808">
        <ele>12.835967</ele>
        <time>2020-10-07T22:35:33.856Z</time>
      </trkpt>
      <trkpt lat="58.33758" lon="24.25925">
        <ele>15.008169</ele>
        <time>2020-10-07T22:36:21.290Z</time>
      </trkpt>
      <trkpt lat="58.33849" lon="24.25983">
        <ele>17.33505</ele>
        <time>2020-10-07T22:36:52.817Z</time>
      </trkpt>
      <trkpt lat="58.33853" lon="24.25987">
        <ele>17.450271</ele>
        <time>2020-10-07T22:36:55.003Z</time>
      </trkpt>
      <trkpt lat="58.33989" lon="24.26092">
        <ele>20.623739</ele>
        <time>2020-10-07T22:37:44.722Z</time>
      </trkpt>
      <trkpt lat="58.34145" lon="24.26098">
        <ele>23.024373</ele>
        <time>2020-10-07T22:38:29.525Z</time>
      </trkpt>
      <trkpt lat="58.34384" lon="24.25933">
        <ele>24.197113</ele>
        <time>2020-10-07T22:39:33.328Z</time>
      </trkpt>
      <trkpt lat="58.3477" lon="24.25791">
        <ele>22.419505</ele>
        <time>2020-10-07T22:40:57.696Z</time>
      </trkpt>
      <trkpt lat="58.35288" lon="24.25669">
        <ele>18.276639</ele>
        <time>2020-10-07T22:42:45.502Z</time>
      </trkpt>
      <trkpt lat="58.35368" lon="24.25657">
        <ele>17.582698</ele>
        <time>2020-10-07T22:43:02.004Z</time>
      </trkpt>
      <trkpt lat="58.3554" lon="24.25656">
        <ele>15.832703</ele>
        <time>2020-10-07T22:43:37.441Z</time>
      </trkpt>
      <trkpt lat="58.35676" lon="24.25665">
        <ele>13.864757</ele>
        <time>2020-10-07T22:44:03.448Z</time>
      </trkpt>
      <trkpt lat="58.35723" lon="24.25684">
        <ele>13.155546</ele>
        <time>2020-10-07T22:44:12.320Z</time>
      </trkpt>
      <trkpt lat="58.35745" lon="24.25694">
        <ele>12.81685</ele>
        <time>2020-10-07T22:44:16.588Z</time>
      </trkpt>
      <trkpt lat="58.35763" lon="24.25702">
        <ele>12.529161</ele>
        <time>2020-10-07T22:44:20.159Z</time>
      </trkpt>
      <trkpt lat="58.35843" lon="24.2575">
        <ele>11.259674</ele>
        <time>2020-10-07T22:44:36.296Z</time>
      </trkpt>
      <trkpt lat="58.35914" lon="24.25802">
        <ele>10.646794</ele>
        <time>2020-10-07T22:44:51.720Z</time>
      </trkpt>
      <trkpt lat="58.35977" lon="24.25862">
        <ele>10.20063</ele>
        <time>2020-10-07T22:45:06.799Z</time>
      </trkpt>
      <trkpt lat="58.36083" lon="24.25984">
        <ele>9.841809</ele>
        <time>2020-10-07T22:45:34.479Z</time>
      </trkpt>
      <trkpt lat="58.36214" lon="24.26137">
        <ele>9.827726</ele>
        <time>2020-10-07T22:46:10.384Z</time>
      </trkpt>
      <trkpt lat="58.36288" lon="24.26235">
        <ele>9.93468</ele>
        <time>2020-10-07T22:46:31.981Z</time>
      </trkpt>
      <trkpt lat="58.36381" lon="24.26312">
        <ele>10.033629</ele>
        <time>2020-10-07T22:46:56.070Z</time>
      </trkpt>
      <trkpt lat="58.36389" lon="24.26319">
        <ele>10.041431</ele>
        <time>2020-10-07T22:46:58.369Z</time>
      </trkpt>
      <trkpt lat="58.36534" lon="24.26368">
        <ele>9.993026</ele>
        <time>2020-10-07T22:47:32.803Z</time>
      </trkpt>
      <trkpt lat="58.36553" lon="24.26383">
        <ele>9.911685</ele>
        <time>2020-10-07T22:47:37.214Z</time>
      </trkpt>
      <trkpt lat="58.36607" lon="24.26421">
        <ele>9.686937</ele>
        <time>2020-10-07T22:47:49.253Z</time>
      </trkpt>
      <trkpt lat="58.36639" lon="24.26458">
        <ele>9.540571</ele>
        <time>2020-10-07T22:47:56.837Z</time>
      </trkpt>
      <trkpt lat="58.36746" lon="24.26603">
        <ele>8.866838</ele>
        <time>2020-10-07T22:48:22.724Z</time>
      </trkpt>
      <trkpt lat="58.3684" lon="24.26711">
        <ele>8.589342</ele>
        <time>2020-10-07T22:48:46.194Z</time>
      </trkpt>
      <trkpt lat="58.36888" lon="24.26762">
        <ele>8.81521</ele>
        <time>2020-10-07T22:48:59.112Z</time>
      </trkpt>
      <trkpt lat="58.36891" lon="24.26766">
        <ele>8.829352</ele>
        <time>2020-10-07T22:49:00.028Z</time>
      </trkpt>
      <trkpt lat="58.3693" lon="24.26806">
        <ele>9.012927</ele>
        <time>2020-10-07T22:49:11.114Z</time>
      </trkpt>
      <trkpt lat="58.36985" lon="24.26852">
        <ele>9.276268</ele>
        <time>2020-10-07T22:49:26.530Z</time>
      </trkpt>
      <trkpt lat="58.37054" lon="24.26897">
        <ele>9.661201</ele>
        <time>2020-10-07T22:49:45.631Z</time>
      </trkpt>
      <trkpt lat="58.3711" lon="24.26924">
        <ele>9.963531</ele>
        <time>2020-10-07T22:49:59.260Z</time>
      </trkpt>
      <trkpt lat="58.3716" lon="24.26945">
        <ele>10.078504</ele>
        <time>2020-10-07T22:50:10.651Z</time>
      </trkpt>
      <trkpt lat="58.37208" lon="24.26958">
        <ele>9.92642</ele>
        <time>2020-10-07T22:50:21.018Z</time>
      </trkpt>
      <trkpt lat="58.37374" lon="24.26999">
        <ele>9.472584</ele>
        <time>2020-10-07T22:50:55.398Z</time>
      </trkpt>
      <trkpt lat="58.37764" lon="24.27095">
        <ele>9.163979</ele>
        <time>2020-10-07T22:52:22.309Z</time>
      </trkpt>
      <trkpt lat="58.3798" lon="24.2716">
        <ele>9.275199</ele>
        <time>2020-10-07T22:53:11.662Z</time>
      </trkpt>
      <trkpt lat="58.38313" lon="24.27243">
        <ele>9.502122</ele>
        <time>2020-10-07T22:54:27.258Z</time>
      </trkpt>
      <trkpt lat="58.38504" lon="24.27284">
        <ele>9.836508</ele>
        <time>2020-10-07T22:55:12.017Z</time>
      </trkpt>
      <trkpt lat="58.38549" lon="24.27299">
        <ele>9.930021</ele>
        <time>2020-10-07T22:55:22.697Z</time>
      </trkpt>
      <trkpt lat="58.38655" lon="24.27353">
        <ele>9.885051</ele>
        <time>2020-10-07T22:55:47.174Z</time>
      </trkpt>
      <trkpt lat="58.38672" lon="24.2736">
        <ele>9.869557</ele>
        <time>2020-10-07T22:55:50.859Z</time>
      </trkpt>
      <trkpt lat="58.3875" lon="24.27403">
        <ele>9.78686</ele>
        <time>2020-10-07T22:56:08.301Z</time>
      </trkpt>
      <trkpt lat="58.38833" lon="24.27451">
        <ele>9.641691</ele>
        <time>2020-10-07T22:56:26.502Z</time>
      </trkpt>
      <trkpt lat="58.38992" lon="24.2757">
        <ele>9.572416</ele>
        <time>2020-10-07T22:57:04.367Z</time>
      </trkpt>
      <trkpt lat="58.39072" lon="24.27638">
        <ele>9.644848</ele>
        <time>2020-10-07T22:57:24.781Z</time>
      </trkpt>
      <trkpt lat="58.39139" lon="24.27711">
        <ele>9.390553</ele>
        <time>2020-10-07T22:57:41.882Z</time>
      </trkpt>
      <trkpt lat="58.39167" lon="24.27747">
        <ele>9.269009</ele>
        <time>2020-10-07T22:57:48.940Z</time>
      </trkpt>
      <trkpt lat="58.39195" lon="24.27788">
        <ele>9.142709</ele>
        <time>2020-10-07T22:57:56.110Z</time>
      </trkpt>
      <trkpt lat="58.39221" lon="24.27833">
        <ele>9.017253</ele>
        <time>2020-10-07T22:58:03.116Z</time>
      </trkpt>
      <trkpt lat="58.39269" lon="24.27925">
        <ele>8.558618</ele>
        <time>2020-10-07T22:58:16.680Z</time>
      </trkpt>
      <trkpt lat="58.39317" lon="24.28024">
        <ele>8.07052</ele>
        <time>2020-10-07T22:58:30.589Z</time>
      </trkpt>
      <trkpt lat="58.39388" lon="24.28163">
        <ele>7.678627</ele>
        <time>2020-10-07T22:58:51.735Z</time>
      </trkpt>
      <trkpt lat="58.39517" lon="24.28445">
        <ele>7.469934</ele>
        <time>2020-10-07T22:59:35.359Z</time>
      </trkpt>
      <trkpt lat="58.39596" lon="24.28636">
        <ele>7.4236</ele>
        <time>2020-10-07T23:00:03.735Z</time>
      </trkpt>
      <trkpt lat="58.39633" lon="24.28731">
        <ele>7.414472</ele>
        <time>2020-10-07T23:00:17.304Z</time>
      </trkpt>
      <trkpt lat="58.3971" lon="24.28931">
        <ele>7.4</ele>
        <time>2020-10-07T23:00:46.166Z</time>
      </trkpt>
      <trkpt lat="58.39871" lon="24.2935">
        <ele>7.435545</ele>
        <time>2020-10-07T23:01:47.117Z</time>
      </trkpt>
      <trkpt lat="58.39932" lon="24.29514">
        <ele>7.496397</ele>
        <time>2020-10-07T23:02:10.870Z</time>
      </trkpt>
      <trkpt lat="58.39968" lon="24.29603">
        <ele>7.549058</ele>
        <time>2020-10-07T23:02:24.377Z</time>
      </trkpt>
      <trkpt lat="58.40019" lon="24.29723">
        <ele>7.649765</ele>
        <time>2020-10-07T23:02:42.790Z</time>
      </trkpt>
      <trkpt lat="58.40074" lon="24.29825">
        <ele>7.915406</ele>
        <time>2020-10-07T23:03:00.561Z</time>
      </trkpt>
      <trkpt lat="58.40092" lon="24.29856">
        <ele>7.998778</ele>
        <time>2020-10-07T23:03:06.274Z</time>
      </trkpt>
      <trkpt lat="58.40094" lon="24.2986">
        <ele>8.009342</ele>
        <time>2020-10-07T23:03:06.932Z</time>
      </trkpt>
      <trkpt lat="58.40188" lon="24.30001">
        <ele>8.566482</ele>
        <time>2020-10-07T23:03:35.951Z</time>
      </trkpt>
      <trkpt lat="58.40309" lon="24.30182">
        <ele>9.507467</ele>
        <time>2020-10-07T23:04:14.150Z</time>
      </trkpt>
      <trkpt lat="58.4036" lon="24.30258">
        <ele>9.915804</ele>
        <time>2020-10-07T23:04:30.529Z</time>
      </trkpt>
      <trkpt lat="58.40442" lon="24.30395">
        <ele>10.550971</ele>
        <time>2020-10-07T23:04:57.378Z</time>
      </trkpt>
      <trkpt lat="58.40472" lon="24.30453">
        <ele>10.713411</ele>
        <time>2020-10-07T23:05:07.485Z</time>
      </trkpt>
      <trkpt lat="58.4049" lon="24.30505">
        <ele>10.839969</ele>
        <time>2020-10-07T23:05:15.255Z</time>
      </trkpt>
      <trkpt lat="58.40546" lon="24.307">
        <ele>11.214082</ele>
        <time>2020-10-07T23:05:42.939Z</time>
      </trkpt>
      <trkpt lat="58.40554" lon="24.30732">
        <ele>11.244124</ele>
        <time>2020-10-07T23:05:47.090Z</time>
      </trkpt>
      <trkpt lat="58.40584" lon="24.3085">
        <ele>11.354916</ele>
        <time>2020-10-07T23:06:02.793Z</time>
      </trkpt>
      <trkpt lat="58.40611" lon="24.30958">
        <ele>11.479257</ele>
        <time>2020-10-07T23:06:16.850Z</time>
      </trkpt>
      <trkpt lat="58.40629" lon="24.31049">
        <ele>11.825991</ele>
        <time>2020-10-07T23:06:28.551Z</time>
      </trkpt>
      <trkpt lat="58.4064" lon="24.31111">
        <ele>12.062065</ele>
        <time>2020-10-07T23:06:36.896Z</time>
      </trkpt>
      <trkpt lat="58.40653" lon="24.3121">
        <ele>12.429463</ele>
        <time>2020-10-07T23:06:50.380Z</time>
      </trkpt>
      <trkpt lat="58.40661" lon="24.31272">
        <ele>12.658302</ele>
        <time>2020-10-07T23:06:59.215Z</time>
      </trkpt>
      <trkpt lat="58.40675" lon="24.31742">
        <ele>17.056536</ele>
        <time>2020-10-07T23:08:14.037Z</time>
      </trkpt>
      <trkpt lat="58.40706" lon="24.32009">
        <ele>18.893847</ele>
        <time>2020-10-07T23:08:54.839Z</time>
      </trkpt>
      <trkpt lat="58.40715" lon="24.3212">
        <ele>18.795997</ele>
        <time>2020-10-07T23:09:08.423Z</time>
      </trkpt>
      <trkpt lat="58.40719" lon="24.32173">
        <ele>18.749155</ele>
        <time>2020-10-07T23:09:14.293Z</time>
      </trkpt>
      <trkpt lat="58.40721" lon="24.32206">
        <ele>18.720627</ele>
        <time>2020-10-07T23:09:17.726Z</time>
      </trkpt>
      <trkpt lat="58.40728" lon="24.32417">
        <ele>17.568711</ele>
        <time>2020-10-07T23:09:38.206Z</time>
      </trkpt>
      <trkpt lat="58.40729" lon="24.32551">
        <ele>16.356179</ele>
        <time>2020-10-07T23:09:50.641Z</time>
      </trkpt>
      <trkpt lat="58.4074" lon="24.32755">
        <ele>14.831411</ele>
        <time>2020-10-07T23:10:09.757Z</time>
      </trkpt>
      <trkpt lat="58.40761" lon="24.32834">
        <ele>14.284457</ele>
        <time>2020-10-07T23:10:18.583Z</time>
      </trkpt>
      <trkpt lat="58.4077" lon="24.32874">
        <ele>14.016037</ele>
        <time>2020-10-07T23:10:23.021Z</time>
      </trkpt>
      <trkpt lat="58.40774" lon="24.32892">
        <ele>13.898757</ele>
        <time>2020-10-07T23:10:25.074Z</time>
      </trkpt>
      <trkpt lat="58.408" lon="24.33015">
        <ele>13.468993</ele>
        <time>2020-10-07T23:10:39.639Z</time>
      </trkpt>
      <trkpt lat="58.4083" lon="24.33151">
        <ele>13.604796</ele>
        <time>2020-10-07T23:10:57.312Z</time>
      </trkpt>
      <trkpt lat="58.41157" lon="24.34658">
        <ele>16.669777</ele>
        <time>2020-10-07T23:14:27.608Z</time>
      </trkpt>
      <trkpt lat="58.41215" lon="24.34918">
        <ele>13.510873</ele>
        <time>2020-10-07T23:14:51.774Z</time>
      </trkpt>
      <trkpt lat="58.41231" lon="24.35018">
        <ele>11.899121</ele>
        <time>2020-10-07T23:15:00.451Z</time>
      </trkpt>
      <trkpt lat="58.41238" lon="24.35078">
        <ele>10.950663</ele>
        <time>2020-10-07T23:15:05.755Z</time>
      </trkpt>
      <trkpt lat="58.41241" lon="24.35157">
        <ele>9.730769</ele>
        <time>2020-10-07T23:15:12.817Z</time>
      </trkpt>
      <trkpt lat="58.41245" lon="24.35265">
        <ele>8.820708</ele>
        <time>2020-10-07T23:15:23.046Z</time>
      </trkpt>
      <trkpt lat="58.41249" lon="24.35376">
        <ele>8.376831</ele>
        <time>2020-10-07T23:15:34.562Z</time>
      </trkpt>
      <trkpt lat="58.41251" lon="24.3544">
        <ele>8.117865</ele>
        <time>2020-10-07T23:15:41.682Z</time>
      </trkpt>
      <trkpt lat="58.41254" lon="24.3548">
        <ele>7.957016</ele>
        <time>2020-10-07T23:15:46.294Z</time>
      </trkpt>
      <trkpt lat="58.41259" lon="24.35521">
        <ele>7.789856</ele>
        <time>2020-10-07T23:15:51.089Z</time>
      </trkpt>
      <trkpt lat="58.41264" lon="24.35559">
        <ele>7.689596</ele>
        <time>2020-10-07T23:15:55.771Z</time>
      </trkpt>
      <trkpt lat="58.41272" lon="24.35599">
        <ele>7.642906</ele>
        <time>2020-10-07T23:16:00.803Z</time>
      </trkpt>
      <trkpt lat="58.4129" lon="24.357">
        <ele>7.526933</ele>
        <time>2020-10-07T23:16:12.976Z</time>
      </trkpt>
      <trkpt lat="58.41292" lon="24.35715">
        <ele>7.509753</ele>
        <time>2020-10-07T23:16:14.723Z</time>
      </trkpt>
      <trkpt lat="58.41305" lon="24.35786">
        <ele>7.426796</ele>
        <time>2020-10-07T23:16:22.999Z</time>
      </trkpt>
      <trkpt lat="58.41308" lon="24.35804">
        <ele>7.406821</ele>
        <time>2020-10-07T23:16:24.990Z</time>
      </trkpt>
      <trkpt lat="58.41311" lon="24.35818">
        <ele>7.38995</ele>
        <time>2020-10-07T23:16:26.668Z</time>
      </trkpt>
      <trkpt lat="58.41326" lon="24.35881">
        <ele>7.322114</ele>
        <time>2020-10-07T23:16:34.239Z</time>
      </trkpt>
      <trkpt lat="58.41356" lon="24.35974">
        <ele>7.244489</ele>
        <time>2020-10-07T23:16:46.745Z</time>
      </trkpt>
      <trkpt lat="58.41371" lon="24.36025">
        <ele>7.202723</ele>
        <time>2020-10-07T23:16:53.663Z</time>
      </trkpt>
      <trkpt lat="58.41403" lon="24.3612">
        <ele>7.123183</ele>
        <time>2020-10-07T23:17:06.520Z</time>
      </trkpt>
      <trkpt lat="58.41434" lon="24.36211">
        <ele>7.098602</ele>
        <time>2020-10-07T23:17:18.927Z</time>
      </trkpt>
      <trkpt lat="58.41422" lon="24.36234">
        <ele>7.10183</ele>
        <time>2020-10-07T23:17:22.673Z</time>
      </trkpt>
      <trkpt lat="58.41414" lon="24.36254">
        <ele>7.104402</ele>
        <time>2020-10-07T23:17:25.772Z</time>
      </trkpt>
      <trkpt lat="58.41398" lon="24.36289">
        <ele>7.109138</ele>
        <time>2020-10-07T23:17:31.394Z</time>
      </trkpt>
      <trkpt lat="58.41384" lon="24.36319">
        <ele>7.113134</ele>
        <time>2020-10-07T23:17:36.309Z</time>
      </trkpt>
      <trkpt lat="58.4136" lon="24.36366">
        <ele>7.119747</ele>
        <time>2020-10-07T23:17:44.115Z</time>
      </trkpt>
      <trkpt lat="58.41342" lon="24.36394">
        <ele>7.124189</ele>
        <time>2020-10-07T23:17:49.180Z</time>
      </trkpt>
      <trkpt lat="58.41332" lon="24.36403">
        <ele>7.126279</ele>
        <time>2020-10-07T23:17:51.649Z</time>
      </trkpt>
      <trkpt lat="58.41295" lon="24.36437">
        <ele>7.037204</ele>
        <time>2020-10-07T23:18:00.323Z</time>
      </trkpt>
      <trkpt lat="58.41285" lon="24.36447">
        <ele>7.01005</ele>
        <time>2020-10-07T23:18:02.716Z</time>
      </trkpt>
      <trkpt lat="58.41265" lon="24.36474">
        <ele>6.955103</ele>
        <time>2020-10-07T23:18:07.963Z</time>
      </trkpt>
      <trkpt lat="58.41253" lon="24.36501">
        <ele>6.912342</ele>
        <time>2020-10-07T23:18:11.860Z</time>
      </trkpt>
      <trkpt lat="58.41243" lon="24.3653">
        <ele>6.870417</ele>
        <time>2020-10-07T23:18:15.947Z</time>
      </trkpt>
      <trkpt lat="58.41232" lon="24.36526">
        <ele>6.844118</ele>
        <time>2020-10-07T23:18:18.396Z</time>
      </trkpt>
      <trkpt lat="58.4122" lon="24.3657">
        <ele>6.783613</ele>
        <time>2020-10-07T23:18:24.210Z</time>
      </trkpt>
      <trkpt lat="58.41218" lon="24.36576">
        <ele>6.774985</ele>
        <time>2020-10-07T23:18:24.937Z</time>
      </trkpt>
      <trkpt lat="58.41205" lon="24.36626">
        <ele>6.707467</ele>
        <time>2020-10-07T23:18:31.146Z</time>
      </trkpt>
      <trkpt lat="58.41187" lon="24.36721">
        <ele>6.544761</ele>
        <time>2020-10-07T23:18:42.104Z</time>
      </trkpt>
      <trkpt lat="58.41183" lon="24.36785">
        <ele>6.442001</ele>
        <time>2020-10-07T23:18:49.184Z</time>
      </trkpt>
      <trkpt lat="58.4122" lon="24.36966">
        <ele>6.152157</ele>
        <time>2020-10-07T23:19:11.041Z</time>
      </trkpt>
      <trkpt lat="58.41233" lon="24.37023">
        <ele>6.11755</ele>
        <time>2020-10-07T23:19:18.154Z</time>
      </trkpt>
      <trkpt lat="58.41242" lon="24.37063">
        <ele>6.09357</ele>
        <time>2020-10-07T23:19:23.041Z</time>
      </trkpt>
      <trkpt lat="58.41254" lon="24.37134">
        <ele>6.052373</ele>
        <time>2020-10-07T23:19:31.482Z</time>
      </trkpt>
      <trkpt lat="58.41259" lon="24.37238">
        <ele>5.994294</ele>
        <time>2020-10-07T23:19:43.378Z</time>
      </trkpt>
      <trkpt lat="58.4125" lon="24.37496">
        <ele>6.486413</ele>
        <time>2020-10-07T23:20:14.404Z</time>
      </trkpt>
      <trkpt lat="58.41181" lon="24.38023">
        <ele>9.123605</ele>
        <time>2020-10-07T23:21:29.636Z</time>
      </trkpt>
      <trkpt lat="58.41142" lon="24.38242">
        <ele>10.650067</ele>
        <time>2020-10-07T23:22:03.528Z</time>
      </trkpt>
      <trkpt lat="58.41127" lon="24.38303">
        <ele>11.015783</ele>
        <time>2020-10-07T23:22:13.142Z</time>
      </trkpt>
      <trkpt lat="58.41109" lon="24.3838">
        <ele>11.357878</ele>
        <time>2020-10-07T23:22:24.832Z</time>
      </trkpt>
      <trkpt lat="58.41093" lon="24.38448">
        <ele>11.661177</ele>
        <time>2020-10-07T23:22:34.870Z</time>
      </trkpt>
      <trkpt lat="58.41089" lon="24.38465">
        <ele>11.735974</ele>
        <time>2020-10-07T23:22:37.437Z</time>
      </trkpt>
      <trkpt lat="58.41082" lon="24.38495">
        <ele>11.870163</ele>
        <time>2020-10-07T23:22:41.595Z</time>
      </trkpt>
      <trkpt lat="58.41033" lon="24.38654">
        <ele>12.220891</ele>
        <time>2020-10-07T23:23:04.404Z</time>
      </trkpt>
      <trkpt lat="58.40958" lon="24.3886">
        <ele>12.049052</ele>
        <time>2020-10-07T23:23:32.934Z</time>
      </trkpt>
      <trkpt lat="58.40922" lon="24.38948">
        <ele>11.374788</ele>
        <time>2020-10-07T23:23:44.672Z</time>
      </trkpt>
      <trkpt lat="58.40807" lon="24.39191">
        <ele>9.218751</ele>
        <time>2020-10-07T23:24:15.861Z</time>
      </trkpt>
      <trkpt lat="58.40774" lon="24.39259">
        <ele>8.583406</ele>
        <time>2020-10-07T23:24:24.666Z</time>
      </trkpt>
      <trkpt lat="58.40727" lon="24.39357">
        <ele>7.670414</ele>
        <time>2020-10-07T23:24:37.964Z</time>
      </trkpt>
      <trkpt lat="58.4067" lon="24.39476">
        <ele>7.13319</ele>
        <time>2020-10-07T23:24:54.962Z</time>
      </trkpt>
      <trkpt lat="58.40621" lon="24.39581">
        <ele>6.783964</ele>
        <time>2020-10-07T23:25:10.963Z</time>
      </trkpt>
      <trkpt lat="58.40589" lon="24.3965">
        <ele>6.544142</ele>
        <time>2020-10-07T23:25:21.086Z</time>
      </trkpt>
      <trkpt lat="58.40542" lon="24.39768">
        <ele>6.08411</ele>
        <time>2020-10-07T23:25:37.105Z</time>
      </trkpt>
      <trkpt lat="58.40516" lon="24.39841">
        <ele>5.811398</ele>
        <time>2020-10-07T23:25:46.226Z</time>
      </trkpt>
      <trkpt lat="58.40507" lon="24.3987">
        <ele>5.704495</ele>
        <time>2020-10-07T23:25:49.837Z</time>
      </trkpt>
      <trkpt lat="58.40484" lon="24.39946">
        <ele>5.509018</ele>
        <time>2020-10-07T23:25:59.156Z</time>
      </trkpt>
      <trkpt lat="58.40483" lon="24.39951">
        <ele>5.504248</ele>
        <time>2020-10-07T23:25:59.631Z</time>
      </trkpt>
      <trkpt lat="58.40463" lon="24.40025">
        <ele>5.428449</ele>
        <time>2020-10-07T23:26:08.521Z</time>
      </trkpt>
      <trkpt lat="58.4041" lon="24.40282">
        <ele>5.340161</ele>
        <time>2020-10-07T23:26:40.987Z</time>
      </trkpt>
      <trkpt lat="58.40395" lon="24.40315">
        <ele>5.429139</ele>
        <time>2020-10-07T23:26:46.684Z</time>
      </trkpt>
      <trkpt lat="58.40394" lon="24.40331">
        <ele>5.462584</ele>
        <time>2020-10-07T23:26:48.901Z</time>
      </trkpt>
      <trkpt lat="58.40393" lon="24.40338">
        <ele>5.476243</ele>
        <time>2020-10-07T23:26:49.758Z</time>
      </trkpt>
      <trkpt lat="58.40392" lon="24.40344">
        <ele>5.488946</ele>
        <time>2020-10-07T23:26:50.559Z</time>
      </trkpt>
      <trkpt lat="58.40389" lon="24.40353">
        <ele>5.512237</ele>
        <time>2020-10-07T23:26:51.997Z</time>
      </trkpt>
      <trkpt lat="58.40384" lon="24.40365">
        <ele>5.540567</ele>
        <time>2020-10-07T23:26:53.763Z</time>
      </trkpt>
      <trkpt lat="58.4039" lon="24.40393">
        <ele>5.601743</ele>
        <time>2020-10-07T23:26:57.800Z</time>
      </trkpt>
      <trkpt lat="58.4039" lon="24.40455">
        <ele>5.728323</ele>
        <time>2020-10-07T23:27:05.755Z</time>
      </trkpt>
      <trkpt lat="58.4038" lon="24.40595">
        <ele>5.867691</ele>
        <time>2020-10-07T23:27:23.497Z</time>
      </trkpt>
      <trkpt lat="58.40376" lon="24.40641">
        <ele>5.808941</ele>
        <time>2020-10-07T23:27:29.216Z</time>
      </trkpt>
      <trkpt lat="58.40334" lon="24.41133">
        <ele>4.946436</ele>
        <time>2020-10-07T23:28:23.464Z</time>
      </trkpt>
      <trkpt lat="58.40308" lon="24.41408">
        <ele>4.566948</ele>
        <time>2020-10-07T23:28:54.275Z</time>
      </trkpt>
      <trkpt lat="58.40284" lon="24.41605">
        <ele>4.440866</ele>
        <time>2020-10-07T23:29:18.039Z</time>
      </trkpt>
      <trkpt lat="58.40269" lon="24.41714">
        <ele>4.490875</ele>
        <time>2020-10-07T23:29:31.476Z</time>
      </trkpt>
      <trkpt lat="58.40243" lon="24.41848">
        <ele>4.554756</ele>
        <time>2020-10-07T23:29:48.514Z</time>
      </trkpt>
      <trkpt lat="58.40233" lon="24.41915">
        <ele>4.567434</ele>
        <time>2020-10-07T23:29:56.715Z</time>
      </trkpt>
      <trkpt lat="58.40231" lon="24.41949">
        <ele>4.55644</ele>
        <time>2020-10-07T23:30:00.653Z</time>
      </trkpt>
      <trkpt lat="58.40169" lon="24.42362">
        <ele>4.381312</ele>
        <time>2020-10-07T23:30:49.919Z</time>
      </trkpt>
      <trkpt lat="58.40165" lon="24.42396">
        <ele>4.361219</ele>
        <time>2020-10-07T23:30:53.974Z</time>
      </trkpt>
      <trkpt lat="58.40164" lon="24.42405">
        <ele>4.356126</ele>
        <time>2020-10-07T23:30:54.922Z</time>
      </trkpt>
      <trkpt lat="58.40142" lon="24.42501">
        <ele>4.295494</ele>
        <time>2020-10-07T23:31:07.050Z</time>
      </trkpt>
      <trkpt lat="58.4011" lon="24.42705">
        <ele>4.21707</ele>
        <time>2020-10-07T23:31:31.630Z</time>
      </trkpt>
      <trkpt lat="58.40105" lon="24.42725">
        <ele>4.210102</ele>
        <time>2020-10-07T23:31:34.283Z</time>
      </trkpt>
      <trkpt lat="58.40101" lon="24.42741">
        <ele>4.204531</ele>
        <time>2020-10-07T23:31:36.438Z</time>
      </trkpt>
      <trkpt lat="58.40094" lon="24.42822">
        <ele>4.179619</ele>
        <time>2020-10-07T23:31:45.903Z</time>
      </trkpt>
      <trkpt lat="58.4006" lon="24.43009">
        <ele>4.10594</ele>
        <time>2020-10-07T23:32:08.645Z</time>
      </trkpt>
      <trkpt lat="58.40045" lon="24.43079">
        <ele>4.075408</ele>
        <time>2020-10-07T23:32:17.465Z</time>
      </trkpt>
      <trkpt lat="58.40033" lon="24.43104">
        <ele>4.062314</ele>
        <time>2020-10-07T23:32:21.301Z</time>
      </trkpt>
      <trkpt lat="58.4003" lon="24.43116">
        <ele>4.056666</ele>
        <time>2020-10-07T23:32:22.903Z</time>
      </trkpt>
      <trkpt lat="58.40028" lon="24.43128">
        <ele>4.051894</ele>
        <time>2020-10-07T23:32:24.277Z</time>
      </trkpt>
      <trkpt lat="58.40024" lon="24.43192">
        <ele>4.025997</ele>
        <time>2020-10-07T23:32:31.815Z</time>
      </trkpt>
      <trkpt lat="58.40018" lon="24.43221">
        <ele>4.022636</ele>
        <time>2020-10-07T23:32:35.400Z</time>
      </trkpt>
      <trkpt lat="58.40012" lon="24.4325">
        <ele>4.020389</ele>
        <time>2020-10-07T23:32:39.085Z</time>
      </trkpt>
      <trkpt lat="58.39998" lon="24.43291">
        <ele>4.016871</ele>
        <time>2020-10-07T23:32:44.876Z</time>
      </trkpt>
      <trkpt lat="58.39996" lon="24.43323">
        <ele>4.014527</ele>
        <time>2020-10-07T23:32:48.686Z</time>
      </trkpt>
      <trkpt lat="58.39928" lon="24.43653">
        <ele>3.896143</ele>
        <time>2020-10-07T23:33:29.933Z</time>
      </trkpt>
      <trkpt lat="58.3992" lon="24.43693">
        <ele>3.86695</ele>
        <time>2020-10-07T23:33:34.805Z</time>
      </trkpt>
      <trkpt lat="58.39916" lon="24.43713">
        <ele>3.852226</ele>
        <time>2020-10-07T23:33:37.164Z</time>
      </trkpt>
      <trkpt lat="58.39905" lon="24.43744">
        <ele>3.827</ele>
        <time>2020-10-07T23:33:41.326Z</time>
      </trkpt>
      <trkpt lat="58.39864" lon="24.43946">
        <ele>3.64673</ele>
        <time>2020-10-07T23:34:05.573Z</time>
      </trkpt>
      <trkpt lat="58.39855" lon="24.4396">
        <ele>3.626107</ele>
        <time>2020-10-07T23:34:07.975Z</time>
      </trkpt>
      <trkpt lat="58.39847" lon="24.4398">
        <ele>3.603119</ele>
        <time>2020-10-07T23:34:10.671Z</time>
      </trkpt>
      <trkpt lat="58.39846" lon="24.43987">
        <ele>3.59578</ele>
        <time>2020-10-07T23:34:11.642Z</time>
      </trkpt>
      <trkpt lat="58.39843" lon="24.44039">
        <ele>3.546745</ele>
        <time>2020-10-07T23:34:17.530Z</time>
      </trkpt>
      <trkpt lat="58.39726" lon="24.44604">
        <ele>3.31606</ele>
        <time>2020-10-07T23:35:27.683Z</time>
      </trkpt>
      <trkpt lat="58.39699" lon="24.44709">
        <ele>3.346263</ele>
        <time>2020-10-07T23:35:41.623Z</time>
      </trkpt>
      <trkpt lat="58.3969" lon="24.44724">
        <ele>3.35226</ele>
        <time>2020-10-07T23:35:44.321Z</time>
      </trkpt>
      <trkpt lat="58.39685" lon="24.44751">
        <ele>3.359609</ele>
        <time>2020-10-07T23:35:47.789Z</time>
      </trkpt>
      <trkpt lat="58.3968" lon="24.44778">
        <ele>3.376451</ele>
        <time>2020-10-07T23:35:51.250Z</time>
      </trkpt>
      <trkpt lat="58.39678" lon="24.44787">
        <ele>3.391999</ele>
        <time>2020-10-07T23:35:52.432Z</time>
      </trkpt>
      <trkpt lat="58.39674" lon="24.44806">
        <ele>3.422775</ele>
        <time>2020-10-07T23:35:54.860Z</time>
      </trkpt>
      <trkpt lat="58.39671" lon="24.44821">
        <ele>3.445923</ele>
        <time>2020-10-07T23:35:56.810Z</time>
      </trkpt>
      <trkpt lat="58.39673" lon="24.44878">
        <ele>3.53315</ele>
        <time>2020-10-07T23:36:03.726Z</time>
      </trkpt>
      <trkpt lat="58.39587" lon="24.45265">
        <ele>4.057901</ele>
        <time>2020-10-07T23:36:55.625Z</time>
      </trkpt>
      <trkpt lat="58.39579" lon="24.45285">
        <ele>4.080615</ele>
        <time>2020-10-07T23:36:58.636Z</time>
      </trkpt>
      <trkpt lat="58.39576" lon="24.453">
        <ele>4.095408</ele>
        <time>2020-10-07T23:37:00.642Z</time>
      </trkpt>
      <trkpt lat="58.39574" lon="24.45306">
        <ele>4.101532</ele>
        <time>2020-10-07T23:37:01.447Z</time>
      </trkpt>
      <trkpt lat="58.39573" lon="24.45313">
        <ele>4.108224</ele>
        <time>2020-10-07T23:37:02.334Z</time>
      </trkpt>
      <trkpt lat="58.39571" lon="24.45324">
        <ele>4.118974</ele>
        <time>2020-10-07T23:37:03.677Z</time>
      </trkpt>
      <trkpt lat="58.3957" lon="24.4535">
        <ele>4.1426</ele>
        <time>2020-10-07T23:37:06.783Z</time>
      </trkpt>
      <trkpt lat="58.39547" lon="24.45445">
        <ele>4.203411</ele>
        <time>2020-10-07T23:37:19.120Z</time>
      </trkpt>
      <trkpt lat="58.39489" lon="24.45653">
        <ele>4.225963</ele>
        <time>2020-10-07T23:37:46.661Z</time>
      </trkpt>
      <trkpt lat="58.3948" lon="24.45679">
        <ele>4.228948</ele>
        <time>2020-10-07T23:37:50.362Z</time>
      </trkpt>
      <trkpt lat="58.3946" lon="24.45741">
        <ele>4.278234</ele>
        <time>2020-10-07T23:37:58.799Z</time>
      </trkpt>
      <trkpt lat="58.39418" lon="24.45869">
        <ele>4.457804</ele>
        <time>2020-10-07T23:38:16.879Z</time>
      </trkpt>
      <trkpt lat="58.39403" lon="24.45898">
        <ele>4.506641</ele>
        <time>2020-10-07T23:38:22.052Z</time>
      </trkpt>
      <trkpt lat="58.39402" lon="24.45898">
        <ele>4.507627</ele>
        <time>2020-10-07T23:38:22.202Z</time>
      </trkpt>
      <trkpt lat="58.39399" lon="24.45908">
        <ele>4.520933</ele>
        <time>2020-10-07T23:38:23.538Z</time>
      </trkpt>
      <trkpt lat="58.39399" lon="24.4591">
        <ele>4.523273</ele>
        <time>2020-10-07T23:38:23.710Z</time>
      </trkpt>
      <trkpt lat="58.39388" lon="24.45952">
        <ele>4.579121</ele>
        <time>2020-10-07T23:38:29.634Z</time>
      </trkpt>
      <trkpt lat="58.39377" lon="24.45988">
        <ele>4.62867</ele>
        <time>2020-10-07T23:38:34.626Z</time>
      </trkpt>
      <trkpt lat="58.39373" lon="24.46002">
        <ele>4.658789</ele>
        <time>2020-10-07T23:38:36.827Z</time>
      </trkpt>
      <trkpt lat="58.39274" lon="24.4623">
        <ele>5.509849</ele>
        <time>2020-10-07T23:39:14.951Z</time>
      </trkpt>
      <trkpt lat="58.3927" lon="24.46241">
        <ele>5.548975</ele>
        <time>2020-10-07T23:39:16.869Z</time>
      </trkpt>
      <trkpt lat="58.39265" lon="24.46255">
        <ele>5.599718</ele>
        <time>2020-10-07T23:39:19.039Z</time>
      </trkpt>
      <trkpt lat="58.3926" lon="24.46267">
        <ele>5.636233</ele>
        <time>2020-10-07T23:39:21.066Z</time>
      </trkpt>
      <trkpt lat="58.39216" lon="24.46359">
        <ele>5.790729</ele>
        <time>2020-10-07T23:39:36.726Z</time>
      </trkpt>
      <trkpt lat="58.39187" lon="24.46422">
        <ele>5.894302</ele>
        <time>2020-10-07T23:39:46.932Z</time>
      </trkpt>
      <trkpt lat="58.39184" lon="24.46429">
        <ele>5.904809</ele>
        <time>2020-10-07T23:39:47.873Z</time>
      </trkpt>
      <trkpt lat="58.39168" lon="24.4646">
        <ele>5.959697</ele>
        <time>2020-10-07T23:39:53.278Z</time>
      </trkpt>
      <trkpt lat="58.39113" lon="24.46578">
        <ele>5.980664</ele>
        <time>2020-10-07T23:40:11.388Z</time>
      </trkpt>
      <trkpt lat="58.39113" lon="24.4658">
        <ele>5.978861</ele>
        <time>2020-10-07T23:40:11.566Z</time>
      </trkpt>
      <trkpt lat="58.3911" lon="24.46586">
        <ele>5.970554</ele>
        <time>2020-10-07T23:40:12.585Z</time>
      </trkpt>
      <trkpt lat="58.39066" lon="24.46678">
        <ele>5.854801</ele>
        <time>2020-10-07T23:40:26.389Z</time>
      </trkpt>
      <trkpt lat="58.39045" lon="24.46724">
        <ele>5.798344</ele>
        <time>2020-10-07T23:40:33.183Z</time>
      </trkpt>
      <trkpt lat="58.39043" lon="24.46727">
        <ele>5.794788</ele>
        <time>2020-10-07T23:40:33.600Z</time>
      </trkpt>
      <trkpt lat="58.39036" lon="24.46744">
        <ele>5.773952</ele>
        <time>2020-10-07T23:40:36.082Z</time>
      </trkpt>
      <trkpt lat="58.39024" lon="24.46783">
        <ele>5.738747</ele>
        <time>2020-10-07T23:40:41.337Z</time>
      </trkpt>
      <trkpt lat="58.38995" lon="24.46922">
        <ele>5.845008</ele>
        <time>2020-10-07T23:40:58.864Z</time>
      </trkpt>
      <trkpt lat="58.38993" lon="24.46929">
        <ele>5.850533</ele>
        <time>2020-10-07T23:40:59.807Z</time>
      </trkpt>
      <trkpt lat="58.38958" lon="24.47105">
        <ele>5.986532</ele>
        <time>2020-10-07T23:41:22.739Z</time>
      </trkpt>
      <trkpt lat="58.38956" lon="24.47116">
        <ele>5.999345</ele>
        <time>2020-10-07T23:41:24.158Z</time>
      </trkpt>
      <trkpt lat="58.38907" lon="24.47356">
        <ele>6.282554</ele>
        <time>2020-10-07T23:41:56.068Z</time>
      </trkpt>
      <trkpt lat="58.38905" lon="24.47366">
        <ele>6.294119</ele>
        <time>2020-10-07T23:41:57.303Z</time>
      </trkpt>
      <trkpt lat="58.38876" lon="24.47513">
        <ele>6.183618</ele>
        <time>2020-10-07T23:42:15.794Z</time>
      </trkpt>
      <trkpt lat="58.38835" lon="24.47726">
        <ele>5.79622</ele>
        <time>2020-10-07T23:42:40.335Z</time>
      </trkpt>
      <trkpt lat="58.38832" lon="24.47741">
        <ele>5.768966</ele>
        <time>2020-10-07T23:42:42.038Z</time>
      </trkpt>
      <trkpt lat="58.38803" lon="24.47904">
        <ele>5.284855</ele>
        <time>2020-10-07T23:43:00.489Z</time>
      </trkpt>
      <trkpt lat="58.38789" lon="24.47997">
        <ele>5.012802</ele>
        <time>2020-10-07T23:43:10.781Z</time>
      </trkpt>
      <trkpt lat="58.38779" lon="24.48077">
        <ele>4.808463</ele>
        <time>2020-10-07T23:43:19.539Z</time>
      </trkpt>
      <trkpt lat="58.3878" lon="24.48148">
        <ele>4.840656</ele>
        <time>2020-10-07T23:43:27.341Z</time>
      </trkpt>
      <trkpt lat="58.38784" lon="24.48159">
        <ele>4.846239</ele>
        <time>2020-10-07T23:43:28.655Z</time>
      </trkpt>
      <trkpt lat="58.38785" lon="24.48145">
        <ele>4.852804</ele>
        <time>2020-10-07T23:43:30.922Z</time>
      </trkpt>
      <trkpt lat="58.38792" lon="24.48159">
        <ele>4.862001</ele>
        <time>2020-10-07T23:43:33.288Z</time>
      </trkpt>
      <trkpt lat="58.38803" lon="24.48166">
        <ele>4.871809</ele>
        <time>2020-10-07T23:43:35.886Z</time>
      </trkpt>
      <trkpt lat="58.3882" lon="24.4817">
        <ele>4.886524</ele>
        <time>2020-10-07T23:43:39.756Z</time>
      </trkpt>
      <trkpt lat="58.38887" lon="24.4818">
        <ele>4.944297</ele>
        <time>2020-10-07T23:43:55.729Z</time>
      </trkpt>
      <trkpt lat="58.38914" lon="24.48184">
        <ele>5.007481</ele>
        <time>2020-10-07T23:44:02.294Z</time>
      </trkpt>
      <trkpt lat="58.38936" lon="24.48189">
        <ele>5.126196</ele>
        <time>2020-10-07T23:44:07.759Z</time>
      </trkpt>
      <trkpt lat="58.38953" lon="24.48197">
        <ele>5.21768</ele>
        <time>2020-10-07T23:44:12.104Z</time>
      </trkpt>
      <trkpt lat="58.3897" lon="24.48209">
        <ele>5.314854</ele>
        <time>2020-10-07T23:44:16.645Z</time>
      </trkpt>
      <trkpt lat="58.38986" lon="24.48237">
        <ele>5.426218</ele>
        <time>2020-10-07T23:44:21.932Z</time>
      </trkpt>
      <trkpt lat="58.39035" lon="24.48307">
        <ele>5.752532</ele>
        <time>2020-10-07T23:44:37.310Z</time>
      </trkpt>
      <trkpt lat="58.39042" lon="24.48323">
        <ele>5.809655</ele>
        <time>2020-10-07T23:44:40.043Z</time>
      </trkpt>
      <trkpt lat="58.39047" lon="24.48363">
        <ele>5.914903</ele>
        <time>2020-10-07T23:44:45.178Z</time>
      </trkpt>
      <trkpt lat="58.39053" lon="24.48417">
        <ele>5.972204</ele>
        <time>2020-10-07T23:44:52.012Z</time>
      </trkpt>
      <trkpt lat="58.39054" lon="24.48432">
        <ele>5.987557</ele>
        <time>2020-10-07T23:44:53.778Z</time>
      </trkpt>
      <trkpt lat="58.39063" lon="24.48518">
        <ele>6.07798</ele>
        <time>2020-10-07T23:45:04.073Z</time>
      </trkpt>
      <trkpt lat="58.39063" lon="24.48525">
        <ele>6.085317</ele>
        <time>2020-10-07T23:45:04.927Z</time>
      </trkpt>
      <trkpt lat="58.39076" lon="24.48659">
        <ele>6.226854</ele>
        <time>2020-10-07T23:45:21.136Z</time>
      </trkpt>
      <trkpt lat="58.39078" lon="24.48676">
        <ele>6.244996</ele>
        <time>2020-10-07T23:45:23.234Z</time>
      </trkpt>
      <trkpt lat="58.39086" lon="24.48763">
        <ele>6.4093</ele>
        <time>2020-10-07T23:45:34.047Z</time>
      </trkpt>
      <trkpt lat="58.39087" lon="24.48771">
        <ele>6.427197</ele>
        <time>2020-10-07T23:45:35.096Z</time>
      </trkpt>
      <trkpt lat="58.39089" lon="24.48792">
        <ele>6.471731</ele>
        <time>2020-10-07T23:45:37.797Z</time>
      </trkpt>
      <trkpt lat="58.39101" lon="24.48926">
        <ele>6.756413</ele>
        <time>2020-10-07T23:45:54.753Z</time>
      </trkpt>
      <trkpt lat="58.39114" lon="24.49052">
        <ele>6.986336</ele>
        <time>2020-10-07T23:46:11.004Z</time>
      </trkpt>
      <trkpt lat="58.3912" lon="24.49116">
        <ele>6.993705</ele>
        <time>2020-10-07T23:46:19.482Z</time>
      </trkpt>
      <trkpt lat="58.39125" lon="24.4917">
        <ele>7.000002</ele>
        <time>2020-10-07T23:46:26.551Z</time>
      </trkpt>
      <trkpt lat="58.39129" lon="24.49214">
        <ele>7.00519</ele>
        <time>2020-10-07T23:46:32.316Z</time>
      </trkpt>
      <trkpt lat="58.39133" lon="24.49258">
        <ele>7.010316</ele>
        <time>2020-10-07T23:46:37.383Z</time>
      </trkpt>
      <trkpt lat="58.39135" lon="24.4928">
        <ele>7.012896</ele>
        <time>2020-10-07T23:46:40.041Z</time>
      </trkpt>
      <trkpt lat="58.39136" lon="24.49291">
        <ele>7.014109</ele>
        <time>2020-10-07T23:46:41.282Z</time>
      </trkpt>
      <trkpt lat="58.39147" lon="24.49396">
        <ele>6.886756</ele>
        <time>2020-10-07T23:46:52.563Z</time>
      </trkpt>
      <trkpt lat="58.39151" lon="24.49441">
        <ele>6.650819</ele>
        <time>2020-10-07T23:46:57.266Z</time>
      </trkpt>
      <trkpt lat="58.39154" lon="24.49487">
        <ele>6.407097</ele>
        <time>2020-10-07T23:47:01.723Z</time>
      </trkpt>
      <trkpt lat="58.39155" lon="24.49497">
        <ele>6.353797</ele>
        <time>2020-10-07T23:47:02.775Z</time>
      </trkpt>
      <trkpt lat="58.3915" lon="24.49499">
        <ele>6.297258</ele>
        <time>2020-10-07T23:47:03.905Z</time>
      </trkpt>
      <trkpt lat="58.39144" lon="24.49501">
        <ele>6.241701</ele>
        <time>2020-10-07T23:47:05.017Z</time>
      </trkpt>
      <trkpt lat="58.39141" lon="24.49502">
        <ele>6.206467</ele>
        <time>2020-10-07T23:47:05.551Z</time>
      </trkpt>
      <trkpt lat="58.39079" lon="24.49518">
        <ele>5.588512</ele>
        <time>2020-10-07T23:47:17.612Z</time>
      </trkpt>
      <trkpt lat="58.39029" lon="24.49532">
        <ele>5.214273</ele>
        <time>2020-10-07T23:47:27.001Z</time>
      </trkpt>
      <trkpt lat="58.39025" lon="24.49531">
        <ele>5.209476</ele>
        <time>2020-10-07T23:47:27.769Z</time>
      </trkpt>
      <trkpt lat="58.39025" lon="24.49542">
        <ele>5.202254</ele>
        <time>2020-10-07T23:47:28.974Z</time>
      </trkpt>
      <trkpt lat="58.39023" lon="24.49548">
        <ele>5.19698</ele>
        <time>2020-10-07T23:47:29.895Z</time>
      </trkpt>
      <trkpt lat="58.39017" lon="24.49552">
        <ele>5.188997</ele>
        <time>2020-10-07T23:47:31.232Z</time>
      </trkpt>
      <trkpt lat="58.38783" lon="24.49616">
        <ele>5.455124</ele>
        <time>2020-10-07T23:48:27.773Z</time>
      </trkpt>
      <trkpt lat="58.38775" lon="24.49618">
        <ele>5.496839</ele>
        <time>2020-10-07T23:48:30.112Z</time>
      </trkpt>
      <trkpt lat="58.38766" lon="24.49611">
        <ele>5.545093</ele>
        <time>2020-10-07T23:48:32.553Z</time>
      </trkpt>
      <trkpt lat="58.38763" lon="24.49597">
        <ele>5.582594</ele>
        <time>2020-10-07T23:48:34.437Z</time>
      </trkpt>
      <trkpt lat="58.38764" lon="24.4958">
        <ele>5.628014</ele>
        <time>2020-10-07T23:48:36.998Z</time>
      </trkpt>
      <trkpt lat="58.38761" lon="24.4958">
        <ele>5.643309</ele>
        <time>2020-10-07T23:48:39.129Z</time>
      </trkpt>
      <trkpt lat="58.38757" lon="24.4958">
        <ele>5.660712</ele>
        <time>2020-10-07T23:48:41.603Z</time>
      </trkpt>
      <trkpt lat="58.38761" lon="24.49618">
        <ele>5.759875</ele>
        <time>2020-10-07T23:48:47.813Z</time>
      </trkpt>
      <trkpt lat="58.38738" lon="24.49602">
        <ele>5.883557</ele>
        <time>2020-10-07T23:48:54.368Z</time>
      </trkpt>
      <trkpt lat="58.38727" lon="24.49594">
        <ele>5.973412</ele>
        <time>2020-10-07T23:48:57.282Z</time>
      </trkpt>
      <trkpt lat="58.38723" lon="24.49592">
        <ele>6.005786</ele>
        <time>2020-10-07T23:48:58.370Z</time>
      </trkpt>
      <trkpt lat="58.38698" lon="24.49576">
        <ele>6.224311</ele>
        <time>2020-10-07T23:49:05.270Z</time>
      </trkpt>
      <trkpt lat="58.38637" lon="24.49573">
        <ele>6.730429</ele>
        <time>2020-10-07T23:49:21.286Z</time>
      </trkpt>
      <trkpt lat="58.38611" lon="24.49578">
        <ele>6.943207</ele>
        <time>2020-10-07T23:49:27.691Z</time>
      </trkpt>
      <trkpt lat="58.38606" lon="24.49579">
        <ele>6.984002</ele>
        <time>2020-10-07T23:49:28.964Z</time>
      </trkpt>
      <trkpt lat="58.38569" lon="24.49588">
        <ele>7.292249</ele>
        <time>2020-10-07T23:49:38.457Z</time>
      </trkpt>
      <trkpt lat="58.38504" lon="24.49598">
        <ele>7.62458</ele>
        <time>2020-10-07T23:49:54.856Z</time>
      </trkpt>
      <trkpt lat="58.38473" lon="24.49602">
        <ele>7.764123</ele>
        <time>2020-10-07T23:50:02.555Z</time>
      </trkpt>
      <trkpt lat="58.38444" lon="24.49607">
        <ele>7.898311</ele>
        <time>2020-10-07T23:50:09.839Z</time>
      </trkpt>
      <trkpt lat="58.3838" lon="24.49615">
        <ele>8.184018</ele>
        <time>2020-10-07T23:50:24.274Z</time>
      </trkpt>
      <trkpt lat="58.38374" lon="24.49613">
        <ele>8.198198</ele>
        <time>2020-10-07T23:50:25.595Z</time>
      </trkpt>
      <trkpt lat="58.38306" lon="24.49622">
        <ele>8.331228</ele>
        <time>2020-10-07T23:50:40.702Z</time>
      </trkpt>
      <trkpt lat="58.383" lon="24.49623">
        <ele>8.342303</ele>
        <time>2020-10-07T23:50:42.089Z</time>
      </trkpt>
      <trkpt lat="58.38294" lon="24.49625">
        <ele>8.353365</ele>
        <time>2020-10-07T23:50:43.471Z</time>
      </trkpt>
      <trkpt lat="58.38301" lon="24.49766">
        <ele>8.49696</ele>
        <time>2020-10-07T23:51:01.365Z</time>
      </trkpt>
      <trkpt lat="58.38299" lon="24.49774">
        <ele>8.506134</ele>
        <time>2020-10-07T23:51:02.337Z</time>
      </trkpt>
      <trkpt lat="58.38299" lon="24.4978">
        <ele>8.511509</ele>
        <time>2020-10-07T23:51:02.965Z</time>
      </trkpt>
      <trkpt lat="58.383" lon="24.49789">
        <ele>8.521341</ele>
        <time>2020-10-07T23:51:04.091Z</time>
      </trkpt>
      <trkpt lat="58.38301" lon="24.49803">
        <ele>8.535386</ele>
        <time>2020-10-07T23:51:05.805Z</time>
      </trkpt>
      <trkpt lat="58.38304" lon="24.49868">
        <ele>8.528921</ele>
        <time>2020-10-07T23:51:13.729Z</time>
      </trkpt>
      <trkpt lat="58.38307" lon="24.49969">
        <ele>8.517098</ele>
        <time>2020-10-07T23:51:25.873Z</time>
      </trkpt>
      <trkpt lat="58.38308" lon="24.49978">
        <ele>8.516019</ele>
        <time>2020-10-07T23:51:26.843Z</time>
      </trkpt>
      <trkpt lat="58.38308" lon="24.49996">
        <ele>8.513908</ele>
        <time>2020-10-07T23:51:28.876Z</time>
      </trkpt>
      <trkpt lat="58.38312" lon="24.50061">
        <ele>8.506333</ele>
        <time>2020-10-07T23:51:36.218Z</time>
      </trkpt>
      <trkpt lat="58.38314" lon="24.50134">
        <ele>8.497732</ele>
        <time>2020-10-07T23:51:44.884Z</time>
      </trkpt>
      <trkpt lat="58.38312" lon="24.5015">
        <ele>8.488334</ele>
        <time>2020-10-07T23:51:46.707Z</time>
      </trkpt>
      <trkpt lat="58.38224" lon="24.50187">
        <ele>8.146532</ele>
        <time>2020-10-07T23:52:05.207Z</time>
      </trkpt>
      <trkpt lat="58.38216" lon="24.5019">
        <ele>8.11579</ele>
        <time>2020-10-07T23:52:06.829Z</time>
      </trkpt>
      <trkpt lat="58.38218" lon="24.50205">
        <ele>8.086395</ele>
        <time>2020-10-07T23:52:08.459Z</time>
      </trkpt>
      <trkpt lat="58.38135" lon="24.50234">
        <ele>7.811275</ele>
        <time>2020-10-07T23:52:25.989Z</time>
      </trkpt>
      <trkpt lat="58.38129" lon="24.50237">
        <ele>7.810634</ele>
        <time>2020-10-07T23:52:27.293Z</time>
      </trkpt>
      <trkpt lat="58.38118" lon="24.5024">
        <ele>7.809414</ele>
        <time>2020-10-07T23:52:29.666Z</time>
      </trkpt>
      <trkpt lat="58.38102" lon="24.50245">
        <ele>7.807544</ele>
        <time>2020-10-07T23:52:33.392Z</time>
      </trkpt>
      <trkpt lat="58.38096" lon="24.50245">
        <ele>7.806947</ele>
        <time>2020-10-07T23:52:34.676Z</time>
      </trkpt>
      <trkpt lat="58.38023" lon="24.50159">
        <ele>7.797385</ele>
        <time>2020-10-07T23:52:54.308Z</time>
      </trkpt>
      <trkpt lat="58.37977" lon="24.50107">
        <ele>7.809223</ele>
        <time>2020-10-07T23:53:06.182Z</time>
      </trkpt>
      <trkpt lat="58.37911" lon="24.50026">
        <ele>7.930259</ele>
        <time>2020-10-07T23:53:23.792Z</time>
      </trkpt>
      <trkpt lat="58.37811" lon="24.49907">
        <ele>8.031246</ele>
        <time>2020-10-07T23:53:51.553Z</time>
      </trkpt>
      <trkpt lat="58.37802" lon="24.49897">
        <ele>8.016298</ele>
        <time>2020-10-07T23:53:53.827Z</time>
      </trkpt>
      <trkpt lat="58.37796" lon="24.49888">
        <ele>8.004706</ele>
        <time>2020-10-07T23:53:55.592Z</time>
      </trkpt>
      <trkpt lat="58.37791" lon="24.49879">
        <ele>7.994983</ele>
        <time>2020-10-07T23:53:57.068Z</time>
      </trkpt>
      <trkpt lat="58.37785" lon="24.49872">
        <ele>7.985044</ele>
        <time>2020-10-07T23:53:58.633Z</time>
      </trkpt>
      <trkpt lat="58.37784" lon="24.4987">
        <ele>7.982129</ele>
        <time>2020-10-07T23:53:59.085Z</time>
      </trkpt>
      <trkpt lat="58.37751" lon="24.49832">
        <ele>7.925906</ele>
        <time>2020-10-07T23:54:07.524Z</time>
      </trkpt>
      <trkpt lat="58.37688" lon="24.49758">
        <ele>7.818185</ele>
        <time>2020-10-07T23:54:23.000Z</time>
      </trkpt>
      <trkpt lat="58.37649" lon="24.49712">
        <ele>7.558011</ele>
        <time>2020-10-07T23:54:32.411Z</time>
      </trkpt>
      <trkpt lat="58.37641" lon="24.49714">
        <ele>7.510903</ele>
        <time>2020-10-07T23:54:33.936Z</time>
      </trkpt>
      <trkpt lat="58.37632" lon="24.49716">
        <ele>7.45435</ele>
        <time>2020-10-07T23:54:35.767Z</time>
      </trkpt>
      <trkpt lat="58.37621" lon="24.49719">
        <ele>7.383509</ele>
        <time>2020-10-07T23:54:38.077Z</time>
      </trkpt>
      <trkpt lat="58.37613" lon="24.49717">
        <ele>7.330206</ele>
        <time>2020-10-07T23:54:39.758Z</time>
      </trkpt>
      <trkpt lat="58.37593" lon="24.49699">
        <ele>7.19194</ele>
        <time>2020-10-07T23:54:44.095Z</time>
      </trkpt>
      <trkpt lat="58.37582" lon="24.49704">
        <ele>7.121349</ele>
        <time>2020-10-07T23:54:46.324Z</time>
      </trkpt>
      <trkpt lat="58.37574" lon="24.49717">
        <ele>7.054558</ele>
        <time>2020-10-07T23:54:48.568Z</time>
      </trkpt>
      <trkpt lat="58.37564" lon="24.49711">
        <ele>6.988737</ele>
        <time>2020-10-07T23:54:50.574Z</time>
      </trkpt>
      <trkpt lat="58.37559" lon="24.49706">
        <ele>6.950646</ele>
        <time>2020-10-07T23:54:51.763Z</time>
      </trkpt>
      <trkpt lat="58.37557" lon="24.49699">
        <ele>6.924591</ele>
        <time>2020-10-07T23:54:52.558Z</time>
      </trkpt>
      <trkpt lat="58.37543" lon="24.49752">
        <ele>6.729546</ele>
        <time>2020-10-07T23:54:58.658Z</time>
      </trkpt>
      <trkpt lat="58.37541" lon="24.49759">
        <ele>6.701765</ele>
        <time>2020-10-07T23:54:59.525Z</time>
      </trkpt>
      <trkpt lat="58.37515" lon="24.49854">
        <ele>6.537796</ele>
        <time>2020-10-07T23:55:11.466Z</time>
      </trkpt>
      <trkpt lat="58.37509" lon="24.49848">
        <ele>6.518743</ele>
        <time>2020-10-07T23:55:13.365Z</time>
      </trkpt>
      <trkpt lat="58.37499" lon="24.49869">
        <ele>6.479966</ele>
        <time>2020-10-07T23:55:18.701Z</time>
      </trkpt>
      <trkpt lat="58.37499" lon="24.49869">
        <ele>6.479966</ele>
        <time>2020-10-07T23:55:18.726Z</time>
      </trkpt>
      <trkpt lat="58.37508" lon="24.49879">
        <ele>6.451252</ele>
        <time>2020-10-07T23:55:26.273Z</time>
      </trkpt>
      <trkpt lat="58.37495" lon="24.49928">
        <ele>6.37479</ele>
        <time>2020-10-07T23:55:32.557Z</time>
      </trkpt>
      <trkpt lat="58.37479" lon="24.49988">
        <ele>6.280836</ele>
        <time>2020-10-07T23:55:40.503Z</time>
      </trkpt>
      <trkpt lat="58.37436" lon="24.50147">
        <ele>5.803662</ele>
        <time>2020-10-07T23:56:00.433Z</time>
      </trkpt>
      <trkpt lat="58.37429" lon="24.50174">
        <ele>5.699731</ele>
        <time>2020-10-07T23:56:03.595Z</time>
      </trkpt>
      <trkpt lat="58.37387" lon="24.50331">
        <ele>5.113525</ele>
        <time>2020-10-07T23:56:21.948Z</time>
      </trkpt>
      <trkpt lat="58.37365" lon="24.50414">
        <ele>4.697094</ele>
        <time>2020-10-07T23:56:31.297Z</time>
      </trkpt>
      <trkpt lat="58.37357" lon="24.50442">
        <ele>4.545197</ele>
        <time>2020-10-07T23:56:34.479Z</time>
      </trkpt>
      <trkpt lat="58.37263" lon="24.50792">
        <ele>2.999281</ele>
        <time>2020-10-07T23:57:14.970Z</time>
      </trkpt>
      <trkpt lat="58.37262" lon="24.50808">
        <ele>2.956578</ele>
        <time>2020-10-07T23:57:16.843Z</time>
      </trkpt>
      <trkpt lat="58.3726" lon="24.50821">
        <ele>2.920541</ele>
        <time>2020-10-07T23:57:18.346Z</time>
      </trkpt>
      <trkpt lat="58.37259" lon="24.50834">
        <ele>2.885509</ele>
        <time>2020-10-07T23:57:19.759Z</time>
      </trkpt>
      <trkpt lat="58.37256" lon="24.50863">
        <ele>2.805452</ele>
        <time>2020-10-07T23:57:23.207Z</time>
      </trkpt>
      <trkpt lat="58.37253" lon="24.50902">
        <ele>2.701243</ele>
        <time>2020-10-07T23:57:27.555Z</time>
      </trkpt>
      <trkpt lat="58.3725" lon="24.50978">
        <ele>2.504827</ele>
        <time>2020-10-07T23:57:36.264Z</time>
      </trkpt>
      <trkpt lat="58.37252" lon="24.51022">
        <ele>2.503307</ele>
        <time>2020-10-07T23:57:41.408Z</time>
      </trkpt>
      <trkpt lat="58.37251" lon="24.51088">
        <ele>2.50101</ele>
        <time>2020-10-07T23:57:49.095Z</time>
      </trkpt>
      <trkpt lat="58.37253" lon="24.51146">
        <ele>2.499001</ele>
        <time>2020-10-07T23:57:55.928Z</time>
      </trkpt>
      <trkpt lat="58.37255" lon="24.51179">
        <ele>2.497858</ele>
        <time>2020-10-07T23:57:59.840Z</time>
      </trkpt>
      <trkpt lat="58.37259" lon="24.51206">
        <ele>2.496862</ele>
        <time>2020-10-07T23:58:03.357Z</time>
      </trkpt>
      <trkpt lat="58.37318" lon="24.51414">
        <ele>2.326802</ele>
        <time>2020-10-07T23:58:31.001Z</time>
      </trkpt>
      <trkpt lat="58.37305" lon="24.51448">
        <ele>2.271596</ele>
        <time>2020-10-07T23:58:35.580Z</time>
      </trkpt>
      <trkpt lat="58.373" lon="24.51464">
        <ele>2.247437</ele>
        <time>2020-10-07T23:58:37.764Z</time>
      </trkpt>
      <trkpt lat="58.37293" lon="24.51504">
        <ele>2.191539</ele>
        <time>2020-10-07T23:58:42.332Z</time>
      </trkpt>
      <trkpt lat="58.37291" lon="24.51525">
        <ele>2.164623</ele>
        <time>2020-10-07T23:58:44.735Z</time>
      </trkpt>
      <trkpt lat="58.37281" lon="24.51546">
        <ele>2.12517</ele>
        <time>2020-10-07T23:58:47.859Z</time>
      </trkpt>
      <trkpt lat="58.37221" lon="24.5165">
        <ele>1.912177</ele>
        <time>2020-10-07T23:59:04.596Z</time>
      </trkpt>
      <trkpt lat="58.37203" lon="24.51724">
        <ele>1.79488</ele>
        <time>2020-10-07T23:59:13.818Z</time>
      </trkpt>
      <trkpt lat="58.37196" lon="24.51778">
        <ele>1.715357</ele>
        <time>2020-10-07T23:59:19.865Z</time>
      </trkpt>
      <trkpt lat="58.37194" lon="24.51853">
        <ele>1.606626</ele>
        <time>2020-10-07T23:59:28.471Z</time>
      </trkpt>
      <trkpt lat="58.37179" lon="24.5196">
        <ele>1.658025</ele>
        <time>2020-10-07T23:59:41.399Z</time>
      </trkpt>
      <trkpt lat="58.37151" lon="24.52053">
        <ele>1.818733</ele>
        <time>2020-10-07T23:59:54.197Z</time>
      </trkpt>
      <trkpt lat="58.37081" lon="24.52199">
        <ele>2.190728</ele>
        <time>2020-10-08T00:00:19.402Z</time>
      </trkpt>
      <trkpt lat="58.3706" lon="24.52255">
        <ele>2.443591</ele>
        <time>2020-10-08T00:00:28.688Z</time>
      </trkpt>
      <trkpt lat="58.37041" lon="24.52333">
        <ele>2.75684</ele>
        <time>2020-10-08T00:00:40.338Z</time>
      </trkpt>
      <trkpt lat="58.37034" lon="24.52391">
        <ele>2.972186</ele>
        <time>2020-10-08T00:00:48.180Z</time>
      </trkpt>
      <trkpt lat="58.37032" lon="24.52459">
        <ele>3.223614</ele>
        <time>2020-10-08T00:00:57.261Z</time>
      </trkpt>
      <trkpt lat="58.3703" lon="24.52513">
        <ele>3.348787</ele>
        <time>2020-10-08T00:01:04.172Z</time>
      </trkpt>
      <trkpt lat="58.3703" lon="24.52516">
        <ele>3.352517</ele>
        <time>2020-10-08T00:01:04.655Z</time>
      </trkpt>
      <trkpt lat="58.37031" lon="24.52535">
        <ele>3.371185</ele>
        <time>2020-10-08T00:01:07.098Z</time>
      </trkpt>
      <trkpt lat="58.37033" lon="24.52552">
        <ele>3.388047</ele>
        <time>2020-10-08T00:01:09.248Z</time>
      </trkpt>
      <trkpt lat="58.37034" lon="24.52555">
        <ele>3.390911</ele>
        <time>2020-10-08T00:01:09.739Z</time>
      </trkpt>
      <trkpt lat="58.37037" lon="24.52571">
        <ele>3.408091</ele>
        <time>2020-10-08T00:01:11.826Z</time>
      </trkpt>
      <trkpt lat="58.37065" lon="24.52706">
        <ele>3.54946</ele>
        <time>2020-10-08T00:01:29.511Z</time>
      </trkpt>
      <trkpt lat="58.37068" lon="24.52751">
        <ele>3.593501</ele>
        <time>2020-10-08T00:01:34.949Z</time>
      </trkpt>
      <trkpt lat="58.3707" lon="24.52811">
        <ele>3.652855</ele>
        <time>2020-10-08T00:01:41.786Z</time>
      </trkpt>
      <trkpt lat="58.37068" lon="24.5288">
        <ele>3.520961</ele>
        <time>2020-10-08T00:01:49.275Z</time>
      </trkpt>
      <trkpt lat="58.37059" lon="24.52944">
        <ele>3.37822</ele>
        <time>2020-10-08T00:01:56.402Z</time>
      </trkpt>
      <trkpt lat="58.37045" lon="24.53004">
        <ele>3.236639</ele>
        <time>2020-10-08T00:02:03.475Z</time>
      </trkpt>
      <trkpt lat="58.37019" lon="24.5308">
        <ele>3.040646</ele>
        <time>2020-10-08T00:02:13.372Z</time>
      </trkpt>
      <trkpt lat="58.36979" lon="24.53162">
        <ele>2.857328</ele>
        <time>2020-10-08T00:02:25.688Z</time>
      </trkpt>
      <trkpt lat="58.36908" lon="24.53256">
        <ele>2.673816</ele>
        <time>2020-10-08T00:02:44.085Z</time>
      </trkpt>
      <trkpt lat="58.36884" lon="24.53296">
        <ele>2.605964</ele>
        <time>2020-10-08T00:02:51.003Z</time>
      </trkpt>
      <trkpt lat="58.36862" lon="24.53347">
        <ele>2.537701</ele>
        <time>2020-10-08T00:02:58.676Z</time>
      </trkpt>
      <trkpt lat="58.36842" lon="24.53331">
        <ele>2.560791</ele>
        <time>2020-10-08T00:03:03.600Z</time>
      </trkpt>
      <trkpt lat="58.36836" lon="24.53332">
        <ele>2.566864</ele>
        <time>2020-10-08T00:03:04.843Z</time>
      </trkpt>
      <trkpt lat="58.36826" lon="24.53348">
        <ele>2.580166</ele>
        <time>2020-10-08T00:03:07.736Z</time>
      </trkpt>
      <trkpt lat="58.36794" lon="24.53465">
        <ele>2.652851</ele>
        <time>2020-10-08T00:03:23.490Z</time>
      </trkpt>
      <trkpt lat="58.36727" lon="24.53639">
        <ele>2.805371</ele>
        <time>2020-10-08T00:03:49.591Z</time>
      </trkpt>
      <trkpt lat="58.36687" lon="24.53785">
        <ele>2.96281</ele>
        <time>2020-10-08T00:04:09.832Z</time>
      </trkpt>
      <trkpt lat="58.3665" lon="24.53863">
        <ele>3.052597</ele>
        <time>2020-10-08T00:04:22.400Z</time>
      </trkpt>
      <trkpt lat="58.36623" lon="24.53942">
        <ele>3.068517</ele>
        <time>2020-10-08T00:04:33.514Z</time>
      </trkpt>
      <trkpt lat="58.36595" lon="24.54068">
        <ele>3.091749</ele>
        <time>2020-10-08T00:04:49.514Z</time>
      </trkpt>
      <trkpt lat="58.36583" lon="24.54083">
        <ele>3.096363</ele>
        <time>2020-10-08T00:04:52.704Z</time>
      </trkpt>
      <trkpt lat="58.36572" lon="24.54091">
        <ele>3.100139</ele>
        <time>2020-10-08T00:04:55.245Z</time>
      </trkpt>
      <trkpt lat="58.36517" lon="24.54192">
        <ele>3.302315</ele>
        <time>2020-10-08T00:05:12.373Z</time>
      </trkpt>
      <trkpt lat="58.36476" lon="24.54252">
        <ele>3.500493</ele>
        <time>2020-10-08T00:05:24.243Z</time>
      </trkpt>
      <trkpt lat="58.36377" lon="24.54422">
        <ele>4.29629</ele>
        <time>2020-10-08T00:05:57.740Z</time>
      </trkpt>
      <trkpt lat="58.3631" lon="24.54564">
        <ele>5.20328</ele>
        <time>2020-10-08T00:06:24.596Z</time>
      </trkpt>
      <trkpt lat="58.36303" lon="24.54583">
        <ele>5.316809</ele>
        <time>2020-10-08T00:06:28.228Z</time>
      </trkpt>
      <trkpt lat="58.36291" lon="24.54608">
        <ele>5.451188</ele>
        <time>2020-10-08T00:06:32.623Z</time>
      </trkpt>
      <trkpt lat="58.36081" lon="24.54987">
        <ele>6.59369</ele>
        <time>2020-10-08T00:07:41.475Z</time>
      </trkpt>
      <trkpt lat="58.35985" lon="24.55196">
        <ele>6.727076</ele>
        <time>2020-10-08T00:08:13.932Z</time>
      </trkpt>
      <trkpt lat="58.3591" lon="24.55315">
        <ele>6.702549</ele>
        <time>2020-10-08T00:08:35.694Z</time>
      </trkpt>
      <trkpt lat="58.35868" lon="24.55386">
        <ele>6.727528</ele>
        <time>2020-10-08T00:08:47.990Z</time>
      </trkpt>
      <trkpt lat="58.35747" lon="24.55565">
        <ele>6.799152</ele>
        <time>2020-10-08T00:09:23.968Z</time>
      </trkpt>
      <trkpt lat="58.3574" lon="24.55576">
        <ele>6.803756</ele>
        <time>2020-10-08T00:09:26.205Z</time>
      </trkpt>
      <trkpt lat="58.35683" lon="24.55661">
        <ele>6.839283</ele>
        <time>2020-10-08T00:09:43.244Z</time>
      </trkpt>
      <trkpt lat="58.35614" lon="24.5576">
        <ele>6.833867</ele>
        <time>2020-10-08T00:10:03.514Z</time>
      </trkpt>
      <trkpt lat="58.35564" lon="24.55834">
        <ele>6.671855</ele>
        <time>2020-10-08T00:10:17.876Z</time>
      </trkpt>
      <trkpt lat="58.35513" lon="24.5591">
        <ele>6.505328</ele>
        <time>2020-10-08T00:10:32.082Z</time>
      </trkpt>
      <trkpt lat="58.35431" lon="24.5603">
        <ele>6.174827</ele>
        <time>2020-10-08T00:10:54.353Z</time>
      </trkpt>
      <trkpt lat="58.35361" lon="24.56133">
        <ele>5.86015</ele>
        <time>2020-10-08T00:11:13.669Z</time>
      </trkpt>
      <trkpt lat="58.35232" lon="24.56323">
        <ele>5.526731</ele>
        <time>2020-10-08T00:11:50.395Z</time>
      </trkpt>
      <trkpt lat="58.35103" lon="24.56511">
        <ele>5.402536</ele>
        <time>2020-10-08T00:12:27.547Z</time>
      </trkpt>
      <trkpt lat="58.34843" lon="24.56885">
        <ele>5.753798</ele>
        <time>2020-10-08T00:13:44.813Z</time>
      </trkpt>
      <trkpt lat="58.3471" lon="24.57076">
        <ele>6.094352</ele>
        <time>2020-10-08T00:14:25.250Z</time>
      </trkpt>
      <trkpt lat="58.34646" lon="24.57167">
        <ele>6.279005</ele>
        <time>2020-10-08T00:14:45.261Z</time>
      </trkpt>
      <trkpt lat="58.34616" lon="24.5721">
        <ele>6.365621</ele>
        <time>2020-10-08T00:14:53.650Z</time>
      </trkpt>
      <trkpt lat="58.34599" lon="24.57235">
        <ele>6.416998</ele>
        <time>2020-10-08T00:14:58.171Z</time>
      </trkpt>
      <trkpt lat="58.34601" lon="24.57258">
        <ele>6.446154</ele>
        <time>2020-10-08T00:15:00.929Z</time>
      </trkpt>
      <trkpt lat="58.34622" lon="24.57325">
        <ele>6.544038</ele>
        <time>2020-10-08T00:15:09.736Z</time>
      </trkpt>
      <trkpt lat="58.34671" lon="24.57472">
        <ele>6.763459</ele>
        <time>2020-10-08T00:15:30.803Z</time>
      </trkpt>
      <trkpt lat="58.34742" lon="24.57694">
        <ele>9.553129</ele>
        <time>2020-10-08T00:16:10.928Z</time>
      </trkpt>
      <trkpt lat="58.34746" lon="24.57705">
        <ele>9.704788</ele>
        <time>2020-10-08T00:16:13.452Z</time>
      </trkpt>
      <trkpt lat="58.34749" lon="24.57714">
        <ele>9.812032</ele>
        <time>2020-10-08T00:16:15.341Z</time>
      </trkpt>
      <trkpt lat="58.34783" lon="24.5781">
        <ele>11.290318</ele>
        <time>2020-10-08T00:16:37.732Z</time>
      </trkpt>
      <trkpt lat="58.34829" lon="24.57949">
        <ele>13.780962</ele>
        <time>2020-10-08T00:17:08.857Z</time>
      </trkpt>
      <trkpt lat="58.34871" lon="24.58082">
        <ele>15.829554</ele>
        <time>2020-10-08T00:17:34.486Z</time>
      </trkpt>
      <trkpt lat="58.34871" lon="24.58082">
        <ele>15.829554</ele>
        <time>2020-10-08T00:17:34.493Z</time>
      </trkpt>
      <trkpt lat="58.34929" lon="24.58267">
        <ele>17.024718</ele>
        <time>2020-10-08T00:18:04.044Z</time>
      </trkpt>
      <trkpt lat="58.34906" lon="24.58291">
        <ele>17.30497</ele>
        <time>2020-10-08T00:18:10.600Z</time>
      </trkpt>
      <trkpt lat="58.34781" lon="24.58416">
        <ele>18.400093</ele>
        <time>2020-10-08T00:18:45.653Z</time>
      </trkpt>
      <trkpt lat="58.34764" lon="24.58373">
        <ele>18.608254</ele>
        <time>2020-10-08T00:18:53.110Z</time>
      </trkpt>
      <trkpt lat="58.34762" lon="24.58368">
        <ele>18.631906</ele>
        <time>2020-10-08T00:18:54.076Z</time>
      </trkpt>
      <trkpt lat="58.34718" lon="24.58414">
        <ele>18.948835</ele>
        <time>2020-10-08T00:19:06.888Z</time>
      </trkpt>
      <trkpt lat="58.34435" lon="24.58628">
        <ele>20.166028</ele>
        <time>2020-10-08T00:20:19.524Z</time>
      </trkpt>
      <trkpt lat="58.3391" lon="24.59">
        <ele>20.401818</ele>
        <time>2020-10-08T00:22:24.697Z</time>
      </trkpt>
      <trkpt lat="58.3313" lon="24.5952">
        <ele>20.589117</ele>
        <time>2020-10-08T00:25:29.817Z</time>
      </trkpt>
      <trkpt lat="58.32906" lon="24.59633">
        <ele>20.235907</ele>
        <time>2020-10-08T00:26:21.301Z</time>
      </trkpt>
      <trkpt lat="58.32604" lon="24.59704">
        <ele>17.313823</ele>
        <time>2020-10-08T00:27:20.017Z</time>
      </trkpt>
      <trkpt lat="58.3232" lon="24.59758">
        <ele>13.841379</ele>
        <time>2020-10-08T00:28:12.795Z</time>
      </trkpt>
      <trkpt lat="58.32323" lon="24.5979">
        <ele>13.83607</ele>
        <time>2020-10-08T00:28:16.435Z</time>
      </trkpt>
      <trkpt lat="58.32095" lon="24.59856">
        <ele>13.737553</ele>
        <time>2020-10-08T00:29:10.513Z</time>
      </trkpt>
      <trkpt lat="58.32061" lon="24.59868">
        <ele>13.715831</ele>
        <time>2020-10-08T00:29:17.721Z</time>
      </trkpt>
      <trkpt lat="58.31921" lon="24.5994">
        <ele>13.700648</ele>
        <time>2020-10-08T00:29:48.308Z</time>
      </trkpt>
      <trkpt lat="58.31907" lon="24.59925">
        <ele>13.705803</ele>
        <time>2020-10-08T00:29:51.478Z</time>
      </trkpt>
      <trkpt lat="58.31528" lon="24.59766">
        <ele>15.663145</ele>
        <time>2020-10-08T00:31:25.904Z</time>
      </trkpt>
      <trkpt lat="58.31445" lon="24.59735">
        <ele>16.407458</ele>
        <time>2020-10-08T00:31:49.705Z</time>
      </trkpt>
      <trkpt lat="58.31437" lon="24.59732">
        <ele>16.489434</ele>
        <time>2020-10-08T00:31:52.152Z</time>
      </trkpt>
      <trkpt lat="58.30991" lon="24.59555">
        <ele>20.397961</ele>
        <time>2020-10-08T00:33:51.414Z</time>
      </trkpt>
      <trkpt lat="58.30875" lon="24.59509">
        <ele>19.528778</ele>
        <time>2020-10-08T00:34:14.792Z</time>
      </trkpt>
      <trkpt lat="58.30721" lon="24.59447">
        <ele>17.141013</ele>
        <time>2020-10-08T00:34:42.302Z</time>
      </trkpt>
      <trkpt lat="58.30602" lon="24.59363">
        <ele>15.124431</ele>
        <time>2020-10-08T00:35:05.470Z</time>
      </trkpt>
      <trkpt lat="58.30324" lon="24.59161">
        <ele>13.958162</ele>
        <time>2020-10-08T00:36:08.600Z</time>
      </trkpt>
      <trkpt lat="58.3022" lon="24.59087">
        <ele>13.897159</ele>
        <time>2020-10-08T00:36:32.345Z</time>
      </trkpt>
      <trkpt lat="58.30161" lon="24.59044">
        <ele>14.043005</ele>
        <time>2020-10-08T00:36:46.283Z</time>
      </trkpt>
      <trkpt lat="58.29988" lon="24.58919">
        <ele>14.951157</ele>
        <time>2020-10-08T00:37:32.951Z</time>
      </trkpt>
      <trkpt lat="58.29841" lon="24.58821">
        <ele>15.590902</ele>
        <time>2020-10-08T00:38:11.070Z</time>
      </trkpt>
      <trkpt lat="58.2981" lon="24.58823">
        <ele>15.664647</ele>
        <time>2020-10-08T00:38:18.135Z</time>
      </trkpt>
      <trkpt lat="58.29797" lon="24.58836">
        <ele>15.698635</ele>
        <time>2020-10-08T00:38:21.647Z</time>
      </trkpt>
      <trkpt lat="58.29789" lon="24.58787">
        <ele>15.76184</ele>
        <time>2020-10-08T00:38:27.568Z</time>
      </trkpt>
      <trkpt lat="58.29781" lon="24.58731">
        <ele>15.763942</ele>
        <time>2020-10-08T00:38:34.360Z</time>
      </trkpt>
      <trkpt lat="58.29766" lon="24.58665">
        <ele>15.637444</ele>
        <time>2020-10-08T00:38:42.743Z</time>
      </trkpt>
      <trkpt lat="58.29706" lon="24.58515">
        <ele>15.307493</ele>
        <time>2020-10-08T00:39:03.935Z</time>
      </trkpt>
      <trkpt lat="58.2956" lon="24.58308">
        <ele>15.304731</ele>
        <time>2020-10-08T00:39:45.458Z</time>
      </trkpt>
      <trkpt lat="58.29533" lon="24.58291">
        <ele>15.323122</ele>
        <time>2020-10-08T00:39:52.767Z</time>
      </trkpt>
      <trkpt lat="58.295" lon="24.58293">
        <ele>15.529031</ele>
        <time>2020-10-08T00:40:01.707Z</time>
      </trkpt>
      <trkpt lat="58.29406" lon="24.5823">
        <ele>16.153233</ele>
        <time>2020-10-08T00:40:28.097Z</time>
      </trkpt>
      <trkpt lat="58.29376" lon="24.5821">
        <ele>16.351997</ele>
        <time>2020-10-08T00:40:36.273Z</time>
      </trkpt>
      <trkpt lat="58.29308" lon="24.58142">
        <ele>16.315806</ele>
        <time>2020-10-08T00:40:54.797Z</time>
      </trkpt>
      <trkpt lat="58.29237" lon="24.58013">
        <ele>16.098507</ele>
        <time>2020-10-08T00:41:15.219Z</time>
      </trkpt>
      <trkpt lat="58.2916" lon="24.57917">
        <ele>16.442245</ele>
        <time>2020-10-08T00:41:36.971Z</time>
      </trkpt>
      <trkpt lat="58.29134" lon="24.57877">
        <ele>16.621139</ele>
        <time>2020-10-08T00:41:45.615Z</time>
      </trkpt>
      <trkpt lat="58.29121" lon="24.57836">
        <ele>16.75928</ele>
        <time>2020-10-08T00:41:52.527Z</time>
      </trkpt>
      <trkpt lat="58.29108" lon="24.57823">
        <ele>16.837902</ele>
        <time>2020-10-08T00:41:55.913Z</time>
      </trkpt>
      <trkpt lat="58.291" lon="24.57822">
        <ele>16.880688</ele>
        <time>2020-10-08T00:41:58.224Z</time>
      </trkpt>
      <trkpt lat="58.29067" lon="24.57819">
        <ele>17.075694</ele>
        <time>2020-10-08T00:42:06.925Z</time>
      </trkpt>
      <trkpt lat="58.29055" lon="24.57816">
        <ele>17.178918</ele>
        <time>2020-10-08T00:42:10.362Z</time>
      </trkpt>
      <trkpt lat="58.2902" lon="24.57785">
        <ele>17.501771</ele>
        <time>2020-10-08T00:42:20.344Z</time>
      </trkpt>
      <trkpt lat="58.29" lon="24.57773">
        <ele>17.678319</ele>
        <time>2020-10-08T00:42:25.857Z</time>
      </trkpt>
      <trkpt lat="58.2898" lon="24.57751">
        <ele>17.87192</ele>
        <time>2020-10-08T00:42:32.080Z</time>
      </trkpt>
      <trkpt lat="58.28933" lon="24.57729">
        <ele>18.281414</ele>
        <time>2020-10-08T00:42:45.058Z</time>
      </trkpt>
      <trkpt lat="58.28882" lon="24.57721">
        <ele>18.663544</ele>
        <time>2020-10-08T00:42:56.644Z</time>
      </trkpt>
      <trkpt lat="58.28862" lon="24.57719">
        <ele>18.785922</ele>
        <time>2020-10-08T00:43:01.254Z</time>
      </trkpt>
      <trkpt lat="58.28859" lon="24.57719">
        <ele>18.803395</ele>
        <time>2020-10-08T00:43:02.239Z</time>
      </trkpt>
      <trkpt lat="58.28795" lon="24.57717">
        <ele>19.203188</ele>
        <time>2020-10-08T00:43:18.204Z</time>
      </trkpt>
      <trkpt lat="58.28748" lon="24.57687">
        <ele>19.513481</ele>
        <time>2020-10-08T00:43:31.646Z</time>
      </trkpt>
      <trkpt lat="58.28709" lon="24.57674">
        <ele>19.653457</ele>
        <time>2020-10-08T00:43:42.697Z</time>
      </trkpt>
      <trkpt lat="58.28698" lon="24.57676">
        <ele>19.651722</ele>
        <time>2020-10-08T00:43:45.501Z</time>
      </trkpt>
      <trkpt lat="58.28609" lon="24.57606">
        <ele>19.636011</ele>
        <time>2020-10-08T00:44:08.174Z</time>
      </trkpt>
      <trkpt lat="58.28541" lon="24.57574">
        <ele>19.364486</ele>
        <time>2020-10-08T00:44:22.037Z</time>
      </trkpt>
      <trkpt lat="58.28354" lon="24.57521">
        <ele>16.211506</ele>
        <time>2020-10-08T00:44:54.919Z</time>
      </trkpt>
      <trkpt lat="58.28324" lon="24.5753">
        <ele>16.141807</ele>
        <time>2020-10-08T00:45:00.665Z</time>
      </trkpt>
      <trkpt lat="58.2831" lon="24.57541">
        <ele>16.108674</ele>
        <time>2020-10-08T00:45:03.490Z</time>
      </trkpt>
      <trkpt lat="58.2825" lon="24.57443">
        <ele>15.929692</ele>
        <time>2020-10-08T00:45:21.404Z</time>
      </trkpt>
      <trkpt lat="58.28247" lon="24.57437">
        <ele>15.919527</ele>
        <time>2020-10-08T00:45:22.573Z</time>
      </trkpt>
      <trkpt lat="58.28167" lon="24.57293">
        <ele>17.322974</ele>
        <time>2020-10-08T00:45:55.407Z</time>
      </trkpt>
      <trkpt lat="58.28089" lon="24.57158">
        <ele>19.082874</ele>
        <time>2020-10-08T00:46:27.579Z</time>
      </trkpt>
      <trkpt lat="58.28055" lon="24.571">
        <ele>19.393438</ele>
        <time>2020-10-08T00:46:39.849Z</time>
      </trkpt>
      <trkpt lat="58.28" lon="24.57004">
        <ele>19.909441</ele>
        <time>2020-10-08T00:46:58.284Z</time>
      </trkpt>
      <trkpt lat="58.2799" lon="24.56985">
        <ele>20.007551</ele>
        <time>2020-10-08T00:47:01.542Z</time>
      </trkpt>
      <trkpt lat="58.27926" lon="24.56874">
        <ele>20.12443</ele>
        <time>2020-10-08T00:47:20.173Z</time>
      </trkpt>
      <trkpt lat="58.27845" lon="24.56732">
        <ele>19.816824</ele>
        <time>2020-10-08T00:47:43.274Z</time>
      </trkpt>
      <trkpt lat="58.27676" lon="24.5644">
        <ele>19.313114</ele>
        <time>2020-10-08T00:48:32.061Z</time>
      </trkpt>
      <trkpt lat="58.27673" lon="24.56436">
        <ele>19.31047</ele>
        <time>2020-10-08T00:48:33.029Z</time>
      </trkpt>
      <trkpt lat="58.27634" lon="24.56374">
        <ele>19.270022</ele>
        <time>2020-10-08T00:48:44.348Z</time>
      </trkpt>
      <trkpt lat="58.27586" lon="24.56301">
        <ele>19.221749</ele>
        <time>2020-10-08T00:48:57.958Z</time>
      </trkpt>
      <trkpt lat="58.27515" lon="24.56196">
        <ele>18.955898</ele>
        <time>2020-10-08T00:49:17.405Z</time>
      </trkpt>
      <trkpt lat="58.27465" lon="24.56122">
        <ele>18.680247</ele>
        <time>2020-10-08T00:49:30.448Z</time>
      </trkpt>
      <trkpt lat="58.2741" lon="24.56041">
        <ele>18.357901</ele>
        <time>2020-10-08T00:49:44.639Z</time>
      </trkpt>
      <trkpt lat="58.27357" lon="24.55966">
        <ele>17.908874</ele>
        <time>2020-10-08T00:49:57.973Z</time>
      </trkpt>
      <trkpt lat="58.27342" lon="24.55946">
        <ele>17.786573</ele>
        <time>2020-10-08T00:50:01.592Z</time>
      </trkpt>
      <trkpt lat="58.27238" lon="24.55811">
        <ele>17.055837</ele>
        <time>2020-10-08T00:50:26.737Z</time>
      </trkpt>
      <trkpt lat="58.27139" lon="24.55696">
        <ele>16.638564</ele>
        <time>2020-10-08T00:50:51.050Z</time>
      </trkpt>
      <trkpt lat="58.27039" lon="24.55584">
        <ele>17.063921</ele>
        <time>2020-10-08T00:51:18.173Z</time>
      </trkpt>
      <trkpt lat="58.27026" lon="24.55569">
        <ele>17.149386</ele>
        <time>2020-10-08T00:51:22.050Z</time>
      </trkpt>
      <trkpt lat="58.26799" lon="24.55316">
        <ele>19.220417</ele>
        <time>2020-10-08T00:52:30.289Z</time>
      </trkpt>
      <trkpt lat="58.26639" lon="24.55155">
        <ele>20.362784</ele>
        <time>2020-10-08T00:53:15.042Z</time>
      </trkpt>
      <trkpt lat="58.2645" lon="24.54965">
        <ele>21.339334</ele>
        <time>2020-10-08T00:54:06.929Z</time>
      </trkpt>
      <trkpt lat="58.26358" lon="24.54858">
        <ele>21.721603</ele>
        <time>2020-10-08T00:54:32.182Z</time>
      </trkpt>
      <trkpt lat="58.26213" lon="24.54655">
        <ele>22.389864</ele>
        <time>2020-10-08T00:55:14.970Z</time>
      </trkpt>
      <trkpt lat="58.26064" lon="24.54406">
        <ele>22.889085</ele>
        <time>2020-10-08T00:56:01.982Z</time>
      </trkpt>
      <trkpt lat="58.25904" lon="24.54123">
        <ele>22.231044</ele>
        <time>2020-10-08T00:56:47.190Z</time>
      </trkpt>
      <trkpt lat="58.25806" lon="24.53927">
        <ele>22.025505</ele>
        <time>2020-10-08T00:57:18.461Z</time>
      </trkpt>
      <trkpt lat="58.25703" lon="24.53702">
        <ele>21.567034</ele>
        <time>2020-10-08T00:57:53.417Z</time>
      </trkpt>
      <trkpt lat="58.25535" lon="24.53276">
        <ele>17.990576</ele>
        <time>2020-10-08T00:58:46.118Z</time>
      </trkpt>
      <trkpt lat="58.25531" lon="24.53266">
        <ele>17.869102</ele>
        <time>2020-10-08T00:58:47.196Z</time>
      </trkpt>
      <trkpt lat="58.25478" lon="24.53129">
        <ele>16.203667</ele>
        <time>2020-10-08T00:59:02.685Z</time>
      </trkpt>
      <trkpt lat="58.25344" lon="24.52807">
        <ele>12.747336</ele>
        <time>2020-10-08T00:59:41.445Z</time>
      </trkpt>
      <trkpt lat="58.25332" lon="24.52782">
        <ele>12.644846</ele>
        <time>2020-10-08T00:59:45.184Z</time>
      </trkpt>
      <trkpt lat="58.25297" lon="24.52709">
        <ele>12.343012</ele>
        <time>2020-10-08T00:59:56.600Z</time>
      </trkpt>
      <trkpt lat="58.2525" lon="24.52618">
        <ele>11.953961</ele>
        <time>2020-10-08T01:00:10.510Z</time>
      </trkpt>
      <trkpt lat="58.25216" lon="24.52559">
        <ele>11.811902</ele>
        <time>2020-10-08T01:00:20.309Z</time>
      </trkpt>
      <trkpt lat="58.25184" lon="24.52502">
        <ele>11.779294</ele>
        <time>2020-10-08T01:00:30.029Z</time>
      </trkpt>
      <trkpt lat="58.2513" lon="24.52409">
        <ele>11.725915</ele>
        <time>2020-10-08T01:00:46.430Z</time>
      </trkpt>
      <trkpt lat="58.25111" lon="24.52376">
        <ele>11.706724</ele>
        <time>2020-10-08T01:00:52.333Z</time>
      </trkpt>
      <trkpt lat="58.25048" lon="24.52268">
        <ele>11.663994</ele>
        <time>2020-10-08T01:01:10.166Z</time>
      </trkpt>
      <trkpt lat="58.25042" lon="24.52257">
        <ele>11.659836</ele>
        <time>2020-10-08T01:01:12.341Z</time>
      </trkpt>
      <trkpt lat="58.2501" lon="24.52201">
        <ele>11.639491</ele>
        <time>2020-10-08T01:01:22.456Z</time>
      </trkpt>
      <trkpt lat="58.24959" lon="24.52115">
        <ele>11.58455</ele>
        <time>2020-10-08T01:01:37.631Z</time>
      </trkpt>
      <trkpt lat="58.24911" lon="24.52034">
        <ele>11.424273</ele>
        <time>2020-10-08T01:01:51.000Z</time>
      </trkpt>
      <trkpt lat="58.24894" lon="24.52006">
        <ele>11.367952</ele>
        <time>2020-10-08T01:01:55.654Z</time>
      </trkpt>
      <trkpt lat="58.24851" lon="24.51941">
        <ele>11.23216</ele>
        <time>2020-10-08T01:02:07.124Z</time>
      </trkpt>
      <trkpt lat="58.24829" lon="24.51909">
        <ele>11.168717</ele>
        <time>2020-10-08T01:02:13.515Z</time>
      </trkpt>
      <trkpt lat="58.24757" lon="24.51812">
        <ele>11.352535</ele>
        <time>2020-10-08T01:02:33.367Z</time>
      </trkpt>
      <trkpt lat="58.24752" lon="24.51807">
        <ele>11.362879</ele>
        <time>2020-10-08T01:02:34.602Z</time>
      </trkpt>
      <trkpt lat="58.24723" lon="24.51773">
        <ele>11.434944</ele>
        <time>2020-10-08T01:02:42.569Z</time>
      </trkpt>
      <trkpt lat="58.24714" lon="24.51763">
        <ele>11.455943</ele>
        <time>2020-10-08T01:02:45.077Z</time>
      </trkpt>
      <trkpt lat="58.24684" lon="24.5173">
        <ele>11.528711</ele>
        <time>2020-10-08T01:02:53.425Z</time>
      </trkpt>
      <trkpt lat="58.24628" lon="24.51674">
        <ele>11.814592</ele>
        <time>2020-10-08T01:03:08.929Z</time>
      </trkpt>
      <trkpt lat="58.24615" lon="24.51662">
        <ele>11.881688</ele>
        <time>2020-10-08T01:03:12.466Z</time>
      </trkpt>
      <trkpt lat="58.2458" lon="24.51628">
        <ele>12.068566</ele>
        <time>2020-10-08T01:03:22.281Z</time>
      </trkpt>
      <trkpt lat="58.24518" lon="24.51571">
        <ele>12.392059</ele>
        <time>2020-10-08T01:03:38.479Z</time>
      </trkpt>
      <trkpt lat="58.24463" lon="24.51521">
        <ele>12.432337</ele>
        <time>2020-10-08T01:03:52.945Z</time>
      </trkpt>
      <trkpt lat="58.24316" lon="24.51386">
        <ele>12.380248</ele>
        <time>2020-10-08T01:04:29.126Z</time>
      </trkpt>
      <trkpt lat="58.23957" lon="24.51061">
        <ele>10.890563</ele>
        <time>2020-10-08T01:05:52.308Z</time>
      </trkpt>
      <trkpt lat="58.23859" lon="24.50972">
        <ele>10.34337</ele>
        <time>2020-10-08T01:06:14.187Z</time>
      </trkpt>
      <trkpt lat="58.23679" lon="24.50808">
        <ele>9.523805</ele>
        <time>2020-10-08T01:06:55.313Z</time>
      </trkpt>
      <trkpt lat="58.23635" lon="24.50768">
        <ele>9.524181</ele>
        <time>2020-10-08T01:07:06.435Z</time>
      </trkpt>
      <trkpt lat="58.23629" lon="24.50762">
        <ele>9.524238</ele>
        <time>2020-10-08T01:07:08.062Z</time>
      </trkpt>
      <trkpt lat="58.23576" lon="24.50714">
        <ele>9.524687</ele>
        <time>2020-10-08T01:07:21.788Z</time>
      </trkpt>
      <trkpt lat="58.23284" lon="24.50447">
        <ele>9.950972</ele>
        <time>2020-10-08T01:08:35.120Z</time>
      </trkpt>
      <trkpt lat="58.23177" lon="24.50349">
        <ele>10.470259</ele>
        <time>2020-10-08T01:09:03.414Z</time>
      </trkpt>
      <trkpt lat="58.23109" lon="24.5027">
        <ele>11.047942</ele>
        <time>2020-10-08T01:09:23.705Z</time>
      </trkpt>
      <trkpt lat="58.23073" lon="24.50229">
        <ele>11.348737</ele>
        <time>2020-10-08T01:09:34.555Z</time>
      </trkpt>
      <trkpt lat="58.23005" lon="24.50125">
        <ele>11.934504</ele>
        <time>2020-10-08T01:09:57.536Z</time>
      </trkpt>
      <trkpt lat="58.22967" lon="24.50059">
        <ele>12.276069</ele>
        <time>2020-10-08T01:10:10.828Z</time>
      </trkpt>
      <trkpt lat="58.22946" lon="24.50022">
        <ele>12.464918</ele>
        <time>2020-10-08T01:10:17.583Z</time>
      </trkpt>
      <trkpt lat="58.22638" lon="24.49459">
        <ele>12.502791</ele>
        <time>2020-10-08T01:11:51.787Z</time>
      </trkpt>
      <trkpt lat="58.22517" lon="24.4928">
        <ele>12.701533</ele>
        <time>2020-10-08T01:12:27.009Z</time>
      </trkpt>
      <trkpt lat="58.22365" lon="24.49132">
        <ele>12.963107</ele>
        <time>2020-10-08T01:13:06.757Z</time>
      </trkpt>
      <trkpt lat="58.22204" lon="24.49038">
        <ele>12.654492</ele>
        <time>2020-10-08T01:13:42.654Z</time>
      </trkpt>
      <trkpt lat="58.2219" lon="24.4903">
        <ele>12.655135</ele>
        <time>2020-10-08T01:13:45.656Z</time>
      </trkpt>
      <trkpt lat="58.22065" lon="24.48961">
        <ele>12.674958</ele>
        <time>2020-10-08T01:14:14.347Z</time>
      </trkpt>
      <trkpt lat="58.22057" lon="24.48957">
        <ele>12.676249</ele>
        <time>2020-10-08T01:14:16.303Z</time>
      </trkpt>
      <trkpt lat="58.22023" lon="24.48938">
        <ele>12.69971</ele>
        <time>2020-10-08T01:14:24.880Z</time>
      </trkpt>
      <trkpt lat="58.21937" lon="24.4889">
        <ele>12.923213</ele>
        <time>2020-10-08T01:14:46.133Z</time>
      </trkpt>
      <trkpt lat="58.21892" lon="24.48864">
        <ele>13.041945</ele>
        <time>2020-10-08T01:14:57.479Z</time>
      </trkpt>
      <trkpt lat="58.21854" lon="24.48839">
        <ele>13.123707</ele>
        <time>2020-10-08T01:15:06.400Z</time>
      </trkpt>
      <trkpt lat="58.21744" lon="24.48776">
        <ele>12.965118</ele>
        <time>2020-10-08T01:15:31.188Z</time>
      </trkpt>
      <trkpt lat="58.21666" lon="24.48731">
        <ele>12.913783</ele>
        <time>2020-10-08T01:15:48.472Z</time>
      </trkpt>
      <trkpt lat="58.21593" lon="24.48698">
        <ele>13.025986</ele>
        <time>2020-10-08T01:16:05.312Z</time>
      </trkpt>
      <trkpt lat="58.21562" lon="24.48685">
        <ele>13.073616</ele>
        <time>2020-10-08T01:16:12.753Z</time>
      </trkpt>
      <trkpt lat="58.21479" lon="24.48654">
        <ele>13.280804</ele>
        <time>2020-10-08T01:16:33.202Z</time>
      </trkpt>
      <trkpt lat="58.21373" lon="24.48625">
        <ele>13.704222</ele>
        <time>2020-10-08T01:16:59.101Z</time>
      </trkpt>
      <trkpt lat="58.21225" lon="24.48587">
        <ele>13.860042</ele>
        <time>2020-10-08T01:17:33.406Z</time>
      </trkpt>
      <trkpt lat="58.21102" lon="24.48558">
        <ele>13.601186</ele>
        <time>2020-10-08T01:17:59.782Z</time>
      </trkpt>
      <trkpt lat="58.21012" lon="24.48538">
        <ele>13.171258</ele>
        <time>2020-10-08T01:18:18.018Z</time>
      </trkpt>
      <trkpt lat="58.20956" lon="24.48532">
        <ele>13.041544</ele>
        <time>2020-10-08T01:18:29.440Z</time>
      </trkpt>
      <trkpt lat="58.20922" lon="24.4853">
        <ele>13.116459</ele>
        <time>2020-10-08T01:18:36.699Z</time>
      </trkpt>
      <trkpt lat="58.2086" lon="24.48531">
        <ele>13.249692</ele>
        <time>2020-10-08T01:18:50.530Z</time>
      </trkpt>
      <trkpt lat="58.20809" lon="24.48533">
        <ele>13.361459</ele>
        <time>2020-10-08T01:19:03.031Z</time>
      </trkpt>
      <trkpt lat="58.20638" lon="24.4854">
        <ele>15.987093</ele>
        <time>2020-10-08T01:19:52.421Z</time>
      </trkpt>
      <trkpt lat="58.20594" lon="24.48542">
        <ele>16.733173</ele>
        <time>2020-10-08T01:20:06.351Z</time>
      </trkpt>
      <trkpt lat="58.2047" lon="24.48549">
        <ele>18.888302</ele>
        <time>2020-10-08T01:20:43.584Z</time>
      </trkpt>
      <trkpt lat="58.20431" lon="24.48551">
        <ele>19.504347</ele>
        <time>2020-10-08T01:20:54.633Z</time>
      </trkpt>
      <trkpt lat="58.20193" lon="24.48563">
        <ele>20.13349</ele>
        <time>2020-10-08T01:21:50.845Z</time>
      </trkpt>
      <trkpt lat="58.20106" lon="24.48571">
        <ele>19.819802</ele>
        <time>2020-10-08T01:22:08.167Z</time>
      </trkpt>
      <trkpt lat="58.20058" lon="24.48581">
        <ele>19.576846</ele>
        <time>2020-10-08T01:22:17.606Z</time>
      </trkpt>
      <trkpt lat="58.19859" lon="24.48677">
        <ele>18.449571</ele>
        <time>2020-10-08T01:22:58.841Z</time>
      </trkpt>
      <trkpt lat="58.19767" lon="24.48723">
        <ele>18.445869</ele>
        <time>2020-10-08T01:23:20.373Z</time>
      </trkpt>
      <trkpt lat="58.19588" lon="24.48815">
        <ele>19.018232</ele>
        <time>2020-10-08T01:24:05.704Z</time>
      </trkpt>
      <trkpt lat="58.19458" lon="24.48881">
        <ele>18.990458</ele>
        <time>2020-10-08T01:24:35.653Z</time>
      </trkpt>
      <trkpt lat="58.19324" lon="24.48949">
        <ele>18.836039</ele>
        <time>2020-10-08T01:25:04.541Z</time>
      </trkpt>
      <trkpt lat="58.19227" lon="24.48998">
        <ele>18.791794</ele>
        <time>2020-10-08T01:25:26.152Z</time>
      </trkpt>
      <trkpt lat="58.19024" lon="24.49089">
        <ele>20.674876</ele>
        <time>2020-10-08T01:26:21.549Z</time>
      </trkpt>
      <trkpt lat="58.18886" lon="24.49131">
        <ele>22.225959</ele>
        <time>2020-10-08T01:27:00.379Z</time>
      </trkpt>
      <trkpt lat="58.18519" lon="24.49219">
        <ele>23.532766</ele>
        <time>2020-10-08T01:28:26.645Z</time>
      </trkpt>
      <trkpt lat="58.18504" lon="24.49221">
        <ele>23.567326</ele>
        <time>2020-10-08T01:28:30.082Z</time>
      </trkpt>
      <trkpt lat="58.18448" lon="24.49229">
        <ele>23.724126</ele>
        <time>2020-10-08T01:28:42.809Z</time>
      </trkpt>
      <trkpt lat="58.18161" lon="24.49269">
        <ele>24.527233</ele>
        <time>2020-10-08T01:29:51.355Z</time>
      </trkpt>
      <trkpt lat="58.18086" lon="24.4928">
        <ele>24.369923</ele>
        <time>2020-10-08T01:30:07.471Z</time>
      </trkpt>
      <trkpt lat="58.17967" lon="24.49298">
        <ele>23.879626</ele>
        <time>2020-10-08T01:30:31.715Z</time>
      </trkpt>
      <trkpt lat="58.17497" lon="24.49396">
        <ele>20.951371</ele>
        <time>2020-10-08T01:32:07.819Z</time>
      </trkpt>
      <trkpt lat="58.17347" lon="24.49449">
        <ele>19.978067</ele>
        <time>2020-10-08T01:32:38.149Z</time>
      </trkpt>
      <trkpt lat="58.17328" lon="24.49455">
        <ele>19.858681</ele>
        <time>2020-10-08T01:32:42.016Z</time>
      </trkpt>
      <trkpt lat="58.17097" lon="24.49529">
        <ele>18.751787</ele>
        <time>2020-10-08T01:33:30.361Z</time>
      </trkpt>
      <trkpt lat="58.1684" lon="24.49582">
        <ele>18.273983</ele>
        <time>2020-10-08T01:34:25.687Z</time>
      </trkpt>
      <trkpt lat="58.16467" lon="24.49723">
        <ele>19.752778</ele>
        <time>2020-10-08T01:35:57.022Z</time>
      </trkpt>
      <trkpt lat="58.16457" lon="24.49725">
        <ele>19.813939</ele>
        <time>2020-10-08T01:35:59.511Z</time>
      </trkpt>
      <trkpt lat="58.1634" lon="24.49754">
        <ele>20.561638</ele>
        <time>2020-10-08T01:36:29.576Z</time>
      </trkpt>
      <trkpt lat="58.16041" lon="24.49809">
        <ele>22.12539</ele>
        <time>2020-10-08T01:37:44.006Z</time>
      </trkpt>
      <trkpt lat="58.15719" lon="24.49858">
        <ele>21.064574</ele>
        <time>2020-10-08T01:38:51.375Z</time>
      </trkpt>
      <trkpt lat="58.1538" lon="24.49857">
        <ele>19.154558</ele>
        <time>2020-10-08T01:39:59.040Z</time>
      </trkpt>
      <trkpt lat="58.15306" lon="24.4988">
        <ele>18.942285</ele>
        <time>2020-10-08T01:40:15.586Z</time>
      </trkpt>
      <trkpt lat="58.15299" lon="24.49883">
        <ele>18.921406</ele>
        <time>2020-10-08T01:40:17.275Z</time>
      </trkpt>
      <trkpt lat="58.15098" lon="24.49946">
        <ele>19.686527</ele>
        <time>2020-10-08T01:41:06.756Z</time>
      </trkpt>
      <trkpt lat="58.14905" lon="24.50047">
        <ele>20.065249</ele>
        <time>2020-10-08T01:41:52.387Z</time>
      </trkpt>
      <trkpt lat="58.14777" lon="24.50159">
        <ele>20.460483</ele>
        <time>2020-10-08T01:42:24.967Z</time>
      </trkpt>
      <trkpt lat="58.14694" lon="24.50256">
        <ele>21.059165</ele>
        <time>2020-10-08T01:42:49.658Z</time>
      </trkpt>
      <trkpt lat="58.14646" lon="24.50313">
        <ele>21.426509</ele>
        <time>2020-10-08T01:43:04.149Z</time>
      </trkpt>
      <trkpt lat="58.1449" lon="24.50492">
        <ele>22.320676</ele>
        <time>2020-10-08T01:43:48.360Z</time>
      </trkpt>
      <trkpt lat="58.1446" lon="24.50521">
        <ele>22.471846</ele>
        <time>2020-10-08T01:43:56.110Z</time>
      </trkpt>
      <trkpt lat="58.14385" lon="24.50583">
        <ele>22.785237</ele>
        <time>2020-10-08T01:44:15.414Z</time>
      </trkpt>
      <trkpt lat="58.14291" lon="24.5063">
        <ele>23.156759</ele>
        <time>2020-10-08T01:44:38.886Z</time>
      </trkpt>
      <trkpt lat="58.14044" lon="24.50671">
        <ele>23.853084</ele>
        <time>2020-10-08T01:45:37.471Z</time>
      </trkpt>
      <trkpt lat="58.13957" lon="24.50713">
        <ele>23.955642</ele>
        <time>2020-10-08T01:45:57.555Z</time>
      </trkpt>
      <trkpt lat="58.13913" lon="24.50742">
        <ele>23.902483</ele>
        <time>2020-10-08T01:46:07.683Z</time>
      </trkpt>
      <trkpt lat="58.13858" lon="24.50791">
        <ele>23.70836</ele>
        <time>2020-10-08T01:46:20.950Z</time>
      </trkpt>
      <trkpt lat="58.13487" lon="24.5113">
        <ele>21.407951</ele>
        <time>2020-10-08T01:47:46.993Z</time>
      </trkpt>
      <trkpt lat="58.13481" lon="24.51135">
        <ele>21.337846</ele>
        <time>2020-10-08T01:47:48.134Z</time>
      </trkpt>
      <trkpt lat="58.13463" lon="24.51152">
        <ele>21.133157</ele>
        <time>2020-10-08T01:47:51.505Z</time>
      </trkpt>
      <trkpt lat="58.13436" lon="24.51175">
        <ele>20.552005</ele>
        <time>2020-10-08T01:47:56.552Z</time>
      </trkpt>
      <trkpt lat="58.13405" lon="24.51199">
        <ele>19.563336</ele>
        <time>2020-10-08T01:48:02.072Z</time>
      </trkpt>
      <trkpt lat="58.13381" lon="24.51215">
        <ele>18.818946</ele>
        <time>2020-10-08T01:48:06.164Z</time>
      </trkpt>
      <trkpt lat="58.13375" lon="24.51219">
        <ele>18.605837</ele>
        <time>2020-10-08T01:48:07.337Z</time>
      </trkpt>
      <trkpt lat="58.1334" lon="24.51243">
        <ele>17.525494</ele>
        <time>2020-10-08T01:48:13.242Z</time>
      </trkpt>
      <trkpt lat="58.13224" lon="24.51288">
        <ele>14.879172</ele>
        <time>2020-10-08T01:48:32.746Z</time>
      </trkpt>
      <trkpt lat="58.1313" lon="24.51299">
        <ele>13.57709</ele>
        <time>2020-10-08T01:48:50.608Z</time>
      </trkpt>
      <trkpt lat="58.13024" lon="24.5129">
        <ele>13.670129</ele>
        <time>2020-10-08T01:49:16.701Z</time>
      </trkpt>
      <trkpt lat="58.13008" lon="24.51127">
        <ele>14.276882</ele>
        <time>2020-10-08T01:49:39.941Z</time>
      </trkpt>
      <trkpt lat="58.12985" lon="24.51072">
        <ele>14.435156</ele>
        <time>2020-10-08T01:49:49.725Z</time>
      </trkpt>
      <trkpt lat="58.12855" lon="24.50924">
        <ele>14.71754</ele>
        <time>2020-10-08T01:50:24.060Z</time>
      </trkpt>
      <trkpt lat="58.12801" lon="24.50887">
        <ele>14.626769</ele>
        <time>2020-10-08T01:50:35.839Z</time>
      </trkpt>
      <trkpt lat="58.12768" lon="24.50875">
        <ele>14.552287</ele>
        <time>2020-10-08T01:50:43.033Z</time>
      </trkpt>
      <trkpt lat="58.12751" lon="24.50873">
        <ele>14.517325</ele>
        <time>2020-10-08T01:50:46.531Z</time>
      </trkpt>
      <trkpt lat="58.12723" lon="24.5087">
        <ele>14.456033</ele>
        <time>2020-10-08T01:50:52.512Z</time>
      </trkpt>
      <trkpt lat="58.12703" lon="24.50867">
        <ele>14.411207</ele>
        <time>2020-10-08T01:50:56.916Z</time>
      </trkpt>
      <trkpt lat="58.12687" lon="24.50866">
        <ele>14.377974</ele>
        <time>2020-10-08T01:51:00.248Z</time>
      </trkpt>
      <trkpt lat="58.12264" lon="24.50829">
        <ele>14.634122</ele>
        <time>2020-10-08T01:52:36.714Z</time>
      </trkpt>
      <trkpt lat="58.12178" lon="24.50824">
        <ele>14.615993</ele>
        <time>2020-10-08T01:52:55.347Z</time>
      </trkpt>
      <trkpt lat="58.12152" lon="24.50822">
        <ele>14.610429</ele>
        <time>2020-10-08T01:53:00.997Z</time>
      </trkpt>
      <trkpt lat="58.12033" lon="24.50792">
        <ele>14.903395</ele>
        <time>2020-10-08T01:53:27.760Z</time>
      </trkpt>
      <trkpt lat="58.11976" lon="24.50788">
        <ele>15.07251</ele>
        <time>2020-10-08T01:53:41.738Z</time>
      </trkpt>
      <trkpt lat="58.11964" lon="24.50791">
        <ele>15.108471</ele>
        <time>2020-10-08T01:53:44.730Z</time>
      </trkpt>
      <trkpt lat="58.11928" lon="24.508">
        <ele>15.325661</ele>
        <time>2020-10-08T01:53:54.082Z</time>
      </trkpt>
      <trkpt lat="58.11837" lon="24.50856">
        <ele>16.005191</ele>
        <time>2020-10-08T01:54:18.699Z</time>
      </trkpt>
      <trkpt lat="58.11798" lon="24.50871">
        <ele>16.296378</ele>
        <time>2020-10-08T01:54:29.139Z</time>
      </trkpt>
      <trkpt lat="58.11764" lon="24.50872">
        <ele>16.38385</ele>
        <time>2020-10-08T01:54:37.337Z</time>
      </trkpt>
      <trkpt lat="58.11597" lon="24.50809">
        <ele>15.880108</ele>
        <time>2020-10-08T01:55:12.967Z</time>
      </trkpt>
      <trkpt lat="58.11547" lon="24.50779">
        <ele>15.563178</ele>
        <time>2020-10-08T01:55:22.952Z</time>
      </trkpt>
      <trkpt lat="58.1149" lon="24.50724">
        <ele>15.172564</ele>
        <time>2020-10-08T01:55:35.496Z</time>
      </trkpt>
      <trkpt lat="58.11437" lon="24.50691">
        <ele>14.832012</ele>
        <time>2020-10-08T01:55:47.061Z</time>
      </trkpt>
      <trkpt lat="58.11382" lon="24.50678">
        <ele>15.051274</ele>
        <time>2020-10-08T01:55:59.599Z</time>
      </trkpt>
      <trkpt lat="58.11274" lon="24.5068">
        <ele>15.525133</ele>
        <time>2020-10-08T01:56:26.508Z</time>
      </trkpt>
      <trkpt lat="58.10947" lon="24.50745">
        <ele>18.296898</ele>
        <time>2020-10-08T01:57:51.876Z</time>
      </trkpt>
      <trkpt lat="58.10876" lon="24.50751">
        <ele>18.772242</ele>
        <time>2020-10-08T01:58:09.306Z</time>
      </trkpt>
      <trkpt lat="58.1081" lon="24.50743">
        <ele>18.978341</ele>
        <time>2020-10-08T01:58:25.298Z</time>
      </trkpt>
      <trkpt lat="58.10732" lon="24.50718">
        <ele>19.226946</ele>
        <time>2020-10-08T01:58:43.972Z</time>
      </trkpt>
      <trkpt lat="58.10613" lon="24.50635">
        <ele>18.733694</ele>
        <time>2020-10-08T01:59:10.870Z</time>
      </trkpt>
      <trkpt lat="58.10523" lon="24.50577">
        <ele>18.275078</ele>
        <time>2020-10-08T01:59:29.387Z</time>
      </trkpt>
      <trkpt lat="58.10437" lon="24.5056">
        <ele>17.822525</ele>
        <time>2020-10-08T01:59:46.256Z</time>
      </trkpt>
      <trkpt lat="58.1003" lon="24.50522">
        <ele>18.068629</ele>
        <time>2020-10-08T02:01:18.623Z</time>
      </trkpt>
      <trkpt lat="58.0976" lon="24.50508">
        <ele>20.054028</ele>
        <time>2020-10-08T02:02:30.038Z</time>
      </trkpt>
      <trkpt lat="58.09565" lon="24.50513">
        <ele>19.847147</ele>
        <time>2020-10-08T02:03:11.999Z</time>
      </trkpt>
      <trkpt lat="58.09483" lon="24.5053">
        <ele>19.346907</ele>
        <time>2020-10-08T02:03:28.043Z</time>
      </trkpt>
      <trkpt lat="58.09341" lon="24.5057">
        <ele>18.004115</ele>
        <time>2020-10-08T02:03:55.489Z</time>
      </trkpt>
      <trkpt lat="58.0923" lon="24.50585">
        <ele>17.574687</ele>
        <time>2020-10-08T02:04:17.873Z</time>
      </trkpt>
      <trkpt lat="58.09073" lon="24.50599">
        <ele>17.696945</ele>
        <time>2020-10-08T02:04:55.727Z</time>
      </trkpt>
      <trkpt lat="58.09042" lon="24.50602">
        <ele>17.776316</ele>
        <time>2020-10-08T02:05:03.608Z</time>
      </trkpt>
      <trkpt lat="58.08994" lon="24.50595">
        <ele>17.90085</ele>
        <time>2020-10-08T02:05:15.071Z</time>
      </trkpt>
      <trkpt lat="58.0892" lon="24.5057">
        <ele>17.780031</ele>
        <time>2020-10-08T02:05:31.717Z</time>
      </trkpt>
      <trkpt lat="58.08873" lon="24.5055">
        <ele>17.081892</ele>
        <time>2020-10-08T02:05:41.106Z</time>
      </trkpt>
      <trkpt lat="58.08745" lon="24.50473">
        <ele>15.027621</ele>
        <time>2020-10-08T02:06:04.762Z</time>
      </trkpt>
      <trkpt lat="58.08636" lon="24.50396">
        <ele>12.808944</ele>
        <time>2020-10-08T02:06:24.963Z</time>
      </trkpt>
      <trkpt lat="58.08586" lon="24.50362">
        <ele>11.928431</ele>
        <time>2020-10-08T02:06:34.728Z</time>
      </trkpt>
      <trkpt lat="58.08557" lon="24.50342">
        <ele>11.736425</ele>
        <time>2020-10-08T02:06:40.764Z</time>
      </trkpt>
      <trkpt lat="58.08549" lon="24.50337">
        <ele>11.690275</ele>
        <time>2020-10-08T02:06:42.235Z</time>
      </trkpt>
      <trkpt lat="58.08516" lon="24.50313">
        <ele>11.470664</ele>
        <time>2020-10-08T02:06:49.387Z</time>
      </trkpt>
      <trkpt lat="58.08489" lon="24.50293">
        <ele>11.297311</ele>
        <time>2020-10-08T02:06:55.245Z</time>
      </trkpt>
      <trkpt lat="58.08473" lon="24.50282">
        <ele>11.193755</ele>
        <time>2020-10-08T02:06:58.875Z</time>
      </trkpt>
      <trkpt lat="58.08437" lon="24.50255">
        <ele>10.955383</ele>
        <time>2020-10-08T02:07:07.480Z</time>
      </trkpt>
      <trkpt lat="58.08394" lon="24.50224">
        <ele>10.957759</ele>
        <time>2020-10-08T02:07:18.188Z</time>
      </trkpt>
      <trkpt lat="58.08344" lon="24.50188">
        <ele>11.048688</ele>
        <time>2020-10-08T02:07:30.803Z</time>
      </trkpt>
      <trkpt lat="58.0824" lon="24.50111">
        <ele>11.238692</ele>
        <time>2020-10-08T02:07:56.304Z</time>
      </trkpt>
      <trkpt lat="58.08207" lon="24.50088">
        <ele>11.297265</ele>
        <time>2020-10-08T02:08:04.308Z</time>
      </trkpt>
      <trkpt lat="58.08085" lon="24.49985">
        <ele>11.527633</ele>
        <time>2020-10-08T02:08:34.878Z</time>
      </trkpt>
      <trkpt lat="58.08084" lon="24.49985">
        <ele>11.529487</ele>
        <time>2020-10-08T02:08:35.197Z</time>
      </trkpt>
      <trkpt lat="58.08019" lon="24.49927">
        <ele>11.680918</ele>
        <time>2020-10-08T02:08:51.926Z</time>
      </trkpt>
      <trkpt lat="58.07976" lon="24.49888">
        <ele>11.780985</ele>
        <time>2020-10-08T02:09:02.977Z</time>
      </trkpt>
      <trkpt lat="58.07955" lon="24.49866">
        <ele>11.83259</ele>
        <time>2020-10-08T02:09:08.699Z</time>
      </trkpt>
      <trkpt lat="58.0768" lon="24.49608">
        <ele>12.153519</ele>
        <time>2020-10-08T02:10:18.261Z</time>
      </trkpt>
      <trkpt lat="58.07672" lon="24.496">
        <ele>12.163896</ele>
        <time>2020-10-08T02:10:20.248Z</time>
      </trkpt>
      <trkpt lat="58.07326" lon="24.49269">
        <ele>12.707102</ele>
        <time>2020-10-08T02:11:47.848Z</time>
      </trkpt>
      <trkpt lat="58.07254" lon="24.49223">
        <ele>13.008605</ele>
        <time>2020-10-08T02:12:06.727Z</time>
      </trkpt>
      <trkpt lat="58.0722" lon="24.49199">
        <ele>13.228583</ele>
        <time>2020-10-08T02:12:16.020Z</time>
      </trkpt>
      <trkpt lat="58.07191" lon="24.49178">
        <ele>13.410241</ele>
        <time>2020-10-08T02:12:23.632Z</time>
      </trkpt>
      <trkpt lat="58.07175" lon="24.49166">
        <ele>13.515932</ele>
        <time>2020-10-08T02:12:28.113Z</time>
      </trkpt>
      <trkpt lat="58.07112" lon="24.49124">
        <ele>13.890831</ele>
        <time>2020-10-08T02:12:44.454Z</time>
      </trkpt>
      <trkpt lat="58.06749" lon="24.48882">
        <ele>15.332309</ele>
        <time>2020-10-08T02:14:13.610Z</time>
      </trkpt>
      <trkpt lat="58.06667" lon="24.48824">
        <ele>16.566555</ele>
        <time>2020-10-08T02:14:39.387Z</time>
      </trkpt>
      <trkpt lat="58.06584" lon="24.48766">
        <ele>17.667581</ele>
        <time>2020-10-08T02:15:05.525Z</time>
      </trkpt>
      <trkpt lat="58.06497" lon="24.48707">
        <ele>18.493474</ele>
        <time>2020-10-08T02:15:30.094Z</time>
      </trkpt>
      <trkpt lat="58.06417" lon="24.48644">
        <ele>19.027902</ele>
        <time>2020-10-08T02:15:50.153Z</time>
      </trkpt>
      <trkpt lat="58.06352" lon="24.48577">
        <ele>19.017042</ele>
        <time>2020-10-08T02:16:06.358Z</time>
      </trkpt>
      <trkpt lat="58.06081" lon="24.48207">
        <ele>18.497381</ele>
        <time>2020-10-08T02:17:19.251Z</time>
      </trkpt>
      <trkpt lat="58.05967" lon="24.48111">
        <ele>17.968307</ele>
        <time>2020-10-08T02:17:44.840Z</time>
      </trkpt>
      <trkpt lat="58.05833" lon="24.48027">
        <ele>17.100901</ele>
        <time>2020-10-08T02:18:13.006Z</time>
      </trkpt>
      <trkpt lat="58.05721" lon="24.47973">
        <ele>16.932453</ele>
        <time>2020-10-08T02:18:37.383Z</time>
      </trkpt>
      <trkpt lat="58.05523" lon="24.47879">
        <ele>17.35927</ele>
        <time>2020-10-08T02:19:25.475Z</time>
      </trkpt>
      <trkpt lat="58.05117" lon="24.47749">
        <ele>19.26877</ele>
        <time>2020-10-08T02:21:05.657Z</time>
      </trkpt>
      <trkpt lat="58.05107" lon="24.47742">
        <ele>19.303215</ele>
        <time>2020-10-08T02:21:08.361Z</time>
      </trkpt>
      <trkpt lat="58.0497" lon="24.4765">
        <ele>19.505292</ele>
        <time>2020-10-08T02:21:41.892Z</time>
      </trkpt>
      <trkpt lat="58.04714" lon="24.47495">
        <ele>19.055426</ele>
        <time>2020-10-08T02:22:38.395Z</time>
      </trkpt>
      <trkpt lat="58.04628" lon="24.47421">
        <ele>19.125149</ele>
        <time>2020-10-08T02:23:00.159Z</time>
      </trkpt>
      <trkpt lat="58.04549" lon="24.47337">
        <ele>19.477275</ele>
        <time>2020-10-08T02:23:22.278Z</time>
      </trkpt>
      <trkpt lat="58.04408" lon="24.47166">
        <ele>20.240752</ele>
        <time>2020-10-08T02:24:03.474Z</time>
      </trkpt>
      <trkpt lat="58.04247" lon="24.46956">
        <ele>20.467737</ele>
        <time>2020-10-08T02:24:48.864Z</time>
      </trkpt>
      <trkpt lat="58.04028" lon="24.46672">
        <ele>19.247181</ele>
        <time>2020-10-08T02:25:42.987Z</time>
      </trkpt>
      <trkpt lat="58.03928" lon="24.46535">
        <ele>18.348096</ele>
        <time>2020-10-08T02:26:07.602Z</time>
      </trkpt>
      <trkpt lat="58.0386" lon="24.46456">
        <ele>17.735996</ele>
        <time>2020-10-08T02:26:23.507Z</time>
      </trkpt>
      <trkpt lat="58.03706" lon="24.46336">
        <ele>16.03535</ele>
        <time>2020-10-08T02:26:55.826Z</time>
      </trkpt>
      <trkpt lat="58.03562" lon="24.46192">
        <ele>14.411747</ele>
        <time>2020-10-08T02:27:26.364Z</time>
      </trkpt>
      <trkpt lat="58.03519" lon="24.46163">
        <ele>14.1597</ele>
        <time>2020-10-08T02:27:35.632Z</time>
      </trkpt>
      <trkpt lat="58.0348" lon="24.46137">
        <ele>14.413044</ele>
        <time>2020-10-08T02:27:44.777Z</time>
      </trkpt>
      <trkpt lat="58.03225" lon="24.4601">
        <ele>16.38088</ele>
        <time>2020-10-08T02:28:55.268Z</time>
      </trkpt>
      <trkpt lat="58.02854" lon="24.45875">
        <ele>17.479586</ele>
        <time>2020-10-08T02:30:22.880Z</time>
      </trkpt>
      <trkpt lat="58.02723" lon="24.45815">
        <ele>17.218474</ele>
        <time>2020-10-08T02:30:52.237Z</time>
      </trkpt>
      <trkpt lat="58.02626" lon="24.45752">
        <ele>16.798226</ele>
        <time>2020-10-08T02:31:13.267Z</time>
      </trkpt>
      <trkpt lat="58.02416" lon="24.45568">
        <ele>15.604836</ele>
        <time>2020-10-08T02:31:59.430Z</time>
      </trkpt>
      <trkpt lat="58.02279" lon="24.45467">
        <ele>15.547448</ele>
        <time>2020-10-08T02:32:34.107Z</time>
      </trkpt>
      <trkpt lat="58.02246" lon="24.45447">
        <ele>15.62345</ele>
        <time>2020-10-08T02:32:42.583Z</time>
      </trkpt>
      <trkpt lat="58.02156" lon="24.45429">
        <ele>15.824754</ele>
        <time>2020-10-08T02:33:03.489Z</time>
      </trkpt>
      <trkpt lat="58.02023" lon="24.45396">
        <ele>15.032296</ele>
        <time>2020-10-08T02:33:30.862Z</time>
      </trkpt>
      <trkpt lat="58.02004" lon="24.45388">
        <ele>14.913183</ele>
        <time>2020-10-08T02:33:34.601Z</time>
      </trkpt>
      <trkpt lat="58.01925" lon="24.45349">
        <ele>14.376515</ele>
        <time>2020-10-08T02:33:50.405Z</time>
      </trkpt>
      <trkpt lat="58.01888" lon="24.45314">
        <ele>14.100714</ele>
        <time>2020-10-08T02:33:58.656Z</time>
      </trkpt>
      <trkpt lat="58.01871" lon="24.45295">
        <ele>13.966776</ele>
        <time>2020-10-08T02:34:02.799Z</time>
      </trkpt>
      <trkpt lat="58.01749" lon="24.45158">
        <ele>12.840826</ele>
        <time>2020-10-08T02:34:32.357Z</time>
      </trkpt>
      <trkpt lat="58.01691" lon="24.45115">
        <ele>12.287897</ele>
        <time>2020-10-08T02:34:44.315Z</time>
      </trkpt>
      <trkpt lat="58.0142" lon="24.45006">
        <ele>8.904241</ele>
        <time>2020-10-08T02:35:34.960Z</time>
      </trkpt>
      <trkpt lat="58.01398" lon="24.45">
        <ele>8.781791</ele>
        <time>2020-10-08T02:35:39.667Z</time>
      </trkpt>
      <trkpt lat="58.01349" lon="24.44991">
        <ele>8.51889</ele>
        <time>2020-10-08T02:35:50.498Z</time>
      </trkpt>
      <trkpt lat="58.01318" lon="24.44985">
        <ele>8.353146</ele>
        <time>2020-10-08T02:35:57.415Z</time>
      </trkpt>
      <trkpt lat="58.01271" lon="24.44975">
        <ele>8.224038</ele>
        <time>2020-10-08T02:36:08.615Z</time>
      </trkpt>
      <trkpt lat="58.01245" lon="24.44966">
        <ele>8.210498</ele>
        <time>2020-10-08T02:36:14.734Z</time>
      </trkpt>
      <trkpt lat="58.0121" lon="24.44952">
        <ele>8.192192</ele>
        <time>2020-10-08T02:36:23.049Z</time>
      </trkpt>
      <trkpt lat="58.01117" lon="24.44906">
        <ele>8.124899</ele>
        <time>2020-10-08T02:36:43.732Z</time>
      </trkpt>
      <trkpt lat="58.01084" lon="24.44882">
        <ele>7.972857</ele>
        <time>2020-10-08T02:36:50.884Z</time>
      </trkpt>
      <trkpt lat="58.00922" lon="24.44764">
        <ele>7.317713</ele>
        <time>2020-10-08T02:37:26.571Z</time>
      </trkpt>
      <trkpt lat="58.00888" lon="24.44737">
        <ele>7.254</ele>
        <time>2020-10-08T02:37:34.799Z</time>
      </trkpt>
      <trkpt lat="58.00806" lon="24.44676">
        <ele>7.103941</ele>
        <time>2020-10-08T02:37:54.050Z</time>
      </trkpt>
      <trkpt lat="58.00709" lon="24.44599">
        <ele>7.173628</ele>
        <time>2020-10-08T02:38:17.370Z</time>
      </trkpt>
      <trkpt lat="58.00691" lon="24.44583">
        <ele>7.199261</ele>
        <time>2020-10-08T02:38:21.964Z</time>
      </trkpt>
      <trkpt lat="58.00623" lon="24.44511">
        <ele>7.302222</ele>
        <time>2020-10-08T02:38:40.152Z</time>
      </trkpt>
      <trkpt lat="58.00586" lon="24.4446">
        <ele>7.44937</ele>
        <time>2020-10-08T02:38:50.922Z</time>
      </trkpt>
      <trkpt lat="58.00534" lon="24.44368">
        <ele>7.678897</ele>
        <time>2020-10-08T02:39:07.922Z</time>
      </trkpt>
      <trkpt lat="58.00414" lon="24.44139">
        <ele>7.972495</ele>
        <time>2020-10-08T02:39:47.893Z</time>
      </trkpt>
      <trkpt lat="58.00247" lon="24.43873">
        <ele>7.67901</ele>
        <time>2020-10-08T02:40:35.074Z</time>
      </trkpt>
      <trkpt lat="58.00166" lon="24.43757">
        <ele>7.564769</ele>
        <time>2020-10-08T02:40:56.464Z</time>
      </trkpt>
      <trkpt lat="58.00105" lon="24.43656">
        <ele>7.518201</ele>
        <time>2020-10-08T02:41:14.754Z</time>
      </trkpt>
      <trkpt lat="58.00072" lon="24.43605">
        <ele>7.603918</ele>
        <time>2020-10-08T02:41:24.564Z</time>
      </trkpt>
      <trkpt lat="58.00035" lon="24.43553">
        <ele>7.918923</ele>
        <time>2020-10-08T02:41:35.207Z</time>
      </trkpt>
      <trkpt lat="57.99934" lon="24.43431">
        <ele>8.754799</ele>
        <time>2020-10-08T02:42:06.125Z</time>
      </trkpt>
      <trkpt lat="57.99897" lon="24.43386">
        <ele>9.559042</ele>
        <time>2020-10-08T02:42:18.069Z</time>
      </trkpt>
      <trkpt lat="57.99805" lon="24.43274">
        <ele>11.569132</ele>
        <time>2020-10-08T02:42:50.762Z</time>
      </trkpt>
      <trkpt lat="57.99715" lon="24.43199">
        <ele>13.809797</ele>
        <time>2020-10-08T02:43:23.676Z</time>
      </trkpt>
      <trkpt lat="57.99541" lon="24.43012">
        <ele>17.651882</ele>
        <time>2020-10-08T02:44:26.520Z</time>
      </trkpt>
      <trkpt lat="57.99265" lon="24.42771">
        <ele>19.55358</ele>
        <time>2020-10-08T02:45:38.386Z</time>
      </trkpt>
      <trkpt lat="57.99232" lon="24.42742">
        <ele>19.667015</ele>
        <time>2020-10-08T02:45:46.532Z</time>
      </trkpt>
      <trkpt lat="57.9914" lon="24.42649">
        <ele>19.986362</ele>
        <time>2020-10-08T02:46:10.976Z</time>
      </trkpt>
      <trkpt lat="57.99046" lon="24.42558">
        <ele>20.734786</ele>
        <time>2020-10-08T02:46:37.608Z</time>
      </trkpt>
      <trkpt lat="57.98873" lon="24.424">
        <ele>22.19068</ele>
        <time>2020-10-08T02:47:26.967Z</time>
      </trkpt>
      <trkpt lat="57.98762" lon="24.42295">
        <ele>22.952755</ele>
        <time>2020-10-08T02:47:57.831Z</time>
      </trkpt>
      <trkpt lat="57.98733" lon="24.42271">
        <ele>23.082125</ele>
        <time>2020-10-08T02:48:05.293Z</time>
      </trkpt>
      <trkpt lat="57.98727" lon="24.42263">
        <ele>23.114154</ele>
        <time>2020-10-08T02:48:07.166Z</time>
      </trkpt>
      <trkpt lat="57.98723" lon="24.42259">
        <ele>23.133907</ele>
        <time>2020-10-08T02:48:08.305Z</time>
      </trkpt>
      <trkpt lat="57.98688" lon="24.42227">
        <ele>23.296583</ele>
        <time>2020-10-08T02:48:17.552Z</time>
      </trkpt>
      <trkpt lat="57.98598" lon="24.42095">
        <ele>23.301949</ele>
        <time>2020-10-08T02:48:43.601Z</time>
      </trkpt>
      <trkpt lat="57.98528" lon="24.4197">
        <ele>23.115674</ele>
        <time>2020-10-08T02:49:03.773Z</time>
      </trkpt>
      <trkpt lat="57.98388" lon="24.41826">
        <ele>22.259125</ele>
        <time>2020-10-08T02:49:35.859Z</time>
      </trkpt>
      <trkpt lat="57.98283" lon="24.41732">
        <ele>22.184312</ele>
        <time>2020-10-08T02:50:00.867Z</time>
      </trkpt>
      <trkpt lat="57.98176" lon="24.41661">
        <ele>22.381657</ele>
        <time>2020-10-08T02:50:27.853Z</time>
      </trkpt>
      <trkpt lat="57.98045" lon="24.416">
        <ele>23.099453</ele>
        <time>2020-10-08T02:51:01.204Z</time>
      </trkpt>
      <trkpt lat="57.98014" lon="24.41582">
        <ele>23.211975</ele>
        <time>2020-10-08T02:51:09.001Z</time>
      </trkpt>
      <trkpt lat="57.97954" lon="24.41547">
        <ele>23.169145</ele>
        <time>2020-10-08T02:51:23.846Z</time>
      </trkpt>
      <trkpt lat="57.97779" lon="24.41427">
        <ele>22.537169</ele>
        <time>2020-10-08T02:52:02.879Z</time>
      </trkpt>
      <trkpt lat="57.97607" lon="24.41296">
        <ele>20.869282</ele>
        <time>2020-10-08T02:52:38.856Z</time>
      </trkpt>
      <trkpt lat="57.97485" lon="24.41219">
        <ele>19.552237</ele>
        <time>2020-10-08T02:53:02.934Z</time>
      </trkpt>
      <trkpt lat="57.97303" lon="24.41117">
        <ele>18.583049</ele>
        <time>2020-10-08T02:53:41.471Z</time>
      </trkpt>
      <trkpt lat="57.97289" lon="24.4111">
        <ele>18.626862</ele>
        <time>2020-10-08T02:53:44.891Z</time>
      </trkpt>
      <trkpt lat="57.97256" lon="24.41088">
        <ele>18.733779</ele>
        <time>2020-10-08T02:53:53.212Z</time>
      </trkpt>
      <trkpt lat="57.97215" lon="24.41059">
        <ele>18.868484</ele>
        <time>2020-10-08T02:54:04.205Z</time>
      </trkpt>
      <trkpt lat="57.97031" lon="24.40918">
        <ele>20.222558</ele>
        <time>2020-10-08T02:54:55.398Z</time>
      </trkpt>
      <trkpt lat="57.96917" lon="24.40852">
        <ele>20.731818</ele>
        <time>2020-10-08T02:55:23.799Z</time>
      </trkpt>
      <trkpt lat="57.96881" lon="24.40841">
        <ele>20.853506</ele>
        <time>2020-10-08T02:55:32.206Z</time>
      </trkpt>
      <trkpt lat="57.96825" lon="24.40824">
        <ele>21.052644</ele>
        <time>2020-10-08T02:55:45.399Z</time>
      </trkpt>
      <trkpt lat="57.96718" lon="24.40788">
        <ele>21.501257</ele>
        <time>2020-10-08T02:56:10.980Z</time>
      </trkpt>
      <trkpt lat="57.96516" lon="24.40683">
        <ele>22.40638</ele>
        <time>2020-10-08T02:57:02.668Z</time>
      </trkpt>
      <trkpt lat="57.96279" lon="24.40537">
        <ele>22.290679</ele>
        <time>2020-10-08T02:57:57.836Z</time>
      </trkpt>
      <trkpt lat="57.96112" lon="24.40426">
        <ele>20.873475</ele>
        <time>2020-10-08T02:58:32.755Z</time>
      </trkpt>
      <trkpt lat="57.96082" lon="24.40406">
        <ele>20.428857</ele>
        <time>2020-10-08T02:58:38.699Z</time>
      </trkpt>
      <trkpt lat="57.96024" lon="24.40344">
        <ele>19.499597</ele>
        <time>2020-10-08T02:58:50.915Z</time>
      </trkpt>
      <trkpt lat="57.95837" lon="24.40135">
        <ele>16.336944</ele>
        <time>2020-10-08T02:59:30.546Z</time>
      </trkpt>
      <trkpt lat="57.95596" lon="24.39905">
        <ele>14.190148</ele>
        <time>2020-10-08T03:00:24.504Z</time>
      </trkpt>
      <trkpt lat="57.95579" lon="24.39889">
        <ele>14.052855</ele>
        <time>2020-10-08T03:00:28.420Z</time>
      </trkpt>
      <trkpt lat="57.95504" lon="24.39819">
        <ele>13.454568</ele>
        <time>2020-10-08T03:00:45.092Z</time>
      </trkpt>
      <trkpt lat="57.95442" lon="24.39735">
        <ele>12.756351</ele>
        <time>2020-10-08T03:01:00.445Z</time>
      </trkpt>
      <trkpt lat="57.95344" lon="24.39572">
        <ele>11.77845</ele>
        <time>2020-10-08T03:01:25.489Z</time>
      </trkpt>
      <trkpt lat="57.95293" lon="24.39505">
        <ele>11.623398</ele>
        <time>2020-10-08T03:01:37.789Z</time>
      </trkpt>
      <trkpt lat="57.95219" lon="24.39425">
        <ele>11.407938</ele>
        <time>2020-10-08T03:01:56.890Z</time>
      </trkpt>
      <trkpt lat="57.94999" lon="24.39209">
        <ele>15.051213</ele>
        <time>2020-10-08T03:03:09.073Z</time>
      </trkpt>
      <trkpt lat="57.94963" lon="24.39176">
        <ele>15.599758</ele>
        <time>2020-10-08T03:03:20.610Z</time>
      </trkpt>
      <trkpt lat="57.94946" lon="24.39168">
        <ele>15.840272</ele>
        <time>2020-10-08T03:03:25.412Z</time>
      </trkpt>
      <trkpt lat="57.94839" lon="24.39136">
        <ele>16.764906</ele>
        <time>2020-10-08T03:03:53.382Z</time>
      </trkpt>
      <trkpt lat="57.9456" lon="24.39123">
        <ele>17.118057</ele>
        <time>2020-10-08T03:04:56.157Z</time>
      </trkpt>
      <trkpt lat="57.94282" lon="24.39157">
        <ele>16.732424</ele>
        <time>2020-10-08T03:05:55.792Z</time>
      </trkpt>
      <trkpt lat="57.94057" lon="24.39184">
        <ele>16.677036</ele>
        <time>2020-10-08T03:06:46.806Z</time>
      </trkpt>
      <trkpt lat="57.93908" lon="24.39202">
        <ele>16.256325</ele>
        <time>2020-10-08T03:07:18.808Z</time>
      </trkpt>
      <trkpt lat="57.93844" lon="24.39196">
        <ele>15.949521</ele>
        <time>2020-10-08T03:07:31.772Z</time>
      </trkpt>
      <trkpt lat="57.93754" lon="24.39186">
        <ele>15.226512</ele>
        <time>2020-10-08T03:07:49.608Z</time>
      </trkpt>
      <trkpt lat="57.93518" lon="24.39162">
        <ele>13.164208</ele>
        <time>2020-10-08T03:08:35.180Z</time>
      </trkpt>
      <trkpt lat="57.93466" lon="24.39176">
        <ele>12.752334</ele>
        <time>2020-10-08T03:08:45.928Z</time>
      </trkpt>
      <trkpt lat="57.93428" lon="24.39186">
        <ele>12.667845</ele>
        <time>2020-10-08T03:08:54.170Z</time>
      </trkpt>
      <trkpt lat="57.93383" lon="24.39198">
        <ele>12.673389</ele>
        <time>2020-10-08T03:09:04.142Z</time>
      </trkpt>
      <trkpt lat="57.93292" lon="24.39204">
        <ele>12.684567</ele>
        <time>2020-10-08T03:09:25.127Z</time>
      </trkpt>
      <trkpt lat="57.93137" lon="24.3918">
        <ele>12.684718</ele>
        <time>2020-10-08T03:10:00.168Z</time>
      </trkpt>
      <trkpt lat="57.93052" lon="24.39171">
        <ele>12.577031</ele>
        <time>2020-10-08T03:10:18.629Z</time>
      </trkpt>
      <trkpt lat="57.92738" lon="24.39122">
        <ele>11.878065</ele>
        <time>2020-10-08T03:11:25.726Z</time>
      </trkpt>
      <trkpt lat="57.92631" lon="24.39097">
        <ele>11.830906</ele>
        <time>2020-10-08T03:11:50.342Z</time>
      </trkpt>
      <trkpt lat="57.9251" lon="24.3905">
        <ele>11.361173</ele>
        <time>2020-10-08T03:12:17.070Z</time>
      </trkpt>
      <trkpt lat="57.92392" lon="24.39002">
        <ele>10.330518</ele>
        <time>2020-10-08T03:12:40.402Z</time>
      </trkpt>
      <trkpt lat="57.92354" lon="24.38978">
        <ele>9.783941</ele>
        <time>2020-10-08T03:12:47.660Z</time>
      </trkpt>
      <trkpt lat="57.92348" lon="24.38975">
        <ele>9.685995</ele>
        <time>2020-10-08T03:12:48.731Z</time>
      </trkpt>
      <trkpt lat="57.9228" lon="24.38917">
        <ele>8.571102</ele>
        <time>2020-10-08T03:13:02.216Z</time>
      </trkpt>
      <trkpt lat="57.92218" lon="24.38876">
        <ele>7.585693</ele>
        <time>2020-10-08T03:13:14.356Z</time>
      </trkpt>
      <trkpt lat="57.92125" lon="24.38835">
        <ele>6.901037</ele>
        <time>2020-10-08T03:13:32.606Z</time>
      </trkpt>
      <trkpt lat="57.92102" lon="24.38825">
        <ele>6.733278</ele>
        <time>2020-10-08T03:13:37.250Z</time>
      </trkpt>
      <trkpt lat="57.92099" lon="24.38824">
        <ele>6.713573</ele>
        <time>2020-10-08T03:13:37.809Z</time>
      </trkpt>
      <trkpt lat="57.92088" lon="24.38819">
        <ele>6.631982</ele>
        <time>2020-10-08T03:13:40.132Z</time>
      </trkpt>
      <trkpt lat="57.92087" lon="24.38819">
        <ele>6.623058</ele>
        <time>2020-10-08T03:13:40.374Z</time>
      </trkpt>
      <trkpt lat="57.9208" lon="24.38815">
        <ele>6.571096</ele>
        <time>2020-10-08T03:13:41.887Z</time>
      </trkpt>
      <trkpt lat="57.92054" lon="24.388">
        <ele>6.380416</ele>
        <time>2020-10-08T03:13:47.826Z</time>
      </trkpt>
      <trkpt lat="57.91995" lon="24.38756">
        <ele>6.955204</ele>
        <time>2020-10-08T03:14:03.071Z</time>
      </trkpt>
      <trkpt lat="57.91966" lon="24.38737">
        <ele>7.349168</ele>
        <time>2020-10-08T03:14:11.119Z</time>
      </trkpt>
      <trkpt lat="57.91946" lon="24.38724">
        <ele>7.620183</ele>
        <time>2020-10-08T03:14:17.352Z</time>
      </trkpt>
      <trkpt lat="57.9192" lon="24.38707">
        <ele>7.970713</ele>
        <time>2020-10-08T03:14:24.833Z</time>
      </trkpt>
      <trkpt lat="57.91919" lon="24.38706">
        <ele>7.989578</ele>
        <time>2020-10-08T03:14:25.852Z</time>
      </trkpt>
      <trkpt lat="57.91818" lon="24.38665">
        <ele>9.73308</ele>
        <time>2020-10-08T03:14:57.997Z</time>
      </trkpt>
      <trkpt lat="57.91795" lon="24.38655">
        <ele>10.206447</ele>
        <time>2020-10-08T03:15:06.080Z</time>
      </trkpt>
      <trkpt lat="57.91745" lon="24.38635">
        <ele>11.242289</ele>
        <time>2020-10-08T03:15:21.870Z</time>
      </trkpt>
      <trkpt lat="57.91667" lon="24.38606">
        <ele>12.406144</ele>
        <time>2020-10-08T03:15:44.344Z</time>
      </trkpt>
      <trkpt lat="57.91603" lon="24.38583">
        <ele>12.763082</ele>
        <time>2020-10-08T03:16:00.522Z</time>
      </trkpt>
      <trkpt lat="57.91509" lon="24.38548">
        <ele>13.265227</ele>
        <time>2020-10-08T03:16:21.750Z</time>
      </trkpt>
      <trkpt lat="57.91436" lon="24.38512">
        <ele>13.513742</ele>
        <time>2020-10-08T03:16:38.434Z</time>
      </trkpt>
      <trkpt lat="57.91206" lon="24.38382">
        <ele>14.859735</ele>
        <time>2020-10-08T03:17:38.256Z</time>
      </trkpt>
      <trkpt lat="57.91128" lon="24.38331">
        <ele>15.444999</ele>
        <time>2020-10-08T03:17:59.848Z</time>
      </trkpt>
      <trkpt lat="57.91022" lon="24.38264">
        <ele>16.229903</ele>
        <time>2020-10-08T03:18:27.927Z</time>
      </trkpt>
      <trkpt lat="57.90858" lon="24.38141">
        <ele>16.618042</ele>
        <time>2020-10-08T03:19:08.819Z</time>
      </trkpt>
      <trkpt lat="57.90834" lon="24.38122">
        <ele>16.641341</ele>
        <time>2020-10-08T03:19:14.601Z</time>
      </trkpt>
      <trkpt lat="57.90646" lon="24.38018">
        <ele>16.091831</ele>
        <time>2020-10-08T03:19:56.028Z</time>
      </trkpt>
      <trkpt lat="57.90425" lon="24.37841">
        <ele>15.613841</ele>
        <time>2020-10-08T03:20:46.571Z</time>
      </trkpt>
      <trkpt lat="57.90409" lon="24.37831">
        <ele>15.622881</ele>
        <time>2020-10-08T03:20:50.438Z</time>
      </trkpt>
      <trkpt lat="57.90262" lon="24.37725">
        <ele>15.986609</ele>
        <time>2020-10-08T03:21:28.211Z</time>
      </trkpt>
      <trkpt lat="57.90112" lon="24.37627">
        <ele>16.386</ele>
        <time>2020-10-08T03:22:06.385Z</time>
      </trkpt>
      <trkpt lat="57.89922" lon="24.37469">
        <ele>15.657445</ele>
        <time>2020-10-08T03:22:50.088Z</time>
      </trkpt>
      <trkpt lat="57.89782" lon="24.37404">
        <ele>14.483708</ele>
        <time>2020-10-08T03:23:17.881Z</time>
      </trkpt>
      <trkpt lat="57.89718" lon="24.37371">
        <ele>13.865418</ele>
        <time>2020-10-08T03:23:30.503Z</time>
      </trkpt>
      <trkpt lat="57.8943" lon="24.37193">
        <ele>11.772697</ele>
        <time>2020-10-08T03:24:31.277Z</time>
      </trkpt>
      <trkpt lat="57.89348" lon="24.37151">
        <ele>11.433689</ele>
        <time>2020-10-08T03:24:48.999Z</time>
      </trkpt>
      <trkpt lat="57.89242" lon="24.37079">
        <ele>11.738248</ele>
        <time>2020-10-08T03:25:14.449Z</time>
      </trkpt>
      <trkpt lat="57.8917" lon="24.37026">
        <ele>12.215282</ele>
        <time>2020-10-08T03:25:34.088Z</time>
      </trkpt>
      <trkpt lat="57.89056" lon="24.36942">
        <ele>13.560185</ele>
        <time>2020-10-08T03:26:08.281Z</time>
      </trkpt>
      <trkpt lat="57.88964" lon="24.36888">
        <ele>14.59153</ele>
        <time>2020-10-08T03:26:34.489Z</time>
      </trkpt>
      <trkpt lat="57.88922" lon="24.36861">
        <ele>14.430834</ele>
        <time>2020-10-08T03:26:45.551Z</time>
      </trkpt>
      <trkpt lat="57.88344" lon="24.36622">
        <ele>11.826156</ele>
        <time>2020-10-08T03:28:47.042Z</time>
      </trkpt>
      <trkpt lat="57.88294" lon="24.36598">
        <ele>11.421037</ele>
        <time>2020-10-08T03:28:57.031Z</time>
      </trkpt>
      <trkpt lat="57.88195" lon="24.36527">
        <ele>10.304411</ele>
        <time>2020-10-08T03:29:17.130Z</time>
      </trkpt>
      <trkpt lat="57.8808" lon="24.36429">
        <ele>8.862084</ele>
        <time>2020-10-08T03:29:41.218Z</time>
      </trkpt>
      <trkpt lat="57.88068" lon="24.36423">
        <ele>8.726078</ele>
        <time>2020-10-08T03:29:43.489Z</time>
      </trkpt>
      <trkpt lat="57.87857" lon="24.36304">
        <ele>6.54003</ele>
        <time>2020-10-08T03:30:25.292Z</time>
      </trkpt>
      <trkpt lat="57.87837" lon="24.36294">
        <ele>6.388786</ele>
        <time>2020-10-08T03:30:29.462Z</time>
      </trkpt>
      <trkpt lat="57.87768" lon="24.36259">
        <ele>5.86972</ele>
        <time>2020-10-08T03:30:44.460Z</time>
      </trkpt>
      <trkpt lat="57.8775" lon="24.3625">
        <ele>5.83945</ele>
        <time>2020-10-08T03:30:48.551Z</time>
      </trkpt>
      <trkpt lat="57.87686" lon="24.36216">
        <ele>5.845799</ele>
        <time>2020-10-08T03:31:03.620Z</time>
      </trkpt>
      <trkpt lat="57.87662" lon="24.36201">
        <ele>5.848221</ele>
        <time>2020-10-08T03:31:09.471Z</time>
      </trkpt>
      <trkpt lat="57.87649" lon="24.36195">
        <ele>5.849489</ele>
        <time>2020-10-08T03:31:12.501Z</time>
      </trkpt>
      <trkpt lat="57.87574" lon="24.36181">
        <ele>5.814583</ele>
        <time>2020-10-08T03:31:29.651Z</time>
      </trkpt>
      <trkpt lat="57.87468" lon="24.36126">
        <ele>5.533314</ele>
        <time>2020-10-08T03:31:52.925Z</time>
      </trkpt>
      <trkpt lat="57.87455" lon="24.36117">
        <ele>5.498164</ele>
        <time>2020-10-08T03:31:55.705Z</time>
      </trkpt>
      <trkpt lat="57.87406" lon="24.36096">
        <ele>5.394309</ele>
        <time>2020-10-08T03:32:06.296Z</time>
      </trkpt>
      <trkpt lat="57.87397" lon="24.36093">
        <ele>5.395157</ele>
        <time>2020-10-08T03:32:08.112Z</time>
      </trkpt>
      <trkpt lat="57.87384" lon="24.36089">
        <ele>5.396495</ele>
        <time>2020-10-08T03:32:10.908Z</time>
      </trkpt>
      <trkpt lat="57.87349" lon="24.36085">
        <ele>5.400035</ele>
        <time>2020-10-08T03:32:18.524Z</time>
      </trkpt>
      <trkpt lat="57.87325" lon="24.36083">
        <ele>5.402458</ele>
        <time>2020-10-08T03:32:23.842Z</time>
      </trkpt>
      <trkpt lat="57.87322" lon="24.36082">
        <ele>5.402779</ele>
        <time>2020-10-08T03:32:24.524Z</time>
      </trkpt>
      <trkpt lat="57.87294" lon="24.3608">
        <ele>5.405543</ele>
        <time>2020-10-08T03:32:30.638Z</time>
      </trkpt>
      <trkpt lat="57.87226" lon="24.36076">
        <ele>5.465421</ele>
        <time>2020-10-08T03:32:46.655Z</time>
      </trkpt>
      <trkpt lat="57.87215" lon="24.36075">
        <ele>5.521022</ele>
        <time>2020-10-08T03:32:49.218Z</time>
      </trkpt>
      <trkpt lat="57.87169" lon="24.36072">
        <ele>5.762608</ele>
        <time>2020-10-08T03:33:00.594Z</time>
      </trkpt>
      <trkpt lat="57.8706" lon="24.36069">
        <ele>6.325513</ele>
        <time>2020-10-08T03:33:27.608Z</time>
      </trkpt>
      <trkpt lat="57.87059" lon="24.36069">
        <ele>6.332263</ele>
        <time>2020-10-08T03:33:27.972Z</time>
      </trkpt>
      <trkpt lat="57.87026" lon="24.36066">
        <ele>6.439942</ele>
        <time>2020-10-08T03:33:35.901Z</time>
      </trkpt>
      <trkpt lat="57.87005" lon="24.3606">
        <ele>6.506003</ele>
        <time>2020-10-08T03:33:40.987Z</time>
      </trkpt>
      <trkpt lat="57.86963" lon="24.36046">
        <ele>6.63703</ele>
        <time>2020-10-08T03:33:50.875Z</time>
      </trkpt>
      <trkpt lat="57.86937" lon="24.3604">
        <ele>6.715786</ele>
        <time>2020-10-08T03:33:56.827Z</time>
      </trkpt>
      <trkpt lat="57.8682" lon="24.36004">
        <ele>7.123934</ele>
        <time>2020-10-08T03:34:24.167Z</time>
      </trkpt>
      <trkpt lat="57.8676" lon="24.35986">
        <ele>7.358519</ele>
        <time>2020-10-08T03:34:38.450Z</time>
      </trkpt>
      <trkpt lat="57.86666" lon="24.35956">
        <ele>7.822689</ele>
        <time>2020-10-08T03:35:02.282Z</time>
      </trkpt>
      <trkpt lat="57.8665" lon="24.35951">
        <ele>7.927477</ele>
        <time>2020-10-08T03:35:06.242Z</time>
      </trkpt>
      <trkpt lat="57.86639" lon="24.35947">
        <ele>8.003326</ele>
        <time>2020-10-08T03:35:09.156Z</time>
      </trkpt>
      <trkpt lat="57.8662" lon="24.35941">
        <ele>8.130234</ele>
        <time>2020-10-08T03:35:13.904Z</time>
      </trkpt>
      <trkpt lat="57.86593" lon="24.35932">
        <ele>8.312235</ele>
        <time>2020-10-08T03:35:20.773Z</time>
      </trkpt>
      <trkpt lat="57.86558" lon="24.35918">
        <ele>8.548622</ele>
        <time>2020-10-08T03:35:29.735Z</time>
      </trkpt>
      <trkpt lat="57.8653" lon="24.35909">
        <ele>8.735189</ele>
        <time>2020-10-08T03:35:36.857Z</time>
      </trkpt>
      <trkpt lat="57.86493" lon="24.35897">
        <ele>8.710888</ele>
        <time>2020-10-08T03:35:46.267Z</time>
      </trkpt>
      <trkpt lat="57.86452" lon="24.35882">
        <ele>8.621061</ele>
        <time>2020-10-08T03:35:56.188Z</time>
      </trkpt>
      <trkpt lat="57.86429" lon="24.35875">
        <ele>8.572431</ele>
        <time>2020-10-08T03:36:01.172Z</time>
      </trkpt>
      <trkpt lat="57.86357" lon="24.35853">
        <ele>8.418158</ele>
        <time>2020-10-08T03:36:15.554Z</time>
      </trkpt>
      <trkpt lat="57.86347" lon="24.35853">
        <ele>8.397161</ele>
        <time>2020-10-08T03:36:17.506Z</time>
      </trkpt>
      <trkpt lat="57.86344" lon="24.35875">
        <ele>8.288092</ele>
        <time>2020-10-08T03:36:19.840Z</time>
      </trkpt>
      <trkpt lat="57.86331" lon="24.35976">
        <ele>7.772399</ele>
        <time>2020-10-08T03:36:30.664Z</time>
      </trkpt>
      <trkpt lat="57.86323" lon="24.36041">
        <ele>7.437765</ele>
        <time>2020-10-08T03:36:37.565Z</time>
      </trkpt>
      <trkpt lat="57.86307" lon="24.36152">
        <ele>6.868489</ele>
        <time>2020-10-08T03:36:49.158Z</time>
      </trkpt>
      <trkpt lat="57.86303" lon="24.36184">
        <ele>6.712746</ele>
        <time>2020-10-08T03:36:52.586Z</time>
      </trkpt>
      <trkpt lat="57.8629" lon="24.36274">
        <ele>6.624878</ele>
        <time>2020-10-08T03:37:02.613Z</time>
      </trkpt>
      <trkpt lat="57.86287" lon="24.3629">
        <ele>6.609583</ele>
        <time>2020-10-08T03:37:04.395Z</time>
      </trkpt>
      <trkpt lat="57.86271" lon="24.36397">
        <ele>6.504552</ele>
        <time>2020-10-08T03:37:17.733Z</time>
      </trkpt>
      <trkpt lat="57.86258" lon="24.36489">
        <ele>6.415413</ele>
        <time>2020-10-08T03:37:29.450Z</time>
      </trkpt>
      <trkpt lat="57.86217" lon="24.36768">
        <ele>6.923139</ele>
        <time>2020-10-08T03:38:06.285Z</time>
      </trkpt>
      <trkpt lat="57.86205" lon="24.3685">
        <ele>7.069067</ele>
        <time>2020-10-08T03:38:17.038Z</time>
      </trkpt>
      <trkpt lat="57.86196" lon="24.36916">
        <ele>7.120032</ele>
        <time>2020-10-08T03:38:25.390Z</time>
      </trkpt>
      <trkpt lat="57.86184" lon="24.37006">
        <ele>7.189949</ele>
        <time>2020-10-08T03:38:36.637Z</time>
      </trkpt>
      <trkpt lat="57.86144" lon="24.37283">
        <ele>7.360324</ele>
        <time>2020-10-08T03:39:11.447Z</time>
      </trkpt>
      <trkpt lat="57.86104" lon="24.37553">
        <ele>7.334392</ele>
        <time>2020-10-08T03:39:44.932Z</time>
      </trkpt>
      <trkpt lat="57.86095" lon="24.37608">
        <ele>7.244405</ele>
        <time>2020-10-08T03:39:51.496Z</time>
      </trkpt>
      <trkpt lat="57.86083" lon="24.37691">
        <ele>7.108975</ele>
        <time>2020-10-08T03:40:01.143Z</time>
      </trkpt>
      <trkpt lat="57.86073" lon="24.37754">
        <ele>7.005426</ele>
        <time>2020-10-08T03:40:08.365Z</time>
      </trkpt>
      <trkpt lat="57.86038" lon="24.37995">
        <ele>6.622638</ele>
        <time>2020-10-08T03:40:35.784Z</time>
      </trkpt>
      <trkpt lat="57.86015" lon="24.38152">
        <ele>6.415894</ele>
        <time>2020-10-08T03:40:54.659Z</time>
      </trkpt>
      <trkpt lat="57.85984" lon="24.38365">
        <ele>6.732759</ele>
        <time>2020-10-08T03:41:22.409Z</time>
      </trkpt>
      <trkpt lat="57.85981" lon="24.38383">
        <ele>6.758825</ele>
        <time>2020-10-08T03:41:24.664Z</time>
      </trkpt>
      <trkpt lat="57.85965" lon="24.38492">
        <ele>6.948245</ele>
        <time>2020-10-08T03:41:38.909Z</time>
      </trkpt>
      <trkpt lat="57.85872" lon="24.39132">
        <ele>8.558152</ele>
        <time>2020-10-08T03:43:04.423Z</time>
      </trkpt>
      <trkpt lat="57.85755" lon="24.39926">
        <ele>10.115719</ele>
        <time>2020-10-08T03:44:47.999Z</time>
      </trkpt>
      <trkpt lat="57.8569" lon="24.40366">
        <ele>11.260518</ele>
        <time>2020-10-08T03:45:47.526Z</time>
      </trkpt>
      <trkpt lat="57.85571" lon="24.4118">
        <ele>12.204786</ele>
        <time>2020-10-08T03:47:30.822Z</time>
      </trkpt>
      <trkpt lat="57.85564" lon="24.41224">
        <ele>12.282154</ele>
        <time>2020-10-08T03:47:36.490Z</time>
      </trkpt>
      <trkpt lat="57.85505" lon="24.41625">
        <ele>13.125958</ele>
        <time>2020-10-08T03:48:29.691Z</time>
      </trkpt>
      <trkpt lat="57.85396" lon="24.42357">
        <ele>14.999257</ele>
        <time>2020-10-08T03:50:07.412Z</time>
      </trkpt>
      <trkpt lat="57.85309" lon="24.42937">
        <ele>16.791532</ele>
        <time>2020-10-08T03:51:24.872Z</time>
      </trkpt>
      <trkpt lat="57.85303" lon="24.42981">
        <ele>16.959375</ele>
        <time>2020-10-08T03:51:31.423Z</time>
      </trkpt>
      <trkpt lat="57.85278" lon="24.43148">
        <ele>18.008003</ele>
        <time>2020-10-08T03:51:57.001Z</time>
      </trkpt>
      <trkpt lat="57.85241" lon="24.43418">
        <ele>19.739152</ele>
        <time>2020-10-08T03:52:38.042Z</time>
      </trkpt>
      <trkpt lat="57.85141" lon="24.44094">
        <ele>22.507336</ele>
        <time>2020-10-08T03:54:10.745Z</time>
      </trkpt>
      <trkpt lat="57.85082" lon="24.44507">
        <ele>25.348577</ele>
        <time>2020-10-08T03:55:11.715Z</time>
      </trkpt>
      <trkpt lat="57.84924" lon="24.45569">
        <ele>37.535064</ele>
        <time>2020-10-08T03:58:13.074Z</time>
      </trkpt>
      <trkpt lat="57.8491" lon="24.45666">
        <ele>38.604751</ele>
        <time>2020-10-08T03:58:30.037Z</time>
      </trkpt>
      <trkpt lat="57.84902" lon="24.45755">
        <ele>39.421354</ele>
        <time>2020-10-08T03:58:44.865Z</time>
      </trkpt>
      <trkpt lat="57.8489" lon="24.4581">
        <ele>39.954844</ele>
        <time>2020-10-08T03:58:55.157Z</time>
      </trkpt>
      <trkpt lat="57.84859" lon="24.46022">
        <ele>41.280329</ele>
        <time>2020-10-08T03:59:30.063Z</time>
      </trkpt>
      <trkpt lat="57.84851" lon="24.46125">
        <ele>41.193199</ele>
        <time>2020-10-08T03:59:44.095Z</time>
      </trkpt>
      <trkpt lat="57.84883" lon="24.48274">
        <ele>30.864335</ele>
        <time>2020-10-08T04:03:54.420Z</time>
      </trkpt>
      <trkpt lat="57.84871" lon="24.48381">
        <ele>30.147118</ele>
        <time>2020-10-08T04:04:06.532Z</time>
      </trkpt>
      <trkpt lat="57.84881" lon="24.484">
        <ele>29.958929</ele>
        <time>2020-10-08T04:04:09.221Z</time>
      </trkpt>
      <trkpt lat="57.84837" lon="24.48643">
        <ele>28.106698</ele>
        <time>2020-10-08T04:04:34.578Z</time>
      </trkpt>
      <trkpt lat="57.84788" lon="24.48858">
        <ele>26.838241</ele>
        <time>2020-10-08T04:04:57.681Z</time>
      </trkpt>
      <trkpt lat="57.84724" lon="24.49083">
        <ele>26.741085</ele>
        <time>2020-10-08T04:05:27.183Z</time>
      </trkpt>
      <trkpt lat="57.84689" lon="24.49198">
        <ele>27.092916</ele>
        <time>2020-10-08T04:05:45.471Z</time>
      </trkpt>
      <trkpt lat="57.84435" lon="24.50067">
        <ele>34.492235</ele>
        <time>2020-10-08T04:08:13.376Z</time>
      </trkpt>
      <trkpt lat="57.84286" lon="24.5059">
        <ele>40.071029</ele>
        <time>2020-10-08T04:09:48.393Z</time>
      </trkpt>
      <trkpt lat="57.84112" lon="24.51178">
        <ele>43.383736</ele>
        <time>2020-10-08T04:11:22.872Z</time>
      </trkpt>
      <trkpt lat="57.84107" lon="24.51262">
        <ele>43.506492</ele>
        <time>2020-10-08T04:11:32.790Z</time>
      </trkpt>
      <trkpt lat="57.84084" lon="24.51351">
        <ele>43.320892</ele>
        <time>2020-10-08T04:11:43.565Z</time>
      </trkpt>
      <trkpt lat="57.83913" lon="24.51946">
        <ele>36.430017</ele>
        <time>2020-10-08T04:12:46.546Z</time>
      </trkpt>
      <trkpt lat="57.83873" lon="24.52077">
        <ele>35.500661</ele>
        <time>2020-10-08T04:13:01.385Z</time>
      </trkpt>
      <trkpt lat="57.83845" lon="24.52154">
        <ele>34.932265</ele>
        <time>2020-10-08T04:13:11.191Z</time>
      </trkpt>
      <trkpt lat="57.83823" lon="24.52143">
        <ele>34.673204</ele>
        <time>2020-10-08T04:13:19.091Z</time>
      </trkpt>
      <trkpt lat="57.837" lon="24.52412">
        <ele>34.489341</ele>
        <time>2020-10-08T04:14:29.423Z</time>
      </trkpt>
      <trkpt lat="57.83539" lon="24.52748">
        <ele>34.964552</ele>
        <time>2020-10-08T04:15:59.215Z</time>
      </trkpt>
      <trkpt lat="57.83071" lon="24.53752">
        <ele>40.442805</ele>
        <time>2020-10-08T04:20:47.105Z</time>
      </trkpt>
      <trkpt lat="57.82838" lon="24.54459">
        <ele>43.579605</ele>
        <time>2020-10-08T04:23:44.743Z</time>
      </trkpt>
      <trkpt lat="57.82789" lon="24.54582">
        <ele>43.915271</ele>
        <time>2020-10-08T04:24:16.648Z</time>
      </trkpt>
      <trkpt lat="57.82658" lon="24.54854">
        <ele>43.837182</ele>
        <time>2020-10-08T04:25:29.249Z</time>
      </trkpt>
      <trkpt lat="57.8228" lon="24.55692">
        <ele>41.391522</ele>
        <time>2020-10-08T04:28:55.463Z</time>
      </trkpt>
      <trkpt lat="57.82274" lon="24.55707">
        <ele>41.379441</ele>
        <time>2020-10-08T04:28:59.258Z</time>
      </trkpt>
      <trkpt lat="57.8216" lon="24.55972">
        <ele>41.567018</ele>
        <time>2020-10-08T04:30:09.428Z</time>
      </trkpt>
      <trkpt lat="57.81922" lon="24.56514">
        <ele>41.665632</ele>
        <time>2020-10-08T04:32:29.609Z</time>
      </trkpt>
      <trkpt lat="57.81781" lon="24.56796">
        <ele>40.880571</ele>
        <time>2020-10-08T04:33:40.758Z</time>
      </trkpt>
      <trkpt lat="57.81653" lon="24.56945">
        <ele>41.950494</ele>
        <time>2020-10-08T04:34:39.499Z</time>
      </trkpt>
      <trkpt lat="57.81648" lon="24.56949">
        <ele>42.007126</ele>
        <time>2020-10-08T04:34:42.189Z</time>
      </trkpt>
      <trkpt lat="57.81583" lon="24.56996">
        <ele>42.809279</ele>
        <time>2020-10-08T04:35:13.904Z</time>
      </trkpt>
      <trkpt lat="57.81488" lon="24.57046">
        <ele>44.50746</ele>
        <time>2020-10-08T04:36:00.042Z</time>
      </trkpt>
      <trkpt lat="57.81455" lon="24.57063">
        <ele>45.093429</ele>
        <time>2020-10-08T04:36:15.476Z</time>
      </trkpt>
      <trkpt lat="57.80623" lon="24.57483">
        <ele>44.992899</ele>
        <time>2020-10-08T04:39:32.627Z</time>
      </trkpt>
      <trkpt lat="57.80604" lon="24.57528">
        <ele>44.934874</ele>
        <time>2020-10-08T04:39:39.335Z</time>
      </trkpt>
      <trkpt lat="57.80563" lon="24.57496">
        <ele>44.842033</ele>
        <time>2020-10-08T04:39:49.034Z</time>
      </trkpt>
      <trkpt lat="57.80489" lon="24.57437">
        <ele>44.498799</ele>
        <time>2020-10-08T04:40:06.690Z</time>
      </trkpt>
      <trkpt lat="57.8044" lon="24.57393">
        <ele>44.268149</ele>
        <time>2020-10-08T04:40:18.444Z</time>
      </trkpt>
      <trkpt lat="57.80426" lon="24.57372">
        <ele>44.191867</ele>
        <time>2020-10-08T04:40:22.496Z</time>
      </trkpt>
      <trkpt lat="57.80367" lon="24.57201">
        <ele>43.325468</ele>
        <time>2020-10-08T04:40:45.336Z</time>
      </trkpt>
      <trkpt lat="57.80272" lon="24.56963">
        <ele>41.83761</ele>
        <time>2020-10-08T04:41:16.877Z</time>
      </trkpt>
      <trkpt lat="57.80167" lon="24.56836">
        <ele>40.663844</ele>
        <time>2020-10-08T04:41:42.289Z</time>
      </trkpt>
      <trkpt lat="57.80141" lon="24.56654">
        <ele>40.398594</ele>
        <time>2020-10-08T04:42:04.148Z</time>
      </trkpt>
      <trkpt lat="57.80067" lon="24.56457">
        <ele>40.247456</ele>
        <time>2020-10-08T04:42:34.798Z</time>
      </trkpt>
      <trkpt lat="57.79924" lon="24.56448">
        <ele>40.246722</ele>
        <time>2020-10-08T04:43:08.467Z</time>
      </trkpt>
      <trkpt lat="57.79762" lon="24.56394">
        <ele>39.668245</ele>
        <time>2020-10-08T04:43:44.002Z</time>
      </trkpt>
      <trkpt lat="57.79626" lon="24.56393">
        <ele>39.103241</ele>
        <time>2020-10-08T04:44:13.103Z</time>
      </trkpt>
      <trkpt lat="57.79035" lon="24.5652">
        <ele>39.178967</ele>
        <time>2020-10-08T04:46:30.918Z</time>
      </trkpt>
      <trkpt lat="57.78883" lon="24.56553">
        <ele>40.383757</ele>
        <time>2020-10-08T04:47:12.644Z</time>
      </trkpt>
      <trkpt lat="57.78819" lon="24.56562">
        <ele>40.613896</ele>
        <time>2020-10-08T04:47:29.840Z</time>
      </trkpt>
      <trkpt lat="57.7876" lon="24.56513">
        <ele>40.795729</ele>
        <time>2020-10-08T04:47:45.903Z</time>
      </trkpt>
      <trkpt lat="57.78396" lon="24.56265">
        <ele>39.804507</ele>
        <time>2020-10-08T04:49:10.626Z</time>
      </trkpt>
      <trkpt lat="57.7814" lon="24.56211">
        <ele>39.196651</ele>
        <time>2020-10-08T04:50:07.113Z</time>
      </trkpt>
      <trkpt lat="57.7798" lon="24.56144">
        <ele>39.529724</ele>
        <time>2020-10-08T04:50:48.085Z</time>
      </trkpt>
      <trkpt lat="57.77931" lon="24.56084">
        <ele>39.617886</ele>
        <time>2020-10-08T04:51:02.745Z</time>
      </trkpt>
      <trkpt lat="57.77894" lon="24.55989">
        <ele>39.712425</ele>
        <time>2020-10-08T04:51:17.596Z</time>
      </trkpt>
      <trkpt lat="57.77897" lon="24.55953">
        <ele>39.741826</ele>
        <time>2020-10-08T04:51:22.026Z</time>
      </trkpt>
      <trkpt lat="57.77876" lon="24.55808">
        <ele>39.342062</ele>
        <time>2020-10-08T04:51:39.254Z</time>
      </trkpt>
      <trkpt lat="57.77827" lon="24.55697">
        <ele>38.883565</ele>
        <time>2020-10-08T04:51:55.206Z</time>
      </trkpt>
      <trkpt lat="57.77756" lon="24.5552">
        <ele>38.256027</ele>
        <time>2020-10-08T04:52:20.209Z</time>
      </trkpt>
      <trkpt lat="57.77583" lon="24.55591">
        <ele>37.618244</ele>
        <time>2020-10-08T04:52:59.163Z</time>
      </trkpt>
      <trkpt lat="57.77565" lon="24.55525">
        <ele>37.541505</ele>
        <time>2020-10-08T04:53:08.093Z</time>
      </trkpt>
      <trkpt lat="57.77547" lon="24.55467">
        <ele>37.470259</ele>
        <time>2020-10-08T04:53:16.432Z</time>
      </trkpt>
      <trkpt lat="57.77436" lon="24.55139">
        <ele>37.353307</ele>
        <time>2020-10-08T04:54:04.552Z</time>
      </trkpt>
      <trkpt lat="57.77324" lon="24.54801">
        <ele>37.043078</ele>
        <time>2020-10-08T04:54:52.244Z</time>
      </trkpt>
      <trkpt lat="57.77307" lon="24.54762">
        <ele>37.028175</ele>
        <time>2020-10-08T04:54:58.209Z</time>
      </trkpt>
      <trkpt lat="57.77264" lon="24.54679">
        <ele>36.994152</ele>
        <time>2020-10-08T04:55:12.204Z</time>
      </trkpt>
      <trkpt lat="57.77225" lon="24.54602">
        <ele>36.968308</ele>
        <time>2020-10-08T04:55:25.837Z</time>
      </trkpt>
      <trkpt lat="57.7716" lon="24.54466">
        <ele>37.098166</ele>
        <time>2020-10-08T04:55:48.484Z</time>
      </trkpt>
      <trkpt lat="57.77143" lon="24.5444">
        <ele>37.12733</ele>
        <time>2020-10-08T04:55:53.779Z</time>
      </trkpt>
      <trkpt lat="57.7712" lon="24.5441">
        <ele>37.165017</ele>
        <time>2020-10-08T04:56:00.437Z</time>
      </trkpt>
      <trkpt lat="57.77062" lon="24.54355">
        <ele>37.317038</ele>
        <time>2020-10-08T04:56:16.307Z</time>
      </trkpt>
      <trkpt lat="57.77055" lon="24.54369">
        <ele>37.349898</ele>
        <time>2020-10-08T04:56:18.958Z</time>
      </trkpt>
      <trkpt lat="57.77043" lon="24.54418">
        <ele>37.441825</ele>
        <time>2020-10-08T04:56:25.857Z</time>
      </trkpt>
      <trkpt lat="57.77037" lon="24.54434">
        <ele>37.474404</ele>
        <time>2020-10-08T04:56:28.466Z</time>
      </trkpt>
      <trkpt lat="57.77033" lon="24.54444">
        <ele>37.495827</ele>
        <time>2020-10-08T04:56:30.029Z</time>
      </trkpt>
      <trkpt lat="57.77027" lon="24.54453">
        <ele>37.521084</ele>
        <time>2020-10-08T04:56:31.817Z</time>
      </trkpt>
      <trkpt lat="57.77022" lon="24.54456">
        <ele>37.537214</ele>
        <time>2020-10-08T04:56:32.935Z</time>
      </trkpt>
      <trkpt lat="57.76997" lon="24.54434">
        <ele>37.624584</ele>
        <time>2020-10-08T04:56:39.462Z</time>
      </trkpt>
      <trkpt lat="57.76983" lon="24.54434">
        <ele>37.670274</ele>
        <time>2020-10-08T04:56:42.980Z</time>
      </trkpt>
      <trkpt lat="57.76956" lon="24.54534">
        <ele>37.888189</ele>
        <time>2020-10-08T04:56:58.250Z</time>
      </trkpt>
      <trkpt lat="57.76939" lon="24.54517">
        <ele>37.970519</ele>
        <time>2020-10-08T04:57:03.244Z</time>
      </trkpt>
      <trkpt lat="57.76935" lon="24.54501">
        <ele>38.009366</ele>
        <time>2020-10-08T04:57:05.622Z</time>
      </trkpt>
      <trkpt lat="57.76937" lon="24.54473">
        <ele>38.074248</ele>
        <time>2020-10-08T04:57:09.445Z</time>
      </trkpt>
      <trkpt lat="57.76931" lon="24.54452">
        <ele>38.129446</ele>
        <time>2020-10-08T04:57:12.759Z</time>
      </trkpt>
      <trkpt lat="57.76913" lon="24.54436">
        <ele>38.212291</ele>
        <time>2020-10-08T04:57:17.609Z</time>
      </trkpt>
      <trkpt lat="57.76909" lon="24.54433">
        <ele>38.233196</ele>
        <time>2020-10-08T04:57:18.894Z</time>
      </trkpt>
      <trkpt lat="57.76897" lon="24.54426">
        <ele>38.286786</ele>
        <time>2020-10-08T04:57:21.977Z</time>
      </trkpt>
      <trkpt lat="57.76894" lon="24.54424">
        <ele>38.30066</ele>
        <time>2020-10-08T04:57:22.830Z</time>
      </trkpt>
      <trkpt lat="57.76849" lon="24.5442">
        <ele>38.494657</ele>
        <time>2020-10-08T04:57:33.677Z</time>
      </trkpt>
      <trkpt lat="57.76831" lon="24.54412">
        <ele>38.552885</ele>
        <time>2020-10-08T04:57:37.926Z</time>
      </trkpt>
      <trkpt lat="57.76813" lon="24.54447">
        <ele>38.560138</ele>
        <time>2020-10-08T04:57:43.700Z</time>
      </trkpt>
      <trkpt lat="57.76785" lon="24.54489">
        <ele>38.569908</ele>
        <time>2020-10-08T04:57:51.665Z</time>
      </trkpt>
      <trkpt lat="57.76721" lon="24.54592">
        <ele>38.593249</ele>
        <time>2020-10-08T04:58:10.567Z</time>
      </trkpt>
      <trkpt lat="57.76701" lon="24.54626">
        <ele>38.600833</ele>
        <time>2020-10-08T04:58:16.560Z</time>
      </trkpt>
      <trkpt lat="57.76642" lon="24.54722">
        <ele>38.719826</ele>
        <time>2020-10-08T04:58:34.152Z</time>
      </trkpt>
      <trkpt lat="57.76589" lon="24.54821">
        <ele>38.835519</ele>
        <time>2020-10-08T04:58:51.459Z</time>
      </trkpt>
      <trkpt lat="57.76553" lon="24.54913">
        <ele>38.931187</ele>
        <time>2020-10-08T04:59:05.767Z</time>
      </trkpt>
      <trkpt lat="57.76404" lon="24.5554">
        <ele>39.922106</ele>
        <time>2020-10-08T05:00:29.157Z</time>
      </trkpt>
      <trkpt lat="57.76362" lon="24.55716">
        <ele>41.16764</ele>
        <time>2020-10-08T05:00:57.921Z</time>
      </trkpt>
      <trkpt lat="57.76284" lon="24.55644">
        <ele>41.925967</ele>
        <time>2020-10-08T05:01:24.517Z</time>
      </trkpt>
      <trkpt lat="57.76207" lon="24.55562">
        <ele>42.446537</ele>
        <time>2020-10-08T05:01:47.334Z</time>
      </trkpt>
      <trkpt lat="57.7614" lon="24.55909">
        <ele>40.946681</ele>
        <time>2020-10-08T05:02:24.211Z</time>
      </trkpt>
      <trkpt lat="57.76066" lon="24.56308">
        <ele>39.354099</ele>
        <time>2020-10-08T05:03:08.928Z</time>
      </trkpt>
      <trkpt lat="57.76039" lon="24.56439">
        <ele>39.539129</ele>
        <time>2020-10-08T05:03:26.458Z</time>
      </trkpt>
      <trkpt lat="57.75983" lon="24.5674">
        <ele>40.180043</ele>
        <time>2020-10-08T05:04:08.830Z</time>
      </trkpt>
      <trkpt lat="57.75961" lon="24.5682">
        <ele>40.41903</ele>
        <time>2020-10-08T05:04:20.332Z</time>
      </trkpt>
      <trkpt lat="57.75938" lon="24.56904">
        <ele>40.661642</ele>
        <time>2020-10-08T05:04:32.257Z</time>
      </trkpt>
      <trkpt lat="57.75857" lon="24.57147">
        <ele>40.852032</ele>
        <time>2020-10-08T05:05:07.100Z</time>
      </trkpt>
      <trkpt lat="57.75803" lon="24.57286">
        <ele>40.815113</ele>
        <time>2020-10-08T05:05:27.366Z</time>
      </trkpt>
      <trkpt lat="57.75739" lon="24.57434">
        <ele>40.715517</ele>
        <time>2020-10-08T05:05:49.533Z</time>
      </trkpt>
      <trkpt lat="57.75614" lon="24.57705">
        <ele>40.550211</ele>
        <time>2020-10-08T05:06:31.366Z</time>
      </trkpt>
      <trkpt lat="57.75607" lon="24.57719">
        <ele>40.553378</ele>
        <time>2020-10-08T05:06:33.685Z</time>
      </trkpt>
      <trkpt lat="57.75513" lon="24.57901">
        <ele>40.597018</ele>
        <time>2020-10-08T05:07:04.324Z</time>
      </trkpt>
      <trkpt lat="57.75232" lon="24.5837">
        <ele>39.924348</ele>
        <time>2020-10-08T05:08:25.942Z</time>
      </trkpt>
      <trkpt lat="57.75143" lon="24.58557">
        <ele>39.661886</ele>
        <time>2020-10-08T05:08:53.451Z</time>
      </trkpt>
      <trkpt lat="57.75116" lon="24.58626">
        <ele>39.574818</ele>
        <time>2020-10-08T05:09:03.437Z</time>
      </trkpt>
      <trkpt lat="57.75023" lon="24.58864">
        <ele>40.394089</ele>
        <time>2020-10-08T05:09:42.291Z</time>
      </trkpt>
      <trkpt lat="57.74987" lon="24.58932">
        <ele>40.684788</ele>
        <time>2020-10-08T05:09:55.776Z</time>
      </trkpt>
      <trkpt lat="57.74913" lon="24.59043">
        <ele>41.102689</ele>
        <time>2020-10-08T05:10:19.205Z</time>
      </trkpt>
      <trkpt lat="57.74875" lon="24.59085">
        <ele>41.295983</ele>
        <time>2020-10-08T05:10:29.424Z</time>
      </trkpt>
      <trkpt lat="57.74844" lon="24.59109">
        <ele>41.426553</ele>
        <time>2020-10-08T05:10:37.000Z</time>
      </trkpt>
      <trkpt lat="57.74812" lon="24.5913">
        <ele>41.439185</ele>
        <time>2020-10-08T05:10:44.535Z</time>
      </trkpt>
      <trkpt lat="57.74702" lon="24.59173">
        <ele>41.481215</ele>
        <time>2020-10-08T05:11:09.180Z</time>
      </trkpt>
      <trkpt lat="57.74465" lon="24.59232">
        <ele>41.895245</ele>
        <time>2020-10-08T05:12:04.294Z</time>
      </trkpt>
      <trkpt lat="57.74394" lon="24.59259">
        <ele>42.0529</ele>
        <time>2020-10-08T05:12:21.213Z</time>
      </trkpt>
      <trkpt lat="57.74328" lon="24.59297">
        <ele>42.202945</ele>
        <time>2020-10-08T05:12:37.266Z</time>
      </trkpt>
      <trkpt lat="57.74262" lon="24.59344">
        <ele>42.341736</ele>
        <time>2020-10-08T05:12:53.616Z</time>
      </trkpt>
      <trkpt lat="57.73787" lon="24.59727">
        <ele>43.315125</ele>
        <time>2020-10-08T05:14:52.411Z</time>
      </trkpt>
      <trkpt lat="57.73675" lon="24.59834">
        <ele>43.569029</ele>
        <time>2020-10-08T05:15:21.642Z</time>
      </trkpt>
      <trkpt lat="57.72817" lon="24.60842">
        <ele>44.550977</ele>
        <time>2020-10-08T05:19:12.329Z</time>
      </trkpt>
      <trkpt lat="57.7277" lon="24.60882">
        <ele>44.482143</ele>
        <time>2020-10-08T05:19:23.342Z</time>
      </trkpt>
      <trkpt lat="57.7276" lon="24.6089">
        <ele>44.468527</ele>
        <time>2020-10-08T05:19:25.411Z</time>
      </trkpt>
      <trkpt lat="57.72677" lon="24.60933">
        <ele>43.936685</ele>
        <time>2020-10-08T05:19:43.049Z</time>
      </trkpt>
      <trkpt lat="57.72629" lon="24.60944">
        <ele>43.572235</ele>
        <time>2020-10-08T05:19:52.509Z</time>
      </trkpt>
      <trkpt lat="57.72603" lon="24.6095">
        <ele>43.373965</ele>
        <time>2020-10-08T05:19:57.575Z</time>
      </trkpt>
      <trkpt lat="57.7251" lon="24.6097">
        <ele>42.647577</ele>
        <time>2020-10-08T05:20:15.831Z</time>
      </trkpt>
      <trkpt lat="57.7249" lon="24.60974">
        <ele>42.486215</ele>
        <time>2020-10-08T05:20:19.709Z</time>
      </trkpt>
      <trkpt lat="57.72198" lon="24.61053">
        <ele>40.476099</ele>
        <time>2020-10-08T05:21:19.040Z</time>
      </trkpt>
      <trkpt lat="57.7209" lon="24.61106">
        <ele>40.374342</ele>
        <time>2020-10-08T05:21:43.418Z</time>
      </trkpt>
      <trkpt lat="57.72017" lon="24.61161">
        <ele>40.409512</ele>
        <time>2020-10-08T05:22:01.419Z</time>
      </trkpt>
      <trkpt lat="57.71939" lon="24.61233">
        <ele>40.761696</ele>
        <time>2020-10-08T05:22:22.081Z</time>
      </trkpt>
      <trkpt lat="57.71879" lon="24.61306">
        <ele>41.052444</ele>
        <time>2020-10-08T05:22:39.439Z</time>
      </trkpt>
      <trkpt lat="57.71817" lon="24.6139">
        <ele>41.51452</ele>
        <time>2020-10-08T05:22:58.303Z</time>
      </trkpt>
      <trkpt lat="57.71709" lon="24.6157">
        <ele>42.370785</ele>
        <time>2020-10-08T05:23:34.320Z</time>
      </trkpt>
      <trkpt lat="57.71626" lon="24.6177">
        <ele>43.119255</ele>
        <time>2020-10-08T05:24:07.495Z</time>
      </trkpt>
      <trkpt lat="57.71586" lon="24.61892">
        <ele>43.151512</ele>
        <time>2020-10-08T05:24:25.398Z</time>
      </trkpt>
      <trkpt lat="57.71561" lon="24.61996">
        <ele>43.163355</ele>
        <time>2020-10-08T05:24:38.947Z</time>
      </trkpt>
      <trkpt lat="57.71397" lon="24.62825">
        <ele>41.650566</ele>
        <time>2020-10-08T05:26:17.191Z</time>
      </trkpt>
      <trkpt lat="57.71306" lon="24.63352">
        <ele>42.454976</ele>
        <time>2020-10-08T05:27:27.767Z</time>
      </trkpt>
      <trkpt lat="57.71263" lon="24.6352">
        <ele>43.03951</ele>
        <time>2020-10-08T05:27:52.224Z</time>
      </trkpt>
      <trkpt lat="57.71163" lon="24.63817">
        <ele>44.123977</ele>
        <time>2020-10-08T05:28:38.812Z</time>
      </trkpt>
      <trkpt lat="57.71104" lon="24.63985">
        <ele>44.694556</ele>
        <time>2020-10-08T05:29:04.907Z</time>
      </trkpt>
      <trkpt lat="57.7103" lon="24.64195">
        <ele>45.309215</ele>
        <time>2020-10-08T05:29:37.278Z</time>
      </trkpt>
      <trkpt lat="57.70918" lon="24.64518">
        <ele>46.043499</ele>
        <time>2020-10-08T05:30:26.892Z</time>
      </trkpt>
      <trkpt lat="57.7085" lon="24.64685">
        <ele>45.664999</ele>
        <time>2020-10-08T05:30:50.850Z</time>
      </trkpt>
      <trkpt lat="57.70799" lon="24.64766">
        <ele>45.355337</ele>
        <time>2020-10-08T05:31:03.988Z</time>
      </trkpt>
      <trkpt lat="57.70738" lon="24.6484">
        <ele>44.754235</ele>
        <time>2020-10-08T05:31:17.992Z</time>
      </trkpt>
      <trkpt lat="57.70665" lon="24.64906">
        <ele>44.092872</ele>
        <time>2020-10-08T05:31:33.884Z</time>
      </trkpt>
      <trkpt lat="57.70611" lon="24.64945">
        <ele>44.221647</ele>
        <time>2020-10-08T05:31:46.170Z</time>
      </trkpt>
      <trkpt lat="57.70314" lon="24.65167">
        <ele>46.096161</ele>
        <time>2020-10-08T05:33:07.419Z</time>
      </trkpt>
      <trkpt lat="57.70312" lon="24.65195">
        <ele>46.079697</ele>
        <time>2020-10-08T05:33:10.979Z</time>
      </trkpt>
      <trkpt lat="57.70308" lon="24.65267">
        <ele>46.037353</ele>
        <time>2020-10-08T05:33:20.026Z</time>
      </trkpt>
      <trkpt lat="57.70307" lon="24.65281">
        <ele>46.029544</ele>
        <time>2020-10-08T05:33:21.734Z</time>
      </trkpt>
      <trkpt lat="57.70307" lon="24.65367">
        <ele>45.97949</ele>
        <time>2020-10-08T05:33:32.018Z</time>
      </trkpt>
      <trkpt lat="57.70315" lon="24.65456">
        <ele>45.927168</ele>
        <time>2020-10-08T05:33:42.085Z</time>
      </trkpt>
      <trkpt lat="57.70316" lon="24.65463">
        <ele>45.923095</ele>
        <time>2020-10-08T05:33:42.701Z</time>
      </trkpt>
      <trkpt lat="57.70349" lon="24.65639">
        <ele>45.453717</ele>
        <time>2020-10-08T05:34:02.047Z</time>
      </trkpt>
      <trkpt lat="57.70365" lon="24.65724">
        <ele>45.203615</ele>
        <time>2020-10-08T05:34:11.248Z</time>
      </trkpt>
      <trkpt lat="57.70373" lon="24.65819">
        <ele>45.032758</ele>
        <time>2020-10-08T05:34:23.944Z</time>
      </trkpt>
      <trkpt lat="57.70378" lon="24.65899">
        <ele>45.342022</ele>
        <time>2020-10-08T05:34:34.763Z</time>
      </trkpt>
      <trkpt lat="57.7038" lon="24.65994">
        <ele>45.711711</ele>
        <time>2020-10-08T05:34:47.666Z</time>
      </trkpt>
      <trkpt lat="57.7038" lon="24.66002">
        <ele>45.743374</ele>
        <time>2020-10-08T05:34:49.088Z</time>
      </trkpt>
      <trkpt lat="57.70381" lon="24.6608">
        <ele>46.04182</ele>
        <time>2020-10-08T05:35:00.095Z</time>
      </trkpt>
      <trkpt lat="57.70378" lon="24.66207">
        <ele>46.26774</ele>
        <time>2020-10-08T05:35:17.036Z</time>
      </trkpt>
      <trkpt lat="57.70364" lon="24.66337">
        <ele>46.251217</ele>
        <time>2020-10-08T05:35:33.726Z</time>
      </trkpt>
      <trkpt lat="57.70341" lon="24.66422">
        <ele>46.239248</ele>
        <time>2020-10-08T05:35:43.763Z</time>
      </trkpt>
      <trkpt lat="57.70333" lon="24.66452">
        <ele>46.235031</ele>
        <time>2020-10-08T05:35:47.337Z</time>
      </trkpt>
      <trkpt lat="57.70316" lon="24.66511">
        <ele>46.30442</ele>
        <time>2020-10-08T05:35:54.547Z</time>
      </trkpt>
      <trkpt lat="57.70295" lon="24.66582">
        <ele>46.400518</ele>
        <time>2020-10-08T05:36:03.756Z</time>
      </trkpt>
      <trkpt lat="57.70269" lon="24.66655">
        <ele>46.506052</ele>
        <time>2020-10-08T05:36:14.910Z</time>
      </trkpt>
      <trkpt lat="57.70249" lon="24.66687">
        <ele>46.564196</ele>
        <time>2020-10-08T05:36:21.638Z</time>
      </trkpt>
      <trkpt lat="57.70243" lon="24.66696">
        <ele>46.580871</ele>
        <time>2020-10-08T05:36:23.655Z</time>
      </trkpt>
      <trkpt lat="57.70222" lon="24.66729">
        <ele>46.666514</ele>
        <time>2020-10-08T05:36:30.982Z</time>
      </trkpt>
      <trkpt lat="57.70205" lon="24.66755">
        <ele>46.906787</ele>
        <time>2020-10-08T05:36:36.804Z</time>
      </trkpt>
      <trkpt lat="57.70192" lon="24.66778">
        <ele>47.10777</ele>
        <time>2020-10-08T05:36:41.691Z</time>
      </trkpt>
      <trkpt lat="57.70186" lon="24.66789">
        <ele>47.195727</ele>
        <time>2020-10-08T05:36:43.874Z</time>
      </trkpt>
      <trkpt lat="57.70175" lon="24.66813">
        <ele>47.384178</ele>
        <time>2020-10-08T05:36:48.550Z</time>
      </trkpt>
      <trkpt lat="57.70158" lon="24.66844">
        <ele>47.644457</ele>
        <time>2020-10-08T05:36:55.035Z</time>
      </trkpt>
      <trkpt lat="57.70148" lon="24.66863">
        <ele>47.79943</ele>
        <time>2020-10-08T05:36:58.946Z</time>
      </trkpt>
      <trkpt lat="57.70091" lon="24.66966">
        <ele>48.643045</ele>
        <time>2020-10-08T05:37:20.586Z</time>
      </trkpt>
      <trkpt lat="57.6999" lon="24.67201">
        <ele>49.635221</ele>
        <time>2020-10-08T05:37:59.593Z</time>
      </trkpt>
      <trkpt lat="57.69983" lon="24.67211">
        <ele>49.688796</ele>
        <time>2020-10-08T05:38:02.034Z</time>
      </trkpt>
      <trkpt lat="57.69987" lon="24.67225">
        <ele>49.744237</ele>
        <time>2020-10-08T05:38:04.302Z</time>
      </trkpt>
      <trkpt lat="57.69983" lon="24.67211">
        <ele>49.806979</ele>
        <time>2020-10-08T05:38:07.060Z</time>
      </trkpt>
      <trkpt lat="57.69974" lon="24.67223">
        <ele>49.895713</ele>
        <time>2020-10-08T05:38:09.493Z</time>
      </trkpt>
      <trkpt lat="57.69914" lon="24.67266">
        <ele>50.390935</ele>
        <time>2020-10-08T05:38:25.547Z</time>
      </trkpt>
      <trkpt lat="57.69908" lon="24.67271">
        <ele>50.445744</ele>
        <time>2020-10-08T05:38:27.053Z</time>
      </trkpt>
      <trkpt lat="57.69898" lon="24.67278">
        <ele>50.528545</ele>
        <time>2020-10-08T05:38:30.122Z</time>
      </trkpt>
      <trkpt lat="57.69849" lon="24.67336">
        <ele>50.975182</ele>
        <time>2020-10-08T05:38:44.783Z</time>
      </trkpt>
      <trkpt lat="57.69735" lon="24.67458">
        <ele>52.339543</ele>
        <time>2020-10-08T05:39:19.836Z</time>
      </trkpt>
      <trkpt lat="57.69713" lon="24.67481">
        <ele>52.609255</ele>
        <time>2020-10-08T05:39:26.676Z</time>
      </trkpt>
      <trkpt lat="57.697" lon="24.67492">
        <ele>52.768389</ele>
        <time>2020-10-08T05:39:30.817Z</time>
      </trkpt>
      <trkpt lat="57.6966" lon="24.67525">
        <ele>53.160187</ele>
        <time>2020-10-08T05:39:42.519Z</time>
      </trkpt>
      <trkpt lat="57.6965" lon="24.67534">
        <ele>53.227331</ele>
        <time>2020-10-08T05:39:45.282Z</time>
      </trkpt>
      <trkpt lat="57.69631" lon="24.6755">
        <ele>53.354704</ele>
        <time>2020-10-08T05:39:50.808Z</time>
      </trkpt>
      <trkpt lat="57.69598" lon="24.67587">
        <ele>53.59213</ele>
        <time>2020-10-08T05:40:00.520Z</time>
      </trkpt>
      <trkpt lat="57.69573" lon="24.67623">
        <ele>53.786634</ele>
        <time>2020-10-08T05:40:08.302Z</time>
      </trkpt>
      <trkpt lat="57.69538" lon="24.67498">
        <ele>54.051289</ele>
        <time>2020-10-08T05:40:26.133Z</time>
      </trkpt>
      <trkpt lat="57.69498" lon="24.67351">
        <ele>53.415649</ele>
        <time>2020-10-08T05:40:44.545Z</time>
      </trkpt>
      <trkpt lat="57.69485" lon="24.67293">
        <ele>53.173888</ele>
        <time>2020-10-08T05:40:50.905Z</time>
      </trkpt>
      <trkpt lat="57.69446" lon="24.67149">
        <ele>52.219028</ele>
        <time>2020-10-08T05:41:06.694Z</time>
      </trkpt>
      <trkpt lat="57.69418" lon="24.6703">
        <ele>51.185732</ele>
        <time>2020-10-08T05:41:19.216Z</time>
      </trkpt>
      <trkpt lat="57.69398" lon="24.66937">
        <ele>50.385645</ele>
        <time>2020-10-08T05:41:29.075Z</time>
      </trkpt>
      <trkpt lat="57.69364" lon="24.66756">
        <ele>49.763517</ele>
        <time>2020-10-08T05:41:49.259Z</time>
      </trkpt>
      <trkpt lat="57.69343" lon="24.66616">
        <ele>49.397606</ele>
        <time>2020-10-08T05:42:06.267Z</time>
      </trkpt>
      <trkpt lat="57.69304" lon="24.66329">
        <ele>49.988524</ele>
        <time>2020-10-08T05:42:43.913Z</time>
      </trkpt>
      <trkpt lat="57.69275" lon="24.66122">
        <ele>50.644869</ele>
        <time>2020-10-08T05:43:13.587Z</time>
      </trkpt>
      <trkpt lat="57.69253" lon="24.65954">
        <ele>51.225307</ele>
        <time>2020-10-08T05:43:36.548Z</time>
      </trkpt>
      <trkpt lat="57.69252" lon="24.65928">
        <ele>51.256171</ele>
        <time>2020-10-08T05:43:40.187Z</time>
      </trkpt>
      <trkpt lat="57.69024" lon="24.6609">
        <ele>50.540628</ele>
        <time>2020-10-08T05:44:30.228Z</time>
      </trkpt>
      <trkpt lat="57.6902" lon="24.66093">
        <ele>50.533253</ele>
        <time>2020-10-08T05:44:30.956Z</time>
      </trkpt>
      <trkpt lat="57.68302" lon="24.66616">
        <ele>49.650007</ele>
        <time>2020-10-08T05:47:18.883Z</time>
      </trkpt>
      <trkpt lat="57.68153" lon="24.6668">
        <ele>50.588989</ele>
        <time>2020-10-08T05:47:58.763Z</time>
      </trkpt>
      <trkpt lat="57.68068" lon="24.66709">
        <ele>51.270758</ele>
        <time>2020-10-08T05:48:21.016Z</time>
      </trkpt>
      <trkpt lat="57.68053" lon="24.66715">
        <ele>51.281228</ele>
        <time>2020-10-08T05:48:25.057Z</time>
      </trkpt>
      <trkpt lat="57.67827" lon="24.66794">
        <ele>51.157213</ele>
        <time>2020-10-08T05:49:15.312Z</time>
      </trkpt>
      <trkpt lat="57.6779" lon="24.66806">
        <ele>51.036814</ele>
        <time>2020-10-08T05:49:22.850Z</time>
      </trkpt>
      <trkpt lat="57.6765" lon="24.66855">
        <ele>50.632944</ele>
        <time>2020-10-08T05:49:52.552Z</time>
      </trkpt>
      <trkpt lat="57.67533" lon="24.66894">
        <ele>50.389139</ele>
        <time>2020-10-08T05:50:18.417Z</time>
      </trkpt>
      <trkpt lat="57.67471" lon="24.66916">
        <ele>50.485694</ele>
        <time>2020-10-08T05:50:32.783Z</time>
      </trkpt>
      <trkpt lat="57.67217" lon="24.6701">
        <ele>50.865825</ele>
        <time>2020-10-08T05:51:32.854Z</time>
      </trkpt>
      <trkpt lat="57.67106" lon="24.67058">
        <ele>50.659094</ele>
        <time>2020-10-08T05:51:57.350Z</time>
      </trkpt>
      <trkpt lat="57.67003" lon="24.671">
        <ele>50.377244</ele>
        <time>2020-10-08T05:52:19.273Z</time>
      </trkpt>
      <trkpt lat="57.66936" lon="24.67129">
        <ele>50.333517</ele>
        <time>2020-10-08T05:52:33.848Z</time>
      </trkpt>
      <trkpt lat="57.66801" lon="24.67187">
        <ele>50.404376</ele>
        <time>2020-10-08T05:53:05.645Z</time>
      </trkpt>
      <trkpt lat="57.66701" lon="24.67223">
        <ele>50.760327</ele>
        <time>2020-10-08T05:53:30.264Z</time>
      </trkpt>
      <trkpt lat="57.6664" lon="24.67235">
        <ele>50.931712</ele>
        <time>2020-10-08T05:53:44.487Z</time>
      </trkpt>
      <trkpt lat="57.66583" lon="24.67238">
        <ele>51.02409</ele>
        <time>2020-10-08T05:53:57.664Z</time>
      </trkpt>
      <trkpt lat="57.66563" lon="24.67239">
        <ele>51.057091</ele>
        <time>2020-10-08T05:54:02.332Z</time>
      </trkpt>
      <trkpt lat="57.66502" lon="24.67242">
        <ele>51.154647</ele>
        <time>2020-10-08T05:54:16.078Z</time>
      </trkpt>
      <trkpt lat="57.66473" lon="24.67236">
        <ele>51.195595</ele>
        <time>2020-10-08T05:54:22.794Z</time>
      </trkpt>
      <trkpt lat="57.66444" lon="24.67227">
        <ele>51.220362</ele>
        <time>2020-10-08T05:54:29.372Z</time>
      </trkpt>
      <trkpt lat="57.66371" lon="24.67191">
        <ele>51.284596</ele>
        <time>2020-10-08T05:54:46.416Z</time>
      </trkpt>
      <trkpt lat="57.66221" lon="24.67088">
        <ele>51.366483</ele>
        <time>2020-10-08T05:55:22.307Z</time>
      </trkpt>
      <trkpt lat="57.65373" lon="24.66354">
        <ele>51.12129</ele>
        <time>2020-10-08T05:58:50.288Z</time>
      </trkpt>
      <trkpt lat="57.65297" lon="24.66294">
        <ele>51.016548</ele>
        <time>2020-10-08T05:59:07.371Z</time>
      </trkpt>
      <trkpt lat="57.65246" lon="24.66254">
        <ele>50.96534</ele>
        <time>2020-10-08T05:59:19.039Z</time>
      </trkpt>
      <trkpt lat="57.65002" lon="24.66097">
        <ele>51.205047</ele>
        <time>2020-10-08T06:00:18.321Z</time>
      </trkpt>
      <trkpt lat="57.64203" lon="24.65558">
        <ele>52.905059</ele>
        <time>2020-10-08T06:03:34.786Z</time>
      </trkpt>
      <trkpt lat="57.64076" lon="24.65473">
        <ele>52.687934</ele>
        <time>2020-10-08T06:04:04.646Z</time>
      </trkpt>
      <trkpt lat="57.63966" lon="24.65399">
        <ele>52.153575</ele>
        <time>2020-10-08T06:04:28.397Z</time>
      </trkpt>
      <trkpt lat="57.63727" lon="24.65238">
        <ele>50.342252</ele>
        <time>2020-10-08T06:05:18.181Z</time>
      </trkpt>
      <trkpt lat="57.63682" lon="24.65214">
        <ele>50.133808</ele>
        <time>2020-10-08T06:05:28.024Z</time>
      </trkpt>
      <trkpt lat="57.63654" lon="24.65199">
        <ele>50.000436</ele>
        <time>2020-10-08T06:05:34.556Z</time>
      </trkpt>
      <trkpt lat="57.63599" lon="24.6518">
        <ele>49.951845</ele>
        <time>2020-10-08T06:05:47.047Z</time>
      </trkpt>
      <trkpt lat="57.63547" lon="24.65169">
        <ele>50.031334</ele>
        <time>2020-10-08T06:05:59.336Z</time>
      </trkpt>
      <trkpt lat="57.63489" lon="24.65175">
        <ele>50.118523</ele>
        <time>2020-10-08T06:06:12.924Z</time>
      </trkpt>
      <trkpt lat="57.63438" lon="24.6519">
        <ele>50.15345</ele>
        <time>2020-10-08T06:06:24.623Z</time>
      </trkpt>
      <trkpt lat="57.6336" lon="24.65227">
        <ele>50.062116</ele>
        <time>2020-10-08T06:06:42.340Z</time>
      </trkpt>
      <trkpt lat="57.63158" lon="24.65369">
        <ele>49.715112</ele>
        <time>2020-10-08T06:07:28.124Z</time>
      </trkpt>
      <trkpt lat="57.63072" lon="24.654">
        <ele>49.682475</ele>
        <time>2020-10-08T06:07:47.847Z</time>
      </trkpt>
      <trkpt lat="57.63004" lon="24.65414">
        <ele>49.781599</ele>
        <time>2020-10-08T06:08:03.557Z</time>
      </trkpt>
      <trkpt lat="57.62964" lon="24.65424">
        <ele>49.840544</ele>
        <time>2020-10-08T06:08:13.094Z</time>
      </trkpt>
      <trkpt lat="57.62778" lon="24.65464">
        <ele>50.199192</ele>
        <time>2020-10-08T06:08:56.575Z</time>
      </trkpt>
      <trkpt lat="57.62749" lon="24.65474">
        <ele>50.239316</ele>
        <time>2020-10-08T06:09:03.287Z</time>
      </trkpt>
      <trkpt lat="57.62744" lon="24.65475">
        <ele>50.233546</ele>
        <time>2020-10-08T06:09:04.267Z</time>
      </trkpt>
      <trkpt lat="57.62663" lon="24.65519">
        <ele>50.132235</ele>
        <time>2020-10-08T06:09:22.567Z</time>
      </trkpt>
      <trkpt lat="57.6252" lon="24.65621">
        <ele>50.042917</ele>
        <time>2020-10-08T06:09:55.561Z</time>
      </trkpt>
      <trkpt lat="57.62502" lon="24.65635">
        <ele>50.046793</ele>
        <time>2020-10-08T06:09:59.854Z</time>
      </trkpt>
      <trkpt lat="57.62396" lon="24.65717">
        <ele>50.180021</ele>
        <time>2020-10-08T06:10:26.265Z</time>
      </trkpt>
      <trkpt lat="57.62334" lon="24.65755">
        <ele>50.509866</ele>
        <time>2020-10-08T06:10:42.426Z</time>
      </trkpt>
      <trkpt lat="57.62301" lon="24.65767">
        <ele>50.677954</ele>
        <time>2020-10-08T06:10:50.706Z</time>
      </trkpt>
      <trkpt lat="57.62227" lon="24.65793">
        <ele>51.0304</ele>
        <time>2020-10-08T06:11:09.390Z</time>
      </trkpt>
      <trkpt lat="57.62055" lon="24.65864">
        <ele>51.638866</ele>
        <time>2020-10-08T06:11:50.938Z</time>
      </trkpt>
      <trkpt lat="57.61973" lon="24.65887">
        <ele>51.889096</ele>
        <time>2020-10-08T06:12:09.352Z</time>
      </trkpt>
      <trkpt lat="57.61872" lon="24.65927">
        <ele>52.283344</ele>
        <time>2020-10-08T06:12:34.264Z</time>
      </trkpt>
      <trkpt lat="57.61818" lon="24.65939">
        <ele>52.669263</ele>
        <time>2020-10-08T06:12:48.011Z</time>
      </trkpt>
      <trkpt lat="57.61811" lon="24.6594">
        <ele>52.718293</ele>
        <time>2020-10-08T06:12:49.871Z</time>
      </trkpt>
      <trkpt lat="57.61745" lon="24.65949">
        <ele>53.18714</ele>
        <time>2020-10-08T06:13:06.795Z</time>
      </trkpt>
      <trkpt lat="57.61688" lon="24.6595">
        <ele>53.470666</ele>
        <time>2020-10-08T06:13:21.448Z</time>
      </trkpt>
      <trkpt lat="57.61543" lon="24.65917">
        <ele>53.796568</ele>
        <time>2020-10-08T06:13:55.281Z</time>
      </trkpt>
      <trkpt lat="57.61226" lon="24.65806">
        <ele>52.418194</ele>
        <time>2020-10-08T06:15:01.260Z</time>
      </trkpt>
      <trkpt lat="57.6116" lon="24.65773">
        <ele>52.198568</ele>
        <time>2020-10-08T06:15:15.900Z</time>
      </trkpt>
      <trkpt lat="57.61122" lon="24.65748">
        <ele>52.171167</ele>
        <time>2020-10-08T06:15:24.705Z</time>
      </trkpt>
      <trkpt lat="57.61083" lon="24.65718">
        <ele>52.141954</ele>
        <time>2020-10-08T06:15:34.225Z</time>
      </trkpt>
      <trkpt lat="57.61049" lon="24.65693">
        <ele>52.117355</ele>
        <time>2020-10-08T06:15:42.315Z</time>
      </trkpt>
      <trkpt lat="57.61027" lon="24.65674">
        <ele>52.100955</ele>
        <time>2020-10-08T06:15:47.710Z</time>
      </trkpt>
      <trkpt lat="57.61006" lon="24.65656">
        <ele>52.088543</ele>
        <time>2020-10-08T06:15:52.891Z</time>
      </trkpt>
      <trkpt lat="57.60996" lon="24.65649">
        <ele>52.085918</ele>
        <time>2020-10-08T06:15:55.323Z</time>
      </trkpt>
      <trkpt lat="57.60965" lon="24.65635">
        <ele>52.078281</ele>
        <time>2020-10-08T06:16:02.248Z</time>
      </trkpt>
      <trkpt lat="57.6092" lon="24.65629">
        <ele>52.067506</ele>
        <time>2020-10-08T06:16:12.023Z</time>
      </trkpt>
      <trkpt lat="57.60741" lon="24.65652">
        <ele>52.195788</ele>
        <time>2020-10-08T06:16:52.555Z</time>
      </trkpt>
      <trkpt lat="57.60598" lon="24.65665">
        <ele>52.370697</ele>
        <time>2020-10-08T06:17:25.913Z</time>
      </trkpt>
      <trkpt lat="57.60305" lon="24.65693">
        <ele>52.350851</ele>
        <time>2020-10-08T06:18:30.910Z</time>
      </trkpt>
      <trkpt lat="57.60262" lon="24.6571">
        <ele>52.305032</ele>
        <time>2020-10-08T06:18:40.273Z</time>
      </trkpt>
      <trkpt lat="57.60224" lon="24.65748">
        <ele>52.256148</ele>
        <time>2020-10-08T06:18:49.593Z</time>
      </trkpt>
      <trkpt lat="57.60168" lon="24.65824">
        <ele>52.177426</ele>
        <time>2020-10-08T06:19:04.791Z</time>
      </trkpt>
      <trkpt lat="57.60052" lon="24.6598">
        <ele>52.252319</ele>
        <time>2020-10-08T06:19:36.711Z</time>
      </trkpt>
      <trkpt lat="57.6002" lon="24.66014">
        <ele>52.287984</ele>
        <time>2020-10-08T06:19:45.149Z</time>
      </trkpt>
      <trkpt lat="57.59998" lon="24.66029">
        <ele>52.31122</ele>
        <time>2020-10-08T06:19:50.630Z</time>
      </trkpt>
      <trkpt lat="57.59978" lon="24.66034">
        <ele>52.359274</ele>
        <time>2020-10-08T06:19:55.221Z</time>
      </trkpt>
      <trkpt lat="57.59264" lon="24.65925">
        <ele>54.773277</ele>
        <time>2020-10-08T06:22:44.693Z</time>
      </trkpt>
      <trkpt lat="57.59225" lon="24.65931">
        <ele>54.871563</ele>
        <time>2020-10-08T06:22:53.988Z</time>
      </trkpt>
      <trkpt lat="57.59018" lon="24.66045">
        <ele>55.188988</ele>
        <time>2020-10-08T06:23:43.998Z</time>
      </trkpt>
      <trkpt lat="57.58684" lon="24.66075">
        <ele>55.161993</ele>
        <time>2020-10-08T06:24:55.695Z</time>
      </trkpt>
      <trkpt lat="57.58639" lon="24.66076">
        <ele>55.458567</ele>
        <time>2020-10-08T06:25:06.684Z</time>
      </trkpt>
      <trkpt lat="57.58622" lon="24.6607">
        <ele>55.578128</ele>
        <time>2020-10-08T06:25:11.548Z</time>
      </trkpt>
      <trkpt lat="57.58604" lon="24.66062">
        <ele>55.698469</ele>
        <time>2020-10-08T06:25:16.095Z</time>
      </trkpt>
      <trkpt lat="57.58488" lon="24.66">
        <ele>57.303724</ele>
        <time>2020-10-08T06:25:50.820Z</time>
      </trkpt>
      <trkpt lat="57.58342" lon="24.65924">
        <ele>59.624932</ele>
        <time>2020-10-08T06:26:35.507Z</time>
      </trkpt>
      <trkpt lat="57.58315" lon="24.65912">
        <ele>59.982169</ele>
        <time>2020-10-08T06:26:43.300Z</time>
      </trkpt>
      <trkpt lat="57.58271" lon="24.6593">
        <ele>60.558251</ele>
        <time>2020-10-08T06:26:55.652Z</time>
      </trkpt>
      <trkpt lat="57.58105" lon="24.66096">
        <ele>61.919279</ele>
        <time>2020-10-08T06:27:42.412Z</time>
      </trkpt>
      <trkpt lat="57.58034" lon="24.66149">
        <ele>62.093956</ele>
        <time>2020-10-08T06:27:59.789Z</time>
      </trkpt>
      <trkpt lat="57.57951" lon="24.66197">
        <ele>61.924823</ele>
        <time>2020-10-08T06:28:18.756Z</time>
      </trkpt>
      <trkpt lat="57.57782" lon="24.66267">
        <ele>61.3129</ele>
        <time>2020-10-08T06:28:54.602Z</time>
      </trkpt>
      <trkpt lat="57.57764" lon="24.66271">
        <ele>61.230403</ele>
        <time>2020-10-08T06:28:58.365Z</time>
      </trkpt>
      <trkpt lat="57.57697" lon="24.66283">
        <ele>60.960987</ele>
        <time>2020-10-08T06:29:12.069Z</time>
      </trkpt>
      <trkpt lat="57.57262" lon="24.66337">
        <ele>59.719368</ele>
        <time>2020-10-08T06:30:45.114Z</time>
      </trkpt>
      <trkpt lat="57.57218" lon="24.66343">
        <ele>59.567243</ele>
        <time>2020-10-08T06:30:54.548Z</time>
      </trkpt>
      <trkpt lat="57.57149" lon="24.66357">
        <ele>59.32106</ele>
        <time>2020-10-08T06:31:09.026Z</time>
      </trkpt>
      <trkpt lat="57.56968" lon="24.66426">
        <ele>58.686565</ele>
        <time>2020-10-08T06:31:47.496Z</time>
      </trkpt>
      <trkpt lat="57.56727" lon="24.66522">
        <ele>58.28475</ele>
        <time>2020-10-08T06:32:41.444Z</time>
      </trkpt>
      <trkpt lat="57.56538" lon="24.66597">
        <ele>58.018633</ele>
        <time>2020-10-08T06:33:23.146Z</time>
      </trkpt>
      <trkpt lat="57.56365" lon="24.66668">
        <ele>58.12093</ele>
        <time>2020-10-08T06:34:02.113Z</time>
      </trkpt>
      <trkpt lat="57.56129" lon="24.66759">
        <ele>59.559911</ele>
        <time>2020-10-08T06:35:01.720Z</time>
      </trkpt>
      <trkpt lat="57.55709" lon="24.66931">
        <ele>64.963303</ele>
        <time>2020-10-08T06:37:04.735Z</time>
      </trkpt>
      <trkpt lat="57.55346" lon="24.67069">
        <ele>61.416267</ele>
        <time>2020-10-08T06:38:13.869Z</time>
      </trkpt>
      <trkpt lat="57.55137" lon="24.67174">
        <ele>59.899625</ele>
        <time>2020-10-08T06:38:57.321Z</time>
      </trkpt>
      <trkpt lat="57.55072" lon="24.67211">
        <ele>59.587487</ele>
        <time>2020-10-08T06:39:11.754Z</time>
      </trkpt>
      <trkpt lat="57.54999" lon="24.67267">
        <ele>59.749271</ele>
        <time>2020-10-08T06:39:29.403Z</time>
      </trkpt>
      <trkpt lat="57.54929" lon="24.67321">
        <ele>59.938334</ele>
        <time>2020-10-08T06:39:47.271Z</time>
      </trkpt>
      <trkpt lat="57.54891" lon="24.6735">
        <ele>60.113647</ele>
        <time>2020-10-08T06:39:57.410Z</time>
      </trkpt>
      <trkpt lat="57.54657" lon="24.67563">
        <ele>62.729211</ele>
        <time>2020-10-08T06:41:06.103Z</time>
      </trkpt>
      <trkpt lat="57.5455" lon="24.67683">
        <ele>63.984583</ele>
        <time>2020-10-08T06:41:40.420Z</time>
      </trkpt>
      <trkpt lat="57.54383" lon="24.67892">
        <ele>64.524578</ele>
        <time>2020-10-08T06:42:29.268Z</time>
      </trkpt>
      <trkpt lat="57.54359" lon="24.67923">
        <ele>64.29942</ele>
        <time>2020-10-08T06:42:34.965Z</time>
      </trkpt>
      <trkpt lat="57.54125" lon="24.68216">
        <ele>61.138545</ele>
        <time>2020-10-08T06:43:26.695Z</time>
      </trkpt>
      <trkpt lat="57.54057" lon="24.68291">
        <ele>61.506006</ele>
        <time>2020-10-08T06:43:44.086Z</time>
      </trkpt>
      <trkpt lat="57.53911" lon="24.68435">
        <ele>63.093017</ele>
        <time>2020-10-08T06:44:30.394Z</time>
      </trkpt>
      <trkpt lat="57.53767" lon="24.68561">
        <ele>65.235134</ele>
        <time>2020-10-08T06:45:16.886Z</time>
      </trkpt>
      <trkpt lat="57.537" lon="24.68606">
        <ele>65.856007</ele>
        <time>2020-10-08T06:45:34.996Z</time>
      </trkpt>
      <trkpt lat="57.53549" lon="24.68685">
        <ele>66.408293</ele>
        <time>2020-10-08T06:46:10.607Z</time>
      </trkpt>
      <trkpt lat="57.53497" lon="24.68712">
        <ele>66.440131</ele>
        <time>2020-10-08T06:46:22.450Z</time>
      </trkpt>
      <trkpt lat="57.53393" lon="24.68767">
        <ele>66.517665</ele>
        <time>2020-10-08T06:46:46.659Z</time>
      </trkpt>
      <trkpt lat="57.53188" lon="24.68868">
        <ele>66.73327</ele>
        <time>2020-10-08T06:47:34.982Z</time>
      </trkpt>
      <trkpt lat="57.53137" lon="24.6888">
        <ele>66.796572</ele>
        <time>2020-10-08T06:47:46.820Z</time>
      </trkpt>
      <trkpt lat="57.52863" lon="24.68938">
        <ele>66.942605</ele>
        <time>2020-10-08T06:48:49.687Z</time>
      </trkpt>
      <trkpt lat="57.52846" lon="24.68944">
        <ele>66.915055</ele>
        <time>2020-10-08T06:48:53.300Z</time>
      </trkpt>
      <trkpt lat="57.5254" lon="24.69014">
        <ele>65.690622</ele>
        <time>2020-10-08T06:49:56.674Z</time>
      </trkpt>
      <trkpt lat="57.52505" lon="24.69021">
        <ele>65.566198</ele>
        <time>2020-10-08T06:50:04.164Z</time>
      </trkpt>
      <trkpt lat="57.52466" lon="24.69018">
        <ele>65.426325</ele>
        <time>2020-10-08T06:50:12.614Z</time>
      </trkpt>
      <trkpt lat="57.5243" lon="24.69004">
        <ele>65.296438</ele>
        <time>2020-10-08T06:50:20.394Z</time>
      </trkpt>
      <trkpt lat="57.52391" lon="24.68977">
        <ele>65.184359</ele>
        <time>2020-10-08T06:50:29.139Z</time>
      </trkpt>
      <trkpt lat="57.52357" lon="24.68949">
        <ele>65.114309</ele>
        <time>2020-10-08T06:50:36.919Z</time>
      </trkpt>
      <trkpt lat="57.52236" lon="24.68842">
        <ele>64.955635</ele>
        <time>2020-10-08T06:51:05.622Z</time>
      </trkpt>
      <trkpt lat="57.52023" lon="24.68647">
        <ele>66.787901</ele>
        <time>2020-10-08T06:52:05.419Z</time>
      </trkpt>
      <trkpt lat="57.52005" lon="24.68637">
        <ele>67.02416</ele>
        <time>2020-10-08T06:52:10.873Z</time>
      </trkpt>
      <trkpt lat="57.51982" lon="24.68636">
        <ele>67.316539</ele>
        <time>2020-10-08T06:52:17.738Z</time>
      </trkpt>
      <trkpt lat="57.51932" lon="24.68654">
        <ele>67.949906</ele>
        <time>2020-10-08T06:52:32.262Z</time>
      </trkpt>
      <trkpt lat="57.51924" lon="24.68661">
        <ele>68.059725</ele>
        <time>2020-10-08T06:52:34.950Z</time>
      </trkpt>
      <trkpt lat="57.51918" lon="24.68668">
        <ele>68.149118</ele>
        <time>2020-10-08T06:52:36.932Z</time>
      </trkpt>
      <trkpt lat="57.51901" lon="24.68684">
        <ele>68.2819</ele>
        <time>2020-10-08T06:52:42.321Z</time>
      </trkpt>
      <trkpt lat="57.51803" lon="24.68822">
        <ele>69.114755</ele>
        <time>2020-10-08T06:53:14.471Z</time>
      </trkpt>
      <trkpt lat="57.51782" lon="24.68835">
        <ele>69.263401</ele>
        <time>2020-10-08T06:53:19.378Z</time>
      </trkpt>
      <trkpt lat="57.51741" lon="24.68857">
        <ele>69.08175</ele>
        <time>2020-10-08T06:53:28.083Z</time>
      </trkpt>
      <trkpt lat="57.51524" lon="24.68969">
        <ele>66.464358</ele>
        <time>2020-10-08T06:54:09.942Z</time>
      </trkpt>
      <trkpt lat="57.51467" lon="24.69">
        <ele>65.754604</ele>
        <time>2020-10-08T06:54:21.154Z</time>
      </trkpt>
      <trkpt lat="57.51297" lon="24.69095">
        <ele>63.772828</ele>
        <time>2020-10-08T06:54:55.785Z</time>
      </trkpt>
      <trkpt lat="57.51261" lon="24.69115">
        <ele>63.364361</ele>
        <time>2020-10-08T06:55:02.858Z</time>
      </trkpt>
      <trkpt lat="57.51233" lon="24.6919">
        <ele>62.454819</ele>
        <time>2020-10-08T06:55:11.769Z</time>
      </trkpt>
      <trkpt lat="57.5121" lon="24.69238">
        <ele>61.692074</ele>
        <time>2020-10-08T06:55:17.971Z</time>
      </trkpt>
      <trkpt lat="57.51043" lon="24.69537">
        <ele>56.343771</ele>
        <time>2020-10-08T06:55:57.310Z</time>
      </trkpt>
      <trkpt lat="57.51002" lon="24.69603">
        <ele>55.025187</ele>
        <time>2020-10-08T06:56:06.755Z</time>
      </trkpt>
      <trkpt lat="57.50991" lon="24.69624">
        <ele>54.729489</ele>
        <time>2020-10-08T06:56:09.381Z</time>
      </trkpt>
      <trkpt lat="57.50979" lon="24.69654">
        <ele>54.380459</ele>
        <time>2020-10-08T06:56:12.946Z</time>
      </trkpt>
      <trkpt lat="57.50963" lon="24.69713">
        <ele>53.766373</ele>
        <time>2020-10-08T06:56:19.174Z</time>
      </trkpt>
      <trkpt lat="57.50944" lon="24.69759">
        <ele>53.222973</ele>
        <time>2020-10-08T06:56:24.723Z</time>
      </trkpt>
      <trkpt lat="57.50939" lon="24.69759">
        <ele>53.14664</ele>
        <time>2020-10-08T06:56:25.572Z</time>
      </trkpt>
      <trkpt lat="57.50935" lon="24.69762">
        <ele>53.069024</ele>
        <time>2020-10-08T06:56:26.367Z</time>
      </trkpt>
      <trkpt lat="57.5093" lon="24.69768">
        <ele>52.96909</ele>
        <time>2020-10-08T06:56:27.392Z</time>
      </trkpt>
      <trkpt lat="57.50927" lon="24.69777">
        <ele>52.868672</ele>
        <time>2020-10-08T06:56:28.421Z</time>
      </trkpt>
      <trkpt lat="57.50926" lon="24.69786">
        <ele>52.77993</ele>
        <time>2020-10-08T06:56:29.323Z</time>
      </trkpt>
      <trkpt lat="57.50933" lon="24.69811">
        <ele>52.522846</ele>
        <time>2020-10-08T06:56:32.150Z</time>
      </trkpt>
      <trkpt lat="57.50937" lon="24.69815">
        <ele>52.433191</ele>
        <time>2020-10-08T06:56:33.080Z</time>
      </trkpt>
      <trkpt lat="57.50952" lon="24.69843">
        <ele>52.067667</ele>
        <time>2020-10-08T06:56:36.936Z</time>
      </trkpt>
      <trkpt lat="57.50961" lon="24.69896">
        <ele>51.852991</ele>
        <time>2020-10-08T06:56:42.740Z</time>
      </trkpt>
      <trkpt lat="57.50967" lon="24.69934">
        <ele>51.913269</ele>
        <time>2020-10-08T06:56:46.958Z</time>
      </trkpt>
      <trkpt lat="57.50974" lon="24.69987">
        <ele>51.999392</ele>
        <time>2020-10-08T06:56:52.995Z</time>
      </trkpt>
      <trkpt lat="57.50978" lon="24.70025">
        <ele>52.059499</ele>
        <time>2020-10-08T06:56:57.646Z</time>
      </trkpt>
      <trkpt lat="57.50991" lon="24.70171">
        <ele>52.29042</ele>
        <time>2020-10-08T06:57:18.019Z</time>
      </trkpt>
      <trkpt lat="57.50995" lon="24.70254">
        <ele>52.979118</ele>
        <time>2020-10-08T06:57:30.926Z</time>
      </trkpt>
      <trkpt lat="57.50995" lon="24.70325">
        <ele>53.779911</ele>
        <time>2020-10-08T06:57:43.590Z</time>
      </trkpt>
      <trkpt lat="57.51002" lon="24.70533">
        <ele>56.12327</ele>
        <time>2020-10-08T06:58:19.683Z</time>
      </trkpt>
      <trkpt lat="57.51011" lon="24.70563">
        <ele>56.197317</ele>
        <time>2020-10-08T06:58:25.598Z</time>
      </trkpt>
      <trkpt lat="57.50992" lon="24.70562">
        <ele>56.273474</ele>
        <time>2020-10-08T06:58:30.492Z</time>
      </trkpt>
      <trkpt lat="57.50964" lon="24.70561">
        <ele>56.389118</ele>
        <time>2020-10-08T06:58:37.902Z</time>
      </trkpt>
      <trkpt lat="57.50916" lon="24.7056">
        <ele>56.582528</ele>
        <time>2020-10-08T06:58:48.958Z</time>
      </trkpt>
      <trkpt lat="57.50869" lon="24.70558">
        <ele>56.772352</ele>
        <time>2020-10-08T06:58:59.772Z</time>
      </trkpt>
      <trkpt lat="57.50831" lon="24.70557">
        <ele>56.851424</ele>
        <time>2020-10-08T06:59:07.500Z</time>
      </trkpt>
      <trkpt lat="57.50788" lon="24.70561">
        <ele>56.867943</ele>
        <time>2020-10-08T06:59:16.356Z</time>
      </trkpt>
      <trkpt lat="57.5075" lon="24.70574">
        <ele>56.882652</ele>
        <time>2020-10-08T06:59:24.938Z</time>
      </trkpt>
      <trkpt lat="57.50677" lon="24.70611">
        <ele>56.911678</ele>
        <time>2020-10-08T06:59:44.006Z</time>
      </trkpt>
      <trkpt lat="57.50644" lon="24.70628">
        <ele>57.134561</ele>
        <time>2020-10-08T06:59:53.883Z</time>
      </trkpt>
      <trkpt lat="57.50615" lon="24.70643">
        <ele>57.341255</ele>
        <time>2020-10-08T07:00:02.679Z</time>
      </trkpt>
      <trkpt lat="57.50606" lon="24.70649">
        <ele>57.409785</ele>
        <time>2020-10-08T07:00:05.485Z</time>
      </trkpt>
      <trkpt lat="57.50564" lon="24.70675">
        <ele>57.716796</ele>
        <time>2020-10-08T07:00:17.381Z</time>
      </trkpt>
      <trkpt lat="57.50556" lon="24.70679">
        <ele>57.769326</ele>
        <time>2020-10-08T07:00:19.371Z</time>
      </trkpt>
      <trkpt lat="57.50499" lon="24.7072">
        <ele>58.11599</ele>
        <time>2020-10-08T07:00:34.287Z</time>
      </trkpt>
      <trkpt lat="57.50474" lon="24.70739">
        <ele>57.914465</ele>
        <time>2020-10-08T07:00:40.158Z</time>
      </trkpt>
      <trkpt lat="57.50473" lon="24.70729">
        <ele>57.872226</ele>
        <time>2020-10-08T07:00:41.461Z</time>
      </trkpt>
      <trkpt lat="57.50465" lon="24.70683">
        <ele>57.670862</ele>
        <time>2020-10-08T07:00:48.623Z</time>
      </trkpt>
      <trkpt lat="57.50462" lon="24.70664">
        <ele>57.590817</ele>
        <time>2020-10-08T07:00:51.186Z</time>
      </trkpt>
      <trkpt lat="57.50458" lon="24.70654">
        <ele>57.535525</ele>
        <time>2020-10-08T07:00:53.117Z</time>
      </trkpt>
      <trkpt lat="57.50425" lon="24.70612">
        <ele>57.225356</ele>
        <time>2020-10-08T07:01:03.320Z</time>
      </trkpt>
      <trkpt lat="57.50407" lon="24.70587">
        <ele>57.052686</ele>
        <time>2020-10-08T07:01:09.300Z</time>
      </trkpt>
      <trkpt lat="57.50387" lon="24.70555">
        <ele>56.847899</ele>
        <time>2020-10-08T07:01:16.506Z</time>
      </trkpt>
      <trkpt lat="57.50383" lon="24.70548">
        <ele>56.806776</ele>
        <time>2020-10-08T07:01:18.024Z</time>
      </trkpt>
      <trkpt lat="57.50376" lon="24.70552">
        <ele>56.757117</ele>
        <time>2020-10-08T07:01:20.016Z</time>
      </trkpt>
      <trkpt lat="57.50314" lon="24.70532">
        <ele>56.375666</ele>
        <time>2020-10-08T07:01:41.340Z</time>
      </trkpt>
      <trkpt lat="57.50296" lon="24.70525">
        <ele>56.264394</ele>
        <time>2020-10-08T07:01:47.271Z</time>
      </trkpt>
      <trkpt lat="57.50304" lon="24.70575">
        <ele>56.092775</ele>
        <time>2020-10-08T07:01:55.227Z</time>
      </trkpt>
      <trkpt lat="57.50277" lon="24.70592">
        <ele>55.918877</ele>
        <time>2020-10-08T07:02:03.590Z</time>
      </trkpt>
      <trkpt lat="57.50275" lon="24.70583">
        <ele>55.886249</ele>
        <time>2020-10-08T07:02:04.685Z</time>
      </trkpt>
      <trkpt lat="57.50266" lon="24.70549">
        <ele>55.766693</ele>
        <time>2020-10-08T07:02:08.916Z</time>
      </trkpt>
      <trkpt lat="57.50262" lon="24.70529">
        <ele>55.696701</ele>
        <time>2020-10-08T07:02:11.763Z</time>
      </trkpt>
      <trkpt lat="57.5023" lon="24.70527">
        <ele>55.868317</ele>
        <time>2020-10-08T07:02:21.492Z</time>
      </trkpt>
      <trkpt lat="57.50209" lon="24.7053">
        <ele>55.999395</ele>
        <time>2020-10-08T07:02:27.777Z</time>
      </trkpt>
      <trkpt lat="57.50201" lon="24.70524">
        <ele>56.050553</ele>
        <time>2020-10-08T07:02:30.411Z</time>
      </trkpt>
      <trkpt lat="57.50196" lon="24.70532">
        <ele>56.093236</ele>
        <time>2020-10-08T07:02:32.425Z</time>
      </trkpt>
      <trkpt lat="57.50198" lon="24.70606">
        <ele>56.339035</ele>
        <time>2020-10-08T07:02:42.244Z</time>
      </trkpt>
      <trkpt lat="57.50199" lon="24.70611">
        <ele>56.355149</ele>
        <time>2020-10-08T07:02:43.041Z</time>
      </trkpt>
      <trkpt lat="57.50197" lon="24.70611">
        <ele>56.365624</ele>
        <time>2020-10-08T07:02:43.635Z</time>
      </trkpt>
      <trkpt lat="57.50171" lon="24.70611">
        <ele>56.526372</ele>
        <time>2020-10-08T07:02:51.350Z</time>
      </trkpt>
      <trkpt lat="57.5014" lon="24.70552">
        <ele>56.808949</ele>
        <time>2020-10-08T07:03:06.727Z</time>
      </trkpt>
      <trkpt lat="57.50128" lon="24.7054">
        <ele>56.954036</ele>
        <time>2020-10-08T07:03:11.231Z</time>
      </trkpt>
      <trkpt lat="57.50113" lon="24.70535">
        <ele>57.117965</ele>
        <time>2020-10-08T07:03:16.553Z</time>
      </trkpt>
      <trkpt lat="57.50061" lon="24.70542">
        <ele>57.672061</ele>
        <time>2020-10-08T07:03:34.518Z</time>
      </trkpt>
      <trkpt lat="57.50039" lon="24.70523">
        <ele>57.930618</ele>
        <time>2020-10-08T07:03:42.599Z</time>
      </trkpt>
      <trkpt lat="57.49986" lon="24.70517">
        <ele>58.50481</ele>
        <time>2020-10-08T07:04:00.456Z</time>
      </trkpt>
      <trkpt lat="57.4996" lon="24.70501">
        <ele>58.749208</ele>
        <time>2020-10-08T07:04:09.528Z</time>
      </trkpt>
      <trkpt lat="57.49896" lon="24.70518">
        <ele>58.981403</ele>
        <time>2020-10-08T07:04:29.971Z</time>
      </trkpt>
      <trkpt lat="57.49859" lon="24.70545">
        <ele>59.127736</ele>
        <time>2020-10-08T07:04:42.380Z</time>
      </trkpt>
      <trkpt lat="57.49757" lon="24.70566">
        <ele>59.338706</ele>
        <time>2020-10-08T07:05:12.396Z</time>
      </trkpt>
      <trkpt lat="57.49668" lon="24.70551">
        <ele>59.236914</ele>
        <time>2020-10-08T07:05:37.774Z</time>
      </trkpt>
      <trkpt lat="57.49494" lon="24.70582">
        <ele>59.600784</ele>
        <time>2020-10-08T07:06:28.429Z</time>
      </trkpt>
      <trkpt lat="57.49317" lon="24.70575">
        <ele>61.685713</ele>
        <time>2020-10-08T07:07:28.536Z</time>
      </trkpt>
      <trkpt lat="57.49298" lon="24.7057">
        <ele>62.007631</ele>
        <time>2020-10-08T07:07:36.146Z</time>
      </trkpt>
      <trkpt lat="57.49291" lon="24.70652">
        <ele>62.727703</ele>
        <time>2020-10-08T07:07:51.419Z</time>
      </trkpt>
      <trkpt lat="57.49282" lon="24.70679">
        <ele>63.014429</ele>
        <time>2020-10-08T07:07:56.995Z</time>
      </trkpt>
      <trkpt lat="57.4927" lon="24.7068">
        <ele>63.216581</ele>
        <time>2020-10-08T07:08:00.967Z</time>
      </trkpt>
      <trkpt lat="57.49246" lon="24.70891">
        <ele>65.173577</ele>
        <time>2020-10-08T07:08:37.337Z</time>
      </trkpt>
      <trkpt lat="57.49162" lon="24.70881">
        <ele>65.789373</ele>
        <time>2020-10-08T07:08:57.062Z</time>
      </trkpt>
      <trkpt lat="57.49121" lon="24.70878">
        <ele>65.813985</ele>
        <time>2020-10-08T07:09:05.768Z</time>
      </trkpt>
      <trkpt lat="57.49068" lon="24.70886">
        <ele>65.846017</ele>
        <time>2020-10-08T07:09:16.412Z</time>
      </trkpt>
      <trkpt lat="57.48731" lon="24.70988">
        <ele>67.277299</ele>
        <time>2020-10-08T07:10:38.907Z</time>
      </trkpt>
      <trkpt lat="57.48718" lon="24.70992">
        <ele>67.347255</ele>
        <time>2020-10-08T07:10:42.453Z</time>
      </trkpt>
      <trkpt lat="57.48646" lon="24.71013">
        <ele>67.600167</ele>
        <time>2020-10-08T07:11:00.216Z</time>
      </trkpt>
      <trkpt lat="57.48599" lon="24.71028">
        <ele>67.648262</ele>
        <time>2020-10-08T07:11:11.380Z</time>
      </trkpt>
      <trkpt lat="57.48585" lon="24.71032">
        <ele>67.66253</ele>
        <time>2020-10-08T07:11:14.639Z</time>
      </trkpt>
      <trkpt lat="57.48563" lon="24.71038">
        <ele>67.685107</ele>
        <time>2020-10-08T07:11:19.833Z</time>
      </trkpt>
      <trkpt lat="57.48532" lon="24.71047">
        <ele>67.716947</ele>
        <time>2020-10-08T07:11:26.695Z</time>
      </trkpt>
      <trkpt lat="57.48254" lon="24.71027">
        <ele>66.41463</ele>
        <time>2020-10-08T07:12:24.767Z</time>
      </trkpt>
      <trkpt lat="57.47747" lon="24.71146">
        <ele>61.312746</ele>
        <time>2020-10-08T07:14:02.615Z</time>
      </trkpt>
      <trkpt lat="57.47701" lon="24.71139">
        <ele>60.949135</ele>
        <time>2020-10-08T07:14:11.313Z</time>
      </trkpt>
      <trkpt lat="57.47541" lon="24.71066">
        <ele>60.07376</ele>
        <time>2020-10-08T07:14:44.942Z</time>
      </trkpt>
      <trkpt lat="57.47489" lon="24.71069">
        <ele>59.994135</ele>
        <time>2020-10-08T07:14:56.518Z</time>
      </trkpt>
      <trkpt lat="57.47467" lon="24.71083">
        <ele>59.958935</ele>
        <time>2020-10-08T07:15:01.617Z</time>
      </trkpt>
      <trkpt lat="57.47463" lon="24.71087">
        <ele>59.951025</ele>
        <time>2020-10-08T07:15:02.918Z</time>
      </trkpt>
      <trkpt lat="57.47423" lon="24.71125">
        <ele>59.935131</ele>
        <time>2020-10-08T07:15:13.065Z</time>
      </trkpt>
      <trkpt lat="57.47388" lon="24.71159">
        <ele>60.038941</ele>
        <time>2020-10-08T07:15:22.347Z</time>
      </trkpt>
      <trkpt lat="57.47337" lon="24.7119">
        <ele>60.180813</ele>
        <time>2020-10-08T07:15:35.261Z</time>
      </trkpt>
      <trkpt lat="57.47298" lon="24.71199">
        <ele>60.282875</ele>
        <time>2020-10-08T07:15:44.260Z</time>
      </trkpt>
      <trkpt lat="57.46985" lon="24.71187">
        <ele>61.05249</ele>
        <time>2020-10-08T07:16:56.779Z</time>
      </trkpt>
      <trkpt lat="57.46917" lon="24.71187">
        <ele>61.240937</ele>
        <time>2020-10-08T07:17:12.887Z</time>
      </trkpt>
      <trkpt lat="57.46876" lon="24.71194">
        <ele>61.371836</ele>
        <time>2020-10-08T07:17:22.642Z</time>
      </trkpt>
      <trkpt lat="57.46687" lon="24.71237">
        <ele>61.98772</ele>
        <time>2020-10-08T07:18:07.744Z</time>
      </trkpt>
      <trkpt lat="57.46637" lon="24.71267">
        <ele>62.129026</ele>
        <time>2020-10-08T07:18:19.900Z</time>
      </trkpt>
      <trkpt lat="57.46547" lon="24.71343">
        <ele>62.465625</ele>
        <time>2020-10-08T07:18:42.728Z</time>
      </trkpt>
      <trkpt lat="57.46513" lon="24.71378">
        <ele>62.814892</ele>
        <time>2020-10-08T07:18:51.837Z</time>
      </trkpt>
      <trkpt lat="57.46474" lon="24.71423">
        <ele>63.233758</ele>
        <time>2020-10-08T07:19:03.318Z</time>
      </trkpt>
      <trkpt lat="57.46431" lon="24.71499">
        <ele>63.77981</ele>
        <time>2020-10-08T07:19:19.160Z</time>
      </trkpt>
      <trkpt lat="57.46306" lon="24.71723">
        <ele>66.88231</ele>
        <time>2020-10-08T07:20:11.108Z</time>
      </trkpt>
      <trkpt lat="57.46265" lon="24.71791">
        <ele>67.886389</ele>
        <time>2020-10-08T07:20:28.321Z</time>
      </trkpt>
      <trkpt lat="57.46224" lon="24.71841">
        <ele>68.707458</ele>
        <time>2020-10-08T07:20:43.409Z</time>
      </trkpt>
      <trkpt lat="57.46218" lon="24.71846">
        <ele>68.823282</ele>
        <time>2020-10-08T07:20:45.532Z</time>
      </trkpt>
      <trkpt lat="57.46181" lon="24.71868">
        <ele>69.460186</ele>
        <time>2020-10-08T07:20:56.812Z</time>
      </trkpt>
      <trkpt lat="57.46037" lon="24.71945">
        <ele>70.970142</ele>
        <time>2020-10-08T07:21:36.725Z</time>
      </trkpt>
      <trkpt lat="57.45741" lon="24.72131">
        <ele>71.468656</ele>
        <time>2020-10-08T07:22:46.009Z</time>
      </trkpt>
      <trkpt lat="57.45613" lon="24.72211">
        <ele>71.632143</ele>
        <time>2020-10-08T07:23:16.786Z</time>
      </trkpt>
      <trkpt lat="57.45356" lon="24.72402">
        <ele>72.55583</ele>
        <time>2020-10-08T07:24:25.055Z</time>
      </trkpt>
      <trkpt lat="57.45279" lon="24.72447">
        <ele>72.486616</ele>
        <time>2020-10-08T07:24:41.567Z</time>
      </trkpt>
      <trkpt lat="57.45225" lon="24.72468">
        <ele>71.496488</ele>
        <time>2020-10-08T07:24:51.871Z</time>
      </trkpt>
      <trkpt lat="57.45138" lon="24.72486">
        <ele>69.710263</ele>
        <time>2020-10-08T07:25:07.053Z</time>
      </trkpt>
      <trkpt lat="57.45069" lon="24.72486">
        <ele>68.200851</ele>
        <time>2020-10-08T07:25:18.518Z</time>
      </trkpt>
      <trkpt lat="57.44971" lon="24.72476">
        <ele>65.805661</ele>
        <time>2020-10-08T07:25:35.091Z</time>
      </trkpt>
      <trkpt lat="57.44843" lon="24.72455">
        <ele>63.83488</ele>
        <time>2020-10-08T07:25:57.780Z</time>
      </trkpt>
      <trkpt lat="57.44816" lon="24.72452">
        <ele>63.612739</ele>
        <time>2020-10-08T07:26:02.951Z</time>
      </trkpt>
      <trkpt lat="57.44511" lon="24.72411">
        <ele>63.723712</ele>
        <time>2020-10-08T07:27:14.647Z</time>
      </trkpt>
      <trkpt lat="57.44426" lon="24.72401">
        <ele>64.149201</ele>
        <time>2020-10-08T07:27:36.224Z</time>
      </trkpt>
      <trkpt lat="57.44335" lon="24.72371">
        <ele>64.329185</ele>
        <time>2020-10-08T07:27:58.271Z</time>
      </trkpt>
      <trkpt lat="57.44206" lon="24.72287">
        <ele>64.092879</ele>
        <time>2020-10-08T07:28:27.041Z</time>
      </trkpt>
      <trkpt lat="57.44172" lon="24.72266">
        <ele>63.898143</ele>
        <time>2020-10-08T07:28:34.231Z</time>
      </trkpt>
      <trkpt lat="57.44141" lon="24.72239">
        <ele>63.7117</ele>
        <time>2020-10-08T07:28:41.008Z</time>
      </trkpt>
      <trkpt lat="57.44098" lon="24.72181">
        <ele>63.418556</ele>
        <time>2020-10-08T07:28:51.796Z</time>
      </trkpt>
      <trkpt lat="57.43995" lon="24.72018">
        <ele>62.957789</ele>
        <time>2020-10-08T07:29:20.323Z</time>
      </trkpt>
      <trkpt lat="57.4396" lon="24.71974">
        <ele>62.881982</ele>
        <time>2020-10-08T07:29:29.309Z</time>
      </trkpt>
      <trkpt lat="57.43542" lon="24.71634">
        <ele>62.87188</ele>
        <time>2020-10-08T07:31:10.456Z</time>
      </trkpt>
      <trkpt lat="57.43465" lon="24.71587">
        <ele>63.335019</ele>
        <time>2020-10-08T07:31:30.138Z</time>
      </trkpt>
      <trkpt lat="57.43338" lon="24.71532">
        <ele>64.625492</ele>
        <time>2020-10-08T07:32:04.963Z</time>
      </trkpt>
      <trkpt lat="57.43332" lon="24.71529">
        <ele>64.709714</ele>
        <time>2020-10-08T07:32:06.908Z</time>
      </trkpt>
      <trkpt lat="57.43194" lon="24.7146">
        <ele>66.679322</ele>
        <time>2020-10-08T07:32:46.913Z</time>
      </trkpt>
      <trkpt lat="57.43162" lon="24.71442">
        <ele>67.172523</ele>
        <time>2020-10-08T07:32:56.260Z</time>
      </trkpt>
      <trkpt lat="57.43116" lon="24.71403">
        <ele>67.929003</ele>
        <time>2020-10-08T07:33:10.627Z</time>
      </trkpt>
      <trkpt lat="57.43054" lon="24.71326">
        <ele>69.049674</ele>
        <time>2020-10-08T07:33:31.679Z</time>
      </trkpt>
      <trkpt lat="57.43013" lon="24.71275">
        <ele>69.859724</ele>
        <time>2020-10-08T07:33:45.667Z</time>
      </trkpt>
      <trkpt lat="57.42897" lon="24.7112">
        <ele>72.028484</ele>
        <time>2020-10-08T07:34:27.825Z</time>
      </trkpt>
      <trkpt lat="57.42851" lon="24.7106">
        <ele>72.585374</ele>
        <time>2020-10-08T07:34:43.207Z</time>
      </trkpt>
      <trkpt lat="57.42777" lon="24.70965">
        <ele>73.471029</ele>
        <time>2020-10-08T07:35:05.150Z</time>
      </trkpt>
      <trkpt lat="57.42739" lon="24.70916">
        <ele>73.828042</ele>
        <time>2020-10-08T07:35:16.498Z</time>
      </trkpt>
      <trkpt lat="57.42692" lon="24.70874">
        <ele>74.213935</ele>
        <time>2020-10-08T07:35:28.487Z</time>
      </trkpt>
      <trkpt lat="57.42624" lon="24.70824">
        <ele>74.757483</ele>
        <time>2020-10-08T07:35:46.952Z</time>
      </trkpt>
      <trkpt lat="57.42605" lon="24.70813">
        <ele>74.983102</ele>
        <time>2020-10-08T07:35:52.460Z</time>
      </trkpt>
      <trkpt lat="57.42256" lon="24.70578">
        <ele>82.653103</ele>
        <time>2020-10-08T07:37:46.752Z</time>
      </trkpt>
      <trkpt lat="57.42179" lon="24.70508">
        <ele>84.42419</ele>
        <time>2020-10-08T07:38:14.612Z</time>
      </trkpt>
      <trkpt lat="57.4159" lon="24.69868">
        <ele>95.280207</ele>
        <time>2020-10-08T07:41:30.176Z</time>
      </trkpt>
      <trkpt lat="57.41514" lon="24.69799">
        <ele>96.221301</ele>
        <time>2020-10-08T07:41:52.174Z</time>
      </trkpt>
      <trkpt lat="57.41277" lon="24.69608">
        <ele>97.531765</ele>
        <time>2020-10-08T07:42:56.353Z</time>
      </trkpt>
      <trkpt lat="57.41216" lon="24.69561">
        <ele>97.361289</ele>
        <time>2020-10-08T07:43:10.581Z</time>
      </trkpt>
      <trkpt lat="57.4113" lon="24.69494">
        <ele>96.566593</ele>
        <time>2020-10-08T07:43:28.616Z</time>
      </trkpt>
      <trkpt lat="57.41053" lon="24.69434">
        <ele>94.783832</ele>
        <time>2020-10-08T07:43:43.253Z</time>
      </trkpt>
      <trkpt lat="57.40677" lon="24.69141">
        <ele>83.426863</ele>
        <time>2020-10-08T07:44:51.100Z</time>
      </trkpt>
      <trkpt lat="57.4059" lon="24.69103">
        <ele>80.868468</ele>
        <time>2020-10-08T07:45:05.638Z</time>
      </trkpt>
      <trkpt lat="57.40507" lon="24.69083">
        <ele>78.472386</ele>
        <time>2020-10-08T07:45:19.559Z</time>
      </trkpt>
      <trkpt lat="57.40437" lon="24.69081">
        <ele>76.955382</ele>
        <time>2020-10-08T07:45:31.537Z</time>
      </trkpt>
      <trkpt lat="57.40111" lon="24.6911">
        <ele>71.597524</ele>
        <time>2020-10-08T07:46:31.505Z</time>
      </trkpt>
      <trkpt lat="57.40092" lon="24.69109">
        <ele>71.260299</ele>
        <time>2020-10-08T07:46:34.885Z</time>
      </trkpt>
      <trkpt lat="57.40036" lon="24.69106">
        <ele>70.268157</ele>
        <time>2020-10-08T07:46:44.845Z</time>
      </trkpt>
      <trkpt lat="57.39994" lon="24.69106">
        <ele>69.514182</ele>
        <time>2020-10-08T07:46:52.383Z</time>
      </trkpt>
      <trkpt lat="57.39955" lon="24.69098">
        <ele>68.820078</ele>
        <time>2020-10-08T07:46:59.377Z</time>
      </trkpt>
      <trkpt lat="57.39871" lon="24.69082">
        <ele>68.054908</ele>
        <time>2020-10-08T07:47:14.838Z</time>
      </trkpt>
      <trkpt lat="57.39666" lon="24.6905">
        <ele>67.766863</ele>
        <time>2020-10-08T07:47:59.595Z</time>
      </trkpt>
      <trkpt lat="57.39399" lon="24.69009">
        <ele>69.932318</ele>
        <time>2020-10-08T07:49:13.559Z</time>
      </trkpt>
      <trkpt lat="57.38988" lon="24.68941">
        <ele>63.819902</ele>
        <time>2020-10-08T07:50:27.493Z</time>
      </trkpt>
      <trkpt lat="57.3894" lon="24.68932">
        <ele>63.29181</ele>
        <time>2020-10-08T07:50:36.759Z</time>
      </trkpt>
      <trkpt lat="57.3877" lon="24.68881">
        <ele>62.186784</ele>
        <time>2020-10-08T07:51:12.472Z</time>
      </trkpt>
      <trkpt lat="57.38667" lon="24.68834">
        <ele>61.790418</ele>
        <time>2020-10-08T07:51:35.668Z</time>
      </trkpt>
      <trkpt lat="57.38574" lon="24.68786">
        <ele>61.300001</ele>
        <time>2020-10-08T07:51:55.474Z</time>
      </trkpt>
      <trkpt lat="57.38429" lon="24.68681">
        <ele>60.235296</ele>
        <time>2020-10-08T07:52:26.222Z</time>
      </trkpt>
      <trkpt lat="57.38257" lon="24.68541">
        <ele>58.896526</ele>
        <time>2020-10-08T07:53:03.715Z</time>
      </trkpt>
      <trkpt lat="57.38212" lon="24.68488">
        <ele>58.544674</ele>
        <time>2020-10-08T07:53:14.587Z</time>
      </trkpt>
      <trkpt lat="57.38157" lon="24.68399">
        <ele>58.4083</ele>
        <time>2020-10-08T07:53:29.634Z</time>
      </trkpt>
      <trkpt lat="57.38137" lon="24.68367">
        <ele>58.406651</ele>
        <time>2020-10-08T07:53:35.208Z</time>
      </trkpt>
      <trkpt lat="57.38109" lon="24.68322">
        <ele>58.40431</ele>
        <time>2020-10-08T07:53:43.531Z</time>
      </trkpt>
      <trkpt lat="57.38072" lon="24.68291">
        <ele>58.401759</ele>
        <time>2020-10-08T07:53:53.177Z</time>
      </trkpt>
      <trkpt lat="57.38039" lon="24.68283">
        <ele>58.479578</ele>
        <time>2020-10-08T07:54:01.315Z</time>
      </trkpt>
      <trkpt lat="57.37991" lon="24.68297">
        <ele>58.854282</ele>
        <time>2020-10-08T07:54:13.425Z</time>
      </trkpt>
      <trkpt lat="57.3792" lon="24.68328">
        <ele>59.419373</ele>
        <time>2020-10-08T07:54:32.526Z</time>
      </trkpt>
      <trkpt lat="57.37883" lon="24.68345">
        <ele>59.711923</ele>
        <time>2020-10-08T07:54:42.377Z</time>
      </trkpt>
      <trkpt lat="57.37774" lon="24.68398">
        <ele>60.05789</ele>
        <time>2020-10-08T07:55:10.310Z</time>
      </trkpt>
      <trkpt lat="57.37676" lon="24.68484">
        <ele>60.100716</ele>
        <time>2020-10-08T07:55:33.370Z</time>
      </trkpt>
      <trkpt lat="57.37639" lon="24.6852">
        <ele>59.883872</ele>
        <time>2020-10-08T07:55:42.047Z</time>
      </trkpt>
      <trkpt lat="57.37613" lon="24.68533">
        <ele>59.746713</ele>
        <time>2020-10-08T07:55:47.458Z</time>
      </trkpt>
      <trkpt lat="57.37553" lon="24.68551">
        <ele>59.431166</ele>
        <time>2020-10-08T07:55:59.816Z</time>
      </trkpt>
      <trkpt lat="57.37486" lon="24.68545">
        <ele>59.056182</ele>
        <time>2020-10-08T07:56:13.303Z</time>
      </trkpt>
      <trkpt lat="57.3745" lon="24.68538">
        <ele>58.84686</ele>
        <time>2020-10-08T07:56:20.681Z</time>
      </trkpt>
      <trkpt lat="57.37406" lon="24.68523">
        <ele>58.593624</ele>
        <time>2020-10-08T07:56:29.703Z</time>
      </trkpt>
      <trkpt lat="57.37359" lon="24.68502">
        <ele>58.312654</ele>
        <time>2020-10-08T07:56:39.780Z</time>
      </trkpt>
      <trkpt lat="57.37325" lon="24.6848">
        <ele>58.111198</ele>
        <time>2020-10-08T07:56:47.321Z</time>
      </trkpt>
      <trkpt lat="57.37277" lon="24.68443">
        <ele>57.821122</ele>
        <time>2020-10-08T07:56:58.256Z</time>
      </trkpt>
      <trkpt lat="57.37227" lon="24.68393">
        <ele>57.503569</ele>
        <time>2020-10-08T07:57:09.920Z</time>
      </trkpt>
      <trkpt lat="57.37186" lon="24.68344">
        <ele>57.113746</ele>
        <time>2020-10-08T07:57:19.618Z</time>
      </trkpt>
      <trkpt lat="57.37146" lon="24.68283">
        <ele>56.234097</ele>
        <time>2020-10-08T07:57:29.551Z</time>
      </trkpt>
      <trkpt lat="57.3709" lon="24.68172">
        <ele>54.859936</ele>
        <time>2020-10-08T07:57:44.043Z</time>
      </trkpt>
      <trkpt lat="57.36987" lon="24.6793">
        <ele>52.069465</ele>
        <time>2020-10-08T07:58:12.782Z</time>
      </trkpt>
      <trkpt lat="57.36977" lon="24.67904">
        <ele>51.784074</ele>
        <time>2020-10-08T07:58:16.008Z</time>
      </trkpt>
      <trkpt lat="57.3694" lon="24.67817">
        <ele>51.492776</ele>
        <time>2020-10-08T07:58:28.348Z</time>
      </trkpt>
      <trkpt lat="57.36816" lon="24.67535">
        <ele>53.185688</ele>
        <time>2020-10-08T07:59:22.441Z</time>
      </trkpt>
      <trkpt lat="57.36765" lon="24.67432">
        <ele>53.843785</ele>
        <time>2020-10-08T07:59:42.196Z</time>
      </trkpt>
      <trkpt lat="57.36728" lon="24.67375">
        <ele>54.270881</ele>
        <time>2020-10-08T07:59:53.776Z</time>
      </trkpt>
      <trkpt lat="57.3665" lon="24.67275">
        <ele>54.622987</ele>
        <time>2020-10-08T08:00:15.885Z</time>
      </trkpt>
      <trkpt lat="57.36618" lon="24.67245">
        <ele>54.730827</ele>
        <time>2020-10-08T08:00:23.881Z</time>
      </trkpt>
      <trkpt lat="57.36559" lon="24.67197">
        <ele>54.940599</ele>
        <time>2020-10-08T08:00:39.008Z</time>
      </trkpt>
      <trkpt lat="57.36511" lon="24.67169">
        <ele>55.424438</ele>
        <time>2020-10-08T08:00:51.615Z</time>
      </trkpt>
      <trkpt lat="57.364" lon="24.67122">
        <ele>56.51536</ele>
        <time>2020-10-08T08:01:22.235Z</time>
      </trkpt>
      <trkpt lat="57.36084" lon="24.67003">
        <ele>59.467957</ele>
        <time>2020-10-08T08:02:48.397Z</time>
      </trkpt>
      <trkpt lat="57.35686" lon="24.66852">
        <ele>57.902233</ele>
        <time>2020-10-08T08:04:12.321Z</time>
      </trkpt>
      <trkpt lat="57.35635" lon="24.66834">
        <ele>57.067933</ele>
        <time>2020-10-08T08:04:22.088Z</time>
      </trkpt>
      <trkpt lat="57.35471" lon="24.66756">
        <ele>54.23571</ele>
        <time>2020-10-08T08:04:52.014Z</time>
      </trkpt>
      <trkpt lat="57.35431" lon="24.66729">
        <ele>53.54583</ele>
        <time>2020-10-08T08:04:59.352Z</time>
      </trkpt>
      <trkpt lat="57.35322" lon="24.66658">
        <ele>51.983822</ele>
        <time>2020-10-08T08:05:20.778Z</time>
      </trkpt>
      <trkpt lat="57.35304" lon="24.66644">
        <ele>52.047644</ele>
        <time>2020-10-08T08:05:24.651Z</time>
      </trkpt>
      <trkpt lat="57.35263" lon="24.66617">
        <ele>52.194557</ele>
        <time>2020-10-08T08:05:34.422Z</time>
      </trkpt>
      <trkpt lat="57.35162" lon="24.66552">
        <ele>52.613398</ele>
        <time>2020-10-08T08:06:02.467Z</time>
      </trkpt>
      <trkpt lat="57.35087" lon="24.66501">
        <ele>53.73665</ele>
        <time>2020-10-08T08:06:25.329Z</time>
      </trkpt>
      <trkpt lat="57.3486" lon="24.66346">
        <ele>57.362099</ele>
        <time>2020-10-08T08:07:33.025Z</time>
      </trkpt>
      <trkpt lat="57.34829" lon="24.66315">
        <ele>57.924699</ele>
        <time>2020-10-08T08:07:43.242Z</time>
      </trkpt>
      <trkpt lat="57.34781" lon="24.66241">
        <ele>59.2858</ele>
        <time>2020-10-08T08:08:02.323Z</time>
      </trkpt>
      <trkpt lat="57.34723" lon="24.66125">
        <ele>61.166971</ele>
        <time>2020-10-08T08:08:29.834Z</time>
      </trkpt>
      <trkpt lat="57.34713" lon="24.66107">
        <ele>61.471179</ele>
        <time>2020-10-08T08:08:34.287Z</time>
      </trkpt>
      <trkpt lat="57.34693" lon="24.66068">
        <ele>62.006422</ele>
        <time>2020-10-08T08:08:43.440Z</time>
      </trkpt>
      <trkpt lat="57.34686" lon="24.66056">
        <ele>62.143205</ele>
        <time>2020-10-08T08:08:46.364Z</time>
      </trkpt>
      <trkpt lat="57.34669" lon="24.66018">
        <ele>62.538269</ele>
        <time>2020-10-08T08:08:54.453Z</time>
      </trkpt>
      <trkpt lat="57.34647" lon="24.65979">
        <ele>62.992151</ele>
        <time>2020-10-08T08:09:03.569Z</time>
      </trkpt>
      <trkpt lat="57.34628" lon="24.65939">
        <ele>63.419733</ele>
        <time>2020-10-08T08:09:11.771Z</time>
      </trkpt>
      <trkpt lat="57.34603" lon="24.65901">
        <ele>63.900763</ele>
        <time>2020-10-08T08:09:20.555Z</time>
      </trkpt>
      <trkpt lat="57.34575" lon="24.65868">
        <ele>64.391708</ele>
        <time>2020-10-08T08:09:28.905Z</time>
      </trkpt>
      <trkpt lat="57.3454" lon="24.65835">
        <ele>64.470819</ele>
        <time>2020-10-08T08:09:38.138Z</time>
      </trkpt>
      <trkpt lat="57.34504" lon="24.65802">
        <ele>64.478876</ele>
        <time>2020-10-08T08:09:46.892Z</time>
      </trkpt>
      <trkpt lat="57.34476" lon="24.65789">
        <ele>64.484726</ele>
        <time>2020-10-08T08:09:53.087Z</time>
      </trkpt>
      <trkpt lat="57.34381" lon="24.6575">
        <ele>64.535134</ele>
        <time>2020-10-08T08:10:14.052Z</time>
      </trkpt>
      <trkpt lat="57.34204" lon="24.6567">
        <ele>64.94125</ele>
        <time>2020-10-08T08:10:56.459Z</time>
      </trkpt>
      <trkpt lat="57.34097" lon="24.65566">
        <ele>65.644234</ele>
        <time>2020-10-08T08:11:26.239Z</time>
      </trkpt>
      <trkpt lat="57.34077" lon="24.65546">
        <ele>65.777965</ele>
        <time>2020-10-08T08:11:31.861Z</time>
      </trkpt>
      <trkpt lat="57.34049" lon="24.65519">
        <ele>66.026775</ele>
        <time>2020-10-08T08:11:39.758Z</time>
      </trkpt>
      <trkpt lat="57.33857" lon="24.65311">
        <ele>67.815965</ele>
        <time>2020-10-08T08:12:38.525Z</time>
      </trkpt>
      <trkpt lat="57.33458" lon="24.64684">
        <ele>69.040453</ele>
        <time>2020-10-08T08:14:41.549Z</time>
      </trkpt>
      <trkpt lat="57.33375" lon="24.64546">
        <ele>67.754674</ele>
        <time>2020-10-08T08:15:02.009Z</time>
      </trkpt>
      <trkpt lat="57.33355" lon="24.64518">
        <ele>67.435889</ele>
        <time>2020-10-08T08:15:06.436Z</time>
      </trkpt>
      <trkpt lat="57.33318" lon="24.64462">
        <ele>66.222326</ele>
        <time>2020-10-08T08:15:14.572Z</time>
      </trkpt>
      <trkpt lat="57.33269" lon="24.64412">
        <ele>64.793551</ele>
        <time>2020-10-08T08:15:23.913Z</time>
      </trkpt>
      <trkpt lat="57.33139" lon="24.64316">
        <ele>61.379322</ele>
        <time>2020-10-08T08:15:47.471Z</time>
      </trkpt>
      <trkpt lat="57.33092" lon="24.64285">
        <ele>60.230049</ele>
        <time>2020-10-08T08:15:56.239Z</time>
      </trkpt>
      <trkpt lat="57.32999" lon="24.64223">
        <ele>58.135252</ele>
        <time>2020-10-08T08:16:13.543Z</time>
      </trkpt>
      <trkpt lat="57.32919" lon="24.64172">
        <ele>56.576445</ele>
        <time>2020-10-08T08:16:28.628Z</time>
      </trkpt>
      <trkpt lat="57.32864" lon="24.64138">
        <ele>55.522622</ele>
        <time>2020-10-08T08:16:38.972Z</time>
      </trkpt>
      <trkpt lat="57.32816" lon="24.64112">
        <ele>55.309564</ele>
        <time>2020-10-08T08:16:48.146Z</time>
      </trkpt>
      <trkpt lat="57.32681" lon="24.64049">
        <ele>55.002311</ele>
        <time>2020-10-08T08:17:18.780Z</time>
      </trkpt>
      <trkpt lat="57.32631" lon="24.64028">
        <ele>55.941442</ele>
        <time>2020-10-08T08:17:33.619Z</time>
      </trkpt>
      <trkpt lat="57.3261" lon="24.64019">
        <ele>56.343327</ele>
        <time>2020-10-08T08:17:40.374Z</time>
      </trkpt>
      <trkpt lat="57.32566" lon="24.64003">
        <ele>57.175933</ele>
        <time>2020-10-08T08:17:54.043Z</time>
      </trkpt>
      <trkpt lat="57.32537" lon="24.63993">
        <ele>57.740812</ele>
        <time>2020-10-08T08:18:03.850Z</time>
      </trkpt>
      <trkpt lat="57.32526" lon="24.6399">
        <ele>57.946854</ele>
        <time>2020-10-08T08:18:07.153Z</time>
      </trkpt>
      <trkpt lat="57.32486" lon="24.63991">
        <ele>58.543801</ele>
        <time>2020-10-08T08:18:20.020Z</time>
      </trkpt>
      <trkpt lat="57.32439" lon="24.63999">
        <ele>59.167602</ele>
        <time>2020-10-08T08:18:35.471Z</time>
      </trkpt>
      <trkpt lat="57.3235" lon="24.64036">
        <ele>60.369462</ele>
        <time>2020-10-08T08:18:58.483Z</time>
      </trkpt>
      <trkpt lat="57.32299" lon="24.64058">
        <ele>60.519175</ele>
        <time>2020-10-08T08:19:10.234Z</time>
      </trkpt>
      <trkpt lat="57.32245" lon="24.64086">
        <ele>60.41355</ele>
        <time>2020-10-08T08:19:22.270Z</time>
      </trkpt>
      <trkpt lat="57.32105" lon="24.64151">
        <ele>60.29613</ele>
        <time>2020-10-08T08:19:52.187Z</time>
      </trkpt>
      <trkpt lat="57.32063" lon="24.64162">
        <ele>60.332845</ele>
        <time>2020-10-08T08:20:01.534Z</time>
      </trkpt>
      <trkpt lat="57.31841" lon="24.64176">
        <ele>60.977342</ele>
        <time>2020-10-08T08:20:55.458Z</time>
      </trkpt>
      <trkpt lat="57.31798" lon="24.64187">
        <ele>61.118711</ele>
        <time>2020-10-08T08:21:06.003Z</time>
      </trkpt>
      <trkpt lat="57.3167" lon="24.6422">
        <ele>60.597037</ele>
        <time>2020-10-08T08:21:33.611Z</time>
      </trkpt>
      <trkpt lat="57.31441" lon="24.64278">
        <ele>58.517611</ele>
        <time>2020-10-08T08:22:17.603Z</time>
      </trkpt>
      <trkpt lat="57.31348" lon="24.64302">
        <ele>58.302088</ele>
        <time>2020-10-08T08:22:37.259Z</time>
      </trkpt>
      <trkpt lat="57.31003" lon="24.64392">
        <ele>58.477639</ele>
        <time>2020-10-08T08:23:56.850Z</time>
      </trkpt>
      <trkpt lat="57.30896" lon="24.6442">
        <ele>58.611961</ele>
        <time>2020-10-08T08:24:21.443Z</time>
      </trkpt>
      <trkpt lat="57.30798" lon="24.64448">
        <ele>58.770522</ele>
        <time>2020-10-08T08:24:43.987Z</time>
      </trkpt>
      <trkpt lat="57.30716" lon="24.64465">
        <ele>58.930359</ele>
        <time>2020-10-08T08:25:02.955Z</time>
      </trkpt>
      <trkpt lat="57.3051" lon="24.64502">
        <ele>59.696204</ele>
        <time>2020-10-08T08:25:51.867Z</time>
      </trkpt>
      <trkpt lat="57.30446" lon="24.6453">
        <ele>60.054753</ele>
        <time>2020-10-08T08:26:08.027Z</time>
      </trkpt>
      <trkpt lat="57.30169" lon="24.6476">
        <ele>61.919189</ele>
        <time>2020-10-08T08:27:24.684Z</time>
      </trkpt>
      <trkpt lat="57.30127" lon="24.648">
        <ele>62.03798</ele>
        <time>2020-10-08T08:27:36.302Z</time>
      </trkpt>
      <trkpt lat="57.30099" lon="24.64827">
        <ele>62.116546</ele>
        <time>2020-10-08T08:27:43.700Z</time>
      </trkpt>
      <trkpt lat="57.29909" lon="24.65011">
        <ele>61.332674</ele>
        <time>2020-10-08T08:28:27.748Z</time>
      </trkpt>
      <trkpt lat="57.29828" lon="24.65094">
        <ele>60.801237</ele>
        <time>2020-10-08T08:28:46.037Z</time>
      </trkpt>
      <trkpt lat="57.29661" lon="24.65252">
        <ele>59.914413</ele>
        <time>2020-10-08T08:29:24.643Z</time>
      </trkpt>
      <trkpt lat="57.29612" lon="24.65298">
        <ele>59.721615</ele>
        <time>2020-10-08T08:29:36.326Z</time>
      </trkpt>
      <trkpt lat="57.29555" lon="24.65348">
        <ele>59.643889</ele>
        <time>2020-10-08T08:29:50.007Z</time>
      </trkpt>
      <trkpt lat="57.29437" lon="24.65444">
        <ele>59.891038</ele>
        <time>2020-10-08T08:30:19.634Z</time>
      </trkpt>
      <trkpt lat="57.29322" lon="24.65546">
        <ele>60.673852</ele>
        <time>2020-10-08T08:30:51.765Z</time>
      </trkpt>
      <trkpt lat="57.2922" lon="24.65629">
        <ele>61.496109</ele>
        <time>2020-10-08T08:31:19.928Z</time>
      </trkpt>
      <trkpt lat="57.29148" lon="24.65676">
        <ele>62.112981</ele>
        <time>2020-10-08T08:31:39.560Z</time>
      </trkpt>
      <trkpt lat="57.29089" lon="24.65703">
        <ele>62.603255</ele>
        <time>2020-10-08T08:31:55.090Z</time>
      </trkpt>
      <trkpt lat="57.29044" lon="24.65714">
        <ele>62.90266</ele>
        <time>2020-10-08T08:32:06.456Z</time>
      </trkpt>
      <trkpt lat="57.29001" lon="24.65722">
        <ele>63.181003</ele>
        <time>2020-10-08T08:32:17.455Z</time>
      </trkpt>
      <trkpt lat="57.28928" lon="24.65735">
        <ele>63.640104</ele>
        <time>2020-10-08T08:32:35.451Z</time>
      </trkpt>
      <trkpt lat="57.28796" lon="24.65759">
        <ele>64.184526</ele>
        <time>2020-10-08T08:33:07.139Z</time>
      </trkpt>
      <trkpt lat="57.28788" lon="24.65762">
        <ele>64.213059</ele>
        <time>2020-10-08T08:33:09.047Z</time>
      </trkpt>
      <trkpt lat="57.28757" lon="24.65772">
        <ele>64.325771</ele>
        <time>2020-10-08T08:33:16.502Z</time>
      </trkpt>
      <trkpt lat="57.287" lon="24.65787">
        <ele>64.474598</ele>
        <time>2020-10-08T08:33:29.900Z</time>
      </trkpt>
      <trkpt lat="57.28558" lon="24.6582">
        <ele>64.659972</ele>
        <time>2020-10-08T08:34:02.549Z</time>
      </trkpt>
      <trkpt lat="57.28407" lon="24.65844">
        <ele>64.711655</ele>
        <time>2020-10-08T08:34:36.196Z</time>
      </trkpt>
      <trkpt lat="57.28189" lon="24.65867">
        <ele>64.78908</ele>
        <time>2020-10-08T08:35:25.094Z</time>
      </trkpt>
      <trkpt lat="57.28101" lon="24.6589">
        <ele>64.586195</ele>
        <time>2020-10-08T08:35:44.980Z</time>
      </trkpt>
      <trkpt lat="57.2802" lon="24.65914">
        <ele>64.393022</ele>
        <time>2020-10-08T08:36:02.446Z</time>
      </trkpt>
      <trkpt lat="57.2786" lon="24.6592">
        <ele>63.285619</ele>
        <time>2020-10-08T08:36:34.367Z</time>
      </trkpt>
      <trkpt lat="57.27808" lon="24.65932">
        <ele>62.869919</ele>
        <time>2020-10-08T08:36:44.439Z</time>
      </trkpt>
      <trkpt lat="57.27765" lon="24.65954">
        <ele>62.464583</ele>
        <time>2020-10-08T08:36:53.102Z</time>
      </trkpt>
      <trkpt lat="57.27638" lon="24.66032">
        <ele>61.384351</ele>
        <time>2020-10-08T08:37:19.179Z</time>
      </trkpt>
      <trkpt lat="57.27558" lon="24.66106">
        <ele>61.14163</ele>
        <time>2020-10-08T08:37:37.741Z</time>
      </trkpt>
      <trkpt lat="57.27517" lon="24.6616">
        <ele>61.004907</ele>
        <time>2020-10-08T08:37:49.266Z</time>
      </trkpt>
      <trkpt lat="57.27445" lon="24.66272">
        <ele>61.1907</ele>
        <time>2020-10-08T08:38:11.598Z</time>
      </trkpt>
      <trkpt lat="57.27431" lon="24.66293">
        <ele>61.248585</ele>
        <time>2020-10-08T08:38:16.058Z</time>
      </trkpt>
      <trkpt lat="57.27328" lon="24.66459">
        <ele>61.393309</ele>
        <time>2020-10-08T08:38:48.162Z</time>
      </trkpt>
      <trkpt lat="57.27315" lon="24.66478">
        <ele>61.341985</ele>
        <time>2020-10-08T08:38:51.944Z</time>
      </trkpt>
      <trkpt lat="57.27273" lon="24.66536">
        <ele>61.184573</ele>
        <time>2020-10-08T08:39:02.890Z</time>
      </trkpt>
      <trkpt lat="57.27213" lon="24.66623">
        <ele>60.812892</ele>
        <time>2020-10-08T08:39:18.217Z</time>
      </trkpt>
      <trkpt lat="57.27182" lon="24.66658">
        <ele>60.334251</ele>
        <time>2020-10-08T08:39:25.156Z</time>
      </trkpt>
      <trkpt lat="57.27077" lon="24.66716">
        <ele>58.88666</ele>
        <time>2020-10-08T08:39:45.297Z</time>
      </trkpt>
      <trkpt lat="57.27024" lon="24.66748">
        <ele>58.2514</ele>
        <time>2020-10-08T08:39:55.248Z</time>
      </trkpt>
      <trkpt lat="57.2688" lon="24.66824">
        <ele>56.778401</ele>
        <time>2020-10-08T08:40:24.162Z</time>
      </trkpt>
      <trkpt lat="57.26741" lon="24.66899">
        <ele>56.863111</ele>
        <time>2020-10-08T08:40:57.754Z</time>
      </trkpt>
      <trkpt lat="57.26676" lon="24.66932">
        <ele>56.750909</ele>
        <time>2020-10-08T08:41:13.773Z</time>
      </trkpt>
      <trkpt lat="57.2655" lon="24.66969">
        <ele>56.302872</ele>
        <time>2020-10-08T08:41:40.245Z</time>
      </trkpt>
      <trkpt lat="57.26475" lon="24.66983">
        <ele>55.92694</ele>
        <time>2020-10-08T08:41:55.065Z</time>
      </trkpt>
      <trkpt lat="57.26244" lon="24.67005">
        <ele>55.239989</ele>
        <time>2020-10-08T08:42:43.007Z</time>
      </trkpt>
      <trkpt lat="57.26024" lon="24.67032">
        <ele>55.992631</ele>
        <time>2020-10-08T08:43:37.552Z</time>
      </trkpt>
      <trkpt lat="57.25903" lon="24.6704">
        <ele>56.156134</ele>
        <time>2020-10-08T08:44:05.483Z</time>
      </trkpt>
      <trkpt lat="57.25791" lon="24.67052">
        <ele>56.160149</ele>
        <time>2020-10-08T08:44:29.424Z</time>
      </trkpt>
      <trkpt lat="57.25731" lon="24.6706">
        <ele>56.111126</ele>
        <time>2020-10-08T08:44:42.489Z</time>
      </trkpt>
      <trkpt lat="57.2567" lon="24.67068">
        <ele>56.061047</ele>
        <time>2020-10-08T08:44:56.502Z</time>
      </trkpt>
      <trkpt lat="57.25506" lon="24.67119">
        <ele>55.57598</ele>
        <time>2020-10-08T08:45:32.652Z</time>
      </trkpt>
      <trkpt lat="57.25493" lon="24.67124">
        <ele>55.528979</ele>
        <time>2020-10-08T08:45:35.324Z</time>
      </trkpt>
      <trkpt lat="57.25452" lon="24.6714">
        <ele>55.332438</ele>
        <time>2020-10-08T08:45:43.360Z</time>
      </trkpt>
      <trkpt lat="57.25403" lon="24.67144">
        <ele>54.844457</ele>
        <time>2020-10-08T08:45:53.001Z</time>
      </trkpt>
      <trkpt lat="57.25331" lon="24.67128">
        <ele>54.138562</ele>
        <time>2020-10-08T08:46:06.576Z</time>
      </trkpt>
      <trkpt lat="57.25144" lon="24.67091">
        <ele>52.613104</ele>
        <time>2020-10-08T08:46:44.117Z</time>
      </trkpt>
      <trkpt lat="57.25065" lon="24.67071">
        <ele>52.17108</ele>
        <time>2020-10-08T08:46:59.907Z</time>
      </trkpt>
      <trkpt lat="57.2503" lon="24.67062">
        <ele>52.047917</ele>
        <time>2020-10-08T08:47:06.920Z</time>
      </trkpt>
      <trkpt lat="57.24908" lon="24.67016">
        <ele>51.948616</ele>
        <time>2020-10-08T08:47:33.487Z</time>
      </trkpt>
      <trkpt lat="57.24864" lon="24.66996">
        <ele>52.611838</ele>
        <time>2020-10-08T08:47:45.556Z</time>
      </trkpt>
      <trkpt lat="57.24762" lon="24.66956">
        <ele>54.123599</ele>
        <time>2020-10-08T08:48:17.059Z</time>
      </trkpt>
      <trkpt lat="57.24749" lon="24.66953">
        <ele>54.301361</ele>
        <time>2020-10-08T08:48:21.492Z</time>
      </trkpt>
      <trkpt lat="57.24717" lon="24.66943">
        <ele>54.632017</ele>
        <time>2020-10-08T08:48:31.658Z</time>
      </trkpt>
      <trkpt lat="57.24676" lon="24.66939">
        <ele>55.034636</ele>
        <time>2020-10-08T08:48:43.611Z</time>
      </trkpt>
      <trkpt lat="57.24626" lon="24.66938">
        <ele>55.528898</ele>
        <time>2020-10-08T08:48:57.343Z</time>
      </trkpt>
      <trkpt lat="57.24344" lon="24.67021">
        <ele>54.862955</ele>
        <time>2020-10-08T08:49:55.983Z</time>
      </trkpt>
      <trkpt lat="57.24265" lon="24.67049">
        <ele>54.284098</ele>
        <time>2020-10-08T08:50:11.620Z</time>
      </trkpt>
      <trkpt lat="57.24176" lon="24.67085">
        <ele>53.852244</ele>
        <time>2020-10-08T08:50:30.010Z</time>
      </trkpt>
      <trkpt lat="57.2409" lon="24.6713">
        <ele>53.67088</ele>
        <time>2020-10-08T08:50:49.752Z</time>
      </trkpt>
      <trkpt lat="57.24005" lon="24.67183">
        <ele>53.353358</ele>
        <time>2020-10-08T08:51:10.075Z</time>
      </trkpt>
      <trkpt lat="57.2394" lon="24.6723">
        <ele>52.990827</ele>
        <time>2020-10-08T08:51:24.386Z</time>
      </trkpt>
      <trkpt lat="57.23875" lon="24.67277">
        <ele>52.615331</ele>
        <time>2020-10-08T08:51:38.153Z</time>
      </trkpt>
      <trkpt lat="57.23827" lon="24.67315">
        <ele>51.96921</ele>
        <time>2020-10-08T08:51:47.963Z</time>
      </trkpt>
      <trkpt lat="57.23694" lon="24.6742">
        <ele>50.171568</ele>
        <time>2020-10-08T08:52:14.940Z</time>
      </trkpt>
      <trkpt lat="57.23586" lon="24.67532">
        <ele>48.708529</ele>
        <time>2020-10-08T08:52:38.600Z</time>
      </trkpt>
      <trkpt lat="57.23537" lon="24.67597">
        <ele>48.049124</ele>
        <time>2020-10-08T08:52:49.998Z</time>
      </trkpt>
      <trkpt lat="57.23483" lon="24.67683">
        <ele>47.355453</ele>
        <time>2020-10-08T08:53:03.706Z</time>
      </trkpt>
      <trkpt lat="57.23432" lon="24.67775">
        <ele>46.668588</ele>
        <time>2020-10-08T08:53:17.463Z</time>
      </trkpt>
      <trkpt lat="57.23355" lon="24.67941">
        <ele>46.502563</ele>
        <time>2020-10-08T08:53:42.168Z</time>
      </trkpt>
      <trkpt lat="57.23138" lon="24.68408">
        <ele>48.202333</ele>
        <time>2020-10-08T08:55:04.704Z</time>
      </trkpt>
      <trkpt lat="57.22996" lon="24.6872">
        <ele>49.761459</ele>
        <time>2020-10-08T08:56:01.455Z</time>
      </trkpt>
      <trkpt lat="57.22842" lon="24.69058">
        <ele>50.530665</ele>
        <time>2020-10-08T08:56:57.728Z</time>
      </trkpt>
      <trkpt lat="57.22816" lon="24.69103">
        <ele>50.228253</ele>
        <time>2020-10-08T08:57:05.234Z</time>
      </trkpt>
      <trkpt lat="57.22801" lon="24.69128">
        <ele>50.044073</ele>
        <time>2020-10-08T08:57:09.344Z</time>
      </trkpt>
      <trkpt lat="57.22742" lon="24.69212">
        <ele>49.358394</ele>
        <time>2020-10-08T08:57:23.956Z</time>
      </trkpt>
      <trkpt lat="57.22696" lon="24.69271">
        <ele>48.796092</ele>
        <time>2020-10-08T08:57:34.279Z</time>
      </trkpt>
      <trkpt lat="57.22645" lon="24.69324">
        <ele>47.661094</ele>
        <time>2020-10-08T08:57:44.625Z</time>
      </trkpt>
      <trkpt lat="57.22568" lon="24.6939">
        <ele>46.01303</ele>
        <time>2020-10-08T08:57:59.470Z</time>
      </trkpt>
      <trkpt lat="57.22488" lon="24.69432">
        <ele>44.698138</ele>
        <time>2020-10-08T08:58:14.020Z</time>
      </trkpt>
      <trkpt lat="57.22297" lon="24.69503">
        <ele>43.252414</ele>
        <time>2020-10-08T08:58:51.301Z</time>
      </trkpt>
      <trkpt lat="57.21758" lon="24.69735">
        <ele>46.309605</ele>
        <time>2020-10-08T09:01:12.855Z</time>
      </trkpt>
      <trkpt lat="57.21692" lon="24.69759">
        <ele>46.455658</ele>
        <time>2020-10-08T09:01:27.672Z</time>
      </trkpt>
      <trkpt lat="57.21689" lon="24.6976">
        <ele>46.462499</ele>
        <time>2020-10-08T09:01:28.284Z</time>
      </trkpt>
      <trkpt lat="57.21679" lon="24.69763">
        <ele>46.484106</ele>
        <time>2020-10-08T09:01:30.342Z</time>
      </trkpt>
      <trkpt lat="57.21646" lon="24.69777">
        <ele>46.479531</ele>
        <time>2020-10-08T09:01:37.459Z</time>
      </trkpt>
      <trkpt lat="57.21532" lon="24.69821">
        <ele>46.064975</ele>
        <time>2020-10-08T09:02:01.649Z</time>
      </trkpt>
      <trkpt lat="57.21455" lon="24.69851">
        <ele>45.826302</ele>
        <time>2020-10-08T09:02:18.405Z</time>
      </trkpt>
      <trkpt lat="57.21257" lon="24.69933">
        <ele>45.570078</ele>
        <time>2020-10-08T09:03:02.115Z</time>
      </trkpt>
      <trkpt lat="57.2123" lon="24.69942">
        <ele>45.601389</ele>
        <time>2020-10-08T09:03:08.008Z</time>
      </trkpt>
      <trkpt lat="57.20757" lon="24.70129">
        <ele>46.588654</ele>
        <time>2020-10-08T09:04:59.640Z</time>
      </trkpt>
      <trkpt lat="57.20218" lon="24.70343">
        <ele>51.639983</ele>
        <time>2020-10-08T09:07:25.640Z</time>
      </trkpt>
      <trkpt lat="57.20074" lon="24.704">
        <ele>51.663788</ele>
        <time>2020-10-08T09:07:57.797Z</time>
      </trkpt>
      <trkpt lat="57.19825" lon="24.70498">
        <ele>49.402191</ele>
        <time>2020-10-08T09:08:46.205Z</time>
      </trkpt>
      <trkpt lat="57.1973" lon="24.70535">
        <ele>48.790747</ele>
        <time>2020-10-08T09:09:06.995Z</time>
      </trkpt>
      <trkpt lat="57.19636" lon="24.70576">
        <ele>48.525954</ele>
        <time>2020-10-08T09:09:28.076Z</time>
      </trkpt>
      <trkpt lat="57.1959" lon="24.70595">
        <ele>48.403818</ele>
        <time>2020-10-08T09:09:38.234Z</time>
      </trkpt>
      <trkpt lat="57.19493" lon="24.70632">
        <ele>47.585719</ele>
        <time>2020-10-08T09:09:58.459Z</time>
      </trkpt>
      <trkpt lat="57.192" lon="24.70746">
        <ele>43.545565</ele>
        <time>2020-10-08T09:10:53.210Z</time>
      </trkpt>
      <trkpt lat="57.19127" lon="24.70773">
        <ele>43.489979</ele>
        <time>2020-10-08T09:11:08.330Z</time>
      </trkpt>
      <trkpt lat="57.19055" lon="24.70801">
        <ele>43.462079</ele>
        <time>2020-10-08T09:11:25.488Z</time>
      </trkpt>
      <trkpt lat="57.1891" lon="24.70862">
        <ele>44.21089</ele>
        <time>2020-10-08T09:12:04.136Z</time>
      </trkpt>
      <trkpt lat="57.18859" lon="24.70885">
        <ele>44.555031</ele>
        <time>2020-10-08T09:12:16.609Z</time>
      </trkpt>
      <trkpt lat="57.1883" lon="24.70898">
        <ele>44.716588</ele>
        <time>2020-10-08T09:12:23.606Z</time>
      </trkpt>
      <trkpt lat="57.18699" lon="24.70966">
        <ele>45.283974</ele>
        <time>2020-10-08T09:12:55.223Z</time>
      </trkpt>
      <trkpt lat="57.18673" lon="24.7098">
        <ele>45.398069</ele>
        <time>2020-10-08T09:13:01.910Z</time>
      </trkpt>
      <trkpt lat="57.18573" lon="24.71033">
        <ele>46.282923</ele>
        <time>2020-10-08T09:13:29.247Z</time>
      </trkpt>
      <trkpt lat="57.18557" lon="24.71042">
        <ele>46.424095</ele>
        <time>2020-10-08T09:13:33.845Z</time>
      </trkpt>
      <trkpt lat="57.18463" lon="24.71093">
        <ele>47.045226</ele>
        <time>2020-10-08T09:13:58.934Z</time>
      </trkpt>
      <trkpt lat="57.18316" lon="24.71173">
        <ele>47.507176</ele>
        <time>2020-10-08T09:14:33.935Z</time>
      </trkpt>
      <trkpt lat="57.18255" lon="24.71215">
        <ele>47.615065</ele>
        <time>2020-10-08T09:14:48.662Z</time>
      </trkpt>
      <trkpt lat="57.18216" lon="24.71257">
        <ele>47.689248</ele>
        <time>2020-10-08T09:14:58.849Z</time>
      </trkpt>
      <trkpt lat="57.18207" lon="24.7124">
        <ele>47.710569</ele>
        <time>2020-10-08T09:15:01.711Z</time>
      </trkpt>
      <trkpt lat="57.18171" lon="24.71157">
        <ele>47.782642</ele>
        <time>2020-10-08T09:15:15.574Z</time>
      </trkpt>
      <trkpt lat="57.18154" lon="24.71122">
        <ele>47.780449</ele>
        <time>2020-10-08T09:15:21.488Z</time>
      </trkpt>
      <trkpt lat="57.18152" lon="24.71099">
        <ele>47.779294</ele>
        <time>2020-10-08T09:15:24.658Z</time>
      </trkpt>
      <trkpt lat="57.18143" lon="24.70987">
        <ele>47.773819</ele>
        <time>2020-10-08T09:15:38.855Z</time>
      </trkpt>
      <trkpt lat="57.1813" lon="24.70906">
        <ele>47.769756</ele>
        <time>2020-10-08T09:15:48.270Z</time>
      </trkpt>
      <trkpt lat="57.18123" lon="24.70847">
        <ele>47.798428</ele>
        <time>2020-10-08T09:15:54.738Z</time>
      </trkpt>
      <trkpt lat="57.18103" lon="24.70752">
        <ele>47.946157</ele>
        <time>2020-10-08T09:16:06.710Z</time>
      </trkpt>
      <trkpt lat="57.18088" lon="24.70712">
        <ele>48.016634</ele>
        <time>2020-10-08T09:16:12.667Z</time>
      </trkpt>
      <trkpt lat="57.18079" lon="24.70692">
        <ele>48.054298</ele>
        <time>2020-10-08T09:16:16.177Z</time>
      </trkpt>
      <trkpt lat="57.18038" lon="24.70623">
        <ele>48.203937</ele>
        <time>2020-10-08T09:16:29.536Z</time>
      </trkpt>
      <trkpt lat="57.18022" lon="24.70578">
        <ele>48.449509</ele>
        <time>2020-10-08T09:16:37.002Z</time>
      </trkpt>
      <trkpt lat="57.17984" lon="24.70337">
        <ele>50.691482</ele>
        <time>2020-10-08T09:17:17.661Z</time>
      </trkpt>
      <trkpt lat="57.17956" lon="24.70162">
        <ele>51.729202</ele>
        <time>2020-10-08T09:17:46.517Z</time>
      </trkpt>
      <trkpt lat="57.17942" lon="24.70085">
        <ele>52.065227</ele>
        <time>2020-10-08T09:17:57.845Z</time>
      </trkpt>
      <trkpt lat="57.17915" lon="24.69922">
        <ele>52.572385</ele>
        <time>2020-10-08T09:18:17.898Z</time>
      </trkpt>
      <trkpt lat="57.17912" lon="24.69833">
        <ele>52.536674</ele>
        <time>2020-10-08T09:18:27.744Z</time>
      </trkpt>
      <trkpt lat="57.17918" lon="24.69734">
        <ele>52.496718</ele>
        <time>2020-10-08T09:18:38.829Z</time>
      </trkpt>
      <trkpt lat="57.17919" lon="24.69727">
        <ele>52.494011</ele>
        <time>2020-10-08T09:18:39.674Z</time>
      </trkpt>
      <trkpt lat="57.1792" lon="24.69721">
        <ele>52.491333</ele>
        <time>2020-10-08T09:18:40.528Z</time>
      </trkpt>
      <trkpt lat="57.1792" lon="24.69691">
        <ele>52.479403</ele>
        <time>2020-10-08T09:18:44.199Z</time>
      </trkpt>
      <trkpt lat="57.17919" lon="24.69688">
        <ele>52.478047</ele>
        <time>2020-10-08T09:18:44.595Z</time>
      </trkpt>
      <trkpt lat="57.17916" lon="24.6967">
        <ele>52.470646</ele>
        <time>2020-10-08T09:18:46.833Z</time>
      </trkpt>
      <trkpt lat="57.17878" lon="24.69579">
        <ele>53.21618</ele>
        <time>2020-10-08T09:19:02.635Z</time>
      </trkpt>
      <trkpt lat="57.17668" lon="24.6919">
        <ele>58.657196</ele>
        <time>2020-10-08T09:20:35.075Z</time>
      </trkpt>
      <trkpt lat="57.17624" lon="24.69125">
        <ele>58.99925</ele>
        <time>2020-10-08T09:20:49.807Z</time>
      </trkpt>
      <trkpt lat="57.17606" lon="24.69105">
        <ele>58.996457</ele>
        <time>2020-10-08T09:20:54.592Z</time>
      </trkpt>
      <trkpt lat="57.17603" lon="24.69102">
        <ele>58.996048</ele>
        <time>2020-10-08T09:20:55.199Z</time>
      </trkpt>
      <trkpt lat="57.17526" lon="24.69017">
        <ele>58.98383</ele>
        <time>2020-10-08T09:21:14.279Z</time>
      </trkpt>
      <trkpt lat="57.17478" lon="24.6895">
        <ele>58.819603</ele>
        <time>2020-10-08T09:21:25.753Z</time>
      </trkpt>
      <trkpt lat="57.17472" lon="24.68942">
        <ele>58.782399</ele>
        <time>2020-10-08T09:21:28.288Z</time>
      </trkpt>
      <trkpt lat="57.17444" lon="24.68902">
        <ele>58.607858</ele>
        <time>2020-10-08T09:21:40.232Z</time>
      </trkpt>
      <trkpt lat="57.17352" lon="24.68709">
        <ele>58.089037</ele>
        <time>2020-10-08T09:22:31.256Z</time>
      </trkpt>
      <trkpt lat="57.17296" lon="24.68579">
        <ele>58.086147</ele>
        <time>2020-10-08T09:23:05.801Z</time>
      </trkpt>
      <trkpt lat="57.17284" lon="24.68554">
        <ele>58.085584</ele>
        <time>2020-10-08T09:23:12.312Z</time>
      </trkpt>
      <trkpt lat="57.17227" lon="24.6846">
        <ele>57.614333</ele>
        <time>2020-10-08T09:23:39.814Z</time>
      </trkpt>
      <trkpt lat="57.17205" lon="24.68429">
        <ele>57.283387</ele>
        <time>2020-10-08T09:23:49.450Z</time>
      </trkpt>
      <trkpt lat="57.1719" lon="24.68407">
        <ele>57.054955</ele>
        <time>2020-10-08T09:23:55.888Z</time>
      </trkpt>
      <trkpt lat="57.17076" lon="24.68231">
        <ele>54.716597</ele>
        <time>2020-10-08T09:24:43.451Z</time>
      </trkpt>
      <trkpt lat="57.16999" lon="24.68092">
        <ele>52.306681</ele>
        <time>2020-10-08T09:25:16.845Z</time>
      </trkpt>
      <trkpt lat="57.16915" lon="24.67926">
        <ele>49.332444</ele>
        <time>2020-10-08T09:25:54.369Z</time>
      </trkpt>
      <trkpt lat="57.1686" lon="24.67763">
        <ele>46.894182</ele>
        <time>2020-10-08T09:26:26.605Z</time>
      </trkpt>
      <trkpt lat="57.16811" lon="24.67609">
        <ele>44.8741</ele>
        <time>2020-10-08T09:26:57.121Z</time>
      </trkpt>
      <trkpt lat="57.16799" lon="24.67575">
        <ele>44.416723</ele>
        <time>2020-10-08T09:27:04.036Z</time>
      </trkpt>
      <trkpt lat="57.16775" lon="24.67533">
        <ele>43.728853</ele>
        <time>2020-10-08T09:27:14.510Z</time>
      </trkpt>
      <trkpt lat="57.16586" lon="24.67306">
        <ele>39.821342</ele>
        <time>2020-10-08T09:28:25.978Z</time>
      </trkpt>
      <trkpt lat="57.16543" lon="24.67274">
        <ele>39.302469</ele>
        <time>2020-10-08T09:28:41.654Z</time>
      </trkpt>
      <trkpt lat="57.1658" lon="24.67214">
        <ele>38.75109</ele>
        <time>2020-10-08T09:28:59.096Z</time>
      </trkpt>
      <trkpt lat="57.16617" lon="24.67154">
        <ele>38.190592</ele>
        <time>2020-10-08T09:29:16.068Z</time>
      </trkpt>
      <trkpt lat="57.16642" lon="24.67082">
        <ele>37.630595</ele>
        <time>2020-10-08T09:29:31.860Z</time>
      </trkpt>
      <trkpt lat="57.16647" lon="24.67038">
        <ele>37.328294</ele>
        <time>2020-10-08T09:29:40.869Z</time>
      </trkpt>
      <trkpt lat="57.16647" lon="24.67029">
        <ele>37.270257</ele>
        <time>2020-10-08T09:29:42.483Z</time>
      </trkpt>
      <trkpt lat="57.16647" lon="24.66992">
        <ele>37.024257</ele>
        <time>2020-10-08T09:29:49.422Z</time>
      </trkpt>
      <trkpt lat="57.16624" lon="24.66764">
        <ele>35.108907</ele>
        <time>2020-10-08T09:30:29.036Z</time>
      </trkpt>
      <trkpt lat="57.16624" lon="24.66643">
        <ele>33.843888</ele>
        <time>2020-10-08T09:30:49.306Z</time>
      </trkpt>
      <trkpt lat="57.16659" lon="24.66226">
        <ele>30.654045</ele>
        <time>2020-10-08T09:32:04.551Z</time>
      </trkpt>
      <trkpt lat="57.16673" lon="24.65948">
        <ele>30.410644</ele>
        <time>2020-10-08T09:33:00.515Z</time>
      </trkpt>
      <trkpt lat="57.16675" lon="24.65804">
        <ele>30.525321</ele>
        <time>2020-10-08T09:33:30.628Z</time>
      </trkpt>
      <trkpt lat="57.16656" lon="24.6553">
        <ele>31.173309</ele>
        <time>2020-10-08T09:34:28.343Z</time>
      </trkpt>
      <trkpt lat="57.16653" lon="24.65366">
        <ele>32.340969</ele>
        <time>2020-10-08T09:35:04.464Z</time>
      </trkpt>
      <trkpt lat="57.16669" lon="24.65033">
        <ele>36.320558</ele>
        <time>2020-10-08T09:36:26.899Z</time>
      </trkpt>
      <trkpt lat="57.16672" lon="24.64861">
        <ele>39.13162</ele>
        <time>2020-10-08T09:37:16.311Z</time>
      </trkpt>
      <trkpt lat="57.16665" lon="24.64754">
        <ele>41.193919</ele>
        <time>2020-10-08T09:37:47.669Z</time>
      </trkpt>
      <trkpt lat="57.1665" lon="24.64638">
        <ele>43.490938</ele>
        <time>2020-10-08T09:38:21.675Z</time>
      </trkpt>
      <trkpt lat="57.16641" lon="24.64503">
        <ele>45.186119</ele>
        <time>2020-10-08T09:38:57.540Z</time>
      </trkpt>
      <trkpt lat="57.16645" lon="24.64327">
        <ele>45.65305</ele>
        <time>2020-10-08T09:39:36.033Z</time>
      </trkpt>
      <trkpt lat="57.16666" lon="24.64104">
        <ele>44.414287</ele>
        <time>2020-10-08T09:40:15.735Z</time>
      </trkpt>
      <trkpt lat="57.16682" lon="24.64026">
        <ele>43.406903</ele>
        <time>2020-10-08T09:40:29.789Z</time>
      </trkpt>
      <trkpt lat="57.16686" lon="24.64011">
        <ele>43.207173</ele>
        <time>2020-10-08T09:40:32.367Z</time>
      </trkpt>
      <trkpt lat="57.16703" lon="24.63952">
        <ele>42.404032</ele>
        <time>2020-10-08T09:40:43.408Z</time>
      </trkpt>
      <trkpt lat="57.16842" lon="24.63624">
        <ele>36.905334</ele>
        <time>2020-10-08T09:41:51.725Z</time>
      </trkpt>
      <trkpt lat="57.16845" lon="24.63576">
        <ele>36.70504</ele>
        <time>2020-10-08T09:42:00.019Z</time>
      </trkpt>
      <trkpt lat="57.16842" lon="24.63529">
        <ele>36.505113</ele>
        <time>2020-10-08T09:42:08.444Z</time>
      </trkpt>
      <trkpt lat="57.16843" lon="24.63519">
        <ele>36.466288</ele>
        <time>2020-10-08T09:42:10.227Z</time>
      </trkpt>
      <trkpt lat="57.16848" lon="24.63494">
        <ele>36.351353</ele>
        <time>2020-10-08T09:42:15.280Z</time>
      </trkpt>
      <trkpt lat="57.16864" lon="24.63433">
        <ele>36.06638</ele>
        <time>2020-10-08T09:42:28.615Z</time>
      </trkpt>
      <trkpt lat="57.16886" lon="24.63367">
        <ele>35.74822</ele>
        <time>2020-10-08T09:42:44.488Z</time>
      </trkpt>
      <trkpt lat="57.16922" lon="24.63232">
        <ele>37.309622</ele>
        <time>2020-10-08T09:43:20.801Z</time>
      </trkpt>
      <trkpt lat="57.1694" lon="24.63104">
        <ele>38.813383</ele>
        <time>2020-10-08T09:43:56.011Z</time>
      </trkpt>
      <trkpt lat="57.16945" lon="24.62987">
        <ele>39.687119</ele>
        <time>2020-10-08T09:44:25.653Z</time>
      </trkpt>
      <trkpt lat="57.16928" lon="24.62887">
        <ele>40.077056</ele>
        <time>2020-10-08T09:44:40.581Z</time>
      </trkpt>
      <trkpt lat="57.16894" lon="24.62755">
        <ele>40.621208</ele>
        <time>2020-10-08T09:44:58.203Z</time>
      </trkpt>
      <trkpt lat="57.16858" lon="24.62653">
        <ele>40.553772</ele>
        <time>2020-10-08T09:45:11.050Z</time>
      </trkpt>
      <trkpt lat="57.16841" lon="24.62619">
        <ele>40.482932</ele>
        <time>2020-10-08T09:45:16.105Z</time>
      </trkpt>
      <trkpt lat="57.16831" lon="24.62599">
        <ele>40.442908</ele>
        <time>2020-10-08T09:45:18.982Z</time>
      </trkpt>
      <trkpt lat="57.16769" lon="24.62482">
        <ele>40.255863</ele>
        <time>2020-10-08T09:45:38.877Z</time>
      </trkpt>
      <trkpt lat="57.16723" lon="24.62413">
        <ele>41.158555</ele>
        <time>2020-10-08T09:45:54.027Z</time>
      </trkpt>
      <trkpt lat="57.16589" lon="24.62242">
        <ele>43.775404</ele>
        <time>2020-10-08T09:46:44.013Z</time>
      </trkpt>
      <trkpt lat="57.16566" lon="24.62184">
        <ele>44.476746</ele>
        <time>2020-10-08T09:46:56.131Z</time>
      </trkpt>
      <trkpt lat="57.16536" lon="24.62082">
        <ele>45.600793</ele>
        <time>2020-10-08T09:47:14.666Z</time>
      </trkpt>
      <trkpt lat="57.16477" lon="24.61864">
        <ele>46.727158</ele>
        <time>2020-10-08T09:47:49.591Z</time>
      </trkpt>
      <trkpt lat="57.16413" lon="24.61641">
        <ele>46.932457</ele>
        <time>2020-10-08T09:48:19.487Z</time>
      </trkpt>
      <trkpt lat="57.16317" lon="24.6103">
        <ele>45.273295</ele>
        <time>2020-10-08T09:49:30.001Z</time>
      </trkpt>
      <trkpt lat="57.16303" lon="24.60984">
        <ele>45.158336</ele>
        <time>2020-10-08T09:49:35.973Z</time>
      </trkpt>
      <trkpt lat="57.16256" lon="24.60959">
        <ele>44.958517</ele>
        <time>2020-10-08T09:49:46.379Z</time>
      </trkpt>
      <trkpt lat="57.16159" lon="24.60979">
        <ele>44.636693</ele>
        <time>2020-10-08T09:50:07.082Z</time>
      </trkpt>
      <trkpt lat="57.16134" lon="24.60962">
        <ele>44.581784</ele>
        <time>2020-10-08T09:50:12.665Z</time>
      </trkpt>
      <trkpt lat="57.16098" lon="24.60904">
        <ele>44.480725</ele>
        <time>2020-10-08T09:50:22.783Z</time>
      </trkpt>
      <trkpt lat="57.15965" lon="24.60592">
        <ele>44.096993</ele>
        <time>2020-10-08T09:51:10.166Z</time>
      </trkpt>
      <trkpt lat="57.15951" lon="24.60555">
        <ele>44.056604</ele>
        <time>2020-10-08T09:51:15.610Z</time>
      </trkpt>
      <trkpt lat="57.15938" lon="24.60487">
        <ele>43.562363</ele>
        <time>2020-10-08T09:51:23.648Z</time>
      </trkpt>
      <trkpt lat="57.15937" lon="24.60447">
        <ele>43.225445</ele>
        <time>2020-10-08T09:51:28.204Z</time>
      </trkpt>
      <trkpt lat="57.15937" lon="24.60406">
        <ele>42.870697</ele>
        <time>2020-10-08T09:51:32.316Z</time>
      </trkpt>
      <trkpt lat="57.15933" lon="24.60369">
        <ele>42.55201</ele>
        <time>2020-10-08T09:51:36.212Z</time>
      </trkpt>
      <trkpt lat="57.15916" lon="24.60309">
        <ele>41.976991</ele>
        <time>2020-10-08T09:51:42.784Z</time>
      </trkpt>
      <trkpt lat="57.15897" lon="24.60287">
        <ele>41.628659</ele>
        <time>2020-10-08T09:51:46.648Z</time>
      </trkpt>
      <trkpt lat="57.15807" lon="24.60248">
        <ele>38.962355</ele>
        <time>2020-10-08T09:52:01.745Z</time>
      </trkpt>
      <trkpt lat="57.15769" lon="24.60219">
        <ele>37.572436</ele>
        <time>2020-10-08T09:52:08.261Z</time>
      </trkpt>
      <trkpt lat="57.1568" lon="24.60082">
        <ele>34.083938</ele>
        <time>2020-10-08T09:52:26.840Z</time>
      </trkpt>
      <trkpt lat="57.15538" lon="24.59878">
        <ele>30.405205</ele>
        <time>2020-10-08T09:52:58.544Z</time>
      </trkpt>
      <trkpt lat="57.15435" lon="24.59826">
        <ele>29.471351</ele>
        <time>2020-10-08T09:53:20.211Z</time>
      </trkpt>
      <trkpt lat="57.15358" lon="24.59759">
        <ele>29.134947</ele>
        <time>2020-10-08T09:53:39.055Z</time>
      </trkpt>
      <trkpt lat="57.15332" lon="24.59709">
        <ele>29.081628</ele>
        <time>2020-10-08T09:53:47.317Z</time>
      </trkpt>
      <trkpt lat="57.15314" lon="24.59653">
        <ele>29.030764</ele>
        <time>2020-10-08T09:53:55.065Z</time>
      </trkpt>
      <trkpt lat="57.15282" lon="24.59457">
        <ele>29.019801</ele>
        <time>2020-10-08T09:54:18.992Z</time>
      </trkpt>
      <trkpt lat="57.15243" lon="24.5935">
        <ele>29.091406</ele>
        <time>2020-10-08T09:54:34.393Z</time>
      </trkpt>
      <trkpt lat="57.15186" lon="24.59279">
        <ele>29.397298</ele>
        <time>2020-10-08T09:54:50.932Z</time>
      </trkpt>
      <trkpt lat="57.15131" lon="24.59141">
        <ele>30.657383</ele>
        <time>2020-10-08T09:55:16.114Z</time>
      </trkpt>
      <trkpt lat="57.15075" lon="24.59048">
        <ele>31.704673</ele>
        <time>2020-10-08T09:55:38.810Z</time>
      </trkpt>
      <trkpt lat="57.15034" lon="24.58928">
        <ele>32.994999</ele>
        <time>2020-10-08T09:56:02.501Z</time>
      </trkpt>
      <trkpt lat="57.14986" lon="24.58815">
        <ele>34.303842</ele>
        <time>2020-10-08T09:56:24.918Z</time>
      </trkpt>
      <trkpt lat="57.14966" lon="24.5874">
        <ele>34.680229</ele>
        <time>2020-10-08T09:56:37.113Z</time>
      </trkpt>
      <trkpt lat="57.14961" lon="24.5872">
        <ele>34.715087</ele>
        <time>2020-10-08T09:56:39.783Z</time>
      </trkpt>
      <trkpt lat="57.14919" lon="24.584">
        <ele>34.912459</ele>
        <time>2020-10-08T09:57:20.256Z</time>
      </trkpt>
      <trkpt lat="57.14883" lon="24.58243">
        <ele>34.384884</ele>
        <time>2020-10-08T09:57:39.107Z</time>
      </trkpt>
      <trkpt lat="57.1459" lon="24.57797">
        <ele>30.370228</ele>
        <time>2020-10-08T09:58:51.384Z</time>
      </trkpt>
      <trkpt lat="57.1448" lon="24.57644">
        <ele>28.716267</ele>
        <time>2020-10-08T09:59:18.269Z</time>
      </trkpt>
      <trkpt lat="57.14431" lon="24.57528">
        <ele>27.683514</ele>
        <time>2020-10-08T09:59:32.811Z</time>
      </trkpt>
      <trkpt lat="57.14409" lon="24.57473">
        <ele>26.952948</ele>
        <time>2020-10-08T09:59:39.518Z</time>
      </trkpt>
      <trkpt lat="57.14372" lon="24.5739">
        <ele>25.828276</ele>
        <time>2020-10-08T09:59:49.707Z</time>
      </trkpt>
      <trkpt lat="57.14353" lon="24.57257">
        <ele>24.387695</ele>
        <time>2020-10-08T10:00:02.688Z</time>
      </trkpt>
      <trkpt lat="57.14348" lon="24.57079">
        <ele>23.130841</ele>
        <time>2020-10-08T10:00:20.230Z</time>
      </trkpt>
      <trkpt lat="57.14352" lon="24.56866">
        <ele>21.991669</ele>
        <time>2020-10-08T10:00:43.208Z</time>
      </trkpt>
      <trkpt lat="57.14336" lon="24.56783">
        <ele>21.911561</ele>
        <time>2020-10-08T10:00:53.282Z</time>
      </trkpt>
      <trkpt lat="57.14323" lon="24.56763">
        <ele>21.884232</ele>
        <time>2020-10-08T10:00:56.689Z</time>
      </trkpt>
      <trkpt lat="57.14312" lon="24.56749">
        <ele>21.862315</ele>
        <time>2020-10-08T10:00:59.734Z</time>
      </trkpt>
      <trkpt lat="57.14259" lon="24.567">
        <ele>21.763151</ele>
        <time>2020-10-08T10:01:13.228Z</time>
      </trkpt>
      <trkpt lat="57.14216" lon="24.56587">
        <ele>22.467542</ele>
        <time>2020-10-08T10:01:31.818Z</time>
      </trkpt>
      <trkpt lat="57.14008" lon="24.56242">
        <ele>26.060397</ele>
        <time>2020-10-08T10:02:50.940Z</time>
      </trkpt>
      <trkpt lat="57.13922" lon="24.56068">
        <ele>26.69533</ele>
        <time>2020-10-08T10:03:23.019Z</time>
      </trkpt>
      <trkpt lat="57.13861" lon="24.55969">
        <ele>26.824705</ele>
        <time>2020-10-08T10:03:40.825Z</time>
      </trkpt>
      <trkpt lat="57.13795" lon="24.5583">
        <ele>25.894476</ele>
        <time>2020-10-08T10:04:00.686Z</time>
      </trkpt>
      <trkpt lat="57.13529" lon="24.5536">
        <ele>20.945953</ele>
        <time>2020-10-08T10:05:08.414Z</time>
      </trkpt>
      <trkpt lat="57.13477" lon="24.5521">
        <ele>20.106969</ele>
        <time>2020-10-08T10:05:27.061Z</time>
      </trkpt>
      <trkpt lat="57.13171" lon="24.54699">
        <ele>19.427153</ele>
        <time>2020-10-08T10:06:58.004Z</time>
      </trkpt>
      <trkpt lat="57.13113" lon="24.54555">
        <ele>19.349531</ele>
        <time>2020-10-08T10:07:20.166Z</time>
      </trkpt>
      <trkpt lat="57.1301" lon="24.54345">
        <ele>18.684339</ele>
        <time>2020-10-08T10:07:51.840Z</time>
      </trkpt>
      <trkpt lat="57.12895" lon="24.54137">
        <ele>18.081069</ele>
        <time>2020-10-08T10:08:23.877Z</time>
      </trkpt>
      <trkpt lat="57.12755" lon="24.53858">
        <ele>19.805039</ele>
        <time>2020-10-08T10:09:17.151Z</time>
      </trkpt>
      <trkpt lat="57.12623" lon="24.53504">
        <ele>25.257921</ele>
        <time>2020-10-08T10:10:35.070Z</time>
      </trkpt>
      <trkpt lat="57.12548" lon="24.53343">
        <ele>27.199788</ele>
        <time>2020-10-08T10:11:08.527Z</time>
      </trkpt>
      <trkpt lat="57.12428" lon="24.53004">
        <ele>27.425102</ele>
        <time>2020-10-08T10:11:57.287Z</time>
      </trkpt>
      <trkpt lat="57.1232" lon="24.528">
        <ele>26.162758</ele>
        <time>2020-10-08T10:12:27.247Z</time>
      </trkpt>
      <trkpt lat="57.12293" lon="24.52772">
        <ele>25.96287</ele>
        <time>2020-10-08T10:12:33.142Z</time>
      </trkpt>
      <trkpt lat="57.12198" lon="24.52734">
        <ele>25.368268</ele>
        <time>2020-10-08T10:12:52.412Z</time>
      </trkpt>
      <trkpt lat="57.12161" lon="24.52706">
        <ele>25.130185</ele>
        <time>2020-10-08T10:13:00.454Z</time>
      </trkpt>
      <trkpt lat="57.12112" lon="24.52616">
        <ele>25.630827</ele>
        <time>2020-10-08T10:13:16.597Z</time>
      </trkpt>
      <trkpt lat="57.12061" lon="24.52493">
        <ele>26.64303</ele>
        <time>2020-10-08T10:13:40.061Z</time>
      </trkpt>
      <trkpt lat="57.12055" lon="24.52492">
        <ele>26.718895</ele>
        <time>2020-10-08T10:13:41.720Z</time>
      </trkpt>
      <trkpt lat="57.12032" lon="24.52438">
        <ele>27.164314</ele>
        <time>2020-10-08T10:13:58.637Z</time>
      </trkpt>
      <trkpt lat="57.12013" lon="24.52344">
        <ele>28.203651</ele>
        <time>2020-10-08T10:14:24.348Z</time>
      </trkpt>
      <trkpt lat="57.12011" lon="24.52263">
        <ele>29.061409</ele>
        <time>2020-10-08T10:14:45.417Z</time>
      </trkpt>
      <trkpt lat="57.12006" lon="24.52222">
        <ele>29.493457</ele>
        <time>2020-10-08T10:14:55.758Z</time>
      </trkpt>
      <trkpt lat="57.11974" lon="24.52077">
        <ele>30.502728</ele>
        <time>2020-10-08T10:15:32.508Z</time>
      </trkpt>
      <trkpt lat="57.11931" lon="24.51933">
        <ele>29.962157</ele>
        <time>2020-10-08T10:16:04.141Z</time>
      </trkpt>
      <trkpt lat="57.11887" lon="24.51849">
        <ele>29.581091</ele>
        <time>2020-10-08T10:16:24.411Z</time>
      </trkpt>
      <trkpt lat="57.11845" lon="24.51797">
        <ele>28.627859</ele>
        <time>2020-10-08T10:16:40.301Z</time>
      </trkpt>
      <trkpt lat="57.11824" lon="24.51746">
        <ele>27.96199</ele>
        <time>2020-10-08T10:16:51.049Z</time>
      </trkpt>
      <trkpt lat="57.11807" lon="24.51729">
        <ele>27.597649</ele>
        <time>2020-10-08T10:16:56.971Z</time>
      </trkpt>
      <trkpt lat="57.11774" lon="24.51651">
        <ele>26.559941</ele>
        <time>2020-10-08T10:17:14.015Z</time>
      </trkpt>
      <trkpt lat="57.11739" lon="24.51593">
        <ele>25.923132</ele>
        <time>2020-10-08T10:17:29.390Z</time>
      </trkpt>
      <trkpt lat="57.11645" lon="24.51463">
        <ele>25.008096</ele>
        <time>2020-10-08T10:18:10.017Z</time>
      </trkpt>
      <trkpt lat="57.11574" lon="24.51376">
        <ele>24.744242</ele>
        <time>2020-10-08T10:18:41.077Z</time>
      </trkpt>
      <trkpt lat="57.11525" lon="24.51304">
        <ele>24.792971</ele>
        <time>2020-10-08T10:19:04.542Z</time>
      </trkpt>
      <trkpt lat="57.11425" lon="24.51185">
        <ele>25.120892</ele>
        <time>2020-10-08T10:19:50.189Z</time>
      </trkpt>
      <trkpt lat="57.11395" lon="24.51131">
        <ele>25.35978</ele>
        <time>2020-10-08T10:20:06.825Z</time>
      </trkpt>
      <trkpt lat="57.11366" lon="24.51071">
        <ele>25.605958</ele>
        <time>2020-10-08T10:20:24.150Z</time>
      </trkpt>
      <trkpt lat="57.11301" lon="24.5087">
        <ele>26.371051</ele>
        <time>2020-10-08T10:21:15.319Z</time>
      </trkpt>
      <trkpt lat="57.11196" lon="24.50651">
        <ele>26.979125</ele>
        <time>2020-10-08T10:22:17.388Z</time>
      </trkpt>
      <trkpt lat="57.11174" lon="24.5058">
        <ele>26.973907</ele>
        <time>2020-10-08T10:22:34.093Z</time>
      </trkpt>
      <trkpt lat="57.11101" lon="24.50443">
        <ele>26.739801</ele>
        <time>2020-10-08T10:23:11.190Z</time>
      </trkpt>
      <trkpt lat="57.11025" lon="24.50316">
        <ele>25.921763</ele>
        <time>2020-10-08T10:23:46.413Z</time>
      </trkpt>
      <trkpt lat="57.11003" lon="24.50256">
        <ele>25.60782</ele>
        <time>2020-10-08T10:23:54.352Z</time>
      </trkpt>
      <trkpt lat="57.10966" lon="24.5019">
        <ele>25.104189</ele>
        <time>2020-10-08T10:24:04.670Z</time>
      </trkpt>
      <trkpt lat="57.10896" lon="24.5003">
        <ele>23.967365</ele>
        <time>2020-10-08T10:24:27.179Z</time>
      </trkpt>
      <trkpt lat="57.10873" lon="24.50003">
        <ele>23.698586</ele>
        <time>2020-10-08T10:24:32.666Z</time>
      </trkpt>
      <trkpt lat="57.10846" lon="24.49991">
        <ele>23.490285</ele>
        <time>2020-10-08T10:24:38.551Z</time>
      </trkpt>
      <trkpt lat="57.10769" lon="24.4999">
        <ele>22.929979</ele>
        <time>2020-10-08T10:24:54.454Z</time>
      </trkpt>
      <trkpt lat="57.10661" lon="24.49766">
        <ele>22.045293</ele>
        <time>2020-10-08T10:25:29.216Z</time>
      </trkpt>
      <trkpt lat="57.10476" lon="24.49435">
        <ele>21.437784</ele>
        <time>2020-10-08T10:26:26.996Z</time>
      </trkpt>
      <trkpt lat="57.10365" lon="24.49261">
        <ele>21.81336</ele>
        <time>2020-10-08T10:27:02.122Z</time>
      </trkpt>
      <trkpt lat="57.10253" lon="24.49012">
        <ele>22.660895</ele>
        <time>2020-10-08T10:27:46.852Z</time>
      </trkpt>
      <trkpt lat="57.10211" lon="24.48906">
        <ele>23.032622</ele>
        <time>2020-10-08T10:28:05.155Z</time>
      </trkpt>
      <trkpt lat="57.10171" lon="24.48832">
        <ele>23.286656</ele>
        <time>2020-10-08T10:28:19.783Z</time>
      </trkpt>
      <trkpt lat="57.10068" lon="24.48588">
        <ele>23.309741</ele>
        <time>2020-10-08T10:29:00.828Z</time>
      </trkpt>
      <trkpt lat="57.10033" lon="24.48456">
        <ele>22.767555</ele>
        <time>2020-10-08T10:29:17.383Z</time>
      </trkpt>
      <trkpt lat="57.10002" lon="24.48365">
        <ele>22.023152</ele>
        <time>2020-10-08T10:29:28.380Z</time>
      </trkpt>
      <trkpt lat="57.0993" lon="24.48175">
        <ele>19.221714</ele>
        <time>2020-10-08T10:29:50.897Z</time>
      </trkpt>
      <trkpt lat="57.09909" lon="24.48136">
        <ele>18.553828</ele>
        <time>2020-10-08T10:29:56.265Z</time>
      </trkpt>
      <trkpt lat="57.09857" lon="24.47956">
        <ele>16.927059</ele>
        <time>2020-10-08T10:30:16.979Z</time>
      </trkpt>
      <trkpt lat="57.09802" lon="24.47736">
        <ele>15.894774</ele>
        <time>2020-10-08T10:30:44.833Z</time>
      </trkpt>
      <trkpt lat="57.09762" lon="24.47627">
        <ele>15.879214</ele>
        <time>2020-10-08T10:31:02.192Z</time>
      </trkpt>
      <trkpt lat="57.09632" lon="24.47347">
        <ele>15.963181</ele>
        <time>2020-10-08T10:31:51.237Z</time>
      </trkpt>
      <trkpt lat="57.09522" lon="24.47187">
        <ele>15.032182</ele>
        <time>2020-10-08T10:32:19.756Z</time>
      </trkpt>
      <trkpt lat="57.09468" lon="24.47109">
        <ele>14.466875</ele>
        <time>2020-10-08T10:32:33.424Z</time>
      </trkpt>
      <trkpt lat="57.09461" lon="24.47099">
        <ele>14.453885</ele>
        <time>2020-10-08T10:32:35.199Z</time>
      </trkpt>
      <trkpt lat="57.0922" lon="24.46722">
        <ele>14.583587</ele>
        <time>2020-10-08T10:33:48.818Z</time>
      </trkpt>
      <trkpt lat="57.09171" lon="24.46658">
        <ele>14.939742</ele>
        <time>2020-10-08T10:34:05.369Z</time>
      </trkpt>
      <trkpt lat="57.0915" lon="24.46619">
        <ele>15.244149</ele>
        <time>2020-10-08T10:34:13.663Z</time>
      </trkpt>
      <trkpt lat="57.09146" lon="24.46604">
        <ele>15.335609</ele>
        <time>2020-10-08T10:34:16.469Z</time>
      </trkpt>
      <trkpt lat="57.09142" lon="24.46589">
        <ele>15.419287</ele>
        <time>2020-10-08T10:34:18.761Z</time>
      </trkpt>
      <trkpt lat="57.0914" lon="24.46585">
        <ele>15.451027</ele>
        <time>2020-10-08T10:34:19.558Z</time>
      </trkpt>
      <trkpt lat="57.09131" lon="24.46568">
        <ele>15.579327</ele>
        <time>2020-10-08T10:34:22.840Z</time>
      </trkpt>
      <trkpt lat="57.09125" lon="24.46551">
        <ele>15.688876</ele>
        <time>2020-10-08T10:34:26.035Z</time>
      </trkpt>
      <trkpt lat="57.09109" lon="24.46435">
        <ele>16.339779</ele>
        <time>2020-10-08T10:34:42.827Z</time>
      </trkpt>
      <trkpt lat="57.09091" lon="24.46292">
        <ele>17.054884</ele>
        <time>2020-10-08T10:35:04.267Z</time>
      </trkpt>
      <trkpt lat="57.09083" lon="24.46226">
        <ele>17.382256</ele>
        <time>2020-10-08T10:35:13.366Z</time>
      </trkpt>
      <trkpt lat="57.09053" lon="24.45992">
        <ele>18.470719</ele>
        <time>2020-10-08T10:35:46.919Z</time>
      </trkpt>
      <trkpt lat="57.09016" lon="24.45876">
        <ele>19.034972</ele>
        <time>2020-10-08T10:36:06.550Z</time>
      </trkpt>
      <trkpt lat="57.08954" lon="24.45721">
        <ele>19.128705</ele>
        <time>2020-10-08T10:36:31.290Z</time>
      </trkpt>
      <trkpt lat="57.0893" lon="24.45625">
        <ele>18.79088</ele>
        <time>2020-10-08T10:36:43.081Z</time>
      </trkpt>
      <trkpt lat="57.08925" lon="24.45451">
        <ele>17.98435</ele>
        <time>2020-10-08T10:37:00.775Z</time>
      </trkpt>
      <trkpt lat="57.08927" lon="24.45256">
        <ele>16.283643</ele>
        <time>2020-10-08T10:37:19.792Z</time>
      </trkpt>
      <trkpt lat="57.08938" lon="24.45187">
        <ele>15.661417</ele>
        <time>2020-10-08T10:37:26.893Z</time>
      </trkpt>
      <trkpt lat="57.0898" lon="24.45097">
        <ele>14.677802</ele>
        <time>2020-10-08T10:37:38.926Z</time>
      </trkpt>
      <trkpt lat="57.08994" lon="24.45033">
        <ele>14.109234</ele>
        <time>2020-10-08T10:37:46.012Z</time>
      </trkpt>
      <trkpt lat="57.09003" lon="24.44906">
        <ele>13.060663</ele>
        <time>2020-10-08T10:37:58.936Z</time>
      </trkpt>
      <trkpt lat="57.09003" lon="24.44828">
        <ele>12.277992</ele>
        <time>2020-10-08T10:38:06.379Z</time>
      </trkpt>
      <trkpt lat="57.08993" lon="24.44677">
        <ele>10.524895</ele>
        <time>2020-10-08T10:38:20.674Z</time>
      </trkpt>
      <trkpt lat="57.08991" lon="24.44606">
        <ele>9.703838</ele>
        <time>2020-10-08T10:38:27.361Z</time>
      </trkpt>
      <trkpt lat="57.08984" lon="24.44521">
        <ele>8.791542</ele>
        <time>2020-10-08T10:38:35.457Z</time>
      </trkpt>
      <trkpt lat="57.0898" lon="24.44464">
        <ele>8.343667</ele>
        <time>2020-10-08T10:38:40.926Z</time>
      </trkpt>
      <trkpt lat="57.08945" lon="24.44132">
        <ele>6.183595</ele>
        <time>2020-10-08T10:39:15.892Z</time>
      </trkpt>
      <trkpt lat="57.08926" lon="24.43975">
        <ele>5.808561</ele>
        <time>2020-10-08T10:39:34.581Z</time>
      </trkpt>
      <trkpt lat="57.08917" lon="24.43934">
        <ele>5.704319</ele>
        <time>2020-10-08T10:39:39.898Z</time>
      </trkpt>
      <trkpt lat="57.08885" lon="24.43851">
        <ele>5.823276</ele>
        <time>2020-10-08T10:39:52.256Z</time>
      </trkpt>
      <trkpt lat="57.0871" lon="24.43543">
        <ele>8.537555</ele>
        <time>2020-10-08T10:40:54.204Z</time>
      </trkpt>
      <trkpt lat="57.08575" lon="24.43301">
        <ele>13.442451</ele>
        <time>2020-10-08T10:41:59.693Z</time>
      </trkpt>
      <trkpt lat="57.08493" lon="24.43212">
        <ele>16.261243</ele>
        <time>2020-10-08T10:42:33.666Z</time>
      </trkpt>
      <trkpt lat="57.08477" lon="24.43169">
        <ele>16.868718</ele>
        <time>2020-10-08T10:42:43.219Z</time>
      </trkpt>
      <trkpt lat="57.08468" lon="24.43112">
        <ele>17.549074</ele>
        <time>2020-10-08T10:42:53.572Z</time>
      </trkpt>
      <trkpt lat="57.08467" lon="24.42737">
        <ele>21.039196</ele>
        <time>2020-10-08T10:43:51.103Z</time>
      </trkpt>
      <trkpt lat="57.08457" lon="24.4252">
        <ele>22.512871</ele>
        <time>2020-10-08T10:44:22.493Z</time>
      </trkpt>
      <trkpt lat="57.08499" lon="24.42348">
        <ele>23.663395</ele>
        <time>2020-10-08T10:44:50.477Z</time>
      </trkpt>
      <trkpt lat="57.08464" lon="24.42075">
        <ele>24.77934</ele>
        <time>2020-10-08T10:45:30.638Z</time>
      </trkpt>
      <trkpt lat="57.08366" lon="24.41833">
        <ele>24.612192</ele>
        <time>2020-10-08T10:46:06.018Z</time>
      </trkpt>
      <trkpt lat="57.08346" lon="24.41299">
        <ele>22.415172</ele>
        <time>2020-10-08T10:47:02.326Z</time>
      </trkpt>
      <trkpt lat="57.08504" lon="24.40602">
        <ele>22.511986</ele>
        <time>2020-10-08T10:48:36.717Z</time>
      </trkpt>
      <trkpt lat="57.08511" lon="24.40308">
        <ele>22.345629</ele>
        <time>2020-10-08T10:49:11.082Z</time>
      </trkpt>
      <trkpt lat="57.08547" lon="24.40104">
        <ele>22.132881</ele>
        <time>2020-10-08T10:49:36.208Z</time>
      </trkpt>
      <trkpt lat="57.08552" lon="24.39996">
        <ele>21.997409</ele>
        <time>2020-10-08T10:49:49.464Z</time>
      </trkpt>
      <trkpt lat="57.08501" lon="24.39758">
        <ele>21.435362</ele>
        <time>2020-10-08T10:50:19.483Z</time>
      </trkpt>
      <trkpt lat="57.0846" lon="24.39417">
        <ele>18.108067</ele>
        <time>2020-10-08T10:50:54.085Z</time>
      </trkpt>
      <trkpt lat="57.08415" lon="24.3922">
        <ele>14.296196</ele>
        <time>2020-10-08T10:51:12.714Z</time>
      </trkpt>
      <trkpt lat="57.08341" lon="24.39016">
        <ele>10.237356</ele>
        <time>2020-10-08T10:51:33.758Z</time>
      </trkpt>
      <trkpt lat="57.08278" lon="24.38861">
        <ele>7.686219</ele>
        <time>2020-10-08T10:51:52.075Z</time>
      </trkpt>
      <trkpt lat="57.08223" lon="24.38775">
        <ele>7.257446</ele>
        <time>2020-10-08T10:52:06.866Z</time>
      </trkpt>
      <trkpt lat="57.08165" lon="24.38605">
        <ele>6.657448</ele>
        <time>2020-10-08T10:52:31.439Z</time>
      </trkpt>
      <trkpt lat="57.08159" lon="24.38574">
        <ele>6.585981</ele>
        <time>2020-10-08T10:52:35.638Z</time>
      </trkpt>
      <trkpt lat="57.08163" lon="24.38548">
        <ele>6.529472</ele>
        <time>2020-10-08T10:52:38.608Z</time>
      </trkpt>
      <trkpt lat="57.08178" lon="24.385">
        <ele>6.409818</ele>
        <time>2020-10-08T10:52:45.304Z</time>
      </trkpt>
      <trkpt lat="57.08188" lon="24.38469">
        <ele>6.332178</ele>
        <time>2020-10-08T10:52:49.588Z</time>
      </trkpt>
      <trkpt lat="57.08191" lon="24.38434">
        <ele>6.256937</ele>
        <time>2020-10-08T10:52:53.452Z</time>
      </trkpt>
      <trkpt lat="57.08216" lon="24.3807">
        <ele>4.668066</ele>
        <time>2020-10-08T10:53:32.094Z</time>
      </trkpt>
      <trkpt lat="57.08216" lon="24.38045">
        <ele>4.54322</ele>
        <time>2020-10-08T10:53:34.593Z</time>
      </trkpt>
      <trkpt lat="57.08212" lon="24.38027">
        <ele>4.444258</ele>
        <time>2020-10-08T10:53:36.702Z</time>
      </trkpt>
      <trkpt lat="57.082" lon="24.37998">
        <ele>4.308121</ele>
        <time>2020-10-08T10:53:40.636Z</time>
      </trkpt>
      <trkpt lat="57.08113" lon="24.37824">
        <ele>3.689206</ele>
        <time>2020-10-08T10:54:06.902Z</time>
      </trkpt>
      <trkpt lat="57.08046" lon="24.37686">
        <ele>3.534178</ele>
        <time>2020-10-08T10:54:29.072Z</time>
      </trkpt>
      <trkpt lat="57.07991" lon="24.3756">
        <ele>3.590627</ele>
        <time>2020-10-08T10:54:49.209Z</time>
      </trkpt>
      <trkpt lat="57.0796" lon="24.37376">
        <ele>4.038665</ele>
        <time>2020-10-08T10:55:13.872Z</time>
      </trkpt>
      <trkpt lat="57.07955" lon="24.37305">
        <ele>4.265728</ele>
        <time>2020-10-08T10:55:23.618Z</time>
      </trkpt>
      <trkpt lat="57.07954" lon="24.37078">
        <ele>5.091612</ele>
        <time>2020-10-08T10:55:54.966Z</time>
      </trkpt>
      <trkpt lat="57.07957" lon="24.37067">
        <ele>5.143513</ele>
        <time>2020-10-08T10:55:56.979Z</time>
      </trkpt>
      <trkpt lat="57.07963" lon="24.37055">
        <ele>5.213521</ele>
        <time>2020-10-08T10:55:59.218Z</time>
      </trkpt>
      <trkpt lat="57.08048" lon="24.36954">
        <ele>6.001844</ele>
        <time>2020-10-08T10:56:25.090Z</time>
      </trkpt>
      <trkpt lat="57.0819" lon="24.36707">
        <ele>6.905264</ele>
        <time>2020-10-08T10:57:11.843Z</time>
      </trkpt>
      <trkpt lat="57.08228" lon="24.36711">
        <ele>7.010198</ele>
        <time>2020-10-08T10:57:21.080Z</time>
      </trkpt>
      <trkpt lat="57.08247" lon="24.36698">
        <ele>7.06467</ele>
        <time>2020-10-08T10:57:25.840Z</time>
      </trkpt>
      <trkpt lat="57.0828" lon="24.36658">
        <ele>7.174928</ele>
        <time>2020-10-08T10:57:35.449Z</time>
      </trkpt>
      <trkpt lat="57.08301" lon="24.36608">
        <ele>7.267777</ele>
        <time>2020-10-08T10:57:43.423Z</time>
      </trkpt>
      <trkpt lat="57.08334" lon="24.36407">
        <ele>7.111557</ele>
        <time>2020-10-08T10:58:09.057Z</time>
      </trkpt>
      <trkpt lat="57.08387" lon="24.361">
        <ele>6.424214</ele>
        <time>2020-10-08T10:58:44.462Z</time>
      </trkpt>
      <trkpt lat="57.08411" lon="24.35962">
        <ele>6.06932</ele>
        <time>2020-10-08T10:59:00.476Z</time>
      </trkpt>
      <trkpt lat="57.08422" lon="24.35799">
        <ele>6.18861</ele>
        <time>2020-10-08T10:59:20.116Z</time>
      </trkpt>
      <trkpt lat="57.08431" lon="24.35518">
        <ele>7.125743</ele>
        <time>2020-10-08T10:59:58.849Z</time>
      </trkpt>
      <trkpt lat="57.08391" lon="24.35114">
        <ele>10.295949</ele>
        <time>2020-10-08T11:01:00.770Z</time>
      </trkpt>
      <trkpt lat="57.08393" lon="24.35075">
        <ele>10.671817</ele>
        <time>2020-10-08T11:01:07.042Z</time>
      </trkpt>
      <trkpt lat="57.08397" lon="24.3506">
        <ele>10.835722</ele>
        <time>2020-10-08T11:01:09.806Z</time>
      </trkpt>
      <trkpt lat="57.08412" lon="24.35041">
        <ele>11.162487</ele>
        <time>2020-10-08T11:01:15.306Z</time>
      </trkpt>
      <trkpt lat="57.08441" lon="24.35029">
        <ele>11.699116</ele>
        <time>2020-10-08T11:01:24.524Z</time>
      </trkpt>
      <trkpt lat="57.08524" lon="24.34975">
        <ele>13.421175</ele>
        <time>2020-10-08T11:01:52.471Z</time>
      </trkpt>
      <trkpt lat="57.08631" lon="24.34836">
        <ele>15.727817</ele>
        <time>2020-10-08T11:02:32.596Z</time>
      </trkpt>
      <trkpt lat="57.0868" lon="24.34814">
        <ele>15.29432</ele>
        <time>2020-10-08T11:02:44.902Z</time>
      </trkpt>
      <trkpt lat="57.08717" lon="24.34801">
        <ele>14.968108</ele>
        <time>2020-10-08T11:02:52.789Z</time>
      </trkpt>
      <trkpt lat="57.08723" lon="24.34798">
        <ele>14.913089</ele>
        <time>2020-10-08T11:02:54.005Z</time>
      </trkpt>
      <trkpt lat="57.08538" lon="24.34364">
        <ele>8.589551</ele>
        <time>2020-10-08T11:03:44.006Z</time>
      </trkpt>
      <trkpt lat="57.08434" lon="24.34114">
        <ele>6.65435</ele>
        <time>2020-10-08T11:04:17.642Z</time>
      </trkpt>
      <trkpt lat="57.08373" lon="24.34015">
        <ele>6.515591</ele>
        <time>2020-10-08T11:04:36.397Z</time>
      </trkpt>
      <trkpt lat="57.08363" lon="24.34002">
        <ele>6.493926</ele>
        <time>2020-10-08T11:04:39.363Z</time>
      </trkpt>
      <trkpt lat="57.08307" lon="24.33932">
        <ele>6.335011</ele>
        <time>2020-10-08T11:04:54.113Z</time>
      </trkpt>
      <trkpt lat="57.08229" lon="24.33871">
        <ele>6.007792</ele>
        <time>2020-10-08T11:05:11.330Z</time>
      </trkpt>
      <trkpt lat="57.08175" lon="24.33841">
        <ele>5.787294</ele>
        <time>2020-10-08T11:05:23.028Z</time>
      </trkpt>
      <trkpt lat="57.08148" lon="24.33823">
        <ele>5.687353</ele>
        <time>2020-10-08T11:05:29.608Z</time>
      </trkpt>
      <trkpt lat="57.08142" lon="24.33819">
        <ele>5.672647</ele>
        <time>2020-10-08T11:05:30.735Z</time>
      </trkpt>
      <trkpt lat="57.08025" lon="24.33747">
        <ele>5.366324</ele>
        <time>2020-10-08T11:05:56.572Z</time>
      </trkpt>
      <trkpt lat="57.08023" lon="24.33745">
        <ele>5.3603</ele>
        <time>2020-10-08T11:05:57.091Z</time>
      </trkpt>
      <trkpt lat="57.07994" lon="24.33727">
        <ele>5.284402</ele>
        <time>2020-10-08T11:06:03.667Z</time>
      </trkpt>
      <trkpt lat="57.07985" lon="24.33695">
        <ele>5.282052</ele>
        <time>2020-10-08T11:06:08.237Z</time>
      </trkpt>
      <trkpt lat="57.0798" lon="24.33517">
        <ele>5.410013</ele>
        <time>2020-10-08T11:06:30.951Z</time>
      </trkpt>
      <trkpt lat="57.07979" lon="24.33496">
        <ele>5.425201</ele>
        <time>2020-10-08T11:06:33.585Z</time>
      </trkpt>
      <trkpt lat="57.0797" lon="24.33497">
        <ele>5.437648</ele>
        <time>2020-10-08T11:06:36.355Z</time>
      </trkpt>
      <trkpt lat="57.07967" lon="24.33336">
        <ele>5.50992</ele>
        <time>2020-10-08T11:06:56.738Z</time>
      </trkpt>
      <trkpt lat="57.07961" lon="24.33134">
        <ele>5.527684</ele>
        <time>2020-10-08T11:07:22.756Z</time>
      </trkpt>
      <trkpt lat="57.07962" lon="24.33113">
        <ele>5.529574</ele>
        <time>2020-10-08T11:07:25.413Z</time>
      </trkpt>
      <trkpt lat="57.07965" lon="24.33095">
        <ele>5.531188</ele>
        <time>2020-10-08T11:07:27.483Z</time>
      </trkpt>
      <trkpt lat="57.07959" lon="24.33042">
        <ele>5.594683</ele>
        <time>2020-10-08T11:07:33.679Z</time>
      </trkpt>
      <trkpt lat="57.0794" lon="24.33001">
        <ele>5.694085</ele>
        <time>2020-10-08T11:07:40.167Z</time>
      </trkpt>
      <trkpt lat="57.07854" lon="24.32855">
        <ele>6.08359</ele>
        <time>2020-10-08T11:08:08.246Z</time>
      </trkpt>
      <trkpt lat="57.07847" lon="24.32838">
        <ele>6.122633</ele>
        <time>2020-10-08T11:08:12.388Z</time>
      </trkpt>
      <trkpt lat="57.07841" lon="24.32818">
        <ele>6.192041</ele>
        <time>2020-10-08T11:08:15.961Z</time>
      </trkpt>
      <trkpt lat="57.07834" lon="24.32802">
        <ele>6.268235</ele>
        <time>2020-10-08T11:08:19.870Z</time>
      </trkpt>
      <trkpt lat="57.07828" lon="24.32791">
        <ele>6.324475</ele>
        <time>2020-10-08T11:08:22.980Z</time>
      </trkpt>
      <trkpt lat="57.07798" lon="24.32744">
        <ele>6.580273</ele>
        <time>2020-10-08T11:08:35.870Z</time>
      </trkpt>
      <trkpt lat="57.07783" lon="24.3274">
        <ele>6.675677</ele>
        <time>2020-10-08T11:08:40.241Z</time>
      </trkpt>
      <trkpt lat="57.07779" lon="24.32743">
        <ele>6.705582</ele>
        <time>2020-10-08T11:08:41.919Z</time>
      </trkpt>
      <trkpt lat="57.07774" lon="24.32731">
        <ele>6.763898</ele>
        <time>2020-10-08T11:08:44.974Z</time>
      </trkpt>
      <trkpt lat="57.07767" lon="24.32717">
        <ele>6.82828</ele>
        <time>2020-10-08T11:08:48.405Z</time>
      </trkpt>
      <trkpt lat="57.07772" lon="24.32705">
        <ele>6.878859</ele>
        <time>2020-10-08T11:08:50.714Z</time>
      </trkpt>
      <trkpt lat="57.07773" lon="24.32666">
        <ele>7.018236</ele>
        <time>2020-10-08T11:08:58.017Z</time>
      </trkpt>
      <trkpt lat="57.07771" lon="24.32655">
        <ele>7.061392</ele>
        <time>2020-10-08T11:09:00.164Z</time>
      </trkpt>
      <trkpt lat="57.07758" lon="24.32608">
        <ele>7.245564</ele>
        <time>2020-10-08T11:09:08.922Z</time>
      </trkpt>
      <trkpt lat="57.07707" lon="24.3243">
        <ele>6.89977</ele>
        <time>2020-10-08T11:09:39.920Z</time>
      </trkpt>
      <trkpt lat="57.077" lon="24.32408">
        <ele>6.842585</ele>
        <time>2020-10-08T11:09:43.488Z</time>
      </trkpt>
      <trkpt lat="57.07695" lon="24.32398">
        <ele>6.810895</ele>
        <time>2020-10-08T11:09:45.577Z</time>
      </trkpt>
      <trkpt lat="57.07688" lon="24.32393">
        <ele>6.782763</ele>
        <time>2020-10-08T11:09:47.400Z</time>
      </trkpt>
      <trkpt lat="57.07679" lon="24.32395">
        <ele>6.7459</ele>
        <time>2020-10-08T11:09:49.830Z</time>
      </trkpt>
      <trkpt lat="57.07677" lon="24.32381">
        <ele>6.714376</ele>
        <time>2020-10-08T11:09:51.823Z</time>
      </trkpt>
      <trkpt lat="57.07674" lon="24.32369">
        <ele>6.686269</ele>
        <time>2020-10-08T11:09:53.584Z</time>
      </trkpt>
      <trkpt lat="57.07673" lon="24.3236">
        <ele>6.665279</ele>
        <time>2020-10-08T11:09:55.005Z</time>
      </trkpt>
      <trkpt lat="57.07683" lon="24.32348">
        <ele>6.61548</ele>
        <time>2020-10-08T11:09:58.346Z</time>
      </trkpt>
      <trkpt lat="57.07683" lon="24.32337">
        <ele>6.590281</ele>
        <time>2020-10-08T11:09:59.952Z</time>
      </trkpt>
      <trkpt lat="57.0768" lon="24.32328">
        <ele>6.570215</ele>
        <time>2020-10-08T11:10:01.422Z</time>
      </trkpt>
      <trkpt lat="57.07658" lon="24.32252">
        <ele>6.485452</ele>
        <time>2020-10-08T11:10:13.988Z</time>
      </trkpt>
      <trkpt lat="57.07652" lon="24.32228">
        <ele>6.458642</ele>
        <time>2020-10-08T11:10:18.445Z</time>
      </trkpt>
      <trkpt lat="57.07643" lon="24.32203">
        <ele>6.428809</ele>
        <time>2020-10-08T11:10:22.721Z</time>
      </trkpt>
      <trkpt lat="57.07636" lon="24.3218">
        <ele>6.402451</ele>
        <time>2020-10-08T11:10:27.096Z</time>
      </trkpt>
      <trkpt lat="57.07616" lon="24.3211">
        <ele>6.323822</ele>
        <time>2020-10-08T11:10:39.916Z</time>
      </trkpt>
      <trkpt lat="57.07607" lon="24.32073">
        <ele>6.283301</ele>
        <time>2020-10-08T11:10:46.211Z</time>
      </trkpt>
      <trkpt lat="57.07606" lon="24.32065">
        <ele>6.27479</ele>
        <time>2020-10-08T11:10:47.788Z</time>
      </trkpt>
      <trkpt lat="57.07605" lon="24.32058">
        <ele>6.267427</ele>
        <time>2020-10-08T11:10:49.135Z</time>
      </trkpt>
      <trkpt lat="57.0759" lon="24.32008">
        <ele>6.28118</ele>
        <time>2020-10-08T11:10:58.233Z</time>
      </trkpt>
      <trkpt lat="57.07589" lon="24.32006">
        <ele>6.284478</ele>
        <time>2020-10-08T11:10:58.842Z</time>
      </trkpt>
      <trkpt lat="57.07582" lon="24.31996">
        <ele>6.303981</ele>
        <time>2020-10-08T11:11:01.652Z</time>
      </trkpt>
      <trkpt lat="57.07575" lon="24.31992">
        <ele>6.319807</ele>
        <time>2020-10-08T11:11:03.698Z</time>
      </trkpt>
      <trkpt lat="57.07567" lon="24.3199">
        <ele>6.336464</ele>
        <time>2020-10-08T11:11:05.937Z</time>
      </trkpt>
      <trkpt lat="57.07547" lon="24.31995">
        <ele>6.380153</ele>
        <time>2020-10-08T11:11:10.962Z</time>
      </trkpt>
      <trkpt lat="57.07455" lon="24.32026">
        <ele>6.58472</ele>
        <time>2020-10-08T11:11:33.897Z</time>
      </trkpt>
      <trkpt lat="57.07404" lon="24.32044">
        <ele>6.58465</ele>
        <time>2020-10-08T11:11:46.135Z</time>
      </trkpt>
      <trkpt lat="57.07285" lon="24.32085">
        <ele>6.378914</ele>
        <time>2020-10-08T11:12:12.906Z</time>
      </trkpt>
      <trkpt lat="57.07282" lon="24.32086">
        <ele>6.372862</ele>
        <time>2020-10-08T11:12:15.398Z</time>
      </trkpt>
      <trkpt lat="57.07279" lon="24.32059">
        <ele>6.347882</ele>
        <time>2020-10-08T11:12:18.735Z</time>
      </trkpt>
      <trkpt lat="57.07267" lon="24.32064">
        <ele>6.32605</ele>
        <time>2020-10-08T11:12:21.375Z</time>
      </trkpt>
      <trkpt lat="57.07212" lon="24.32082">
        <ele>6.217805</ele>
        <time>2020-10-08T11:12:33.377Z</time>
      </trkpt>
      <trkpt lat="57.07182" lon="24.32092">
        <ele>6.158612</ele>
        <time>2020-10-08T11:12:39.906Z</time>
      </trkpt>
      <trkpt lat="57.07176" lon="24.32093">
        <ele>6.147495</ele>
        <time>2020-10-08T11:12:41.178Z</time>
      </trkpt>
      <trkpt lat="57.07117" lon="24.32116">
        <ele>6.029666</ele>
        <time>2020-10-08T11:12:54.229Z</time>
      </trkpt>
      <trkpt lat="57.07107" lon="24.3212">
        <ele>6.01116</ele>
        <time>2020-10-08T11:12:56.290Z</time>
      </trkpt>
      <trkpt lat="57.07038" lon="24.32142">
        <ele>5.931834</ele>
        <time>2020-10-08T11:13:11.599Z</time>
      </trkpt>
      <trkpt lat="57.06969" lon="24.32166">
        <ele>5.870309</ele>
        <time>2020-10-08T11:13:27.212Z</time>
      </trkpt>
      <trkpt lat="57.06911" lon="24.32194">
        <ele>5.815841</ele>
        <time>2020-10-08T11:13:40.465Z</time>
      </trkpt>
      <trkpt lat="57.06895" lon="24.32199">
        <ele>5.796225</ele>
        <time>2020-10-08T11:13:43.785Z</time>
      </trkpt>
      <trkpt lat="57.06879" lon="24.32201">
        <ele>5.774952</ele>
        <time>2020-10-08T11:13:47.520Z</time>
      </trkpt>
      <trkpt lat="57.06866" lon="24.32203">
        <ele>5.759102</ele>
        <time>2020-10-08T11:13:50.244Z</time>
      </trkpt>
      <trkpt lat="57.06863" lon="24.32199">
        <ele>5.754248</ele>
        <time>2020-10-08T11:13:51.049Z</time>
      </trkpt>
      <trkpt lat="57.06862" lon="24.32198">
        <ele>5.752634</ele>
        <time>2020-10-08T11:13:51.319Z</time>
      </trkpt>
      <trkpt lat="57.06858" lon="24.32197">
        <ele>5.74769</ele>
        <time>2020-10-08T11:13:52.158Z</time>
      </trkpt>
      <trkpt lat="57.06853" lon="24.32201">
        <ele>5.741564</ele>
        <time>2020-10-08T11:13:53.223Z</time>
      </trkpt>
      <trkpt lat="57.0685" lon="24.32207">
        <ele>5.735993</ele>
        <time>2020-10-08T11:13:54.236Z</time>
      </trkpt>
      <trkpt lat="57.06839" lon="24.32211">
        <ele>5.72162</ele>
        <time>2020-10-08T11:13:56.762Z</time>
      </trkpt>
      <trkpt lat="57.06839" lon="24.32216">
        <ele>5.718516</ele>
        <time>2020-10-08T11:13:58.465Z</time>
      </trkpt>
      <trkpt lat="57.0684" lon="24.32221">
        <ele>5.714853</ele>
        <time>2020-10-08T11:14:00.481Z</time>
      </trkpt>
      <trkpt lat="57.0684" lon="24.32224">
        <ele>5.712502</ele>
        <time>2020-10-08T11:14:01.793Z</time>
      </trkpt>
      <trkpt lat="57.0684" lon="24.32228">
        <ele>5.709794</ele>
        <time>2020-10-08T11:14:03.275Z</time>
      </trkpt>
      <trkpt lat="57.06841" lon="24.32236">
        <ele>5.704682</ele>
        <time>2020-10-08T11:14:06.105Z</time>
      </trkpt>
      <trkpt lat="57.06829" lon="24.3224">
        <ele>5.689457</ele>
        <time>2020-10-08T11:14:09.673Z</time>
      </trkpt>
      <trkpt lat="57.06692" lon="24.32293">
        <ele>5.799763</ele>
        <time>2020-10-08T11:14:40.178Z</time>
      </trkpt>
      <trkpt lat="57.06654" lon="24.32305">
        <ele>5.922439</ele>
        <time>2020-10-08T11:14:48.504Z</time>
      </trkpt>
      <trkpt lat="57.06494" lon="24.32357">
        <ele>7.484906</ele>
        <time>2020-10-08T11:15:30.264Z</time>
      </trkpt>
      <trkpt lat="57.06477" lon="24.32371">
        <ele>7.77209</ele>
        <time>2020-10-08T11:15:36.428Z</time>
      </trkpt>
      <trkpt lat="57.06423" lon="24.32388">
        <ele>8.60942</ele>
        <time>2020-10-08T11:15:52.421Z</time>
      </trkpt>
      <trkpt lat="57.0639" lon="24.32389">
        <ele>9.220191</ele>
        <time>2020-10-08T11:16:02.489Z</time>
      </trkpt>
      <trkpt lat="57.06382" lon="24.32388">
        <ele>9.414822</ele>
        <time>2020-10-08T11:16:05.900Z</time>
      </trkpt>
      <trkpt lat="57.06377" lon="24.32385">
        <ele>9.543608</ele>
        <time>2020-10-08T11:16:07.586Z</time>
      </trkpt>
      <trkpt lat="57.06368" lon="24.32377">
        <ele>9.786584</ele>
        <time>2020-10-08T11:16:10.569Z</time>
      </trkpt>
      <trkpt lat="57.06361" lon="24.32373">
        <ele>9.94903</ele>
        <time>2020-10-08T11:16:12.442Z</time>
      </trkpt>
      <trkpt lat="57.06358" lon="24.32373">
        <ele>10.035375</ele>
        <time>2020-10-08T11:16:13.434Z</time>
      </trkpt>
      <trkpt lat="57.06348" lon="24.32374">
        <ele>10.275351</ele>
        <time>2020-10-08T11:16:17.453Z</time>
      </trkpt>
      <trkpt lat="57.06343" lon="24.32374">
        <ele>10.3882</ele>
        <time>2020-10-08T11:16:19.017Z</time>
      </trkpt>
      <trkpt lat="57.06309" lon="24.32377">
        <ele>11.199442</ele>
        <time>2020-10-08T11:16:30.242Z</time>
      </trkpt>
      <trkpt lat="57.06232" lon="24.32365">
        <ele>13.061916</ele>
        <time>2020-10-08T11:16:56.177Z</time>
      </trkpt>
      <trkpt lat="57.06155" lon="24.32343">
        <ele>14.532865</ele>
        <time>2020-10-08T11:17:20.052Z</time>
      </trkpt>
      <trkpt lat="57.0615" lon="24.32343">
        <ele>14.622426</ele>
        <time>2020-10-08T11:17:23.461Z</time>
      </trkpt>
      <trkpt lat="57.06143" lon="24.32341">
        <ele>14.740124</ele>
        <time>2020-10-08T11:17:27.961Z</time>
      </trkpt>
      <trkpt lat="57.0612" lon="24.32321">
        <ele>15.214886</ele>
        <time>2020-10-08T11:17:35.988Z</time>
      </trkpt>
      <trkpt lat="57.06004" lon="24.32272">
        <ele>16.926942</ele>
        <time>2020-10-08T11:18:11.192Z</time>
      </trkpt>
      <trkpt lat="57.05989" lon="24.3227">
        <ele>17.058283</ele>
        <time>2020-10-08T11:18:15.618Z</time>
      </trkpt>
      <trkpt lat="57.05984" lon="24.32268">
        <ele>17.097969</ele>
        <time>2020-10-08T11:18:17.125Z</time>
      </trkpt>
      <trkpt lat="57.0598" lon="24.32266">
        <ele>17.134102</ele>
        <time>2020-10-08T11:18:18.544Z</time>
      </trkpt>
      <trkpt lat="57.05945" lon="24.32252">
        <ele>17.443321</ele>
        <time>2020-10-08T11:18:27.801Z</time>
      </trkpt>
      <trkpt lat="57.05927" lon="24.32242">
        <ele>17.604932</ele>
        <time>2020-10-08T11:18:32.551Z</time>
      </trkpt>
      <trkpt lat="57.05919" lon="24.32238">
        <ele>17.678978</ele>
        <time>2020-10-08T11:18:34.821Z</time>
      </trkpt>
      <trkpt lat="57.05868" lon="24.32212">
        <ele>18.07328</ele>
        <time>2020-10-08T11:18:47.631Z</time>
      </trkpt>
      <trkpt lat="57.05463" lon="24.32041">
        <ele>17.859019</ele>
        <time>2020-10-08T11:20:23.182Z</time>
      </trkpt>
      <trkpt lat="57.05459" lon="24.32044">
        <ele>17.846573</ele>
        <time>2020-10-08T11:20:24.267Z</time>
      </trkpt>
      <trkpt lat="57.05455" lon="24.32041">
        <ele>17.83605</ele>
        <time>2020-10-08T11:20:25.132Z</time>
      </trkpt>
      <trkpt lat="57.05401" lon="24.3202">
        <ele>17.68663</ele>
        <time>2020-10-08T11:20:36.817Z</time>
      </trkpt>
      <trkpt lat="57.05386" lon="24.32013">
        <ele>17.644298</ele>
        <time>2020-10-08T11:20:40.072Z</time>
      </trkpt>
      <trkpt lat="57.05379" lon="24.3201">
        <ele>17.623264</ele>
        <time>2020-10-08T11:20:41.675Z</time>
      </trkpt>
      <trkpt lat="57.05312" lon="24.31984">
        <ele>17.124673</ele>
        <time>2020-10-08T11:20:55.745Z</time>
      </trkpt>
      <trkpt lat="57.05268" lon="24.31981">
        <ele>16.631959</ele>
        <time>2020-10-08T11:21:04.691Z</time>
      </trkpt>
      <trkpt lat="57.05239" lon="24.3197">
        <ele>16.309944</ele>
        <time>2020-10-08T11:21:10.206Z</time>
      </trkpt>
      <trkpt lat="57.05246" lon="24.31928">
        <ele>16.046925</ele>
        <time>2020-10-08T11:21:14.638Z</time>
      </trkpt>
      <trkpt lat="57.0515" lon="24.31888">
        <ele>14.602172</ele>
        <time>2020-10-08T11:21:31.973Z</time>
      </trkpt>
      <trkpt lat="57.0497" lon="24.31808">
        <ele>11.977564</ele>
        <time>2020-10-08T11:22:05.340Z</time>
      </trkpt>
      <trkpt lat="57.04863" lon="24.31759">
        <ele>11.281925</ele>
        <time>2020-10-08T11:22:28.611Z</time>
      </trkpt>
      <trkpt lat="57.04808" lon="24.31739">
        <ele>11.230974</ele>
        <time>2020-10-08T11:22:42.654Z</time>
      </trkpt>
      <trkpt lat="57.04749" lon="24.31713">
        <ele>11.263842</ele>
        <time>2020-10-08T11:22:57.470Z</time>
      </trkpt>
      <trkpt lat="57.04739" lon="24.31708">
        <ele>11.26973</ele>
        <time>2020-10-08T11:22:59.833Z</time>
      </trkpt>
      <trkpt lat="57.04606" lon="24.3165">
        <ele>10.691409</ele>
        <time>2020-10-08T11:23:27.562Z</time>
      </trkpt>
      <trkpt lat="57.04587" lon="24.3164">
        <ele>10.52124</ele>
        <time>2020-10-08T11:23:31.495Z</time>
      </trkpt>
      <trkpt lat="57.04575" lon="24.31634">
        <ele>10.412812</ele>
        <time>2020-10-08T11:23:34.006Z</time>
      </trkpt>
      <trkpt lat="57.04565" lon="24.3163">
        <ele>10.326442</ele>
        <time>2020-10-08T11:23:35.963Z</time>
      </trkpt>
      <trkpt lat="57.04516" lon="24.31613">
        <ele>9.899846</ele>
        <time>2020-10-08T11:23:45.443Z</time>
      </trkpt>
      <trkpt lat="57.04498" lon="24.31606">
        <ele>9.742146</ele>
        <time>2020-10-08T11:23:48.792Z</time>
      </trkpt>
      <trkpt lat="57.04493" lon="24.31604">
        <ele>9.679249</ele>
        <time>2020-10-08T11:23:49.882Z</time>
      </trkpt>
      <trkpt lat="57.04444" lon="24.31583">
        <ele>9.126607</ele>
        <time>2020-10-08T11:23:59.730Z</time>
      </trkpt>
      <trkpt lat="57.04393" lon="24.31564">
        <ele>8.554081</ele>
        <time>2020-10-08T11:24:09.694Z</time>
      </trkpt>
      <trkpt lat="57.04364" lon="24.31552">
        <ele>8.225439</ele>
        <time>2020-10-08T11:24:15.404Z</time>
      </trkpt>
      <trkpt lat="57.04301" lon="24.31537">
        <ele>7.718147</ele>
        <time>2020-10-08T11:24:27.340Z</time>
      </trkpt>
      <trkpt lat="57.04273" lon="24.31534">
        <ele>7.628616</ele>
        <time>2020-10-08T11:24:32.322Z</time>
      </trkpt>
      <trkpt lat="57.04249" lon="24.31534">
        <ele>7.550086</ele>
        <time>2020-10-08T11:24:37.123Z</time>
      </trkpt>
      <trkpt lat="57.04203" lon="24.31534">
        <ele>7.398914</ele>
        <time>2020-10-08T11:24:47.392Z</time>
      </trkpt>
      <trkpt lat="57.04127" lon="24.31536">
        <ele>7.417938</ele>
        <time>2020-10-08T11:25:05.578Z</time>
      </trkpt>
      <trkpt lat="57.04071" lon="24.3154">
        <ele>8.060713</ele>
        <time>2020-10-08T11:25:20.276Z</time>
      </trkpt>
      <trkpt lat="57.04068" lon="24.3154">
        <ele>8.088074</ele>
        <time>2020-10-08T11:25:20.912Z</time>
      </trkpt>
      <trkpt lat="57.04023" lon="24.31543">
        <ele>8.6055</ele>
        <time>2020-10-08T11:25:33.074Z</time>
      </trkpt>
      <trkpt lat="57.04014" lon="24.31544">
        <ele>8.709286</ele>
        <time>2020-10-08T11:25:35.885Z</time>
      </trkpt>
      <trkpt lat="57.0401" lon="24.31544">
        <ele>8.75036</ele>
        <time>2020-10-08T11:25:36.911Z</time>
      </trkpt>
      <trkpt lat="57.03981" lon="24.31547">
        <ele>9.078846</ele>
        <time>2020-10-08T11:25:45.222Z</time>
      </trkpt>
      <trkpt lat="57.03979" lon="24.31548">
        <ele>9.108618</ele>
        <time>2020-10-08T11:25:46.087Z</time>
      </trkpt>
      <trkpt lat="57.03934" lon="24.31556">
        <ele>9.525125</ele>
        <time>2020-10-08T11:25:59.301Z</time>
      </trkpt>
      <trkpt lat="57.03927" lon="24.31558">
        <ele>9.587846</ele>
        <time>2020-10-08T11:26:01.404Z</time>
      </trkpt>
      <trkpt lat="57.0389" lon="24.31568">
        <ele>9.907335</ele>
        <time>2020-10-08T11:26:11.400Z</time>
      </trkpt>
      <trkpt lat="57.03885" lon="24.31571">
        <ele>9.947727</ele>
        <time>2020-10-08T11:26:12.640Z</time>
      </trkpt>
      <trkpt lat="57.03834" lon="24.31594">
        <ele>10.401582</ele>
        <time>2020-10-08T11:26:26.082Z</time>
      </trkpt>
      <trkpt lat="57.0378" lon="24.31628">
        <ele>10.758428</ele>
        <time>2020-10-08T11:26:39.039Z</time>
      </trkpt>
      <trkpt lat="57.03739" lon="24.31658">
        <ele>10.649017</ele>
        <time>2020-10-08T11:26:48.598Z</time>
      </trkpt>
      <trkpt lat="57.03701" lon="24.31685">
        <ele>10.549161</ele>
        <time>2020-10-08T11:26:57.360Z</time>
      </trkpt>
      <trkpt lat="57.03689" lon="24.31694">
        <ele>10.517018</ele>
        <time>2020-10-08T11:27:00.101Z</time>
      </trkpt>
      <trkpt lat="57.03671" lon="24.31707">
        <ele>10.469249</ele>
        <time>2020-10-08T11:27:04.320Z</time>
      </trkpt>
      <trkpt lat="57.03664" lon="24.31712">
        <ele>10.451717</ele>
        <time>2020-10-08T11:27:05.845Z</time>
      </trkpt>
      <trkpt lat="57.0365" lon="24.31723">
        <ele>10.413072</ele>
        <time>2020-10-08T11:27:09.093Z</time>
      </trkpt>
      <trkpt lat="57.03625" lon="24.31741">
        <ele>10.348029</ele>
        <time>2020-10-08T11:27:14.557Z</time>
      </trkpt>
      <trkpt lat="57.03603" lon="24.31758">
        <ele>10.066525</ele>
        <time>2020-10-08T11:27:19.433Z</time>
      </trkpt>
      <trkpt lat="57.03584" lon="24.31772">
        <ele>9.808433</ele>
        <time>2020-10-08T11:27:23.300Z</time>
      </trkpt>
      <trkpt lat="57.03566" lon="24.31785">
        <ele>9.564741</ele>
        <time>2020-10-08T11:27:27.007Z</time>
      </trkpt>
      <trkpt lat="57.03505" lon="24.31831">
        <ele>8.730946</ele>
        <time>2020-10-08T11:27:38.905Z</time>
      </trkpt>
      <trkpt lat="57.03411" lon="24.319">
        <ele>8.049149</ele>
        <time>2020-10-08T11:27:57.909Z</time>
      </trkpt>
      <trkpt lat="57.03376" lon="24.31927">
        <ele>8.029563</ele>
        <time>2020-10-08T11:28:05.275Z</time>
      </trkpt>
      <trkpt lat="57.03372" lon="24.31929">
        <ele>8.027443</ele>
        <time>2020-10-08T11:28:06.074Z</time>
      </trkpt>
      <trkpt lat="57.0324" lon="24.32014">
        <ele>9.287718</ele>
        <time>2020-10-08T11:28:42.495Z</time>
      </trkpt>
      <trkpt lat="57.03176" lon="24.32043">
        <ele>10.990939</ele>
        <time>2020-10-08T11:29:05.895Z</time>
      </trkpt>
      <trkpt lat="57.03158" lon="24.3205">
        <ele>11.467923</ele>
        <time>2020-10-08T11:29:13.024Z</time>
      </trkpt>
      <trkpt lat="57.0311" lon="24.32069">
        <ele>12.731819</ele>
        <time>2020-10-08T11:29:29.880Z</time>
      </trkpt>
      <trkpt lat="57.0306" lon="24.32079">
        <ele>14.045316</ele>
        <time>2020-10-08T11:29:47.580Z</time>
      </trkpt>
      <trkpt lat="57.03002" lon="24.32085">
        <ele>15.596203</ele>
        <time>2020-10-08T11:30:07.772Z</time>
      </trkpt>
      <trkpt lat="57.03001" lon="24.3202">
        <ele>16.544206</ele>
        <time>2020-10-08T11:30:18.906Z</time>
      </trkpt>
      <trkpt lat="57.02967" lon="24.32019">
        <ele>17.396344</ele>
        <time>2020-10-08T11:30:28.928Z</time>
      </trkpt>
      <trkpt lat="57.0292" lon="24.32006">
        <ele>17.84094</ele>
        <time>2020-10-08T11:30:41.916Z</time>
      </trkpt>
      <trkpt lat="57.02867" lon="24.3199">
        <ele>18.342372</ele>
        <time>2020-10-08T11:30:56.141Z</time>
      </trkpt>
      <trkpt lat="57.0282" lon="24.31976">
        <ele>18.782843</ele>
        <time>2020-10-08T11:31:08.350Z</time>
      </trkpt>
      <trkpt lat="57.02765" lon="24.31952">
        <ele>18.655017</ele>
        <time>2020-10-08T11:31:21.872Z</time>
      </trkpt>
      <trkpt lat="57.02698" lon="24.31914">
        <ele>17.723372</ele>
        <time>2020-10-08T11:31:35.283Z</time>
      </trkpt>
      <trkpt lat="57.02663" lon="24.31895">
        <ele>17.232902</ele>
        <time>2020-10-08T11:31:41.818Z</time>
      </trkpt>
      <trkpt lat="57.02659" lon="24.31894">
        <ele>17.181731</ele>
        <time>2020-10-08T11:31:42.432Z</time>
      </trkpt>
      <trkpt lat="57.02649" lon="24.31895">
        <ele>17.04838</ele>
        <time>2020-10-08T11:31:44.110Z</time>
      </trkpt>
      <trkpt lat="57.02643" lon="24.319">
        <ele>16.963658</ele>
        <time>2020-10-08T11:31:45.222Z</time>
      </trkpt>
      <trkpt lat="57.02636" lon="24.31911">
        <ele>16.84437</ele>
        <time>2020-10-08T11:31:46.819Z</time>
      </trkpt>
      <trkpt lat="57.02628" lon="24.31911">
        <ele>16.728887</ele>
        <time>2020-10-08T11:31:48.514Z</time>
      </trkpt>
      <trkpt lat="57.02624" lon="24.31918">
        <ele>16.666461</ele>
        <time>2020-10-08T11:31:49.202Z</time>
      </trkpt>
      <trkpt lat="57.02614" lon="24.31926">
        <ele>16.43548</ele>
        <time>2020-10-08T11:31:51.165Z</time>
      </trkpt>
      <trkpt lat="57.02568" lon="24.31893">
        <ele>15.394422</ele>
        <time>2020-10-08T11:31:59.538Z</time>
      </trkpt>
      <trkpt lat="57.02471" lon="24.31815">
        <ele>13.164844</ele>
        <time>2020-10-08T11:32:17.724Z</time>
      </trkpt>
      <trkpt lat="57.02478" lon="24.31784">
        <ele>12.874928</ele>
        <time>2020-10-08T11:32:30.426Z</time>
      </trkpt>
      <trkpt lat="57.02474" lon="24.31782">
        <ele>12.898997</ele>
        <time>2020-10-08T11:32:31.402Z</time>
      </trkpt>
      <trkpt lat="57.02396" lon="24.31711">
        <ele>13.344792</ele>
        <time>2020-10-08T11:32:50.377Z</time>
      </trkpt>
      <trkpt lat="57.02332" lon="24.31651">
        <ele>13.710685</ele>
        <time>2020-10-08T11:33:10.961Z</time>
      </trkpt>
      <trkpt lat="57.02329" lon="24.31659">
        <ele>13.735825</ele>
        <time>2020-10-08T11:33:12.380Z</time>
      </trkpt>
      <trkpt lat="57.02325" lon="24.31656">
        <ele>13.761221</ele>
        <time>2020-10-08T11:33:14.279Z</time>
      </trkpt>
      <trkpt lat="57.02318" lon="24.31674">
        <ele>13.918456</ele>
        <time>2020-10-08T11:33:18.130Z</time>
      </trkpt>
      <trkpt lat="57.02313" lon="24.31675">
        <ele>14.006018</ele>
        <time>2020-10-08T11:33:19.746Z</time>
      </trkpt>
      <trkpt lat="57.02232" lon="24.31586">
        <ele>15.502228</ele>
        <time>2020-10-08T11:33:47.910Z</time>
      </trkpt>
      <trkpt lat="57.02228" lon="24.31575">
        <ele>15.619619</ele>
        <time>2020-10-08T11:33:50.453Z</time>
      </trkpt>
      <trkpt lat="57.02225" lon="24.31574">
        <ele>15.670767</ele>
        <time>2020-10-08T11:33:51.522Z</time>
      </trkpt>
      <trkpt lat="57.02219" lon="24.31569">
        <ele>15.772641</ele>
        <time>2020-10-08T11:33:53.064Z</time>
      </trkpt>
      <trkpt lat="57.02193" lon="24.31536">
        <ele>16.277426</ele>
        <time>2020-10-08T11:34:02.417Z</time>
      </trkpt>
      <trkpt lat="57.0215" lon="24.31484">
        <ele>16.483571</ele>
        <time>2020-10-08T11:34:14.442Z</time>
      </trkpt>
      <trkpt lat="57.021" lon="24.31427">
        <ele>16.172444</ele>
        <time>2020-10-08T11:34:27.743Z</time>
      </trkpt>
      <trkpt lat="57.02043" lon="24.31375">
        <ele>15.835381</ele>
        <time>2020-10-08T11:34:39.783Z</time>
      </trkpt>
      <trkpt lat="57.02029" lon="24.31359">
        <ele>15.747239</ele>
        <time>2020-10-08T11:34:42.752Z</time>
      </trkpt>
      <trkpt lat="57.01982" lon="24.31292">
        <ele>15.179571</ele>
        <time>2020-10-08T11:34:53.605Z</time>
      </trkpt>
      <trkpt lat="57.01949" lon="24.31251">
        <ele>14.758454</ele>
        <time>2020-10-08T11:35:01.085Z</time>
      </trkpt>
      <trkpt lat="57.01932" lon="24.31231">
        <ele>14.5398</ele>
        <time>2020-10-08T11:35:05.137Z</time>
      </trkpt>
      <trkpt lat="57.01891" lon="24.31189">
        <ele>14.04316</ele>
        <time>2020-10-08T11:35:14.388Z</time>
      </trkpt>
      <trkpt lat="57.01889" lon="24.31187">
        <ele>14.020842</ele>
        <time>2020-10-08T11:35:14.794Z</time>
      </trkpt>
      <trkpt lat="57.01849" lon="24.3115">
        <ele>13.726909</ele>
        <time>2020-10-08T11:35:23.929Z</time>
      </trkpt>
      <trkpt lat="57.01799" lon="24.31107">
        <ele>13.6046</ele>
        <time>2020-10-08T11:35:35.311Z</time>
      </trkpt>
      <trkpt lat="57.01774" lon="24.31085">
        <ele>13.542346</ele>
        <time>2020-10-08T11:35:41.083Z</time>
      </trkpt>
      <trkpt lat="57.01725" lon="24.3104">
        <ele>13.420026</ele>
        <time>2020-10-08T11:35:53.986Z</time>
      </trkpt>
      <trkpt lat="57.01718" lon="24.31033">
        <ele>13.400656</ele>
        <time>2020-10-08T11:35:55.610Z</time>
      </trkpt>
      <trkpt lat="57.01682" lon="24.30999">
        <ele>13.442048</ele>
        <time>2020-10-08T11:36:04.606Z</time>
      </trkpt>
      <trkpt lat="57.01671" lon="24.30997">
        <ele>13.470767</ele>
        <time>2020-10-08T11:36:07.979Z</time>
      </trkpt>
      <trkpt lat="57.01496" lon="24.30873">
        <ele>14.03567</ele>
        <time>2020-10-08T11:36:51.383Z</time>
      </trkpt>
      <trkpt lat="57.0138" lon="24.30821">
        <ele>14.595045</ele>
        <time>2020-10-08T11:37:20.276Z</time>
      </trkpt>
      <trkpt lat="57.01367" lon="24.30816">
        <ele>14.657125</ele>
        <time>2020-10-08T11:37:23.359Z</time>
      </trkpt>
      <trkpt lat="57.01311" lon="24.30796">
        <ele>15.291952</ele>
        <time>2020-10-08T11:37:38.304Z</time>
      </trkpt>
      <trkpt lat="57.01303" lon="24.30792">
        <ele>15.378106</ele>
        <time>2020-10-08T11:37:40.528Z</time>
      </trkpt>
      <trkpt lat="57.0126" lon="24.30756">
        <ele>15.902063</ele>
        <time>2020-10-08T11:37:53.046Z</time>
      </trkpt>
      <trkpt lat="57.01227" lon="24.30716">
        <ele>16.343839</ele>
        <time>2020-10-08T11:38:04.065Z</time>
      </trkpt>
      <trkpt lat="57.01199" lon="24.30666">
        <ele>16.756263</ele>
        <time>2020-10-08T11:38:15.422Z</time>
      </trkpt>
      <trkpt lat="57.01166" lon="24.30609">
        <ele>17.1567</ele>
        <time>2020-10-08T11:38:27.636Z</time>
      </trkpt>
      <trkpt lat="57.0112" lon="24.30538">
        <ele>17.691886</ele>
        <time>2020-10-08T11:38:42.933Z</time>
      </trkpt>
      <trkpt lat="57.01065" lon="24.30492">
        <ele>18.23322</ele>
        <time>2020-10-08T11:38:58.010Z</time>
      </trkpt>
      <trkpt lat="57.01042" lon="24.3048">
        <ele>18.354418</ele>
        <time>2020-10-08T11:39:03.604Z</time>
      </trkpt>
      <trkpt lat="57.00971" lon="24.30441">
        <ele>18.704487</ele>
        <time>2020-10-08T11:39:21.359Z</time>
      </trkpt>
      <trkpt lat="57.00936" lon="24.30413">
        <ele>18.887099</ele>
        <time>2020-10-08T11:39:30.770Z</time>
      </trkpt>
      <trkpt lat="57.00893" lon="24.30354">
        <ele>19.114967</ele>
        <time>2020-10-08T11:39:43.703Z</time>
      </trkpt>
      <trkpt lat="57.00866" lon="24.30293">
        <ele>19.163295</ele>
        <time>2020-10-08T11:39:53.913Z</time>
      </trkpt>
      <trkpt lat="57.00839" lon="24.30211">
        <ele>19.221909</ele>
        <time>2020-10-08T11:40:06.082Z</time>
      </trkpt>
      <trkpt lat="57.00755" lon="24.29948">
        <ele>18.899188</ele>
        <time>2020-10-08T11:40:41.790Z</time>
      </trkpt>
      <trkpt lat="57.00741" lon="24.2991">
        <ele>18.78391</ele>
        <time>2020-10-08T11:40:46.858Z</time>
      </trkpt>
      <trkpt lat="57.00651" lon="24.29625">
        <ele>17.22787</ele>
        <time>2020-10-08T11:41:22.719Z</time>
      </trkpt>
      <trkpt lat="57.00615" lon="24.29515">
        <ele>16.431776</ele>
        <time>2020-10-08T11:41:35.516Z</time>
      </trkpt>
      <trkpt lat="57.00577" lon="24.29395">
        <ele>14.887421</ele>
        <time>2020-10-08T11:41:48.807Z</time>
      </trkpt>
      <trkpt lat="57.00566" lon="24.29352">
        <ele>14.360887</ele>
        <time>2020-10-08T11:41:53.346Z</time>
      </trkpt>
      <trkpt lat="57.00559" lon="24.29338">
        <ele>14.156593</ele>
        <time>2020-10-08T11:41:55.057Z</time>
      </trkpt>
      <trkpt lat="57.00559" lon="24.29321">
        <ele>13.962677</ele>
        <time>2020-10-08T11:41:57.372Z</time>
      </trkpt>
      <trkpt lat="57.0056" lon="24.29298">
        <ele>13.705026</ele>
        <time>2020-10-08T11:42:00.496Z</time>
      </trkpt>
      <trkpt lat="57.00557" lon="24.29278">
        <ele>13.482347</ele>
        <time>2020-10-08T11:42:03.134Z</time>
      </trkpt>
      <trkpt lat="57.00549" lon="24.29251">
        <ele>13.140346</ele>
        <time>2020-10-08T11:42:07.078Z</time>
      </trkpt>
      <trkpt lat="57.00519" lon="24.29159">
        <ele>11.856862</ele>
        <time>2020-10-08T11:42:21.031Z</time>
      </trkpt>
      <trkpt lat="57.00512" lon="24.29116">
        <ele>11.312739</ele>
        <time>2020-10-08T11:42:26.757Z</time>
      </trkpt>
      <trkpt lat="57.00498" lon="24.29068">
        <ele>10.633085</ele>
        <time>2020-10-08T11:42:33.833Z</time>
      </trkpt>
      <trkpt lat="57.0049" lon="24.29043">
        <ele>10.283551</ele>
        <time>2020-10-08T11:42:37.509Z</time>
      </trkpt>
      <trkpt lat="57.00478" lon="24.29001">
        <ele>9.696667</ele>
        <time>2020-10-08T11:42:43.694Z</time>
      </trkpt>
      <trkpt lat="57.00455" lon="24.2894">
        <ele>8.791017</ele>
        <time>2020-10-08T11:42:53.219Z</time>
      </trkpt>
      <trkpt lat="57.00412" lon="24.28862">
        <ele>7.469617</ele>
        <time>2020-10-08T11:43:07.730Z</time>
      </trkpt>
      <trkpt lat="57.00398" lon="24.28836">
        <ele>7.037036</ele>
        <time>2020-10-08T11:43:12.423Z</time>
      </trkpt>
      <trkpt lat="57.00383" lon="24.28796">
        <ele>6.46368</ele>
        <time>2020-10-08T11:43:18.606Z</time>
      </trkpt>
      <trkpt lat="57.00364" lon="24.28749">
        <ele>5.776256</ele>
        <time>2020-10-08T11:43:26.127Z</time>
      </trkpt>
      <trkpt lat="57.00331" lon="24.28647">
        <ele>4.718365</ele>
        <time>2020-10-08T11:43:37.498Z</time>
      </trkpt>
      <trkpt lat="57.00322" lon="24.28618">
        <ele>4.602503</ele>
        <time>2020-10-08T11:43:40.874Z</time>
      </trkpt>
      <trkpt lat="57.00312" lon="24.28586">
        <ele>4.478002</ele>
        <time>2020-10-08T11:43:44.661Z</time>
      </trkpt>
      <trkpt lat="57.00301" lon="24.28551">
        <ele>4.340922</ele>
        <time>2020-10-08T11:43:49.040Z</time>
      </trkpt>
      <trkpt lat="57.00293" lon="24.28528">
        <ele>4.249739</ele>
        <time>2020-10-08T11:43:51.913Z</time>
      </trkpt>
      <trkpt lat="57.00273" lon="24.28472">
        <ele>4.022898</ele>
        <time>2020-10-08T11:43:59.644Z</time>
      </trkpt>
      <trkpt lat="57.00253" lon="24.28427">
        <ele>3.823295</ele>
        <time>2020-10-08T11:44:06.668Z</time>
      </trkpt>
      <trkpt lat="57.00153" lon="24.28124">
        <ele>6.462147</ele>
        <time>2020-10-08T11:45:00.126Z</time>
      </trkpt>
      <trkpt lat="57.00103" lon="24.27954">
        <ele>9.867014</ele>
        <time>2020-10-08T11:45:39.470Z</time>
      </trkpt>
      <trkpt lat="57.0007" lon="24.27853">
        <ele>11.945632</ele>
        <time>2020-10-08T11:46:03.804Z</time>
      </trkpt>
      <trkpt lat="56.99969" lon="24.27526">
        <ele>16.026317</ele>
        <time>2020-10-08T11:47:06.444Z</time>
      </trkpt>
      <trkpt lat="56.9995" lon="24.27462">
        <ele>16.027311</ele>
        <time>2020-10-08T11:47:15.554Z</time>
      </trkpt>
      <trkpt lat="56.99942" lon="24.27436">
        <ele>16.027721</ele>
        <time>2020-10-08T11:47:19.076Z</time>
      </trkpt>
      <trkpt lat="56.99956" lon="24.27421">
        <ele>16.028135</ele>
        <time>2020-10-08T11:47:22.885Z</time>
      </trkpt>
      <trkpt lat="56.99931" lon="24.27344">
        <ele>16.029348</ele>
        <time>2020-10-08T11:47:33.038Z</time>
      </trkpt>
      <trkpt lat="56.99915" lon="24.27299">
        <ele>16.030074</ele>
        <time>2020-10-08T11:47:38.868Z</time>
      </trkpt>
      <trkpt lat="56.99864" lon="24.27132">
        <ele>14.677416</ele>
        <time>2020-10-08T11:47:58.833Z</time>
      </trkpt>
      <trkpt lat="56.99851" lon="24.27089">
        <ele>14.269344</ele>
        <time>2020-10-08T11:48:03.559Z</time>
      </trkpt>
      <trkpt lat="56.99822" lon="24.26993">
        <ele>13.358087</ele>
        <time>2020-10-08T11:48:14.216Z</time>
      </trkpt>
      <trkpt lat="56.99795" lon="24.26906">
        <ele>12.16098</ele>
        <time>2020-10-08T11:48:23.692Z</time>
      </trkpt>
      <trkpt lat="56.99788" lon="24.26878">
        <ele>11.784425</ele>
        <time>2020-10-08T11:48:27.671Z</time>
      </trkpt>
      <trkpt lat="56.99785" lon="24.26868">
        <ele>11.644116</ele>
        <time>2020-10-08T11:48:28.739Z</time>
      </trkpt>
      <trkpt lat="56.99782" lon="24.26859">
        <ele>11.51362</ele>
        <time>2020-10-08T11:48:29.651Z</time>
      </trkpt>
      <trkpt lat="56.99753" lon="24.2676">
        <ele>10.128911</ele>
        <time>2020-10-08T11:48:40.300Z</time>
      </trkpt>
      <trkpt lat="56.99723" lon="24.26663">
        <ele>8.895175</ele>
        <time>2020-10-08T11:48:50.817Z</time>
      </trkpt>
      <trkpt lat="56.99707" lon="24.26608">
        <ele>8.356316</ele>
        <time>2020-10-08T11:48:56.777Z</time>
      </trkpt>
      <trkpt lat="56.99691" lon="24.26555">
        <ele>7.836604</ele>
        <time>2020-10-08T11:49:02.726Z</time>
      </trkpt>
      <trkpt lat="56.99688" lon="24.26544">
        <ele>7.719787</ele>
        <time>2020-10-08T11:49:04.048Z</time>
      </trkpt>
      <trkpt lat="56.99684" lon="24.26532">
        <ele>7.600902</ele>
        <time>2020-10-08T11:49:05.427Z</time>
      </trkpt>
      <trkpt lat="56.99672" lon="24.26492">
        <ele>7.20769</ele>
        <time>2020-10-08T11:49:09.989Z</time>
      </trkpt>
      <trkpt lat="56.99672" lon="24.26481">
        <ele>7.115213</ele>
        <time>2020-10-08T11:49:11.076Z</time>
      </trkpt>
      <trkpt lat="56.99664" lon="24.26456">
        <ele>6.869068</ele>
        <time>2020-10-08T11:49:13.936Z</time>
      </trkpt>
      <trkpt lat="56.99635" lon="24.26394">
        <ele>6.269384</ele>
        <time>2020-10-08T11:49:22.452Z</time>
      </trkpt>
      <trkpt lat="56.99393" lon="24.25606">
        <ele>3.053923</ele>
        <time>2020-10-08T11:51:01.901Z</time>
      </trkpt>
      <trkpt lat="56.99352" lon="24.25472">
        <ele>2.8987</ele>
        <time>2020-10-08T11:51:19.843Z</time>
      </trkpt>
      <trkpt lat="56.99341" lon="24.2544">
        <ele>2.911795</ele>
        <time>2020-10-08T11:51:24.411Z</time>
      </trkpt>
      <trkpt lat="56.99315" lon="24.25369">
        <ele>2.941823</ele>
        <time>2020-10-08T11:51:35.272Z</time>
      </trkpt>
      <trkpt lat="56.993" lon="24.25319">
        <ele>2.961853</ele>
        <time>2020-10-08T11:51:42.666Z</time>
      </trkpt>
      <trkpt lat="56.99297" lon="24.25311">
        <ele>2.96514</ele>
        <time>2020-10-08T11:51:43.882Z</time>
      </trkpt>
      <trkpt lat="56.99277" lon="24.25244">
        <ele>3.025128</ele>
        <time>2020-10-08T11:51:54.025Z</time>
      </trkpt>
      <trkpt lat="56.99264" lon="24.252">
        <ele>3.103283</ele>
        <time>2020-10-08T11:52:00.299Z</time>
      </trkpt>
      <trkpt lat="56.99224" lon="24.25066">
        <ele>3.343675</ele>
        <time>2020-10-08T11:52:20.089Z</time>
      </trkpt>
      <trkpt lat="56.99216" lon="24.25033">
        <ele>3.400891</ele>
        <time>2020-10-08T11:52:25.034Z</time>
      </trkpt>
      <trkpt lat="56.99214" lon="24.24853">
        <ele>3.506214</ele>
        <time>2020-10-08T11:52:48.152Z</time>
      </trkpt>
      <trkpt lat="56.99196" lon="24.24762">
        <ele>3.511118</ele>
        <time>2020-10-08T11:53:00.355Z</time>
      </trkpt>
      <trkpt lat="56.9916" lon="24.24672">
        <ele>3.516695</ele>
        <time>2020-10-08T11:53:14.138Z</time>
      </trkpt>
      <trkpt lat="56.9916" lon="24.24666">
        <ele>3.52112</ele>
        <time>2020-10-08T11:53:14.942Z</time>
      </trkpt>
      <trkpt lat="56.99155" lon="24.24657">
        <ele>3.570027</ele>
        <time>2020-10-08T11:53:16.564Z</time>
      </trkpt>
      <trkpt lat="56.99151" lon="24.24653">
        <ele>3.598225</ele>
        <time>2020-10-08T11:53:17.521Z</time>
      </trkpt>
      <trkpt lat="56.99143" lon="24.24655">
        <ele>3.65492</ele>
        <time>2020-10-08T11:53:19.456Z</time>
      </trkpt>
      <trkpt lat="56.9911" lon="24.24624">
        <ele>3.915508</ele>
        <time>2020-10-08T11:53:28.271Z</time>
      </trkpt>
      <trkpt lat="56.9909" lon="24.24611">
        <ele>4.06665</ele>
        <time>2020-10-08T11:53:33.407Z</time>
      </trkpt>
      <trkpt lat="56.99083" lon="24.24609">
        <ele>4.11466</ele>
        <time>2020-10-08T11:53:35.530Z</time>
      </trkpt>
      <trkpt lat="56.99076" lon="24.24606">
        <ele>4.167496</ele>
        <time>2020-10-08T11:53:37.548Z</time>
      </trkpt>
      <trkpt lat="56.99068" lon="24.24604">
        <ele>4.220714</ele>
        <time>2020-10-08T11:53:39.542Z</time>
      </trkpt>
      <trkpt lat="56.9905" lon="24.24604">
        <ele>4.349941</ele>
        <time>2020-10-08T11:53:44.058Z</time>
      </trkpt>
      <trkpt lat="56.99045" lon="24.24602">
        <ele>4.384654</ele>
        <time>2020-10-08T11:53:45.896Z</time>
      </trkpt>
      <trkpt lat="56.99029" lon="24.2458">
        <ele>4.524241</ele>
        <time>2020-10-08T11:53:52.649Z</time>
      </trkpt>
      <trkpt lat="56.99011" lon="24.24495">
        <ele>5.026284</ele>
        <time>2020-10-08T11:54:10.045Z</time>
      </trkpt>
      <trkpt lat="56.9901" lon="24.24472">
        <ele>5.244038</ele>
        <time>2020-10-08T11:54:14.598Z</time>
      </trkpt>
      <trkpt lat="56.99008" lon="24.2447">
        <ele>5.283603</ele>
        <time>2020-10-08T11:54:15.375Z</time>
      </trkpt>
      <trkpt lat="56.98994" lon="24.2446">
        <ele>5.553735</ele>
        <time>2020-10-08T11:54:19.818Z</time>
      </trkpt>
      <trkpt lat="56.9899" lon="24.24459">
        <ele>5.617242</ele>
        <time>2020-10-08T11:54:21.008Z</time>
      </trkpt>
      <trkpt lat="56.9899" lon="24.24437">
        <ele>5.8333</ele>
        <time>2020-10-08T11:54:24.784Z</time>
      </trkpt>
      <trkpt lat="56.98991" lon="24.24415">
        <ele>6.049716</ele>
        <time>2020-10-08T11:54:28.217Z</time>
      </trkpt>
      <trkpt lat="56.98991" lon="24.24399">
        <ele>6.204746</ele>
        <time>2020-10-08T11:54:30.840Z</time>
      </trkpt>
      <trkpt lat="56.98989" lon="24.24387">
        <ele>6.322</ele>
        <time>2020-10-08T11:54:32.911Z</time>
      </trkpt>
      <trkpt lat="56.98986" lon="24.2437">
        <ele>6.490187</ele>
        <time>2020-10-08T11:54:35.935Z</time>
      </trkpt>
      <trkpt lat="56.98973" lon="24.24312">
        <ele>7.105535</ele>
        <time>2020-10-08T11:54:46.430Z</time>
      </trkpt>
      <trkpt lat="56.98966" lon="24.24279">
        <ele>7.451355</ele>
        <time>2020-10-08T11:54:52.294Z</time>
      </trkpt>
      <trkpt lat="56.98961" lon="24.24254">
        <ele>7.708774</ele>
        <time>2020-10-08T11:54:56.667Z</time>
      </trkpt>
      <trkpt lat="56.98961" lon="24.24252">
        <ele>7.728475</ele>
        <time>2020-10-08T11:54:57.017Z</time>
      </trkpt>
      <trkpt lat="56.9896" lon="24.24246">
        <ele>7.782818</ele>
        <time>2020-10-08T11:54:57.979Z</time>
      </trkpt>
      <trkpt lat="56.98958" lon="24.24239">
        <ele>7.855697</ele>
        <time>2020-10-08T11:54:59.168Z</time>
      </trkpt>
      <trkpt lat="56.98957" lon="24.24232">
        <ele>7.933427</ele>
        <time>2020-10-08T11:55:00.416Z</time>
      </trkpt>
      <trkpt lat="56.98956" lon="24.24226">
        <ele>7.983925</ele>
        <time>2020-10-08T11:55:01.474Z</time>
      </trkpt>
      <trkpt lat="56.98957" lon="24.24223">
        <ele>8.005673</ele>
        <time>2020-10-08T11:55:02.453Z</time>
      </trkpt>
      <trkpt lat="56.98958" lon="24.24213">
        <ele>8.064141</ele>
        <time>2020-10-08T11:55:04.254Z</time>
      </trkpt>
      <trkpt lat="56.9894" lon="24.24103">
        <ele>8.764746</ele>
        <time>2020-10-08T11:55:26.779Z</time>
      </trkpt>
      <trkpt lat="56.98936" lon="24.24078">
        <ele>8.92229</ele>
        <time>2020-10-08T11:55:31.697Z</time>
      </trkpt>
      <trkpt lat="56.98934" lon="24.24065">
        <ele>9.004493</ele>
        <time>2020-10-08T11:55:34.058Z</time>
      </trkpt>
      <trkpt lat="56.98925" lon="24.24012">
        <ele>9.34192</ele>
        <time>2020-10-08T11:55:43.913Z</time>
      </trkpt>
      <trkpt lat="56.98924" lon="24.24002">
        <ele>9.403825</ele>
        <time>2020-10-08T11:55:45.612Z</time>
      </trkpt>
      <trkpt lat="56.98912" lon="24.23927">
        <ele>9.879991</ele>
        <time>2020-10-08T11:55:59.231Z</time>
      </trkpt>
      <trkpt lat="56.98912" lon="24.23917">
        <ele>9.936218</ele>
        <time>2020-10-08T11:56:00.832Z</time>
      </trkpt>
      <trkpt lat="56.98909" lon="24.239">
        <ele>10.015179</ele>
        <time>2020-10-08T11:56:03.913Z</time>
      </trkpt>
      <trkpt lat="56.98905" lon="24.2387">
        <ele>10.102362</ele>
        <time>2020-10-08T11:56:09.110Z</time>
      </trkpt>
      <trkpt lat="56.98904" lon="24.23865">
        <ele>10.11907</ele>
        <time>2020-10-08T11:56:10.090Z</time>
      </trkpt>
      <trkpt lat="56.98903" lon="24.23856">
        <ele>10.143494</ele>
        <time>2020-10-08T11:56:11.542Z</time>
      </trkpt>
      <trkpt lat="56.98901" lon="24.23845">
        <ele>10.177015</ele>
        <time>2020-10-08T11:56:13.476Z</time>
      </trkpt>
      <trkpt lat="56.98898" lon="24.2382">
        <ele>10.250813</ele>
        <time>2020-10-08T11:56:17.829Z</time>
      </trkpt>
      <trkpt lat="56.98895" lon="24.23815">
        <ele>10.270577</ele>
        <time>2020-10-08T11:56:18.950Z</time>
      </trkpt>
      <trkpt lat="56.98891" lon="24.23788">
        <ele>10.351605</ele>
        <time>2020-10-08T11:56:23.646Z</time>
      </trkpt>
      <trkpt lat="56.98892" lon="24.23784">
        <ele>10.362805</ele>
        <time>2020-10-08T11:56:24.127Z</time>
      </trkpt>
      <trkpt lat="56.98888" lon="24.23744">
        <ele>10.479934</ele>
        <time>2020-10-08T11:56:29.406Z</time>
      </trkpt>
      <trkpt lat="56.98887" lon="24.23733">
        <ele>10.510052</ele>
        <time>2020-10-08T11:56:30.938Z</time>
      </trkpt>
      <trkpt lat="56.98885" lon="24.23721">
        <ele>10.545377</ele>
        <time>2020-10-08T11:56:32.757Z</time>
      </trkpt>
      <trkpt lat="56.98883" lon="24.23709">
        <ele>10.583452</ele>
        <time>2020-10-08T11:56:34.477Z</time>
      </trkpt>
      <trkpt lat="56.98877" lon="24.23662">
        <ele>10.721726</ele>
        <time>2020-10-08T11:56:41.255Z</time>
      </trkpt>
      <trkpt lat="56.98851" lon="24.23488">
        <ele>11.257726</ele>
        <time>2020-10-08T11:57:04.961Z</time>
      </trkpt>
      <trkpt lat="56.98849" lon="24.23474">
        <ele>11.303161</ele>
        <time>2020-10-08T11:57:07.200Z</time>
      </trkpt>
      <trkpt lat="56.98848" lon="24.23469">
        <ele>11.318945</ele>
        <time>2020-10-08T11:57:07.942Z</time>
      </trkpt>
      <trkpt lat="56.98846" lon="24.23461">
        <ele>11.346331</ele>
        <time>2020-10-08T11:57:09.019Z</time>
      </trkpt>
      <trkpt lat="56.98843" lon="24.23436">
        <ele>11.424898</ele>
        <time>2020-10-08T11:57:12.360Z</time>
      </trkpt>
      <trkpt lat="56.98841" lon="24.23415">
        <ele>11.489305</ele>
        <time>2020-10-08T11:57:15.343Z</time>
      </trkpt>
      <trkpt lat="56.98831" lon="24.23335">
        <ele>11.739942</ele>
        <time>2020-10-08T11:57:26.410Z</time>
      </trkpt>
      <trkpt lat="56.98822" lon="24.23259">
        <ele>11.940082</ele>
        <time>2020-10-08T11:57:36.862Z</time>
      </trkpt>
      <trkpt lat="56.98821" lon="24.23248">
        <ele>11.940219</ele>
        <time>2020-10-08T11:57:38.364Z</time>
      </trkpt>
      <trkpt lat="56.98816" lon="24.2322">
        <ele>11.940561</ele>
        <time>2020-10-08T11:57:42.273Z</time>
      </trkpt>
      <trkpt lat="56.98807" lon="24.23147">
        <ele>11.941466</ele>
        <time>2020-10-08T11:57:51.540Z</time>
      </trkpt>
      <trkpt lat="56.988" lon="24.23088">
        <ele>11.942191</ele>
        <time>2020-10-08T11:57:58.555Z</time>
      </trkpt>
      <trkpt lat="56.98794" lon="24.23034">
        <ele>11.942856</ele>
        <time>2020-10-08T11:58:05.095Z</time>
      </trkpt>
      <trkpt lat="56.98793" lon="24.2303">
        <ele>11.942898</ele>
        <time>2020-10-08T11:58:05.497Z</time>
      </trkpt>
      <trkpt lat="56.98792" lon="24.23022">
        <ele>11.943005</ele>
        <time>2020-10-08T11:58:06.510Z</time>
      </trkpt>
      <trkpt lat="56.98791" lon="24.23011">
        <ele>11.943134</ele>
        <time>2020-10-08T11:58:07.821Z</time>
      </trkpt>
      <trkpt lat="56.9879" lon="24.23006">
        <ele>11.943203</ele>
        <time>2020-10-08T11:58:08.549Z</time>
      </trkpt>
      <trkpt lat="56.98782" lon="24.22935">
        <ele>11.897555</ele>
        <time>2020-10-08T11:58:17.438Z</time>
      </trkpt>
      <trkpt lat="56.98778" lon="24.22899">
        <ele>11.782208</ele>
        <time>2020-10-08T11:58:21.670Z</time>
      </trkpt>
      <trkpt lat="56.98776" lon="24.22882">
        <ele>11.73003</ele>
        <time>2020-10-08T11:58:23.602Z</time>
      </trkpt>
      <trkpt lat="56.98772" lon="24.22847">
        <ele>11.61931</ele>
        <time>2020-10-08T11:58:27.501Z</time>
      </trkpt>
      <trkpt lat="56.98765" lon="24.22783">
        <ele>11.413004</ele>
        <time>2020-10-08T11:58:34.753Z</time>
      </trkpt>
      <trkpt lat="56.98764" lon="24.22764">
        <ele>11.353581</ele>
        <time>2020-10-08T11:58:36.833Z</time>
      </trkpt>
      <trkpt lat="56.98762" lon="24.22727">
        <ele>11.23964</ele>
        <time>2020-10-08T11:58:40.735Z</time>
      </trkpt>
      <trkpt lat="56.98756" lon="24.22692">
        <ele>11.125558</ele>
        <time>2020-10-08T11:58:44.713Z</time>
      </trkpt>
      <trkpt lat="56.98751" lon="24.22647">
        <ele>10.978789</ele>
        <time>2020-10-08T11:58:49.710Z</time>
      </trkpt>
      <trkpt lat="56.98742" lon="24.22574">
        <ele>10.758656</ele>
        <time>2020-10-08T11:58:57.942Z</time>
      </trkpt>
      <trkpt lat="56.98712" lon="24.2233">
        <ele>10.041196</ele>
        <time>2020-10-08T11:59:25.650Z</time>
      </trkpt>
      <trkpt lat="56.98707" lon="24.22282">
        <ele>10.055348</ele>
        <time>2020-10-08T11:59:31.218Z</time>
      </trkpt>
      <trkpt lat="56.98706" lon="24.22279">
        <ele>10.068826</ele>
        <time>2020-10-08T11:59:31.661Z</time>
      </trkpt>
      <trkpt lat="56.98701" lon="24.22244">
        <ele>10.224777</ele>
        <time>2020-10-08T11:59:35.982Z</time>
      </trkpt>
      <trkpt lat="56.98699" lon="24.22228">
        <ele>10.292544</ele>
        <time>2020-10-08T11:59:37.835Z</time>
      </trkpt>
      <trkpt lat="56.98696" lon="24.22196">
        <ele>10.429129</ele>
        <time>2020-10-08T11:59:42.081Z</time>
      </trkpt>
      <trkpt lat="56.98692" lon="24.22166">
        <ele>10.561828</ele>
        <time>2020-10-08T11:59:46.573Z</time>
      </trkpt>
      <trkpt lat="56.98678" lon="24.22038">
        <ele>11.11418</ele>
        <time>2020-10-08T12:00:05.664Z</time>
      </trkpt>
      <trkpt lat="56.98667" lon="24.21951">
        <ele>11.709581</ele>
        <time>2020-10-08T12:00:19.263Z</time>
      </trkpt>
      <trkpt lat="56.98666" lon="24.21944">
        <ele>11.785965</ele>
        <time>2020-10-08T12:00:20.486Z</time>
      </trkpt>
      <trkpt lat="56.98665" lon="24.21934">
        <ele>11.896303</ele>
        <time>2020-10-08T12:00:22.013Z</time>
      </trkpt>
      <trkpt lat="56.98664" lon="24.2192">
        <ele>12.061477</ele>
        <time>2020-10-08T12:00:24.262Z</time>
      </trkpt>
      <trkpt lat="56.98663" lon="24.21916">
        <ele>12.106607</ele>
        <time>2020-10-08T12:00:25.389Z</time>
      </trkpt>
      <trkpt lat="56.98663" lon="24.21908">
        <ele>12.192357</ele>
        <time>2020-10-08T12:00:26.462Z</time>
      </trkpt>
      <trkpt lat="56.98616" lon="24.21502">
        <ele>16.125661</ele>
        <time>2020-10-08T12:01:37.256Z</time>
      </trkpt>
      <trkpt lat="56.98611" lon="24.21462">
        <ele>16.404737</ele>
        <time>2020-10-08T12:01:43.300Z</time>
      </trkpt>
      <trkpt lat="56.9861" lon="24.21452">
        <ele>16.46958</ele>
        <time>2020-10-08T12:01:44.660Z</time>
      </trkpt>
      <trkpt lat="56.98575" lon="24.2114">
        <ele>16.190171</ele>
        <time>2020-10-08T12:02:23.442Z</time>
      </trkpt>
      <trkpt lat="56.98551" lon="24.20973">
        <ele>14.850901</ele>
        <time>2020-10-08T12:02:39.506Z</time>
      </trkpt>
      <trkpt lat="56.98548" lon="24.20966">
        <ele>14.719502</ele>
        <time>2020-10-08T12:02:40.266Z</time>
      </trkpt>
      <trkpt lat="56.98545" lon="24.20956">
        <ele>14.556443</ele>
        <time>2020-10-08T12:02:41.289Z</time>
      </trkpt>
      <trkpt lat="56.98537" lon="24.20915">
        <ele>13.90485</ele>
        <time>2020-10-08T12:02:45.297Z</time>
      </trkpt>
      <trkpt lat="56.98533" lon="24.20904">
        <ele>13.696031</ele>
        <time>2020-10-08T12:02:46.518Z</time>
      </trkpt>
      <trkpt lat="56.98532" lon="24.20901">
        <ele>13.66158</ele>
        <time>2020-10-08T12:02:46.732Z</time>
      </trkpt>
      <trkpt lat="56.9853" lon="24.2089">
        <ele>13.484189</ele>
        <time>2020-10-08T12:02:47.834Z</time>
      </trkpt>
      <trkpt lat="56.98527" lon="24.20879">
        <ele>13.307145</ele>
        <time>2020-10-08T12:02:48.921Z</time>
      </trkpt>
      <trkpt lat="56.98526" lon="24.20874">
        <ele>13.219653</ele>
        <time>2020-10-08T12:02:49.457Z</time>
      </trkpt>
      <trkpt lat="56.98516" lon="24.20829">
        <ele>12.485656</ele>
        <time>2020-10-08T12:02:53.863Z</time>
      </trkpt>
      <trkpt lat="56.98506" lon="24.2079">
        <ele>11.853279</ele>
        <time>2020-10-08T12:02:57.603Z</time>
      </trkpt>
      <trkpt lat="56.98504" lon="24.20779">
        <ele>11.688051</ele>
        <time>2020-10-08T12:02:58.602Z</time>
      </trkpt>
      <trkpt lat="56.98458" lon="24.20593">
        <ele>9.929446</ele>
        <time>2020-10-08T12:03:17.878Z</time>
      </trkpt>
      <trkpt lat="56.98449" lon="24.20557">
        <ele>9.732917</ele>
        <time>2020-10-08T12:03:22.108Z</time>
      </trkpt>
      <trkpt lat="56.98447" lon="24.20552">
        <ele>9.701521</ele>
        <time>2020-10-08T12:03:22.906Z</time>
      </trkpt>
      <trkpt lat="56.98446" lon="24.20547">
        <ele>9.673594</ele>
        <time>2020-10-08T12:03:23.623Z</time>
      </trkpt>
      <trkpt lat="56.98444" lon="24.20539">
        <ele>9.633914</ele>
        <time>2020-10-08T12:03:24.772Z</time>
      </trkpt>
      <trkpt lat="56.98443" lon="24.20535">
        <ele>9.608087</ele>
        <time>2020-10-08T12:03:25.529Z</time>
      </trkpt>
      <trkpt lat="56.98441" lon="24.20526">
        <ele>9.561344</ele>
        <time>2020-10-08T12:03:27.115Z</time>
      </trkpt>
      <trkpt lat="56.98439" lon="24.2052">
        <ele>9.526868</ele>
        <time>2020-10-08T12:03:27.901Z</time>
      </trkpt>
      <trkpt lat="56.9842" lon="24.2044">
        <ele>9.093535</ele>
        <time>2020-10-08T12:03:38.275Z</time>
      </trkpt>
      <trkpt lat="56.98418" lon="24.20432">
        <ele>9.049878</ele>
        <time>2020-10-08T12:03:39.461Z</time>
      </trkpt>
      <trkpt lat="56.98413" lon="24.20411">
        <ele>8.938023</ele>
        <time>2020-10-08T12:03:42.478Z</time>
      </trkpt>
      <trkpt lat="56.98401" lon="24.20364">
        <ele>9.205746</ele>
        <time>2020-10-08T12:03:48.799Z</time>
      </trkpt>
      <trkpt lat="56.98396" lon="24.20346">
        <ele>9.312395</ele>
        <time>2020-10-08T12:03:51.764Z</time>
      </trkpt>
      <trkpt lat="56.98384" lon="24.20292">
        <ele>9.625201</ele>
        <time>2020-10-08T12:03:59.300Z</time>
      </trkpt>
      <trkpt lat="56.98382" lon="24.20286">
        <ele>9.661853</ele>
        <time>2020-10-08T12:04:00.593Z</time>
      </trkpt>
      <trkpt lat="56.98378" lon="24.20275">
        <ele>9.730503</ele>
        <time>2020-10-08T12:04:02.530Z</time>
      </trkpt>
      <trkpt lat="56.98374" lon="24.2026">
        <ele>9.817941</ele>
        <time>2020-10-08T12:04:04.927Z</time>
      </trkpt>
      <trkpt lat="56.98359" lon="24.20189">
        <ele>10.229847</ele>
        <time>2020-10-08T12:04:16.998Z</time>
      </trkpt>
      <trkpt lat="56.98357" lon="24.2018">
        <ele>10.282035</ele>
        <time>2020-10-08T12:04:18.530Z</time>
      </trkpt>
      <trkpt lat="56.98354" lon="24.20161">
        <ele>10.385237</ele>
        <time>2020-10-08T12:04:21.743Z</time>
      </trkpt>
      <trkpt lat="56.98344" lon="24.2012">
        <ele>10.624134</ele>
        <time>2020-10-08T12:04:28.583Z</time>
      </trkpt>
      <trkpt lat="56.98339" lon="24.20107">
        <ele>10.704398</ele>
        <time>2020-10-08T12:04:31.125Z</time>
      </trkpt>
      <trkpt lat="56.98337" lon="24.20097">
        <ele>10.737231</ele>
        <time>2020-10-08T12:04:32.664Z</time>
      </trkpt>
      <trkpt lat="56.98335" lon="24.20077">
        <ele>10.796553</ele>
        <time>2020-10-08T12:04:35.526Z</time>
      </trkpt>
      <trkpt lat="56.98333" lon="24.20063">
        <ele>10.839416</ele>
        <time>2020-10-08T12:04:37.466Z</time>
      </trkpt>
      <trkpt lat="56.98332" lon="24.20059">
        <ele>10.85149</ele>
        <time>2020-10-08T12:04:37.996Z</time>
      </trkpt>
      <trkpt lat="56.9833" lon="24.20052">
        <ele>10.876105</ele>
        <time>2020-10-08T12:04:38.946Z</time>
      </trkpt>
      <trkpt lat="56.98328" lon="24.20045">
        <ele>10.898612</ele>
        <time>2020-10-08T12:04:40.081Z</time>
      </trkpt>
      <trkpt lat="56.98327" lon="24.20041">
        <ele>10.913854</ele>
        <time>2020-10-08T12:04:40.698Z</time>
      </trkpt>
      <trkpt lat="56.98323" lon="24.20027">
        <ele>10.959212</ele>
        <time>2020-10-08T12:04:42.981Z</time>
      </trkpt>
      <trkpt lat="56.98286" lon="24.19881">
        <ele>11.439718</ele>
        <time>2020-10-08T12:05:04.372Z</time>
      </trkpt>
      <trkpt lat="56.98244" lon="24.19725">
        <ele>11.343296</ele>
        <time>2020-10-08T12:05:25.825Z</time>
      </trkpt>
      <trkpt lat="56.98225" lon="24.19662">
        <ele>11.084822</ele>
        <time>2020-10-08T12:05:33.567Z</time>
      </trkpt>
      <trkpt lat="56.98219" lon="24.19645">
        <ele>11.017146</ele>
        <time>2020-10-08T12:05:35.583Z</time>
      </trkpt>
      <trkpt lat="56.98217" lon="24.19638">
        <ele>10.988008</ele>
        <time>2020-10-08T12:05:36.410Z</time>
      </trkpt>
      <trkpt lat="56.98211" lon="24.19618">
        <ele>10.904986</ele>
        <time>2020-10-08T12:05:38.792Z</time>
      </trkpt>
      <trkpt lat="56.98207" lon="24.19605">
        <ele>10.85047</ele>
        <time>2020-10-08T12:05:40.366Z</time>
      </trkpt>
      <trkpt lat="56.98202" lon="24.19586">
        <ele>10.777164</ele>
        <time>2020-10-08T12:05:42.498Z</time>
      </trkpt>
      <trkpt lat="56.98198" lon="24.19573">
        <ele>10.723908</ele>
        <time>2020-10-08T12:05:44.059Z</time>
      </trkpt>
      <trkpt lat="56.98196" lon="24.19569">
        <ele>10.706364</ele>
        <time>2020-10-08T12:05:44.547Z</time>
      </trkpt>
      <trkpt lat="56.98188" lon="24.19542">
        <ele>10.597654</ele>
        <time>2020-10-08T12:05:47.770Z</time>
      </trkpt>
      <trkpt lat="56.98172" lon="24.19489">
        <ele>10.420908</ele>
        <time>2020-10-08T12:05:54.235Z</time>
      </trkpt>
      <trkpt lat="56.9816" lon="24.19448">
        <ele>10.310159</ele>
        <time>2020-10-08T12:05:59.267Z</time>
      </trkpt>
      <trkpt lat="56.98147" lon="24.19408">
        <ele>10.202293</ele>
        <time>2020-10-08T12:06:04.397Z</time>
      </trkpt>
      <trkpt lat="56.98146" lon="24.19405">
        <ele>10.195257</ele>
        <time>2020-10-08T12:06:04.735Z</time>
      </trkpt>
      <trkpt lat="56.98142" lon="24.19391">
        <ele>10.155875</ele>
        <time>2020-10-08T12:06:06.565Z</time>
      </trkpt>
      <trkpt lat="56.98113" lon="24.19298">
        <ele>9.904903</ele>
        <time>2020-10-08T12:06:19.155Z</time>
      </trkpt>
      <trkpt lat="56.98102" lon="24.19262">
        <ele>9.807992</ele>
        <time>2020-10-08T12:06:24.151Z</time>
      </trkpt>
      <trkpt lat="56.981" lon="24.19253">
        <ele>9.784899</ele>
        <time>2020-10-08T12:06:25.385Z</time>
      </trkpt>
      <trkpt lat="56.98094" lon="24.19236">
        <ele>9.739331</ele>
        <time>2020-10-08T12:06:27.763Z</time>
      </trkpt>
      <trkpt lat="56.98088" lon="24.19214">
        <ele>9.72593</ele>
        <time>2020-10-08T12:06:30.766Z</time>
      </trkpt>
      <trkpt lat="56.98085" lon="24.19206">
        <ele>9.72592</ele>
        <time>2020-10-08T12:06:31.969Z</time>
      </trkpt>
      <trkpt lat="56.98083" lon="24.19197">
        <ele>9.725909</ele>
        <time>2020-10-08T12:06:33.233Z</time>
      </trkpt>
      <trkpt lat="56.98081" lon="24.19191">
        <ele>9.725903</ele>
        <time>2020-10-08T12:06:34.006Z</time>
      </trkpt>
      <trkpt lat="56.98079" lon="24.19186">
        <ele>9.725896</ele>
        <time>2020-10-08T12:06:34.775Z</time>
      </trkpt>
      <trkpt lat="56.98077" lon="24.1918">
        <ele>9.725889</ele>
        <time>2020-10-08T12:06:35.666Z</time>
      </trkpt>
      <trkpt lat="56.98076" lon="24.19176">
        <ele>9.725884</ele>
        <time>2020-10-08T12:06:36.187Z</time>
      </trkpt>
      <trkpt lat="56.98048" lon="24.19083">
        <ele>9.725771</ele>
        <time>2020-10-08T12:06:49.415Z</time>
      </trkpt>
      <trkpt lat="56.98024" lon="24.19005">
        <ele>9.725677</ele>
        <time>2020-10-08T12:07:00.341Z</time>
      </trkpt>
      <trkpt lat="56.98011" lon="24.18962">
        <ele>9.725626</ele>
        <time>2020-10-08T12:07:06.210Z</time>
      </trkpt>
      <trkpt lat="56.97992" lon="24.18899">
        <ele>9.707533</ele>
        <time>2020-10-08T12:07:14.649Z</time>
      </trkpt>
      <trkpt lat="56.97989" lon="24.1889">
        <ele>9.703878</ele>
        <time>2020-10-08T12:07:15.826Z</time>
      </trkpt>
      <trkpt lat="56.97976" lon="24.18846">
        <ele>9.686196</ele>
        <time>2020-10-08T12:07:21.464Z</time>
      </trkpt>
      <trkpt lat="56.97951" lon="24.18765">
        <ele>9.65289</ele>
        <time>2020-10-08T12:07:32.645Z</time>
      </trkpt>
      <trkpt lat="56.97945" lon="24.18748">
        <ele>9.64586</ele>
        <time>2020-10-08T12:07:35.128Z</time>
      </trkpt>
      <trkpt lat="56.97914" lon="24.18646">
        <ele>9.603957</ele>
        <time>2020-10-08T12:07:49.904Z</time>
      </trkpt>
      <trkpt lat="56.97903" lon="24.18609">
        <ele>9.587157</ele>
        <time>2020-10-08T12:07:54.998Z</time>
      </trkpt>
      <trkpt lat="56.97902" lon="24.18604">
        <ele>9.585062</ele>
        <time>2020-10-08T12:07:55.633Z</time>
      </trkpt>
      <trkpt lat="56.97899" lon="24.18595">
        <ele>9.580801</ele>
        <time>2020-10-08T12:07:56.929Z</time>
      </trkpt>
      <trkpt lat="56.97896" lon="24.18586">
        <ele>9.576573</ele>
        <time>2020-10-08T12:07:58.191Z</time>
      </trkpt>
      <trkpt lat="56.9789" lon="24.18568">
        <ele>9.568295</ele>
        <time>2020-10-08T12:08:00.646Z</time>
      </trkpt>
      <trkpt lat="56.97889" lon="24.18564">
        <ele>9.56633</ele>
        <time>2020-10-08T12:08:01.196Z</time>
      </trkpt>
      <trkpt lat="56.97887" lon="24.18562">
        <ele>9.565173</ele>
        <time>2020-10-08T12:08:01.542Z</time>
      </trkpt>
      <trkpt lat="56.97886" lon="24.18558">
        <ele>9.563182</ele>
        <time>2020-10-08T12:08:02.101Z</time>
      </trkpt>
      <trkpt lat="56.97882" lon="24.18546">
        <ele>9.557664</ele>
        <time>2020-10-08T12:08:03.720Z</time>
      </trkpt>
      <trkpt lat="56.97879" lon="24.18533">
        <ele>9.55204</ele>
        <time>2020-10-08T12:08:05.371Z</time>
      </trkpt>
      <trkpt lat="56.97878" lon="24.18531">
        <ele>9.550851</ele>
        <time>2020-10-08T12:08:05.716Z</time>
      </trkpt>
      <trkpt lat="56.97876" lon="24.18524">
        <ele>9.548022</ele>
        <time>2020-10-08T12:08:06.595Z</time>
      </trkpt>
      <trkpt lat="56.97859" lon="24.18466">
        <ele>9.521582</ele>
        <time>2020-10-08T12:08:14.407Z</time>
      </trkpt>
      <trkpt lat="56.97856" lon="24.18459">
        <ele>9.518297</ele>
        <time>2020-10-08T12:08:15.405Z</time>
      </trkpt>
      <trkpt lat="56.97854" lon="24.18451">
        <ele>9.514804</ele>
        <time>2020-10-08T12:08:16.438Z</time>
      </trkpt>
      <trkpt lat="56.9784" lon="24.18405">
        <ele>9.493846</ele>
        <time>2020-10-08T12:08:22.840Z</time>
      </trkpt>
      <trkpt lat="56.9782" lon="24.18341">
        <ele>9.418635</ele>
        <time>2020-10-08T12:08:31.827Z</time>
      </trkpt>
      <trkpt lat="56.97808" lon="24.183">
        <ele>9.329011</ele>
        <time>2020-10-08T12:08:37.473Z</time>
      </trkpt>
      <trkpt lat="56.97787" lon="24.18233">
        <ele>9.183229</ele>
        <time>2020-10-08T12:08:46.279Z</time>
      </trkpt>
      <trkpt lat="56.97777" lon="24.18199">
        <ele>9.110836</ele>
        <time>2020-10-08T12:08:50.532Z</time>
      </trkpt>
      <trkpt lat="56.97768" lon="24.18171">
        <ele>9.05103</ele>
        <time>2020-10-08T12:08:54.043Z</time>
      </trkpt>
      <trkpt lat="56.97754" lon="24.18124">
        <ele>8.948986</ele>
        <time>2020-10-08T12:09:00.032Z</time>
      </trkpt>
      <trkpt lat="56.97752" lon="24.18115">
        <ele>8.930268</ele>
        <time>2020-10-08T12:09:01.173Z</time>
      </trkpt>
      <trkpt lat="56.97749" lon="24.18107">
        <ele>8.911715</ele>
        <time>2020-10-08T12:09:02.279Z</time>
      </trkpt>
      <trkpt lat="56.97747" lon="24.181">
        <ele>8.895977</ele>
        <time>2020-10-08T12:09:03.222Z</time>
      </trkpt>
      <trkpt lat="56.97746" lon="24.18098">
        <ele>8.892333</ele>
        <time>2020-10-08T12:09:03.432Z</time>
      </trkpt>
      <trkpt lat="56.97745" lon="24.18094">
        <ele>8.882701</ele>
        <time>2020-10-08T12:09:04.004Z</time>
      </trkpt>
      <trkpt lat="56.97743" lon="24.18087">
        <ele>8.869447</ele>
        <time>2020-10-08T12:09:04.792Z</time>
      </trkpt>
      <trkpt lat="56.97699" lon="24.17944">
        <ele>8.73754</ele>
        <time>2020-10-08T12:09:24.239Z</time>
      </trkpt>
      <trkpt lat="56.97689" lon="24.1791">
        <ele>8.708201</ele>
        <time>2020-10-08T12:09:28.877Z</time>
      </trkpt>
      <trkpt lat="56.97673" lon="24.17859">
        <ele>8.665013</ele>
        <time>2020-10-08T12:09:35.767Z</time>
      </trkpt>
      <trkpt lat="56.97667" lon="24.17839">
        <ele>8.647882</ele>
        <time>2020-10-08T12:09:38.555Z</time>
      </trkpt>
      <trkpt lat="56.97632" lon="24.17723">
        <ele>8.598485</ele>
        <time>2020-10-08T12:09:55.056Z</time>
      </trkpt>
      <trkpt lat="56.97627" lon="24.17706">
        <ele>8.596301</ele>
        <time>2020-10-08T12:09:57.480Z</time>
      </trkpt>
      <trkpt lat="56.97618" lon="24.17679">
        <ele>8.592784</ele>
        <time>2020-10-08T12:10:01.122Z</time>
      </trkpt>
      <trkpt lat="56.97615" lon="24.17668">
        <ele>8.591272</ele>
        <time>2020-10-08T12:10:02.723Z</time>
      </trkpt>
      <trkpt lat="56.97602" lon="24.17624">
        <ele>8.585571</ele>
        <time>2020-10-08T12:10:08.717Z</time>
      </trkpt>
      <trkpt lat="56.97601" lon="24.17622">
        <ele>8.585241</ele>
        <time>2020-10-08T12:10:09.064Z</time>
      </trkpt>
      <trkpt lat="56.97585" lon="24.17573">
        <ele>8.578787</ele>
        <time>2020-10-08T12:10:15.905Z</time>
      </trkpt>
      <trkpt lat="56.97585" lon="24.17571">
        <ele>8.578547</ele>
        <time>2020-10-08T12:10:16.164Z</time>
      </trkpt>
      <trkpt lat="56.97583" lon="24.17565">
        <ele>8.577815</ele>
        <time>2020-10-08T12:10:16.925Z</time>
      </trkpt>
      <trkpt lat="56.97582" lon="24.17561">
        <ele>8.577253</ele>
        <time>2020-10-08T12:10:17.525Z</time>
      </trkpt>
      <trkpt lat="56.97582" lon="24.1756">
        <ele>8.577103</ele>
        <time>2020-10-08T12:10:17.686Z</time>
      </trkpt>
      <trkpt lat="56.97566" lon="24.17508">
        <ele>8.570451</ele>
        <time>2020-10-08T12:10:24.605Z</time>
      </trkpt>
      <trkpt lat="56.97549" lon="24.17454">
        <ele>8.688834</ele>
        <time>2020-10-08T12:10:32.099Z</time>
      </trkpt>
      <trkpt lat="56.97539" lon="24.17422">
        <ele>8.765719</ele>
        <time>2020-10-08T12:10:36.618Z</time>
      </trkpt>
      <trkpt lat="56.97522" lon="24.17367">
        <ele>8.894518</ele>
        <time>2020-10-08T12:10:44.793Z</time>
      </trkpt>
      <trkpt lat="56.97517" lon="24.17352">
        <ele>8.928837</ele>
        <time>2020-10-08T12:10:47.037Z</time>
      </trkpt>
      <trkpt lat="56.97511" lon="24.17331">
        <ele>8.978591</ele>
        <time>2020-10-08T12:10:50.360Z</time>
      </trkpt>
      <trkpt lat="56.97507" lon="24.17318">
        <ele>9.010026</ele>
        <time>2020-10-08T12:10:52.345Z</time>
      </trkpt>
      <trkpt lat="56.97497" lon="24.17286">
        <ele>9.083502</ele>
        <time>2020-10-08T12:10:57.133Z</time>
      </trkpt>
      <trkpt lat="56.97491" lon="24.17268">
        <ele>9.127515</ele>
        <time>2020-10-08T12:11:00.015Z</time>
      </trkpt>
      <trkpt lat="56.97481" lon="24.17233">
        <ele>9.20907</ele>
        <time>2020-10-08T12:11:05.399Z</time>
      </trkpt>
      <trkpt lat="56.97479" lon="24.17226">
        <ele>9.224167</ele>
        <time>2020-10-08T12:11:06.448Z</time>
      </trkpt>
      <trkpt lat="56.97478" lon="24.17221">
        <ele>9.234365</ele>
        <time>2020-10-08T12:11:07.125Z</time>
      </trkpt>
      <trkpt lat="56.97473" lon="24.17203">
        <ele>9.313682</ele>
        <time>2020-10-08T12:11:09.939Z</time>
      </trkpt>
      <trkpt lat="56.97473" lon="24.17201">
        <ele>9.325933</ele>
        <time>2020-10-08T12:11:10.329Z</time>
      </trkpt>
      <trkpt lat="56.9747" lon="24.17194">
        <ele>9.36033</ele>
        <time>2020-10-08T12:11:11.370Z</time>
      </trkpt>
      <trkpt lat="56.97469" lon="24.17189">
        <ele>9.389979</ele>
        <time>2020-10-08T12:11:12.309Z</time>
      </trkpt>
      <trkpt lat="56.97454" lon="24.17142">
        <ele>9.633852</ele>
        <time>2020-10-08T12:11:20.137Z</time>
      </trkpt>
      <trkpt lat="56.97387" lon="24.1692">
        <ele>10.745179</ele>
        <time>2020-10-08T12:11:56.038Z</time>
      </trkpt>
      <trkpt lat="56.97375" lon="24.16881">
        <ele>10.815221</ele>
        <time>2020-10-08T12:12:02.069Z</time>
      </trkpt>
      <trkpt lat="56.97355" lon="24.16817">
        <ele>10.927803</ele>
        <time>2020-10-08T12:12:11.344Z</time>
      </trkpt>
      <trkpt lat="56.9735" lon="24.16808">
        <ele>10.949507</ele>
        <time>2020-10-08T12:12:13.090Z</time>
      </trkpt>
      <trkpt lat="56.97346" lon="24.16797">
        <ele>10.969025</ele>
        <time>2020-10-08T12:12:14.631Z</time>
      </trkpt>
      <trkpt lat="56.97343" lon="24.16784">
        <ele>10.990717</ele>
        <time>2020-10-08T12:12:16.371Z</time>
      </trkpt>
      <trkpt lat="56.97297" lon="24.16628">
        <ele>11.256592</ele>
        <time>2020-10-08T12:12:38.087Z</time>
      </trkpt>
      <trkpt lat="56.97292" lon="24.16615">
        <ele>11.27386</ele>
        <time>2020-10-08T12:12:40.064Z</time>
      </trkpt>
      <trkpt lat="56.97288" lon="24.16604">
        <ele>11.288236</ele>
        <time>2020-10-08T12:12:41.758Z</time>
      </trkpt>
      <trkpt lat="56.97281" lon="24.16596">
        <ele>11.305271</ele>
        <time>2020-10-08T12:12:43.758Z</time>
      </trkpt>
      <trkpt lat="56.97277" lon="24.16588">
        <ele>11.31664</ele>
        <time>2020-10-08T12:12:45.050Z</time>
      </trkpt>
      <trkpt lat="56.97273" lon="24.16573">
        <ele>11.333864</ele>
        <time>2020-10-08T12:12:47.023Z</time>
      </trkpt>
      <trkpt lat="56.97271" lon="24.1655">
        <ele>11.360312</ele>
        <time>2020-10-08T12:12:50.121Z</time>
      </trkpt>
      <trkpt lat="56.97268" lon="24.16537">
        <ele>11.374197</ele>
        <time>2020-10-08T12:12:51.590Z</time>
      </trkpt>
      <trkpt lat="56.97256" lon="24.16497">
        <ele>11.423577</ele>
        <time>2020-10-08T12:12:57.442Z</time>
      </trkpt>
      <trkpt lat="56.97236" lon="24.16433">
        <ele>11.50371</ele>
        <time>2020-10-08T12:13:06.893Z</time>
      </trkpt>
      <trkpt lat="56.97217" lon="24.1637">
        <ele>11.58317</ele>
        <time>2020-10-08T12:13:16.305Z</time>
      </trkpt>
      <trkpt lat="56.972" lon="24.16318">
        <ele>11.599668</ele>
        <time>2020-10-08T12:13:24.155Z</time>
      </trkpt>
      <trkpt lat="56.97196" lon="24.16314">
        <ele>11.600152</ele>
        <time>2020-10-08T12:13:25.092Z</time>
      </trkpt>
      <trkpt lat="56.9715" lon="24.16165">
        <ele>11.609619</ele>
        <time>2020-10-08T12:13:45.829Z</time>
      </trkpt>
      <trkpt lat="56.97147" lon="24.16157">
        <ele>11.610149</ele>
        <time>2020-10-08T12:13:47.008Z</time>
      </trkpt>
      <trkpt lat="56.97146" lon="24.16152">
        <ele>11.610445</ele>
        <time>2020-10-08T12:13:47.643Z</time>
      </trkpt>
      <trkpt lat="56.97131" lon="24.16102">
        <ele>11.613618</ele>
        <time>2020-10-08T12:13:54.278Z</time>
      </trkpt>
      <trkpt lat="56.97116" lon="24.16052">
        <ele>11.540763</ele>
        <time>2020-10-08T12:14:00.980Z</time>
      </trkpt>
      <trkpt lat="56.9711" lon="24.16032">
        <ele>11.471505</ele>
        <time>2020-10-08T12:14:04.053Z</time>
      </trkpt>
      <trkpt lat="56.97109" lon="24.16023">
        <ele>11.446717</ele>
        <time>2020-10-08T12:14:05.023Z</time>
      </trkpt>
      <trkpt lat="56.97097" lon="24.15983">
        <ele>11.313839</ele>
        <time>2020-10-08T12:14:10.670Z</time>
      </trkpt>
      <trkpt lat="56.97094" lon="24.15975">
        <ele>11.285432</ele>
        <time>2020-10-08T12:14:11.743Z</time>
      </trkpt>
      <trkpt lat="56.97049" lon="24.15827">
        <ele>10.789134</ele>
        <time>2020-10-08T12:14:30.450Z</time>
      </trkpt>
      <trkpt lat="56.97045" lon="24.15822">
        <ele>10.764501</ele>
        <time>2020-10-08T12:14:31.336Z</time>
      </trkpt>
      <trkpt lat="56.97043" lon="24.15814">
        <ele>10.739971</ele>
        <time>2020-10-08T12:14:32.387Z</time>
      </trkpt>
      <trkpt lat="56.97041" lon="24.15809">
        <ele>10.722041</ele>
        <time>2020-10-08T12:14:33.010Z</time>
      </trkpt>
      <trkpt lat="56.97044" lon="24.15805">
        <ele>10.70452</ele>
        <time>2020-10-08T12:14:33.624Z</time>
      </trkpt>
      <trkpt lat="56.97046" lon="24.15798">
        <ele>10.680755</ele>
        <time>2020-10-08T12:14:34.465Z</time>
      </trkpt>
      <trkpt lat="56.97043" lon="24.15785">
        <ele>10.629404</ele>
        <time>2020-10-08T12:14:35.898Z</time>
      </trkpt>
      <trkpt lat="56.96965" lon="24.15527">
        <ele>9.006447</ele>
        <time>2020-10-08T12:15:06.839Z</time>
      </trkpt>
      <trkpt lat="56.96962" lon="24.15518">
        <ele>8.94947</ele>
        <time>2020-10-08T12:15:07.891Z</time>
      </trkpt>
      <trkpt lat="56.9696" lon="24.15511">
        <ele>8.900692</ele>
        <time>2020-10-08T12:15:08.822Z</time>
      </trkpt>
      <trkpt lat="56.96952" lon="24.15487">
        <ele>8.83495</ele>
        <time>2020-10-08T12:15:11.609Z</time>
      </trkpt>
      <trkpt lat="56.9695" lon="24.1548">
        <ele>8.831814</ele>
        <time>2020-10-08T12:15:12.561Z</time>
      </trkpt>
      <trkpt lat="56.96932" lon="24.15422">
        <ele>8.809128</ele>
        <time>2020-10-08T12:15:19.580Z</time>
      </trkpt>
      <trkpt lat="56.9693" lon="24.15414">
        <ele>8.806023</ele>
        <time>2020-10-08T12:15:20.557Z</time>
      </trkpt>
      <trkpt lat="56.96929" lon="24.15411">
        <ele>8.804966</ele>
        <time>2020-10-08T12:15:20.845Z</time>
      </trkpt>
      <trkpt lat="56.96901" lon="24.1532">
        <ele>8.769236</ele>
        <time>2020-10-08T12:15:33.515Z</time>
      </trkpt>
      <trkpt lat="56.96866" lon="24.15219">
        <ele>8.727855</ele>
        <time>2020-10-08T12:15:50.088Z</time>
      </trkpt>
      <trkpt lat="56.96854" lon="24.15192">
        <ele>8.864072</ele>
        <time>2020-10-08T12:15:54.831Z</time>
      </trkpt>
      <trkpt lat="56.96852" lon="24.15187">
        <ele>8.8908</ele>
        <time>2020-10-08T12:15:55.563Z</time>
      </trkpt>
      <trkpt lat="56.9685" lon="24.15182">
        <ele>8.915938</ele>
        <time>2020-10-08T12:15:56.431Z</time>
      </trkpt>
      <trkpt lat="56.96843" lon="24.1517">
        <ele>8.990421</ele>
        <time>2020-10-08T12:15:58.968Z</time>
      </trkpt>
      <trkpt lat="56.96841" lon="24.15166">
        <ele>9.01397</ele>
        <time>2020-10-08T12:15:59.766Z</time>
      </trkpt>
      <trkpt lat="56.96838" lon="24.1516">
        <ele>9.048923</ele>
        <time>2020-10-08T12:16:00.956Z</time>
      </trkpt>
      <trkpt lat="56.96833" lon="24.1514">
        <ele>9.145403</ele>
        <time>2020-10-08T12:16:04.106Z</time>
      </trkpt>
      <trkpt lat="56.96829" lon="24.15135">
        <ele>9.180703</ele>
        <time>2020-10-08T12:16:05.209Z</time>
      </trkpt>
      <trkpt lat="56.96827" lon="24.15133">
        <ele>9.198239</ele>
        <time>2020-10-08T12:16:05.827Z</time>
      </trkpt>
      <trkpt lat="56.96823" lon="24.15125">
        <ele>9.248002</ele>
        <time>2020-10-08T12:16:07.563Z</time>
      </trkpt>
      <trkpt lat="56.96807" lon="24.15115">
        <ele>9.379255</ele>
        <time>2020-10-08T12:16:11.907Z</time>
      </trkpt>
      <trkpt lat="56.96807" lon="24.15113">
        <ele>9.388719</ele>
        <time>2020-10-08T12:16:12.204Z</time>
      </trkpt>
      <trkpt lat="56.96806" lon="24.15113">
        <ele>9.396192</ele>
        <time>2020-10-08T12:16:12.449Z</time>
      </trkpt>
      <trkpt lat="56.96778" lon="24.15094">
        <ele>9.62861</ele>
        <time>2020-10-08T12:16:20.466Z</time>
      </trkpt>
      <trkpt lat="56.96776" lon="24.15092">
        <ele>9.651031</ele>
        <time>2020-10-08T12:16:21.214Z</time>
      </trkpt>
      <trkpt lat="56.96674" lon="24.15025">
        <ele>10.39086</ele>
        <time>2020-10-08T12:16:49.590Z</time>
      </trkpt>
      <trkpt lat="56.96644" lon="24.15004">
        <ele>10.564958</ele>
        <time>2020-10-08T12:16:57.174Z</time>
      </trkpt>
      <trkpt lat="56.9655" lon="24.14943">
        <ele>11.116424</ele>
        <time>2020-10-08T12:17:21.673Z</time>
      </trkpt>
      <trkpt lat="56.96526" lon="24.14928">
        <ele>11.310777</ele>
        <time>2020-10-08T12:17:28.720Z</time>
      </trkpt>
      <trkpt lat="56.96516" lon="24.14915">
        <ele>11.396311</ele>
        <time>2020-10-08T12:17:31.755Z</time>
      </trkpt>
      <trkpt lat="56.9652" lon="24.14912">
        <ele>11.427353</ele>
        <time>2020-10-08T12:17:32.830Z</time>
      </trkpt>
      <trkpt lat="56.96522" lon="24.1491">
        <ele>11.44227</ele>
        <time>2020-10-08T12:17:33.358Z</time>
      </trkpt>
      <trkpt lat="56.96519" lon="24.14904">
        <ele>11.475387</ele>
        <time>2020-10-08T12:17:34.632Z</time>
      </trkpt>
      <trkpt lat="56.96519" lon="24.14903">
        <ele>11.481931</ele>
        <time>2020-10-08T12:17:34.879Z</time>
      </trkpt>
      <trkpt lat="56.96505" lon="24.14872">
        <ele>11.644196</ele>
        <time>2020-10-08T12:17:40.669Z</time>
      </trkpt>
      <trkpt lat="56.96454" lon="24.14771">
        <ele>12.210515</ele>
        <time>2020-10-08T12:18:00.728Z</time>
      </trkpt>
      <trkpt lat="56.96447" lon="24.14757">
        <ele>12.290284</ele>
        <time>2020-10-08T12:18:03.612Z</time>
      </trkpt>
      <trkpt lat="56.964" lon="24.14666">
        <ele>12.3843</ele>
        <time>2020-10-08T12:18:20.971Z</time>
      </trkpt>
      <trkpt lat="56.9637" lon="24.14607">
        <ele>12.277815</ele>
        <time>2020-10-08T12:18:31.065Z</time>
      </trkpt>
      <trkpt lat="56.96297" lon="24.14465">
        <ele>12.05386</ele>
        <time>2020-10-08T12:18:53.076Z</time>
      </trkpt>
      <trkpt lat="56.96271" lon="24.14413">
        <ele>12.060043</ele>
        <time>2020-10-08T12:19:01.072Z</time>
      </trkpt>
      <trkpt lat="56.96201" lon="24.14276">
        <ele>12.076428</ele>
        <time>2020-10-08T12:19:24.762Z</time>
      </trkpt>
      <trkpt lat="56.96095" lon="24.14068">
        <ele>13.661309</ele>
        <time>2020-10-08T12:20:09.127Z</time>
      </trkpt>
      <trkpt lat="56.9609" lon="24.14058">
        <ele>13.747651</ele>
        <time>2020-10-08T12:20:11.266Z</time>
      </trkpt>
      <trkpt lat="56.96064" lon="24.14007">
        <ele>14.21178</ele>
        <time>2020-10-08T12:20:22.505Z</time>
      </trkpt>
      <trkpt lat="56.9604" lon="24.1396">
        <ele>14.35698</ele>
        <time>2020-10-08T12:20:32.405Z</time>
      </trkpt>
      <trkpt lat="56.95968" lon="24.13817">
        <ele>14.631092</ele>
        <time>2020-10-08T12:20:58.472Z</time>
      </trkpt>
      <trkpt lat="56.95849" lon="24.13581">
        <ele>14.25552</ele>
        <time>2020-10-08T12:21:35.291Z</time>
      </trkpt>
      <trkpt lat="56.95837" lon="24.13557">
        <ele>14.188893</ele>
        <time>2020-10-08T12:21:39.183Z</time>
      </trkpt>
      <trkpt lat="56.95723" lon="24.13326">
        <ele>14.546096</ele>
        <time>2020-10-08T12:22:20.953Z</time>
      </trkpt>
      <trkpt lat="56.95722" lon="24.13325">
        <ele>14.549739</ele>
        <time>2020-10-08T12:22:21.243Z</time>
      </trkpt>
      <trkpt lat="56.95717" lon="24.13316">
        <ele>14.572835</ele>
        <time>2020-10-08T12:22:22.998Z</time>
      </trkpt>
      <trkpt lat="56.95716" lon="24.13314">
        <ele>14.578947</ele>
        <time>2020-10-08T12:22:23.464Z</time>
      </trkpt>
      <trkpt lat="56.95715" lon="24.13311">
        <ele>14.584955</ele>
        <time>2020-10-08T12:22:23.960Z</time>
      </trkpt>
      <trkpt lat="56.95711" lon="24.13303">
        <ele>14.604982</ele>
        <time>2020-10-08T12:22:25.477Z</time>
      </trkpt>
      <trkpt lat="56.95709" lon="24.13299">
        <ele>14.61541</ele>
        <time>2020-10-08T12:22:26.304Z</time>
      </trkpt>
      <trkpt lat="56.9566" lon="24.132">
        <ele>14.825339</ele>
        <time>2020-10-08T12:22:44.509Z</time>
      </trkpt>
      <trkpt lat="56.95633" lon="24.13146">
        <ele>14.933434</ele>
        <time>2020-10-08T12:22:54.408Z</time>
      </trkpt>
      <trkpt lat="56.95566" lon="24.1301">
        <ele>15.172837</ele>
        <time>2020-10-08T12:23:18.288Z</time>
      </trkpt>
      <trkpt lat="56.95558" lon="24.12995">
        <ele>15.174672</ele>
        <time>2020-10-08T12:23:20.849Z</time>
      </trkpt>
      <trkpt lat="56.95553" lon="24.12985">
        <ele>15.175903</ele>
        <time>2020-10-08T12:23:22.526Z</time>
      </trkpt>
      <trkpt lat="56.95481" lon="24.1284">
        <ele>15.193297</ele>
        <time>2020-10-08T12:23:47.338Z</time>
      </trkpt>
      <trkpt lat="56.9546" lon="24.12799">
        <ele>15.198269</ele>
        <time>2020-10-08T12:23:54.336Z</time>
      </trkpt>
      <trkpt lat="56.95453" lon="24.12785">
        <ele>15.199962</ele>
        <time>2020-10-08T12:23:56.772Z</time>
      </trkpt>
      <trkpt lat="56.95421" lon="24.12722">
        <ele>15.10129</ele>
        <time>2020-10-08T12:24:07.683Z</time>
      </trkpt>
      <trkpt lat="56.95384" lon="24.12647">
        <ele>14.983856</ele>
        <time>2020-10-08T12:24:20.638Z</time>
      </trkpt>
      <trkpt lat="56.9538" lon="24.12639">
        <ele>14.971595</ele>
        <time>2020-10-08T12:24:21.968Z</time>
      </trkpt>
      <trkpt lat="56.95377" lon="24.12634">
        <ele>14.96262</ele>
        <time>2020-10-08T12:24:22.965Z</time>
      </trkpt>
      <trkpt lat="56.95374" lon="24.12627">
        <ele>14.952474</ele>
        <time>2020-10-08T12:24:24.061Z</time>
      </trkpt>
      <trkpt lat="56.95371" lon="24.12621">
        <ele>14.942556</ele>
        <time>2020-10-08T12:24:25.112Z</time>
      </trkpt>
      <trkpt lat="56.95295" lon="24.12467">
        <ele>14.465182</ele>
        <time>2020-10-08T12:24:48.900Z</time>
      </trkpt>
      <trkpt lat="56.95201" lon="24.12275">
        <ele>13.523706</ele>
        <time>2020-10-08T12:25:18.893Z</time>
      </trkpt>
      <trkpt lat="56.95119" lon="24.1211">
        <ele>12.572054</ele>
        <time>2020-10-08T12:25:43.368Z</time>
      </trkpt>
      <trkpt lat="56.95115" lon="24.12101">
        <ele>12.51875</ele>
        <time>2020-10-08T12:25:44.797Z</time>
      </trkpt>
      <trkpt lat="56.95113" lon="24.12097">
        <ele>12.496417</ele>
        <time>2020-10-08T12:25:45.395Z</time>
      </trkpt>
      <trkpt lat="56.95108" lon="24.12089">
        <ele>12.447433</ele>
        <time>2020-10-08T12:25:46.785Z</time>
      </trkpt>
      <trkpt lat="56.95039" lon="24.11949">
        <ele>11.646678</ele>
        <time>2020-10-08T12:26:09.263Z</time>
      </trkpt>
      <trkpt lat="56.94989" lon="24.11847">
        <ele>11.065303</ele>
        <time>2020-10-08T12:26:23.919Z</time>
      </trkpt>
      <trkpt lat="56.94983" lon="24.11834">
        <ele>10.988252</ele>
        <time>2020-10-08T12:26:25.984Z</time>
      </trkpt>
      <trkpt lat="56.94976" lon="24.1182">
        <ele>10.90796</ele>
        <time>2020-10-08T12:26:28.153Z</time>
      </trkpt>
      <trkpt lat="56.94926" lon="24.11721">
        <ele>10.928137</ele>
        <time>2020-10-08T12:26:44.112Z</time>
      </trkpt>
      <trkpt lat="56.94925" lon="24.11718">
        <ele>10.931591</ele>
        <time>2020-10-08T12:26:44.492Z</time>
      </trkpt>
      <trkpt lat="56.94918" lon="24.11703">
        <ele>10.946866</ele>
        <time>2020-10-08T12:26:47.081Z</time>
      </trkpt>
      <trkpt lat="56.94913" lon="24.11693">
        <ele>10.958226</ele>
        <time>2020-10-08T12:26:49.195Z</time>
      </trkpt>
      <trkpt lat="56.94879" lon="24.11624">
        <ele>11.031095</ele>
        <time>2020-10-08T12:27:02.055Z</time>
      </trkpt>
      <trkpt lat="56.94876" lon="24.11618">
        <ele>11.037915</ele>
        <time>2020-10-08T12:27:02.876Z</time>
      </trkpt>
      <trkpt lat="56.94861" lon="24.11588">
        <ele>11.070239</ele>
        <time>2020-10-08T12:27:08.722Z</time>
      </trkpt>
      <trkpt lat="56.94853" lon="24.11572">
        <ele>11.086656</ele>
        <time>2020-10-08T12:27:11.356Z</time>
      </trkpt>
      <trkpt lat="56.9481" lon="24.11476">
        <ele>12.092754</ele>
        <time>2020-10-08T12:27:30.504Z</time>
      </trkpt>
      <trkpt lat="56.94808" lon="24.11473">
        <ele>12.13578</ele>
        <time>2020-10-08T12:27:31.252Z</time>
      </trkpt>
      <trkpt lat="56.94807" lon="24.11469">
        <ele>12.172265</ele>
        <time>2020-10-08T12:27:31.825Z</time>
      </trkpt>
      <trkpt lat="56.94804" lon="24.11462">
        <ele>12.252458</ele>
        <time>2020-10-08T12:27:33.727Z</time>
      </trkpt>
      <trkpt lat="56.94808" lon="24.11459">
        <ele>12.326286</ele>
        <time>2020-10-08T12:27:35.300Z</time>
      </trkpt>
      <trkpt lat="56.9481" lon="24.11457">
        <ele>12.371127</ele>
        <time>2020-10-08T12:27:36.191Z</time>
      </trkpt>
      <trkpt lat="56.94856" lon="24.11425">
        <ele>13.16426</ele>
        <time>2020-10-08T12:27:51.940Z</time>
      </trkpt>
      <trkpt lat="56.94894" lon="24.11391">
        <ele>13.853748</ele>
        <time>2020-10-08T12:28:04.785Z</time>
      </trkpt>
      <trkpt lat="56.94897" lon="24.11379">
        <ele>13.974027</ele>
        <time>2020-10-08T12:28:06.462Z</time>
      </trkpt>
      <trkpt lat="56.94899" lon="24.11375">
        <ele>14.016975</ele>
        <time>2020-10-08T12:28:07.419Z</time>
      </trkpt>
      <trkpt lat="56.94898" lon="24.11373">
        <ele>14.033225</ele>
        <time>2020-10-08T12:28:07.882Z</time>
      </trkpt>
      <trkpt lat="56.94893" lon="24.11355">
        <ele>14.097227</ele>
        <time>2020-10-08T12:28:10.799Z</time>
      </trkpt>
      <trkpt lat="56.94878" lon="24.11286">
        <ele>14.33855</ele>
        <time>2020-10-08T12:28:21.156Z</time>
      </trkpt>
      <trkpt lat="56.94876" lon="24.11279">
        <ele>14.365847</ele>
        <time>2020-10-08T12:28:22.260Z</time>
      </trkpt>
      <trkpt lat="56.9488" lon="24.11273">
        <ele>14.396116</ele>
        <time>2020-10-08T12:28:23.551Z</time>
      </trkpt>
      <trkpt lat="56.94883" lon="24.1127">
        <ele>14.415935</ele>
        <time>2020-10-08T12:28:24.552Z</time>
      </trkpt>
      <trkpt lat="56.94909" lon="24.11231">
        <ele>14.613932</ele>
        <time>2020-10-08T12:28:35.348Z</time>
      </trkpt>
      <trkpt lat="56.94906" lon="24.11222">
        <ele>14.647769</ele>
        <time>2020-10-08T12:28:36.996Z</time>
      </trkpt>
      <trkpt lat="56.94905" lon="24.11218">
        <ele>14.66085</ele>
        <time>2020-10-08T12:28:37.846Z</time>
      </trkpt>
      <trkpt lat="56.94894" lon="24.11179">
        <ele>14.805824</ele>
        <time>2020-10-08T12:28:45.825Z</time>
      </trkpt>
      <trkpt lat="56.94893" lon="24.11176">
        <ele>14.81823</ele>
        <time>2020-10-08T12:28:46.298Z</time>
      </trkpt>
      <trkpt lat="56.94887" lon="24.11167">
        <ele>14.860252</ele>
        <time>2020-10-08T12:28:48.280Z</time>
      </trkpt>
      <trkpt lat="56.94882" lon="24.11159">
        <ele>14.899862</ele>
        <time>2020-10-08T12:28:50.806Z</time>
      </trkpt>
      <trkpt lat="56.94865" lon="24.11134">
        <ele>15.033446</ele>
        <time>2020-10-08T12:28:57.505Z</time>
      </trkpt>
      <trkpt lat="56.94866" lon="24.11129">
        <ele>15.050543</ele>
        <time>2020-10-08T12:28:58.141Z</time>
      </trkpt>
      <trkpt lat="56.94868" lon="24.1112">
        <ele>15.084369</ele>
        <time>2020-10-08T12:28:59.283Z</time>
      </trkpt>
      <trkpt lat="56.94866" lon="24.11117">
        <ele>15.095489</ele>
        <time>2020-10-08T12:29:00.077Z</time>
      </trkpt>
      <trkpt lat="56.9487" lon="24.11105">
        <ele>15.046253</ele>
        <time>2020-10-08T12:29:02.625Z</time>
      </trkpt>
      <trkpt lat="56.94867" lon="24.11101">
        <ele>15.019565</ele>
        <time>2020-10-08T12:29:03.907Z</time>
      </trkpt>
      <trkpt lat="56.9487" lon="24.11091">
        <ele>14.978933</ele>
        <time>2020-10-08T12:29:05.748Z</time>
      </trkpt>
      <trkpt lat="56.94865" lon="24.11085">
        <ele>14.938909</ele>
        <time>2020-10-08T12:29:07.308Z</time>
      </trkpt>
      <trkpt lat="56.94859" lon="24.1108">
        <ele>14.900889</ele>
        <time>2020-10-08T12:29:08.883Z</time>
      </trkpt>
      <trkpt lat="56.94861" lon="24.11075">
        <ele>14.882705</ele>
        <time>2020-10-08T12:29:09.561Z</time>
      </trkpt>
      <trkpt lat="56.94835" lon="24.11045">
        <ele>14.682556</ele>
        <time>2020-10-08T12:29:16.292Z</time>
      </trkpt>
      <trkpt lat="56.94847" lon="24.11007">
        <ele>14.527817</ele>
        <time>2020-10-08T12:29:21.328Z</time>
      </trkpt>
      <trkpt lat="56.94857" lon="24.10984">
        <ele>14.428803</ele>
        <time>2020-10-08T12:29:24.243Z</time>
      </trkpt>
      <trkpt lat="56.94859" lon="24.1098">
        <ele>14.405723</ele>
        <time>2020-10-08T12:29:25.042Z</time>
      </trkpt>
      <trkpt lat="56.94882" lon="24.10932">
        <ele>14.183119</ele>
        <time>2020-10-08T12:29:32.188Z</time>
      </trkpt>
      <trkpt lat="56.94885" lon="24.10926">
        <ele>14.154593</ele>
        <time>2020-10-08T12:29:33.149Z</time>
      </trkpt>
      <trkpt lat="56.9489" lon="24.10916">
        <ele>14.104889</ele>
        <time>2020-10-08T12:29:34.816Z</time>
      </trkpt>
      <trkpt lat="56.94893" lon="24.10913">
        <ele>14.086184</ele>
        <time>2020-10-08T12:29:35.451Z</time>
      </trkpt>
      <trkpt lat="56.94873" lon="24.10869">
        <ele>13.941593</ele>
        <time>2020-10-08T12:29:57.201Z</time>
      </trkpt>
      <trkpt lat="56.94856" lon="24.10829">
        <ele>13.941593</ele>
        <time>2020-10-08T12:30:16.406Z</time>
      </trkpt>
      <trkpt lat="56.94853" lon="24.10825">
        <ele>13.941593</ele>
        <time>2020-10-08T12:30:18.912Z</time>
      </trkpt>
      <trkpt lat="56.94848" lon="24.10816">
        <ele>13.941593</ele>
        <time>2020-10-08T12:30:23.702Z</time>
      </trkpt>
      <trkpt lat="56.94841" lon="24.10801">
        <ele>13.941593</ele>
        <time>2020-10-08T12:30:31.433Z</time>
      </trkpt>
      <trkpt lat="56.94823" lon="24.10765">
        <ele>13.941593</ele>
        <time>2020-10-08T12:30:36.692Z</time>
      </trkpt>
      <trkpt lat="56.9482" lon="24.10759">
        <ele>13.941593</ele>
        <time>2020-10-08T12:30:37.617Z</time>
      </trkpt>
      <trkpt lat="56.94805" lon="24.10723">
        <ele>13.941593</ele>
        <time>2020-10-08T12:30:42.625Z</time>
      </trkpt>
    </trkseg>
  </trk>
</gpx>